<?xml version='1.0' encoding='UTF-8'?><gpx version="1.1" creator="JPX - https://github.com/jenetics/jpx" xmlns="http://www.topografix.com/GPX/1/1"><trk><trkseg><trkpt lat="43.5647613" lon="12.1563693"><ele>333.0</ele><time>2026-04-24T06:57:48.996Z</time></trkpt><trkpt lat="43.5648172" lon="12.1563154"><ele>333.0</ele><time>2026-04-24T06:57:57.996Z</time></trkpt><trkpt lat="43.5648882" lon="12.1563148"><ele>333.0</ele><time>2026-04-24T06:58:52.996Z</time></trkpt><trkpt lat="43.5649554" lon="12.1562076"><ele>333.0</ele><time>2026-04-24T06:58:55.996Z</time></trkpt><trkpt lat="43.5650115" lon="12.1560791"><ele>333.0</ele><time>2026-04-24T06:58:57.997Z</time></trkpt><trkpt lat="43.5649895" lon="12.1559609"><ele>333.0</ele><time>2026-04-24T06:58:59.996Z</time></trkpt><trkpt lat="43.5649002" lon="12.155883"><ele>333.0</ele><time>2026-04-24T06:59:01.997Z</time></trkpt><trkpt lat="43.5648466" lon="12.1558332"><ele>333.0</ele><time>2026-04-24T06:59:04.111Z</time></trkpt><trkpt lat="43.5648783" lon="12.1556322"><ele>333.0</ele><time>2026-04-24T06:59:06.996Z</time></trkpt><trkpt lat="43.5649106" lon="12.1555554"><ele>333.0</ele><time>2026-04-24T06:59:07.996Z</time></trkpt><trkpt lat="43.5649494" lon="12.1554716"><ele>333.0</ele><time>2026-04-24T06:59:08.996Z</time></trkpt><trkpt lat="43.5649929" lon="12.1553761"><ele>333.0</ele><time>2026-04-24T06:59:09.996Z</time></trkpt><trkpt lat="43.5650346" lon="12.1552705"><ele>333.0</ele><time>2026-04-24T06:59:10.996Z</time></trkpt><trkpt lat="43.5650778" lon="12.1551552"><ele>333.0</ele><time>2026-04-24T06:59:11.996Z</time></trkpt><trkpt lat="43.5651202" lon="12.1550369"><ele>333.0</ele><time>2026-04-24T06:59:12.996Z</time></trkpt><trkpt lat="43.5651621" lon="12.1549203"><ele>333.0</ele><time>2026-04-24T06:59:13.997Z</time></trkpt><trkpt lat="43.5652052" lon="12.1547989"><ele>333.0</ele><time>2026-04-24T06:59:14.996Z</time></trkpt><trkpt lat="43.5652526" lon="12.1546736"><ele>332.79999999999995</ele><time>2026-04-24T06:59:15.996Z</time></trkpt><trkpt lat="43.5652989" lon="12.1545408"><ele>332.6</ele><time>2026-04-24T06:59:16.996Z</time></trkpt><trkpt lat="43.5653448" lon="12.1544018"><ele>332.4</ele><time>2026-04-24T06:59:17.996Z</time></trkpt><trkpt lat="43.5653913" lon="12.1542593"><ele>332.20000000000005</ele><time>2026-04-24T06:59:18.997Z</time></trkpt><trkpt lat="43.5654412" lon="12.1541185"><ele>332.0</ele><time>2026-04-24T06:59:19.996Z</time></trkpt><trkpt lat="43.5654845" lon="12.1539882"><ele>332.40000000000003</ele><time>2026-04-24T06:59:20.996Z</time></trkpt><trkpt lat="43.5655213" lon="12.1538659"><ele>332.8</ele><time>2026-04-24T06:59:21.996Z</time></trkpt><trkpt lat="43.5655579" lon="12.1537503"><ele>333.2</ele><time>2026-04-24T06:59:22.996Z</time></trkpt><trkpt lat="43.5655939" lon="12.1536438"><ele>333.6</ele><time>2026-04-24T06:59:23.996Z</time></trkpt><trkpt lat="43.5656349" lon="12.1535441"><ele>334.0</ele><time>2026-04-24T06:59:24.996Z</time></trkpt><trkpt lat="43.5656797" lon="12.1534269"><ele>334.0</ele><time>2026-04-24T06:59:25.996Z</time></trkpt><trkpt lat="43.5657263" lon="12.1533044"><ele>334.0</ele><time>2026-04-24T06:59:26.996Z</time></trkpt><trkpt lat="43.5657736" lon="12.1531727"><ele>334.0</ele><time>2026-04-24T06:59:27.996Z</time></trkpt><trkpt lat="43.5658181" lon="12.1530355"><ele>334.0</ele><time>2026-04-24T06:59:28.997Z</time></trkpt><trkpt lat="43.5658574" lon="12.152906"><ele>334.0</ele><time>2026-04-24T06:59:29.996Z</time></trkpt><trkpt lat="43.5658882" lon="12.152789"><ele>334.0</ele><time>2026-04-24T06:59:30.996Z</time></trkpt><trkpt lat="43.5659132" lon="12.1526805"><ele>334.0</ele><time>2026-04-24T06:59:31.996Z</time></trkpt><trkpt lat="43.5659388" lon="12.1525769"><ele>334.0</ele><time>2026-04-24T06:59:32.996Z</time></trkpt><trkpt lat="43.5659626" lon="12.1524764"><ele>334.0</ele><time>2026-04-24T06:59:33.996Z</time></trkpt><trkpt lat="43.5659855" lon="12.1523742"><ele>334.0</ele><time>2026-04-24T06:59:34.996Z</time></trkpt><trkpt lat="43.5660124" lon="12.1522647"><ele>334.0</ele><time>2026-04-24T06:59:35.996Z</time></trkpt><trkpt lat="43.5660394" lon="12.1521548"><ele>333.4</ele><time>2026-04-24T06:59:36.996Z</time></trkpt><trkpt lat="43.5660648" lon="12.1520343"><ele>332.79999999999995</ele><time>2026-04-24T06:59:37.996Z</time></trkpt><trkpt lat="43.5660918" lon="12.1519038"><ele>332.20000000000005</ele><time>2026-04-24T06:59:38.996Z</time></trkpt><trkpt lat="43.56612" lon="12.1517668"><ele>331.6</ele><time>2026-04-24T06:59:39.996Z</time></trkpt><trkpt lat="43.5661471" lon="12.1516296"><ele>331.0</ele><time>2026-04-24T06:59:40.997Z</time></trkpt><trkpt lat="43.5661725" lon="12.1515097"><ele>331.0</ele><time>2026-04-24T06:59:41.996Z</time></trkpt><trkpt lat="43.566195" lon="12.1513972"><ele>331.0</ele><time>2026-04-24T06:59:42.997Z</time></trkpt><trkpt lat="43.5662234" lon="12.1512861"><ele>331.0</ele><time>2026-04-24T06:59:43.997Z</time></trkpt><trkpt lat="43.5662704" lon="12.1511986"><ele>331.0</ele><time>2026-04-24T06:59:44.996Z</time></trkpt><trkpt lat="43.566328" lon="12.1511376"><ele>331.0</ele><time>2026-04-24T06:59:45.996Z</time></trkpt><trkpt lat="43.5663905" lon="12.1511075"><ele>331.0</ele><time>2026-04-24T06:59:46.996Z</time></trkpt><trkpt lat="43.5665201" lon="12.1511546"><ele>331.0</ele><time>2026-04-24T06:59:48.997Z</time></trkpt><trkpt lat="43.5665966" lon="12.1511984"><ele>331.0</ele><time>2026-04-24T06:59:49.996Z</time></trkpt><trkpt lat="43.5666736" lon="12.1512487"><ele>331.0</ele><time>2026-04-24T06:59:50.996Z</time></trkpt><trkpt lat="43.5667584" lon="12.1513046"><ele>331.0</ele><time>2026-04-24T06:59:51.995Z</time></trkpt><trkpt lat="43.5668416" lon="12.1513752"><ele>331.0</ele><time>2026-04-24T06:59:52.995Z</time></trkpt><trkpt lat="43.5669115" lon="12.151472"><ele>331.16666666666663</ele><time>2026-04-24T06:59:53.995Z</time></trkpt><trkpt lat="43.5669704" lon="12.1515613"><ele>331.3333333333333</ele><time>2026-04-24T06:59:54.995Z</time></trkpt><trkpt lat="43.5670407" lon="12.1516279"><ele>331.5</ele><time>2026-04-24T06:59:55.995Z</time></trkpt><trkpt lat="43.5671213" lon="12.1516502"><ele>331.6666666666667</ele><time>2026-04-24T06:59:56.995Z</time></trkpt><trkpt lat="43.5672029" lon="12.1516244"><ele>331.83333333333337</ele><time>2026-04-24T06:59:57.995Z</time></trkpt><trkpt lat="43.5672751" lon="12.1515535"><ele>332.0</ele><time>2026-04-24T06:59:58.996Z</time></trkpt><trkpt lat="43.5673312" lon="12.1514484"><ele>332.5</ele><time>2026-04-24T06:59:59.995Z</time></trkpt><trkpt lat="43.5673783" lon="12.1513199"><ele>333.0</ele><time>2026-04-24T07:00:00.995Z</time></trkpt><trkpt lat="43.5674232" lon="12.1511756"><ele>333.5</ele><time>2026-04-24T07:00:01.996Z</time></trkpt><trkpt lat="43.5674736" lon="12.1510274"><ele>334.0</ele><time>2026-04-24T07:00:02.996Z</time></trkpt><trkpt lat="43.567533" lon="12.1508841"><ele>334.0</ele><time>2026-04-24T07:00:03.995Z</time></trkpt><trkpt lat="43.567606" lon="12.1507558"><ele>334.0</ele><time>2026-04-24T07:00:04.995Z</time></trkpt><trkpt lat="43.5676852" lon="12.1506329"><ele>334.0</ele><time>2026-04-24T07:00:05.995Z</time></trkpt><trkpt lat="43.5677695" lon="12.1505132"><ele>334.0</ele><time>2026-04-24T07:00:06.995Z</time></trkpt><trkpt lat="43.5678567" lon="12.1503957"><ele>334.25</ele><time>2026-04-24T07:00:07.995Z</time></trkpt><trkpt lat="43.5679446" lon="12.1502766"><ele>334.5</ele><time>2026-04-24T07:00:08.996Z</time></trkpt><trkpt lat="43.5680336" lon="12.1501563"><ele>334.75</ele><time>2026-04-24T07:00:09.995Z</time></trkpt><trkpt lat="43.5681226" lon="12.1500356"><ele>335.0</ele><time>2026-04-24T07:00:10.995Z</time></trkpt><trkpt lat="43.5682111" lon="12.1499156"><ele>334.75</ele><time>2026-04-24T07:00:11.995Z</time></trkpt><trkpt lat="43.5683039" lon="12.1497959"><ele>334.5</ele><time>2026-04-24T07:00:12.996Z</time></trkpt><trkpt lat="43.5683977" lon="12.1496744"><ele>334.25</ele><time>2026-04-24T07:00:13.996Z</time></trkpt><trkpt lat="43.5684931" lon="12.1495473"><ele>334.0</ele><time>2026-04-24T07:00:14.995Z</time></trkpt><trkpt lat="43.5685892" lon="12.1494127"><ele>334.0</ele><time>2026-04-24T07:00:15.996Z</time></trkpt><trkpt lat="43.5686871" lon="12.1492768"><ele>334.0</ele><time>2026-04-24T07:00:16.995Z</time></trkpt><trkpt lat="43.5687879" lon="12.1491385"><ele>334.0</ele><time>2026-04-24T07:00:17.995Z</time></trkpt><trkpt lat="43.5688923" lon="12.1490022"><ele>334.0</ele><time>2026-04-24T07:00:18.995Z</time></trkpt><trkpt lat="43.568999" lon="12.1488711"><ele>334.25</ele><time>2026-04-24T07:00:19.995Z</time></trkpt><trkpt lat="43.569095" lon="12.1487417"><ele>334.5</ele><time>2026-04-24T07:00:20.995Z</time></trkpt><trkpt lat="43.5691876" lon="12.1486173"><ele>334.75</ele><time>2026-04-24T07:00:21.995Z</time></trkpt><trkpt lat="43.5692773" lon="12.1484978"><ele>335.0</ele><time>2026-04-24T07:00:22.995Z</time></trkpt><trkpt lat="43.569366" lon="12.1483796"><ele>335.0</ele><time>2026-04-24T07:00:23.995Z</time></trkpt><trkpt lat="43.5694522" lon="12.14826"><ele>335.0</ele><time>2026-04-24T07:00:24.995Z</time></trkpt><trkpt lat="43.5695417" lon="12.1481408"><ele>335.0</ele><time>2026-04-24T07:00:25.996Z</time></trkpt><trkpt lat="43.5696302" lon="12.148024"><ele>335.0</ele><time>2026-04-24T07:00:26.995Z</time></trkpt><trkpt lat="43.5697156" lon="12.1479103"><ele>336.0</ele><time>2026-04-24T07:00:27.997Z</time></trkpt><trkpt lat="43.5697976" lon="12.1477997"><ele>337.0</ele><time>2026-04-24T07:00:28.995Z</time></trkpt><trkpt lat="43.5698768" lon="12.1476914"><ele>338.0</ele><time>2026-04-24T07:00:29.996Z</time></trkpt><trkpt lat="43.5699521" lon="12.1475841"><ele>339.0</ele><time>2026-04-24T07:00:30.995Z</time></trkpt><trkpt lat="43.5700244" lon="12.1474857"><ele>340.0</ele><time>2026-04-24T07:00:31.995Z</time></trkpt><trkpt lat="43.5700939" lon="12.1473913"><ele>340.0</ele><time>2026-04-24T07:00:32.995Z</time></trkpt><trkpt lat="43.5701509" lon="12.147312"><ele>340.0</ele><time>2026-04-24T07:00:33.996Z</time></trkpt><trkpt lat="43.5701953" lon="12.1472504"><ele>340.0</ele><time>2026-04-24T07:00:34.995Z</time></trkpt><trkpt lat="43.5702536" lon="12.1471666"><ele>340.0</ele><time>2026-04-24T07:00:36.995Z</time></trkpt><trkpt lat="43.5703041" lon="12.1470894"><ele>340.0</ele><time>2026-04-24T07:00:39.996Z</time></trkpt><trkpt lat="43.570372" lon="12.1470115"><ele>340.0</ele><time>2026-04-24T07:01:05.995Z</time></trkpt><trkpt lat="43.5704251" lon="12.1469541"><ele>340.66666666666663</ele><time>2026-04-24T07:01:06.995Z</time></trkpt><trkpt lat="43.5704715" lon="12.1468948"><ele>341.3333333333333</ele><time>2026-04-24T07:01:07.995Z</time></trkpt><trkpt lat="43.5705195" lon="12.1468125"><ele>342.0</ele><time>2026-04-24T07:01:08.995Z</time></trkpt><trkpt lat="43.5705759" lon="12.1467112"><ele>342.6666666666667</ele><time>2026-04-24T07:01:09.996Z</time></trkpt><trkpt lat="43.5706356" lon="12.1465958"><ele>343.33333333333337</ele><time>2026-04-24T07:01:10.995Z</time></trkpt><trkpt lat="43.5706926" lon="12.1464855"><ele>344.0</ele><time>2026-04-24T07:01:11.995Z</time></trkpt><trkpt lat="43.5707511" lon="12.1463614"><ele>344.5</ele><time>2026-04-24T07:01:12.995Z</time></trkpt><trkpt lat="43.5708086" lon="12.1462238"><ele>345.0</ele><time>2026-04-24T07:01:13.995Z</time></trkpt><trkpt lat="43.5708659" lon="12.1460766"><ele>345.5</ele><time>2026-04-24T07:01:14.995Z</time></trkpt><trkpt lat="43.570929" lon="12.1459179"><ele>346.0</ele><time>2026-04-24T07:01:15.996Z</time></trkpt><trkpt lat="43.5709918" lon="12.1457517"><ele>345.5</ele><time>2026-04-24T07:01:16.995Z</time></trkpt><trkpt lat="43.5710521" lon="12.1455891"><ele>345.0</ele><time>2026-04-24T07:01:17.995Z</time></trkpt><trkpt lat="43.5711098" lon="12.1454312"><ele>344.5</ele><time>2026-04-24T07:01:18.996Z</time></trkpt><trkpt lat="43.5711646" lon="12.145286"><ele>344.0</ele><time>2026-04-24T07:01:19.995Z</time></trkpt><trkpt lat="43.5712164" lon="12.1451511"><ele>344.0</ele><time>2026-04-24T07:01:20.996Z</time></trkpt><trkpt lat="43.5712623" lon="12.1450301"><ele>344.0</ele><time>2026-04-24T07:01:21.996Z</time></trkpt><trkpt lat="43.5713027" lon="12.1449221"><ele>344.0</ele><time>2026-04-24T07:01:22.995Z</time></trkpt><trkpt lat="43.5713393" lon="12.1448257"><ele>344.0</ele><time>2026-04-24T07:01:23.995Z</time></trkpt><trkpt lat="43.5713715" lon="12.1447409"><ele>344.0</ele><time>2026-04-24T07:01:24.995Z</time></trkpt><trkpt lat="43.5713983" lon="12.1446601"><ele>344.0</ele><time>2026-04-24T07:01:25.995Z</time></trkpt><trkpt lat="43.571459" lon="12.1445081"><ele>344.0</ele><time>2026-04-24T07:01:27.995Z</time></trkpt><trkpt lat="43.5714937" lon="12.1444273"><ele>344.0</ele><time>2026-04-24T07:01:28.995Z</time></trkpt><trkpt lat="43.5715302" lon="12.1443505"><ele>344.0</ele><time>2026-04-24T07:01:29.995Z</time></trkpt><trkpt lat="43.5715997" lon="12.1442047"><ele>344.0</ele><time>2026-04-24T07:01:31.995Z</time></trkpt><trkpt lat="43.5716471" lon="12.1441222"><ele>344.0</ele><time>2026-04-24T07:01:32.995Z</time></trkpt><trkpt lat="43.5716965" lon="12.1440284"><ele>344.0</ele><time>2026-04-24T07:01:33.995Z</time></trkpt><trkpt lat="43.5717401" lon="12.1439213"><ele>343.4</ele><time>2026-04-24T07:01:34.996Z</time></trkpt><trkpt lat="43.5717849" lon="12.143802"><ele>342.79999999999995</ele><time>2026-04-24T07:01:35.995Z</time></trkpt><trkpt lat="43.5718309" lon="12.1436883"><ele>342.20000000000005</ele><time>2026-04-24T07:01:36.995Z</time></trkpt><trkpt lat="43.5718858" lon="12.1435705"><ele>341.6</ele><time>2026-04-24T07:01:37.996Z</time></trkpt><trkpt lat="43.5719423" lon="12.1434514"><ele>341.0</ele><time>2026-04-24T07:01:38.996Z</time></trkpt><trkpt lat="43.5720003" lon="12.1433312"><ele>341.1666666666667</ele><time>2026-04-24T07:01:39.995Z</time></trkpt><trkpt lat="43.572053" lon="12.1432162"><ele>341.33333333333337</ele><time>2026-04-24T07:01:40.996Z</time></trkpt><trkpt lat="43.5721068" lon="12.1431117"><ele>341.5</ele><time>2026-04-24T07:01:41.995Z</time></trkpt><trkpt lat="43.5721558" lon="12.1430115"><ele>341.6666666666667</ele><time>2026-04-24T07:01:42.995Z</time></trkpt><trkpt lat="43.5721997" lon="12.142918"><ele>341.8333333333333</ele><time>2026-04-24T07:01:43.996Z</time></trkpt><trkpt lat="43.5722415" lon="12.1428377"><ele>342.0</ele><time>2026-04-24T07:01:44.996Z</time></trkpt><trkpt lat="43.5722844" lon="12.142767"><ele>342.0</ele><time>2026-04-24T07:01:45.996Z</time></trkpt><trkpt lat="43.5723664" lon="12.142677"><ele>342.0</ele><time>2026-04-24T07:01:47.995Z</time></trkpt><trkpt lat="43.5724242" lon="12.1425264"><ele>342.0</ele><time>2026-04-24T07:01:49.995Z</time></trkpt><trkpt lat="43.5724483" lon="12.1424317"><ele>342.0</ele><time>2026-04-24T07:01:50.995Z</time></trkpt><trkpt lat="43.5724868" lon="12.1423338"><ele>342.0</ele><time>2026-04-24T07:01:51.996Z</time></trkpt><trkpt lat="43.572534" lon="12.1422389"><ele>341.0</ele><time>2026-04-24T07:01:52.995Z</time></trkpt><trkpt lat="43.572584" lon="12.1421394"><ele>340.0</ele><time>2026-04-24T07:01:53.996Z</time></trkpt><trkpt lat="43.5726389" lon="12.1420332"><ele>339.0</ele><time>2026-04-24T07:01:54.995Z</time></trkpt><trkpt lat="43.5726951" lon="12.1419168"><ele>338.0</ele><time>2026-04-24T07:01:55.995Z</time></trkpt><trkpt lat="43.5727582" lon="12.1417856"><ele>337.0</ele><time>2026-04-24T07:01:56.995Z</time></trkpt><trkpt lat="43.5728246" lon="12.1416341"><ele>337.0</ele><time>2026-04-24T07:01:57.995Z</time></trkpt><trkpt lat="43.5728966" lon="12.1414741"><ele>337.0</ele><time>2026-04-24T07:01:58.995Z</time></trkpt><trkpt lat="43.5729754" lon="12.1413053"><ele>337.0</ele><time>2026-04-24T07:01:59.995Z</time></trkpt><trkpt lat="43.5730616" lon="12.1411261"><ele>337.0</ele><time>2026-04-24T07:02:00.995Z</time></trkpt><trkpt lat="43.5731505" lon="12.1409389"><ele>337.0</ele><time>2026-04-24T07:02:01.995Z</time></trkpt><trkpt lat="43.5732441" lon="12.1407532"><ele>337.0</ele><time>2026-04-24T07:02:02.995Z</time></trkpt><trkpt lat="43.5733362" lon="12.1405736"><ele>337.0</ele><time>2026-04-24T07:02:03.995Z</time></trkpt><trkpt lat="43.5734239" lon="12.1403934"><ele>337.0</ele><time>2026-04-24T07:02:04.995Z</time></trkpt><trkpt lat="43.5735029" lon="12.1402104"><ele>337.0</ele><time>2026-04-24T07:02:05.996Z</time></trkpt><trkpt lat="43.5735737" lon="12.1400294"><ele>337.0</ele><time>2026-04-24T07:02:06.995Z</time></trkpt><trkpt lat="43.5736346" lon="12.1398547"><ele>337.0</ele><time>2026-04-24T07:02:07.995Z</time></trkpt><trkpt lat="43.5736901" lon="12.1396833"><ele>337.0</ele><time>2026-04-24T07:02:08.995Z</time></trkpt><trkpt lat="43.5737418" lon="12.1395139"><ele>337.0</ele><time>2026-04-24T07:02:09.996Z</time></trkpt><trkpt lat="43.5737867" lon="12.1393542"><ele>337.0</ele><time>2026-04-24T07:02:10.996Z</time></trkpt><trkpt lat="43.5738275" lon="12.1392004"><ele>337.0</ele><time>2026-04-24T07:02:11.995Z</time></trkpt><trkpt lat="43.5738588" lon="12.1390511"><ele>336.6</ele><time>2026-04-24T07:02:12.995Z</time></trkpt><trkpt lat="43.573889" lon="12.1389123"><ele>336.20000000000005</ele><time>2026-04-24T07:02:13.995Z</time></trkpt><trkpt lat="43.5739159" lon="12.1387728"><ele>335.8</ele><time>2026-04-24T07:02:14.996Z</time></trkpt><trkpt lat="43.5739415" lon="12.1386215"><ele>335.4</ele><time>2026-04-24T07:02:15.995Z</time></trkpt><trkpt lat="43.5739671" lon="12.1384587"><ele>335.0</ele><time>2026-04-24T07:02:16.995Z</time></trkpt><trkpt lat="43.5739958" lon="12.1382862"><ele>333.6666666666667</ele><time>2026-04-24T07:02:17.995Z</time></trkpt><trkpt lat="43.5740241" lon="12.1381054"><ele>332.3333333333333</ele><time>2026-04-24T07:02:18.995Z</time></trkpt><trkpt lat="43.5740798" lon="12.1377425"><ele>331.0</ele><time>2026-04-24T07:02:20.995Z</time></trkpt><trkpt lat="43.5741704" lon="12.1372189"><ele>330.8</ele><time>2026-04-24T07:02:23.995Z</time></trkpt><trkpt lat="43.5741967" lon="12.1370657"><ele>330.6</ele><time>2026-04-24T07:02:24.996Z</time></trkpt><trkpt lat="43.5742222" lon="12.1369229"><ele>330.4</ele><time>2026-04-24T07:02:25.995Z</time></trkpt><trkpt lat="43.5742449" lon="12.136784"><ele>330.2</ele><time>2026-04-24T07:02:26.995Z</time></trkpt><trkpt lat="43.5742656" lon="12.1366441"><ele>330.0</ele><time>2026-04-24T07:02:27.996Z</time></trkpt><trkpt lat="43.5742928" lon="12.1364936"><ele>329.25</ele><time>2026-04-24T07:02:28.995Z</time></trkpt><trkpt lat="43.57432" lon="12.1363349"><ele>328.5</ele><time>2026-04-24T07:02:29.995Z</time></trkpt><trkpt lat="43.5743502" lon="12.1361709"><ele>327.75</ele><time>2026-04-24T07:02:30.995Z</time></trkpt><trkpt lat="43.5743826" lon="12.1359926"><ele>327.0</ele><time>2026-04-24T07:02:31.995Z</time></trkpt><trkpt lat="43.5744229" lon="12.1358073"><ele>326.6666666666667</ele><time>2026-04-24T07:02:32.995Z</time></trkpt><trkpt lat="43.5744696" lon="12.1356173"><ele>326.33333333333337</ele><time>2026-04-24T07:02:33.995Z</time></trkpt><trkpt lat="43.5745353" lon="12.1354271"><ele>326.0</ele><time>2026-04-24T07:02:34.996Z</time></trkpt><trkpt lat="43.5746157" lon="12.1352403"><ele>326.33333333333337</ele><time>2026-04-24T07:02:35.995Z</time></trkpt><trkpt lat="43.5747132" lon="12.1350559"><ele>326.6666666666667</ele><time>2026-04-24T07:02:36.996Z</time></trkpt><trkpt lat="43.5748165" lon="12.134872"><ele>327.0</ele><time>2026-04-24T07:02:37.995Z</time></trkpt><trkpt lat="43.5749234" lon="12.1346859"><ele>327.0</ele><time>2026-04-24T07:02:38.995Z</time></trkpt><trkpt lat="43.5750346" lon="12.1344972"><ele>327.0</ele><time>2026-04-24T07:02:39.995Z</time></trkpt><trkpt lat="43.5751457" lon="12.1343066"><ele>327.0</ele><time>2026-04-24T07:02:40.996Z</time></trkpt><trkpt lat="43.5752586" lon="12.1341128"><ele>329.0</ele><time>2026-04-24T07:02:41.995Z</time></trkpt><trkpt lat="43.5753744" lon="12.1339199"><ele>331.0</ele><time>2026-04-24T07:02:42.996Z</time></trkpt><trkpt lat="43.5754929" lon="12.1337226"><ele>333.0</ele><time>2026-04-24T07:02:43.995Z</time></trkpt><trkpt lat="43.5756074" lon="12.1335289"><ele>333.0</ele><time>2026-04-24T07:02:44.995Z</time></trkpt><trkpt lat="43.5757157" lon="12.133344"><ele>333.0</ele><time>2026-04-24T07:02:45.996Z</time></trkpt><trkpt lat="43.5758157" lon="12.133172"><ele>333.0</ele><time>2026-04-24T07:02:46.995Z</time></trkpt><trkpt lat="43.5759109" lon="12.1330109"><ele>333.0</ele><time>2026-04-24T07:02:47.995Z</time></trkpt><trkpt lat="43.5760001" lon="12.1328557"><ele>333.0</ele><time>2026-04-24T07:02:48.995Z</time></trkpt><trkpt lat="43.5760888" lon="12.1327067"><ele>333.0</ele><time>2026-04-24T07:02:49.996Z</time></trkpt><trkpt lat="43.5761725" lon="12.1325625"><ele>333.0</ele><time>2026-04-24T07:02:50.995Z</time></trkpt><trkpt lat="43.5762522" lon="12.1324251"><ele>332.0</ele><time>2026-04-24T07:02:51.995Z</time></trkpt><trkpt lat="43.57633" lon="12.1322892"><ele>331.0</ele><time>2026-04-24T07:02:52.995Z</time></trkpt><trkpt lat="43.5764094" lon="12.1321527"><ele>330.0</ele><time>2026-04-24T07:02:53.995Z</time></trkpt><trkpt lat="43.5764872" lon="12.1320207"><ele>329.0</ele><time>2026-04-24T07:02:54.995Z</time></trkpt><trkpt lat="43.5765625" lon="12.131891"><ele>329.0</ele><time>2026-04-24T07:02:55.996Z</time></trkpt><trkpt lat="43.5766365" lon="12.1317613"><ele>329.0</ele><time>2026-04-24T07:02:56.995Z</time></trkpt><trkpt lat="43.5767089" lon="12.1316349"><ele>329.0</ele><time>2026-04-24T07:02:57.995Z</time></trkpt><trkpt lat="43.5767829" lon="12.13151"><ele>329.0</ele><time>2026-04-24T07:02:58.995Z</time></trkpt><trkpt lat="43.5768573" lon="12.1313852"><ele>329.0</ele><time>2026-04-24T07:02:59.995Z</time></trkpt><trkpt lat="43.5769353" lon="12.1312562"><ele>329.0</ele><time>2026-04-24T07:03:00.995Z</time></trkpt><trkpt lat="43.5770158" lon="12.1311227"><ele>329.0</ele><time>2026-04-24T07:03:01.995Z</time></trkpt><trkpt lat="43.5770982" lon="12.1309814"><ele>329.0</ele><time>2026-04-24T07:03:02.996Z</time></trkpt><trkpt lat="43.5771822" lon="12.1308396"><ele>329.25</ele><time>2026-04-24T07:03:03.996Z</time></trkpt><trkpt lat="43.5772632" lon="12.1306999"><ele>329.5</ele><time>2026-04-24T07:03:04.995Z</time></trkpt><trkpt lat="43.5773392" lon="12.1305676"><ele>329.75</ele><time>2026-04-24T07:03:05.995Z</time></trkpt><trkpt lat="43.5774175" lon="12.1304479"><ele>330.0</ele><time>2026-04-24T07:03:06.996Z</time></trkpt><trkpt lat="43.5775056" lon="12.1303503"><ele>330.0</ele><time>2026-04-24T07:03:07.995Z</time></trkpt><trkpt lat="43.5776011" lon="12.1302623"><ele>330.0</ele><time>2026-04-24T07:03:08.995Z</time></trkpt><trkpt lat="43.5776894" lon="12.1301576"><ele>330.0</ele><time>2026-04-24T07:03:09.996Z</time></trkpt><trkpt lat="43.5777475" lon="12.1300297"><ele>330.0</ele><time>2026-04-24T07:03:10.995Z</time></trkpt><trkpt lat="43.5777871" lon="12.1298866"><ele>330.25</ele><time>2026-04-24T07:03:11.995Z</time></trkpt><trkpt lat="43.5778349" lon="12.1297383"><ele>330.5</ele><time>2026-04-24T07:03:12.996Z</time></trkpt><trkpt lat="43.5779075" lon="12.1296029"><ele>330.75</ele><time>2026-04-24T07:03:13.995Z</time></trkpt><trkpt lat="43.5779859" lon="12.1294683"><ele>331.0</ele><time>2026-04-24T07:03:14.995Z</time></trkpt><trkpt lat="43.5780674" lon="12.1293291"><ele>331.0</ele><time>2026-04-24T07:03:15.995Z</time></trkpt><trkpt lat="43.5781493" lon="12.1291883"><ele>331.0</ele><time>2026-04-24T07:03:16.996Z</time></trkpt><trkpt lat="43.5782355" lon="12.1290455"><ele>331.0</ele><time>2026-04-24T07:03:17.995Z</time></trkpt><trkpt lat="43.5783224" lon="12.1289004"><ele>331.0</ele><time>2026-04-24T07:03:18.995Z</time></trkpt><trkpt lat="43.5784082" lon="12.1287528"><ele>331.25</ele><time>2026-04-24T07:03:19.995Z</time></trkpt><trkpt lat="43.5784891" lon="12.1286092"><ele>331.5</ele><time>2026-04-24T07:03:20.995Z</time></trkpt><trkpt lat="43.5785693" lon="12.128465"><ele>331.75</ele><time>2026-04-24T07:03:21.995Z</time></trkpt><trkpt lat="43.5786511" lon="12.1283219"><ele>332.0</ele><time>2026-04-24T07:03:22.995Z</time></trkpt><trkpt lat="43.5787349" lon="12.1281766"><ele>333.0</ele><time>2026-04-24T07:03:23.996Z</time></trkpt><trkpt lat="43.5788182" lon="12.1280309"><ele>334.0</ele><time>2026-04-24T07:03:24.997Z</time></trkpt><trkpt lat="43.5789001" lon="12.1278872"><ele>335.0</ele><time>2026-04-24T07:03:25.996Z</time></trkpt><trkpt lat="43.5789816" lon="12.1277474"><ele>336.0</ele><time>2026-04-24T07:03:26.995Z</time></trkpt><trkpt lat="43.5790637" lon="12.1276058"><ele>336.0</ele><time>2026-04-24T07:03:27.995Z</time></trkpt><trkpt lat="43.5791471" lon="12.1274706"><ele>336.0</ele><time>2026-04-24T07:03:28.995Z</time></trkpt><trkpt lat="43.5792298" lon="12.127336"><ele>336.0</ele><time>2026-04-24T07:03:29.995Z</time></trkpt><trkpt lat="43.5793154" lon="12.1271985"><ele>336.0</ele><time>2026-04-24T07:03:30.995Z</time></trkpt><trkpt lat="43.5793998" lon="12.1270651"><ele>336.0</ele><time>2026-04-24T07:03:31.995Z</time></trkpt><trkpt lat="43.5794835" lon="12.1269206"><ele>336.0</ele><time>2026-04-24T07:03:32.995Z</time></trkpt><trkpt lat="43.5795647" lon="12.1267739"><ele>336.0</ele><time>2026-04-24T07:03:33.995Z</time></trkpt><trkpt lat="43.5796491" lon="12.1266308"><ele>336.0</ele><time>2026-04-24T07:03:34.995Z</time></trkpt><trkpt lat="43.5797273" lon="12.1264964"><ele>336.0</ele><time>2026-04-24T07:03:35.995Z</time></trkpt><trkpt lat="43.5797983" lon="12.1263719"><ele>336.0</ele><time>2026-04-24T07:03:36.995Z</time></trkpt><trkpt lat="43.5798653" lon="12.1262581"><ele>336.0</ele><time>2026-04-24T07:03:37.996Z</time></trkpt><trkpt lat="43.5799301" lon="12.126153"><ele>336.0</ele><time>2026-04-24T07:03:38.996Z</time></trkpt><trkpt lat="43.5799973" lon="12.1260619"><ele>336.0</ele><time>2026-04-24T07:03:39.996Z</time></trkpt><trkpt lat="43.580067" lon="12.1259968"><ele>336.0</ele><time>2026-04-24T07:03:40.996Z</time></trkpt><trkpt lat="43.5801427" lon="12.1259569"><ele>336.0</ele><time>2026-04-24T07:03:41.995Z</time></trkpt><trkpt lat="43.580223" lon="12.1259336"><ele>336.0</ele><time>2026-04-24T07:03:42.995Z</time></trkpt><trkpt lat="43.5803087" lon="12.1259093"><ele>336.0</ele><time>2026-04-24T07:03:43.995Z</time></trkpt><trkpt lat="43.5803952" lon="12.1258862"><ele>336.0</ele><time>2026-04-24T07:03:44.995Z</time></trkpt><trkpt lat="43.5804853" lon="12.1258564"><ele>336.0</ele><time>2026-04-24T07:03:45.995Z</time></trkpt><trkpt lat="43.5805823" lon="12.1258219"><ele>336.20000000000005</ele><time>2026-04-24T07:03:46.995Z</time></trkpt><trkpt lat="43.5806828" lon="12.1257877"><ele>336.40000000000003</ele><time>2026-04-24T07:03:47.996Z</time></trkpt><trkpt lat="43.5807859" lon="12.125754"><ele>336.6</ele><time>2026-04-24T07:03:48.995Z</time></trkpt><trkpt lat="43.5808928" lon="12.1257284"><ele>336.8</ele><time>2026-04-24T07:03:49.996Z</time></trkpt><trkpt lat="43.5810108" lon="12.1257257"><ele>337.0</ele><time>2026-04-24T07:03:50.996Z</time></trkpt><trkpt lat="43.5811436" lon="12.1257321"><ele>337.75</ele><time>2026-04-24T07:03:51.995Z</time></trkpt><trkpt lat="43.5812816" lon="12.1257446"><ele>338.5</ele><time>2026-04-24T07:03:52.995Z</time></trkpt><trkpt lat="43.5814182" lon="12.1257651"><ele>339.25</ele><time>2026-04-24T07:03:53.995Z</time></trkpt><trkpt lat="43.5815513" lon="12.1257735"><ele>340.0</ele><time>2026-04-24T07:03:54.995Z</time></trkpt><trkpt lat="43.5816754" lon="12.1257624"><ele>340.0</ele><time>2026-04-24T07:03:55.996Z</time></trkpt><trkpt lat="43.5817899" lon="12.1257368"><ele>340.0</ele><time>2026-04-24T07:03:56.996Z</time></trkpt><trkpt lat="43.5818992" lon="12.125705"><ele>340.0</ele><time>2026-04-24T07:03:57.995Z</time></trkpt><trkpt lat="43.5819929" lon="12.1256713"><ele>340.0</ele><time>2026-04-24T07:03:58.995Z</time></trkpt><trkpt lat="43.5820764" lon="12.1256406"><ele>340.0</ele><time>2026-04-24T07:03:59.995Z</time></trkpt><trkpt lat="43.5821533" lon="12.1256153"><ele>340.2</ele><time>2026-04-24T07:04:00.995Z</time></trkpt><trkpt lat="43.5822324" lon="12.1255831"><ele>340.4</ele><time>2026-04-24T07:04:01.995Z</time></trkpt><trkpt lat="43.582322" lon="12.1255414"><ele>340.6</ele><time>2026-04-24T07:04:02.995Z</time></trkpt><trkpt lat="43.5824294" lon="12.1254932"><ele>340.8</ele><time>2026-04-24T07:04:03.995Z</time></trkpt><trkpt lat="43.5825538" lon="12.1254413"><ele>341.0</ele><time>2026-04-24T07:04:04.995Z</time></trkpt><trkpt lat="43.5826948" lon="12.1254013"><ele>341.6666666666667</ele><time>2026-04-24T07:04:05.995Z</time></trkpt><trkpt lat="43.5828563" lon="12.1253709"><ele>342.3333333333333</ele><time>2026-04-24T07:04:06.996Z</time></trkpt><trkpt lat="43.5830318" lon="12.1253514"><ele>343.0</ele><time>2026-04-24T07:04:07.996Z</time></trkpt><trkpt lat="43.5832222" lon="12.1253458"><ele>343.0</ele><time>2026-04-24T07:04:08.995Z</time></trkpt><trkpt lat="43.5834176" lon="12.1253418"><ele>343.0</ele><time>2026-04-24T07:04:09.995Z</time></trkpt><trkpt lat="43.5836221" lon="12.12534"><ele>343.0</ele><time>2026-04-24T07:04:10.995Z</time></trkpt><trkpt lat="43.5838367" lon="12.1253406"><ele>345.0</ele><time>2026-04-24T07:04:11.996Z</time></trkpt><trkpt lat="43.5840613" lon="12.1253421"><ele>347.0</ele><time>2026-04-24T07:04:12.996Z</time></trkpt><trkpt lat="43.5842925" lon="12.1253499"><ele>347.5</ele><time>2026-04-24T07:04:13.995Z</time></trkpt><trkpt lat="43.584525" lon="12.125371"><ele>348.0</ele><time>2026-04-24T07:04:14.996Z</time></trkpt><trkpt lat="43.5847551" lon="12.1254022"><ele>348.0</ele><time>2026-04-24T07:04:15.995Z</time></trkpt><trkpt lat="43.5849694" lon="12.1254284"><ele>348.0</ele><time>2026-04-24T07:04:16.996Z</time></trkpt><trkpt lat="43.5851661" lon="12.125446"><ele>348.0</ele><time>2026-04-24T07:04:17.995Z</time></trkpt><trkpt lat="43.5853466" lon="12.1254503"><ele>349.3333333333333</ele><time>2026-04-24T07:04:18.995Z</time></trkpt><trkpt lat="43.5855075" lon="12.1254211"><ele>350.66666666666663</ele><time>2026-04-24T07:04:19.995Z</time></trkpt><trkpt lat="43.5856463" lon="12.1253477"><ele>352.0</ele><time>2026-04-24T07:04:20.995Z</time></trkpt><trkpt lat="43.5857566" lon="12.1252265"><ele>352.0</ele><time>2026-04-24T07:04:21.995Z</time></trkpt><trkpt lat="43.5858256" lon="12.1250565"><ele>352.0</ele><time>2026-04-24T07:04:22.996Z</time></trkpt><trkpt lat="43.5858542" lon="12.1248525"><ele>352.0</ele><time>2026-04-24T07:04:23.995Z</time></trkpt><trkpt lat="43.5858612" lon="12.1246222"><ele>353.3333333333333</ele><time>2026-04-24T07:04:24.995Z</time></trkpt><trkpt lat="43.5858694" lon="12.1243726"><ele>354.6666666666667</ele><time>2026-04-24T07:04:25.995Z</time></trkpt><trkpt lat="43.5858809" lon="12.1241037"><ele>356.0</ele><time>2026-04-24T07:04:26.995Z</time></trkpt><trkpt lat="43.5858984" lon="12.1238174"><ele>357.5</ele><time>2026-04-24T07:04:27.995Z</time></trkpt><trkpt lat="43.5859206" lon="12.1235145"><ele>359.0</ele><time>2026-04-24T07:04:28.996Z</time></trkpt><trkpt lat="43.5859603" lon="12.1231968"><ele>359.0</ele><time>2026-04-24T07:04:29.996Z</time></trkpt><trkpt lat="43.5860266" lon="12.122873"><ele>359.0</ele><time>2026-04-24T07:04:30.995Z</time></trkpt><trkpt lat="43.5861116" lon="12.1225445"><ele>367.5</ele><time>2026-04-24T07:04:31.995Z</time></trkpt><trkpt lat="43.5862113" lon="12.1222219"><ele>376.0</ele><time>2026-04-24T07:04:32.995Z</time></trkpt><trkpt lat="43.586324" lon="12.1219013"><ele>376.0</ele><time>2026-04-24T07:04:33.995Z</time></trkpt><trkpt lat="43.5864409" lon="12.1215794"><ele>376.0</ele><time>2026-04-24T07:04:34.996Z</time></trkpt><trkpt lat="43.5865534" lon="12.1212781"><ele>374.3333333333333</ele><time>2026-04-24T07:04:35.995Z</time></trkpt><trkpt lat="43.5866643" lon="12.1210087"><ele>372.6666666666667</ele><time>2026-04-24T07:04:36.995Z</time></trkpt><trkpt lat="43.5867842" lon="12.1207696"><ele>371.0</ele><time>2026-04-24T07:04:37.996Z</time></trkpt><trkpt lat="43.5869481" lon="12.1205951"><ele>374.33333333333337</ele><time>2026-04-24T07:04:38.996Z</time></trkpt><trkpt lat="43.5871285" lon="12.1204668"><ele>377.6666666666667</ele><time>2026-04-24T07:04:39.994Z</time></trkpt><trkpt lat="43.5873086" lon="12.1203383"><ele>381.0</ele><time>2026-04-24T07:04:40.994Z</time></trkpt><trkpt lat="43.5874716" lon="12.1201568"><ele>381.0</ele><time>2026-04-24T07:04:41.994Z</time></trkpt><trkpt lat="43.5876153" lon="12.1199414"><ele>381.0</ele><time>2026-04-24T07:04:42.995Z</time></trkpt><trkpt lat="43.5877444" lon="12.1196991"><ele>381.0</ele><time>2026-04-24T07:04:43.994Z</time></trkpt><trkpt lat="43.5878621" lon="12.1194391"><ele>385.0</ele><time>2026-04-24T07:04:44.994Z</time></trkpt><trkpt lat="43.5879573" lon="12.1191598"><ele>389.0</ele><time>2026-04-24T07:04:45.995Z</time></trkpt><trkpt lat="43.588014" lon="12.1188591"><ele>393.0</ele><time>2026-04-24T07:04:46.994Z</time></trkpt><trkpt lat="43.5880295" lon="12.1185534"><ele>393.33333333333337</ele><time>2026-04-24T07:04:47.994Z</time></trkpt><trkpt lat="43.5880399" lon="12.1182499"><ele>393.6666666666667</ele><time>2026-04-24T07:04:48.994Z</time></trkpt><trkpt lat="43.5880986" lon="12.1179789"><ele>394.0</ele><time>2026-04-24T07:04:49.994Z</time></trkpt><trkpt lat="43.5881992" lon="12.1177371"><ele>393.0</ele><time>2026-04-24T07:04:50.994Z</time></trkpt><trkpt lat="43.5883426" lon="12.1175347"><ele>392.0</ele><time>2026-04-24T07:04:51.994Z</time></trkpt><trkpt lat="43.5885155" lon="12.1173815"><ele>391.0</ele><time>2026-04-24T07:04:52.994Z</time></trkpt><trkpt lat="43.5887049" lon="12.1172618"><ele>394.33333333333337</ele><time>2026-04-24T07:04:53.994Z</time></trkpt><trkpt lat="43.588894" lon="12.1171425"><ele>397.66666666666663</ele><time>2026-04-24T07:04:54.994Z</time></trkpt><trkpt lat="43.5890648" lon="12.1169786"><ele>401.0</ele><time>2026-04-24T07:04:55.995Z</time></trkpt><trkpt lat="43.5892073" lon="12.116764"><ele>403.0</ele><time>2026-04-24T07:04:56.994Z</time></trkpt><trkpt lat="43.5893365" lon="12.1165249"><ele>405.0</ele><time>2026-04-24T07:04:57.994Z</time></trkpt><trkpt lat="43.5894625" lon="12.1162857"><ele>407.0</ele><time>2026-04-24T07:04:58.994Z</time></trkpt><trkpt lat="43.5895995" lon="12.1160567"><ele>407.0</ele><time>2026-04-24T07:04:59.994Z</time></trkpt><trkpt lat="43.5897573" lon="12.1158582"><ele>407.0</ele><time>2026-04-24T07:05:00.994Z</time></trkpt><trkpt lat="43.5899323" lon="12.1157028"><ele>407.0</ele><time>2026-04-24T07:05:01.994Z</time></trkpt><trkpt lat="43.590106" lon="12.1155817"><ele>408.0</ele><time>2026-04-24T07:05:02.996Z</time></trkpt><trkpt lat="43.5902795" lon="12.1154956"><ele>409.0</ele><time>2026-04-24T07:05:03.994Z</time></trkpt><trkpt lat="43.5904485" lon="12.1154505"><ele>410.0</ele><time>2026-04-24T07:05:04.994Z</time></trkpt><trkpt lat="43.5906083" lon="12.1154393"><ele>410.0</ele><time>2026-04-24T07:05:05.994Z</time></trkpt><trkpt lat="43.590755" lon="12.1154504"><ele>410.0</ele><time>2026-04-24T07:05:06.994Z</time></trkpt><trkpt lat="43.5908969" lon="12.1154749"><ele>410.0</ele><time>2026-04-24T07:05:07.994Z</time></trkpt><trkpt lat="43.5910348" lon="12.11551"><ele>410.0</ele><time>2026-04-24T07:05:08.994Z</time></trkpt><trkpt lat="43.5911689" lon="12.1155425"><ele>412.25</ele><time>2026-04-24T07:05:09.994Z</time></trkpt><trkpt lat="43.5912946" lon="12.115563"><ele>414.5</ele><time>2026-04-24T07:05:10.994Z</time></trkpt><trkpt lat="43.5914137" lon="12.1155553"><ele>416.75</ele><time>2026-04-24T07:05:11.995Z</time></trkpt><trkpt lat="43.5915216" lon="12.1154947"><ele>419.0</ele><time>2026-04-24T07:05:12.994Z</time></trkpt><trkpt lat="43.5916045" lon="12.1153863"><ele>419.0</ele><time>2026-04-24T07:05:13.994Z</time></trkpt><trkpt lat="43.5916604" lon="12.1152247"><ele>419.0</ele><time>2026-04-24T07:05:14.995Z</time></trkpt><trkpt lat="43.5917157" lon="12.1150276"><ele>419.0</ele><time>2026-04-24T07:05:15.994Z</time></trkpt><trkpt lat="43.5917807" lon="12.1147986"><ele>418.3333333333333</ele><time>2026-04-24T07:05:16.994Z</time></trkpt><trkpt lat="43.591856" lon="12.1145581"><ele>417.66666666666663</ele><time>2026-04-24T07:05:17.994Z</time></trkpt><trkpt lat="43.5919376" lon="12.1143017"><ele>417.0</ele><time>2026-04-24T07:05:18.994Z</time></trkpt><trkpt lat="43.5920215" lon="12.114037"><ele>420.66666666666663</ele><time>2026-04-24T07:05:19.994Z</time></trkpt><trkpt lat="43.5921019" lon="12.1137915"><ele>424.3333333333333</ele><time>2026-04-24T07:05:20.995Z</time></trkpt><trkpt lat="43.5921954" lon="12.1135752"><ele>428.0</ele><time>2026-04-24T07:05:21.994Z</time></trkpt><trkpt lat="43.592327" lon="12.1134373"><ele>428.0</ele><time>2026-04-24T07:05:22.994Z</time></trkpt><trkpt lat="43.5924828" lon="12.1133591"><ele>428.0</ele><time>2026-04-24T07:05:23.994Z</time></trkpt><trkpt lat="43.5926588" lon="12.1133418"><ele>428.0</ele><time>2026-04-24T07:05:24.994Z</time></trkpt><trkpt lat="43.5928446" lon="12.1133573"><ele>429.3333333333333</ele><time>2026-04-24T07:05:25.994Z</time></trkpt><trkpt lat="43.5930264" lon="12.1134043"><ele>430.66666666666663</ele><time>2026-04-24T07:05:26.994Z</time></trkpt><trkpt lat="43.5931744" lon="12.1135332"><ele>432.0</ele><time>2026-04-24T07:05:27.994Z</time></trkpt><trkpt lat="43.5932893" lon="12.1136784"><ele>432.0</ele><time>2026-04-24T07:05:28.994Z</time></trkpt><trkpt lat="43.5933911" lon="12.1137971"><ele>432.0</ele><time>2026-04-24T07:05:29.994Z</time></trkpt><trkpt lat="43.5934991" lon="12.1138541"><ele>432.0</ele><time>2026-04-24T07:05:30.994Z</time></trkpt><trkpt lat="43.5936077" lon="12.1138363"><ele>432.0</ele><time>2026-04-24T07:05:31.995Z</time></trkpt><trkpt lat="43.5937115" lon="12.1137484"><ele>434.66666666666663</ele><time>2026-04-24T07:05:32.994Z</time></trkpt><trkpt lat="43.5937898" lon="12.1135875"><ele>437.3333333333333</ele><time>2026-04-24T07:05:33.995Z</time></trkpt><trkpt lat="43.5938734" lon="12.1134043"><ele>440.0</ele><time>2026-04-24T07:05:34.994Z</time></trkpt><trkpt lat="43.5939993" lon="12.113258"><ele>440.0</ele><time>2026-04-24T07:05:35.995Z</time></trkpt><trkpt lat="43.5941497" lon="12.1131644"><ele>440.0</ele><time>2026-04-24T07:05:36.994Z</time></trkpt><trkpt lat="43.5943026" lon="12.1130662"><ele>440.0</ele><time>2026-04-24T07:05:37.994Z</time></trkpt><trkpt lat="43.5944432" lon="12.1129248"><ele>442.66666666666663</ele><time>2026-04-24T07:05:38.994Z</time></trkpt><trkpt lat="43.5945565" lon="12.1127348"><ele>445.33333333333337</ele><time>2026-04-24T07:05:39.994Z</time></trkpt><trkpt lat="43.5946368" lon="12.1125083"><ele>448.0</ele><time>2026-04-24T07:05:40.994Z</time></trkpt><trkpt lat="43.5947196" lon="12.1122736"><ele>448.0</ele><time>2026-04-24T07:05:41.994Z</time></trkpt><trkpt lat="43.5948082" lon="12.1120335"><ele>448.0</ele><time>2026-04-24T07:05:42.994Z</time></trkpt><trkpt lat="43.594904" lon="12.111788"><ele>448.0</ele><time>2026-04-24T07:05:43.994Z</time></trkpt><trkpt lat="43.595006" lon="12.1115497"><ele>447.6666666666667</ele><time>2026-04-24T07:05:44.995Z</time></trkpt><trkpt lat="43.5951131" lon="12.111329"><ele>447.33333333333337</ele><time>2026-04-24T07:05:45.994Z</time></trkpt><trkpt lat="43.5952247" lon="12.1111181"><ele>447.0</ele><time>2026-04-24T07:05:46.995Z</time></trkpt><trkpt lat="43.5953452" lon="12.1109318"><ele>448.33333333333337</ele><time>2026-04-24T07:05:47.994Z</time></trkpt><trkpt lat="43.5954841" lon="12.1107885"><ele>449.6666666666667</ele><time>2026-04-24T07:05:48.995Z</time></trkpt><trkpt lat="43.595625" lon="12.1106708"><ele>451.0</ele><time>2026-04-24T07:05:49.994Z</time></trkpt><trkpt lat="43.5957742" lon="12.1105794"><ele>451.0</ele><time>2026-04-24T07:05:50.995Z</time></trkpt><trkpt lat="43.5959313" lon="12.1105179"><ele>451.0</ele><time>2026-04-24T07:05:51.994Z</time></trkpt><trkpt lat="43.596088" lon="12.1104854"><ele>451.0</ele><time>2026-04-24T07:05:52.994Z</time></trkpt><trkpt lat="43.5962355" lon="12.1104653"><ele>453.5</ele><time>2026-04-24T07:05:53.994Z</time></trkpt><trkpt lat="43.5963671" lon="12.1104415"><ele>456.0</ele><time>2026-04-24T07:05:54.995Z</time></trkpt><trkpt lat="43.5964849" lon="12.1103981"><ele>458.5</ele><time>2026-04-24T07:05:55.994Z</time></trkpt><trkpt lat="43.5965876" lon="12.1103308"><ele>461.0</ele><time>2026-04-24T07:05:56.994Z</time></trkpt><trkpt lat="43.596674" lon="12.1102197"><ele>461.0</ele><time>2026-04-24T07:05:57.994Z</time></trkpt><trkpt lat="43.5967272" lon="12.1100622"><ele>461.0</ele><time>2026-04-24T07:05:58.994Z</time></trkpt><trkpt lat="43.596762" lon="12.1098556"><ele>461.0</ele><time>2026-04-24T07:05:59.994Z</time></trkpt><trkpt lat="43.5968159" lon="12.1096073"><ele>461.0</ele><time>2026-04-24T07:06:00.994Z</time></trkpt><trkpt lat="43.5968847" lon="12.1093522"><ele>461.0</ele><time>2026-04-24T07:06:01.994Z</time></trkpt><trkpt lat="43.5969543" lon="12.1090739"><ele>461.0</ele><time>2026-04-24T07:06:02.994Z</time></trkpt><trkpt lat="43.5970163" lon="12.108769"><ele>468.0</ele><time>2026-04-24T07:06:03.994Z</time></trkpt><trkpt lat="43.5970742" lon="12.1084437"><ele>475.0</ele><time>2026-04-24T07:06:04.994Z</time></trkpt><trkpt lat="43.5971238" lon="12.1081007"><ele>475.0</ele><time>2026-04-24T07:06:05.995Z</time></trkpt><trkpt lat="43.5971674" lon="12.107767"><ele>475.0</ele><time>2026-04-24T07:06:06.995Z</time></trkpt><trkpt lat="43.5972112" lon="12.1074641"><ele>473.33333333333337</ele><time>2026-04-24T07:06:07.994Z</time></trkpt><trkpt lat="43.5972678" lon="12.1071872"><ele>471.66666666666663</ele><time>2026-04-24T07:06:08.995Z</time></trkpt><trkpt lat="43.5973533" lon="12.1069539"><ele>470.0</ele><time>2026-04-24T07:06:09.994Z</time></trkpt><trkpt lat="43.5974652" lon="12.1067915"><ele>470.0</ele><time>2026-04-24T07:06:10.994Z</time></trkpt><trkpt lat="43.5976115" lon="12.1067027"><ele>470.0</ele><time>2026-04-24T07:06:11.995Z</time></trkpt><trkpt lat="43.5977827" lon="12.1066758"><ele>470.0</ele><time>2026-04-24T07:06:12.994Z</time></trkpt><trkpt lat="43.5979631" lon="12.1067037"><ele>471.0</ele><time>2026-04-24T07:06:13.995Z</time></trkpt><trkpt lat="43.59815" lon="12.106806"><ele>472.0</ele><time>2026-04-24T07:06:14.994Z</time></trkpt><trkpt lat="43.5983411" lon="12.106956"><ele>473.0</ele><time>2026-04-24T07:06:15.994Z</time></trkpt><trkpt lat="43.5985374" lon="12.1071325"><ele>473.0</ele><time>2026-04-24T07:06:16.994Z</time></trkpt><trkpt lat="43.5987324" lon="12.1073038"><ele>473.0</ele><time>2026-04-24T07:06:17.994Z</time></trkpt><trkpt lat="43.5989105" lon="12.1074598"><ele>473.0</ele><time>2026-04-24T07:06:18.995Z</time></trkpt><trkpt lat="43.599079" lon="12.1076042"><ele>473.0</ele><time>2026-04-24T07:06:19.994Z</time></trkpt><trkpt lat="43.5992428" lon="12.1077182"><ele>473.0</ele><time>2026-04-24T07:06:20.994Z</time></trkpt><trkpt lat="43.5994189" lon="12.1077531"><ele>473.0</ele><time>2026-04-24T07:06:21.994Z</time></trkpt><trkpt lat="43.5996042" lon="12.1077198"><ele>472.0</ele><time>2026-04-24T07:06:22.994Z</time></trkpt><trkpt lat="43.5997967" lon="12.1076298"><ele>471.0</ele><time>2026-04-24T07:06:23.995Z</time></trkpt><trkpt lat="43.5999992" lon="12.107521"><ele>470.0</ele><time>2026-04-24T07:06:24.995Z</time></trkpt><trkpt lat="43.6002045" lon="12.1073864"><ele>472.3333333333333</ele><time>2026-04-24T07:06:25.994Z</time></trkpt><trkpt lat="43.600398" lon="12.1072298"><ele>474.66666666666663</ele><time>2026-04-24T07:06:26.994Z</time></trkpt><trkpt lat="43.6005852" lon="12.1070821"><ele>477.0</ele><time>2026-04-24T07:06:27.994Z</time></trkpt><trkpt lat="43.6007811" lon="12.1069651"><ele>477.0</ele><time>2026-04-24T07:06:28.994Z</time></trkpt><trkpt lat="43.6009899" lon="12.1069047"><ele>477.0</ele><time>2026-04-24T07:06:29.994Z</time></trkpt><trkpt lat="43.6012091" lon="12.1069015"><ele>477.0</ele><time>2026-04-24T07:06:30.994Z</time></trkpt><trkpt lat="43.6014387" lon="12.1069286"><ele>478.0</ele><time>2026-04-24T07:06:31.995Z</time></trkpt><trkpt lat="43.6016735" lon="12.1069515"><ele>479.0</ele><time>2026-04-24T07:06:32.995Z</time></trkpt><trkpt lat="43.6019118" lon="12.1069745"><ele>479.3333333333333</ele><time>2026-04-24T07:06:33.994Z</time></trkpt><trkpt lat="43.6021387" lon="12.106994"><ele>479.66666666666663</ele><time>2026-04-24T07:06:34.994Z</time></trkpt><trkpt lat="43.6023492" lon="12.1070159"><ele>480.0</ele><time>2026-04-24T07:06:35.994Z</time></trkpt><trkpt lat="43.6025445" lon="12.1070532"><ele>480.0</ele><time>2026-04-24T07:06:36.995Z</time></trkpt><trkpt lat="43.6027159" lon="12.107127"><ele>480.0</ele><time>2026-04-24T07:06:37.994Z</time></trkpt><trkpt lat="43.6028593" lon="12.1072558"><ele>480.0</ele><time>2026-04-24T07:06:38.994Z</time></trkpt><trkpt lat="43.6029671" lon="12.1074121"><ele>479.75</ele><time>2026-04-24T07:06:39.995Z</time></trkpt><trkpt lat="43.6030312" lon="12.1076093"><ele>479.5</ele><time>2026-04-24T07:06:40.994Z</time></trkpt><trkpt lat="43.6030647" lon="12.1078134"><ele>479.25</ele><time>2026-04-24T07:06:41.995Z</time></trkpt><trkpt lat="43.6031068" lon="12.1079977"><ele>479.0</ele><time>2026-04-24T07:06:42.994Z</time></trkpt><trkpt lat="43.6031963" lon="12.1081531"><ele>480.66666666666663</ele><time>2026-04-24T07:06:43.994Z</time></trkpt><trkpt lat="43.6033217" lon="12.1082707"><ele>482.33333333333337</ele><time>2026-04-24T07:06:44.995Z</time></trkpt><trkpt lat="43.603482" lon="12.1083419"><ele>484.0</ele><time>2026-04-24T07:06:45.994Z</time></trkpt><trkpt lat="43.6036625" lon="12.1083892"><ele>482.33333333333337</ele><time>2026-04-24T07:06:46.994Z</time></trkpt><trkpt lat="43.603853" lon="12.1084418"><ele>480.66666666666663</ele><time>2026-04-24T07:06:47.995Z</time></trkpt><trkpt lat="43.6040366" lon="12.1085006"><ele>479.0</ele><time>2026-04-24T07:06:48.994Z</time></trkpt><trkpt lat="43.6042055" lon="12.108564"><ele>479.0</ele><time>2026-04-24T07:06:49.994Z</time></trkpt><trkpt lat="43.6043653" lon="12.108633"><ele>479.0</ele><time>2026-04-24T07:06:50.995Z</time></trkpt><trkpt lat="43.6045288" lon="12.1086724"><ele>479.0</ele><time>2026-04-24T07:06:51.994Z</time></trkpt><trkpt lat="43.6046972" lon="12.1086444"><ele>479.66666666666663</ele><time>2026-04-24T07:06:52.995Z</time></trkpt><trkpt lat="43.6048642" lon="12.108557"><ele>480.33333333333337</ele><time>2026-04-24T07:06:53.994Z</time></trkpt><trkpt lat="43.605029" lon="12.1084475"><ele>481.0</ele><time>2026-04-24T07:06:54.994Z</time></trkpt><trkpt lat="43.6051948" lon="12.1083616"><ele>480.6666666666667</ele><time>2026-04-24T07:06:55.995Z</time></trkpt><trkpt lat="43.60536" lon="12.1083344"><ele>480.33333333333337</ele><time>2026-04-24T07:06:56.994Z</time></trkpt><trkpt lat="43.6055211" lon="12.1083714"><ele>480.0</ele><time>2026-04-24T07:06:57.994Z</time></trkpt><trkpt lat="43.6056686" lon="12.1084691"><ele>480.0</ele><time>2026-04-24T07:06:58.995Z</time></trkpt><trkpt lat="43.605817" lon="12.108562"><ele>480.0</ele><time>2026-04-24T07:06:59.995Z</time></trkpt><trkpt lat="43.6059676" lon="12.1085935"><ele>480.0</ele><time>2026-04-24T07:07:00.994Z</time></trkpt><trkpt lat="43.606121" lon="12.1085507"><ele>479.0</ele><time>2026-04-24T07:07:01.994Z</time></trkpt><trkpt lat="43.6062619" lon="12.1084516"><ele>478.0</ele><time>2026-04-24T07:07:02.994Z</time></trkpt><trkpt lat="43.6064087" lon="12.108386"><ele>477.0</ele><time>2026-04-24T07:07:03.995Z</time></trkpt><trkpt lat="43.606568" lon="12.1083895"><ele>477.0</ele><time>2026-04-24T07:07:04.994Z</time></trkpt><trkpt lat="43.6067311" lon="12.1084613"><ele>477.0</ele><time>2026-04-24T07:07:05.994Z</time></trkpt><trkpt lat="43.6068863" lon="12.1085961"><ele>477.0</ele><time>2026-04-24T07:07:06.994Z</time></trkpt><trkpt lat="43.607024" lon="12.1087944"><ele>476.33333333333337</ele><time>2026-04-24T07:07:07.995Z</time></trkpt><trkpt lat="43.6071364" lon="12.1090324"><ele>475.6666666666667</ele><time>2026-04-24T07:07:08.994Z</time></trkpt><trkpt lat="43.6072189" lon="12.1092712"><ele>475.0</ele><time>2026-04-24T07:07:09.994Z</time></trkpt><trkpt lat="43.6073087" lon="12.1094885"><ele>475.0</ele><time>2026-04-24T07:07:10.995Z</time></trkpt><trkpt lat="43.607422" lon="12.1096607"><ele>475.0</ele><time>2026-04-24T07:07:11.995Z</time></trkpt><trkpt lat="43.6075569" lon="12.1097846"><ele>475.0</ele><time>2026-04-24T07:07:12.995Z</time></trkpt><trkpt lat="43.6077246" lon="12.1098374"><ele>472.6666666666667</ele><time>2026-04-24T07:07:13.994Z</time></trkpt><trkpt lat="43.6078987" lon="12.1098158"><ele>470.33333333333337</ele><time>2026-04-24T07:07:14.994Z</time></trkpt><trkpt lat="43.6080674" lon="12.1097983"><ele>468.0</ele><time>2026-04-24T07:07:15.994Z</time></trkpt><trkpt lat="43.6082202" lon="12.109848"><ele>472.0</ele><time>2026-04-24T07:07:16.994Z</time></trkpt><trkpt lat="43.6083564" lon="12.1099629"><ele>476.0</ele><time>2026-04-24T07:07:17.995Z</time></trkpt><trkpt lat="43.6084642" lon="12.1101285"><ele>480.0</ele><time>2026-04-24T07:07:18.994Z</time></trkpt><trkpt lat="43.6085414" lon="12.1103148"><ele>480.0</ele><time>2026-04-24T07:07:19.995Z</time></trkpt><trkpt lat="43.6086141" lon="12.1104697"><ele>480.0</ele><time>2026-04-24T07:07:20.995Z</time></trkpt><trkpt lat="43.6086863" lon="12.1106031"><ele>480.0</ele><time>2026-04-24T07:07:21.994Z</time></trkpt><trkpt lat="43.6087833" lon="12.1106815"><ele>480.0</ele><time>2026-04-24T07:07:22.994Z</time></trkpt><trkpt lat="43.6089003" lon="12.1106778"><ele>480.0</ele><time>2026-04-24T07:07:23.995Z</time></trkpt><trkpt lat="43.6090279" lon="12.1106213"><ele>480.0</ele><time>2026-04-24T07:07:24.995Z</time></trkpt><trkpt lat="43.6091722" lon="12.1106129"><ele>480.0</ele><time>2026-04-24T07:07:25.994Z</time></trkpt><trkpt lat="43.6093006" lon="12.1106637"><ele>480.0</ele><time>2026-04-24T07:07:26.994Z</time></trkpt><trkpt lat="43.6093963" lon="12.1107865"><ele>480.0</ele><time>2026-04-24T07:07:27.994Z</time></trkpt><trkpt lat="43.6094645" lon="12.1109412"><ele>480.0</ele><time>2026-04-24T07:07:28.994Z</time></trkpt><trkpt lat="43.6095653" lon="12.111086"><ele>480.0</ele><time>2026-04-24T07:07:29.994Z</time></trkpt><trkpt lat="43.6097109" lon="12.1111733"><ele>480.0</ele><time>2026-04-24T07:07:30.994Z</time></trkpt><trkpt lat="43.6098802" lon="12.1111882"><ele>478.66666666666663</ele><time>2026-04-24T07:07:31.994Z</time></trkpt><trkpt lat="43.6100602" lon="12.1111299"><ele>477.3333333333333</ele><time>2026-04-24T07:07:32.994Z</time></trkpt><trkpt lat="43.610242" lon="12.111057"><ele>476.0</ele><time>2026-04-24T07:07:33.994Z</time></trkpt><trkpt lat="43.6104341" lon="12.1110651"><ele>473.66666666666663</ele><time>2026-04-24T07:07:34.994Z</time></trkpt><trkpt lat="43.6106235" lon="12.111158"><ele>471.33333333333337</ele><time>2026-04-24T07:07:35.996Z</time></trkpt><trkpt lat="43.6108082" lon="12.1113025"><ele>469.0</ele><time>2026-04-24T07:07:36.994Z</time></trkpt><trkpt lat="43.610984" lon="12.1115041"><ele>466.0</ele><time>2026-04-24T07:07:37.994Z</time></trkpt><trkpt lat="43.6111472" lon="12.1117508"><ele>463.0</ele><time>2026-04-24T07:07:38.994Z</time></trkpt><trkpt lat="43.6113063" lon="12.1120193"><ele>463.0</ele><time>2026-04-24T07:07:39.995Z</time></trkpt><trkpt lat="43.6114727" lon="12.112297"><ele>463.0</ele><time>2026-04-24T07:07:40.994Z</time></trkpt><trkpt lat="43.6116543" lon="12.1125679"><ele>461.0</ele><time>2026-04-24T07:07:41.994Z</time></trkpt><trkpt lat="43.6118549" lon="12.1128169"><ele>459.0</ele><time>2026-04-24T07:07:42.995Z</time></trkpt><trkpt lat="43.6120512" lon="12.1130582"><ele>466.0</ele><time>2026-04-24T07:07:43.994Z</time></trkpt><trkpt lat="43.6122199" lon="12.1133075"><ele>473.0</ele><time>2026-04-24T07:07:44.994Z</time></trkpt><trkpt lat="43.6123727" lon="12.1135496"><ele>473.0</ele><time>2026-04-24T07:07:45.994Z</time></trkpt><trkpt lat="43.6125089" lon="12.1137848"><ele>473.0</ele><time>2026-04-24T07:07:46.994Z</time></trkpt><trkpt lat="43.6126178" lon="12.1140128"><ele>473.0</ele><time>2026-04-24T07:07:47.994Z</time></trkpt><trkpt lat="43.6126929" lon="12.1142314"><ele>470.0</ele><time>2026-04-24T07:07:48.994Z</time></trkpt><trkpt lat="43.6127651" lon="12.1144263"><ele>467.0</ele><time>2026-04-24T07:07:49.994Z</time></trkpt><trkpt lat="43.6128877" lon="12.1145683"><ele>464.0</ele><time>2026-04-24T07:07:50.996Z</time></trkpt><trkpt lat="43.6130396" lon="12.1146553"><ele>464.0</ele><time>2026-04-24T07:07:51.994Z</time></trkpt><trkpt lat="43.6132094" lon="12.1147056"><ele>464.0</ele><time>2026-04-24T07:07:52.995Z</time></trkpt><trkpt lat="43.6133986" lon="12.1147451"><ele>464.0</ele><time>2026-04-24T07:07:53.994Z</time></trkpt><trkpt lat="43.6135982" lon="12.1147909"><ele>462.0</ele><time>2026-04-24T07:07:54.995Z</time></trkpt><trkpt lat="43.6137855" lon="12.114836"><ele>460.0</ele><time>2026-04-24T07:07:55.994Z</time></trkpt><trkpt lat="43.6139563" lon="12.1148839"><ele>458.0</ele><time>2026-04-24T07:07:56.994Z</time></trkpt><trkpt lat="43.6141019" lon="12.1149527"><ele>461.75</ele><time>2026-04-24T07:07:57.994Z</time></trkpt><trkpt lat="43.6142169" lon="12.1150757"><ele>465.5</ele><time>2026-04-24T07:07:58.994Z</time></trkpt><trkpt lat="43.6142781" lon="12.1152404"><ele>469.25</ele><time>2026-04-24T07:07:59.994Z</time></trkpt><trkpt lat="43.6142791" lon="12.1154352"><ele>473.0</ele><time>2026-04-24T07:08:00.995Z</time></trkpt><trkpt lat="43.6142396" lon="12.1156234"><ele>475.25</ele><time>2026-04-24T07:08:01.995Z</time></trkpt><trkpt lat="43.6142051" lon="12.1158061"><ele>477.5</ele><time>2026-04-24T07:08:02.994Z</time></trkpt><trkpt lat="43.6142033" lon="12.1159887"><ele>479.75</ele><time>2026-04-24T07:08:03.994Z</time></trkpt><trkpt lat="43.6142458" lon="12.1161415"><ele>482.0</ele><time>2026-04-24T07:08:04.994Z</time></trkpt><trkpt lat="43.6143413" lon="12.1162639"><ele>482.0</ele><time>2026-04-24T07:08:05.994Z</time></trkpt><trkpt lat="43.6144694" lon="12.1163578"><ele>482.0</ele><time>2026-04-24T07:08:06.996Z</time></trkpt><trkpt lat="43.6145991" lon="12.1164783"><ele>482.0</ele><time>2026-04-24T07:08:07.994Z</time></trkpt><trkpt lat="43.6147203" lon="12.1166282"><ele>479.3333333333333</ele><time>2026-04-24T07:08:08.995Z</time></trkpt><trkpt lat="43.614839" lon="12.1167977"><ele>476.66666666666663</ele><time>2026-04-24T07:08:09.995Z</time></trkpt><trkpt lat="43.6149627" lon="12.1169837"><ele>474.0</ele><time>2026-04-24T07:08:10.994Z</time></trkpt><trkpt lat="43.6150902" lon="12.1171751"><ele>474.0</ele><time>2026-04-24T07:08:11.994Z</time></trkpt><trkpt lat="43.61522" lon="12.1173583"><ele>474.0</ele><time>2026-04-24T07:08:12.994Z</time></trkpt><trkpt lat="43.6153603" lon="12.117496"><ele>474.0</ele><time>2026-04-24T07:08:13.995Z</time></trkpt><trkpt lat="43.6155125" lon="12.1175817"><ele>472.66666666666663</ele><time>2026-04-24T07:08:14.994Z</time></trkpt><trkpt lat="43.6156763" lon="12.1176254"><ele>471.3333333333333</ele><time>2026-04-24T07:08:15.994Z</time></trkpt><trkpt lat="43.6158483" lon="12.1176247"><ele>470.0</ele><time>2026-04-24T07:08:16.995Z</time></trkpt><trkpt lat="43.6160187" lon="12.1176288"><ele>467.75</ele><time>2026-04-24T07:08:17.994Z</time></trkpt><trkpt lat="43.6161613" lon="12.1176685"><ele>465.5</ele><time>2026-04-24T07:08:18.994Z</time></trkpt><trkpt lat="43.6162738" lon="12.117741"><ele>463.25</ele><time>2026-04-24T07:08:19.995Z</time></trkpt><trkpt lat="43.6163481" lon="12.1178697"><ele>461.0</ele><time>2026-04-24T07:08:20.995Z</time></trkpt><trkpt lat="43.6164269" lon="12.1180035"><ele>462.66666666666663</ele><time>2026-04-24T07:08:21.994Z</time></trkpt><trkpt lat="43.616342" lon="12.1182476"><ele>464.33333333333337</ele><time>2026-04-24T07:08:22.994Z</time></trkpt><trkpt lat="43.6162883" lon="12.1184561"><ele>466.0</ele><time>2026-04-24T07:08:23.995Z</time></trkpt><trkpt lat="43.6162092" lon="12.1186444"><ele>466.0</ele><time>2026-04-24T07:08:24.994Z</time></trkpt><trkpt lat="43.6161565" lon="12.1188194"><ele>466.0</ele><time>2026-04-24T07:08:25.994Z</time></trkpt><trkpt lat="43.6161398" lon="12.1189902"><ele>466.0</ele><time>2026-04-24T07:08:26.994Z</time></trkpt><trkpt lat="43.6161939" lon="12.119134"><ele>466.0</ele><time>2026-04-24T07:08:27.994Z</time></trkpt><trkpt lat="43.6162929" lon="12.1192373"><ele>466.0</ele><time>2026-04-24T07:08:28.994Z</time></trkpt><trkpt lat="43.6164215" lon="12.1192816"><ele>466.0</ele><time>2026-04-24T07:08:29.995Z</time></trkpt><trkpt lat="43.6165624" lon="12.1192482"><ele>466.0</ele><time>2026-04-24T07:08:30.994Z</time></trkpt><trkpt lat="43.616688" lon="12.1191327"><ele>466.0</ele><time>2026-04-24T07:08:31.994Z</time></trkpt><trkpt lat="43.6167838" lon="12.1189528"><ele>466.0</ele><time>2026-04-24T07:08:32.995Z</time></trkpt><trkpt lat="43.6168774" lon="12.1187352"><ele>466.0</ele><time>2026-04-24T07:08:33.994Z</time></trkpt><trkpt lat="43.6169904" lon="12.1184989"><ele>466.0</ele><time>2026-04-24T07:08:34.994Z</time></trkpt><trkpt lat="43.6171309" lon="12.118269"><ele>464.0</ele><time>2026-04-24T07:08:35.994Z</time></trkpt><trkpt lat="43.6172857" lon="12.1180612"><ele>462.0</ele><time>2026-04-24T07:08:36.994Z</time></trkpt><trkpt lat="43.6174572" lon="12.1178878"><ele>460.0</ele><time>2026-04-24T07:08:37.994Z</time></trkpt><trkpt lat="43.6176523" lon="12.1177748"><ele>459.6666666666667</ele><time>2026-04-24T07:08:38.994Z</time></trkpt><trkpt lat="43.6178669" lon="12.117729"><ele>459.33333333333337</ele><time>2026-04-24T07:08:39.994Z</time></trkpt><trkpt lat="43.6180944" lon="12.1177353"><ele>459.0</ele><time>2026-04-24T07:08:40.994Z</time></trkpt><trkpt lat="43.6183287" lon="12.1177641"><ele>459.0</ele><time>2026-04-24T07:08:41.995Z</time></trkpt><trkpt lat="43.6185709" lon="12.117775"><ele>459.0</ele><time>2026-04-24T07:08:42.994Z</time></trkpt><trkpt lat="43.6188165" lon="12.1177507"><ele>459.66666666666663</ele><time>2026-04-24T07:08:43.994Z</time></trkpt><trkpt lat="43.6190436" lon="12.1176883"><ele>460.3333333333333</ele><time>2026-04-24T07:08:44.995Z</time></trkpt><trkpt lat="43.6192433" lon="12.1175805"><ele>461.0</ele><time>2026-04-24T07:08:45.994Z</time></trkpt><trkpt lat="43.6194147" lon="12.117458"><ele>461.0</ele><time>2026-04-24T07:08:46.994Z</time></trkpt><trkpt lat="43.6195793" lon="12.1173793"><ele>461.0</ele><time>2026-04-24T07:08:47.995Z</time></trkpt><trkpt lat="43.6197415" lon="12.1173572"><ele>461.0</ele><time>2026-04-24T07:08:48.994Z</time></trkpt><trkpt lat="43.6198845" lon="12.1174162"><ele>461.0</ele><time>2026-04-24T07:08:49.995Z</time></trkpt><trkpt lat="43.6200085" lon="12.1175534"><ele>461.0</ele><time>2026-04-24T07:08:50.994Z</time></trkpt><trkpt lat="43.6200965" lon="12.117744"><ele>461.0</ele><time>2026-04-24T07:08:51.995Z</time></trkpt><trkpt lat="43.620183" lon="12.1179535"><ele>461.0</ele><time>2026-04-24T07:08:52.994Z</time></trkpt><trkpt lat="43.6202822" lon="12.1181726"><ele>461.0</ele><time>2026-04-24T07:08:53.994Z</time></trkpt><trkpt lat="43.6204084" lon="12.1183792"><ele>461.0</ele><time>2026-04-24T07:08:54.994Z</time></trkpt><trkpt lat="43.6205672" lon="12.1185535"><ele>462.66666666666663</ele><time>2026-04-24T07:08:55.994Z</time></trkpt><trkpt lat="43.6207397" lon="12.118718"><ele>464.33333333333337</ele><time>2026-04-24T07:08:56.994Z</time></trkpt><trkpt lat="43.6209143" lon="12.1188793"><ele>466.0</ele><time>2026-04-24T07:08:57.995Z</time></trkpt><trkpt lat="43.621084" lon="12.1190059"><ele>467.0</ele><time>2026-04-24T07:08:58.994Z</time></trkpt><trkpt lat="43.6212712" lon="12.1190716"><ele>468.0</ele><time>2026-04-24T07:08:59.994Z</time></trkpt><trkpt lat="43.6214698" lon="12.1190759"><ele>469.0</ele><time>2026-04-24T07:09:00.994Z</time></trkpt><trkpt lat="43.6216812" lon="12.1190439"><ele>469.0</ele><time>2026-04-24T07:09:01.994Z</time></trkpt><trkpt lat="43.6219066" lon="12.1190145"><ele>469.0</ele><time>2026-04-24T07:09:02.994Z</time></trkpt><trkpt lat="43.6221387" lon="12.1189959"><ele>469.0</ele><time>2026-04-24T07:09:03.994Z</time></trkpt><trkpt lat="43.6223773" lon="12.1189974"><ele>469.0</ele><time>2026-04-24T07:09:04.994Z</time></trkpt><trkpt lat="43.6226214" lon="12.1190117"><ele>469.0</ele><time>2026-04-24T07:09:05.995Z</time></trkpt><trkpt lat="43.6227463" lon="12.1190207"><ele>469.0</ele><time>2026-04-24T07:09:07.004Z</time></trkpt><trkpt lat="43.6231277" lon="12.119046"><ele>471.5</ele><time>2026-04-24T07:09:07.996Z</time></trkpt><trkpt lat="43.623386" lon="12.1190604"><ele>474.0</ele><time>2026-04-24T07:09:08.994Z</time></trkpt><trkpt lat="43.623645" lon="12.1190761"><ele>482.5</ele><time>2026-04-24T07:09:09.994Z</time></trkpt><trkpt lat="43.6239012" lon="12.1190898"><ele>491.0</ele><time>2026-04-24T07:09:10.995Z</time></trkpt><trkpt lat="43.6241562" lon="12.1190994"><ele>491.0</ele><time>2026-04-24T07:09:11.995Z</time></trkpt><trkpt lat="43.6244104" lon="12.1190965"><ele>491.0</ele><time>2026-04-24T07:09:12.994Z</time></trkpt><trkpt lat="43.6246674" lon="12.1190527"><ele>486.5</ele><time>2026-04-24T07:09:13.994Z</time></trkpt><trkpt lat="43.6249316" lon="12.1189794"><ele>482.0</ele><time>2026-04-24T07:09:14.994Z</time></trkpt><trkpt lat="43.6251948" lon="12.1189201"><ele>487.5</ele><time>2026-04-24T07:09:15.994Z</time></trkpt><trkpt lat="43.6254523" lon="12.1188664"><ele>493.0</ele><time>2026-04-24T07:09:16.994Z</time></trkpt><trkpt lat="43.6257031" lon="12.1188087"><ele>493.0</ele><time>2026-04-24T07:09:17.994Z</time></trkpt><trkpt lat="43.6259403" lon="12.1187614"><ele>493.0</ele><time>2026-04-24T07:09:18.994Z</time></trkpt><trkpt lat="43.6261621" lon="12.1187452"><ele>494.0</ele><time>2026-04-24T07:09:19.994Z</time></trkpt><trkpt lat="43.6263693" lon="12.118762"><ele>495.0</ele><time>2026-04-24T07:09:20.994Z</time></trkpt><trkpt lat="43.6265586" lon="12.1187848"><ele>496.0</ele><time>2026-04-24T07:09:21.994Z</time></trkpt><trkpt lat="43.6267299" lon="12.1187583"><ele>496.0</ele><time>2026-04-24T07:09:22.994Z</time></trkpt><trkpt lat="43.6268913" lon="12.1186706"><ele>496.0</ele><time>2026-04-24T07:09:23.994Z</time></trkpt><trkpt lat="43.6270492" lon="12.1185304"><ele>496.0</ele><time>2026-04-24T07:09:24.994Z</time></trkpt><trkpt lat="43.6272103" lon="12.1183656"><ele>494.6666666666667</ele><time>2026-04-24T07:09:25.994Z</time></trkpt><trkpt lat="43.6273822" lon="12.1181929"><ele>493.33333333333337</ele><time>2026-04-24T07:09:26.995Z</time></trkpt><trkpt lat="43.6275539" lon="12.1180146"><ele>492.0</ele><time>2026-04-24T07:09:27.994Z</time></trkpt><trkpt lat="43.6277215" lon="12.117845"><ele>494.66666666666663</ele><time>2026-04-24T07:09:28.995Z</time></trkpt><trkpt lat="43.6278889" lon="12.1176927"><ele>497.3333333333333</ele><time>2026-04-24T07:09:29.994Z</time></trkpt><trkpt lat="43.6280609" lon="12.1175831"><ele>500.0</ele><time>2026-04-24T07:09:30.994Z</time></trkpt><trkpt lat="43.6282431" lon="12.1175305"><ele>500.0</ele><time>2026-04-24T07:09:31.994Z</time></trkpt><trkpt lat="43.6284186" lon="12.1175345"><ele>500.0</ele><time>2026-04-24T07:09:32.995Z</time></trkpt><trkpt lat="43.6285839" lon="12.1175503"><ele>500.0</ele><time>2026-04-24T07:09:33.994Z</time></trkpt><trkpt lat="43.6287511" lon="12.117503"><ele>502.66666666666663</ele><time>2026-04-24T07:09:34.994Z</time></trkpt><trkpt lat="43.6289139" lon="12.1174526"><ele>505.33333333333337</ele><time>2026-04-24T07:09:35.994Z</time></trkpt><trkpt lat="43.6290665" lon="12.1172546"><ele>508.0</ele><time>2026-04-24T07:09:36.994Z</time></trkpt><trkpt lat="43.6292415" lon="12.1171341"><ele>505.0</ele><time>2026-04-24T07:09:37.994Z</time></trkpt><trkpt lat="43.6294368" lon="12.1170442"><ele>502.0</ele><time>2026-04-24T07:09:38.994Z</time></trkpt><trkpt lat="43.6296457" lon="12.1170102"><ele>499.0</ele><time>2026-04-24T07:09:39.994Z</time></trkpt><trkpt lat="43.629854" lon="12.1170375"><ele>499.0</ele><time>2026-04-24T07:09:40.994Z</time></trkpt><trkpt lat="43.6300564" lon="12.1171082"><ele>499.0</ele><time>2026-04-24T07:09:41.994Z</time></trkpt><trkpt lat="43.6302404" lon="12.1171961"><ele>499.0</ele><time>2026-04-24T07:09:42.994Z</time></trkpt><trkpt lat="43.6304066" lon="12.11729"><ele>500.25</ele><time>2026-04-24T07:09:43.994Z</time></trkpt><trkpt lat="43.630551" lon="12.1173742"><ele>501.5</ele><time>2026-04-24T07:09:44.994Z</time></trkpt><trkpt lat="43.6306771" lon="12.1174382"><ele>502.75</ele><time>2026-04-24T07:09:45.994Z</time></trkpt><trkpt lat="43.6307891" lon="12.1174657"><ele>504.0</ele><time>2026-04-24T07:09:46.994Z</time></trkpt><trkpt lat="43.630892" lon="12.1174165"><ele>504.0</ele><time>2026-04-24T07:09:47.994Z</time></trkpt><trkpt lat="43.63098" lon="12.1173026"><ele>504.0</ele><time>2026-04-24T07:09:48.994Z</time></trkpt><trkpt lat="43.6310411" lon="12.1171585"><ele>504.0</ele><time>2026-04-24T07:09:49.994Z</time></trkpt><trkpt lat="43.6310475" lon="12.1170066"><ele>504.0</ele><time>2026-04-24T07:09:50.994Z</time></trkpt><trkpt lat="43.6309841" lon="12.1168827"><ele>504.0</ele><time>2026-04-24T07:09:51.994Z</time></trkpt><trkpt lat="43.6308952" lon="12.1167845"><ele>504.0</ele><time>2026-04-24T07:09:52.994Z</time></trkpt><trkpt lat="43.6308259" lon="12.1166757"><ele>504.0</ele><time>2026-04-24T07:09:53.995Z</time></trkpt><trkpt lat="43.6308067" lon="12.1165529"><ele>504.0</ele><time>2026-04-24T07:09:54.994Z</time></trkpt><trkpt lat="43.6308446" lon="12.1164655"><ele>504.0</ele><time>2026-04-24T07:09:55.995Z</time></trkpt><trkpt lat="43.6309078" lon="12.1164448"><ele>504.0</ele><time>2026-04-24T07:09:56.995Z</time></trkpt><trkpt lat="43.6309899" lon="12.1164854"><ele>503.5</ele><time>2026-04-24T07:09:57.996Z</time></trkpt><trkpt lat="43.6310906" lon="12.1165627"><ele>503.0</ele><time>2026-04-24T07:09:58.995Z</time></trkpt><trkpt lat="43.6312182" lon="12.1166542"><ele>502.5</ele><time>2026-04-24T07:09:59.994Z</time></trkpt><trkpt lat="43.6313702" lon="12.1167649"><ele>502.0</ele><time>2026-04-24T07:10:00.995Z</time></trkpt><trkpt lat="43.631546" lon="12.1168876"><ele>507.0</ele><time>2026-04-24T07:10:01.995Z</time></trkpt><trkpt lat="43.6317409" lon="12.1170104"><ele>512.0</ele><time>2026-04-24T07:10:02.994Z</time></trkpt><trkpt lat="43.6319618" lon="12.1171199"><ele>517.0</ele><time>2026-04-24T07:10:03.995Z</time></trkpt><trkpt lat="43.6322012" lon="12.1172172"><ele>516.5</ele><time>2026-04-24T07:10:04.994Z</time></trkpt><trkpt lat="43.6324542" lon="12.11732"><ele>516.0</ele><time>2026-04-24T07:10:05.995Z</time></trkpt><trkpt lat="43.6326927" lon="12.1174332"><ele>520.6666666666666</ele><time>2026-04-24T07:10:06.995Z</time></trkpt><trkpt lat="43.6329075" lon="12.117539"><ele>525.3333333333333</ele><time>2026-04-24T07:10:07.994Z</time></trkpt><trkpt lat="43.6331066" lon="12.1176407"><ele>530.0</ele><time>2026-04-24T07:10:08.994Z</time></trkpt><trkpt lat="43.6332786" lon="12.1177386"><ele>530.0</ele><time>2026-04-24T07:10:09.994Z</time></trkpt><trkpt lat="43.6334239" lon="12.1178184"><ele>530.0</ele><time>2026-04-24T07:10:10.994Z</time></trkpt><trkpt lat="43.6335484" lon="12.1178784"><ele>530.0</ele><time>2026-04-24T07:10:11.995Z</time></trkpt><trkpt lat="43.6336591" lon="12.1178821"><ele>530.0</ele><time>2026-04-24T07:10:12.994Z</time></trkpt><trkpt lat="43.6337421" lon="12.1178077"><ele>533.0</ele><time>2026-04-24T07:10:13.994Z</time></trkpt><trkpt lat="43.6337785" lon="12.1176775"><ele>536.0</ele><time>2026-04-24T07:10:14.995Z</time></trkpt><trkpt lat="43.6337434" lon="12.1175377"><ele>539.0</ele><time>2026-04-24T07:10:15.994Z</time></trkpt><trkpt lat="43.6336451" lon="12.1174189"><ele>542.0</ele><time>2026-04-24T07:10:16.994Z</time></trkpt><trkpt lat="43.6335129" lon="12.1172944"><ele>542.0</ele><time>2026-04-24T07:10:17.994Z</time></trkpt><trkpt lat="43.633365" lon="12.1171391"><ele>542.0</ele><time>2026-04-24T07:10:18.994Z</time></trkpt><trkpt lat="43.633218" lon="12.1169748"><ele>542.0</ele><time>2026-04-24T07:10:19.994Z</time></trkpt><trkpt lat="43.6330945" lon="12.1168142"><ele>542.0</ele><time>2026-04-24T07:10:20.994Z</time></trkpt><trkpt lat="43.6329948" lon="12.1166496"><ele>542.0</ele><time>2026-04-24T07:10:21.994Z</time></trkpt><trkpt lat="43.6329421" lon="12.1164879"><ele>542.0</ele><time>2026-04-24T07:10:22.994Z</time></trkpt><trkpt lat="43.632927" lon="12.1163343"><ele>542.0</ele><time>2026-04-24T07:10:23.994Z</time></trkpt><trkpt lat="43.6329367" lon="12.1161734"><ele>542.75</ele><time>2026-04-24T07:10:24.994Z</time></trkpt><trkpt lat="43.6329692" lon="12.1160134"><ele>543.5</ele><time>2026-04-24T07:10:25.994Z</time></trkpt><trkpt lat="43.6330206" lon="12.1158544"><ele>544.25</ele><time>2026-04-24T07:10:26.994Z</time></trkpt><trkpt lat="43.6330754" lon="12.1157005"><ele>545.0</ele><time>2026-04-24T07:10:27.994Z</time></trkpt><trkpt lat="43.6331374" lon="12.1155444"><ele>545.0</ele><time>2026-04-24T07:10:28.995Z</time></trkpt><trkpt lat="43.6332025" lon="12.1153941"><ele>545.0</ele><time>2026-04-24T07:10:29.994Z</time></trkpt><trkpt lat="43.6332639" lon="12.1152576"><ele>545.0</ele><time>2026-04-24T07:10:30.994Z</time></trkpt><trkpt lat="43.6333237" lon="12.1151233"><ele>545.0</ele><time>2026-04-24T07:10:31.994Z</time></trkpt><trkpt lat="43.63339" lon="12.114983"><ele>544.2</ele><time>2026-04-24T07:10:32.995Z</time></trkpt><trkpt lat="43.6334568" lon="12.114853"><ele>543.4</ele><time>2026-04-24T07:10:33.994Z</time></trkpt><trkpt lat="43.6335266" lon="12.1147313"><ele>542.6</ele><time>2026-04-24T07:10:34.994Z</time></trkpt><trkpt lat="43.6335983" lon="12.1146253"><ele>541.8</ele><time>2026-04-24T07:10:35.994Z</time></trkpt><trkpt lat="43.633671" lon="12.1145378"><ele>541.0</ele><time>2026-04-24T07:10:36.995Z</time></trkpt><trkpt lat="43.6337524" lon="12.1144377"><ele>542.0</ele><time>2026-04-24T07:10:37.994Z</time></trkpt><trkpt lat="43.6338452" lon="12.114325"><ele>543.0</ele><time>2026-04-24T07:10:38.994Z</time></trkpt><trkpt lat="43.6339454" lon="12.1141988"><ele>544.0</ele><time>2026-04-24T07:10:39.994Z</time></trkpt><trkpt lat="43.6340527" lon="12.1140713"><ele>545.0</ele><time>2026-04-24T07:10:40.995Z</time></trkpt><trkpt lat="43.6341597" lon="12.1139692"><ele>545.0</ele><time>2026-04-24T07:10:41.994Z</time></trkpt><trkpt lat="43.6342652" lon="12.1139056"><ele>545.0</ele><time>2026-04-24T07:10:42.994Z</time></trkpt><trkpt lat="43.6343754" lon="12.1138756"><ele>545.0</ele><time>2026-04-24T07:10:43.995Z</time></trkpt><trkpt lat="43.6344969" lon="12.1138606"><ele>545.0</ele><time>2026-04-24T07:10:44.995Z</time></trkpt><trkpt lat="43.6346265" lon="12.1138549"><ele>547.25</ele><time>2026-04-24T07:10:45.994Z</time></trkpt><trkpt lat="43.6347603" lon="12.1138494"><ele>549.5</ele><time>2026-04-24T07:10:46.996Z</time></trkpt><trkpt lat="43.6348926" lon="12.1138485"><ele>551.75</ele><time>2026-04-24T07:10:47.994Z</time></trkpt><trkpt lat="43.6350244" lon="12.1138578"><ele>554.0</ele><time>2026-04-24T07:10:48.994Z</time></trkpt><trkpt lat="43.6351485" lon="12.1138893"><ele>554.0</ele><time>2026-04-24T07:10:49.994Z</time></trkpt><trkpt lat="43.6352639" lon="12.113938"><ele>554.0</ele><time>2026-04-24T07:10:50.994Z</time></trkpt><trkpt lat="43.6353652" lon="12.1139907"><ele>554.0</ele><time>2026-04-24T07:10:51.994Z</time></trkpt><trkpt lat="43.6354562" lon="12.1140486"><ele>554.0</ele><time>2026-04-24T07:10:52.994Z</time></trkpt><trkpt lat="43.63554" lon="12.1141084"><ele>554.0</ele><time>2026-04-24T07:10:53.994Z</time></trkpt><trkpt lat="43.6356146" lon="12.1141603"><ele>555.6666666666666</ele><time>2026-04-24T07:10:54.994Z</time></trkpt><trkpt lat="43.6356899" lon="12.114199"><ele>557.3333333333333</ele><time>2026-04-24T07:10:55.994Z</time></trkpt><trkpt lat="43.6357638" lon="12.1142144"><ele>559.0</ele><time>2026-04-24T07:10:56.994Z</time></trkpt><trkpt lat="43.635831" lon="12.1141999"><ele>560.6666666666666</ele><time>2026-04-24T07:10:57.994Z</time></trkpt><trkpt lat="43.6358926" lon="12.1141544"><ele>562.3333333333334</ele><time>2026-04-24T07:10:58.994Z</time></trkpt><trkpt lat="43.6359415" lon="12.1140704"><ele>564.0</ele><time>2026-04-24T07:10:59.994Z</time></trkpt><trkpt lat="43.6359735" lon="12.1139594"><ele>564.4</ele><time>2026-04-24T07:11:00.994Z</time></trkpt><trkpt lat="43.6359749" lon="12.1138322"><ele>564.8</ele><time>2026-04-24T07:11:01.994Z</time></trkpt><trkpt lat="43.6359348" lon="12.1137151"><ele>565.2</ele><time>2026-04-24T07:11:02.994Z</time></trkpt><trkpt lat="43.6358663" lon="12.1136205"><ele>565.6</ele><time>2026-04-24T07:11:03.996Z</time></trkpt><trkpt lat="43.6357955" lon="12.1135421"><ele>566.0</ele><time>2026-04-24T07:11:04.994Z</time></trkpt><trkpt lat="43.6357472" lon="12.1134543"><ele>566.0</ele><time>2026-04-24T07:11:05.994Z</time></trkpt><trkpt lat="43.635723" lon="12.1133592"><ele>566.0</ele><time>2026-04-24T07:11:06.994Z</time></trkpt><trkpt lat="43.635736" lon="12.1132564"><ele>566.0</ele><time>2026-04-24T07:11:07.994Z</time></trkpt><trkpt lat="43.6357868" lon="12.1131815"><ele>566.0</ele><time>2026-04-24T07:11:08.994Z</time></trkpt><trkpt lat="43.6358606" lon="12.1131334"><ele>566.0</ele><time>2026-04-24T07:11:09.995Z</time></trkpt><trkpt lat="43.6359565" lon="12.1131206"><ele>566.0</ele><time>2026-04-24T07:11:10.994Z</time></trkpt><trkpt lat="43.6360966" lon="12.1131146"><ele>564.3333333333333</ele><time>2026-04-24T07:11:11.995Z</time></trkpt><trkpt lat="43.6362466" lon="12.1131131"><ele>562.6666666666666</ele><time>2026-04-24T07:11:12.995Z</time></trkpt><trkpt lat="43.6363809" lon="12.1131142"><ele>561.0</ele><time>2026-04-24T07:11:13.994Z</time></trkpt><trkpt lat="43.6365567" lon="12.1130883"><ele>561.0</ele><time>2026-04-24T07:11:14.994Z</time></trkpt><trkpt lat="43.6367459" lon="12.1130568"><ele>561.0</ele><time>2026-04-24T07:11:15.994Z</time></trkpt><trkpt lat="43.6369634" lon="12.1129749"><ele>561.0</ele><time>2026-04-24T07:11:16.995Z</time></trkpt><trkpt lat="43.6371932" lon="12.1128809"><ele>564.0</ele><time>2026-04-24T07:11:17.995Z</time></trkpt><trkpt lat="43.6374038" lon="12.1127909"><ele>567.0</ele><time>2026-04-24T07:11:18.994Z</time></trkpt><trkpt lat="43.6376055" lon="12.1127511"><ele>570.0</ele><time>2026-04-24T07:11:19.994Z</time></trkpt><trkpt lat="43.6377919" lon="12.1127938"><ele>570.6666666666666</ele><time>2026-04-24T07:11:20.994Z</time></trkpt><trkpt lat="43.6379668" lon="12.1129068"><ele>571.3333333333333</ele><time>2026-04-24T07:11:21.995Z</time></trkpt><trkpt lat="43.6381431" lon="12.113036"><ele>572.0</ele><time>2026-04-24T07:11:22.995Z</time></trkpt><trkpt lat="43.6383416" lon="12.1130977"><ele>572.0</ele><time>2026-04-24T07:11:23.994Z</time></trkpt><trkpt lat="43.6385531" lon="12.113104"><ele>572.0</ele><time>2026-04-24T07:11:24.994Z</time></trkpt><trkpt lat="43.6387764" lon="12.1130594"><ele>572.0</ele><time>2026-04-24T07:11:25.994Z</time></trkpt><trkpt lat="43.6390009" lon="12.1129806"><ele>574.0</ele><time>2026-04-24T07:11:26.994Z</time></trkpt><trkpt lat="43.6391997" lon="12.1128802"><ele>576.0</ele><time>2026-04-24T07:11:27.994Z</time></trkpt><trkpt lat="43.6393878" lon="12.1127803"><ele>578.0</ele><time>2026-04-24T07:11:28.994Z</time></trkpt><trkpt lat="43.6395807" lon="12.1127047"><ele>581.3333333333333</ele><time>2026-04-24T07:11:29.994Z</time></trkpt><trkpt lat="43.6397674" lon="12.1126797"><ele>584.6666666666666</ele><time>2026-04-24T07:11:30.994Z</time></trkpt><trkpt lat="43.6399356" lon="12.1126915"><ele>588.0</ele><time>2026-04-24T07:11:31.994Z</time></trkpt><trkpt lat="43.6400632" lon="12.1127031"><ele>588.0</ele><time>2026-04-24T07:11:32.994Z</time></trkpt><trkpt lat="43.6401743" lon="12.1126579"><ele>588.0</ele><time>2026-04-24T07:11:33.994Z</time></trkpt><trkpt lat="43.6402579" lon="12.1125328"><ele>588.0</ele><time>2026-04-24T07:11:34.994Z</time></trkpt><trkpt lat="43.6402987" lon="12.1123331"><ele>588.0</ele><time>2026-04-24T07:11:35.994Z</time></trkpt><trkpt lat="43.6402913" lon="12.1120848"><ele>588.3333333333334</ele><time>2026-04-24T07:11:36.995Z</time></trkpt><trkpt lat="43.6402465" lon="12.1118158"><ele>588.6666666666667</ele><time>2026-04-24T07:11:37.995Z</time></trkpt><trkpt lat="43.6401972" lon="12.1115252"><ele>589.0</ele><time>2026-04-24T07:11:38.995Z</time></trkpt><trkpt lat="43.6401467" lon="12.1112165"><ele>592.0</ele><time>2026-04-24T07:11:39.994Z</time></trkpt><trkpt lat="43.6400894" lon="12.110898"><ele>595.0</ele><time>2026-04-24T07:11:40.994Z</time></trkpt><trkpt lat="43.640025" lon="12.1105924"><ele>597.0</ele><time>2026-04-24T07:11:41.994Z</time></trkpt><trkpt lat="43.6399631" lon="12.110315"><ele>599.0</ele><time>2026-04-24T07:11:42.994Z</time></trkpt><trkpt lat="43.6399055" lon="12.1100598"><ele>601.0</ele><time>2026-04-24T07:11:43.994Z</time></trkpt><trkpt lat="43.6398798" lon="12.109823"><ele>601.3333333333334</ele><time>2026-04-24T07:11:44.994Z</time></trkpt><trkpt lat="43.6399067" lon="12.1096116"><ele>601.6666666666666</ele><time>2026-04-24T07:11:45.994Z</time></trkpt><trkpt lat="43.639993" lon="12.1094412"><ele>602.0</ele><time>2026-04-24T07:11:46.994Z</time></trkpt><trkpt lat="43.6401308" lon="12.1093158"><ele>602.0</ele><time>2026-04-24T07:11:47.994Z</time></trkpt><trkpt lat="43.6402994" lon="12.1092239"><ele>602.0</ele><time>2026-04-24T07:11:48.994Z</time></trkpt><trkpt lat="43.6404902" lon="12.1091244"><ele>602.0</ele><time>2026-04-24T07:11:49.994Z</time></trkpt><trkpt lat="43.6406948" lon="12.1089937"><ele>604.5</ele><time>2026-04-24T07:11:50.994Z</time></trkpt><trkpt lat="43.6409037" lon="12.1088181"><ele>607.0</ele><time>2026-04-24T07:11:51.994Z</time></trkpt><trkpt lat="43.6411189" lon="12.1086175"><ele>609.0</ele><time>2026-04-24T07:11:52.994Z</time></trkpt><trkpt lat="43.6413372" lon="12.1084062"><ele>611.0</ele><time>2026-04-24T07:11:53.995Z</time></trkpt><trkpt lat="43.6415616" lon="12.1081871"><ele>611.0</ele><time>2026-04-24T07:11:54.994Z</time></trkpt><trkpt lat="43.6417913" lon="12.1079654"><ele>611.0</ele><time>2026-04-24T07:11:55.994Z</time></trkpt><trkpt lat="43.6420307" lon="12.1077696"><ele>614.0</ele><time>2026-04-24T07:11:56.995Z</time></trkpt><trkpt lat="43.6422849" lon="12.107628"><ele>617.0</ele><time>2026-04-24T07:11:57.995Z</time></trkpt><trkpt lat="43.6425558" lon="12.1075162"><ele>616.5</ele><time>2026-04-24T07:11:58.994Z</time></trkpt><trkpt lat="43.6428269" lon="12.1074113"><ele>616.0</ele><time>2026-04-24T07:11:59.994Z</time></trkpt><trkpt lat="43.6430743" lon="12.1073109"><ele>616.0</ele><time>2026-04-24T07:12:00.994Z</time></trkpt><trkpt lat="43.6433032" lon="12.1072212"><ele>616.0</ele><time>2026-04-24T07:12:01.994Z</time></trkpt><trkpt lat="43.6435176" lon="12.1071794"><ele>618.0</ele><time>2026-04-24T07:12:02.994Z</time></trkpt><trkpt lat="43.643713" lon="12.1072089"><ele>620.0</ele><time>2026-04-24T07:12:03.995Z</time></trkpt><trkpt lat="43.6438904" lon="12.1072621"><ele>622.0</ele><time>2026-04-24T07:12:04.995Z</time></trkpt><trkpt lat="43.6440821" lon="12.1072447"><ele>622.0</ele><time>2026-04-24T07:12:05.995Z</time></trkpt><trkpt lat="43.6442755" lon="12.1071645"><ele>622.0</ele><time>2026-04-24T07:12:06.994Z</time></trkpt><trkpt lat="43.6444658" lon="12.1070406"><ele>622.0</ele><time>2026-04-24T07:12:07.994Z</time></trkpt><trkpt lat="43.6446542" lon="12.1068787"><ele>627.0</ele><time>2026-04-24T07:12:08.995Z</time></trkpt><trkpt lat="43.6448289" lon="12.106665"><ele>632.0</ele><time>2026-04-24T07:12:09.995Z</time></trkpt><trkpt lat="43.644974" lon="12.1064212"><ele>632.0</ele><time>2026-04-24T07:12:10.994Z</time></trkpt><trkpt lat="43.6450933" lon="12.1061844"><ele>632.0</ele><time>2026-04-24T07:12:11.994Z</time></trkpt><trkpt lat="43.6452235" lon="12.1059805"><ele>632.0</ele><time>2026-04-24T07:12:12.994Z</time></trkpt><trkpt lat="43.64536" lon="12.1058315"><ele>638.6666666666666</ele><time>2026-04-24T07:12:13.994Z</time></trkpt><trkpt lat="43.6454691" lon="12.1056862"><ele>645.3333333333334</ele><time>2026-04-24T07:12:14.994Z</time></trkpt><trkpt lat="43.6455278" lon="12.1054909"><ele>652.0</ele><time>2026-04-24T07:12:15.994Z</time></trkpt><trkpt lat="43.6455182" lon="12.1052549"><ele>652.0</ele><time>2026-04-24T07:12:16.994Z</time></trkpt><trkpt lat="43.6454714" lon="12.1050108"><ele>652.0</ele><time>2026-04-24T07:12:17.994Z</time></trkpt><trkpt lat="43.6454234" lon="12.1047304"><ele>652.0</ele><time>2026-04-24T07:12:18.995Z</time></trkpt><trkpt lat="43.6454004" lon="12.104421"><ele>653.5</ele><time>2026-04-24T07:12:19.994Z</time></trkpt><trkpt lat="43.6453824" lon="12.1040917"><ele>655.0</ele><time>2026-04-24T07:12:20.994Z</time></trkpt><trkpt lat="43.6453735" lon="12.103751"><ele>654.5</ele><time>2026-04-24T07:12:21.994Z</time></trkpt><trkpt lat="43.6453854" lon="12.1034153"><ele>654.0</ele><time>2026-04-24T07:12:22.994Z</time></trkpt><trkpt lat="43.645447" lon="12.1031032"><ele>654.0</ele><time>2026-04-24T07:12:23.995Z</time></trkpt><trkpt lat="43.6455538" lon="12.1028369"><ele>654.0</ele><time>2026-04-24T07:12:24.994Z</time></trkpt><trkpt lat="43.6457041" lon="12.1026069"><ele>654.0</ele><time>2026-04-24T07:12:25.994Z</time></trkpt><trkpt lat="43.6458867" lon="12.1024017"><ele>652.5</ele><time>2026-04-24T07:12:26.995Z</time></trkpt><trkpt lat="43.6460864" lon="12.1022033"><ele>651.0</ele><time>2026-04-24T07:12:27.994Z</time></trkpt><trkpt lat="43.6462947" lon="12.1019957"><ele>656.0</ele><time>2026-04-24T07:12:28.994Z</time></trkpt><trkpt lat="43.6464999" lon="12.1017783"><ele>661.0</ele><time>2026-04-24T07:12:29.994Z</time></trkpt><trkpt lat="43.6466917" lon="12.1015525"><ele>661.0</ele><time>2026-04-24T07:12:30.994Z</time></trkpt><trkpt lat="43.6468431" lon="12.1013202"><ele>661.0</ele><time>2026-04-24T07:12:31.994Z</time></trkpt><trkpt lat="43.6469525" lon="12.1010546"><ele>661.0</ele><time>2026-04-24T07:12:32.995Z</time></trkpt><trkpt lat="43.6470249" lon="12.1007684"><ele>665.3333333333334</ele><time>2026-04-24T07:12:33.995Z</time></trkpt><trkpt lat="43.6470959" lon="12.1005201"><ele>669.6666666666666</ele><time>2026-04-24T07:12:34.994Z</time></trkpt><trkpt lat="43.6471484" lon="12.1003015"><ele>674.0</ele><time>2026-04-24T07:12:35.995Z</time></trkpt><trkpt lat="43.6471462" lon="12.1000812"><ele>675.75</ele><time>2026-04-24T07:12:36.994Z</time></trkpt><trkpt lat="43.6470821" lon="12.0998905"><ele>677.5</ele><time>2026-04-24T07:12:37.995Z</time></trkpt><trkpt lat="43.6469839" lon="12.0997338"><ele>679.25</ele><time>2026-04-24T07:12:38.994Z</time></trkpt><trkpt lat="43.6469149" lon="12.0995574"><ele>681.0</ele><time>2026-04-24T07:12:39.994Z</time></trkpt><trkpt lat="43.6469225" lon="12.0993714"><ele>681.0</ele><time>2026-04-24T07:12:40.994Z</time></trkpt><trkpt lat="43.6469992" lon="12.0992179"><ele>681.0</ele><time>2026-04-24T07:12:41.994Z</time></trkpt><trkpt lat="43.6471101" lon="12.0990791"><ele>681.0</ele><time>2026-04-24T07:12:42.995Z</time></trkpt><trkpt lat="43.6472313" lon="12.0989221"><ele>682.6666666666666</ele><time>2026-04-24T07:12:43.994Z</time></trkpt><trkpt lat="43.6473298" lon="12.0987139"><ele>684.3333333333333</ele><time>2026-04-24T07:12:44.994Z</time></trkpt><trkpt lat="43.6473673" lon="12.0984638"><ele>686.0</ele><time>2026-04-24T07:12:45.994Z</time></trkpt><trkpt lat="43.6473592" lon="12.0981928"><ele>686.3333333333333</ele><time>2026-04-24T07:12:46.994Z</time></trkpt><trkpt lat="43.6473301" lon="12.0978998"><ele>686.6666666666666</ele><time>2026-04-24T07:12:47.995Z</time></trkpt><trkpt lat="43.6472972" lon="12.0975911"><ele>687.0</ele><time>2026-04-24T07:12:48.995Z</time></trkpt><trkpt lat="43.6472763" lon="12.0972649"><ele>687.0</ele><time>2026-04-24T07:12:49.994Z</time></trkpt><trkpt lat="43.6472892" lon="12.0969426"><ele>687.0</ele><time>2026-04-24T07:12:50.994Z</time></trkpt><trkpt lat="43.6473309" lon="12.0966543"><ele>687.0</ele><time>2026-04-24T07:12:51.995Z</time></trkpt><trkpt lat="43.6473541" lon="12.0963843"><ele>685.0</ele><time>2026-04-24T07:12:52.994Z</time></trkpt><trkpt lat="43.6473458" lon="12.096133"><ele>683.0</ele><time>2026-04-24T07:12:53.995Z</time></trkpt><trkpt lat="43.6473369" lon="12.0959102"><ele>681.0</ele><time>2026-04-24T07:12:54.994Z</time></trkpt><trkpt lat="43.6473667" lon="12.0957114"><ele>679.5</ele><time>2026-04-24T07:12:55.995Z</time></trkpt><trkpt lat="43.6474429" lon="12.0955613"><ele>678.0</ele><time>2026-04-24T07:12:56.994Z</time></trkpt><trkpt lat="43.6475664" lon="12.0954862"><ele>676.5</ele><time>2026-04-24T07:12:57.995Z</time></trkpt><trkpt lat="43.6477215" lon="12.0954719"><ele>675.0</ele><time>2026-04-24T07:12:58.995Z</time></trkpt><trkpt lat="43.6478899" lon="12.0955101"><ele>675.0</ele><time>2026-04-24T07:12:59.994Z</time></trkpt><trkpt lat="43.6480553" lon="12.0955934"><ele>675.0</ele><time>2026-04-24T07:13:00.994Z</time></trkpt><trkpt lat="43.648173" lon="12.0957479"><ele>675.0</ele><time>2026-04-24T07:13:01.994Z</time></trkpt><trkpt lat="43.648262" lon="12.0959559"><ele>679.0</ele><time>2026-04-24T07:13:02.994Z</time></trkpt><trkpt lat="43.6483582" lon="12.09618"><ele>683.0</ele><time>2026-04-24T07:13:03.995Z</time></trkpt><trkpt lat="43.6484846" lon="12.0963884"><ele>687.0</ele><time>2026-04-24T07:13:04.994Z</time></trkpt><trkpt lat="43.648612" lon="12.0965573"><ele>690.3333333333334</ele><time>2026-04-24T07:13:05.994Z</time></trkpt><trkpt lat="43.6487619" lon="12.0966624"><ele>693.6666666666667</ele><time>2026-04-24T07:13:06.994Z</time></trkpt><trkpt lat="43.6489389" lon="12.096696"><ele>697.0</ele><time>2026-04-24T07:13:07.995Z</time></trkpt><trkpt lat="43.6491267" lon="12.0966724"><ele>697.0</ele><time>2026-04-24T07:13:08.995Z</time></trkpt><trkpt lat="43.6493118" lon="12.0966514"><ele>697.0</ele><time>2026-04-24T07:13:09.995Z</time></trkpt><trkpt lat="43.6494789" lon="12.0966678"><ele>697.0</ele><time>2026-04-24T07:13:10.994Z</time></trkpt><trkpt lat="43.6496218" lon="12.0967354"><ele>697.5</ele><time>2026-04-24T07:13:11.995Z</time></trkpt><trkpt lat="43.6497128" lon="12.0968593"><ele>698.0</ele><time>2026-04-24T07:13:12.994Z</time></trkpt><trkpt lat="43.6497428" lon="12.0970366"><ele>698.5</ele><time>2026-04-24T07:13:13.994Z</time></trkpt><trkpt lat="43.6497221" lon="12.0972304"><ele>699.0</ele><time>2026-04-24T07:13:14.994Z</time></trkpt><trkpt lat="43.6497073" lon="12.0974487"><ele>699.0</ele><time>2026-04-24T07:13:15.995Z</time></trkpt><trkpt lat="43.6497582" lon="12.0976797"><ele>699.0</ele><time>2026-04-24T07:13:16.994Z</time></trkpt><trkpt lat="43.6498681" lon="12.097898"><ele>699.0</ele><time>2026-04-24T07:13:17.996Z</time></trkpt><trkpt lat="43.6500046" lon="12.098107"><ele>703.0</ele><time>2026-04-24T07:13:18.994Z</time></trkpt><trkpt lat="43.6501021" lon="12.0983408"><ele>707.0</ele><time>2026-04-24T07:13:19.994Z</time></trkpt><trkpt lat="43.6501442" lon="12.0986016"><ele>711.0</ele><time>2026-04-24T07:13:20.994Z</time></trkpt><trkpt lat="43.6501666" lon="12.0988896"><ele>713.0</ele><time>2026-04-24T07:13:21.995Z</time></trkpt><trkpt lat="43.6501838" lon="12.0991991"><ele>715.0</ele><time>2026-04-24T07:13:22.994Z</time></trkpt><trkpt lat="43.6502016" lon="12.0995332"><ele>715.0</ele><time>2026-04-24T07:13:23.995Z</time></trkpt><trkpt lat="43.6502205" lon="12.0998857"><ele>715.0</ele><time>2026-04-24T07:13:24.994Z</time></trkpt><trkpt lat="43.650248" lon="12.1002432"><ele>714.0</ele><time>2026-04-24T07:13:25.994Z</time></trkpt><trkpt lat="43.6502745" lon="12.1005921"><ele>713.0</ele><time>2026-04-24T07:13:26.994Z</time></trkpt><trkpt lat="43.6502974" lon="12.1009135"><ele>712.6666666666666</ele><time>2026-04-24T07:13:27.995Z</time></trkpt><trkpt lat="43.6503051" lon="12.1012177"><ele>712.3333333333334</ele><time>2026-04-24T07:13:28.995Z</time></trkpt><trkpt lat="43.6502785" lon="12.1015005"><ele>712.0</ele><time>2026-04-24T07:13:29.995Z</time></trkpt><trkpt lat="43.6502134" lon="12.1017492"><ele>712.6666666666667</ele><time>2026-04-24T07:13:30.995Z</time></trkpt><trkpt lat="43.6501289" lon="12.1019695"><ele>713.3333333333334</ele><time>2026-04-24T07:13:31.994Z</time></trkpt><trkpt lat="43.6500567" lon="12.1021837"><ele>714.0</ele><time>2026-04-24T07:13:32.994Z</time></trkpt><trkpt lat="43.6500206" lon="12.102397"><ele>715.3333333333334</ele><time>2026-04-24T07:13:33.994Z</time></trkpt><trkpt lat="43.6500253" lon="12.102612"><ele>716.6666666666667</ele><time>2026-04-24T07:13:34.995Z</time></trkpt><trkpt lat="43.6500864" lon="12.10282"><ele>718.0</ele><time>2026-04-24T07:13:35.994Z</time></trkpt><trkpt lat="43.6502054" lon="12.1029936"><ele>722.0</ele><time>2026-04-24T07:13:36.994Z</time></trkpt><trkpt lat="43.6503605" lon="12.1031289"><ele>726.0</ele><time>2026-04-24T07:13:37.994Z</time></trkpt><trkpt lat="43.6505323" lon="12.1032549"><ele>730.0</ele><time>2026-04-24T07:13:38.994Z</time></trkpt><trkpt lat="43.6507064" lon="12.1033952"><ele>730.0</ele><time>2026-04-24T07:13:39.995Z</time></trkpt><trkpt lat="43.6508667" lon="12.1035698"><ele>730.0</ele><time>2026-04-24T07:13:40.994Z</time></trkpt><trkpt lat="43.650993" lon="12.1037936"><ele>730.0</ele><time>2026-04-24T07:13:41.995Z</time></trkpt><trkpt lat="43.6510647" lon="12.1040598"><ele>729.3333333333334</ele><time>2026-04-24T07:13:42.994Z</time></trkpt><trkpt lat="43.6510963" lon="12.1043525"><ele>728.6666666666666</ele><time>2026-04-24T07:13:43.994Z</time></trkpt><trkpt lat="43.6511085" lon="12.1046503"><ele>728.0</ele><time>2026-04-24T07:13:44.994Z</time></trkpt><trkpt lat="43.6511377" lon="12.1049411"><ele>733.0</ele><time>2026-04-24T07:13:45.994Z</time></trkpt><trkpt lat="43.6511885" lon="12.105203"><ele>738.0</ele><time>2026-04-24T07:13:46.994Z</time></trkpt><trkpt lat="43.6512763" lon="12.1054363"><ele>743.0</ele><time>2026-04-24T07:13:47.994Z</time></trkpt><trkpt lat="43.6514012" lon="12.1056367"><ele>743.0</ele><time>2026-04-24T07:13:48.994Z</time></trkpt><trkpt lat="43.6515442" lon="12.1058145"><ele>743.0</ele><time>2026-04-24T07:13:49.994Z</time></trkpt><trkpt lat="43.6516645" lon="12.106023"><ele>743.0</ele><time>2026-04-24T07:13:50.994Z</time></trkpt><trkpt lat="43.6517455" lon="12.1062733"><ele>743.0</ele><time>2026-04-24T07:13:51.994Z</time></trkpt><trkpt lat="43.651794" lon="12.1065487"><ele>743.0</ele><time>2026-04-24T07:13:52.994Z</time></trkpt><trkpt lat="43.651823" lon="12.1068201"><ele>743.0</ele><time>2026-04-24T07:13:53.995Z</time></trkpt><trkpt lat="43.6518142" lon="12.1070761"><ele>743.6666666666666</ele><time>2026-04-24T07:13:54.994Z</time></trkpt><trkpt lat="43.6517461" lon="12.1073217"><ele>744.3333333333334</ele><time>2026-04-24T07:13:55.994Z</time></trkpt><trkpt lat="43.6516199" lon="12.1075305"><ele>745.0</ele><time>2026-04-24T07:13:56.995Z</time></trkpt><trkpt lat="43.6514717" lon="12.1077246"><ele>746.0</ele><time>2026-04-24T07:13:57.994Z</time></trkpt><trkpt lat="43.651316" lon="12.1079208"><ele>747.0</ele><time>2026-04-24T07:13:58.994Z</time></trkpt><trkpt lat="43.6511572" lon="12.1081135"><ele>748.0</ele><time>2026-04-24T07:13:59.994Z</time></trkpt><trkpt lat="43.6510045" lon="12.1083016"><ele>748.0</ele><time>2026-04-24T07:14:00.994Z</time></trkpt><trkpt lat="43.6508676" lon="12.1084741"><ele>748.0</ele><time>2026-04-24T07:14:01.994Z</time></trkpt><trkpt lat="43.6507527" lon="12.1086247"><ele>748.0</ele><time>2026-04-24T07:14:02.994Z</time></trkpt><trkpt lat="43.6506673" lon="12.1087729"><ele>748.0</ele><time>2026-04-24T07:14:03.995Z</time></trkpt><trkpt lat="43.650636" lon="12.1089214"><ele>748.0</ele><time>2026-04-24T07:14:04.994Z</time></trkpt><trkpt lat="43.6506664" lon="12.109075"><ele>748.0</ele><time>2026-04-24T07:14:05.994Z</time></trkpt><trkpt lat="43.6507572" lon="12.1092019"><ele>748.0</ele><time>2026-04-24T07:14:06.994Z</time></trkpt><trkpt lat="43.6508897" lon="12.1092715"><ele>749.0</ele><time>2026-04-24T07:14:07.994Z</time></trkpt><trkpt lat="43.6510471" lon="12.1093072"><ele>750.0</ele><time>2026-04-24T07:14:08.994Z</time></trkpt><trkpt lat="43.6512195" lon="12.1093427"><ele>751.0</ele><time>2026-04-24T07:14:09.995Z</time></trkpt><trkpt lat="43.6514001" lon="12.1093839"><ele>755.0</ele><time>2026-04-24T07:14:10.995Z</time></trkpt><trkpt lat="43.6515597" lon="12.1094557"><ele>759.0</ele><time>2026-04-24T07:14:11.994Z</time></trkpt><trkpt lat="43.651695" lon="12.1095905"><ele>763.0</ele><time>2026-04-24T07:14:12.994Z</time></trkpt><trkpt lat="43.6517795" lon="12.1097831"><ele>761.6666666666667</ele><time>2026-04-24T07:14:13.994Z</time></trkpt><trkpt lat="43.6518141" lon="12.1100049"><ele>760.3333333333334</ele><time>2026-04-24T07:14:14.994Z</time></trkpt><trkpt lat="43.6518497" lon="12.1102349"><ele>759.0</ele><time>2026-04-24T07:14:15.994Z</time></trkpt><trkpt lat="43.651945" lon="12.1104419"><ele>766.0</ele><time>2026-04-24T07:14:16.995Z</time></trkpt><trkpt lat="43.6522699" lon="12.1107081"><ele>773.0</ele><time>2026-04-24T07:14:18.994Z</time></trkpt><trkpt lat="43.6524615" lon="12.1108051"><ele>773.0</ele><time>2026-04-24T07:14:19.994Z</time></trkpt><trkpt lat="43.652624" lon="12.1109694"><ele>773.0</ele><time>2026-04-24T07:14:20.994Z</time></trkpt><trkpt lat="43.6527531" lon="12.1112027"><ele>773.0</ele><time>2026-04-24T07:14:21.994Z</time></trkpt><trkpt lat="43.6528622" lon="12.1114698"><ele>776.0</ele><time>2026-04-24T07:14:22.995Z</time></trkpt><trkpt lat="43.6529655" lon="12.1117702"><ele>779.0</ele><time>2026-04-24T07:14:23.994Z</time></trkpt><trkpt lat="43.6530691" lon="12.1120843"><ele>779.0</ele><time>2026-04-24T07:14:24.994Z</time></trkpt><trkpt lat="43.6531752" lon="12.1124022"><ele>779.0</ele><time>2026-04-24T07:14:25.994Z</time></trkpt><trkpt lat="43.6532838" lon="12.1127288"><ele>779.5</ele><time>2026-04-24T07:14:26.994Z</time></trkpt><trkpt lat="43.653395" lon="12.113057"><ele>780.0</ele><time>2026-04-24T07:14:27.994Z</time></trkpt><trkpt lat="43.6535061" lon="12.1133751"><ele>781.5</ele><time>2026-04-24T07:14:28.994Z</time></trkpt><trkpt lat="43.6536063" lon="12.1136748"><ele>783.0</ele><time>2026-04-24T07:14:29.995Z</time></trkpt><trkpt lat="43.6536813" lon="12.1139615"><ele>787.3333333333333</ele><time>2026-04-24T07:14:30.994Z</time></trkpt><trkpt lat="43.6537161" lon="12.1142401"><ele>791.6666666666666</ele><time>2026-04-24T07:14:31.994Z</time></trkpt><trkpt lat="43.6537092" lon="12.1145013"><ele>796.0</ele><time>2026-04-24T07:14:32.995Z</time></trkpt><trkpt lat="43.6536834" lon="12.1147367"><ele>796.75</ele><time>2026-04-24T07:14:33.994Z</time></trkpt><trkpt lat="43.6536774" lon="12.1149505"><ele>797.5</ele><time>2026-04-24T07:14:34.994Z</time></trkpt><trkpt lat="43.6537031" lon="12.1151362"><ele>798.25</ele><time>2026-04-24T07:14:35.994Z</time></trkpt><trkpt lat="43.6537754" lon="12.1152665"><ele>799.0</ele><time>2026-04-24T07:14:36.994Z</time></trkpt><trkpt lat="43.6538827" lon="12.1153269"><ele>799.0</ele><time>2026-04-24T07:14:37.995Z</time></trkpt><trkpt lat="43.6539984" lon="12.1152956"><ele>799.0</ele><time>2026-04-24T07:14:38.994Z</time></trkpt><trkpt lat="43.6541018" lon="12.1151732"><ele>799.0</ele><time>2026-04-24T07:14:39.994Z</time></trkpt><trkpt lat="43.6541797" lon="12.1149951"><ele>799.0</ele><time>2026-04-24T07:14:40.994Z</time></trkpt><trkpt lat="43.6542552" lon="12.1147927"><ele>798.0</ele><time>2026-04-24T07:14:41.995Z</time></trkpt><trkpt lat="43.6543464" lon="12.114578"><ele>797.0</ele><time>2026-04-24T07:14:42.995Z</time></trkpt><trkpt lat="43.6544452" lon="12.1143606"><ele>796.0</ele><time>2026-04-24T07:14:43.994Z</time></trkpt><trkpt lat="43.6545701" lon="12.1141785"><ele>796.6666666666666</ele><time>2026-04-24T07:14:44.994Z</time></trkpt><trkpt lat="43.6547335" lon="12.1140587"><ele>797.3333333333333</ele><time>2026-04-24T07:14:45.994Z</time></trkpt><trkpt lat="43.6549221" lon="12.113992"><ele>798.0</ele><time>2026-04-24T07:14:46.994Z</time></trkpt><trkpt lat="43.6551292" lon="12.1139444"><ele>802.0</ele><time>2026-04-24T07:14:47.994Z</time></trkpt><trkpt lat="43.655349" lon="12.1138955"><ele>806.0</ele><time>2026-04-24T07:14:48.995Z</time></trkpt><trkpt lat="43.655577" lon="12.113845"><ele>806.0</ele><time>2026-04-24T07:14:49.994Z</time></trkpt><trkpt lat="43.6558079" lon="12.1137933"><ele>806.0</ele><time>2026-04-24T07:14:50.994Z</time></trkpt><trkpt lat="43.6560319" lon="12.1137411"><ele>810.3333333333334</ele><time>2026-04-24T07:14:51.995Z</time></trkpt><trkpt lat="43.6562386" lon="12.113696"><ele>814.6666666666667</ele><time>2026-04-24T07:14:52.994Z</time></trkpt><trkpt lat="43.6564287" lon="12.1136547"><ele>819.0</ele><time>2026-04-24T07:14:53.994Z</time></trkpt><trkpt lat="43.6566052" lon="12.1136052"><ele>819.0</ele><time>2026-04-24T07:14:54.994Z</time></trkpt><trkpt lat="43.6567652" lon="12.1135305"><ele>819.0</ele><time>2026-04-24T07:14:55.994Z</time></trkpt><trkpt lat="43.6568886" lon="12.1133966"><ele>819.0</ele><time>2026-04-24T07:14:56.994Z</time></trkpt><trkpt lat="43.656968" lon="12.1131981"><ele>823.0</ele><time>2026-04-24T07:14:57.994Z</time></trkpt><trkpt lat="43.6570268" lon="12.1129698"><ele>827.0</ele><time>2026-04-24T07:14:58.994Z</time></trkpt><trkpt lat="43.6570739" lon="12.1127148"><ele>831.0</ele><time>2026-04-24T07:14:59.995Z</time></trkpt><trkpt lat="43.6571073" lon="12.1124404"><ele>831.6666666666667</ele><time>2026-04-24T07:15:00.994Z</time></trkpt><trkpt lat="43.6571266" lon="12.1121494"><ele>832.3333333333334</ele><time>2026-04-24T07:15:01.995Z</time></trkpt><trkpt lat="43.6571274" lon="12.1118428"><ele>833.0</ele><time>2026-04-24T07:15:02.994Z</time></trkpt><trkpt lat="43.6571155" lon="12.1115235"><ele>831.6666666666667</ele><time>2026-04-24T07:15:03.994Z</time></trkpt><trkpt lat="43.657087" lon="12.111221"><ele>830.3333333333333</ele><time>2026-04-24T07:15:04.994Z</time></trkpt><trkpt lat="43.6570292" lon="12.1109568"><ele>829.0</ele><time>2026-04-24T07:15:05.994Z</time></trkpt><trkpt lat="43.6569401" lon="12.1107332"><ele>829.0</ele><time>2026-04-24T07:15:06.994Z</time></trkpt><trkpt lat="43.6568611" lon="12.1105263"><ele>829.0</ele><time>2026-04-24T07:15:07.994Z</time></trkpt><trkpt lat="43.6568426" lon="12.1103238"><ele>829.0</ele><time>2026-04-24T07:15:08.994Z</time></trkpt><trkpt lat="43.6568806" lon="12.1101412"><ele>831.0</ele><time>2026-04-24T07:15:09.994Z</time></trkpt><trkpt lat="43.6569815" lon="12.1099872"><ele>833.0</ele><time>2026-04-24T07:15:10.994Z</time></trkpt><trkpt lat="43.6571355" lon="12.1098951"><ele>835.0</ele><time>2026-04-24T07:15:11.994Z</time></trkpt><trkpt lat="43.6573128" lon="12.1098332"><ele>835.0</ele><time>2026-04-24T07:15:12.994Z</time></trkpt><trkpt lat="43.6575032" lon="12.1097731"><ele>835.0</ele><time>2026-04-24T07:15:13.994Z</time></trkpt><trkpt lat="43.6576725" lon="12.1096725"><ele>835.0</ele><time>2026-04-24T07:15:14.994Z</time></trkpt><trkpt lat="43.6578101" lon="12.1095209"><ele>838.6666666666666</ele><time>2026-04-24T07:15:15.994Z</time></trkpt><trkpt lat="43.6579094" lon="12.1093134"><ele>842.3333333333333</ele><time>2026-04-24T07:15:16.994Z</time></trkpt><trkpt lat="43.6579505" lon="12.1090567"><ele>846.0</ele><time>2026-04-24T07:15:17.994Z</time></trkpt><trkpt lat="43.6579653" lon="12.1087716"><ele>848.0</ele><time>2026-04-24T07:15:18.994Z</time></trkpt><trkpt lat="43.6579741" lon="12.1084603"><ele>850.0</ele><time>2026-04-24T07:15:19.995Z</time></trkpt><trkpt lat="43.6579809" lon="12.1081322"><ele>850.0</ele><time>2026-04-24T07:15:20.994Z</time></trkpt><trkpt lat="43.6579882" lon="12.107822"><ele>850.0</ele><time>2026-04-24T07:15:21.994Z</time></trkpt><trkpt lat="43.6579995" lon="12.1075396"><ele>850.0</ele><time>2026-04-24T07:15:22.995Z</time></trkpt><trkpt lat="43.6580169" lon="12.1072892"><ele>849.25</ele><time>2026-04-24T07:15:23.995Z</time></trkpt><trkpt lat="43.6580568" lon="12.1070833"><ele>848.5</ele><time>2026-04-24T07:15:24.995Z</time></trkpt><trkpt lat="43.6581236" lon="12.1069236"><ele>847.75</ele><time>2026-04-24T07:15:25.994Z</time></trkpt><trkpt lat="43.6582394" lon="12.1068631"><ele>847.0</ele><time>2026-04-24T07:15:26.994Z</time></trkpt><trkpt lat="43.6583652" lon="12.1068554"><ele>847.0</ele><time>2026-04-24T07:15:27.994Z</time></trkpt><trkpt lat="43.6585067" lon="12.1068989"><ele>847.0</ele><time>2026-04-24T07:15:28.994Z</time></trkpt><trkpt lat="43.6586648" lon="12.106943"><ele>847.0</ele><time>2026-04-24T07:15:29.994Z</time></trkpt><trkpt lat="43.6588376" lon="12.1069922"><ele>848.6666666666666</ele><time>2026-04-24T07:15:30.994Z</time></trkpt><trkpt lat="43.659027" lon="12.1070327"><ele>850.3333333333333</ele><time>2026-04-24T07:15:31.994Z</time></trkpt><trkpt lat="43.6592287" lon="12.1070507"><ele>852.0</ele><time>2026-04-24T07:15:32.994Z</time></trkpt><trkpt lat="43.6594368" lon="12.107032"><ele>853.6666666666667</ele><time>2026-04-24T07:15:33.994Z</time></trkpt><trkpt lat="43.6596494" lon="12.1069533"><ele>855.3333333333334</ele><time>2026-04-24T07:15:34.994Z</time></trkpt><trkpt lat="43.6598564" lon="12.1068214"><ele>857.0</ele><time>2026-04-24T07:15:35.994Z</time></trkpt><trkpt lat="43.6600661" lon="12.1066663"><ele>852.5</ele><time>2026-04-24T07:15:36.994Z</time></trkpt><trkpt lat="43.6602988" lon="12.106553"><ele>848.0</ele><time>2026-04-24T07:15:37.994Z</time></trkpt><trkpt lat="43.6605453" lon="12.1064925"><ele>848.0</ele><time>2026-04-24T07:15:38.994Z</time></trkpt><trkpt lat="43.6607943" lon="12.1064551"><ele>848.0</ele><time>2026-04-24T07:15:39.995Z</time></trkpt><trkpt lat="43.6610365" lon="12.1064297"><ele>852.6666666666667</ele><time>2026-04-24T07:15:40.994Z</time></trkpt><trkpt lat="43.6612595" lon="12.1063957"><ele>857.3333333333333</ele><time>2026-04-24T07:15:41.995Z</time></trkpt><trkpt lat="43.6614704" lon="12.1063219"><ele>862.0</ele><time>2026-04-24T07:15:42.995Z</time></trkpt><trkpt lat="43.6616665" lon="12.1061872"><ele>862.0</ele><time>2026-04-24T07:15:43.995Z</time></trkpt><trkpt lat="43.6618383" lon="12.1060024"><ele>862.0</ele><time>2026-04-24T07:15:44.994Z</time></trkpt><trkpt lat="43.66198" lon="12.1057679"><ele>862.0</ele><time>2026-04-24T07:15:45.994Z</time></trkpt><trkpt lat="43.662095" lon="12.1055087"><ele>863.3333333333333</ele><time>2026-04-24T07:15:46.994Z</time></trkpt><trkpt lat="43.6621994" lon="12.1052714"><ele>864.6666666666667</ele><time>2026-04-24T07:15:47.994Z</time></trkpt><trkpt lat="43.6623105" lon="12.1050644"><ele>866.0</ele><time>2026-04-24T07:15:48.994Z</time></trkpt><trkpt lat="43.6624418" lon="12.1049036"><ele>866.0</ele><time>2026-04-24T07:15:49.994Z</time></trkpt><trkpt lat="43.6625966" lon="12.1048135"><ele>866.0</ele><time>2026-04-24T07:15:50.994Z</time></trkpt><trkpt lat="43.6627598" lon="12.1047992"><ele>866.0</ele><time>2026-04-24T07:15:51.994Z</time></trkpt><trkpt lat="43.6629184" lon="12.1048379"><ele>867.25</ele><time>2026-04-24T07:15:52.994Z</time></trkpt><trkpt lat="43.6629785" lon="12.1050211"><ele>868.5</ele><time>2026-04-24T07:15:53.995Z</time></trkpt><trkpt lat="43.6630153" lon="12.1051894"><ele>869.75</ele><time>2026-04-24T07:15:54.994Z</time></trkpt><trkpt lat="43.6630234" lon="12.1053982"><ele>871.0</ele><time>2026-04-24T07:15:55.994Z</time></trkpt><trkpt lat="43.6630618" lon="12.1056215"><ele>873.6666666666666</ele><time>2026-04-24T07:15:56.994Z</time></trkpt><trkpt lat="43.6631529" lon="12.1058386"><ele>876.3333333333333</ele><time>2026-04-24T07:15:57.994Z</time></trkpt><trkpt lat="43.6632696" lon="12.1060447"><ele>879.0</ele><time>2026-04-24T07:15:58.994Z</time></trkpt><trkpt lat="43.663392" lon="12.106264"><ele>879.0</ele><time>2026-04-24T07:15:59.994Z</time></trkpt><trkpt lat="43.6635173" lon="12.1064965"><ele>879.0</ele><time>2026-04-24T07:16:00.994Z</time></trkpt><trkpt lat="43.6636488" lon="12.1067388"><ele>879.0</ele><time>2026-04-24T07:16:01.995Z</time></trkpt><trkpt lat="43.6637854" lon="12.1069871"><ele>878.0</ele><time>2026-04-24T07:16:02.995Z</time></trkpt><trkpt lat="43.6639369" lon="12.1072312"><ele>877.0</ele><time>2026-04-24T07:16:03.995Z</time></trkpt><trkpt lat="43.6641132" lon="12.1074549"><ele>875.0</ele><time>2026-04-24T07:16:04.994Z</time></trkpt><trkpt lat="43.6643011" lon="12.1076703"><ele>873.0</ele><time>2026-04-24T07:16:05.994Z</time></trkpt><trkpt lat="43.6644945" lon="12.107886"><ele>873.0</ele><time>2026-04-24T07:16:06.994Z</time></trkpt><trkpt lat="43.6646812" lon="12.1081092"><ele>873.0</ele><time>2026-04-24T07:16:07.994Z</time></trkpt><trkpt lat="43.6648514" lon="12.1083452"><ele>873.0</ele><time>2026-04-24T07:16:08.994Z</time></trkpt><trkpt lat="43.6649979" lon="12.1085815"><ele>873.0</ele><time>2026-04-24T07:16:09.994Z</time></trkpt><trkpt lat="43.6651482" lon="12.1087966"><ele>873.0</ele><time>2026-04-24T07:16:10.994Z</time></trkpt><trkpt lat="43.6653251" lon="12.1089762"><ele>881.3333333333333</ele><time>2026-04-24T07:16:11.995Z</time></trkpt><trkpt lat="43.6655199" lon="12.109118"><ele>889.6666666666666</ele><time>2026-04-24T07:16:12.994Z</time></trkpt><trkpt lat="43.6657092" lon="12.1092229"><ele>898.0</ele><time>2026-04-24T07:16:13.995Z</time></trkpt><trkpt lat="43.6658791" lon="12.1093323"><ele>898.0</ele><time>2026-04-24T07:16:14.994Z</time></trkpt><trkpt lat="43.666029" lon="12.1094644"><ele>898.0</ele><time>2026-04-24T07:16:15.994Z</time></trkpt><trkpt lat="43.6661568" lon="12.1096471"><ele>898.0</ele><time>2026-04-24T07:16:16.994Z</time></trkpt><trkpt lat="43.6662542" lon="12.1098824"><ele>897.3333333333333</ele><time>2026-04-24T07:16:17.994Z</time></trkpt><trkpt lat="43.666363" lon="12.1101221"><ele>896.6666666666667</ele><time>2026-04-24T07:16:18.994Z</time></trkpt><trkpt lat="43.6664741" lon="12.1103764"><ele>896.0</ele><time>2026-04-24T07:16:19.994Z</time></trkpt><trkpt lat="43.6665764" lon="12.1106414"><ele>899.3333333333334</ele><time>2026-04-24T07:16:20.994Z</time></trkpt><trkpt lat="43.6666428" lon="12.11093"><ele>902.6666666666667</ele><time>2026-04-24T07:16:21.994Z</time></trkpt><trkpt lat="43.6666599" lon="12.1112289"><ele>906.0</ele><time>2026-04-24T07:16:22.994Z</time></trkpt><trkpt lat="43.6666324" lon="12.1115223"><ele>906.6666666666667</ele><time>2026-04-24T07:16:23.994Z</time></trkpt><trkpt lat="43.6665879" lon="12.1118168"><ele>907.3333333333334</ele><time>2026-04-24T07:16:24.994Z</time></trkpt><trkpt lat="43.6665566" lon="12.1121239"><ele>908.0</ele><time>2026-04-24T07:16:25.995Z</time></trkpt><trkpt lat="43.6665468" lon="12.1124386"><ele>908.0</ele><time>2026-04-24T07:16:26.994Z</time></trkpt><trkpt lat="43.6665505" lon="12.1127528"><ele>908.0</ele><time>2026-04-24T07:16:27.995Z</time></trkpt><trkpt lat="43.6665748" lon="12.1130569"><ele>908.0</ele><time>2026-04-24T07:16:28.995Z</time></trkpt><trkpt lat="43.6666425" lon="12.1133467"><ele>909.5</ele><time>2026-04-24T07:16:29.995Z</time></trkpt><trkpt lat="43.6667566" lon="12.1136174"><ele>911.0</ele><time>2026-04-24T07:16:30.994Z</time></trkpt><trkpt lat="43.6669001" lon="12.1138695"><ele>910.6666666666667</ele><time>2026-04-24T07:16:31.994Z</time></trkpt><trkpt lat="43.6670457" lon="12.1140903"><ele>910.3333333333333</ele><time>2026-04-24T07:16:32.994Z</time></trkpt><trkpt lat="43.6671831" lon="12.1142979"><ele>910.0</ele><time>2026-04-24T07:16:33.995Z</time></trkpt><trkpt lat="43.6673062" lon="12.1144774"><ele>910.0</ele><time>2026-04-24T07:16:34.994Z</time></trkpt><trkpt lat="43.6674265" lon="12.1146159"><ele>910.0</ele><time>2026-04-24T07:16:35.994Z</time></trkpt><trkpt lat="43.6675639" lon="12.1146883"><ele>910.0</ele><time>2026-04-24T07:16:36.994Z</time></trkpt><trkpt lat="43.6677132" lon="12.1146876"><ele>908.0</ele><time>2026-04-24T07:16:37.995Z</time></trkpt><trkpt lat="43.6678617" lon="12.1146214"><ele>906.0</ele><time>2026-04-24T07:16:38.994Z</time></trkpt><trkpt lat="43.668013" lon="12.1145923"><ele>904.0</ele><time>2026-04-24T07:16:39.994Z</time></trkpt><trkpt lat="43.668173" lon="12.1146397"><ele>904.0</ele><time>2026-04-24T07:16:40.995Z</time></trkpt><trkpt lat="43.6683324" lon="12.114734"><ele>904.0</ele><time>2026-04-24T07:16:41.994Z</time></trkpt><trkpt lat="43.6685106" lon="12.1148236"><ele>904.0</ele><time>2026-04-24T07:16:42.994Z</time></trkpt><trkpt lat="43.668713" lon="12.114865"><ele>906.6666666666666</ele><time>2026-04-24T07:16:43.994Z</time></trkpt><trkpt lat="43.6689172" lon="12.1148418"><ele>909.3333333333333</ele><time>2026-04-24T07:16:44.994Z</time></trkpt><trkpt lat="43.6690988" lon="12.1147933"><ele>912.0</ele><time>2026-04-24T07:16:45.995Z</time></trkpt><trkpt lat="43.6692666" lon="12.1147939"><ele>912.0</ele><time>2026-04-24T07:16:46.994Z</time></trkpt><trkpt lat="43.6694205" lon="12.1148705"><ele>912.0</ele><time>2026-04-24T07:16:47.994Z</time></trkpt><trkpt lat="43.6695594" lon="12.1150022"><ele>912.0</ele><time>2026-04-24T07:16:48.994Z</time></trkpt><trkpt lat="43.6697121" lon="12.1151285"><ele>916.3333333333333</ele><time>2026-04-24T07:16:49.994Z</time></trkpt><trkpt lat="43.6698855" lon="12.115195"><ele>920.6666666666666</ele><time>2026-04-24T07:16:50.994Z</time></trkpt><trkpt lat="43.6700529" lon="12.1151883"><ele>925.0</ele><time>2026-04-24T07:16:51.994Z</time></trkpt><trkpt lat="43.6701918" lon="12.1151217"><ele>924.75</ele><time>2026-04-24T07:16:52.994Z</time></trkpt><trkpt lat="43.6703187" lon="12.1150513"><ele>924.5</ele><time>2026-04-24T07:16:53.994Z</time></trkpt><trkpt lat="43.6704507" lon="12.1150581"><ele>924.25</ele><time>2026-04-24T07:16:54.994Z</time></trkpt><trkpt lat="43.6705644" lon="12.1151488"><ele>924.0</ele><time>2026-04-24T07:16:55.994Z</time></trkpt><trkpt lat="43.6706376" lon="12.1153043"><ele>924.0</ele><time>2026-04-24T07:16:56.994Z</time></trkpt><trkpt lat="43.6706837" lon="12.1155042"><ele>924.0</ele><time>2026-04-24T07:16:57.995Z</time></trkpt><trkpt lat="43.6707153" lon="12.1157082"><ele>924.0</ele><time>2026-04-24T07:16:58.994Z</time></trkpt><trkpt lat="43.6707735" lon="12.1158797"><ele>924.0</ele><time>2026-04-24T07:16:59.995Z</time></trkpt><trkpt lat="43.6708687" lon="12.1159956"><ele>924.25</ele><time>2026-04-24T07:17:00.994Z</time></trkpt><trkpt lat="43.6709811" lon="12.1160221"><ele>924.5</ele><time>2026-04-24T07:17:01.995Z</time></trkpt><trkpt lat="43.6711043" lon="12.1159698"><ele>924.75</ele><time>2026-04-24T07:17:02.994Z</time></trkpt><trkpt lat="43.6712332" lon="12.1158617"><ele>925.0</ele><time>2026-04-24T07:17:03.994Z</time></trkpt><trkpt lat="43.6713808" lon="12.1157364"><ele>925.0</ele><time>2026-04-24T07:17:04.994Z</time></trkpt><trkpt lat="43.6715433" lon="12.1156076"><ele>925.0</ele><time>2026-04-24T07:17:05.994Z</time></trkpt><trkpt lat="43.671702" lon="12.1155173"><ele>925.0</ele><time>2026-04-24T07:17:06.994Z</time></trkpt><trkpt lat="43.6718614" lon="12.1154816"><ele>927.3333333333333</ele><time>2026-04-24T07:17:07.994Z</time></trkpt><trkpt lat="43.6720095" lon="12.1155058"><ele>929.6666666666667</ele><time>2026-04-24T07:17:08.995Z</time></trkpt><trkpt lat="43.6721406" lon="12.1156178"><ele>932.0</ele><time>2026-04-24T07:17:09.995Z</time></trkpt><trkpt lat="43.6722508" lon="12.1157838"><ele>935.0</ele><time>2026-04-24T07:17:10.995Z</time></trkpt><trkpt lat="43.6723775" lon="12.1159653"><ele>938.0</ele><time>2026-04-24T07:17:11.994Z</time></trkpt><trkpt lat="43.6725392" lon="12.1161382"><ele>941.0</ele><time>2026-04-24T07:17:12.994Z</time></trkpt><trkpt lat="43.6727141" lon="12.1162894"><ele>940.3333333333334</ele><time>2026-04-24T07:17:13.995Z</time></trkpt><trkpt lat="43.6728923" lon="12.116411"><ele>939.6666666666667</ele><time>2026-04-24T07:17:14.994Z</time></trkpt><trkpt lat="43.6730906" lon="12.1164793"><ele>939.0</ele><time>2026-04-24T07:17:15.994Z</time></trkpt><trkpt lat="43.6733039" lon="12.116471"><ele>939.0</ele><time>2026-04-24T07:17:16.994Z</time></trkpt><trkpt lat="43.6735152" lon="12.1164008"><ele>939.0</ele><time>2026-04-24T07:17:17.994Z</time></trkpt><trkpt lat="43.6737198" lon="12.1163398"><ele>939.0</ele><time>2026-04-24T07:17:18.995Z</time></trkpt><trkpt lat="43.6739322" lon="12.1163081"><ele>940.3333333333333</ele><time>2026-04-24T07:17:19.994Z</time></trkpt><trkpt lat="43.6741437" lon="12.1163274"><ele>941.6666666666666</ele><time>2026-04-24T07:17:20.994Z</time></trkpt><trkpt lat="43.6743537" lon="12.116393"><ele>943.0</ele><time>2026-04-24T07:17:21.994Z</time></trkpt><trkpt lat="43.6745594" lon="12.1164697"><ele>944.0</ele><time>2026-04-24T07:17:22.994Z</time></trkpt><trkpt lat="43.6747654" lon="12.1165542"><ele>945.0</ele><time>2026-04-24T07:17:23.995Z</time></trkpt><trkpt lat="43.6749561" lon="12.1166433"><ele>946.0</ele><time>2026-04-24T07:17:24.994Z</time></trkpt><trkpt lat="43.6751314" lon="12.1167154"><ele>947.3333333333333</ele><time>2026-04-24T07:17:25.994Z</time></trkpt><trkpt lat="43.6753112" lon="12.116745"><ele>948.6666666666667</ele><time>2026-04-24T07:17:26.995Z</time></trkpt><trkpt lat="43.6754946" lon="12.1166665"><ele>950.0</ele><time>2026-04-24T07:17:27.994Z</time></trkpt><trkpt lat="43.6756726" lon="12.11654"><ele>950.0</ele><time>2026-04-24T07:17:28.995Z</time></trkpt><trkpt lat="43.6758521" lon="12.1163989"><ele>950.0</ele><time>2026-04-24T07:17:29.994Z</time></trkpt><trkpt lat="43.6760496" lon="12.1162917"><ele>950.0</ele><time>2026-04-24T07:17:30.994Z</time></trkpt><trkpt lat="43.6762631" lon="12.1162291"><ele>952.5</ele><time>2026-04-24T07:17:31.994Z</time></trkpt><trkpt lat="43.676486" lon="12.1161895"><ele>955.0</ele><time>2026-04-24T07:17:32.994Z</time></trkpt><trkpt lat="43.6767169" lon="12.1161558"><ele>956.5</ele><time>2026-04-24T07:17:33.995Z</time></trkpt><trkpt lat="43.6769548" lon="12.1161303"><ele>958.0</ele><time>2026-04-24T07:17:34.994Z</time></trkpt><trkpt lat="43.6771935" lon="12.1161251"><ele>958.0</ele><time>2026-04-24T07:17:35.994Z</time></trkpt><trkpt lat="43.6774379" lon="12.116141"><ele>958.0</ele><time>2026-04-24T07:17:36.994Z</time></trkpt><trkpt lat="43.6776825" lon="12.1161785"><ele>961.5</ele><time>2026-04-24T07:17:37.994Z</time></trkpt><trkpt lat="43.6779273" lon="12.1162247"><ele>965.0</ele><time>2026-04-24T07:17:38.995Z</time></trkpt><trkpt lat="43.6781515" lon="12.11629"><ele>965.0</ele><time>2026-04-24T07:17:39.994Z</time></trkpt><trkpt lat="43.6783369" lon="12.1163947"><ele>965.0</ele><time>2026-04-24T07:17:40.995Z</time></trkpt><trkpt lat="43.6784965" lon="12.1165109"><ele>965.0</ele><time>2026-04-24T07:17:41.995Z</time></trkpt><trkpt lat="43.678664" lon="12.1165739"><ele>964.3333333333334</ele><time>2026-04-24T07:17:42.995Z</time></trkpt><trkpt lat="43.6788448" lon="12.1165516"><ele>963.6666666666667</ele><time>2026-04-24T07:17:43.994Z</time></trkpt><trkpt lat="43.6790238" lon="12.1164562"><ele>963.0</ele><time>2026-04-24T07:17:44.994Z</time></trkpt><trkpt lat="43.6791987" lon="12.1163236"><ele>963.0</ele><time>2026-04-24T07:17:45.994Z</time></trkpt><trkpt lat="43.6793843" lon="12.1161866"><ele>963.0</ele><time>2026-04-24T07:17:46.994Z</time></trkpt><trkpt lat="43.6795923" lon="12.1160842"><ele>963.0</ele><time>2026-04-24T07:17:47.995Z</time></trkpt><trkpt lat="43.6798094" lon="12.1160462"><ele>964.3333333333333</ele><time>2026-04-24T07:17:48.995Z</time></trkpt><trkpt lat="43.6800223" lon="12.1160941"><ele>965.6666666666666</ele><time>2026-04-24T07:17:49.995Z</time></trkpt><trkpt lat="43.6802329" lon="12.1161933"><ele>967.0</ele><time>2026-04-24T07:17:50.995Z</time></trkpt><trkpt lat="43.6804423" lon="12.1163062"><ele>967.0</ele><time>2026-04-24T07:17:51.995Z</time></trkpt><trkpt lat="43.6806567" lon="12.1164105"><ele>967.0</ele><time>2026-04-24T07:17:52.994Z</time></trkpt><trkpt lat="43.6808797" lon="12.1164813"><ele>969.5</ele><time>2026-04-24T07:17:53.994Z</time></trkpt><trkpt lat="43.6811091" lon="12.1164937"><ele>972.0</ele><time>2026-04-24T07:17:54.994Z</time></trkpt><trkpt lat="43.6813358" lon="12.1164664"><ele>972.0</ele><time>2026-04-24T07:17:55.994Z</time></trkpt><trkpt lat="43.6815488" lon="12.1164356"><ele>972.0</ele><time>2026-04-24T07:17:56.994Z</time></trkpt><trkpt lat="43.6817482" lon="12.1164114"><ele>972.0</ele><time>2026-04-24T07:17:57.994Z</time></trkpt><trkpt lat="43.681932" lon="12.1163923"><ele>974.25</ele><time>2026-04-24T07:17:58.994Z</time></trkpt><trkpt lat="43.6820986" lon="12.1163746"><ele>976.5</ele><time>2026-04-24T07:17:59.994Z</time></trkpt><trkpt lat="43.6822445" lon="12.1163676"><ele>978.75</ele><time>2026-04-24T07:18:00.994Z</time></trkpt><trkpt lat="43.6823625" lon="12.1163701"><ele>981.0</ele><time>2026-04-24T07:18:01.994Z</time></trkpt><trkpt lat="43.6824567" lon="12.116378"><ele>981.0</ele><time>2026-04-24T07:18:02.994Z</time></trkpt><trkpt lat="43.6825289" lon="12.1164024"><ele>980.9999999999999</ele><time>2026-04-24T07:18:03.995Z</time></trkpt><trkpt lat="43.6826522" lon="12.116386"><ele>980.9999999999999</ele><time>2026-04-24T07:18:05.994Z</time></trkpt><trkpt lat="43.6827201" lon="12.1163051"><ele>981.0</ele><time>2026-04-24T07:18:06.996Z</time></trkpt><trkpt lat="43.6828068" lon="12.1161932"><ele>981.0</ele><time>2026-04-24T07:18:07.994Z</time></trkpt><trkpt lat="43.6829183" lon="12.1160665"><ele>983.6666666666667</ele><time>2026-04-24T07:18:08.995Z</time></trkpt><trkpt lat="43.6830402" lon="12.1159296"><ele>986.3333333333334</ele><time>2026-04-24T07:18:09.994Z</time></trkpt><trkpt lat="43.6831787" lon="12.1157771"><ele>989.0</ele><time>2026-04-24T07:18:10.995Z</time></trkpt><trkpt lat="43.6833239" lon="12.1156195"><ele>989.6666666666667</ele><time>2026-04-24T07:18:11.994Z</time></trkpt><trkpt lat="43.6834827" lon="12.1154551"><ele>990.3333333333333</ele><time>2026-04-24T07:18:12.994Z</time></trkpt><trkpt lat="43.6836532" lon="12.1152821"><ele>991.0</ele><time>2026-04-24T07:18:13.994Z</time></trkpt><trkpt lat="43.6838263" lon="12.1150978"><ele>992.0</ele><time>2026-04-24T07:18:14.995Z</time></trkpt><trkpt lat="43.6840012" lon="12.1149052"><ele>993.0</ele><time>2026-04-24T07:18:15.995Z</time></trkpt><trkpt lat="43.6841877" lon="12.1147262"><ele>993.0</ele><time>2026-04-24T07:18:16.996Z</time></trkpt><trkpt lat="43.684394" lon="12.1145842"><ele>993.0</ele><time>2026-04-24T07:18:17.994Z</time></trkpt><trkpt lat="43.6846167" lon="12.1144798"><ele>997.5</ele><time>2026-04-24T07:18:18.994Z</time></trkpt><trkpt lat="43.6848485" lon="12.1143989"><ele>1002.0</ele><time>2026-04-24T07:18:19.994Z</time></trkpt><trkpt lat="43.6850861" lon="12.1143175"><ele>1005.0</ele><time>2026-04-24T07:18:20.994Z</time></trkpt><trkpt lat="43.6853294" lon="12.1142361"><ele>1008.0</ele><time>2026-04-24T07:18:21.995Z</time></trkpt><trkpt lat="43.6855802" lon="12.1141696"><ele>1008.0</ele><time>2026-04-24T07:18:22.994Z</time></trkpt><trkpt lat="43.6858405" lon="12.1141404"><ele>1008.0</ele><time>2026-04-24T07:18:23.994Z</time></trkpt><trkpt lat="43.6861057" lon="12.1141338"><ele>1009.5</ele><time>2026-04-24T07:18:24.994Z</time></trkpt><trkpt lat="43.6863744" lon="12.1141336"><ele>1011.0</ele><time>2026-04-24T07:18:25.994Z</time></trkpt><trkpt lat="43.6866476" lon="12.1141375"><ele>1011.0</ele><time>2026-04-24T07:18:26.994Z</time></trkpt><trkpt lat="43.6869251" lon="12.1141382"><ele>1011.0</ele><time>2026-04-24T07:18:27.994Z</time></trkpt><trkpt lat="43.6871999" lon="12.1141353"><ele>1016.0</ele><time>2026-04-24T07:18:28.994Z</time></trkpt><trkpt lat="43.6874725" lon="12.1141325"><ele>1021.0</ele><time>2026-04-24T07:18:29.994Z</time></trkpt><trkpt lat="43.6877284" lon="12.1141295"><ele>1028.0</ele><time>2026-04-24T07:18:30.994Z</time></trkpt><trkpt lat="43.6879623" lon="12.1141273"><ele>1035.0</ele><time>2026-04-24T07:18:31.995Z</time></trkpt><trkpt lat="43.6881791" lon="12.1141252"><ele>1035.0</ele><time>2026-04-24T07:18:32.995Z</time></trkpt><trkpt lat="43.6883676" lon="12.1141189"><ele>1035.0</ele><time>2026-04-24T07:18:33.994Z</time></trkpt><trkpt lat="43.6885142" lon="12.1140992"><ele>1035.0</ele><time>2026-04-24T07:18:34.994Z</time></trkpt><trkpt lat="43.6886459" lon="12.1140445"><ele>1037.0</ele><time>2026-04-24T07:18:35.995Z</time></trkpt><trkpt lat="43.6887614" lon="12.1139223"><ele>1039.0</ele><time>2026-04-24T07:18:36.994Z</time></trkpt><trkpt lat="43.6888619" lon="12.1137518"><ele>1041.0</ele><time>2026-04-24T07:18:37.995Z</time></trkpt><trkpt lat="43.6889549" lon="12.1135517"><ele>1041.0</ele><time>2026-04-24T07:18:38.995Z</time></trkpt><trkpt lat="43.6890363" lon="12.1133272"><ele>1041.0</ele><time>2026-04-24T07:18:39.994Z</time></trkpt><trkpt lat="43.6890908" lon="12.1130765"><ele>1041.0</ele><time>2026-04-24T07:18:40.994Z</time></trkpt><trkpt lat="43.689115" lon="12.1128071"><ele>1040.3333333333333</ele><time>2026-04-24T07:18:41.994Z</time></trkpt><trkpt lat="43.6891173" lon="12.1125287"><ele>1039.6666666666665</ele><time>2026-04-24T07:18:42.995Z</time></trkpt><trkpt lat="43.6891187" lon="12.1122474"><ele>1039.0</ele><time>2026-04-24T07:18:43.994Z</time></trkpt><trkpt lat="43.6891278" lon="12.1119704"><ele>1039.3333333333333</ele><time>2026-04-24T07:18:44.994Z</time></trkpt><trkpt lat="43.6891544" lon="12.1117019"><ele>1039.6666666666667</ele><time>2026-04-24T07:18:45.994Z</time></trkpt><trkpt lat="43.6892038" lon="12.111435"><ele>1040.0</ele><time>2026-04-24T07:18:46.994Z</time></trkpt><trkpt lat="43.6892813" lon="12.1111699"><ele>1040.0</ele><time>2026-04-24T07:18:47.995Z</time></trkpt><trkpt lat="43.6893821" lon="12.110901"><ele>1040.0</ele><time>2026-04-24T07:18:48.994Z</time></trkpt><trkpt lat="43.689494" lon="12.1106275"><ele>1040.0</ele><time>2026-04-24T07:18:49.994Z</time></trkpt><trkpt lat="43.6896087" lon="12.1103466"><ele>1039.5</ele><time>2026-04-24T07:18:50.994Z</time></trkpt><trkpt lat="43.6897318" lon="12.1100642"><ele>1039.0</ele><time>2026-04-24T07:18:51.995Z</time></trkpt><trkpt lat="43.6898628" lon="12.1097907"><ele>1039.0</ele><time>2026-04-24T07:18:52.994Z</time></trkpt><trkpt lat="43.6900058" lon="12.10953"><ele>1039.0</ele><time>2026-04-24T07:18:53.995Z</time></trkpt><trkpt lat="43.6901494" lon="12.1092783"><ele>1033.0</ele><time>2026-04-24T07:18:54.995Z</time></trkpt><trkpt lat="43.6902917" lon="12.1090323"><ele>1027.0</ele><time>2026-04-24T07:18:55.994Z</time></trkpt><trkpt lat="43.6904335" lon="12.108773"><ele>1027.0</ele><time>2026-04-24T07:18:56.994Z</time></trkpt><trkpt lat="43.6905543" lon="12.1084893"><ele>1027.0</ele><time>2026-04-24T07:18:57.995Z</time></trkpt><trkpt lat="43.6906585" lon="12.108184"><ele>1028.0</ele><time>2026-04-24T07:18:58.994Z</time></trkpt><trkpt lat="43.6907535" lon="12.107883"><ele>1029.0</ele><time>2026-04-24T07:18:59.994Z</time></trkpt><trkpt lat="43.6908451" lon="12.1075849"><ele>1033.5</ele><time>2026-04-24T07:19:00.994Z</time></trkpt><trkpt lat="43.6909373" lon="12.1072946"><ele>1038.0</ele><time>2026-04-24T07:19:01.994Z</time></trkpt><trkpt lat="43.691028" lon="12.1070117"><ele>1030.3333333333333</ele><time>2026-04-24T07:19:02.994Z</time></trkpt><trkpt lat="43.6911222" lon="12.1067398"><ele>1022.6666666666666</ele><time>2026-04-24T07:19:03.994Z</time></trkpt><trkpt lat="43.6912238" lon="12.1064852"><ele>1015.0</ele><time>2026-04-24T07:19:04.995Z</time></trkpt><trkpt lat="43.6913538" lon="12.1062531"><ele>1015.0</ele><time>2026-04-24T07:19:05.995Z</time></trkpt><trkpt lat="43.6915198" lon="12.1060446"><ele>1015.0</ele><time>2026-04-24T07:19:06.994Z</time></trkpt><trkpt lat="43.6916962" lon="12.1058437"><ele>1017.0</ele><time>2026-04-24T07:19:07.995Z</time></trkpt><trkpt lat="43.6918855" lon="12.1056426"><ele>1019.0</ele><time>2026-04-24T07:19:08.994Z</time></trkpt><trkpt lat="43.6920824" lon="12.105437"><ele>1009.5</ele><time>2026-04-24T07:19:09.994Z</time></trkpt><trkpt lat="43.6922807" lon="12.1052266"><ele>1000.0</ele><time>2026-04-24T07:19:10.994Z</time></trkpt><trkpt lat="43.6924761" lon="12.1050153"><ele>996.5</ele><time>2026-04-24T07:19:11.995Z</time></trkpt><trkpt lat="43.692672" lon="12.104809"><ele>993.0</ele><time>2026-04-24T07:19:12.994Z</time></trkpt><trkpt lat="43.6928677" lon="12.104603"><ele>989.0</ele><time>2026-04-24T07:19:13.995Z</time></trkpt><trkpt lat="43.6930627" lon="12.1043939"><ele>985.0</ele><time>2026-04-24T07:19:14.994Z</time></trkpt><trkpt lat="43.6932596" lon="12.1041895"><ele>980.5</ele><time>2026-04-24T07:19:15.994Z</time></trkpt><trkpt lat="43.693456" lon="12.1039997"><ele>976.0</ele><time>2026-04-24T07:19:16.994Z</time></trkpt><trkpt lat="43.6936588" lon="12.1038373"><ele>976.0</ele><time>2026-04-24T07:19:17.995Z</time></trkpt><trkpt lat="43.6938762" lon="12.1037104"><ele>976.0</ele><time>2026-04-24T07:19:18.995Z</time></trkpt><trkpt lat="43.6941091" lon="12.1036258"><ele>976.0</ele><time>2026-04-24T07:19:19.994Z</time></trkpt><trkpt lat="43.6943503" lon="12.1035679"><ele>976.0</ele><time>2026-04-24T07:19:20.994Z</time></trkpt><trkpt lat="43.6945944" lon="12.1035154"><ele>977.0</ele><time>2026-04-24T07:19:21.995Z</time></trkpt><trkpt lat="43.6948324" lon="12.1034659"><ele>978.0</ele><time>2026-04-24T07:19:22.994Z</time></trkpt><trkpt lat="43.6950647" lon="12.1034204"><ele>976.0</ele><time>2026-04-24T07:19:23.994Z</time></trkpt><trkpt lat="43.6952917" lon="12.1033854"><ele>974.0</ele><time>2026-04-24T07:19:24.994Z</time></trkpt><trkpt lat="43.6955131" lon="12.1033768"><ele>974.0</ele><time>2026-04-24T07:19:25.994Z</time></trkpt><trkpt lat="43.6957288" lon="12.1033881"><ele>974.0</ele><time>2026-04-24T07:19:26.994Z</time></trkpt><trkpt lat="43.6959336" lon="12.1033959"><ele>974.0</ele><time>2026-04-24T07:19:27.994Z</time></trkpt><trkpt lat="43.6961159" lon="12.1033988"><ele>971.0</ele><time>2026-04-24T07:19:28.994Z</time></trkpt><trkpt lat="43.6962704" lon="12.1033829"><ele>968.0</ele><time>2026-04-24T07:19:29.994Z</time></trkpt><trkpt lat="43.6964131" lon="12.1033136"><ele>965.0</ele><time>2026-04-24T07:19:30.994Z</time></trkpt><trkpt lat="43.6965505" lon="12.1031796"><ele>965.0</ele><time>2026-04-24T07:19:31.995Z</time></trkpt><trkpt lat="43.6966839" lon="12.1030147"><ele>965.0</ele><time>2026-04-24T07:19:32.994Z</time></trkpt><trkpt lat="43.6968231" lon="12.1028359"><ele>965.0</ele><time>2026-04-24T07:19:33.994Z</time></trkpt><trkpt lat="43.6969723" lon="12.1026486"><ele>959.6666666666667</ele><time>2026-04-24T07:19:34.994Z</time></trkpt><trkpt lat="43.6971252" lon="12.102458"><ele>954.3333333333333</ele><time>2026-04-24T07:19:35.994Z</time></trkpt><trkpt lat="43.6972704" lon="12.1022592"><ele>949.0</ele><time>2026-04-24T07:19:36.994Z</time></trkpt><trkpt lat="43.6974081" lon="12.1020363"><ele>949.0</ele><time>2026-04-24T07:19:37.994Z</time></trkpt><trkpt lat="43.6975313" lon="12.1017937"><ele>949.0</ele><time>2026-04-24T07:19:38.994Z</time></trkpt><trkpt lat="43.6976351" lon="12.1015482"><ele>949.0</ele><time>2026-04-24T07:19:39.994Z</time></trkpt><trkpt lat="43.6977073" lon="12.1012797"><ele>951.0</ele><time>2026-04-24T07:19:40.996Z</time></trkpt><trkpt lat="43.6977503" lon="12.1009818"><ele>953.0</ele><time>2026-04-24T07:19:41.995Z</time></trkpt><trkpt lat="43.6977791" lon="12.1006692"><ele>955.0</ele><time>2026-04-24T07:19:42.994Z</time></trkpt><trkpt lat="43.6978092" lon="12.1003598"><ele>948.0</ele><time>2026-04-24T07:19:43.994Z</time></trkpt><trkpt lat="43.6978431" lon="12.1000623"><ele>941.0</ele><time>2026-04-24T07:19:44.994Z</time></trkpt><trkpt lat="43.6978726" lon="12.0997721"><ele>934.0</ele><time>2026-04-24T07:19:45.994Z</time></trkpt><trkpt lat="43.6979046" lon="12.0994914"><ele>934.0</ele><time>2026-04-24T07:19:46.994Z</time></trkpt><trkpt lat="43.6979485" lon="12.0992225"><ele>934.0</ele><time>2026-04-24T07:19:47.995Z</time></trkpt><trkpt lat="43.6980181" lon="12.0989741"><ele>934.0</ele><time>2026-04-24T07:19:48.994Z</time></trkpt><trkpt lat="43.6981085" lon="12.098748"><ele>933.0</ele><time>2026-04-24T07:19:49.994Z</time></trkpt><trkpt lat="43.6982011" lon="12.0985292"><ele>932.0</ele><time>2026-04-24T07:19:50.995Z</time></trkpt><trkpt lat="43.6982862" lon="12.0983121"><ele>931.0</ele><time>2026-04-24T07:19:51.994Z</time></trkpt><trkpt lat="43.6983504" lon="12.0980913"><ele>931.0</ele><time>2026-04-24T07:19:52.995Z</time></trkpt><trkpt lat="43.6983724" lon="12.09786"><ele>931.0</ele><time>2026-04-24T07:19:53.994Z</time></trkpt><trkpt lat="43.6983466" lon="12.0976166"><ele>931.0</ele><time>2026-04-24T07:19:54.994Z</time></trkpt><trkpt lat="43.6982728" lon="12.0973859"><ele>931.0</ele><time>2026-04-24T07:19:55.995Z</time></trkpt><trkpt lat="43.6981563" lon="12.0971676"><ele>931.0</ele><time>2026-04-24T07:19:56.994Z</time></trkpt><trkpt lat="43.6980175" lon="12.0969503"><ele>931.0</ele><time>2026-04-24T07:19:57.994Z</time></trkpt><trkpt lat="43.6978683" lon="12.0967264"><ele>926.0</ele><time>2026-04-24T07:19:58.994Z</time></trkpt><trkpt lat="43.6977069" lon="12.0964968"><ele>921.0</ele><time>2026-04-24T07:19:59.994Z</time></trkpt><trkpt lat="43.6975445" lon="12.0962585"><ele>921.0</ele><time>2026-04-24T07:20:00.994Z</time></trkpt><trkpt lat="43.6973906" lon="12.0960083"><ele>921.0</ele><time>2026-04-24T07:20:01.994Z</time></trkpt><trkpt lat="43.6972489" lon="12.0957403"><ele>925.0</ele><time>2026-04-24T07:20:02.994Z</time></trkpt><trkpt lat="43.6971144" lon="12.0954615"><ele>929.0</ele><time>2026-04-24T07:20:03.994Z</time></trkpt><trkpt lat="43.6969799" lon="12.0951754"><ele>920.5</ele><time>2026-04-24T07:20:04.994Z</time></trkpt><trkpt lat="43.6968438" lon="12.0948867"><ele>912.0</ele><time>2026-04-24T07:20:05.994Z</time></trkpt><trkpt lat="43.6967055" lon="12.0945918"><ele>912.0</ele><time>2026-04-24T07:20:06.994Z</time></trkpt><trkpt lat="43.6965661" lon="12.0942921"><ele>912.0</ele><time>2026-04-24T07:20:07.994Z</time></trkpt><trkpt lat="43.6964279" lon="12.094002"><ele>912.0</ele><time>2026-04-24T07:20:08.995Z</time></trkpt><trkpt lat="43.6962967" lon="12.0937238"><ele>912.0</ele><time>2026-04-24T07:20:09.995Z</time></trkpt><trkpt lat="43.6961735" lon="12.0934663"><ele>908.0</ele><time>2026-04-24T07:20:10.994Z</time></trkpt><trkpt lat="43.6960609" lon="12.093227"><ele>904.0</ele><time>2026-04-24T07:20:11.994Z</time></trkpt><trkpt lat="43.6959552" lon="12.0930115"><ele>900.0</ele><time>2026-04-24T07:20:12.995Z</time></trkpt><trkpt lat="43.6958414" lon="12.092821"><ele>900.0</ele><time>2026-04-24T07:20:13.994Z</time></trkpt><trkpt lat="43.6956965" lon="12.0926656"><ele>900.0</ele><time>2026-04-24T07:20:14.995Z</time></trkpt><trkpt lat="43.6955381" lon="12.0925514"><ele>900.0</ele><time>2026-04-24T07:20:15.995Z</time></trkpt><trkpt lat="43.6953876" lon="12.0924738"><ele>896.0</ele><time>2026-04-24T07:20:16.994Z</time></trkpt><trkpt lat="43.6952407" lon="12.0924386"><ele>892.0</ele><time>2026-04-24T07:20:17.995Z</time></trkpt><trkpt lat="43.6950923" lon="12.0924662"><ele>888.0</ele><time>2026-04-24T07:20:18.994Z</time></trkpt><trkpt lat="43.6949627" lon="12.0925459"><ele>884.0</ele><time>2026-04-24T07:20:19.995Z</time></trkpt><trkpt lat="43.6948503" lon="12.0926913"><ele>884.0</ele><time>2026-04-24T07:20:20.994Z</time></trkpt><trkpt lat="43.6947512" lon="12.0928947"><ele>884.0</ele><time>2026-04-24T07:20:21.994Z</time></trkpt><trkpt lat="43.694655" lon="12.0931194"><ele>884.0</ele><time>2026-04-24T07:20:22.994Z</time></trkpt><trkpt lat="43.6945525" lon="12.0933743"><ele>883.6666666666667</ele><time>2026-04-24T07:20:23.994Z</time></trkpt><trkpt lat="43.6944495" lon="12.0936184"><ele>883.3333333333333</ele><time>2026-04-24T07:20:24.995Z</time></trkpt><trkpt lat="43.6943338" lon="12.0938557"><ele>883.0</ele><time>2026-04-24T07:20:25.995Z</time></trkpt><trkpt lat="43.6941949" lon="12.094069"><ele>878.3333333333333</ele><time>2026-04-24T07:20:26.995Z</time></trkpt><trkpt lat="43.6940436" lon="12.0942609"><ele>873.6666666666667</ele><time>2026-04-24T07:20:27.995Z</time></trkpt><trkpt lat="43.6938909" lon="12.0944349"><ele>869.0</ele><time>2026-04-24T07:20:28.995Z</time></trkpt><trkpt lat="43.6937379" lon="12.0945943"><ele>869.0</ele><time>2026-04-24T07:20:29.994Z</time></trkpt><trkpt lat="43.6935926" lon="12.0947215"><ele>869.0</ele><time>2026-04-24T07:20:30.994Z</time></trkpt><trkpt lat="43.6934481" lon="12.0948276"><ele>869.0</ele><time>2026-04-24T07:20:31.994Z</time></trkpt><trkpt lat="43.6932783" lon="12.094809"><ele>865.3333333333334</ele><time>2026-04-24T07:20:32.994Z</time></trkpt><trkpt lat="43.6931166" lon="12.0947697"><ele>861.6666666666667</ele><time>2026-04-24T07:20:33.994Z</time></trkpt><trkpt lat="43.6929549" lon="12.0946679"><ele>858.0</ele><time>2026-04-24T07:20:34.995Z</time></trkpt><trkpt lat="43.692794" lon="12.09452"><ele>857.3333333333333</ele><time>2026-04-24T07:20:35.995Z</time></trkpt><trkpt lat="43.6926295" lon="12.0943447"><ele>856.6666666666666</ele><time>2026-04-24T07:20:36.994Z</time></trkpt><trkpt lat="43.692456" lon="12.0941582"><ele>856.0</ele><time>2026-04-24T07:20:37.995Z</time></trkpt><trkpt lat="43.6922777" lon="12.0939662"><ele>854.0</ele><time>2026-04-24T07:20:38.994Z</time></trkpt><trkpt lat="43.6920987" lon="12.0937712"><ele>852.0</ele><time>2026-04-24T07:20:39.994Z</time></trkpt><trkpt lat="43.6919288" lon="12.0935859"><ele>850.0</ele><time>2026-04-24T07:20:40.994Z</time></trkpt><trkpt lat="43.6917628" lon="12.0934142"><ele>844.6666666666666</ele><time>2026-04-24T07:20:41.994Z</time></trkpt><trkpt lat="43.6916037" lon="12.0932473"><ele>839.3333333333333</ele><time>2026-04-24T07:20:42.994Z</time></trkpt><trkpt lat="43.6914485" lon="12.0930895"><ele>834.0</ele><time>2026-04-24T07:20:43.994Z</time></trkpt><trkpt lat="43.6912881" lon="12.0929541"><ele>834.0</ele><time>2026-04-24T07:20:44.995Z</time></trkpt><trkpt lat="43.6911097" lon="12.0928648"><ele>834.0</ele><time>2026-04-24T07:20:45.994Z</time></trkpt><trkpt lat="43.690929" lon="12.0928182"><ele>834.0</ele><time>2026-04-24T07:20:46.994Z</time></trkpt><trkpt lat="43.6907543" lon="12.0928033"><ele>835.0</ele><time>2026-04-24T07:20:47.994Z</time></trkpt><trkpt lat="43.6905941" lon="12.0927845"><ele>836.0</ele><time>2026-04-24T07:20:48.994Z</time></trkpt><trkpt lat="43.6904591" lon="12.0927465"><ele>837.0</ele><time>2026-04-24T07:20:49.994Z</time></trkpt><trkpt lat="43.6903446" lon="12.0926721"><ele>838.0</ele><time>2026-04-24T07:20:50.994Z</time></trkpt><trkpt lat="43.6902642" lon="12.0925623"><ele>839.2</ele><time>2026-04-24T07:20:51.994Z</time></trkpt><trkpt lat="43.690235" lon="12.0924304"><ele>840.4</ele><time>2026-04-24T07:20:52.994Z</time></trkpt><trkpt lat="43.6902603" lon="12.0923056"><ele>841.6</ele><time>2026-04-24T07:20:53.994Z</time></trkpt><trkpt lat="43.6903408" lon="12.0922109"><ele>842.8000000000001</ele><time>2026-04-24T07:20:54.994Z</time></trkpt><trkpt lat="43.6904554" lon="12.0921804"><ele>844.0</ele><time>2026-04-24T07:20:55.994Z</time></trkpt><trkpt lat="43.6905893" lon="12.092199"><ele>836.3333333333333</ele><time>2026-04-24T07:20:56.995Z</time></trkpt><trkpt lat="43.6907469" lon="12.0922353"><ele>828.6666666666667</ele><time>2026-04-24T07:20:57.994Z</time></trkpt><trkpt lat="43.6909214" lon="12.0922764"><ele>821.0</ele><time>2026-04-24T07:20:58.994Z</time></trkpt><trkpt lat="43.6911028" lon="12.0923204"><ele>821.0</ele><time>2026-04-24T07:20:59.994Z</time></trkpt><trkpt lat="43.6912723" lon="12.0923488"><ele>821.0</ele><time>2026-04-24T07:21:00.995Z</time></trkpt><trkpt lat="43.6914388" lon="12.0923435"><ele>821.0</ele><time>2026-04-24T07:21:01.994Z</time></trkpt><trkpt lat="43.6916077" lon="12.0922748"><ele>821.0</ele><time>2026-04-24T07:21:02.994Z</time></trkpt><trkpt lat="43.6917716" lon="12.092145"><ele>821.0</ele><time>2026-04-24T07:21:03.994Z</time></trkpt><trkpt lat="43.691932" lon="12.09198"><ele>821.0</ele><time>2026-04-24T07:21:04.994Z</time></trkpt><trkpt lat="43.6920838" lon="12.0918185"><ele>819.6666666666667</ele><time>2026-04-24T07:21:05.994Z</time></trkpt><trkpt lat="43.6922303" lon="12.0916655"><ele>818.3333333333333</ele><time>2026-04-24T07:21:06.994Z</time></trkpt><trkpt lat="43.692365" lon="12.0915237"><ele>817.0</ele><time>2026-04-24T07:21:07.994Z</time></trkpt><trkpt lat="43.6924893" lon="12.0913717"><ele>817.0</ele><time>2026-04-24T07:21:08.994Z</time></trkpt><trkpt lat="43.6925744" lon="12.0911877"><ele>817.0</ele><time>2026-04-24T07:21:09.994Z</time></trkpt><trkpt lat="43.6926328" lon="12.0909781"><ele>817.0</ele><time>2026-04-24T07:21:10.994Z</time></trkpt><trkpt lat="43.6926787" lon="12.0907405"><ele>819.6666666666666</ele><time>2026-04-24T07:21:11.994Z</time></trkpt><trkpt lat="43.6927213" lon="12.0904896"><ele>822.3333333333333</ele><time>2026-04-24T07:21:12.994Z</time></trkpt><trkpt lat="43.6927572" lon="12.0902343"><ele>825.0</ele><time>2026-04-24T07:21:13.994Z</time></trkpt><trkpt lat="43.6927906" lon="12.0899886"><ele>821.3333333333333</ele><time>2026-04-24T07:21:14.995Z</time></trkpt><trkpt lat="43.6928219" lon="12.0897522"><ele>817.6666666666666</ele><time>2026-04-24T07:21:15.994Z</time></trkpt><trkpt lat="43.6928536" lon="12.0895175"><ele>814.0</ele><time>2026-04-24T07:21:16.994Z</time></trkpt><trkpt lat="43.6928872" lon="12.0892792"><ele>810.3333333333333</ele><time>2026-04-24T07:21:17.994Z</time></trkpt><trkpt lat="43.6929292" lon="12.0890408"><ele>806.6666666666667</ele><time>2026-04-24T07:21:18.995Z</time></trkpt><trkpt lat="43.6929986" lon="12.0888103"><ele>803.0</ele><time>2026-04-24T07:21:19.994Z</time></trkpt><trkpt lat="43.6931013" lon="12.0885864"><ele>803.0</ele><time>2026-04-24T07:21:20.994Z</time></trkpt><trkpt lat="43.6932194" lon="12.0883676"><ele>803.0</ele><time>2026-04-24T07:21:21.994Z</time></trkpt><trkpt lat="43.6933441" lon="12.0881416"><ele>803.0</ele><time>2026-04-24T07:21:22.994Z</time></trkpt><trkpt lat="43.6934655" lon="12.0878981"><ele>802.6666666666667</ele><time>2026-04-24T07:21:23.995Z</time></trkpt><trkpt lat="43.6935685" lon="12.0876383"><ele>802.3333333333333</ele><time>2026-04-24T07:21:24.994Z</time></trkpt><trkpt lat="43.6936555" lon="12.0873808"><ele>802.0</ele><time>2026-04-24T07:21:25.995Z</time></trkpt><trkpt lat="43.693732" lon="12.0871457"><ele>802.0</ele><time>2026-04-24T07:21:26.994Z</time></trkpt><trkpt lat="43.693798" lon="12.0869386"><ele>802.0</ele><time>2026-04-24T07:21:27.995Z</time></trkpt><trkpt lat="43.6938548" lon="12.0867568"><ele>802.0</ele><time>2026-04-24T07:21:28.994Z</time></trkpt><trkpt lat="43.693894" lon="12.0865912"><ele>802.0</ele><time>2026-04-24T07:21:29.994Z</time></trkpt><trkpt lat="43.6938863" lon="12.0864317"><ele>797.8</ele><time>2026-04-24T07:21:30.994Z</time></trkpt><trkpt lat="43.6938278" lon="12.0863062"><ele>793.6</ele><time>2026-04-24T07:21:31.994Z</time></trkpt><trkpt lat="43.6937342" lon="12.0862422"><ele>789.4</ele><time>2026-04-24T07:21:32.995Z</time></trkpt><trkpt lat="43.693633" lon="12.0862552"><ele>785.1999999999999</ele><time>2026-04-24T07:21:33.995Z</time></trkpt><trkpt lat="43.6935412" lon="12.0863454"><ele>781.0</ele><time>2026-04-24T07:21:34.994Z</time></trkpt><trkpt lat="43.6934622" lon="12.0864927"><ele>783.3333333333333</ele><time>2026-04-24T07:21:35.995Z</time></trkpt><trkpt lat="43.6933865" lon="12.0866934"><ele>785.6666666666667</ele><time>2026-04-24T07:21:36.994Z</time></trkpt><trkpt lat="43.693294" lon="12.0869152"><ele>788.0</ele><time>2026-04-24T07:21:37.994Z</time></trkpt><trkpt lat="43.6931973" lon="12.0871593"><ele>788.0</ele><time>2026-04-24T07:21:38.994Z</time></trkpt><trkpt lat="43.693105" lon="12.087392"><ele>788.0</ele><time>2026-04-24T07:21:39.994Z</time></trkpt><trkpt lat="43.693018" lon="12.0876111"><ele>788.0</ele><time>2026-04-24T07:21:40.994Z</time></trkpt><trkpt lat="43.6929297" lon="12.0878039"><ele>786.5</ele><time>2026-04-24T07:21:41.995Z</time></trkpt><trkpt lat="43.6928393" lon="12.0879363"><ele>785.0</ele><time>2026-04-24T07:21:42.995Z</time></trkpt><trkpt lat="43.6927167" lon="12.0880066"><ele>783.5</ele><time>2026-04-24T07:21:43.994Z</time></trkpt><trkpt lat="43.6925839" lon="12.0880083"><ele>782.0</ele><time>2026-04-24T07:21:44.994Z</time></trkpt><trkpt lat="43.6924339" lon="12.0879619"><ele>782.0</ele><time>2026-04-24T07:21:45.994Z</time></trkpt><trkpt lat="43.6922638" lon="12.0878969"><ele>782.0</ele><time>2026-04-24T07:21:46.995Z</time></trkpt><trkpt lat="43.6920839" lon="12.0878177"><ele>782.0</ele><time>2026-04-24T07:21:47.994Z</time></trkpt><trkpt lat="43.691913" lon="12.0877425"><ele>781.6666666666667</ele><time>2026-04-24T07:21:48.994Z</time></trkpt><trkpt lat="43.6917443" lon="12.0876899"><ele>781.3333333333333</ele><time>2026-04-24T07:21:49.995Z</time></trkpt><trkpt lat="43.6915785" lon="12.0876654"><ele>781.0</ele><time>2026-04-24T07:21:50.994Z</time></trkpt><trkpt lat="43.6914323" lon="12.0876334"><ele>781.0</ele><time>2026-04-24T07:21:51.994Z</time></trkpt><trkpt lat="43.6913083" lon="12.0875711"><ele>781.0</ele><time>2026-04-24T07:21:52.994Z</time></trkpt><trkpt lat="43.6912092" lon="12.0874608"><ele>781.0</ele><time>2026-04-24T07:21:53.994Z</time></trkpt><trkpt lat="43.6911607" lon="12.0873089"><ele>781.0</ele><time>2026-04-24T07:21:54.994Z</time></trkpt><trkpt lat="43.6911748" lon="12.087152"><ele>778.75</ele><time>2026-04-24T07:21:55.995Z</time></trkpt><trkpt lat="43.691251" lon="12.0870138"><ele>776.5</ele><time>2026-04-24T07:21:56.994Z</time></trkpt><trkpt lat="43.6913769" lon="12.0869166"><ele>774.25</ele><time>2026-04-24T07:21:57.994Z</time></trkpt><trkpt lat="43.6915275" lon="12.0868428"><ele>772.0</ele><time>2026-04-24T07:21:58.994Z</time></trkpt><trkpt lat="43.6916988" lon="12.0867611"><ele>772.0</ele><time>2026-04-24T07:21:59.994Z</time></trkpt><trkpt lat="43.6918799" lon="12.0866751"><ele>772.0</ele><time>2026-04-24T07:22:00.994Z</time></trkpt><trkpt lat="43.6920619" lon="12.0865892"><ele>772.0</ele><time>2026-04-24T07:22:01.994Z</time></trkpt><trkpt lat="43.692234" lon="12.0865089"><ele>768.6666666666666</ele><time>2026-04-24T07:22:02.994Z</time></trkpt><trkpt lat="43.6923829" lon="12.0864243"><ele>765.3333333333333</ele><time>2026-04-24T07:22:03.994Z</time></trkpt><trkpt lat="43.6925041" lon="12.086316"><ele>762.0</ele><time>2026-04-24T07:22:04.995Z</time></trkpt><trkpt lat="43.692596" lon="12.086143"><ele>762.0</ele><time>2026-04-24T07:22:05.994Z</time></trkpt><trkpt lat="43.6926569" lon="12.0859279"><ele>762.0</ele><time>2026-04-24T07:22:06.994Z</time></trkpt><trkpt lat="43.6927117" lon="12.0856819"><ele>762.0</ele><time>2026-04-24T07:22:07.994Z</time></trkpt><trkpt lat="43.6927701" lon="12.085421"><ele>762.3333333333334</ele><time>2026-04-24T07:22:08.994Z</time></trkpt><trkpt lat="43.6928307" lon="12.0851522"><ele>762.6666666666667</ele><time>2026-04-24T07:22:09.994Z</time></trkpt><trkpt lat="43.6928906" lon="12.0848797"><ele>763.0</ele><time>2026-04-24T07:22:10.994Z</time></trkpt><trkpt lat="43.6929447" lon="12.0846195"><ele>761.3333333333334</ele><time>2026-04-24T07:22:11.995Z</time></trkpt><trkpt lat="43.6929986" lon="12.0843674"><ele>759.6666666666666</ele><time>2026-04-24T07:22:12.995Z</time></trkpt><trkpt lat="43.6930644" lon="12.0841234"><ele>758.0</ele><time>2026-04-24T07:22:13.995Z</time></trkpt><trkpt lat="43.6931495" lon="12.0838805"><ele>755.3333333333333</ele><time>2026-04-24T07:22:14.995Z</time></trkpt><trkpt lat="43.6932445" lon="12.0836274"><ele>752.6666666666666</ele><time>2026-04-24T07:22:15.994Z</time></trkpt><trkpt lat="43.6933417" lon="12.083362"><ele>750.0</ele><time>2026-04-24T07:22:16.994Z</time></trkpt><trkpt lat="43.6934423" lon="12.083089"><ele>751.0</ele><time>2026-04-24T07:22:17.995Z</time></trkpt><trkpt lat="43.6935415" lon="12.0828185"><ele>752.0</ele><time>2026-04-24T07:22:18.994Z</time></trkpt><trkpt lat="43.6936359" lon="12.0825612"><ele>753.0</ele><time>2026-04-24T07:22:19.994Z</time></trkpt><trkpt lat="43.6937263" lon="12.0823158"><ele>748.3333333333334</ele><time>2026-04-24T07:22:20.995Z</time></trkpt><trkpt lat="43.6938135" lon="12.0820926"><ele>743.6666666666667</ele><time>2026-04-24T07:22:21.994Z</time></trkpt><trkpt lat="43.6939117" lon="12.0819007"><ele>739.0</ele><time>2026-04-24T07:22:22.994Z</time></trkpt><trkpt lat="43.6940407" lon="12.0817456"><ele>739.0</ele><time>2026-04-24T07:22:23.994Z</time></trkpt><trkpt lat="43.6941991" lon="12.0816409"><ele>739.0</ele><time>2026-04-24T07:22:24.994Z</time></trkpt><trkpt lat="43.6943794" lon="12.0815662"><ele>739.0</ele><time>2026-04-24T07:22:25.994Z</time></trkpt><trkpt lat="43.6945745" lon="12.0814962"><ele>734.0</ele><time>2026-04-24T07:22:26.994Z</time></trkpt><trkpt lat="43.6947787" lon="12.0814316"><ele>729.0</ele><time>2026-04-24T07:22:27.995Z</time></trkpt><trkpt lat="43.6949892" lon="12.0813688"><ele>724.0</ele><time>2026-04-24T07:22:28.994Z</time></trkpt><trkpt lat="43.6951916" lon="12.081308"><ele>724.6666666666667</ele><time>2026-04-24T07:22:29.995Z</time></trkpt><trkpt lat="43.695385" lon="12.0812461"><ele>725.3333333333334</ele><time>2026-04-24T07:22:30.995Z</time></trkpt><trkpt lat="43.69557" lon="12.0811817"><ele>726.0</ele><time>2026-04-24T07:22:31.994Z</time></trkpt><trkpt lat="43.695748" lon="12.0811201"><ele>726.0</ele><time>2026-04-24T07:22:32.996Z</time></trkpt><trkpt lat="43.6959075" lon="12.0810686"><ele>726.0</ele><time>2026-04-24T07:22:33.995Z</time></trkpt><trkpt lat="43.6960442" lon="12.0810116"><ele>726.0</ele><time>2026-04-24T07:22:34.994Z</time></trkpt><trkpt lat="43.6961418" lon="12.0809191"><ele>726.0</ele><time>2026-04-24T07:22:35.995Z</time></trkpt><trkpt lat="43.6962057" lon="12.0807839"><ele>726.5</ele><time>2026-04-24T07:22:36.994Z</time></trkpt><trkpt lat="43.6962119" lon="12.0806156"><ele>727.0</ele><time>2026-04-24T07:22:37.994Z</time></trkpt><trkpt lat="43.6961609" lon="12.0804587"><ele>727.5</ele><time>2026-04-24T07:22:38.994Z</time></trkpt><trkpt lat="43.6960566" lon="12.0803443"><ele>728.0</ele><time>2026-04-24T07:22:39.994Z</time></trkpt><trkpt lat="43.6959079" lon="12.080277"><ele>724.6666666666666</ele><time>2026-04-24T07:22:40.994Z</time></trkpt><trkpt lat="43.695723" lon="12.0802489"><ele>721.3333333333334</ele><time>2026-04-24T07:22:41.995Z</time></trkpt><trkpt lat="43.6955144" lon="12.0802379"><ele>718.0</ele><time>2026-04-24T07:22:42.994Z</time></trkpt><trkpt lat="43.695291" lon="12.0802351"><ele>714.5</ele><time>2026-04-24T07:22:43.995Z</time></trkpt><trkpt lat="43.6950577" lon="12.0802329"><ele>711.0</ele><time>2026-04-24T07:22:44.994Z</time></trkpt><trkpt lat="43.6948145" lon="12.0802268"><ele>711.0</ele><time>2026-04-24T07:22:45.995Z</time></trkpt><trkpt lat="43.6945662" lon="12.0802218"><ele>711.0</ele><time>2026-04-24T07:22:46.994Z</time></trkpt><trkpt lat="43.694335" lon="12.0802176"><ele>711.0</ele><time>2026-04-24T07:22:47.994Z</time></trkpt><trkpt lat="43.6941138" lon="12.0802145"><ele>711.0</ele><time>2026-04-24T07:22:48.996Z</time></trkpt><trkpt lat="43.6939032" lon="12.0802124"><ele>711.0</ele><time>2026-04-24T07:22:49.994Z</time></trkpt><trkpt lat="43.6937014" lon="12.0802096"><ele>709.6666666666666</ele><time>2026-04-24T07:22:50.994Z</time></trkpt><trkpt lat="43.6935067" lon="12.0802056"><ele>708.3333333333333</ele><time>2026-04-24T07:22:51.995Z</time></trkpt><trkpt lat="43.6933196" lon="12.0802012"><ele>707.0</ele><time>2026-04-24T07:22:52.994Z</time></trkpt><trkpt lat="43.6931466" lon="12.0801966"><ele>707.0</ele><time>2026-04-24T07:22:53.995Z</time></trkpt><trkpt lat="43.6930052" lon="12.0801866"><ele>707.0</ele><time>2026-04-24T07:22:54.995Z</time></trkpt><trkpt lat="43.6928758" lon="12.0801544"><ele>707.0</ele><time>2026-04-24T07:22:55.995Z</time></trkpt><trkpt lat="43.6927699" lon="12.0800712"><ele>707.0</ele><time>2026-04-24T07:22:56.994Z</time></trkpt><trkpt lat="43.6926991" lon="12.0799424"><ele>703.25</ele><time>2026-04-24T07:22:57.995Z</time></trkpt><trkpt lat="43.692683" lon="12.0797899"><ele>699.5</ele><time>2026-04-24T07:22:58.995Z</time></trkpt><trkpt lat="43.6927228" lon="12.0796436"><ele>695.75</ele><time>2026-04-24T07:22:59.994Z</time></trkpt><trkpt lat="43.6928194" lon="12.0795163"><ele>692.0</ele><time>2026-04-24T07:23:00.994Z</time></trkpt><trkpt lat="43.6929495" lon="12.0794486"><ele>692.0</ele><time>2026-04-24T07:23:01.994Z</time></trkpt><trkpt lat="43.6931148" lon="12.0794232"><ele>692.0</ele><time>2026-04-24T07:23:02.994Z</time></trkpt><trkpt lat="43.6932928" lon="12.0794104"><ele>692.0</ele><time>2026-04-24T07:23:03.994Z</time></trkpt><trkpt lat="43.6934591" lon="12.0793601"><ele>690.6666666666666</ele><time>2026-04-24T07:23:04.994Z</time></trkpt><trkpt lat="43.6936083" lon="12.0792614"><ele>689.3333333333334</ele><time>2026-04-24T07:23:05.995Z</time></trkpt><trkpt lat="43.6937336" lon="12.0790892"><ele>688.0</ele><time>2026-04-24T07:23:06.994Z</time></trkpt><trkpt lat="43.6938587" lon="12.0788726"><ele>688.0</ele><time>2026-04-24T07:23:07.994Z</time></trkpt><trkpt lat="43.6939981" lon="12.0786417"><ele>688.0</ele><time>2026-04-24T07:23:08.994Z</time></trkpt><trkpt lat="43.6941549" lon="12.0784079"><ele>688.0</ele><time>2026-04-24T07:23:09.994Z</time></trkpt><trkpt lat="43.6943326" lon="12.0781812"><ele>684.0</ele><time>2026-04-24T07:23:10.994Z</time></trkpt><trkpt lat="43.6945182" lon="12.0779763"><ele>680.0</ele><time>2026-04-24T07:23:11.994Z</time></trkpt><trkpt lat="43.6946924" lon="12.0777812"><ele>680.0</ele><time>2026-04-24T07:23:12.995Z</time></trkpt><trkpt lat="43.6948618" lon="12.0775929"><ele>680.0</ele><time>2026-04-24T07:23:13.995Z</time></trkpt><trkpt lat="43.6950217" lon="12.07742"><ele>680.0</ele><time>2026-04-24T07:23:14.994Z</time></trkpt><trkpt lat="43.6951668" lon="12.0772721"><ele>678.3333333333333</ele><time>2026-04-24T07:23:15.994Z</time></trkpt><trkpt lat="43.695315" lon="12.0771677"><ele>676.6666666666666</ele><time>2026-04-24T07:23:16.995Z</time></trkpt><trkpt lat="43.6954734" lon="12.0771296"><ele>675.0</ele><time>2026-04-24T07:23:17.995Z</time></trkpt><trkpt lat="43.6956253" lon="12.0771597"><ele>675.0</ele><time>2026-04-24T07:23:18.994Z</time></trkpt><trkpt lat="43.6957631" lon="12.0771829"><ele>675.0</ele><time>2026-04-24T07:23:19.994Z</time></trkpt><trkpt lat="43.6958915" lon="12.0771576"><ele>675.0</ele><time>2026-04-24T07:23:20.995Z</time></trkpt><trkpt lat="43.695996" lon="12.0770729"><ele>675.0</ele><time>2026-04-24T07:23:21.994Z</time></trkpt><trkpt lat="43.696066" lon="12.076937"><ele>677.3333333333334</ele><time>2026-04-24T07:23:22.995Z</time></trkpt><trkpt lat="43.6960927" lon="12.0767502"><ele>679.6666666666667</ele><time>2026-04-24T07:23:23.994Z</time></trkpt><trkpt lat="43.6960876" lon="12.0765286"><ele>682.0</ele><time>2026-04-24T07:23:24.994Z</time></trkpt><trkpt lat="43.6960684" lon="12.0762742"><ele>682.0</ele><time>2026-04-24T07:23:25.994Z</time></trkpt><trkpt lat="43.6960429" lon="12.0760401"><ele>682.0</ele><time>2026-04-24T07:23:26.994Z</time></trkpt><trkpt lat="43.6959998" lon="12.0758075"><ele>682.0</ele><time>2026-04-24T07:23:27.994Z</time></trkpt><trkpt lat="43.6959129" lon="12.0755915"><ele>684.6666666666667</ele><time>2026-04-24T07:23:28.994Z</time></trkpt><trkpt lat="43.6957773" lon="12.0754123"><ele>687.3333333333334</ele><time>2026-04-24T07:23:29.996Z</time></trkpt><trkpt lat="43.6956099" lon="12.0752604"><ele>690.0</ele><time>2026-04-24T07:23:30.994Z</time></trkpt><trkpt lat="43.6954219" lon="12.0751274"><ele>689.6666666666666</ele><time>2026-04-24T07:23:31.994Z</time></trkpt><trkpt lat="43.6952201" lon="12.0749968"><ele>689.3333333333333</ele><time>2026-04-24T07:23:32.994Z</time></trkpt><trkpt lat="43.6950239" lon="12.0748719"><ele>689.0</ele><time>2026-04-24T07:23:33.994Z</time></trkpt><trkpt lat="43.6948332" lon="12.0747458"><ele>689.0</ele><time>2026-04-24T07:23:34.994Z</time></trkpt><trkpt lat="43.6946492" lon="12.074609"><ele>689.0</ele><time>2026-04-24T07:23:35.995Z</time></trkpt><trkpt lat="43.6944868" lon="12.0744715"><ele>689.0</ele><time>2026-04-24T07:23:36.994Z</time></trkpt><trkpt lat="43.6943305" lon="12.0743167"><ele>685.3333333333333</ele><time>2026-04-24T07:23:37.995Z</time></trkpt><trkpt lat="43.6941819" lon="12.074144"><ele>681.6666666666666</ele><time>2026-04-24T07:23:38.994Z</time></trkpt><trkpt lat="43.6940328" lon="12.0739695"><ele>678.0</ele><time>2026-04-24T07:23:39.994Z</time></trkpt><trkpt lat="43.6939148" lon="12.0737785"><ele>678.0</ele><time>2026-04-24T07:23:40.994Z</time></trkpt><trkpt lat="43.693829" lon="12.0735489"><ele>678.0</ele><time>2026-04-24T07:23:41.994Z</time></trkpt><trkpt lat="43.6937686" lon="12.0732908"><ele>678.0</ele><time>2026-04-24T07:23:42.994Z</time></trkpt><trkpt lat="43.693718" lon="12.0730127"><ele>678.6666666666666</ele><time>2026-04-24T07:23:43.994Z</time></trkpt><trkpt lat="43.6936679" lon="12.0727266"><ele>679.3333333333333</ele><time>2026-04-24T07:23:44.995Z</time></trkpt><trkpt lat="43.6936185" lon="12.0724498"><ele>680.0</ele><time>2026-04-24T07:23:45.994Z</time></trkpt><trkpt lat="43.6935679" lon="12.0721923"><ele>678.6666666666666</ele><time>2026-04-24T07:23:46.994Z</time></trkpt><trkpt lat="43.6935073" lon="12.0719576"><ele>677.3333333333334</ele><time>2026-04-24T07:23:47.995Z</time></trkpt><trkpt lat="43.6934028" lon="12.0717661"><ele>676.0</ele><time>2026-04-24T07:23:48.995Z</time></trkpt><trkpt lat="43.693257" lon="12.0716169"><ele>677.0</ele><time>2026-04-24T07:23:49.995Z</time></trkpt><trkpt lat="43.6930848" lon="12.0715064"><ele>678.0</ele><time>2026-04-24T07:23:50.995Z</time></trkpt><trkpt lat="43.6928947" lon="12.0714256"><ele>679.0</ele><time>2026-04-24T07:23:51.995Z</time></trkpt><trkpt lat="43.6927125" lon="12.0713303"><ele>679.0</ele><time>2026-04-24T07:23:52.994Z</time></trkpt><trkpt lat="43.6925506" lon="12.0712103"><ele>679.0</ele><time>2026-04-24T07:23:53.994Z</time></trkpt><trkpt lat="43.6924085" lon="12.0710415"><ele>679.0</ele><time>2026-04-24T07:23:54.995Z</time></trkpt><trkpt lat="43.6923125" lon="12.0708211"><ele>679.6666666666667</ele><time>2026-04-24T07:23:55.994Z</time></trkpt><trkpt lat="43.6922412" lon="12.0705689"><ele>680.3333333333334</ele><time>2026-04-24T07:23:56.995Z</time></trkpt><trkpt lat="43.6921727" lon="12.0702938"><ele>681.0</ele><time>2026-04-24T07:23:57.994Z</time></trkpt><trkpt lat="43.6921039" lon="12.070015"><ele>681.3333333333334</ele><time>2026-04-24T07:23:58.994Z</time></trkpt><trkpt lat="43.6920398" lon="12.0697305"><ele>681.6666666666667</ele><time>2026-04-24T07:23:59.994Z</time></trkpt><trkpt lat="43.6919794" lon="12.0694484"><ele>682.0</ele><time>2026-04-24T07:24:00.994Z</time></trkpt><trkpt lat="43.6919205" lon="12.0691889"><ele>681.0</ele><time>2026-04-24T07:24:01.994Z</time></trkpt><trkpt lat="43.6918611" lon="12.0689448"><ele>680.0</ele><time>2026-04-24T07:24:02.994Z</time></trkpt><trkpt lat="43.6917935" lon="12.0687239"><ele>679.0</ele><time>2026-04-24T07:24:03.994Z</time></trkpt><trkpt lat="43.691694" lon="12.0685284"><ele>679.0</ele><time>2026-04-24T07:24:04.994Z</time></trkpt><trkpt lat="43.691554" lon="12.0683745"><ele>679.0</ele><time>2026-04-24T07:24:05.994Z</time></trkpt><trkpt lat="43.6913355" lon="12.0682304"><ele>679.0</ele><time>2026-04-24T07:24:07.825Z</time></trkpt><trkpt lat="43.6910376" lon="12.0680622"><ele>678.6666666666667</ele><time>2026-04-24T07:24:08.995Z</time></trkpt><trkpt lat="43.6908946" lon="12.0679153"><ele>678.3333333333334</ele><time>2026-04-24T07:24:09.994Z</time></trkpt><trkpt lat="43.690791" lon="12.0677215"><ele>678.0</ele><time>2026-04-24T07:24:10.994Z</time></trkpt><trkpt lat="43.6907032" lon="12.0674961"><ele>679.0</ele><time>2026-04-24T07:24:11.993Z</time></trkpt><trkpt lat="43.6906101" lon="12.0672504"><ele>680.0</ele><time>2026-04-24T07:24:12.993Z</time></trkpt><trkpt lat="43.6905156" lon="12.0670047"><ele>681.0</ele><time>2026-04-24T07:24:13.994Z</time></trkpt><trkpt lat="43.6904289" lon="12.0667746"><ele>679.3333333333334</ele><time>2026-04-24T07:24:14.993Z</time></trkpt><trkpt lat="43.6903291" lon="12.0665581"><ele>677.6666666666667</ele><time>2026-04-24T07:24:15.994Z</time></trkpt><trkpt lat="43.6901836" lon="12.066365"><ele>676.0</ele><time>2026-04-24T07:24:16.993Z</time></trkpt><trkpt lat="43.6899983" lon="12.0662056"><ele>676.0</ele><time>2026-04-24T07:24:17.993Z</time></trkpt><trkpt lat="43.6897889" lon="12.0660583"><ele>676.0</ele><time>2026-04-24T07:24:18.994Z</time></trkpt><trkpt lat="43.6895658" lon="12.0659028"><ele>680.0</ele><time>2026-04-24T07:24:19.993Z</time></trkpt><trkpt lat="43.6893317" lon="12.0657424"><ele>684.0</ele><time>2026-04-24T07:24:20.993Z</time></trkpt><trkpt lat="43.6890893" lon="12.0655736"><ele>684.0</ele><time>2026-04-24T07:24:21.993Z</time></trkpt><trkpt lat="43.6888406" lon="12.0654049"><ele>684.0</ele><time>2026-04-24T07:24:22.993Z</time></trkpt><trkpt lat="43.6885881" lon="12.0652375"><ele>679.0</ele><time>2026-04-24T07:24:23.993Z</time></trkpt><trkpt lat="43.6883448" lon="12.0650769"><ele>674.0</ele><time>2026-04-24T07:24:24.993Z</time></trkpt><trkpt lat="43.6881322" lon="12.0649309"><ele>674.0</ele><time>2026-04-24T07:24:25.993Z</time></trkpt><trkpt lat="43.6879607" lon="12.0648008"><ele>674.0</ele><time>2026-04-24T07:24:26.993Z</time></trkpt><trkpt lat="43.6878303" lon="12.0646763"><ele>674.0</ele><time>2026-04-24T07:24:27.993Z</time></trkpt><trkpt lat="43.6877419" lon="12.0645252"><ele>669.5</ele><time>2026-04-24T07:24:28.993Z</time></trkpt><trkpt lat="43.6877096" lon="12.0643708"><ele>665.0</ele><time>2026-04-24T07:24:29.993Z</time></trkpt><trkpt lat="43.6877106" lon="12.0641752"><ele>660.5</ele><time>2026-04-24T07:24:30.993Z</time></trkpt><trkpt lat="43.6877121" lon="12.0639532"><ele>656.0</ele><time>2026-04-24T07:24:31.993Z</time></trkpt><trkpt lat="43.6877123" lon="12.0637095"><ele>653.6666666666666</ele><time>2026-04-24T07:24:32.994Z</time></trkpt><trkpt lat="43.6877144" lon="12.0634468"><ele>651.3333333333334</ele><time>2026-04-24T07:24:33.993Z</time></trkpt><trkpt lat="43.6877179" lon="12.0631708"><ele>649.0</ele><time>2026-04-24T07:24:34.993Z</time></trkpt><trkpt lat="43.6877218" lon="12.062891"><ele>648.3333333333334</ele><time>2026-04-24T07:24:35.994Z</time></trkpt><trkpt lat="43.6877273" lon="12.0626259"><ele>647.6666666666666</ele><time>2026-04-24T07:24:36.993Z</time></trkpt><trkpt lat="43.6877341" lon="12.0623666"><ele>647.0</ele><time>2026-04-24T07:24:37.993Z</time></trkpt><trkpt lat="43.6877403" lon="12.062118"><ele>648.25</ele><time>2026-04-24T07:24:38.994Z</time></trkpt><trkpt lat="43.687739" lon="12.0618951"><ele>649.5</ele><time>2026-04-24T07:24:39.994Z</time></trkpt><trkpt lat="43.6877067" lon="12.0617042"><ele>650.75</ele><time>2026-04-24T07:24:40.993Z</time></trkpt><trkpt lat="43.6876292" lon="12.0615404"><ele>652.0</ele><time>2026-04-24T07:24:41.993Z</time></trkpt><trkpt lat="43.6875003" lon="12.061426"><ele>652.6666666666667</ele><time>2026-04-24T07:24:42.994Z</time></trkpt><trkpt lat="43.6873384" lon="12.0613342"><ele>653.3333333333334</ele><time>2026-04-24T07:24:43.994Z</time></trkpt><trkpt lat="43.687162" lon="12.0612323"><ele>654.0</ele><time>2026-04-24T07:24:44.993Z</time></trkpt><trkpt lat="43.6869907" lon="12.061136"><ele>649.6666666666666</ele><time>2026-04-24T07:24:45.993Z</time></trkpt><trkpt lat="43.6868235" lon="12.0610455"><ele>645.3333333333333</ele><time>2026-04-24T07:24:46.993Z</time></trkpt><trkpt lat="43.68666" lon="12.0609577"><ele>641.0</ele><time>2026-04-24T07:24:47.994Z</time></trkpt><trkpt lat="43.6865044" lon="12.0608744"><ele>641.0</ele><time>2026-04-24T07:24:48.994Z</time></trkpt><trkpt lat="43.6863663" lon="12.0607975"><ele>641.0</ele><time>2026-04-24T07:24:49.993Z</time></trkpt><trkpt lat="43.6862418" lon="12.0607301"><ele>641.0</ele><time>2026-04-24T07:24:50.993Z</time></trkpt><trkpt lat="43.6861283" lon="12.0606713"><ele>641.0</ele><time>2026-04-24T07:24:51.993Z</time></trkpt><trkpt lat="43.6860229" lon="12.0606377"><ele>640.0</ele><time>2026-04-24T07:24:52.993Z</time></trkpt><trkpt lat="43.6859178" lon="12.0606426"><ele>639.0</ele><time>2026-04-24T07:24:53.994Z</time></trkpt><trkpt lat="43.685819" lon="12.0606988"><ele>638.0</ele><time>2026-04-24T07:24:54.993Z</time></trkpt><trkpt lat="43.6857364" lon="12.0608111"><ele>637.0</ele><time>2026-04-24T07:24:55.994Z</time></trkpt><trkpt lat="43.6856914" lon="12.0609592"><ele>636.0</ele><time>2026-04-24T07:24:56.993Z</time></trkpt><trkpt lat="43.685697" lon="12.0611319"><ele>636.0</ele><time>2026-04-24T07:24:57.993Z</time></trkpt><trkpt lat="43.68573" lon="12.0613529"><ele>636.0</ele><time>2026-04-24T07:24:58.993Z</time></trkpt><trkpt lat="43.6857698" lon="12.061605"><ele>636.0</ele><time>2026-04-24T07:24:59.994Z</time></trkpt><trkpt lat="43.6858147" lon="12.0618626"><ele>634.25</ele><time>2026-04-24T07:25:00.993Z</time></trkpt><trkpt lat="43.6858603" lon="12.0620915"><ele>632.5</ele><time>2026-04-24T07:25:01.993Z</time></trkpt><trkpt lat="43.6858885" lon="12.0622843"><ele>630.75</ele><time>2026-04-24T07:25:02.993Z</time></trkpt><trkpt lat="43.6858868" lon="12.0624525"><ele>629.0</ele><time>2026-04-24T07:25:03.993Z</time></trkpt><trkpt lat="43.6858375" lon="12.0625943"><ele>628.25</ele><time>2026-04-24T07:25:04.993Z</time></trkpt><trkpt lat="43.6857453" lon="12.0626803"><ele>627.5</ele><time>2026-04-24T07:25:05.994Z</time></trkpt><trkpt lat="43.685616" lon="12.0626915"><ele>626.75</ele><time>2026-04-24T07:25:06.993Z</time></trkpt><trkpt lat="43.6854564" lon="12.0626492"><ele>626.0</ele><time>2026-04-24T07:25:07.994Z</time></trkpt><trkpt lat="43.6852823" lon="12.0625936"><ele>624.0</ele><time>2026-04-24T07:25:08.993Z</time></trkpt><trkpt lat="43.6850928" lon="12.0625347"><ele>622.0</ele><time>2026-04-24T07:25:09.994Z</time></trkpt><trkpt lat="43.6848949" lon="12.0624678"><ele>620.0</ele><time>2026-04-24T07:25:10.993Z</time></trkpt><trkpt lat="43.6847023" lon="12.0624046"><ele>620.0</ele><time>2026-04-24T07:25:11.994Z</time></trkpt><trkpt lat="43.6845162" lon="12.0623423"><ele>620.0</ele><time>2026-04-24T07:25:12.994Z</time></trkpt><trkpt lat="43.6843398" lon="12.0622718"><ele>620.0</ele><time>2026-04-24T07:25:13.993Z</time></trkpt><trkpt lat="43.6841759" lon="12.0621791"><ele>617.3333333333333</ele><time>2026-04-24T07:25:14.993Z</time></trkpt><trkpt lat="43.6840294" lon="12.0620324"><ele>614.6666666666666</ele><time>2026-04-24T07:25:15.993Z</time></trkpt><trkpt lat="43.6838973" lon="12.0618408"><ele>612.0</ele><time>2026-04-24T07:25:16.993Z</time></trkpt><trkpt lat="43.6837783" lon="12.0616218"><ele>611.6666666666666</ele><time>2026-04-24T07:25:17.993Z</time></trkpt><trkpt lat="43.683642" lon="12.0614106"><ele>611.3333333333333</ele><time>2026-04-24T07:25:18.994Z</time></trkpt><trkpt lat="43.6834894" lon="12.0612161"><ele>611.0</ele><time>2026-04-24T07:25:19.993Z</time></trkpt><trkpt lat="43.6833462" lon="12.0610366"><ele>611.0</ele><time>2026-04-24T07:25:20.994Z</time></trkpt><trkpt lat="43.6832064" lon="12.0608749"><ele>611.0</ele><time>2026-04-24T07:25:21.994Z</time></trkpt><trkpt lat="43.6830803" lon="12.0607317"><ele>611.0</ele><time>2026-04-24T07:25:22.993Z</time></trkpt><trkpt lat="43.6829593" lon="12.0606222"><ele>608.75</ele><time>2026-04-24T07:25:23.993Z</time></trkpt><trkpt lat="43.6828348" lon="12.0605764"><ele>606.5</ele><time>2026-04-24T07:25:24.993Z</time></trkpt><trkpt lat="43.6827114" lon="12.0605915"><ele>604.25</ele><time>2026-04-24T07:25:25.993Z</time></trkpt><trkpt lat="43.6826202" lon="12.0606696"><ele>602.0</ele><time>2026-04-24T07:25:26.993Z</time></trkpt><trkpt lat="43.6825762" lon="12.0608034"><ele>600.25</ele><time>2026-04-24T07:25:27.993Z</time></trkpt><trkpt lat="43.6825891" lon="12.0609559"><ele>598.5</ele><time>2026-04-24T07:25:28.993Z</time></trkpt><trkpt lat="43.6826625" lon="12.061112"><ele>596.75</ele><time>2026-04-24T07:25:29.993Z</time></trkpt><trkpt lat="43.6827801" lon="12.061251"><ele>595.0</ele><time>2026-04-24T07:25:30.994Z</time></trkpt><trkpt lat="43.6829091" lon="12.0614003"><ele>597.6666666666667</ele><time>2026-04-24T07:25:31.993Z</time></trkpt><trkpt lat="43.6830547" lon="12.0615372"><ele>600.3333333333334</ele><time>2026-04-24T07:25:32.993Z</time></trkpt><trkpt lat="43.6831927" lon="12.06167"><ele>603.0</ele><time>2026-04-24T07:25:33.993Z</time></trkpt><trkpt lat="43.6833017" lon="12.0618037"><ele>603.0</ele><time>2026-04-24T07:25:34.993Z</time></trkpt><trkpt lat="43.6833689" lon="12.0619533"><ele>603.0</ele><time>2026-04-24T07:25:35.993Z</time></trkpt><trkpt lat="43.683398" lon="12.0621098"><ele>603.0</ele><time>2026-04-24T07:25:36.993Z</time></trkpt><trkpt lat="43.6834171" lon="12.0622601"><ele>603.0</ele><time>2026-04-24T07:25:37.993Z</time></trkpt><trkpt lat="43.6833943" lon="12.0624015"><ele>603.0</ele><time>2026-04-24T07:25:38.994Z</time></trkpt><trkpt lat="43.6831698" lon="12.0623469"><ele>603.0</ele><time>2026-04-24T07:25:39.994Z</time></trkpt><trkpt lat="43.6830492" lon="12.062326"><ele>603.0</ele><time>2026-04-24T07:25:40.993Z</time></trkpt><trkpt lat="43.68293" lon="12.0621874"><ele>603.0</ele><time>2026-04-24T07:25:41.993Z</time></trkpt><trkpt lat="43.6827827" lon="12.0620556"><ele>603.0</ele><time>2026-04-24T07:25:42.994Z</time></trkpt><trkpt lat="43.6826195" lon="12.061909"><ele>603.0</ele><time>2026-04-24T07:25:43.993Z</time></trkpt><trkpt lat="43.6824376" lon="12.0617638"><ele>600.3333333333334</ele><time>2026-04-24T07:25:44.993Z</time></trkpt><trkpt lat="43.6822387" lon="12.0616315"><ele>597.6666666666667</ele><time>2026-04-24T07:25:45.993Z</time></trkpt><trkpt lat="43.6820464" lon="12.0615167"><ele>595.0</ele><time>2026-04-24T07:25:46.993Z</time></trkpt><trkpt lat="43.6818725" lon="12.0614147"><ele>589.3333333333334</ele><time>2026-04-24T07:25:47.994Z</time></trkpt><trkpt lat="43.6817171" lon="12.0612922"><ele>583.6666666666666</ele><time>2026-04-24T07:25:48.993Z</time></trkpt><trkpt lat="43.681589" lon="12.0611344"><ele>578.0</ele><time>2026-04-24T07:25:49.994Z</time></trkpt><trkpt lat="43.6815024" lon="12.0609381"><ele>577.6666666666666</ele><time>2026-04-24T07:25:50.993Z</time></trkpt><trkpt lat="43.6814522" lon="12.0607076"><ele>577.3333333333334</ele><time>2026-04-24T07:25:51.993Z</time></trkpt><trkpt lat="43.6814144" lon="12.0604577"><ele>577.0</ele><time>2026-04-24T07:25:52.994Z</time></trkpt><trkpt lat="43.6813809" lon="12.0601863"><ele>577.0</ele><time>2026-04-24T07:25:53.994Z</time></trkpt><trkpt lat="43.681348" lon="12.0598991"><ele>577.0</ele><time>2026-04-24T07:25:54.993Z</time></trkpt><trkpt lat="43.6813158" lon="12.0596051"><ele>577.0</ele><time>2026-04-24T07:25:55.994Z</time></trkpt><trkpt lat="43.6812848" lon="12.059307"><ele>577.0</ele><time>2026-04-24T07:25:56.994Z</time></trkpt><trkpt lat="43.6812438" lon="12.0590073"><ele>577.0</ele><time>2026-04-24T07:25:57.993Z</time></trkpt><trkpt lat="43.6811875" lon="12.0587076"><ele>577.0</ele><time>2026-04-24T07:25:58.993Z</time></trkpt><trkpt lat="43.6811222" lon="12.0584175"><ele>571.6666666666667</ele><time>2026-04-24T07:25:59.993Z</time></trkpt><trkpt lat="43.6810582" lon="12.0581414"><ele>566.3333333333334</ele><time>2026-04-24T07:26:00.993Z</time></trkpt><trkpt lat="43.680996" lon="12.05789"><ele>561.0</ele><time>2026-04-24T07:26:01.994Z</time></trkpt><trkpt lat="43.6809312" lon="12.0576557"><ele>565.6666666666666</ele><time>2026-04-24T07:26:02.994Z</time></trkpt><trkpt lat="43.6808304" lon="12.0574503"><ele>570.3333333333333</ele><time>2026-04-24T07:26:03.993Z</time></trkpt><trkpt lat="43.6806987" lon="12.0572626"><ele>575.0</ele><time>2026-04-24T07:26:04.993Z</time></trkpt><trkpt lat="43.6805505" lon="12.0570889"><ele>575.0</ele><time>2026-04-24T07:26:05.993Z</time></trkpt><trkpt lat="43.6803968" lon="12.0569163"><ele>575.0</ele><time>2026-04-24T07:26:06.993Z</time></trkpt><trkpt lat="43.6802512" lon="12.0567475"><ele>575.0</ele><time>2026-04-24T07:26:07.993Z</time></trkpt><trkpt lat="43.6801204" lon="12.056569"><ele>566.3333333333333</ele><time>2026-04-24T07:26:08.993Z</time></trkpt><trkpt lat="43.6800214" lon="12.0563677"><ele>557.6666666666666</ele><time>2026-04-24T07:26:09.993Z</time></trkpt><trkpt lat="43.6799654" lon="12.0561375"><ele>549.0</ele><time>2026-04-24T07:26:10.993Z</time></trkpt><trkpt lat="43.6799569" lon="12.0559001"><ele>551.6666666666666</ele><time>2026-04-24T07:26:11.993Z</time></trkpt><trkpt lat="43.6799594" lon="12.0556694"><ele>554.3333333333333</ele><time>2026-04-24T07:26:12.994Z</time></trkpt><trkpt lat="43.6799293" lon="12.0554447"><ele>557.0</ele><time>2026-04-24T07:26:13.994Z</time></trkpt><trkpt lat="43.6798526" lon="12.0552298"><ele>557.0</ele><time>2026-04-24T07:26:14.993Z</time></trkpt><trkpt lat="43.6797315" lon="12.0550347"><ele>557.0</ele><time>2026-04-24T07:26:15.993Z</time></trkpt><trkpt lat="43.6795891" lon="12.0548435"><ele>557.0</ele><time>2026-04-24T07:26:16.993Z</time></trkpt><trkpt lat="43.6794835" lon="12.0546132"><ele>553.6666666666666</ele><time>2026-04-24T07:26:17.993Z</time></trkpt><trkpt lat="43.679402" lon="12.0543489"><ele>550.3333333333334</ele><time>2026-04-24T07:26:18.994Z</time></trkpt><trkpt lat="43.6793342" lon="12.0540649"><ele>547.0</ele><time>2026-04-24T07:26:19.993Z</time></trkpt><trkpt lat="43.6792601" lon="12.0538005"><ele>547.0</ele><time>2026-04-24T07:26:20.993Z</time></trkpt><trkpt lat="43.6791592" lon="12.0535396"><ele>547.0</ele><time>2026-04-24T07:26:21.993Z</time></trkpt><trkpt lat="43.6790287" lon="12.0532963"><ele>547.0</ele><time>2026-04-24T07:26:22.993Z</time></trkpt><trkpt lat="43.6788675" lon="12.0530706"><ele>553.0</ele><time>2026-04-24T07:26:23.994Z</time></trkpt><trkpt lat="43.6786919" lon="12.0528513"><ele>559.0</ele><time>2026-04-24T07:26:24.993Z</time></trkpt><trkpt lat="43.6785237" lon="12.0526415"><ele>551.3333333333334</ele><time>2026-04-24T07:26:25.993Z</time></trkpt><trkpt lat="43.6783636" lon="12.0524372"><ele>543.6666666666666</ele><time>2026-04-24T07:26:26.993Z</time></trkpt><trkpt lat="43.6782184" lon="12.0522307"><ele>536.0</ele><time>2026-04-24T07:26:27.994Z</time></trkpt><trkpt lat="43.6780919" lon="12.0520177"><ele>536.0</ele><time>2026-04-24T07:26:28.994Z</time></trkpt><trkpt lat="43.6780052" lon="12.051784"><ele>536.0</ele><time>2026-04-24T07:26:29.993Z</time></trkpt><trkpt lat="43.6779594" lon="12.0515253"><ele>536.0</ele><time>2026-04-24T07:26:30.994Z</time></trkpt><trkpt lat="43.6779341" lon="12.0512475"><ele>531.6666666666666</ele><time>2026-04-24T07:26:31.993Z</time></trkpt><trkpt lat="43.6778933" lon="12.0509586"><ele>527.3333333333334</ele><time>2026-04-24T07:26:32.993Z</time></trkpt><trkpt lat="43.6778144" lon="12.0506771"><ele>523.0</ele><time>2026-04-24T07:26:33.993Z</time></trkpt><trkpt lat="43.6777027" lon="12.0504006"><ele>523.0</ele><time>2026-04-24T07:26:34.993Z</time></trkpt><trkpt lat="43.67758" lon="12.0501413"><ele>523.0</ele><time>2026-04-24T07:26:35.993Z</time></trkpt><trkpt lat="43.677436" lon="12.0499057"><ele>523.0</ele><time>2026-04-24T07:26:36.993Z</time></trkpt><trkpt lat="43.6772794" lon="12.0497039"><ele>525.3333333333334</ele><time>2026-04-24T07:26:37.993Z</time></trkpt><trkpt lat="43.6771351" lon="12.0495257"><ele>527.6666666666666</ele><time>2026-04-24T07:26:38.993Z</time></trkpt><trkpt lat="43.6770193" lon="12.0493403"><ele>530.0</ele><time>2026-04-24T07:26:39.994Z</time></trkpt><trkpt lat="43.6769255" lon="12.0491423"><ele>519.6666666666666</ele><time>2026-04-24T07:26:40.993Z</time></trkpt><trkpt lat="43.6768665" lon="12.0489116"><ele>509.33333333333337</ele><time>2026-04-24T07:26:41.993Z</time></trkpt><trkpt lat="43.6768197" lon="12.0486636"><ele>499.0</ele><time>2026-04-24T07:26:42.993Z</time></trkpt><trkpt lat="43.6767802" lon="12.0484138"><ele>499.33333333333337</ele><time>2026-04-24T07:26:43.993Z</time></trkpt><trkpt lat="43.676741" lon="12.048173"><ele>499.66666666666663</ele><time>2026-04-24T07:26:44.994Z</time></trkpt><trkpt lat="43.6767113" lon="12.0479399"><ele>500.0</ele><time>2026-04-24T07:26:45.993Z</time></trkpt><trkpt lat="43.6767039" lon="12.0477028"><ele>500.0</ele><time>2026-04-24T07:26:46.993Z</time></trkpt><trkpt lat="43.6767395" lon="12.0474607"><ele>500.0</ele><time>2026-04-24T07:26:47.993Z</time></trkpt><trkpt lat="43.6767944" lon="12.0472367"><ele>500.0</ele><time>2026-04-24T07:26:48.993Z</time></trkpt><trkpt lat="43.6768435" lon="12.0470163"><ele>497.66666666666663</ele><time>2026-04-24T07:26:49.993Z</time></trkpt><trkpt lat="43.6768622" lon="12.0467758"><ele>495.33333333333337</ele><time>2026-04-24T07:26:50.994Z</time></trkpt><trkpt lat="43.6768451" lon="12.0465253"><ele>493.0</ele><time>2026-04-24T07:26:51.993Z</time></trkpt><trkpt lat="43.6767945" lon="12.04628"><ele>491.6666666666667</ele><time>2026-04-24T07:26:52.994Z</time></trkpt><trkpt lat="43.6767382" lon="12.0460413"><ele>490.33333333333337</ele><time>2026-04-24T07:26:53.994Z</time></trkpt><trkpt lat="43.6767134" lon="12.0457916"><ele>489.0</ele><time>2026-04-24T07:26:54.993Z</time></trkpt><trkpt lat="43.6767183" lon="12.0455274"><ele>487.33333333333337</ele><time>2026-04-24T07:26:55.994Z</time></trkpt><trkpt lat="43.6767469" lon="12.0452562"><ele>485.6666666666667</ele><time>2026-04-24T07:26:56.993Z</time></trkpt><trkpt lat="43.6767904" lon="12.04497"><ele>484.0</ele><time>2026-04-24T07:26:57.993Z</time></trkpt><trkpt lat="43.6768308" lon="12.0446728"><ele>485.33333333333337</ele><time>2026-04-24T07:26:58.994Z</time></trkpt><trkpt lat="43.6768715" lon="12.0443753"><ele>486.66666666666663</ele><time>2026-04-24T07:26:59.993Z</time></trkpt><trkpt lat="43.6769074" lon="12.0440929"><ele>488.0</ele><time>2026-04-24T07:27:00.993Z</time></trkpt><trkpt lat="43.6769431" lon="12.0438267"><ele>488.0</ele><time>2026-04-24T07:27:01.994Z</time></trkpt><trkpt lat="43.6769789" lon="12.0435793"><ele>488.0</ele><time>2026-04-24T07:27:02.994Z</time></trkpt><trkpt lat="43.6770207" lon="12.0433443"><ele>488.0</ele><time>2026-04-24T07:27:03.993Z</time></trkpt><trkpt lat="43.6770824" lon="12.0431266"><ele>482.3333333333333</ele><time>2026-04-24T07:27:04.993Z</time></trkpt><trkpt lat="43.6771724" lon="12.0429411"><ele>476.66666666666663</ele><time>2026-04-24T07:27:05.993Z</time></trkpt><trkpt lat="43.6772945" lon="12.0427925"><ele>471.0</ele><time>2026-04-24T07:27:06.994Z</time></trkpt><trkpt lat="43.677447" lon="12.0426815"><ele>471.0</ele><time>2026-04-24T07:27:07.994Z</time></trkpt><trkpt lat="43.6776089" lon="12.0425742"><ele>471.0</ele><time>2026-04-24T07:27:08.993Z</time></trkpt><trkpt lat="43.6777798" lon="12.0424675"><ele>471.0</ele><time>2026-04-24T07:27:09.993Z</time></trkpt><trkpt lat="43.6779565" lon="12.0423583"><ele>469.0</ele><time>2026-04-24T07:27:10.993Z</time></trkpt><trkpt lat="43.6781319" lon="12.0422603"><ele>467.0</ele><time>2026-04-24T07:27:11.993Z</time></trkpt><trkpt lat="43.6783018" lon="12.0421764"><ele>465.0</ele><time>2026-04-24T07:27:12.993Z</time></trkpt><trkpt lat="43.6784634" lon="12.0420979"><ele>467.75</ele><time>2026-04-24T07:27:13.993Z</time></trkpt><trkpt lat="43.6786108" lon="12.0420232"><ele>470.5</ele><time>2026-04-24T07:27:14.993Z</time></trkpt><trkpt lat="43.6787403" lon="12.041944"><ele>473.25</ele><time>2026-04-24T07:27:15.993Z</time></trkpt><trkpt lat="43.678839" lon="12.041833"><ele>476.0</ele><time>2026-04-24T07:27:16.993Z</time></trkpt><trkpt lat="43.6789005" lon="12.0416861"><ele>472.25</ele><time>2026-04-24T07:27:17.993Z</time></trkpt><trkpt lat="43.6789147" lon="12.0415263"><ele>468.5</ele><time>2026-04-24T07:27:18.993Z</time></trkpt><trkpt lat="43.6788748" lon="12.0413714"><ele>464.75</ele><time>2026-04-24T07:27:19.993Z</time></trkpt><trkpt lat="43.6787909" lon="12.0412551"><ele>461.0</ele><time>2026-04-24T07:27:20.993Z</time></trkpt><trkpt lat="43.6786735" lon="12.0411845"><ele>458.66666666666663</ele><time>2026-04-24T07:27:21.993Z</time></trkpt><trkpt lat="43.6785164" lon="12.0411657"><ele>456.33333333333337</ele><time>2026-04-24T07:27:22.993Z</time></trkpt><trkpt lat="43.6783398" lon="12.0411625"><ele>454.0</ele><time>2026-04-24T07:27:23.993Z</time></trkpt><trkpt lat="43.6781469" lon="12.0411546"><ele>454.0</ele><time>2026-04-24T07:27:24.993Z</time></trkpt><trkpt lat="43.6779393" lon="12.0411474"><ele>454.0</ele><time>2026-04-24T07:27:25.993Z</time></trkpt><trkpt lat="43.677723" lon="12.0411485"><ele>454.0</ele><time>2026-04-24T07:27:26.995Z</time></trkpt><trkpt lat="43.6775025" lon="12.0411418"><ele>452.0</ele><time>2026-04-24T07:27:27.993Z</time></trkpt><trkpt lat="43.6772813" lon="12.0411357"><ele>450.0</ele><time>2026-04-24T07:27:28.993Z</time></trkpt><trkpt lat="43.6770677" lon="12.0411266"><ele>448.0</ele><time>2026-04-24T07:27:29.993Z</time></trkpt><trkpt lat="43.6768616" lon="12.0411175"><ele>447.0</ele><time>2026-04-24T07:27:30.994Z</time></trkpt><trkpt lat="43.6766633" lon="12.041109"><ele>446.0</ele><time>2026-04-24T07:27:31.993Z</time></trkpt><trkpt lat="43.6764733" lon="12.041105"><ele>445.0</ele><time>2026-04-24T07:27:32.993Z</time></trkpt><trkpt lat="43.6762882" lon="12.0411116"><ele>443.0</ele><time>2026-04-24T07:27:33.993Z</time></trkpt><trkpt lat="43.6761" lon="12.0411371"><ele>441.0</ele><time>2026-04-24T07:27:34.993Z</time></trkpt><trkpt lat="43.6759065" lon="12.0411911"><ele>439.0</ele><time>2026-04-24T07:27:35.994Z</time></trkpt><trkpt lat="43.6757075" lon="12.0412605"><ele>439.0</ele><time>2026-04-24T07:27:36.994Z</time></trkpt><trkpt lat="43.6755067" lon="12.0413363"><ele>439.0</ele><time>2026-04-24T07:27:37.993Z</time></trkpt><trkpt lat="43.6753074" lon="12.0414108"><ele>439.0</ele><time>2026-04-24T07:27:38.993Z</time></trkpt><trkpt lat="43.6751099" lon="12.0414784"><ele>439.0</ele><time>2026-04-24T07:27:39.993Z</time></trkpt><trkpt lat="43.6749172" lon="12.0415449"><ele>439.0</ele><time>2026-04-24T07:27:40.993Z</time></trkpt><trkpt lat="43.6747315" lon="12.0416075"><ele>439.0</ele><time>2026-04-24T07:27:41.993Z</time></trkpt><trkpt lat="43.6745553" lon="12.0416715"><ele>439.6666666666667</ele><time>2026-04-24T07:27:42.993Z</time></trkpt><trkpt lat="43.6743873" lon="12.041728"><ele>440.33333333333337</ele><time>2026-04-24T07:27:43.995Z</time></trkpt><trkpt lat="43.6742255" lon="12.0417865"><ele>441.0</ele><time>2026-04-24T07:27:44.993Z</time></trkpt><trkpt lat="43.6740664" lon="12.0418474"><ele>441.0</ele><time>2026-04-24T07:27:45.994Z</time></trkpt><trkpt lat="43.6739078" lon="12.0419066"><ele>441.0</ele><time>2026-04-24T07:27:46.993Z</time></trkpt><trkpt lat="43.6737538" lon="12.0419546"><ele>441.0</ele><time>2026-04-24T07:27:47.993Z</time></trkpt><trkpt lat="43.6735999" lon="12.0419941"><ele>440.25</ele><time>2026-04-24T07:27:48.994Z</time></trkpt><trkpt lat="43.6734511" lon="12.0420127"><ele>439.5</ele><time>2026-04-24T07:27:49.993Z</time></trkpt><trkpt lat="43.6733052" lon="12.0420014"><ele>438.75</ele><time>2026-04-24T07:27:50.993Z</time></trkpt><trkpt lat="43.6731567" lon="12.0419756"><ele>438.0</ele><time>2026-04-24T07:27:51.993Z</time></trkpt><trkpt lat="43.673007" lon="12.0419487"><ele>438.0</ele><time>2026-04-24T07:27:52.993Z</time></trkpt><trkpt lat="43.6728566" lon="12.0419253"><ele>438.0</ele><time>2026-04-24T07:27:53.993Z</time></trkpt><trkpt lat="43.6727048" lon="12.0419053"><ele>438.0</ele><time>2026-04-24T07:27:54.994Z</time></trkpt><trkpt lat="43.6725521" lon="12.0418953"><ele>437.66666666666663</ele><time>2026-04-24T07:27:55.994Z</time></trkpt><trkpt lat="43.6723956" lon="12.0419062"><ele>437.3333333333333</ele><time>2026-04-24T07:27:56.993Z</time></trkpt><trkpt lat="43.6722394" lon="12.0419343"><ele>437.0</ele><time>2026-04-24T07:27:57.993Z</time></trkpt><trkpt lat="43.672082" lon="12.0419585"><ele>436.3333333333333</ele><time>2026-04-24T07:27:58.994Z</time></trkpt><trkpt lat="43.671923" lon="12.0419772"><ele>435.66666666666663</ele><time>2026-04-24T07:27:59.993Z</time></trkpt><trkpt lat="43.6717556" lon="12.0420006"><ele>435.0</ele><time>2026-04-24T07:28:00.993Z</time></trkpt><trkpt lat="43.6715975" lon="12.0420187"><ele>435.0</ele><time>2026-04-24T07:28:01.993Z</time></trkpt><trkpt lat="43.6714398" lon="12.0420418"><ele>435.0</ele><time>2026-04-24T07:28:02.993Z</time></trkpt><trkpt lat="43.6712808" lon="12.0420826"><ele>435.0</ele><time>2026-04-24T07:28:03.994Z</time></trkpt><trkpt lat="43.6711253" lon="12.0421472"><ele>435.0</ele><time>2026-04-24T07:28:04.994Z</time></trkpt><trkpt lat="43.6709679" lon="12.042217"><ele>435.0</ele><time>2026-04-24T07:28:05.994Z</time></trkpt><trkpt lat="43.6708082" lon="12.0422974"><ele>435.0</ele><time>2026-04-24T07:28:06.993Z</time></trkpt><trkpt lat="43.6706433" lon="12.0423815"><ele>435.0</ele><time>2026-04-24T07:28:07.993Z</time></trkpt><trkpt lat="43.6704756" lon="12.0424526"><ele>435.0</ele><time>2026-04-24T07:28:08.993Z</time></trkpt><trkpt lat="43.6703044" lon="12.0424917"><ele>435.0</ele><time>2026-04-24T07:28:09.993Z</time></trkpt><trkpt lat="43.6701326" lon="12.0425244"><ele>434.33333333333337</ele><time>2026-04-24T07:28:10.994Z</time></trkpt><trkpt lat="43.6699632" lon="12.0425599"><ele>433.6666666666667</ele><time>2026-04-24T07:28:11.993Z</time></trkpt><trkpt lat="43.6698046" lon="12.0426012"><ele>433.0</ele><time>2026-04-24T07:28:12.993Z</time></trkpt><trkpt lat="43.669652" lon="12.0426463"><ele>433.0</ele><time>2026-04-24T07:28:13.993Z</time></trkpt><trkpt lat="43.6695115" lon="12.0426968"><ele>433.0</ele><time>2026-04-24T07:28:14.993Z</time></trkpt><trkpt lat="43.6693794" lon="12.0427565"><ele>433.0</ele><time>2026-04-24T07:28:15.993Z</time></trkpt><trkpt lat="43.6692602" lon="12.0428207"><ele>433.0</ele><time>2026-04-24T07:28:16.994Z</time></trkpt><trkpt lat="43.6691678" lon="12.0428827"><ele>432.83333333333337</ele><time>2026-04-24T07:28:17.993Z</time></trkpt><trkpt lat="43.669088" lon="12.0429375"><ele>432.6666666666667</ele><time>2026-04-24T07:28:18.993Z</time></trkpt><trkpt lat="43.6690195" lon="12.0429866"><ele>432.5</ele><time>2026-04-24T07:28:19.993Z</time></trkpt><trkpt lat="43.6689534" lon="12.0430332"><ele>432.33333333333337</ele><time>2026-04-24T07:28:20.993Z</time></trkpt><trkpt lat="43.6688906" lon="12.043078"><ele>432.1666666666667</ele><time>2026-04-24T07:28:21.993Z</time></trkpt><trkpt lat="43.6688246" lon="12.0431321"><ele>432.0</ele><time>2026-04-24T07:28:22.993Z</time></trkpt><trkpt lat="43.668751" lon="12.0431911"><ele>432.0</ele><time>2026-04-24T07:28:23.993Z</time></trkpt><trkpt lat="43.6686679" lon="12.0432552"><ele>432.00000000000006</ele><time>2026-04-24T07:28:24.993Z</time></trkpt><trkpt lat="43.6685791" lon="12.0433215"><ele>432.00000000000006</ele><time>2026-04-24T07:28:25.993Z</time></trkpt><trkpt lat="43.668483" lon="12.0433897"><ele>432.0</ele><time>2026-04-24T07:28:26.993Z</time></trkpt><trkpt lat="43.6683809" lon="12.0434589"><ele>432.0</ele><time>2026-04-24T07:28:27.994Z</time></trkpt><trkpt lat="43.668272" lon="12.0435266"><ele>432.20000000000005</ele><time>2026-04-24T07:28:28.994Z</time></trkpt><trkpt lat="43.6681666" lon="12.0435848"><ele>432.40000000000003</ele><time>2026-04-24T07:28:29.993Z</time></trkpt><trkpt lat="43.6680663" lon="12.0436287"><ele>432.59999999999997</ele><time>2026-04-24T07:28:30.993Z</time></trkpt><trkpt lat="43.6679709" lon="12.0436509"><ele>432.79999999999995</ele><time>2026-04-24T07:28:31.993Z</time></trkpt><trkpt lat="43.6678853" lon="12.0436643"><ele>433.0</ele><time>2026-04-24T07:28:32.993Z</time></trkpt><trkpt lat="43.6678067" lon="12.0436651"><ele>432.50000000000006</ele><time>2026-04-24T07:28:33.993Z</time></trkpt><trkpt lat="43.6677369" lon="12.0436462"><ele>432.0</ele><time>2026-04-24T07:28:34.993Z</time></trkpt><trkpt lat="43.667675" lon="12.0436062"><ele>431.5</ele><time>2026-04-24T07:28:35.993Z</time></trkpt><trkpt lat="43.6676226" lon="12.0435528"><ele>431.0</ele><time>2026-04-24T07:28:36.994Z</time></trkpt><trkpt lat="43.667504" lon="12.0435356"><ele>430.50000000000006</ele><time>2026-04-24T07:28:38.993Z</time></trkpt><trkpt lat="43.6674478" lon="12.0435929"><ele>430.0</ele><time>2026-04-24T07:28:39.993Z</time></trkpt><trkpt lat="43.6674102" lon="12.0436736"><ele>430.0</ele><time>2026-04-24T07:28:40.993Z</time></trkpt><trkpt lat="43.6673735" lon="12.0437583"><ele>430.0</ele><time>2026-04-24T07:28:41.993Z</time></trkpt><trkpt lat="43.6673185" lon="12.04388"><ele>430.0</ele><time>2026-04-24T07:28:43.993Z</time></trkpt><trkpt lat="43.6672182" lon="12.0440231"><ele>430.0</ele><time>2026-04-24T07:28:45.993Z</time></trkpt><trkpt lat="43.6671402" lon="12.0441253"><ele>430.0</ele><time>2026-04-24T07:28:46.994Z</time></trkpt><trkpt lat="43.6670473" lon="12.0442508"><ele>431.0</ele><time>2026-04-24T07:28:47.993Z</time></trkpt><trkpt lat="43.6669412" lon="12.0443911"><ele>432.0</ele><time>2026-04-24T07:28:48.993Z</time></trkpt><trkpt lat="43.6668162" lon="12.0445507"><ele>433.0</ele><time>2026-04-24T07:28:49.993Z</time></trkpt><trkpt lat="43.6666857" lon="12.0447222"><ele>433.0</ele><time>2026-04-24T07:28:50.993Z</time></trkpt><trkpt lat="43.666546" lon="12.0449119"><ele>433.0</ele><time>2026-04-24T07:28:51.994Z</time></trkpt><trkpt lat="43.6664008" lon="12.0451106"><ele>433.0</ele><time>2026-04-24T07:28:52.993Z</time></trkpt><trkpt lat="43.6662544" lon="12.0453111"><ele>433.6666666666667</ele><time>2026-04-24T07:28:53.993Z</time></trkpt><trkpt lat="43.66611" lon="12.0455073"><ele>434.33333333333337</ele><time>2026-04-24T07:28:54.994Z</time></trkpt><trkpt lat="43.665974" lon="12.0456895"><ele>435.0</ele><time>2026-04-24T07:28:55.993Z</time></trkpt><trkpt lat="43.6658456" lon="12.0458637"><ele>435.33333333333337</ele><time>2026-04-24T07:28:56.993Z</time></trkpt><trkpt lat="43.665734" lon="12.0460147"><ele>435.6666666666667</ele><time>2026-04-24T07:28:57.994Z</time></trkpt><trkpt lat="43.6656258" lon="12.0461583"><ele>436.0</ele><time>2026-04-24T07:28:58.993Z</time></trkpt><trkpt lat="43.6655183" lon="12.0462897"><ele>436.0</ele><time>2026-04-24T07:28:59.993Z</time></trkpt><trkpt lat="43.6654044" lon="12.0463908"><ele>436.0</ele><time>2026-04-24T07:29:00.993Z</time></trkpt><trkpt lat="43.6652789" lon="12.0464519"><ele>436.0</ele><time>2026-04-24T07:29:01.993Z</time></trkpt><trkpt lat="43.6651448" lon="12.0464634"><ele>436.0</ele><time>2026-04-24T07:29:02.993Z</time></trkpt><trkpt lat="43.6650102" lon="12.0464241"><ele>436.5</ele><time>2026-04-24T07:29:03.994Z</time></trkpt><trkpt lat="43.6648762" lon="12.0463527"><ele>437.0</ele><time>2026-04-24T07:29:04.993Z</time></trkpt><trkpt lat="43.6647408" lon="12.046293"><ele>437.5</ele><time>2026-04-24T07:29:05.993Z</time></trkpt><trkpt lat="43.6646051" lon="12.0462568"><ele>438.0</ele><time>2026-04-24T07:29:06.993Z</time></trkpt><trkpt lat="43.6644779" lon="12.0462496"><ele>438.0</ele><time>2026-04-24T07:29:07.994Z</time></trkpt><trkpt lat="43.6643561" lon="12.0462675"><ele>438.0</ele><time>2026-04-24T07:29:08.993Z</time></trkpt><trkpt lat="43.6642412" lon="12.0463223"><ele>438.0</ele><time>2026-04-24T07:29:09.993Z</time></trkpt><trkpt lat="43.6641248" lon="12.0464095"><ele>438.0</ele><time>2026-04-24T07:29:10.993Z</time></trkpt><trkpt lat="43.6640333" lon="12.0465527"><ele>439.66666666666663</ele><time>2026-04-24T07:29:11.993Z</time></trkpt><trkpt lat="43.6639457" lon="12.046714"><ele>441.3333333333333</ele><time>2026-04-24T07:29:12.994Z</time></trkpt><trkpt lat="43.663867" lon="12.0469005"><ele>443.0</ele><time>2026-04-24T07:29:13.993Z</time></trkpt><trkpt lat="43.6637834" lon="12.0470952"><ele>443.0</ele><time>2026-04-24T07:29:14.993Z</time></trkpt><trkpt lat="43.6636983" lon="12.047303"><ele>443.0</ele><time>2026-04-24T07:29:15.993Z</time></trkpt><trkpt lat="43.6636104" lon="12.0475104"><ele>443.0</ele><time>2026-04-24T07:29:16.993Z</time></trkpt><trkpt lat="43.6635276" lon="12.0477109"><ele>441.0</ele><time>2026-04-24T07:29:17.993Z</time></trkpt><trkpt lat="43.6634504" lon="12.0479021"><ele>439.0</ele><time>2026-04-24T07:29:18.993Z</time></trkpt><trkpt lat="43.6633756" lon="12.0480833"><ele>437.0</ele><time>2026-04-24T07:29:19.993Z</time></trkpt><trkpt lat="43.6632994" lon="12.0482578"><ele>438.25</ele><time>2026-04-24T07:29:20.994Z</time></trkpt><trkpt lat="43.6632295" lon="12.0484198"><ele>439.5</ele><time>2026-04-24T07:29:21.994Z</time></trkpt><trkpt lat="43.663169" lon="12.0485674"><ele>440.75</ele><time>2026-04-24T07:29:22.993Z</time></trkpt><trkpt lat="43.6631157" lon="12.0486965"><ele>442.0</ele><time>2026-04-24T07:29:23.994Z</time></trkpt><trkpt lat="43.6630669" lon="12.0488143"><ele>442.0</ele><time>2026-04-24T07:29:24.994Z</time></trkpt><trkpt lat="43.6630282" lon="12.0489093"><ele>442.00000000000006</ele><time>2026-04-24T07:29:25.994Z</time></trkpt><trkpt lat="43.663031" lon="12.0490526"><ele>442.00000000000006</ele><time>2026-04-24T07:29:27.993Z</time></trkpt><trkpt lat="43.6631351" lon="12.0490705"><ele>442.0</ele><time>2026-04-24T07:29:29.994Z</time></trkpt><trkpt lat="43.6631967" lon="12.0489944"><ele>442.0</ele><time>2026-04-24T07:29:30.993Z</time></trkpt><trkpt lat="43.6632549" lon="12.0488496"><ele>442.0</ele><time>2026-04-24T07:29:31.994Z</time></trkpt><trkpt lat="43.6633172" lon="12.0486615"><ele>442.0</ele><time>2026-04-24T07:29:32.993Z</time></trkpt><trkpt lat="43.6633737" lon="12.0485182"><ele>442.0</ele><time>2026-04-24T07:29:33.993Z</time></trkpt><trkpt lat="43.6634271" lon="12.0483975"><ele>442.0</ele><time>2026-04-24T07:29:34.993Z</time></trkpt><trkpt lat="43.6634781" lon="12.0482973"><ele>441.0</ele><time>2026-04-24T07:29:35.993Z</time></trkpt><trkpt lat="43.6635213" lon="12.0482275"><ele>440.00000000000006</ele><time>2026-04-24T07:29:36.994Z</time></trkpt><trkpt lat="43.6635777" lon="12.0481259"><ele>439.00000000000006</ele><time>2026-04-24T07:29:38.993Z</time></trkpt><trkpt lat="43.6636453" lon="12.0480859"><ele>438.0</ele><time>2026-04-24T07:33:47.992Z</time></trkpt><trkpt lat="43.6636655" lon="12.04799"><ele>437.0</ele><time>2026-04-24T07:33:50.992Z</time></trkpt><trkpt lat="43.6635018" lon="12.0482"><ele>438.0</ele><time>2026-04-24T07:33:55.992Z</time></trkpt><trkpt lat="43.6634608" lon="12.0483043"><ele>439.00000000000006</ele><time>2026-04-24T07:33:56.992Z</time></trkpt><trkpt lat="43.6634131" lon="12.0484257"><ele>440.00000000000006</ele><time>2026-04-24T07:33:57.992Z</time></trkpt><trkpt lat="43.6633744" lon="12.0485428"><ele>441.0</ele><time>2026-04-24T07:33:58.993Z</time></trkpt><trkpt lat="43.6633373" lon="12.0486595"><ele>442.0</ele><time>2026-04-24T07:33:59.992Z</time></trkpt><trkpt lat="43.6632991" lon="12.0487709"><ele>442.00000000000006</ele><time>2026-04-24T07:34:00.992Z</time></trkpt><trkpt lat="43.66326" lon="12.0488777"><ele>442.0</ele><time>2026-04-24T07:34:01.992Z</time></trkpt><trkpt lat="43.6632189" lon="12.0489607"><ele>442.0</ele><time>2026-04-24T07:34:02.992Z</time></trkpt><trkpt lat="43.6631691" lon="12.0490182"><ele>442.0</ele><time>2026-04-24T07:34:03.992Z</time></trkpt><trkpt lat="43.6630802" lon="12.0490316"><ele>442.00000000000006</ele><time>2026-04-24T07:34:05.994Z</time></trkpt><trkpt lat="43.6630529" lon="12.0489047"><ele>442.0</ele><time>2026-04-24T07:34:08.993Z</time></trkpt><trkpt lat="43.6630952" lon="12.0488096"><ele>442.0</ele><time>2026-04-24T07:34:09.993Z</time></trkpt><trkpt lat="43.6631465" lon="12.0486887"><ele>442.0</ele><time>2026-04-24T07:34:10.992Z</time></trkpt><trkpt lat="43.6632111" lon="12.0485376"><ele>442.0</ele><time>2026-04-24T07:34:11.992Z</time></trkpt><trkpt lat="43.6632805" lon="12.0483711"><ele>442.0</ele><time>2026-04-24T07:34:12.993Z</time></trkpt><trkpt lat="43.663356" lon="12.0481876"><ele>440.33333333333337</ele><time>2026-04-24T07:34:13.992Z</time></trkpt><trkpt lat="43.6634361" lon="12.047988"><ele>438.66666666666663</ele><time>2026-04-24T07:34:14.992Z</time></trkpt><trkpt lat="43.663522" lon="12.0477835"><ele>437.0</ele><time>2026-04-24T07:34:15.993Z</time></trkpt><trkpt lat="43.6636112" lon="12.0475711"><ele>439.0</ele><time>2026-04-24T07:34:16.992Z</time></trkpt><trkpt lat="43.6636955" lon="12.0473685"><ele>441.0</ele><time>2026-04-24T07:34:17.993Z</time></trkpt><trkpt lat="43.6637795" lon="12.0471661"><ele>443.0</ele><time>2026-04-24T07:34:18.992Z</time></trkpt><trkpt lat="43.6638591" lon="12.0469636"><ele>443.0</ele><time>2026-04-24T07:34:19.992Z</time></trkpt><trkpt lat="43.6639407" lon="12.0467683"><ele>443.0</ele><time>2026-04-24T07:34:20.993Z</time></trkpt><trkpt lat="43.6640365" lon="12.0465963"><ele>443.0</ele><time>2026-04-24T07:34:21.992Z</time></trkpt><trkpt lat="43.6641534" lon="12.0464603"><ele>441.3333333333333</ele><time>2026-04-24T07:34:22.993Z</time></trkpt><trkpt lat="43.6642893" lon="12.0463616"><ele>439.66666666666663</ele><time>2026-04-24T07:34:23.992Z</time></trkpt><trkpt lat="43.6644398" lon="12.0463144"><ele>438.0</ele><time>2026-04-24T07:34:24.992Z</time></trkpt><trkpt lat="43.6645927" lon="12.0463178"><ele>438.0</ele><time>2026-04-24T07:34:25.994Z</time></trkpt><trkpt lat="43.6647418" lon="12.0463635"><ele>438.0</ele><time>2026-04-24T07:34:26.992Z</time></trkpt><trkpt lat="43.6648859" lon="12.0464245"><ele>438.0</ele><time>2026-04-24T07:34:27.993Z</time></trkpt><trkpt lat="43.665027" lon="12.0464786"><ele>438.0</ele><time>2026-04-24T07:34:28.992Z</time></trkpt><trkpt lat="43.665173" lon="12.0465023"><ele>438.0</ele><time>2026-04-24T07:34:29.992Z</time></trkpt><trkpt lat="43.6653208" lon="12.0464813"><ele>438.0</ele><time>2026-04-24T07:34:30.992Z</time></trkpt><trkpt lat="43.6654599" lon="12.0464004"><ele>438.0</ele><time>2026-04-24T07:34:31.992Z</time></trkpt><trkpt lat="43.665584" lon="12.0462653"><ele>437.33333333333337</ele><time>2026-04-24T07:34:32.993Z</time></trkpt><trkpt lat="43.6657019" lon="12.046102"><ele>436.6666666666667</ele><time>2026-04-24T07:34:33.992Z</time></trkpt><trkpt lat="43.6658253" lon="12.0459313"><ele>436.0</ele><time>2026-04-24T07:34:34.992Z</time></trkpt><trkpt lat="43.6659505" lon="12.045754"><ele>435.6666666666667</ele><time>2026-04-24T07:34:35.992Z</time></trkpt><trkpt lat="43.6660804" lon="12.0455789"><ele>435.33333333333337</ele><time>2026-04-24T07:34:36.992Z</time></trkpt><trkpt lat="43.6662135" lon="12.0454061"><ele>435.0</ele><time>2026-04-24T07:34:37.993Z</time></trkpt><trkpt lat="43.6663445" lon="12.0452382"><ele>435.0</ele><time>2026-04-24T07:34:38.992Z</time></trkpt><trkpt lat="43.6664732" lon="12.0450753"><ele>435.0</ele><time>2026-04-24T07:34:39.992Z</time></trkpt><trkpt lat="43.6665961" lon="12.0449159"><ele>435.0</ele><time>2026-04-24T07:34:40.992Z</time></trkpt><trkpt lat="43.6667159" lon="12.0447576"><ele>435.0</ele><time>2026-04-24T07:34:41.992Z</time></trkpt><trkpt lat="43.6668275" lon="12.0446027"><ele>435.0</ele><time>2026-04-24T07:34:42.993Z</time></trkpt><trkpt lat="43.6669325" lon="12.0444585"><ele>435.0</ele><time>2026-04-24T07:34:43.992Z</time></trkpt><trkpt lat="43.6670337" lon="12.04432"><ele>435.0</ele><time>2026-04-24T07:34:44.992Z</time></trkpt><trkpt lat="43.6671268" lon="12.0441881"><ele>434.0</ele><time>2026-04-24T07:34:45.992Z</time></trkpt><trkpt lat="43.6672111" lon="12.0440715"><ele>433.0</ele><time>2026-04-24T07:34:46.992Z</time></trkpt><trkpt lat="43.6672919" lon="12.0439676"><ele>432.0</ele><time>2026-04-24T07:34:47.992Z</time></trkpt><trkpt lat="43.6673731" lon="12.0438871"><ele>431.0</ele><time>2026-04-24T07:34:48.992Z</time></trkpt><trkpt lat="43.6674533" lon="12.0438251"><ele>430.0</ele><time>2026-04-24T07:34:49.992Z</time></trkpt><trkpt lat="43.6675268" lon="12.0437751"><ele>430.00000000000006</ele><time>2026-04-24T07:34:50.992Z</time></trkpt><trkpt lat="43.6675781" lon="12.0437006"><ele>430.0</ele><time>2026-04-24T07:34:51.993Z</time></trkpt><trkpt lat="43.6675997" lon="12.0436006"><ele>430.0</ele><time>2026-04-24T07:34:52.992Z</time></trkpt><trkpt lat="43.6675852" lon="12.0434937"><ele>430.0</ele><time>2026-04-24T07:34:53.992Z</time></trkpt><trkpt lat="43.6675528" lon="12.0433672"><ele>430.00000000000006</ele><time>2026-04-24T07:34:54.992Z</time></trkpt><trkpt lat="43.6675396" lon="12.0432021"><ele>430.0</ele><time>2026-04-24T07:34:55.992Z</time></trkpt><trkpt lat="43.6675341" lon="12.043021"><ele>429.75</ele><time>2026-04-24T07:34:56.992Z</time></trkpt><trkpt lat="43.6675327" lon="12.0428314"><ele>429.5</ele><time>2026-04-24T07:34:57.992Z</time></trkpt><trkpt lat="43.6675361" lon="12.0426374"><ele>429.25</ele><time>2026-04-24T07:34:58.992Z</time></trkpt><trkpt lat="43.6675363" lon="12.0424438"><ele>429.0</ele><time>2026-04-24T07:34:59.992Z</time></trkpt><trkpt lat="43.6675435" lon="12.0422481"><ele>429.75</ele><time>2026-04-24T07:35:00.992Z</time></trkpt><trkpt lat="43.6675728" lon="12.0420595"><ele>430.5</ele><time>2026-04-24T07:35:01.992Z</time></trkpt><trkpt lat="43.6676402" lon="12.0418884"><ele>431.25</ele><time>2026-04-24T07:35:02.992Z</time></trkpt><trkpt lat="43.6677391" lon="12.0417514"><ele>432.0</ele><time>2026-04-24T07:35:03.992Z</time></trkpt><trkpt lat="43.6678601" lon="12.0416507"><ele>433.0</ele><time>2026-04-24T07:35:04.992Z</time></trkpt><trkpt lat="43.6679895" lon="12.0415659"><ele>434.0</ele><time>2026-04-24T07:35:05.992Z</time></trkpt><trkpt lat="43.6681238" lon="12.0414861"><ele>435.0</ele><time>2026-04-24T07:35:06.993Z</time></trkpt><trkpt lat="43.6682617" lon="12.0414032"><ele>436.0</ele><time>2026-04-24T07:35:07.992Z</time></trkpt><trkpt lat="43.668398" lon="12.0413147"><ele>436.0</ele><time>2026-04-24T07:35:08.993Z</time></trkpt><trkpt lat="43.6685329" lon="12.0412174"><ele>436.0</ele><time>2026-04-24T07:35:09.992Z</time></trkpt><trkpt lat="43.6686709" lon="12.0411215"><ele>436.0</ele><time>2026-04-24T07:35:10.992Z</time></trkpt><trkpt lat="43.6688055" lon="12.0410259"><ele>436.0</ele><time>2026-04-24T07:35:11.993Z</time></trkpt><trkpt lat="43.6689391" lon="12.0409329"><ele>436.0</ele><time>2026-04-24T07:35:12.992Z</time></trkpt><trkpt lat="43.6690719" lon="12.0408434"><ele>436.0</ele><time>2026-04-24T07:35:13.992Z</time></trkpt><trkpt lat="43.6692045" lon="12.0407566"><ele>436.0</ele><time>2026-04-24T07:35:14.992Z</time></trkpt><trkpt lat="43.6693351" lon="12.0406695"><ele>436.25</ele><time>2026-04-24T07:35:15.993Z</time></trkpt><trkpt lat="43.6694615" lon="12.0405819"><ele>436.5</ele><time>2026-04-24T07:35:16.992Z</time></trkpt><trkpt lat="43.6695879" lon="12.0404967"><ele>436.75</ele><time>2026-04-24T07:35:17.992Z</time></trkpt><trkpt lat="43.6697082" lon="12.0404193"><ele>437.0</ele><time>2026-04-24T07:35:18.993Z</time></trkpt><trkpt lat="43.6698205" lon="12.0403449"><ele>437.0</ele><time>2026-04-24T07:35:19.992Z</time></trkpt><trkpt lat="43.669922" lon="12.0402767"><ele>437.00000000000006</ele><time>2026-04-24T07:35:20.994Z</time></trkpt><trkpt lat="43.6700164" lon="12.0402109"><ele>437.00000000000006</ele><time>2026-04-24T07:35:21.992Z</time></trkpt><trkpt lat="43.670106" lon="12.0401539"><ele>437.0</ele><time>2026-04-24T07:35:22.992Z</time></trkpt><trkpt lat="43.6701895" lon="12.0400974"><ele>437.0</ele><time>2026-04-24T07:35:23.992Z</time></trkpt><trkpt lat="43.6702674" lon="12.0400439"><ele>436.85714285714283</ele><time>2026-04-24T07:35:24.992Z</time></trkpt><trkpt lat="43.6703249" lon="12.0399838"><ele>436.7142857142857</ele><time>2026-04-24T07:35:25.992Z</time></trkpt><trkpt lat="43.6703577" lon="12.0399015"><ele>436.57142857142856</ele><time>2026-04-24T07:35:26.992Z</time></trkpt><trkpt lat="43.6703555" lon="12.0398059"><ele>436.42857142857144</ele><time>2026-04-24T07:35:27.992Z</time></trkpt><trkpt lat="43.6703256" lon="12.0397092"><ele>436.28571428571433</ele><time>2026-04-24T07:35:28.993Z</time></trkpt><trkpt lat="43.6702921" lon="12.0396128"><ele>436.14285714285717</ele><time>2026-04-24T07:35:29.992Z</time></trkpt><trkpt lat="43.6702555" lon="12.0395102"><ele>436.0</ele><time>2026-04-24T07:35:30.992Z</time></trkpt><trkpt lat="43.6702175" lon="12.0393977"><ele>436.4</ele><time>2026-04-24T07:35:31.992Z</time></trkpt><trkpt lat="43.6701801" lon="12.039277"><ele>436.8</ele><time>2026-04-24T07:35:32.992Z</time></trkpt><trkpt lat="43.6701471" lon="12.0391505"><ele>437.19999999999993</ele><time>2026-04-24T07:35:33.992Z</time></trkpt><trkpt lat="43.6701126" lon="12.0390201"><ele>437.59999999999997</ele><time>2026-04-24T07:35:34.992Z</time></trkpt><trkpt lat="43.6700724" lon="12.0388822"><ele>438.0</ele><time>2026-04-24T07:35:35.993Z</time></trkpt><trkpt lat="43.6700281" lon="12.0387338"><ele>438.25</ele><time>2026-04-24T07:35:36.992Z</time></trkpt><trkpt lat="43.6699905" lon="12.038566"><ele>438.5</ele><time>2026-04-24T07:35:37.992Z</time></trkpt><trkpt lat="43.6699956" lon="12.0383648"><ele>438.75</ele><time>2026-04-24T07:35:38.993Z</time></trkpt><trkpt lat="43.6700604" lon="12.0381457"><ele>439.0</ele><time>2026-04-24T07:35:39.992Z</time></trkpt><trkpt lat="43.6701669" lon="12.037921"><ele>439.0</ele><time>2026-04-24T07:35:40.992Z</time></trkpt><trkpt lat="43.6702933" lon="12.0376832"><ele>439.0</ele><time>2026-04-24T07:35:41.993Z</time></trkpt><trkpt lat="43.6704042" lon="12.0374477"><ele>439.0</ele><time>2026-04-24T07:35:42.992Z</time></trkpt><trkpt lat="43.6704823" lon="12.0372156"><ele>440.0</ele><time>2026-04-24T07:35:43.992Z</time></trkpt><trkpt lat="43.6705184" lon="12.0369734"><ele>441.0</ele><time>2026-04-24T07:35:44.992Z</time></trkpt><trkpt lat="43.6705356" lon="12.0367197"><ele>442.0</ele><time>2026-04-24T07:35:45.992Z</time></trkpt><trkpt lat="43.6704248" lon="12.0364326"><ele>443.6666666666667</ele><time>2026-04-24T07:35:46.992Z</time></trkpt><trkpt lat="43.6703609" lon="12.0361432"><ele>445.33333333333337</ele><time>2026-04-24T07:35:47.992Z</time></trkpt><trkpt lat="43.6703132" lon="12.0358738"><ele>447.0</ele><time>2026-04-24T07:35:48.992Z</time></trkpt><trkpt lat="43.6703106" lon="12.0356134"><ele>449.33333333333337</ele><time>2026-04-24T07:35:49.993Z</time></trkpt><trkpt lat="43.6703797" lon="12.0353599"><ele>451.6666666666667</ele><time>2026-04-24T07:35:50.992Z</time></trkpt><trkpt lat="43.6705013" lon="12.0351156"><ele>454.0</ele><time>2026-04-24T07:35:51.992Z</time></trkpt><trkpt lat="43.6706397" lon="12.0348589"><ele>459.0</ele><time>2026-04-24T07:35:52.992Z</time></trkpt><trkpt lat="43.6707805" lon="12.0345856"><ele>464.0</ele><time>2026-04-24T07:35:53.992Z</time></trkpt><trkpt lat="43.6709008" lon="12.0343385"><ele>467.0</ele><time>2026-04-24T07:35:54.992Z</time></trkpt><trkpt lat="43.6709949" lon="12.0340948"><ele>470.0</ele><time>2026-04-24T07:35:55.992Z</time></trkpt><trkpt lat="43.6710516" lon="12.0338273"><ele>473.0</ele><time>2026-04-24T07:35:56.992Z</time></trkpt><trkpt lat="43.6710656" lon="12.0335302"><ele>472.66666666666663</ele><time>2026-04-24T07:35:57.992Z</time></trkpt><trkpt lat="43.6710478" lon="12.0332445"><ele>472.33333333333337</ele><time>2026-04-24T07:35:58.992Z</time></trkpt><trkpt lat="43.6710012" lon="12.0329934"><ele>472.0</ele><time>2026-04-24T07:35:59.992Z</time></trkpt><trkpt lat="43.670902" lon="12.0327748"><ele>472.0</ele><time>2026-04-24T07:36:00.992Z</time></trkpt><trkpt lat="43.6707734" lon="12.0325826"><ele>472.0</ele><time>2026-04-24T07:36:01.993Z</time></trkpt><trkpt lat="43.6706762" lon="12.0323937"><ele>472.0</ele><time>2026-04-24T07:36:02.993Z</time></trkpt><trkpt lat="43.6706296" lon="12.0321805"><ele>472.33333333333337</ele><time>2026-04-24T07:36:03.992Z</time></trkpt><trkpt lat="43.6706553" lon="12.0319669"><ele>472.66666666666663</ele><time>2026-04-24T07:36:04.992Z</time></trkpt><trkpt lat="43.6707386" lon="12.0317613"><ele>473.0</ele><time>2026-04-24T07:36:05.992Z</time></trkpt><trkpt lat="43.670851" lon="12.0315485"><ele>474.0</ele><time>2026-04-24T07:36:06.992Z</time></trkpt><trkpt lat="43.6709816" lon="12.031313"><ele>475.0</ele><time>2026-04-24T07:36:07.992Z</time></trkpt><trkpt lat="43.6711208" lon="12.0310634"><ele>476.0</ele><time>2026-04-24T07:36:08.992Z</time></trkpt><trkpt lat="43.6712438" lon="12.0308417"><ele>476.66666666666663</ele><time>2026-04-24T07:36:09.992Z</time></trkpt><trkpt lat="43.6713563" lon="12.0306346"><ele>477.33333333333337</ele><time>2026-04-24T07:36:10.992Z</time></trkpt><trkpt lat="43.6714411" lon="12.0304313"><ele>478.0</ele><time>2026-04-24T07:36:11.993Z</time></trkpt><trkpt lat="43.6714719" lon="12.0302217"><ele>478.0</ele><time>2026-04-24T07:36:12.992Z</time></trkpt><trkpt lat="43.6714349" lon="12.0300263"><ele>478.0</ele><time>2026-04-24T07:36:13.992Z</time></trkpt><trkpt lat="43.6713329" lon="12.0298535"><ele>478.0</ele><time>2026-04-24T07:36:14.992Z</time></trkpt><trkpt lat="43.6711891" lon="12.0296977"><ele>481.6666666666667</ele><time>2026-04-24T07:36:15.993Z</time></trkpt><trkpt lat="43.6710199" lon="12.0295339"><ele>485.33333333333337</ele><time>2026-04-24T07:36:16.992Z</time></trkpt><trkpt lat="43.6708451" lon="12.0293665"><ele>489.0</ele><time>2026-04-24T07:36:17.992Z</time></trkpt><trkpt lat="43.6706873" lon="12.0292206"><ele>490.0</ele><time>2026-04-24T07:36:18.993Z</time></trkpt><trkpt lat="43.6705382" lon="12.0291038"><ele>491.0</ele><time>2026-04-24T07:36:19.992Z</time></trkpt><trkpt lat="43.67041" lon="12.0290624"><ele>492.0</ele><time>2026-04-24T07:36:20.992Z</time></trkpt><trkpt lat="43.6702877" lon="12.0290937"><ele>493.0</ele><time>2026-04-24T07:36:21.992Z</time></trkpt><trkpt lat="43.6701795" lon="12.0292205"><ele>495.33333333333337</ele><time>2026-04-24T07:36:22.992Z</time></trkpt><trkpt lat="43.6700962" lon="12.0294207"><ele>497.66666666666663</ele><time>2026-04-24T07:36:23.992Z</time></trkpt><trkpt lat="43.6700233" lon="12.0296575"><ele>500.0</ele><time>2026-04-24T07:36:24.992Z</time></trkpt><trkpt lat="43.6699488" lon="12.0298758"><ele>500.0</ele><time>2026-04-24T07:36:25.993Z</time></trkpt><trkpt lat="43.6698817" lon="12.0300447"><ele>500.0</ele><time>2026-04-24T07:36:26.992Z</time></trkpt><trkpt lat="43.6698084" lon="12.0301528"><ele>500.0</ele><time>2026-04-24T07:36:27.992Z</time></trkpt><trkpt lat="43.6697225" lon="12.0301804"><ele>500.0</ele><time>2026-04-24T07:36:28.992Z</time></trkpt><trkpt lat="43.6696576" lon="12.0301093"><ele>500.0</ele><time>2026-04-24T07:36:29.992Z</time></trkpt><trkpt lat="43.6696388" lon="12.0299615"><ele>500.0</ele><time>2026-04-24T07:36:30.992Z</time></trkpt><trkpt lat="43.6696492" lon="12.0297779"><ele>500.0</ele><time>2026-04-24T07:36:31.992Z</time></trkpt><trkpt lat="43.6696509" lon="12.0295468"><ele>500.0</ele><time>2026-04-24T07:36:32.992Z</time></trkpt><trkpt lat="43.6696505" lon="12.0292697"><ele>501.0</ele><time>2026-04-24T07:36:33.991Z</time></trkpt><trkpt lat="43.6696504" lon="12.0289492"><ele>502.0</ele><time>2026-04-24T07:36:34.991Z</time></trkpt><trkpt lat="43.669651" lon="12.0286106"><ele>505.6666666666667</ele><time>2026-04-24T07:36:35.991Z</time></trkpt><trkpt lat="43.6696529" lon="12.0283063"><ele>509.33333333333337</ele><time>2026-04-24T07:36:36.991Z</time></trkpt><trkpt lat="43.6696695" lon="12.0280207"><ele>513.0</ele><time>2026-04-24T07:36:37.991Z</time></trkpt><trkpt lat="43.6697355" lon="12.0277763"><ele>513.0</ele><time>2026-04-24T07:36:38.991Z</time></trkpt><trkpt lat="43.6698597" lon="12.0275871"><ele>513.0</ele><time>2026-04-24T07:36:39.992Z</time></trkpt><trkpt lat="43.6700127" lon="12.02742"><ele>513.0</ele><time>2026-04-24T07:36:40.991Z</time></trkpt><trkpt lat="43.6701655" lon="12.0272564"><ele>511.5</ele><time>2026-04-24T07:36:41.991Z</time></trkpt><trkpt lat="43.6703031" lon="12.0271102"><ele>510.0</ele><time>2026-04-24T07:36:42.991Z</time></trkpt><trkpt lat="43.670424" lon="12.0269801"><ele>508.5</ele><time>2026-04-24T07:36:43.991Z</time></trkpt><trkpt lat="43.6705102" lon="12.0268652"><ele>507.0</ele><time>2026-04-24T07:36:44.991Z</time></trkpt><trkpt lat="43.6705442" lon="12.0267414"><ele>505.25</ele><time>2026-04-24T07:36:45.991Z</time></trkpt><trkpt lat="43.6705131" lon="12.0266242"><ele>503.5</ele><time>2026-04-24T07:36:46.991Z</time></trkpt><trkpt lat="43.6704297" lon="12.0265525"><ele>501.75</ele><time>2026-04-24T07:36:47.991Z</time></trkpt><trkpt lat="43.6703028" lon="12.0265414"><ele>500.0</ele><time>2026-04-24T07:36:48.992Z</time></trkpt><trkpt lat="43.6701477" lon="12.0265098"><ele>505.3333333333333</ele><time>2026-04-24T07:36:49.991Z</time></trkpt><trkpt lat="43.6699788" lon="12.0263862"><ele>510.66666666666663</ele><time>2026-04-24T07:36:50.991Z</time></trkpt><trkpt lat="43.6698123" lon="12.0262045"><ele>516.0</ele><time>2026-04-24T07:36:51.991Z</time></trkpt><trkpt lat="43.6696427" lon="12.0259675"><ele>515.3333333333334</ele><time>2026-04-24T07:36:52.992Z</time></trkpt><trkpt lat="43.669505" lon="12.0257571"><ele>514.6666666666667</ele><time>2026-04-24T07:36:53.992Z</time></trkpt><trkpt lat="43.6693946" lon="12.0255394"><ele>514.0</ele><time>2026-04-24T07:36:54.992Z</time></trkpt><trkpt lat="43.669294" lon="12.0252856"><ele>524.5</ele><time>2026-04-24T07:36:55.991Z</time></trkpt><trkpt lat="43.6691995" lon="12.0249924"><ele>535.0</ele><time>2026-04-24T07:36:56.991Z</time></trkpt><trkpt lat="43.6690715" lon="12.0247022"><ele>535.0</ele><time>2026-04-24T07:36:57.991Z</time></trkpt><trkpt lat="43.6689095" lon="12.0244381"><ele>535.0</ele><time>2026-04-24T07:36:58.991Z</time></trkpt><trkpt lat="43.668721" lon="12.0242203"><ele>543.5</ele><time>2026-04-24T07:36:59.992Z</time></trkpt><trkpt lat="43.6685063" lon="12.0240337"><ele>552.0</ele><time>2026-04-24T07:37:00.991Z</time></trkpt><trkpt lat="43.6683159" lon="12.0238929"><ele>552.0</ele><time>2026-04-24T07:37:01.991Z</time></trkpt><trkpt lat="43.6681707" lon="12.0237771"><ele>552.0</ele><time>2026-04-24T07:37:02.991Z</time></trkpt><trkpt lat="43.6680653" lon="12.0236768"><ele>552.0</ele><time>2026-04-24T07:37:03.991Z</time></trkpt><trkpt lat="43.6680085" lon="12.023563"><ele>552.0</ele><time>2026-04-24T07:37:04.992Z</time></trkpt><trkpt lat="43.668021" lon="12.0234369"><ele>552.0</ele><time>2026-04-24T07:37:05.991Z</time></trkpt><trkpt lat="43.6681017" lon="12.0233402"><ele>552.0</ele><time>2026-04-24T07:37:06.991Z</time></trkpt><trkpt lat="43.6682229" lon="12.0233039"><ele>552.0</ele><time>2026-04-24T07:37:07.991Z</time></trkpt><trkpt lat="43.6683672" lon="12.0232967"><ele>552.0</ele><time>2026-04-24T07:37:08.991Z</time></trkpt><trkpt lat="43.6684821" lon="12.0232505"><ele>551.6</ele><time>2026-04-24T07:37:09.991Z</time></trkpt><trkpt lat="43.6685607" lon="12.0231564"><ele>551.2</ele><time>2026-04-24T07:37:10.991Z</time></trkpt><trkpt lat="43.6685736" lon="12.0230363"><ele>550.8</ele><time>2026-04-24T07:37:11.991Z</time></trkpt><trkpt lat="43.6685243" lon="12.0229364"><ele>550.4</ele><time>2026-04-24T07:37:12.991Z</time></trkpt><trkpt lat="43.6684125" lon="12.0228826"><ele>550.0</ele><time>2026-04-24T07:37:13.991Z</time></trkpt><trkpt lat="43.668269" lon="12.0228653"><ele>550.0</ele><time>2026-04-24T07:37:14.992Z</time></trkpt><trkpt lat="43.6680843" lon="12.0228388"><ele>550.0</ele><time>2026-04-24T07:37:15.991Z</time></trkpt><trkpt lat="43.6679026" lon="12.0227769"><ele>550.0</ele><time>2026-04-24T07:37:16.991Z</time></trkpt><trkpt lat="43.6677638" lon="12.0226599"><ele>555.6666666666667</ele><time>2026-04-24T07:37:17.991Z</time></trkpt><trkpt lat="43.6676728" lon="12.0224778"><ele>561.3333333333334</ele><time>2026-04-24T07:37:18.991Z</time></trkpt><trkpt lat="43.6676464" lon="12.0222446"><ele>567.0</ele><time>2026-04-24T07:37:19.991Z</time></trkpt><trkpt lat="43.667662" lon="12.0219619"><ele>567.0</ele><time>2026-04-24T07:37:20.991Z</time></trkpt><trkpt lat="43.6676891" lon="12.0216629"><ele>567.0</ele><time>2026-04-24T07:37:21.991Z</time></trkpt><trkpt lat="43.6676997" lon="12.0214038"><ele>567.0</ele><time>2026-04-24T07:37:22.991Z</time></trkpt><trkpt lat="43.6676887" lon="12.0211832"><ele>567.0</ele><time>2026-04-24T07:37:23.991Z</time></trkpt><trkpt lat="43.6676266" lon="12.0210207"><ele>567.0</ele><time>2026-04-24T07:37:24.992Z</time></trkpt><trkpt lat="43.6675045" lon="12.0208852"><ele>567.0</ele><time>2026-04-24T07:37:25.992Z</time></trkpt><trkpt lat="43.6673434" lon="12.0207535"><ele>567.0</ele><time>2026-04-24T07:37:26.992Z</time></trkpt><trkpt lat="43.6671898" lon="12.0206152"><ele>567.0</ele><time>2026-04-24T07:37:27.992Z</time></trkpt><trkpt lat="43.6670806" lon="12.0204858"><ele>567.0</ele><time>2026-04-24T07:37:28.992Z</time></trkpt><trkpt lat="43.6670082" lon="12.0203362"><ele>567.0</ele><time>2026-04-24T07:37:29.991Z</time></trkpt><trkpt lat="43.6669897" lon="12.0201685"><ele>567.0</ele><time>2026-04-24T07:37:30.991Z</time></trkpt><trkpt lat="43.6670329" lon="12.0200048"><ele>567.0</ele><time>2026-04-24T07:37:31.991Z</time></trkpt><trkpt lat="43.6671393" lon="12.0198727"><ele>567.0</ele><time>2026-04-24T07:37:32.992Z</time></trkpt><trkpt lat="43.667286" lon="12.0197833"><ele>570.75</ele><time>2026-04-24T07:37:33.992Z</time></trkpt><trkpt lat="43.6674085" lon="12.0197173"><ele>574.5</ele><time>2026-04-24T07:37:34.991Z</time></trkpt><trkpt lat="43.6675019" lon="12.019608"><ele>578.25</ele><time>2026-04-24T07:37:35.991Z</time></trkpt><trkpt lat="43.6675495" lon="12.0194252"><ele>582.0</ele><time>2026-04-24T07:37:36.991Z</time></trkpt><trkpt lat="43.667576" lon="12.019194"><ele>583.6666666666666</ele><time>2026-04-24T07:37:37.991Z</time></trkpt><trkpt lat="43.6676016" lon="12.0189166"><ele>585.3333333333333</ele><time>2026-04-24T07:37:38.992Z</time></trkpt><trkpt lat="43.6676059" lon="12.0186153"><ele>587.0</ele><time>2026-04-24T07:37:39.992Z</time></trkpt><trkpt lat="43.6675624" lon="12.0183027"><ele>588.5</ele><time>2026-04-24T07:37:40.991Z</time></trkpt><trkpt lat="43.6674693" lon="12.0180139"><ele>590.0</ele><time>2026-04-24T07:37:41.991Z</time></trkpt><trkpt lat="43.667374" lon="12.0177313"><ele>590.3333333333333</ele><time>2026-04-24T07:37:42.991Z</time></trkpt><trkpt lat="43.6673235" lon="12.0174346"><ele>590.6666666666666</ele><time>2026-04-24T07:37:43.992Z</time></trkpt><trkpt lat="43.6673245" lon="12.0171185"><ele>591.0</ele><time>2026-04-24T07:37:44.992Z</time></trkpt><trkpt lat="43.667347" lon="12.0167737"><ele>596.0</ele><time>2026-04-24T07:37:45.991Z</time></trkpt><trkpt lat="43.6673945" lon="12.0164467"><ele>601.0</ele><time>2026-04-24T07:37:46.991Z</time></trkpt><trkpt lat="43.6674824" lon="12.0161696"><ele>601.0</ele><time>2026-04-24T07:37:47.991Z</time></trkpt><trkpt lat="43.6676222" lon="12.0159248"><ele>601.0</ele><time>2026-04-24T07:37:48.991Z</time></trkpt><trkpt lat="43.6677793" lon="12.0157316"><ele>601.0</ele><time>2026-04-24T07:37:49.991Z</time></trkpt><trkpt lat="43.6679626" lon="12.0156247"><ele>601.6666666666667</ele><time>2026-04-24T07:37:50.991Z</time></trkpt><trkpt lat="43.6681776" lon="12.0155678"><ele>602.3333333333334</ele><time>2026-04-24T07:37:51.992Z</time></trkpt><trkpt lat="43.668376" lon="12.0155119"><ele>603.0</ele><time>2026-04-24T07:37:52.991Z</time></trkpt><trkpt lat="43.6685546" lon="12.0154366"><ele>599.6666666666666</ele><time>2026-04-24T07:37:53.991Z</time></trkpt><trkpt lat="43.6687146" lon="12.0153106"><ele>596.3333333333333</ele><time>2026-04-24T07:37:54.992Z</time></trkpt><trkpt lat="43.6688507" lon="12.0151319"><ele>593.0</ele><time>2026-04-24T07:37:55.991Z</time></trkpt><trkpt lat="43.6689345" lon="12.0149189"><ele>593.0</ele><time>2026-04-24T07:37:56.991Z</time></trkpt><trkpt lat="43.6689615" lon="12.0146944"><ele>593.0</ele><time>2026-04-24T07:37:57.991Z</time></trkpt><trkpt lat="43.6689342" lon="12.0144894"><ele>593.0</ele><time>2026-04-24T07:37:58.991Z</time></trkpt><trkpt lat="43.6688572" lon="12.0143137"><ele>593.0</ele><time>2026-04-24T07:37:59.992Z</time></trkpt><trkpt lat="43.6687314" lon="12.014184"><ele>593.0</ele><time>2026-04-24T07:38:00.991Z</time></trkpt><trkpt lat="43.6685665" lon="12.014102"><ele>593.0</ele><time>2026-04-24T07:38:01.991Z</time></trkpt><trkpt lat="43.6683856" lon="12.0140372"><ele>598.25</ele><time>2026-04-24T07:38:02.991Z</time></trkpt><trkpt lat="43.6682226" lon="12.0139665"><ele>603.5</ele><time>2026-04-24T07:38:03.992Z</time></trkpt><trkpt lat="43.6680877" lon="12.0139062"><ele>608.75</ele><time>2026-04-24T07:38:04.991Z</time></trkpt><trkpt lat="43.6679871" lon="12.0138545"><ele>614.0</ele><time>2026-04-24T07:38:05.991Z</time></trkpt><trkpt lat="43.6679055" lon="12.0138225"><ele>614.0</ele><time>2026-04-24T07:38:06.992Z</time></trkpt><trkpt lat="43.6678315" lon="12.0138446"><ele>614.0</ele><time>2026-04-24T07:38:07.991Z</time></trkpt><trkpt lat="43.6677642" lon="12.0139225"><ele>614.0</ele><time>2026-04-24T07:38:08.992Z</time></trkpt><trkpt lat="43.6676904" lon="12.0140469"><ele>614.0</ele><time>2026-04-24T07:38:09.991Z</time></trkpt><trkpt lat="43.667591" lon="12.0141886"><ele>614.0</ele><time>2026-04-24T07:38:10.992Z</time></trkpt><trkpt lat="43.6674711" lon="12.0143488"><ele>617.3333333333333</ele><time>2026-04-24T07:38:11.992Z</time></trkpt><trkpt lat="43.6673469" lon="12.0145327"><ele>620.6666666666666</ele><time>2026-04-24T07:38:12.991Z</time></trkpt><trkpt lat="43.6672566" lon="12.0147401"><ele>624.0</ele><time>2026-04-24T07:38:13.991Z</time></trkpt><trkpt lat="43.6671791" lon="12.0149853"><ele>620.6666666666666</ele><time>2026-04-24T07:38:14.991Z</time></trkpt><trkpt lat="43.6671171" lon="12.0152332"><ele>617.3333333333333</ele><time>2026-04-24T07:38:15.991Z</time></trkpt><trkpt lat="43.6670481" lon="12.0154532"><ele>614.0</ele><time>2026-04-24T07:38:16.991Z</time></trkpt><trkpt lat="43.6669509" lon="12.0156326"><ele>619.3333333333333</ele><time>2026-04-24T07:38:17.992Z</time></trkpt><trkpt lat="43.6668139" lon="12.0157582"><ele>624.6666666666666</ele><time>2026-04-24T07:38:18.991Z</time></trkpt><trkpt lat="43.6666743" lon="12.015852"><ele>630.0</ele><time>2026-04-24T07:38:19.991Z</time></trkpt><trkpt lat="43.6665576" lon="12.0159857"><ele>630.0</ele><time>2026-04-24T07:38:20.991Z</time></trkpt><trkpt lat="43.6664606" lon="12.0161812"><ele>630.0</ele><time>2026-04-24T07:38:21.992Z</time></trkpt><trkpt lat="43.6663858" lon="12.0164087"><ele>630.0</ele><time>2026-04-24T07:38:22.991Z</time></trkpt><trkpt lat="43.6663223" lon="12.0166638"><ele>626.3333333333334</ele><time>2026-04-24T07:38:23.992Z</time></trkpt><trkpt lat="43.6662819" lon="12.0169477"><ele>622.6666666666667</ele><time>2026-04-24T07:38:24.991Z</time></trkpt><trkpt lat="43.6662589" lon="12.0172267"><ele>619.0</ele><time>2026-04-24T07:38:25.991Z</time></trkpt><trkpt lat="43.6662383" lon="12.0174807"><ele>618.6666666666667</ele><time>2026-04-24T07:38:26.992Z</time></trkpt><trkpt lat="43.6662173" lon="12.0177182"><ele>618.3333333333334</ele><time>2026-04-24T07:38:27.992Z</time></trkpt><trkpt lat="43.6661823" lon="12.017928"><ele>618.0</ele><time>2026-04-24T07:38:28.991Z</time></trkpt><trkpt lat="43.6661073" lon="12.0181046"><ele>624.3333333333334</ele><time>2026-04-24T07:38:29.991Z</time></trkpt><trkpt lat="43.6659917" lon="12.0182304"><ele>630.6666666666667</ele><time>2026-04-24T07:38:30.991Z</time></trkpt><trkpt lat="43.665846" lon="12.0182947"><ele>637.0</ele><time>2026-04-24T07:38:31.991Z</time></trkpt><trkpt lat="43.6656746" lon="12.0183342"><ele>637.0</ele><time>2026-04-24T07:38:32.993Z</time></trkpt><trkpt lat="43.6654859" lon="12.0183689"><ele>637.0</ele><time>2026-04-24T07:38:33.992Z</time></trkpt><trkpt lat="43.6653017" lon="12.0184028"><ele>637.0</ele><time>2026-04-24T07:38:34.992Z</time></trkpt><trkpt lat="43.6651193" lon="12.0184014"><ele>639.6666666666667</ele><time>2026-04-24T07:38:35.991Z</time></trkpt><trkpt lat="43.6649419" lon="12.0183313"><ele>642.3333333333334</ele><time>2026-04-24T07:38:36.991Z</time></trkpt><trkpt lat="43.6647678" lon="12.0182044"><ele>645.0</ele><time>2026-04-24T07:38:37.992Z</time></trkpt><trkpt lat="43.6645983" lon="12.0180309"><ele>645.3333333333334</ele><time>2026-04-24T07:38:38.992Z</time></trkpt><trkpt lat="43.6644215" lon="12.017848"><ele>645.6666666666667</ele><time>2026-04-24T07:38:39.992Z</time></trkpt><trkpt lat="43.664235" lon="12.0176672"><ele>646.0</ele><time>2026-04-24T07:38:40.991Z</time></trkpt><trkpt lat="43.6640417" lon="12.01748"><ele>650.0</ele><time>2026-04-24T07:38:41.991Z</time></trkpt><trkpt lat="43.6638475" lon="12.0172877"><ele>654.0</ele><time>2026-04-24T07:38:42.991Z</time></trkpt><trkpt lat="43.6636627" lon="12.0171008"><ele>652.3333333333334</ele><time>2026-04-24T07:38:43.991Z</time></trkpt><trkpt lat="43.6634865" lon="12.0169219"><ele>650.6666666666667</ele><time>2026-04-24T07:38:44.993Z</time></trkpt><trkpt lat="43.6633132" lon="12.0167452"><ele>649.0</ele><time>2026-04-24T07:38:45.991Z</time></trkpt><trkpt lat="43.6631389" lon="12.0165665"><ele>649.0</ele><time>2026-04-24T07:38:46.992Z</time></trkpt><trkpt lat="43.6629587" lon="12.0163918"><ele>649.0</ele><time>2026-04-24T07:38:47.991Z</time></trkpt><trkpt lat="43.662772" lon="12.0162437"><ele>649.0</ele><time>2026-04-24T07:38:48.991Z</time></trkpt><trkpt lat="43.6625851" lon="12.0161282"><ele>643.3333333333334</ele><time>2026-04-24T07:38:49.991Z</time></trkpt><trkpt lat="43.6624033" lon="12.0160219"><ele>637.6666666666666</ele><time>2026-04-24T07:38:50.991Z</time></trkpt><trkpt lat="43.6622375" lon="12.015916"><ele>632.0</ele><time>2026-04-24T07:38:51.992Z</time></trkpt><trkpt lat="43.6620925" lon="12.0157946"><ele>631.75</ele><time>2026-04-24T07:38:52.991Z</time></trkpt><trkpt lat="43.6619827" lon="12.0156541"><ele>631.5</ele><time>2026-04-24T07:38:53.991Z</time></trkpt><trkpt lat="43.6619163" lon="12.0154797"><ele>631.25</ele><time>2026-04-24T07:38:54.992Z</time></trkpt><trkpt lat="43.6619079" lon="12.0152854"><ele>631.0</ele><time>2026-04-24T07:38:55.991Z</time></trkpt><trkpt lat="43.661952" lon="12.0150914"><ele>630.5</ele><time>2026-04-24T07:38:56.992Z</time></trkpt><trkpt lat="43.6620239" lon="12.0149204"><ele>630.0</ele><time>2026-04-24T07:38:57.992Z</time></trkpt><trkpt lat="43.6620813" lon="12.0147405"><ele>629.5</ele><time>2026-04-24T07:38:58.991Z</time></trkpt><trkpt lat="43.6620903" lon="12.0145482"><ele>629.0</ele><time>2026-04-24T07:38:59.991Z</time></trkpt><trkpt lat="43.6620527" lon="12.0143748"><ele>629.0</ele><time>2026-04-24T07:39:00.991Z</time></trkpt><trkpt lat="43.6619715" lon="12.0142457"><ele>629.0</ele><time>2026-04-24T07:39:01.991Z</time></trkpt><trkpt lat="43.661855" lon="12.0141549"><ele>629.0</ele><time>2026-04-24T07:39:02.991Z</time></trkpt><trkpt lat="43.6617179" lon="12.0141214"><ele>629.0</ele><time>2026-04-24T07:39:03.991Z</time></trkpt><trkpt lat="43.661575" lon="12.0141572"><ele>626.5</ele><time>2026-04-24T07:39:04.991Z</time></trkpt><trkpt lat="43.661432" lon="12.0142336"><ele>624.0</ele><time>2026-04-24T07:39:05.991Z</time></trkpt><trkpt lat="43.66129" lon="12.0142815"><ele>621.5</ele><time>2026-04-24T07:39:06.991Z</time></trkpt><trkpt lat="43.6611418" lon="12.0142842"><ele>619.0</ele><time>2026-04-24T07:39:07.991Z</time></trkpt><trkpt lat="43.660994" lon="12.014221"><ele>616.3333333333334</ele><time>2026-04-24T07:39:08.991Z</time></trkpt><trkpt lat="43.6608497" lon="12.0140872"><ele>613.6666666666666</ele><time>2026-04-24T07:39:10.558Z</time></trkpt><trkpt lat="43.6606941" lon="12.0138738"><ele>611.0</ele><time>2026-04-24T07:39:11.723Z</time></trkpt><trkpt lat="43.660444" lon="12.0135141"><ele>609.3333333333333</ele><time>2026-04-24T07:39:12.992Z</time></trkpt><trkpt lat="43.6603107" lon="12.013316"><ele>607.6666666666666</ele><time>2026-04-24T07:39:13.992Z</time></trkpt><trkpt lat="43.6601863" lon="12.0131291"><ele>606.0</ele><time>2026-04-24T07:39:14.992Z</time></trkpt><trkpt lat="43.6600593" lon="12.0129691"><ele>602.0</ele><time>2026-04-24T07:39:15.992Z</time></trkpt><trkpt lat="43.6599172" lon="12.0128197"><ele>598.0</ele><time>2026-04-24T07:39:16.993Z</time></trkpt><trkpt lat="43.6597175" lon="12.0127612"><ele>594.0</ele><time>2026-04-24T07:39:17.992Z</time></trkpt><trkpt lat="43.659511" lon="12.0127084"><ele>591.0</ele><time>2026-04-24T07:39:18.993Z</time></trkpt><trkpt lat="43.6592914" lon="12.0126688"><ele>588.0</ele><time>2026-04-24T07:39:19.992Z</time></trkpt><trkpt lat="43.6590634" lon="12.0126207"><ele>588.0</ele><time>2026-04-24T07:39:20.992Z</time></trkpt><trkpt lat="43.6588293" lon="12.0125733"><ele>588.0</ele><time>2026-04-24T07:39:21.992Z</time></trkpt><trkpt lat="43.6585927" lon="12.0125229"><ele>583.0</ele><time>2026-04-24T07:39:22.992Z</time></trkpt><trkpt lat="43.6583573" lon="12.0124669"><ele>578.0</ele><time>2026-04-24T07:39:23.992Z</time></trkpt><trkpt lat="43.6581225" lon="12.0124163"><ele>578.0</ele><time>2026-04-24T07:39:24.992Z</time></trkpt><trkpt lat="43.6578904" lon="12.0123657"><ele>578.0</ele><time>2026-04-24T07:39:25.992Z</time></trkpt><trkpt lat="43.6576635" lon="12.0123027"><ele>581.0</ele><time>2026-04-24T07:39:26.992Z</time></trkpt><trkpt lat="43.6574464" lon="12.0121931"><ele>584.0</ele><time>2026-04-24T07:39:27.993Z</time></trkpt><trkpt lat="43.657246" lon="12.0120357"><ele>584.0</ele><time>2026-04-24T07:39:28.993Z</time></trkpt><trkpt lat="43.657064" lon="12.0118454"><ele>584.0</ele><time>2026-04-24T07:39:29.993Z</time></trkpt><trkpt lat="43.6569055" lon="12.011623"><ele>584.6666666666666</ele><time>2026-04-24T07:39:30.993Z</time></trkpt><trkpt lat="43.6567804" lon="12.0113673"><ele>585.3333333333334</ele><time>2026-04-24T07:39:31.992Z</time></trkpt><trkpt lat="43.6566978" lon="12.0110959"><ele>586.0</ele><time>2026-04-24T07:39:32.992Z</time></trkpt><trkpt lat="43.6566309" lon="12.0108329"><ele>585.6666666666667</ele><time>2026-04-24T07:39:33.993Z</time></trkpt><trkpt lat="43.6565534" lon="12.0105895"><ele>585.3333333333334</ele><time>2026-04-24T07:39:34.992Z</time></trkpt><trkpt lat="43.6564565" lon="12.0103764"><ele>585.0</ele><time>2026-04-24T07:39:35.992Z</time></trkpt><trkpt lat="43.6563328" lon="12.010205"><ele>585.0</ele><time>2026-04-24T07:39:36.993Z</time></trkpt><trkpt lat="43.6561795" lon="12.0100887"><ele>585.0</ele><time>2026-04-24T07:39:37.993Z</time></trkpt><trkpt lat="43.6560026" lon="12.0100234"><ele>585.0</ele><time>2026-04-24T07:39:38.992Z</time></trkpt><trkpt lat="43.655813" lon="12.01003"><ele>585.3333333333334</ele><time>2026-04-24T07:39:39.992Z</time></trkpt><trkpt lat="43.6556114" lon="12.0101034"><ele>585.6666666666667</ele><time>2026-04-24T07:39:40.993Z</time></trkpt><trkpt lat="43.6554024" lon="12.0102017"><ele>586.0</ele><time>2026-04-24T07:39:41.992Z</time></trkpt><trkpt lat="43.6551794" lon="12.0103116"><ele>590.5</ele><time>2026-04-24T07:39:42.993Z</time></trkpt><trkpt lat="43.6549471" lon="12.0104283"><ele>595.0</ele><time>2026-04-24T07:39:43.992Z</time></trkpt><trkpt lat="43.6547082" lon="12.0105393"><ele>595.0</ele><time>2026-04-24T07:39:44.993Z</time></trkpt><trkpt lat="43.6544704" lon="12.0106508"><ele>595.0</ele><time>2026-04-24T07:39:45.993Z</time></trkpt><trkpt lat="43.654229" lon="12.0107673"><ele>590.5</ele><time>2026-04-24T07:39:46.992Z</time></trkpt><trkpt lat="43.6539877" lon="12.0108869"><ele>586.0</ele><time>2026-04-24T07:39:47.992Z</time></trkpt><trkpt lat="43.6537499" lon="12.0110153"><ele>594.0</ele><time>2026-04-24T07:39:48.992Z</time></trkpt><trkpt lat="43.6535289" lon="12.0111464"><ele>602.0</ele><time>2026-04-24T07:39:49.993Z</time></trkpt><trkpt lat="43.6533077" lon="12.0112943"><ele>602.0</ele><time>2026-04-24T07:39:50.992Z</time></trkpt><trkpt lat="43.6530956" lon="12.0114504"><ele>602.0</ele><time>2026-04-24T07:39:51.992Z</time></trkpt><trkpt lat="43.652889" lon="12.0116125"><ele>601.0</ele><time>2026-04-24T07:39:52.993Z</time></trkpt><trkpt lat="43.6526864" lon="12.0117793"><ele>600.0</ele><time>2026-04-24T07:39:53.992Z</time></trkpt><trkpt lat="43.6524932" lon="12.0119555"><ele>600.0</ele><time>2026-04-24T07:39:54.992Z</time></trkpt><trkpt lat="43.6523074" lon="12.0121419"><ele>600.0</ele><time>2026-04-24T07:39:55.993Z</time></trkpt><trkpt lat="43.6521301" lon="12.012343"><ele>595.3333333333334</ele><time>2026-04-24T07:39:56.992Z</time></trkpt><trkpt lat="43.651955" lon="12.0125337"><ele>590.6666666666667</ele><time>2026-04-24T07:39:57.992Z</time></trkpt><trkpt lat="43.6517786" lon="12.012711"><ele>586.0</ele><time>2026-04-24T07:39:58.992Z</time></trkpt><trkpt lat="43.6515914" lon="12.0128549"><ele>586.0</ele><time>2026-04-24T07:39:59.992Z</time></trkpt><trkpt lat="43.6513917" lon="12.0129536"><ele>586.0</ele><time>2026-04-24T07:40:00.992Z</time></trkpt><trkpt lat="43.6511836" lon="12.0130012"><ele>586.0</ele><time>2026-04-24T07:40:01.992Z</time></trkpt><trkpt lat="43.6509699" lon="12.0130014"><ele>584.3333333333334</ele><time>2026-04-24T07:40:02.992Z</time></trkpt><trkpt lat="43.6507526" lon="12.0129541"><ele>582.6666666666666</ele><time>2026-04-24T07:40:03.992Z</time></trkpt><trkpt lat="43.6505373" lon="12.0128754"><ele>581.0</ele><time>2026-04-24T07:40:04.993Z</time></trkpt><trkpt lat="43.6503329" lon="12.0127921"><ele>577.6666666666666</ele><time>2026-04-24T07:40:05.993Z</time></trkpt><trkpt lat="43.6501378" lon="12.0127125"><ele>574.3333333333334</ele><time>2026-04-24T07:40:06.992Z</time></trkpt><trkpt lat="43.64995" lon="12.012635"><ele>571.0</ele><time>2026-04-24T07:40:07.992Z</time></trkpt><trkpt lat="43.6497703" lon="12.0125697"><ele>571.0</ele><time>2026-04-24T07:40:08.993Z</time></trkpt><trkpt lat="43.6496066" lon="12.0125327"><ele>571.0</ele><time>2026-04-24T07:40:09.993Z</time></trkpt><trkpt lat="43.6494467" lon="12.0125497"><ele>571.0</ele><time>2026-04-24T07:40:10.992Z</time></trkpt><trkpt lat="43.6493044" lon="12.0126276"><ele>569.0</ele><time>2026-04-24T07:40:11.992Z</time></trkpt><trkpt lat="43.6491756" lon="12.0127627"><ele>567.0</ele><time>2026-04-24T07:40:12.992Z</time></trkpt><trkpt lat="43.6490615" lon="12.0128999"><ele>565.0</ele><time>2026-04-24T07:40:13.992Z</time></trkpt><trkpt lat="43.6489332" lon="12.0130058"><ele>565.0</ele><time>2026-04-24T07:40:14.992Z</time></trkpt><trkpt lat="43.648795" lon="12.0130755"><ele>565.0</ele><time>2026-04-24T07:40:15.992Z</time></trkpt><trkpt lat="43.6486436" lon="12.0130838"><ele>565.0</ele><time>2026-04-24T07:40:16.992Z</time></trkpt><trkpt lat="43.6484809" lon="12.0130319"><ele>564.25</ele><time>2026-04-24T07:40:17.992Z</time></trkpt><trkpt lat="43.6483368" lon="12.0129354"><ele>563.5</ele><time>2026-04-24T07:40:18.992Z</time></trkpt><trkpt lat="43.6482364" lon="12.0128082"><ele>562.75</ele><time>2026-04-24T07:40:19.993Z</time></trkpt><trkpt lat="43.6481776" lon="12.0126315"><ele>562.0</ele><time>2026-04-24T07:40:20.992Z</time></trkpt><trkpt lat="43.6481565" lon="12.0124195"><ele>559.6666666666667</ele><time>2026-04-24T07:40:21.993Z</time></trkpt><trkpt lat="43.6481501" lon="12.0121756"><ele>557.3333333333334</ele><time>2026-04-24T07:40:22.992Z</time></trkpt><trkpt lat="43.6481372" lon="12.0119056"><ele>555.0</ele><time>2026-04-24T07:40:23.992Z</time></trkpt><trkpt lat="43.6481316" lon="12.0116367"><ele>553.6666666666666</ele><time>2026-04-24T07:40:24.992Z</time></trkpt><trkpt lat="43.648131" lon="12.0113943"><ele>552.3333333333333</ele><time>2026-04-24T07:40:25.992Z</time></trkpt><trkpt lat="43.6481145" lon="12.0111744"><ele>551.0</ele><time>2026-04-24T07:40:26.992Z</time></trkpt><trkpt lat="43.6480631" lon="12.0109836"><ele>551.0</ele><time>2026-04-24T07:40:27.992Z</time></trkpt><trkpt lat="43.6479683" lon="12.0108297"><ele>551.0</ele><time>2026-04-24T07:40:28.992Z</time></trkpt><trkpt lat="43.6478345" lon="12.0107205"><ele>551.0</ele><time>2026-04-24T07:40:29.993Z</time></trkpt><trkpt lat="43.6476715" lon="12.0106643"><ele>548.6666666666666</ele><time>2026-04-24T07:40:30.992Z</time></trkpt><trkpt lat="43.6474873" lon="12.0106552"><ele>546.3333333333334</ele><time>2026-04-24T07:40:31.992Z</time></trkpt><trkpt lat="43.64729" lon="12.0106547"><ele>544.0</ele><time>2026-04-24T07:40:32.993Z</time></trkpt><trkpt lat="43.6470895" lon="12.0106551"><ele>543.0</ele><time>2026-04-24T07:40:33.992Z</time></trkpt><trkpt lat="43.6468941" lon="12.010659"><ele>542.0</ele><time>2026-04-24T07:40:34.992Z</time></trkpt><trkpt lat="43.6467036" lon="12.0106809"><ele>541.0</ele><time>2026-04-24T07:40:35.992Z</time></trkpt><trkpt lat="43.6465243" lon="12.010729"><ele>541.0</ele><time>2026-04-24T07:40:36.992Z</time></trkpt><trkpt lat="43.6463585" lon="12.010796"><ele>541.0</ele><time>2026-04-24T07:40:37.992Z</time></trkpt><trkpt lat="43.6462073" lon="12.0108519"><ele>541.0</ele><time>2026-04-24T07:40:38.993Z</time></trkpt><trkpt lat="43.6460529" lon="12.0108681"><ele>541.25</ele><time>2026-04-24T07:40:39.992Z</time></trkpt><trkpt lat="43.6459136" lon="12.010832"><ele>541.5</ele><time>2026-04-24T07:40:40.992Z</time></trkpt><trkpt lat="43.6458027" lon="12.0107312"><ele>541.75</ele><time>2026-04-24T07:40:41.992Z</time></trkpt><trkpt lat="43.6457365" lon="12.0105932"><ele>542.0</ele><time>2026-04-24T07:40:42.993Z</time></trkpt><trkpt lat="43.6457242" lon="12.0104229"><ele>539.0</ele><time>2026-04-24T07:40:43.993Z</time></trkpt><trkpt lat="43.6457689" lon="12.0102279"><ele>536.0</ele><time>2026-04-24T07:40:44.992Z</time></trkpt><trkpt lat="43.6458615" lon="12.010046"><ele>533.0</ele><time>2026-04-24T07:40:45.993Z</time></trkpt><trkpt lat="43.6459882" lon="12.0098734"><ele>532.6666666666666</ele><time>2026-04-24T07:40:46.992Z</time></trkpt><trkpt lat="43.6461406" lon="12.0097014"><ele>532.3333333333334</ele><time>2026-04-24T07:40:47.992Z</time></trkpt><trkpt lat="43.6463077" lon="12.0095297"><ele>532.0</ele><time>2026-04-24T07:40:48.992Z</time></trkpt><trkpt lat="43.6464845" lon="12.0093516"><ele>532.0</ele><time>2026-04-24T07:40:49.991Z</time></trkpt><trkpt lat="43.6466625" lon="12.0091677"><ele>532.0</ele><time>2026-04-24T07:40:50.991Z</time></trkpt><trkpt lat="43.6468411" lon="12.00898"><ele>532.0</ele><time>2026-04-24T07:40:51.991Z</time></trkpt><trkpt lat="43.6470142" lon="12.0087861"><ele>530.0</ele><time>2026-04-24T07:40:52.992Z</time></trkpt><trkpt lat="43.6471768" lon="12.0085728"><ele>528.0</ele><time>2026-04-24T07:40:53.991Z</time></trkpt><trkpt lat="43.6473164" lon="12.0083416"><ele>526.0</ele><time>2026-04-24T07:40:54.991Z</time></trkpt><trkpt lat="43.6474505" lon="12.0081171"><ele>524.3333333333334</ele><time>2026-04-24T07:40:55.991Z</time></trkpt><trkpt lat="43.6475874" lon="12.0078925"><ele>522.6666666666666</ele><time>2026-04-24T07:40:56.991Z</time></trkpt><trkpt lat="43.64772" lon="12.0076677"><ele>521.0</ele><time>2026-04-24T07:40:57.991Z</time></trkpt><trkpt lat="43.6478414" lon="12.0074505"><ele>521.0</ele><time>2026-04-24T07:40:58.991Z</time></trkpt><trkpt lat="43.6479404" lon="12.0072513"><ele>521.0</ele><time>2026-04-24T07:40:59.992Z</time></trkpt><trkpt lat="43.6480076" lon="12.0070683"><ele>521.0</ele><time>2026-04-24T07:41:00.991Z</time></trkpt><trkpt lat="43.648032" lon="12.0068873"><ele>521.0</ele><time>2026-04-24T07:41:01.992Z</time></trkpt><trkpt lat="43.6480061" lon="12.0067131"><ele>521.0</ele><time>2026-04-24T07:41:02.991Z</time></trkpt><trkpt lat="43.6479158" lon="12.0065494"><ele>521.0</ele><time>2026-04-24T07:41:03.991Z</time></trkpt><trkpt lat="43.6477922" lon="12.0064232"><ele>521.0</ele><time>2026-04-24T07:41:04.991Z</time></trkpt><trkpt lat="43.6476593" lon="12.0062931"><ele>518.0</ele><time>2026-04-24T07:41:05.992Z</time></trkpt><trkpt lat="43.6475551" lon="12.0061282"><ele>515.0</ele><time>2026-04-24T07:41:06.991Z</time></trkpt><trkpt lat="43.6474922" lon="12.0059418"><ele>512.0</ele><time>2026-04-24T07:41:07.992Z</time></trkpt><trkpt lat="43.647486" lon="12.0057496"><ele>509.0</ele><time>2026-04-24T07:41:08.991Z</time></trkpt><trkpt lat="43.6475362" lon="12.0055649"><ele>508.25</ele><time>2026-04-24T07:41:09.991Z</time></trkpt><trkpt lat="43.6476168" lon="12.0054016"><ele>507.5</ele><time>2026-04-24T07:41:10.992Z</time></trkpt><trkpt lat="43.6476733" lon="12.0052222"><ele>506.75</ele><time>2026-04-24T07:41:11.991Z</time></trkpt><trkpt lat="43.647687" lon="12.0050301"><ele>506.0</ele><time>2026-04-24T07:41:12.992Z</time></trkpt><trkpt lat="43.6476403" lon="12.0048396"><ele>506.0</ele><time>2026-04-24T07:41:13.991Z</time></trkpt><trkpt lat="43.6475368" lon="12.0046851"><ele>506.0</ele><time>2026-04-24T07:41:14.991Z</time></trkpt><trkpt lat="43.6473956" lon="12.0045815"><ele>506.0</ele><time>2026-04-24T07:41:15.991Z</time></trkpt><trkpt lat="43.6472213" lon="12.0045271"><ele>506.0</ele><time>2026-04-24T07:41:16.991Z</time></trkpt><trkpt lat="43.6470219" lon="12.0044999"><ele>506.0</ele><time>2026-04-24T07:41:17.991Z</time></trkpt><trkpt lat="43.646806" lon="12.0044782"><ele>506.0</ele><time>2026-04-24T07:41:18.991Z</time></trkpt><trkpt lat="43.6465795" lon="12.0044566"><ele>503.5</ele><time>2026-04-24T07:41:19.991Z</time></trkpt><trkpt lat="43.6463473" lon="12.0044347"><ele>501.0</ele><time>2026-04-24T07:41:20.991Z</time></trkpt><trkpt lat="43.6461134" lon="12.0044099"><ele>500.33333333333337</ele><time>2026-04-24T07:41:21.992Z</time></trkpt><trkpt lat="43.6458877" lon="12.0043835"><ele>499.6666666666667</ele><time>2026-04-24T07:41:22.992Z</time></trkpt><trkpt lat="43.6456736" lon="12.0043604"><ele>499.0</ele><time>2026-04-24T07:41:23.992Z</time></trkpt><trkpt lat="43.6454689" lon="12.0043312"><ele>497.0</ele><time>2026-04-24T07:41:24.993Z</time></trkpt><trkpt lat="43.6452738" lon="12.0042782"><ele>495.0</ele><time>2026-04-24T07:41:25.992Z</time></trkpt><trkpt lat="43.6450945" lon="12.0041737"><ele>493.0</ele><time>2026-04-24T07:41:26.991Z</time></trkpt><trkpt lat="43.6449323" lon="12.0040255"><ele>493.0</ele><time>2026-04-24T07:41:27.991Z</time></trkpt><trkpt lat="43.6447964" lon="12.0038258"><ele>493.0</ele><time>2026-04-24T07:41:28.991Z</time></trkpt><trkpt lat="43.6446836" lon="12.0035952"><ele>493.0</ele><time>2026-04-24T07:41:29.992Z</time></trkpt><trkpt lat="43.6445975" lon="12.0033349"><ele>492.6666666666667</ele><time>2026-04-24T07:41:30.991Z</time></trkpt><trkpt lat="43.644524" lon="12.0030549"><ele>492.33333333333337</ele><time>2026-04-24T07:41:31.991Z</time></trkpt><trkpt lat="43.6444526" lon="12.0027658"><ele>492.0</ele><time>2026-04-24T07:41:32.991Z</time></trkpt><trkpt lat="43.6443799" lon="12.0024787"><ele>488.66666666666663</ele><time>2026-04-24T07:41:33.991Z</time></trkpt><trkpt lat="43.6443085" lon="12.0022003"><ele>485.3333333333333</ele><time>2026-04-24T07:41:34.991Z</time></trkpt><trkpt lat="43.6442396" lon="12.0019326"><ele>482.0</ele><time>2026-04-24T07:41:35.991Z</time></trkpt><trkpt lat="43.6441723" lon="12.0016781"><ele>481.3333333333333</ele><time>2026-04-24T07:41:36.991Z</time></trkpt><trkpt lat="43.6441212" lon="12.0014363"><ele>480.66666666666663</ele><time>2026-04-24T07:41:37.991Z</time></trkpt><trkpt lat="43.6441036" lon="12.0011926"><ele>480.0</ele><time>2026-04-24T07:41:38.992Z</time></trkpt><trkpt lat="43.6441298" lon="12.0009493"><ele>476.66666666666663</ele><time>2026-04-24T07:41:39.991Z</time></trkpt><trkpt lat="43.6441929" lon="12.0007121"><ele>473.3333333333333</ele><time>2026-04-24T07:41:40.991Z</time></trkpt><trkpt lat="43.6442777" lon="12.000478"><ele>470.0</ele><time>2026-04-24T07:41:41.991Z</time></trkpt><trkpt lat="43.6443671" lon="12.000238"><ele>470.0</ele><time>2026-04-24T07:41:42.992Z</time></trkpt><trkpt lat="43.6444605" lon="11.9999958"><ele>470.0</ele><time>2026-04-24T07:41:43.991Z</time></trkpt><trkpt lat="43.6445547" lon="11.9997637"><ele>470.0</ele><time>2026-04-24T07:41:44.991Z</time></trkpt><trkpt lat="43.6446536" lon="11.9995455"><ele>473.3333333333333</ele><time>2026-04-24T07:41:45.991Z</time></trkpt><trkpt lat="43.644746" lon="11.9993439"><ele>476.66666666666663</ele><time>2026-04-24T07:41:46.991Z</time></trkpt><trkpt lat="43.6448294" lon="11.9991563"><ele>480.0</ele><time>2026-04-24T07:41:47.991Z</time></trkpt><trkpt lat="43.6449004" lon="11.9989933"><ele>480.0</ele><time>2026-04-24T07:41:48.991Z</time></trkpt><trkpt lat="43.6449416" lon="11.9988475"><ele>480.0</ele><time>2026-04-24T07:41:49.992Z</time></trkpt><trkpt lat="43.6449455" lon="11.998691"><ele>480.0</ele><time>2026-04-24T07:41:50.991Z</time></trkpt><trkpt lat="43.6449042" lon="11.9985369"><ele>480.0</ele><time>2026-04-24T07:41:51.991Z</time></trkpt><trkpt lat="43.6448208" lon="11.9983845"><ele>476.33333333333337</ele><time>2026-04-24T07:41:52.991Z</time></trkpt><trkpt lat="43.6447109" lon="11.9982211"><ele>472.6666666666667</ele><time>2026-04-24T07:41:53.992Z</time></trkpt><trkpt lat="43.6445969" lon="11.9980361"><ele>469.0</ele><time>2026-04-24T07:41:54.991Z</time></trkpt><trkpt lat="43.6445031" lon="11.9978298"><ele>468.6666666666667</ele><time>2026-04-24T07:41:55.991Z</time></trkpt><trkpt lat="43.6444575" lon="11.9975933"><ele>468.33333333333337</ele><time>2026-04-24T07:41:56.992Z</time></trkpt><trkpt lat="43.6444728" lon="11.9973567"><ele>468.0</ele><time>2026-04-24T07:41:57.991Z</time></trkpt><trkpt lat="43.6445025" lon="11.9971245"><ele>468.0</ele><time>2026-04-24T07:41:58.991Z</time></trkpt><trkpt lat="43.6445389" lon="11.9968703"><ele>468.0</ele><time>2026-04-24T07:41:59.992Z</time></trkpt><trkpt lat="43.6445853" lon="11.9966026"><ele>468.0</ele><time>2026-04-24T07:42:00.991Z</time></trkpt><trkpt lat="43.6446538" lon="11.9963219"><ele>472.5</ele><time>2026-04-24T07:42:01.991Z</time></trkpt><trkpt lat="43.644745" lon="11.9960396"><ele>477.0</ele><time>2026-04-24T07:42:02.991Z</time></trkpt><trkpt lat="43.6448528" lon="11.9957589"><ele>479.66666666666663</ele><time>2026-04-24T07:42:03.991Z</time></trkpt><trkpt lat="43.6449705" lon="11.9954895"><ele>482.3333333333333</ele><time>2026-04-24T07:42:04.992Z</time></trkpt><trkpt lat="43.64508" lon="11.9952492"><ele>485.0</ele><time>2026-04-24T07:42:05.992Z</time></trkpt><trkpt lat="43.6451681" lon="11.9950314"><ele>486.0</ele><time>2026-04-24T07:42:06.991Z</time></trkpt><trkpt lat="43.6452228" lon="11.994821"><ele>487.0</ele><time>2026-04-24T07:42:07.991Z</time></trkpt><trkpt lat="43.6452281" lon="11.9946108"><ele>488.0</ele><time>2026-04-24T07:42:08.991Z</time></trkpt><trkpt lat="43.6451839" lon="11.9943934"><ele>489.66666666666663</ele><time>2026-04-24T07:42:09.992Z</time></trkpt><trkpt lat="43.6451291" lon="11.994168"><ele>491.33333333333337</ele><time>2026-04-24T07:42:10.991Z</time></trkpt><trkpt lat="43.645078" lon="11.9939291"><ele>493.0</ele><time>2026-04-24T07:42:11.991Z</time></trkpt><trkpt lat="43.6450713" lon="11.9937093"><ele>493.0</ele><time>2026-04-24T07:42:12.991Z</time></trkpt><trkpt lat="43.6451052" lon="11.9935049"><ele>493.0</ele><time>2026-04-24T07:42:13.991Z</time></trkpt><trkpt lat="43.645187" lon="11.9933639"><ele>493.0</ele><time>2026-04-24T07:42:14.991Z</time></trkpt><trkpt lat="43.6452973" lon="11.9932789"><ele>493.0</ele><time>2026-04-24T07:42:15.992Z</time></trkpt><trkpt lat="43.6454158" lon="11.9931952"><ele>493.5</ele><time>2026-04-24T07:42:16.991Z</time></trkpt><trkpt lat="43.6455013" lon="11.9930675"><ele>494.0</ele><time>2026-04-24T07:42:17.992Z</time></trkpt><trkpt lat="43.6455425" lon="11.9929023"><ele>494.5</ele><time>2026-04-24T07:42:18.991Z</time></trkpt><trkpt lat="43.645526" lon="11.9927106"><ele>495.0</ele><time>2026-04-24T07:42:19.992Z</time></trkpt><trkpt lat="43.645459" lon="11.9925222"><ele>497.0</ele><time>2026-04-24T07:42:20.991Z</time></trkpt><trkpt lat="43.6453539" lon="11.9923436"><ele>499.0</ele><time>2026-04-24T07:42:21.991Z</time></trkpt><trkpt lat="43.6452171" lon="11.9921734"><ele>501.0</ele><time>2026-04-24T07:42:22.992Z</time></trkpt><trkpt lat="43.6450593" lon="11.992013"><ele>504.66666666666663</ele><time>2026-04-24T07:42:23.991Z</time></trkpt><trkpt lat="43.6449136" lon="11.991846"><ele>508.3333333333333</ele><time>2026-04-24T07:42:24.991Z</time></trkpt><trkpt lat="43.6447981" lon="11.9916437"><ele>512.0</ele><time>2026-04-24T07:42:25.992Z</time></trkpt><trkpt lat="43.6447402" lon="11.9914096"><ele>512.6666666666666</ele><time>2026-04-24T07:42:26.991Z</time></trkpt><trkpt lat="43.6447344" lon="11.9911585"><ele>513.3333333333334</ele><time>2026-04-24T07:42:27.991Z</time></trkpt><trkpt lat="43.6447531" lon="11.9909358"><ele>514.0</ele><time>2026-04-24T07:42:28.991Z</time></trkpt><trkpt lat="43.6447577" lon="11.9907358"><ele>515.0</ele><time>2026-04-24T07:42:29.991Z</time></trkpt><trkpt lat="43.6447161" lon="11.9905603"><ele>516.0</ele><time>2026-04-24T07:42:30.991Z</time></trkpt><trkpt lat="43.6446343" lon="11.9904495"><ele>517.0</ele><time>2026-04-24T07:42:31.991Z</time></trkpt><trkpt lat="43.6445136" lon="11.9903958"><ele>518.0</ele><time>2026-04-24T07:42:32.991Z</time></trkpt><trkpt lat="43.6443694" lon="11.9903981"><ele>521.0</ele><time>2026-04-24T07:42:33.992Z</time></trkpt><trkpt lat="43.6442158" lon="11.990448"><ele>524.0</ele><time>2026-04-24T07:42:34.991Z</time></trkpt><trkpt lat="43.6440593" lon="11.9905619"><ele>527.0</ele><time>2026-04-24T07:42:35.991Z</time></trkpt><trkpt lat="43.6439247" lon="11.99075"><ele>526.0</ele><time>2026-04-24T07:42:36.991Z</time></trkpt><trkpt lat="43.6438098" lon="11.9909881"><ele>525.0</ele><time>2026-04-24T07:42:37.991Z</time></trkpt><trkpt lat="43.6436791" lon="11.991237"><ele>524.0</ele><time>2026-04-24T07:42:38.991Z</time></trkpt><trkpt lat="43.643542" lon="11.9914781"><ele>527.0</ele><time>2026-04-24T07:42:39.992Z</time></trkpt><trkpt lat="43.6434099" lon="11.9916901"><ele>530.0</ele><time>2026-04-24T07:42:40.991Z</time></trkpt><trkpt lat="43.6432914" lon="11.9918627"><ele>533.0</ele><time>2026-04-24T07:42:41.991Z</time></trkpt><trkpt lat="43.6431819" lon="11.991992"><ele>533.0</ele><time>2026-04-24T07:42:42.992Z</time></trkpt><trkpt lat="43.6430697" lon="11.9920664"><ele>533.0</ele><time>2026-04-24T07:42:43.991Z</time></trkpt><trkpt lat="43.6429653" lon="11.9920651"><ele>533.0</ele><time>2026-04-24T07:42:44.991Z</time></trkpt><trkpt lat="43.6428741" lon="11.9919936"><ele>533.0</ele><time>2026-04-24T07:42:45.991Z</time></trkpt><trkpt lat="43.6428137" lon="11.9918578"><ele>533.0</ele><time>2026-04-24T07:42:46.991Z</time></trkpt><trkpt lat="43.6428149" lon="11.9916821"><ele>536.6666666666666</ele><time>2026-04-24T07:42:47.992Z</time></trkpt><trkpt lat="43.6428729" lon="11.991497"><ele>540.3333333333334</ele><time>2026-04-24T07:42:48.991Z</time></trkpt><trkpt lat="43.6429593" lon="11.9913044"><ele>544.0</ele><time>2026-04-24T07:42:49.991Z</time></trkpt><trkpt lat="43.6430375" lon="11.9910835"><ele>545.6666666666667</ele><time>2026-04-24T07:42:50.991Z</time></trkpt><trkpt lat="43.6431091" lon="11.9908379"><ele>547.3333333333334</ele><time>2026-04-24T07:42:51.992Z</time></trkpt><trkpt lat="43.6431726" lon="11.9905968"><ele>549.0</ele><time>2026-04-24T07:42:52.991Z</time></trkpt><trkpt lat="43.643219" lon="11.9903782"><ele>549.0</ele><time>2026-04-24T07:42:53.991Z</time></trkpt><trkpt lat="43.6432352" lon="11.9901799"><ele>549.0</ele><time>2026-04-24T07:42:54.992Z</time></trkpt><trkpt lat="43.643204" lon="11.990012"><ele>549.0</ele><time>2026-04-24T07:42:55.991Z</time></trkpt><trkpt lat="43.6431216" lon="11.9898814"><ele>549.0</ele><time>2026-04-24T07:42:56.992Z</time></trkpt><trkpt lat="43.6430072" lon="11.9898011"><ele>550.25</ele><time>2026-04-24T07:42:57.991Z</time></trkpt><trkpt lat="43.6428668" lon="11.9897624"><ele>551.5</ele><time>2026-04-24T07:42:58.991Z</time></trkpt><trkpt lat="43.6427475" lon="11.9896761"><ele>552.75</ele><time>2026-04-24T07:42:59.992Z</time></trkpt><trkpt lat="43.6426577" lon="11.9895267"><ele>554.0</ele><time>2026-04-24T07:43:00.991Z</time></trkpt><trkpt lat="43.6426098" lon="11.9893413"><ele>560.0</ele><time>2026-04-24T07:43:01.992Z</time></trkpt><trkpt lat="43.6425771" lon="11.9891317"><ele>566.0</ele><time>2026-04-24T07:43:02.992Z</time></trkpt><trkpt lat="43.6425727" lon="11.9889229"><ele>572.0</ele><time>2026-04-24T07:43:03.992Z</time></trkpt><trkpt lat="43.6426181" lon="11.9887404"><ele>578.0</ele><time>2026-04-24T07:43:04.991Z</time></trkpt><trkpt lat="43.6427095" lon="11.9886181"><ele>574.75</ele><time>2026-04-24T07:43:05.991Z</time></trkpt><trkpt lat="43.6428155" lon="11.9885204"><ele>571.5</ele><time>2026-04-24T07:43:06.991Z</time></trkpt><trkpt lat="43.6428888" lon="11.9883749"><ele>568.25</ele><time>2026-04-24T07:43:07.992Z</time></trkpt><trkpt lat="43.6429176" lon="11.9881993"><ele>565.0</ele><time>2026-04-24T07:43:08.992Z</time></trkpt><trkpt lat="43.6429018" lon="11.9880038"><ele>565.0</ele><time>2026-04-24T07:43:09.992Z</time></trkpt><trkpt lat="43.6428615" lon="11.9877972"><ele>565.0</ele><time>2026-04-24T07:43:10.991Z</time></trkpt><trkpt lat="43.6428285" lon="11.9875687"><ele>565.0</ele><time>2026-04-24T07:43:11.991Z</time></trkpt><trkpt lat="43.6428239" lon="11.9873246"><ele>569.3333333333334</ele><time>2026-04-24T07:43:12.991Z</time></trkpt><trkpt lat="43.6428357" lon="11.9870711"><ele>573.6666666666666</ele><time>2026-04-24T07:43:13.991Z</time></trkpt><trkpt lat="43.6428598" lon="11.9868401"><ele>578.0</ele><time>2026-04-24T07:43:14.992Z</time></trkpt><trkpt lat="43.6429094" lon="11.9866285"><ele>584.0</ele><time>2026-04-24T07:43:15.992Z</time></trkpt><trkpt lat="43.6429839" lon="11.986434"><ele>590.0</ele><time>2026-04-24T07:43:16.991Z</time></trkpt><trkpt lat="43.6430646" lon="11.9862482"><ele>596.0</ele><time>2026-04-24T07:43:17.991Z</time></trkpt><trkpt lat="43.643131" lon="11.986066"><ele>596.0</ele><time>2026-04-24T07:43:18.992Z</time></trkpt><trkpt lat="43.6431767" lon="11.9859061"><ele>596.0</ele><time>2026-04-24T07:43:19.991Z</time></trkpt><trkpt lat="43.643197" lon="11.9857561"><ele>596.0</ele><time>2026-04-24T07:43:20.992Z</time></trkpt><trkpt lat="43.6431979" lon="11.9856379"><ele>596.0</ele><time>2026-04-24T07:43:21.991Z</time></trkpt><trkpt lat="43.643186" lon="11.9855507"><ele>596.0</ele><time>2026-04-24T07:43:22.991Z</time></trkpt><trkpt lat="43.6430664" lon="11.9854611"><ele>599.75</ele><time>2026-04-24T07:43:24.991Z</time></trkpt><trkpt lat="43.6429839" lon="11.9854905"><ele>603.5</ele><time>2026-04-24T07:43:25.991Z</time></trkpt><trkpt lat="43.6428939" lon="11.9855714"><ele>607.25</ele><time>2026-04-24T07:43:26.992Z</time></trkpt><trkpt lat="43.6427985" lon="11.9856875"><ele>611.0</ele><time>2026-04-24T07:43:27.992Z</time></trkpt><trkpt lat="43.6427233" lon="11.9858523"><ele>612.0</ele><time>2026-04-24T07:43:28.991Z</time></trkpt><trkpt lat="43.6426671" lon="11.986058"><ele>613.0</ele><time>2026-04-24T07:43:29.992Z</time></trkpt><trkpt lat="43.6426174" lon="11.986272"><ele>614.0</ele><time>2026-04-24T07:43:30.991Z</time></trkpt><trkpt lat="43.6425561" lon="11.9864493"><ele>614.0</ele><time>2026-04-24T07:43:31.991Z</time></trkpt><trkpt lat="43.6424743" lon="11.9865891"><ele>614.0</ele><time>2026-04-24T07:43:32.991Z</time></trkpt><trkpt lat="43.6423673" lon="11.9866961"><ele>614.0</ele><time>2026-04-24T07:43:33.991Z</time></trkpt><trkpt lat="43.6422409" lon="11.9867971"><ele>614.0</ele><time>2026-04-24T07:43:34.991Z</time></trkpt><trkpt lat="43.6420991" lon="11.9868874"><ele>613.3333333333333</ele><time>2026-04-24T07:43:35.991Z</time></trkpt><trkpt lat="43.6419454" lon="11.9869843"><ele>612.6666666666666</ele><time>2026-04-24T07:43:36.992Z</time></trkpt><trkpt lat="43.6417872" lon="11.9870646"><ele>612.0</ele><time>2026-04-24T07:43:37.993Z</time></trkpt><trkpt lat="43.6416285" lon="11.9871233"><ele>612.0</ele><time>2026-04-24T07:43:38.991Z</time></trkpt><trkpt lat="43.6414617" lon="11.9871753"><ele>612.0</ele><time>2026-04-24T07:43:39.991Z</time></trkpt><trkpt lat="43.6412903" lon="11.9872212"><ele>612.0</ele><time>2026-04-24T07:43:40.992Z</time></trkpt><trkpt lat="43.6411164" lon="11.9872678"><ele>613.0</ele><time>2026-04-24T07:43:41.991Z</time></trkpt><trkpt lat="43.640942" lon="11.9873149"><ele>614.0</ele><time>2026-04-24T07:43:42.991Z</time></trkpt><trkpt lat="43.6407658" lon="11.9873621"><ele>615.0</ele><time>2026-04-24T07:43:43.991Z</time></trkpt><trkpt lat="43.640586" lon="11.9874088"><ele>615.0</ele><time>2026-04-24T07:43:44.991Z</time></trkpt><trkpt lat="43.6404099" lon="11.9874553"><ele>615.0</ele><time>2026-04-24T07:43:45.991Z</time></trkpt><trkpt lat="43.6402363" lon="11.9874998"><ele>615.0</ele><time>2026-04-24T07:43:46.991Z</time></trkpt><trkpt lat="43.6400599" lon="11.987526"><ele>615.0</ele><time>2026-04-24T07:43:47.991Z</time></trkpt><trkpt lat="43.6398766" lon="11.9875197"><ele>615.0</ele><time>2026-04-24T07:43:48.991Z</time></trkpt><trkpt lat="43.6396922" lon="11.9874846"><ele>615.0</ele><time>2026-04-24T07:43:49.991Z</time></trkpt><trkpt lat="43.6395066" lon="11.9874533"><ele>616.0</ele><time>2026-04-24T07:43:50.992Z</time></trkpt><trkpt lat="43.6393198" lon="11.9874385"><ele>617.0</ele><time>2026-04-24T07:43:51.991Z</time></trkpt><trkpt lat="43.6391423" lon="11.9874375"><ele>618.0</ele><time>2026-04-24T07:43:52.991Z</time></trkpt><trkpt lat="43.6389629" lon="11.9874484"><ele>618.0</ele><time>2026-04-24T07:43:53.991Z</time></trkpt><trkpt lat="43.6387855" lon="11.987469"><ele>618.0</ele><time>2026-04-24T07:43:54.991Z</time></trkpt><trkpt lat="43.6386069" lon="11.987486"><ele>618.0</ele><time>2026-04-24T07:43:55.991Z</time></trkpt><trkpt lat="43.6384218" lon="11.9875024"><ele>617.3333333333334</ele><time>2026-04-24T07:43:56.992Z</time></trkpt><trkpt lat="43.6382425" lon="11.9875227"><ele>616.6666666666667</ele><time>2026-04-24T07:43:57.991Z</time></trkpt><trkpt lat="43.6380633" lon="11.987539"><ele>616.0</ele><time>2026-04-24T07:43:58.991Z</time></trkpt><trkpt lat="43.6378791" lon="11.9875533"><ele>618.6666666666667</ele><time>2026-04-24T07:43:59.991Z</time></trkpt><trkpt lat="43.6376908" lon="11.9875678"><ele>621.3333333333334</ele><time>2026-04-24T07:44:00.991Z</time></trkpt><trkpt lat="43.6374989" lon="11.9875796"><ele>624.0</ele><time>2026-04-24T07:44:01.992Z</time></trkpt><trkpt lat="43.6373033" lon="11.9875945"><ele>624.0</ele><time>2026-04-24T07:44:02.991Z</time></trkpt><trkpt lat="43.637115" lon="11.9876141"><ele>624.0</ele><time>2026-04-24T07:44:03.991Z</time></trkpt><trkpt lat="43.6369474" lon="11.9876292"><ele>624.0</ele><time>2026-04-24T07:44:04.991Z</time></trkpt><trkpt lat="43.636808" lon="11.9876112"><ele>625.25</ele><time>2026-04-24T07:44:05.991Z</time></trkpt><trkpt lat="43.6366915" lon="11.9875436"><ele>626.5</ele><time>2026-04-24T07:44:06.992Z</time></trkpt><trkpt lat="43.636601" lon="11.987434"><ele>627.75</ele><time>2026-04-24T07:44:07.991Z</time></trkpt><trkpt lat="43.6365217" lon="11.98728"><ele>629.0</ele><time>2026-04-24T07:44:08.991Z</time></trkpt><trkpt lat="43.6364393" lon="11.9871125"><ele>628.75</ele><time>2026-04-24T07:44:09.991Z</time></trkpt><trkpt lat="43.6363587" lon="11.9869545"><ele>628.5</ele><time>2026-04-24T07:44:10.991Z</time></trkpt><trkpt lat="43.6362806" lon="11.9867983"><ele>628.25</ele><time>2026-04-24T07:44:11.992Z</time></trkpt><trkpt lat="43.6362091" lon="11.9866528"><ele>628.0</ele><time>2026-04-24T07:44:12.991Z</time></trkpt><trkpt lat="43.636135" lon="11.9865229"><ele>628.0</ele><time>2026-04-24T07:44:13.991Z</time></trkpt><trkpt lat="43.6360433" lon="11.9864227"><ele>628.0</ele><time>2026-04-24T07:44:14.991Z</time></trkpt><trkpt lat="43.635928" lon="11.986373"><ele>628.0</ele><time>2026-04-24T07:44:15.991Z</time></trkpt><trkpt lat="43.6358097" lon="11.9863879"><ele>628.0</ele><time>2026-04-24T07:44:16.991Z</time></trkpt><trkpt lat="43.6356934" lon="11.9864795"><ele>628.0</ele><time>2026-04-24T07:44:17.992Z</time></trkpt><trkpt lat="43.6355825" lon="11.9866224"><ele>628.0</ele><time>2026-04-24T07:44:18.991Z</time></trkpt><trkpt lat="43.6354533" lon="11.9867624"><ele>628.0</ele><time>2026-04-24T07:44:19.991Z</time></trkpt><trkpt lat="43.6353074" lon="11.9868506"><ele>625.3333333333334</ele><time>2026-04-24T07:44:20.991Z</time></trkpt><trkpt lat="43.6351433" lon="11.986889"><ele>622.6666666666666</ele><time>2026-04-24T07:44:21.991Z</time></trkpt><trkpt lat="43.6349754" lon="11.9869151"><ele>620.0</ele><time>2026-04-24T07:44:22.991Z</time></trkpt><trkpt lat="43.6348064" lon="11.9869293"><ele>620.0</ele><time>2026-04-24T07:44:23.991Z</time></trkpt><trkpt lat="43.6346361" lon="11.9869316"><ele>620.0</ele><time>2026-04-24T07:44:24.991Z</time></trkpt><trkpt lat="43.6344649" lon="11.9869096"><ele>620.0</ele><time>2026-04-24T07:44:25.992Z</time></trkpt><trkpt lat="43.6342945" lon="11.9868541"><ele>619.0</ele><time>2026-04-24T07:44:26.992Z</time></trkpt><trkpt lat="43.6341212" lon="11.9867824"><ele>618.0</ele><time>2026-04-24T07:44:27.991Z</time></trkpt><trkpt lat="43.6339509" lon="11.986708"><ele>617.0</ele><time>2026-04-24T07:44:28.991Z</time></trkpt><trkpt lat="43.6337933" lon="11.98662"><ele>617.0</ele><time>2026-04-24T07:44:29.992Z</time></trkpt><trkpt lat="43.6336477" lon="11.986496"><ele>617.0</ele><time>2026-04-24T07:44:30.991Z</time></trkpt><trkpt lat="43.6335156" lon="11.9863345"><ele>617.0</ele><time>2026-04-24T07:44:31.991Z</time></trkpt><trkpt lat="43.6333915" lon="11.9861602"><ele>616.3333333333333</ele><time>2026-04-24T07:44:32.991Z</time></trkpt><trkpt lat="43.6332745" lon="11.9859845"><ele>615.6666666666666</ele><time>2026-04-24T07:44:33.991Z</time></trkpt><trkpt lat="43.633155" lon="11.9858237"><ele>615.0</ele><time>2026-04-24T07:44:34.991Z</time></trkpt><trkpt lat="43.6330297" lon="11.985691"><ele>615.0</ele><time>2026-04-24T07:44:35.991Z</time></trkpt><trkpt lat="43.632876" lon="11.9856038"><ele>615.0</ele><time>2026-04-24T07:44:36.992Z</time></trkpt><trkpt lat="43.6326998" lon="11.9855558"><ele>615.0</ele><time>2026-04-24T07:44:37.991Z</time></trkpt><trkpt lat="43.6325121" lon="11.9855218"><ele>611.3333333333334</ele><time>2026-04-24T07:44:38.992Z</time></trkpt><trkpt lat="43.6323155" lon="11.9854918"><ele>607.6666666666667</ele><time>2026-04-24T07:44:39.991Z</time></trkpt><trkpt lat="43.6321121" lon="11.9854592"><ele>604.0</ele><time>2026-04-24T07:44:40.991Z</time></trkpt><trkpt lat="43.6319084" lon="11.9854067"><ele>599.6666666666667</ele><time>2026-04-24T07:44:41.991Z</time></trkpt><trkpt lat="43.6317034" lon="11.9853398"><ele>595.3333333333334</ele><time>2026-04-24T07:44:42.991Z</time></trkpt><trkpt lat="43.6315012" lon="11.985259"><ele>591.0</ele><time>2026-04-24T07:44:43.991Z</time></trkpt><trkpt lat="43.6313072" lon="11.9851761"><ele>592.3333333333334</ele><time>2026-04-24T07:44:44.992Z</time></trkpt><trkpt lat="43.6311192" lon="11.985089"><ele>593.6666666666667</ele><time>2026-04-24T07:44:45.991Z</time></trkpt><trkpt lat="43.6309325" lon="11.9849945"><ele>595.0</ele><time>2026-04-24T07:44:46.991Z</time></trkpt><trkpt lat="43.630752" lon="11.9848838"><ele>595.0</ele><time>2026-04-24T07:44:47.991Z</time></trkpt><trkpt lat="43.6305827" lon="11.9847489"><ele>595.0</ele><time>2026-04-24T07:44:48.991Z</time></trkpt><trkpt lat="43.6304228" lon="11.9845964"><ele>595.0</ele><time>2026-04-24T07:44:49.991Z</time></trkpt><trkpt lat="43.6302636" lon="11.9844501"><ele>591.3333333333334</ele><time>2026-04-24T07:44:50.991Z</time></trkpt><trkpt lat="43.6300902" lon="11.9843361"><ele>587.6666666666666</ele><time>2026-04-24T07:44:51.991Z</time></trkpt><trkpt lat="43.6299039" lon="11.984267"><ele>584.0</ele><time>2026-04-24T07:44:52.991Z</time></trkpt><trkpt lat="43.6297122" lon="11.9842344"><ele>584.0</ele><time>2026-04-24T07:44:53.993Z</time></trkpt><trkpt lat="43.6295245" lon="11.9842167"><ele>584.0</ele><time>2026-04-24T07:44:54.992Z</time></trkpt><trkpt lat="43.6293485" lon="11.9841878"><ele>584.0</ele><time>2026-04-24T07:44:55.991Z</time></trkpt><trkpt lat="43.6291818" lon="11.9841388"><ele>584.6666666666666</ele><time>2026-04-24T07:44:56.993Z</time></trkpt><trkpt lat="43.6290159" lon="11.9840758"><ele>585.3333333333334</ele><time>2026-04-24T07:44:57.991Z</time></trkpt><trkpt lat="43.6288538" lon="11.9839964"><ele>586.0</ele><time>2026-04-24T07:44:58.991Z</time></trkpt><trkpt lat="43.6286974" lon="11.9839082"><ele>583.3333333333334</ele><time>2026-04-24T07:44:59.992Z</time></trkpt><trkpt lat="43.628544" lon="11.983828"><ele>580.6666666666666</ele><time>2026-04-24T07:45:00.991Z</time></trkpt><trkpt lat="43.6283977" lon="11.9837571"><ele>578.0</ele><time>2026-04-24T07:45:01.992Z</time></trkpt><trkpt lat="43.6282584" lon="11.9837006"><ele>578.0</ele><time>2026-04-24T07:45:02.991Z</time></trkpt><trkpt lat="43.6281275" lon="11.9836778"><ele>578.0</ele><time>2026-04-24T07:45:03.992Z</time></trkpt><trkpt lat="43.6280081" lon="11.9836956"><ele>578.0</ele><time>2026-04-24T07:45:04.992Z</time></trkpt><trkpt lat="43.6278969" lon="11.9837376"><ele>578.0</ele><time>2026-04-24T07:45:05.991Z</time></trkpt><trkpt lat="43.627788" lon="11.983793"><ele>577.25</ele><time>2026-04-24T07:45:06.991Z</time></trkpt><trkpt lat="43.6276786" lon="11.9838492"><ele>576.5</ele><time>2026-04-24T07:45:07.991Z</time></trkpt><trkpt lat="43.6275775" lon="11.9839"><ele>575.75</ele><time>2026-04-24T07:45:08.991Z</time></trkpt><trkpt lat="43.6274706" lon="11.9839514"><ele>575.0</ele><time>2026-04-24T07:45:09.991Z</time></trkpt><trkpt lat="43.6273503" lon="11.9840184"><ele>575.0</ele><time>2026-04-24T07:45:10.991Z</time></trkpt><trkpt lat="43.627219" lon="11.9840968"><ele>575.0</ele><time>2026-04-24T07:45:11.992Z</time></trkpt><trkpt lat="43.6270755" lon="11.9841994"><ele>575.0</ele><time>2026-04-24T07:45:12.991Z</time></trkpt><trkpt lat="43.6268969" lon="11.984354"><ele>575.6666666666666</ele><time>2026-04-24T07:45:13.991Z</time></trkpt><trkpt lat="43.6267165" lon="11.9845086"><ele>576.3333333333334</ele><time>2026-04-24T07:45:14.992Z</time></trkpt><trkpt lat="43.6265475" lon="11.9846671"><ele>577.0</ele><time>2026-04-24T07:45:15.991Z</time></trkpt><trkpt lat="43.6264" lon="11.9848174"><ele>577.0</ele><time>2026-04-24T07:45:16.991Z</time></trkpt><trkpt lat="43.6262702" lon="11.9849709"><ele>577.0</ele><time>2026-04-24T07:45:17.991Z</time></trkpt><trkpt lat="43.6261686" lon="11.9851331"><ele>577.0</ele><time>2026-04-24T07:45:18.991Z</time></trkpt><trkpt lat="43.6260989" lon="11.9853247"><ele>582.0</ele><time>2026-04-24T07:45:19.991Z</time></trkpt><trkpt lat="43.626059" lon="11.9855494"><ele>587.0</ele><time>2026-04-24T07:45:20.992Z</time></trkpt><trkpt lat="43.6260264" lon="11.9857906"><ele>592.0</ele><time>2026-04-24T07:45:21.991Z</time></trkpt><trkpt lat="43.6259935" lon="11.9860213"><ele>592.0</ele><time>2026-04-24T07:45:22.991Z</time></trkpt><trkpt lat="43.6259542" lon="11.9862301"><ele>592.0</ele><time>2026-04-24T07:45:23.991Z</time></trkpt><trkpt lat="43.6258923" lon="11.9864317"><ele>592.0</ele><time>2026-04-24T07:45:24.991Z</time></trkpt><trkpt lat="43.6258019" lon="11.986625"><ele>590.0</ele><time>2026-04-24T07:45:25.991Z</time></trkpt><trkpt lat="43.6256862" lon="11.9868086"><ele>588.0</ele><time>2026-04-24T07:45:26.992Z</time></trkpt><trkpt lat="43.625562" lon="11.9870031"><ele>586.0</ele><time>2026-04-24T07:45:27.991Z</time></trkpt><trkpt lat="43.6254407" lon="11.9872176"><ele>586.0</ele><time>2026-04-24T07:45:28.991Z</time></trkpt><trkpt lat="43.6253447" lon="11.9874711"><ele>586.0</ele><time>2026-04-24T07:45:29.991Z</time></trkpt><trkpt lat="43.6252692" lon="11.9877454"><ele>586.0</ele><time>2026-04-24T07:45:30.991Z</time></trkpt><trkpt lat="43.6251979" lon="11.988022"><ele>588.0</ele><time>2026-04-24T07:45:31.991Z</time></trkpt><trkpt lat="43.6251187" lon="11.988298"><ele>590.0</ele><time>2026-04-24T07:45:32.991Z</time></trkpt><trkpt lat="43.6250282" lon="11.9885682"><ele>592.0</ele><time>2026-04-24T07:45:33.991Z</time></trkpt><trkpt lat="43.6249258" lon="11.9888215"><ele>592.0</ele><time>2026-04-24T07:45:34.991Z</time></trkpt><trkpt lat="43.624823" lon="11.9890594"><ele>592.0</ele><time>2026-04-24T07:45:35.991Z</time></trkpt><trkpt lat="43.6247245" lon="11.9892757"><ele>592.0</ele><time>2026-04-24T07:45:36.992Z</time></trkpt><trkpt lat="43.6246342" lon="11.9894763"><ele>590.6666666666667</ele><time>2026-04-24T07:45:37.991Z</time></trkpt><trkpt lat="43.6245369" lon="11.9896606"><ele>589.3333333333334</ele><time>2026-04-24T07:45:38.991Z</time></trkpt><trkpt lat="43.6244213" lon="11.9898223"><ele>588.0</ele><time>2026-04-24T07:45:39.992Z</time></trkpt><trkpt lat="43.6242893" lon="11.9899688"><ele>589.6666666666666</ele><time>2026-04-24T07:45:40.991Z</time></trkpt><trkpt lat="43.6241492" lon="11.9900901"><ele>591.3333333333333</ele><time>2026-04-24T07:45:41.991Z</time></trkpt><trkpt lat="43.6240044" lon="11.9901686"><ele>593.0</ele><time>2026-04-24T07:45:42.992Z</time></trkpt><trkpt lat="43.6238526" lon="11.9901891"><ele>593.0</ele><time>2026-04-24T07:45:43.992Z</time></trkpt><trkpt lat="43.6237093" lon="11.9901356"><ele>593.0</ele><time>2026-04-24T07:45:44.991Z</time></trkpt><trkpt lat="43.6235756" lon="11.9900259"><ele>593.0</ele><time>2026-04-24T07:45:45.991Z</time></trkpt><trkpt lat="43.6234681" lon="11.9898794"><ele>593.5</ele><time>2026-04-24T07:45:46.991Z</time></trkpt><trkpt lat="43.6233817" lon="11.9897323"><ele>594.0</ele><time>2026-04-24T07:45:47.991Z</time></trkpt><trkpt lat="43.6232859" lon="11.9896245"><ele>594.5</ele><time>2026-04-24T07:45:48.991Z</time></trkpt><trkpt lat="43.6231741" lon="11.9895556"><ele>595.0</ele><time>2026-04-24T07:45:49.992Z</time></trkpt><trkpt lat="43.6230508" lon="11.9895638"><ele>595.0</ele><time>2026-04-24T07:45:50.991Z</time></trkpt><trkpt lat="43.6229253" lon="11.9896364"><ele>595.0</ele><time>2026-04-24T07:45:51.991Z</time></trkpt><trkpt lat="43.6228024" lon="11.9897704"><ele>595.0</ele><time>2026-04-24T07:45:52.991Z</time></trkpt><trkpt lat="43.6226759" lon="11.9899282"><ele>592.6666666666667</ele><time>2026-04-24T07:45:53.991Z</time></trkpt><trkpt lat="43.6225454" lon="11.9900965"><ele>590.3333333333334</ele><time>2026-04-24T07:45:54.991Z</time></trkpt><trkpt lat="43.6224155" lon="11.9902655"><ele>588.0</ele><time>2026-04-24T07:45:55.991Z</time></trkpt><trkpt lat="43.622283" lon="11.9904229"><ele>588.0</ele><time>2026-04-24T07:45:56.991Z</time></trkpt><trkpt lat="43.6221416" lon="11.990567"><ele>588.0</ele><time>2026-04-24T07:45:57.992Z</time></trkpt><trkpt lat="43.6219822" lon="11.9906812"><ele>588.0</ele><time>2026-04-24T07:45:58.991Z</time></trkpt><trkpt lat="43.6218096" lon="11.9907601"><ele>590.3333333333334</ele><time>2026-04-24T07:45:59.992Z</time></trkpt><trkpt lat="43.6216231" lon="11.9907916"><ele>592.6666666666667</ele><time>2026-04-24T07:46:00.991Z</time></trkpt><trkpt lat="43.6214304" lon="11.9907908"><ele>595.0</ele><time>2026-04-24T07:46:01.991Z</time></trkpt><trkpt lat="43.6212329" lon="11.9907694"><ele>594.0</ele><time>2026-04-24T07:46:02.991Z</time></trkpt><trkpt lat="43.6210343" lon="11.9907445"><ele>593.0</ele><time>2026-04-24T07:46:03.991Z</time></trkpt><trkpt lat="43.62084" lon="11.9907058"><ele>592.0</ele><time>2026-04-24T07:46:04.991Z</time></trkpt><trkpt lat="43.6206573" lon="11.9906554"><ele>592.0</ele><time>2026-04-24T07:46:05.992Z</time></trkpt><trkpt lat="43.620486" lon="11.9906084"><ele>592.0</ele><time>2026-04-24T07:46:06.991Z</time></trkpt><trkpt lat="43.6203358" lon="11.9905793"><ele>592.0</ele><time>2026-04-24T07:46:07.991Z</time></trkpt><trkpt lat="43.6202068" lon="11.9905923"><ele>590.5</ele><time>2026-04-24T07:46:08.991Z</time></trkpt><trkpt lat="43.6200976" lon="11.9906668"><ele>589.0</ele><time>2026-04-24T07:46:09.991Z</time></trkpt><trkpt lat="43.6200133" lon="11.9908105"><ele>587.5</ele><time>2026-04-24T07:46:10.992Z</time></trkpt><trkpt lat="43.6199596" lon="11.9909991"><ele>586.0</ele><time>2026-04-24T07:46:11.991Z</time></trkpt><trkpt lat="43.6199171" lon="11.9912126"><ele>583.0</ele><time>2026-04-24T07:46:12.991Z</time></trkpt><trkpt lat="43.6198454" lon="11.9914174"><ele>580.0</ele><time>2026-04-24T07:46:13.991Z</time></trkpt><trkpt lat="43.6197422" lon="11.9916056"><ele>577.0</ele><time>2026-04-24T07:46:14.992Z</time></trkpt><trkpt lat="43.619606" lon="11.9917719"><ele>574.6666666666667</ele><time>2026-04-24T07:46:15.992Z</time></trkpt><trkpt lat="43.6194502" lon="11.9919249"><ele>572.3333333333334</ele><time>2026-04-24T07:46:16.991Z</time></trkpt><trkpt lat="43.6192972" lon="11.9920725"><ele>570.0</ele><time>2026-04-24T07:46:17.992Z</time></trkpt><trkpt lat="43.6191605" lon="11.9921855"><ele>570.0</ele><time>2026-04-24T07:46:18.991Z</time></trkpt><trkpt lat="43.6190191" lon="11.9922485"><ele>570.0</ele><time>2026-04-24T07:46:19.992Z</time></trkpt><trkpt lat="43.6188806" lon="11.9922377"><ele>570.0</ele><time>2026-04-24T07:46:20.991Z</time></trkpt><trkpt lat="43.6187463" lon="11.9921559"><ele>570.0</ele><time>2026-04-24T07:46:21.991Z</time></trkpt><trkpt lat="43.6186205" lon="11.9920315"><ele>569.5</ele><time>2026-04-24T07:46:22.991Z</time></trkpt><trkpt lat="43.618495" lon="11.9919013"><ele>569.0</ele><time>2026-04-24T07:46:23.991Z</time></trkpt><trkpt lat="43.6183706" lon="11.9917995"><ele>568.5</ele><time>2026-04-24T07:46:24.991Z</time></trkpt><trkpt lat="43.6182468" lon="11.9917603"><ele>568.0</ele><time>2026-04-24T07:46:25.992Z</time></trkpt><trkpt lat="43.6181177" lon="11.9917976"><ele>568.0</ele><time>2026-04-24T07:46:26.991Z</time></trkpt><trkpt lat="43.6179849" lon="11.9919053"><ele>568.0</ele><time>2026-04-24T07:46:27.992Z</time></trkpt><trkpt lat="43.6178604" lon="11.9920637"><ele>568.0</ele><time>2026-04-24T07:46:28.992Z</time></trkpt><trkpt lat="43.6177377" lon="11.9922407"><ele>567.0</ele><time>2026-04-24T07:46:29.992Z</time></trkpt><trkpt lat="43.6176097" lon="11.9924408"><ele>566.0</ele><time>2026-04-24T07:46:30.991Z</time></trkpt><trkpt lat="43.6174787" lon="11.9926472"><ele>565.0</ele><time>2026-04-24T07:46:31.991Z</time></trkpt><trkpt lat="43.6173441" lon="11.9928554"><ele>565.0</ele><time>2026-04-24T07:46:32.991Z</time></trkpt><trkpt lat="43.6172072" lon="11.993064"><ele>565.0</ele><time>2026-04-24T07:46:33.991Z</time></trkpt><trkpt lat="43.6170769" lon="11.9932682"><ele>565.0</ele><time>2026-04-24T07:46:34.991Z</time></trkpt><trkpt lat="43.6169563" lon="11.9934618"><ele>563.6666666666667</ele><time>2026-04-24T07:46:35.991Z</time></trkpt><trkpt lat="43.6168432" lon="11.9936538"><ele>562.3333333333334</ele><time>2026-04-24T07:46:36.991Z</time></trkpt><trkpt lat="43.6167427" lon="11.9938557"><ele>561.0</ele><time>2026-04-24T07:46:37.991Z</time></trkpt><trkpt lat="43.6166516" lon="11.9940558"><ele>559.3333333333334</ele><time>2026-04-24T07:46:38.991Z</time></trkpt><trkpt lat="43.6165571" lon="11.994244"><ele>557.6666666666667</ele><time>2026-04-24T07:46:39.992Z</time></trkpt><trkpt lat="43.6164517" lon="11.9944091"><ele>556.0</ele><time>2026-04-24T07:46:40.991Z</time></trkpt><trkpt lat="43.6163196" lon="11.9945362"><ele>556.0</ele><time>2026-04-24T07:46:41.991Z</time></trkpt><trkpt lat="43.616164" lon="11.9946227"><ele>556.0</ele><time>2026-04-24T07:46:42.991Z</time></trkpt><trkpt lat="43.6159906" lon="11.9946691"><ele>556.0</ele><time>2026-04-24T07:46:43.991Z</time></trkpt><trkpt lat="43.6158032" lon="11.9946901"><ele>554.0</ele><time>2026-04-24T07:46:44.991Z</time></trkpt><trkpt lat="43.6156089" lon="11.9947113"><ele>552.0</ele><time>2026-04-24T07:46:45.991Z</time></trkpt><trkpt lat="43.6154101" lon="11.9947455"><ele>550.0</ele><time>2026-04-24T07:46:46.992Z</time></trkpt><trkpt lat="43.615213" lon="11.9947729"><ele>547.0</ele><time>2026-04-24T07:46:47.991Z</time></trkpt><trkpt lat="43.6150154" lon="11.9947966"><ele>544.0</ele><time>2026-04-24T07:46:48.991Z</time></trkpt><trkpt lat="43.6148204" lon="11.9948195"><ele>541.0</ele><time>2026-04-24T07:46:49.991Z</time></trkpt><trkpt lat="43.6146274" lon="11.9948493"><ele>539.6666666666667</ele><time>2026-04-24T07:46:50.991Z</time></trkpt><trkpt lat="43.6144413" lon="11.9948932"><ele>538.3333333333334</ele><time>2026-04-24T07:46:51.991Z</time></trkpt><trkpt lat="43.6142632" lon="11.9949504"><ele>537.0</ele><time>2026-04-24T07:46:52.991Z</time></trkpt><trkpt lat="43.6140984" lon="11.9950393"><ele>534.3333333333334</ele><time>2026-04-24T07:46:53.991Z</time></trkpt><trkpt lat="43.6139505" lon="11.9951518"><ele>531.6666666666667</ele><time>2026-04-24T07:46:54.991Z</time></trkpt><trkpt lat="43.6138138" lon="11.9952902"><ele>529.0</ele><time>2026-04-24T07:46:55.992Z</time></trkpt><trkpt lat="43.6136839" lon="11.99545"><ele>529.3333333333334</ele><time>2026-04-24T07:46:56.991Z</time></trkpt><trkpt lat="43.6135483" lon="11.9956328"><ele>529.6666666666666</ele><time>2026-04-24T07:46:57.992Z</time></trkpt><trkpt lat="43.6133985" lon="11.995823"><ele>530.0</ele><time>2026-04-24T07:46:58.991Z</time></trkpt><trkpt lat="43.6132328" lon="11.9960156"><ele>528.3333333333333</ele><time>2026-04-24T07:46:59.991Z</time></trkpt><trkpt lat="43.6130517" lon="11.9961937"><ele>526.6666666666666</ele><time>2026-04-24T07:47:00.992Z</time></trkpt><trkpt lat="43.612864" lon="11.9963585"><ele>525.0</ele><time>2026-04-24T07:47:01.991Z</time></trkpt><trkpt lat="43.6126744" lon="11.9965063"><ele>525.0</ele><time>2026-04-24T07:47:02.991Z</time></trkpt><trkpt lat="43.6124981" lon="11.996637"><ele>525.0</ele><time>2026-04-24T07:47:03.991Z</time></trkpt><trkpt lat="43.6123191" lon="11.9967562"><ele>525.0</ele><time>2026-04-24T07:47:04.991Z</time></trkpt><trkpt lat="43.6121225" lon="11.996871"><ele>523.3333333333334</ele><time>2026-04-24T07:47:05.991Z</time></trkpt><trkpt lat="43.6119318" lon="11.9969639"><ele>521.6666666666667</ele><time>2026-04-24T07:47:06.991Z</time></trkpt><trkpt lat="43.6117517" lon="11.9970578"><ele>520.0</ele><time>2026-04-24T07:47:07.992Z</time></trkpt><trkpt lat="43.6115832" lon="11.997151"><ele>520.0</ele><time>2026-04-24T07:47:08.991Z</time></trkpt><trkpt lat="43.6114336" lon="11.9972453"><ele>520.0</ele><time>2026-04-24T07:47:09.991Z</time></trkpt><trkpt lat="43.6112974" lon="11.9973647"><ele>520.0</ele><time>2026-04-24T07:47:10.991Z</time></trkpt><trkpt lat="43.6111842" lon="11.9975321"><ele>525.3333333333334</ele><time>2026-04-24T07:47:11.991Z</time></trkpt><trkpt lat="43.6111011" lon="11.9977418"><ele>530.6666666666666</ele><time>2026-04-24T07:47:12.992Z</time></trkpt><trkpt lat="43.6110599" lon="11.9979864"><ele>536.0</ele><time>2026-04-24T07:47:13.991Z</time></trkpt><trkpt lat="43.6110403" lon="11.9982463"><ele>534.6666666666666</ele><time>2026-04-24T07:47:14.991Z</time></trkpt><trkpt lat="43.611004" lon="11.9985205"><ele>533.3333333333334</ele><time>2026-04-24T07:47:15.991Z</time></trkpt><trkpt lat="43.6109306" lon="11.9987895"><ele>532.0</ele><time>2026-04-24T07:47:16.991Z</time></trkpt><trkpt lat="43.6108289" lon="11.9990463"><ele>531.0</ele><time>2026-04-24T07:47:17.991Z</time></trkpt><trkpt lat="43.6107028" lon="11.999293"><ele>530.0</ele><time>2026-04-24T07:47:18.991Z</time></trkpt><trkpt lat="43.6105635" lon="11.9995347"><ele>529.0</ele><time>2026-04-24T07:47:19.991Z</time></trkpt><trkpt lat="43.6104192" lon="11.9997767"><ele>532.5</ele><time>2026-04-24T07:47:20.991Z</time></trkpt><trkpt lat="43.6102731" lon="12.0000217"><ele>536.0</ele><time>2026-04-24T07:47:21.991Z</time></trkpt><trkpt lat="43.6101266" lon="12.0002666"><ele>536.0</ele><time>2026-04-24T07:47:22.991Z</time></trkpt><trkpt lat="43.609986" lon="12.0004997"><ele>536.0</ele><time>2026-04-24T07:47:23.991Z</time></trkpt><trkpt lat="43.6098559" lon="12.0007128"><ele>536.0</ele><time>2026-04-24T07:47:24.991Z</time></trkpt><trkpt lat="43.6097296" lon="12.00092"><ele>535.6666666666666</ele><time>2026-04-24T07:47:25.992Z</time></trkpt><trkpt lat="43.6096077" lon="12.0011234"><ele>535.3333333333334</ele><time>2026-04-24T07:47:26.991Z</time></trkpt><trkpt lat="43.6094888" lon="12.0013284"><ele>535.0</ele><time>2026-04-24T07:47:27.991Z</time></trkpt><trkpt lat="43.6093705" lon="12.0015421"><ele>538.0</ele><time>2026-04-24T07:47:28.991Z</time></trkpt><trkpt lat="43.6092563" lon="12.0017712"><ele>541.0</ele><time>2026-04-24T07:47:29.991Z</time></trkpt><trkpt lat="43.6091491" lon="12.0020161"><ele>544.0</ele><time>2026-04-24T07:47:30.991Z</time></trkpt><trkpt lat="43.6090403" lon="12.002271"><ele>540.5</ele><time>2026-04-24T07:47:31.991Z</time></trkpt><trkpt lat="43.6089264" lon="12.0025357"><ele>537.0</ele><time>2026-04-24T07:47:32.991Z</time></trkpt><trkpt lat="43.6088109" lon="12.0028078"><ele>537.0</ele><time>2026-04-24T07:47:33.991Z</time></trkpt><trkpt lat="43.6086921" lon="12.0030866"><ele>537.0</ele><time>2026-04-24T07:47:34.991Z</time></trkpt><trkpt lat="43.6085717" lon="12.0033686"><ele>536.0</ele><time>2026-04-24T07:47:35.991Z</time></trkpt><trkpt lat="43.6084516" lon="12.0036586"><ele>535.0</ele><time>2026-04-24T07:47:36.991Z</time></trkpt><trkpt lat="43.6083308" lon="12.0039441"><ele>534.3333333333334</ele><time>2026-04-24T07:47:37.991Z</time></trkpt><trkpt lat="43.6082195" lon="12.0042055"><ele>533.6666666666666</ele><time>2026-04-24T07:47:38.991Z</time></trkpt><trkpt lat="43.6081103" lon="12.0044406"><ele>533.0</ele><time>2026-04-24T07:47:39.991Z</time></trkpt><trkpt lat="43.6079831" lon="12.0046519"><ele>533.0</ele><time>2026-04-24T07:47:40.992Z</time></trkpt><trkpt lat="43.6078296" lon="12.0048254"><ele>533.0</ele><time>2026-04-24T07:47:41.991Z</time></trkpt><trkpt lat="43.6076563" lon="12.0049593"><ele>533.0</ele><time>2026-04-24T07:47:42.991Z</time></trkpt><trkpt lat="43.607468" lon="12.0050732"><ele>534.3333333333333</ele><time>2026-04-24T07:47:43.991Z</time></trkpt><trkpt lat="43.6072752" lon="12.0051899"><ele>535.6666666666666</ele><time>2026-04-24T07:47:44.991Z</time></trkpt><trkpt lat="43.6070776" lon="12.0053049"><ele>537.0</ele><time>2026-04-24T07:47:45.991Z</time></trkpt><trkpt lat="43.606877" lon="12.0054217"><ele>540.6666666666666</ele><time>2026-04-24T07:47:46.992Z</time></trkpt><trkpt lat="43.606676" lon="12.0055367"><ele>544.3333333333333</ele><time>2026-04-24T07:47:47.991Z</time></trkpt><trkpt lat="43.6064749" lon="12.0056552"><ele>548.0</ele><time>2026-04-24T07:47:48.991Z</time></trkpt><trkpt lat="43.606278" lon="12.0057689"><ele>545.0</ele><time>2026-04-24T07:47:49.992Z</time></trkpt><trkpt lat="43.6060907" lon="12.0058764"><ele>542.0</ele><time>2026-04-24T07:47:50.991Z</time></trkpt><trkpt lat="43.6059121" lon="12.0059735"><ele>539.0</ele><time>2026-04-24T07:47:51.993Z</time></trkpt><trkpt lat="43.6057424" lon="12.0060622"><ele>539.0</ele><time>2026-04-24T07:47:52.991Z</time></trkpt><trkpt lat="43.6055866" lon="12.006136"><ele>539.0</ele><time>2026-04-24T07:47:53.991Z</time></trkpt><trkpt lat="43.6054461" lon="12.0062103"><ele>539.0</ele><time>2026-04-24T07:47:54.992Z</time></trkpt><trkpt lat="43.6053228" lon="12.0062984"><ele>541.5</ele><time>2026-04-24T07:47:55.992Z</time></trkpt><trkpt lat="43.60522" lon="12.006411"><ele>544.0</ele><time>2026-04-24T07:47:56.991Z</time></trkpt><trkpt lat="43.6051522" lon="12.0065714"><ele>546.5</ele><time>2026-04-24T07:47:57.992Z</time></trkpt><trkpt lat="43.6051242" lon="12.0067725"><ele>549.0</ele><time>2026-04-24T07:47:58.991Z</time></trkpt><trkpt lat="43.6051197" lon="12.0069983"><ele>549.0</ele><time>2026-04-24T07:47:59.991Z</time></trkpt><trkpt lat="43.6051208" lon="12.0072526"><ele>549.0</ele><time>2026-04-24T07:48:00.992Z</time></trkpt><trkpt lat="43.6051236" lon="12.0075196"><ele>549.0</ele><time>2026-04-24T07:48:01.991Z</time></trkpt><trkpt lat="43.6051262" lon="12.0077716"><ele>548.0</ele><time>2026-04-24T07:48:02.992Z</time></trkpt><trkpt lat="43.605127" lon="12.0080121"><ele>547.0</ele><time>2026-04-24T07:48:03.991Z</time></trkpt><trkpt lat="43.6051269" lon="12.0082435"><ele>546.0</ele><time>2026-04-24T07:48:04.991Z</time></trkpt><trkpt lat="43.6051286" lon="12.0084888"><ele>543.3333333333334</ele><time>2026-04-24T07:48:05.991Z</time></trkpt><trkpt lat="43.6051373" lon="12.0087463"><ele>540.6666666666667</ele><time>2026-04-24T07:48:06.991Z</time></trkpt><trkpt lat="43.6051469" lon="12.009008"><ele>538.0</ele><time>2026-04-24T07:48:07.991Z</time></trkpt><trkpt lat="43.6051455" lon="12.0092727"><ele>538.0</ele><time>2026-04-24T07:48:08.992Z</time></trkpt><trkpt lat="43.6051209" lon="12.0095371"><ele>538.0</ele><time>2026-04-24T07:48:09.992Z</time></trkpt><trkpt lat="43.605072" lon="12.0097961"><ele>538.0</ele><time>2026-04-24T07:48:10.991Z</time></trkpt><trkpt lat="43.6049987" lon="12.0100518"><ele>537.6666666666667</ele><time>2026-04-24T07:48:11.992Z</time></trkpt><trkpt lat="43.6049048" lon="12.0102952"><ele>537.3333333333334</ele><time>2026-04-24T07:48:12.991Z</time></trkpt><trkpt lat="43.6047801" lon="12.0105136"><ele>537.0</ele><time>2026-04-24T07:48:13.991Z</time></trkpt><trkpt lat="43.6046314" lon="12.0107091"><ele>537.0</ele><time>2026-04-24T07:48:14.992Z</time></trkpt><trkpt lat="43.6044631" lon="12.0108858"><ele>537.0</ele><time>2026-04-24T07:48:15.992Z</time></trkpt><trkpt lat="43.6042797" lon="12.0110391"><ele>537.0</ele><time>2026-04-24T07:48:16.991Z</time></trkpt><trkpt lat="43.6040895" lon="12.0111799"><ele>537.0</ele><time>2026-04-24T07:48:17.991Z</time></trkpt><trkpt lat="43.60389" lon="12.0113086"><ele>537.0</ele><time>2026-04-24T07:48:18.991Z</time></trkpt><trkpt lat="43.6036963" lon="12.0114263"><ele>537.0</ele><time>2026-04-24T07:48:19.991Z</time></trkpt><trkpt lat="43.6035129" lon="12.0115413"><ele>535.0</ele><time>2026-04-24T07:48:20.991Z</time></trkpt><trkpt lat="43.6033524" lon="12.011645"><ele>533.0</ele><time>2026-04-24T07:48:21.992Z</time></trkpt><trkpt lat="43.6032056" lon="12.0117479"><ele>531.0</ele><time>2026-04-24T07:48:22.991Z</time></trkpt><trkpt lat="43.6030724" lon="12.0118712"><ele>531.0</ele><time>2026-04-24T07:48:23.992Z</time></trkpt><trkpt lat="43.6029552" lon="12.0120496"><ele>531.0</ele><time>2026-04-24T07:48:24.991Z</time></trkpt><trkpt lat="43.6028602" lon="12.0122745"><ele>531.0</ele><time>2026-04-24T07:48:25.991Z</time></trkpt><trkpt lat="43.6027767" lon="12.0125215"><ele>530.3333333333334</ele><time>2026-04-24T07:48:26.991Z</time></trkpt><trkpt lat="43.6026854" lon="12.0127742"><ele>529.6666666666667</ele><time>2026-04-24T07:48:27.992Z</time></trkpt><trkpt lat="43.6025879" lon="12.0130368"><ele>529.0</ele><time>2026-04-24T07:48:28.991Z</time></trkpt><trkpt lat="43.6024914" lon="12.0133052"><ele>527.6666666666667</ele><time>2026-04-24T07:48:29.991Z</time></trkpt><trkpt lat="43.6023929" lon="12.0135768"><ele>526.3333333333334</ele><time>2026-04-24T07:48:30.991Z</time></trkpt><trkpt lat="43.6022909" lon="12.0138525"><ele>525.0</ele><time>2026-04-24T07:48:31.991Z</time></trkpt><trkpt lat="43.6021878" lon="12.0141339"><ele>524.0</ele><time>2026-04-24T07:48:32.991Z</time></trkpt><trkpt lat="43.6020869" lon="12.0144173"><ele>523.0</ele><time>2026-04-24T07:48:33.991Z</time></trkpt><trkpt lat="43.6019855" lon="12.014699"><ele>525.0</ele><time>2026-04-24T07:48:34.991Z</time></trkpt><trkpt lat="43.6018838" lon="12.0149781"><ele>527.0</ele><time>2026-04-24T07:48:35.992Z</time></trkpt><trkpt lat="43.601784" lon="12.0152565"><ele>527.0</ele><time>2026-04-24T07:48:36.991Z</time></trkpt><trkpt lat="43.6016858" lon="12.0155305"><ele>527.0</ele><time>2026-04-24T07:48:37.991Z</time></trkpt><trkpt lat="43.6015919" lon="12.0157933"><ele>527.0</ele><time>2026-04-24T07:48:38.993Z</time></trkpt><trkpt lat="43.6014958" lon="12.0160479"><ele>527.0</ele><time>2026-04-24T07:48:39.991Z</time></trkpt><trkpt lat="43.6013789" lon="12.0162859"><ele>527.0</ele><time>2026-04-24T07:48:40.992Z</time></trkpt><trkpt lat="43.601245" lon="12.0165019"><ele>527.0</ele><time>2026-04-24T07:48:41.991Z</time></trkpt><trkpt lat="43.6010967" lon="12.0167047"><ele>527.0</ele><time>2026-04-24T07:48:42.991Z</time></trkpt><trkpt lat="43.600939" lon="12.0168938"><ele>527.0</ele><time>2026-04-24T07:48:43.991Z</time></trkpt><trkpt lat="43.6007795" lon="12.0170593"><ele>527.0</ele><time>2026-04-24T07:48:44.991Z</time></trkpt><trkpt lat="43.6006271" lon="12.0171974"><ele>527.0</ele><time>2026-04-24T07:48:45.991Z</time></trkpt><trkpt lat="43.6004889" lon="12.0173222"><ele>527.0</ele><time>2026-04-24T07:48:46.992Z</time></trkpt><trkpt lat="43.600377" lon="12.0174557"><ele>527.0</ele><time>2026-04-24T07:48:47.991Z</time></trkpt><trkpt lat="43.6002983" lon="12.0176091"><ele>527.0</ele><time>2026-04-24T07:48:48.991Z</time></trkpt><trkpt lat="43.6002723" lon="12.0177703"><ele>527.25</ele><time>2026-04-24T07:48:49.991Z</time></trkpt><trkpt lat="43.6002933" lon="12.0179267"><ele>527.5</ele><time>2026-04-24T07:48:50.992Z</time></trkpt><trkpt lat="43.6003896" lon="12.0180643"><ele>527.75</ele><time>2026-04-24T07:48:51.991Z</time></trkpt><trkpt lat="43.6005149" lon="12.0181637"><ele>528.0</ele><time>2026-04-24T07:48:52.992Z</time></trkpt><trkpt lat="43.6006544" lon="12.0182524"><ele>524.25</ele><time>2026-04-24T07:48:53.991Z</time></trkpt><trkpt lat="43.6007939" lon="12.0183502"><ele>520.5</ele><time>2026-04-24T07:48:54.991Z</time></trkpt><trkpt lat="43.6009078" lon="12.018474"><ele>516.75</ele><time>2026-04-24T07:48:55.992Z</time></trkpt><trkpt lat="43.6009767" lon="12.0186268"><ele>513.0</ele><time>2026-04-24T07:48:56.991Z</time></trkpt><trkpt lat="43.6009983" lon="12.0188151"><ele>513.0</ele><time>2026-04-24T07:48:57.991Z</time></trkpt><trkpt lat="43.6009817" lon="12.0190297"><ele>513.0</ele><time>2026-04-24T07:48:58.992Z</time></trkpt><trkpt lat="43.6009495" lon="12.0192673"><ele>513.0</ele><time>2026-04-24T07:48:59.991Z</time></trkpt><trkpt lat="43.6009237" lon="12.0195309"><ele>512.6666666666666</ele><time>2026-04-24T07:49:00.992Z</time></trkpt><trkpt lat="43.6009025" lon="12.0197868"><ele>512.3333333333333</ele><time>2026-04-24T07:49:01.991Z</time></trkpt><trkpt lat="43.6008802" lon="12.0200198"><ele>512.0</ele><time>2026-04-24T07:49:02.991Z</time></trkpt><trkpt lat="43.6008403" lon="12.0202272"><ele>512.0</ele><time>2026-04-24T07:49:03.991Z</time></trkpt><trkpt lat="43.6007613" lon="12.0203906"><ele>512.0</ele><time>2026-04-24T07:49:04.991Z</time></trkpt><trkpt lat="43.6006486" lon="12.0204778"><ele>512.0</ele><time>2026-04-24T07:49:05.991Z</time></trkpt><trkpt lat="43.6005074" lon="12.0205002"><ele>512.0</ele><time>2026-04-24T07:49:06.991Z</time></trkpt><trkpt lat="43.6003475" lon="12.0204701"><ele>516.3333333333333</ele><time>2026-04-24T07:49:07.991Z</time></trkpt><trkpt lat="43.6001713" lon="12.0204406"><ele>520.6666666666666</ele><time>2026-04-24T07:49:08.991Z</time></trkpt><trkpt lat="43.5999881" lon="12.0204189"><ele>525.0</ele><time>2026-04-24T07:49:09.991Z</time></trkpt><trkpt lat="43.5998183" lon="12.0203935"><ele>525.0</ele><time>2026-04-24T07:49:10.991Z</time></trkpt><trkpt lat="43.599669" lon="12.0203866"><ele>525.0</ele><time>2026-04-24T07:49:11.991Z</time></trkpt><trkpt lat="43.599536" lon="12.0204126"><ele>525.0</ele><time>2026-04-24T07:49:12.991Z</time></trkpt><trkpt lat="43.5994197" lon="12.0204933"><ele>525.0</ele><time>2026-04-24T07:49:13.991Z</time></trkpt><trkpt lat="43.599324" lon="12.0206528"><ele>525.0</ele><time>2026-04-24T07:49:14.991Z</time></trkpt><trkpt lat="43.5992595" lon="12.020857"><ele>525.0</ele><time>2026-04-24T07:49:15.991Z</time></trkpt><trkpt lat="43.5992024" lon="12.0210843"><ele>525.0</ele><time>2026-04-24T07:49:16.991Z</time></trkpt><trkpt lat="43.5991372" lon="12.0212905"><ele>525.0</ele><time>2026-04-24T07:49:17.991Z</time></trkpt><trkpt lat="43.5990441" lon="12.0214666"><ele>525.0</ele><time>2026-04-24T07:49:18.991Z</time></trkpt><trkpt lat="43.5989081" lon="12.0216001"><ele>525.0</ele><time>2026-04-24T07:49:19.992Z</time></trkpt><trkpt lat="43.5987498" lon="12.0216738"><ele>526.0</ele><time>2026-04-24T07:49:20.991Z</time></trkpt><trkpt lat="43.598582" lon="12.0217457"><ele>527.0</ele><time>2026-04-24T07:49:21.991Z</time></trkpt><trkpt lat="43.5984345" lon="12.0218501"><ele>528.0</ele><time>2026-04-24T07:49:22.991Z</time></trkpt><trkpt lat="43.5983117" lon="12.0220038"><ele>528.0</ele><time>2026-04-24T07:49:23.991Z</time></trkpt><trkpt lat="43.5982172" lon="12.0222084"><ele>528.0</ele><time>2026-04-24T07:49:24.991Z</time></trkpt><trkpt lat="43.59814" lon="12.0224361"><ele>528.0</ele><time>2026-04-24T07:49:25.991Z</time></trkpt><trkpt lat="43.598058" lon="12.0226795"><ele>529.3333333333334</ele><time>2026-04-24T07:49:26.992Z</time></trkpt><trkpt lat="43.5979751" lon="12.0229251"><ele>530.6666666666667</ele><time>2026-04-24T07:49:27.991Z</time></trkpt><trkpt lat="43.597901" lon="12.0231512"><ele>532.0</ele><time>2026-04-24T07:49:28.992Z</time></trkpt><trkpt lat="43.5978314" lon="12.0233645"><ele>532.0</ele><time>2026-04-24T07:49:29.991Z</time></trkpt><trkpt lat="43.5977804" lon="12.0235928"><ele>532.0</ele><time>2026-04-24T07:49:30.993Z</time></trkpt><trkpt lat="43.5977776" lon="12.023842"><ele>532.0</ele><time>2026-04-24T07:49:31.991Z</time></trkpt><trkpt lat="43.5978143" lon="12.024086"><ele>528.3333333333334</ele><time>2026-04-24T07:49:32.991Z</time></trkpt><trkpt lat="43.5978671" lon="12.0242989"><ele>524.6666666666666</ele><time>2026-04-24T07:49:33.991Z</time></trkpt><trkpt lat="43.5979101" lon="12.0244975"><ele>521.0</ele><time>2026-04-24T07:49:34.991Z</time></trkpt><trkpt lat="43.5979327" lon="12.0246845"><ele>521.0</ele><time>2026-04-24T07:49:35.991Z</time></trkpt><trkpt lat="43.5979079" lon="12.0248628"><ele>521.0</ele><time>2026-04-24T07:49:36.991Z</time></trkpt><trkpt lat="43.597822" lon="12.0249989"><ele>521.0</ele><time>2026-04-24T07:49:37.992Z</time></trkpt><trkpt lat="43.5976995" lon="12.0251059"><ele>521.0</ele><time>2026-04-24T07:49:38.991Z</time></trkpt><trkpt lat="43.5975539" lon="12.0252134"><ele>526.0</ele><time>2026-04-24T07:49:39.991Z</time></trkpt><trkpt lat="43.5973944" lon="12.0253265"><ele>531.0</ele><time>2026-04-24T07:49:40.991Z</time></trkpt><trkpt lat="43.5972291" lon="12.0254575"><ele>536.0</ele><time>2026-04-24T07:49:41.991Z</time></trkpt><trkpt lat="43.5970758" lon="12.0256295"><ele>538.3333333333333</ele><time>2026-04-24T07:49:42.991Z</time></trkpt><trkpt lat="43.596948" lon="12.0258427"><ele>540.6666666666666</ele><time>2026-04-24T07:49:43.991Z</time></trkpt><trkpt lat="43.5968545" lon="12.0260917"><ele>543.0</ele><time>2026-04-24T07:49:44.992Z</time></trkpt><trkpt lat="43.5967956" lon="12.0263713"><ele>541.0</ele><time>2026-04-24T07:49:45.992Z</time></trkpt><trkpt lat="43.5967678" lon="12.026664"><ele>539.0</ele><time>2026-04-24T07:49:46.991Z</time></trkpt><trkpt lat="43.5967505" lon="12.0269306"><ele>537.0</ele><time>2026-04-24T07:49:47.992Z</time></trkpt><trkpt lat="43.5967178" lon="12.0271676"><ele>537.0</ele><time>2026-04-24T07:49:48.991Z</time></trkpt><trkpt lat="43.5966536" lon="12.0273712"><ele>537.0</ele><time>2026-04-24T07:49:49.991Z</time></trkpt><trkpt lat="43.5965414" lon="12.0275358"><ele>537.0</ele><time>2026-04-24T07:49:50.992Z</time></trkpt><trkpt lat="43.5963954" lon="12.0276684"><ele>536.3333333333334</ele><time>2026-04-24T07:49:51.991Z</time></trkpt><trkpt lat="43.5962281" lon="12.0277957"><ele>535.6666666666667</ele><time>2026-04-24T07:49:52.992Z</time></trkpt><trkpt lat="43.5960456" lon="12.0279366"><ele>535.0</ele><time>2026-04-24T07:49:53.992Z</time></trkpt><trkpt lat="43.5958529" lon="12.0280868"><ele>534.0</ele><time>2026-04-24T07:49:54.991Z</time></trkpt><trkpt lat="43.59565" lon="12.0282437"><ele>533.0</ele><time>2026-04-24T07:49:55.992Z</time></trkpt><trkpt lat="43.5954431" lon="12.0284032"><ele>527.5</ele><time>2026-04-24T07:49:56.991Z</time></trkpt><trkpt lat="43.5952375" lon="12.0285563"><ele>522.0</ele><time>2026-04-24T07:49:57.991Z</time></trkpt><trkpt lat="43.595043" lon="12.028702"><ele>522.0</ele><time>2026-04-24T07:49:58.991Z</time></trkpt><trkpt lat="43.5948775" lon="12.0288271"><ele>522.0</ele><time>2026-04-24T07:49:59.991Z</time></trkpt><trkpt lat="43.5947438" lon="12.0289465"><ele>522.0</ele><time>2026-04-24T07:50:00.991Z</time></trkpt><trkpt lat="43.5946414" lon="12.0290901"><ele>523.0</ele><time>2026-04-24T07:50:01.991Z</time></trkpt><trkpt lat="43.5945697" lon="12.0292532"><ele>524.0</ele><time>2026-04-24T07:50:02.991Z</time></trkpt><trkpt lat="43.5945327" lon="12.0294358"><ele>525.0</ele><time>2026-04-24T07:50:03.991Z</time></trkpt><trkpt lat="43.5945291" lon="12.0296404"><ele>526.0</ele><time>2026-04-24T07:50:04.991Z</time></trkpt><trkpt lat="43.5945547" lon="12.0298615"><ele>524.3333333333334</ele><time>2026-04-24T07:50:05.991Z</time></trkpt><trkpt lat="43.5946006" lon="12.0300938"><ele>522.6666666666666</ele><time>2026-04-24T07:50:06.991Z</time></trkpt><trkpt lat="43.5946491" lon="12.0303408"><ele>521.0</ele><time>2026-04-24T07:50:07.992Z</time></trkpt><trkpt lat="43.5946974" lon="12.0306028"><ele>520.6666666666666</ele><time>2026-04-24T07:50:08.991Z</time></trkpt><trkpt lat="43.5947477" lon="12.0308705"><ele>520.3333333333334</ele><time>2026-04-24T07:50:09.992Z</time></trkpt><trkpt lat="43.594801" lon="12.0311399"><ele>520.0</ele><time>2026-04-24T07:50:10.991Z</time></trkpt><trkpt lat="43.594855" lon="12.0314116"><ele>518.3333333333334</ele><time>2026-04-24T07:50:11.991Z</time></trkpt><trkpt lat="43.5949091" lon="12.0316831"><ele>516.6666666666666</ele><time>2026-04-24T07:50:12.991Z</time></trkpt><trkpt lat="43.5949586" lon="12.0319516"><ele>515.0</ele><time>2026-04-24T07:50:13.991Z</time></trkpt><trkpt lat="43.5949907" lon="12.0322283"><ele>512.3333333333333</ele><time>2026-04-24T07:50:14.991Z</time></trkpt><trkpt lat="43.5949835" lon="12.0325147"><ele>509.66666666666663</ele><time>2026-04-24T07:50:15.991Z</time></trkpt><trkpt lat="43.5949444" lon="12.0327988"><ele>507.0</ele><time>2026-04-24T07:50:16.991Z</time></trkpt><trkpt lat="43.5948895" lon="12.0330838"><ele>505.33333333333337</ele><time>2026-04-24T07:50:17.991Z</time></trkpt><trkpt lat="43.5948349" lon="12.033375"><ele>503.6666666666667</ele><time>2026-04-24T07:50:18.992Z</time></trkpt><trkpt lat="43.5947799" lon="12.0336667"><ele>502.0</ele><time>2026-04-24T07:50:19.991Z</time></trkpt><trkpt lat="43.594722" lon="12.0339566"><ele>500.33333333333337</ele><time>2026-04-24T07:50:20.991Z</time></trkpt><trkpt lat="43.5946642" lon="12.0342483"><ele>498.66666666666663</ele><time>2026-04-24T07:50:21.991Z</time></trkpt><trkpt lat="43.5946054" lon="12.0345423"><ele>497.0</ele><time>2026-04-24T07:50:22.991Z</time></trkpt><trkpt lat="43.5945458" lon="12.0348372"><ele>498.66666666666663</ele><time>2026-04-24T07:50:23.991Z</time></trkpt><trkpt lat="43.5944857" lon="12.0351277"><ele>500.33333333333337</ele><time>2026-04-24T07:50:24.991Z</time></trkpt><trkpt lat="43.5944265" lon="12.0354149"><ele>502.0</ele><time>2026-04-24T07:50:25.991Z</time></trkpt><trkpt lat="43.5943723" lon="12.0356989"><ele>501.33333333333337</ele><time>2026-04-24T07:50:26.991Z</time></trkpt><trkpt lat="43.5943188" lon="12.0359822"><ele>500.66666666666663</ele><time>2026-04-24T07:50:27.991Z</time></trkpt><trkpt lat="43.5942627" lon="12.0362703"><ele>500.0</ele><time>2026-04-24T07:50:28.991Z</time></trkpt><trkpt lat="43.5942044" lon="12.0365579"><ele>499.66666666666663</ele><time>2026-04-24T07:50:29.992Z</time></trkpt><trkpt lat="43.5941493" lon="12.0368373"><ele>499.33333333333337</ele><time>2026-04-24T07:50:30.991Z</time></trkpt><trkpt lat="43.5940891" lon="12.0370989"><ele>499.0</ele><time>2026-04-24T07:50:31.991Z</time></trkpt><trkpt lat="43.5940078" lon="12.0373394"><ele>499.0</ele><time>2026-04-24T07:50:32.992Z</time></trkpt><trkpt lat="43.5938964" lon="12.0375617"><ele>499.0</ele><time>2026-04-24T07:50:33.991Z</time></trkpt><trkpt lat="43.5937562" lon="12.037744"><ele>499.0</ele><time>2026-04-24T07:50:34.991Z</time></trkpt><trkpt lat="43.5935903" lon="12.0378827"><ele>499.0</ele><time>2026-04-24T07:50:35.992Z</time></trkpt><trkpt lat="43.593404" lon="12.0379845"><ele>499.0</ele><time>2026-04-24T07:50:36.991Z</time></trkpt><trkpt lat="43.5932034" lon="12.0380623"><ele>499.0</ele><time>2026-04-24T07:50:37.991Z</time></trkpt><trkpt lat="43.5929946" lon="12.0381417"><ele>499.5</ele><time>2026-04-24T07:50:38.992Z</time></trkpt><trkpt lat="43.5927829" lon="12.0382317"><ele>500.0</ele><time>2026-04-24T07:50:39.993Z</time></trkpt><trkpt lat="43.5925644" lon="12.0383226"><ele>494.0</ele><time>2026-04-24T07:50:40.991Z</time></trkpt><trkpt lat="43.5923395" lon="12.0384163"><ele>488.0</ele><time>2026-04-24T07:50:41.993Z</time></trkpt><trkpt lat="43.5921078" lon="12.0385095"><ele>488.0</ele><time>2026-04-24T07:50:42.991Z</time></trkpt><trkpt lat="43.5918724" lon="12.0386039"><ele>488.0</ele><time>2026-04-24T07:50:43.991Z</time></trkpt><trkpt lat="43.591634" lon="12.0387015"><ele>488.0</ele><time>2026-04-24T07:50:44.991Z</time></trkpt><trkpt lat="43.5913967" lon="12.0388124"><ele>488.0</ele><time>2026-04-24T07:50:45.992Z</time></trkpt><trkpt lat="43.5911717" lon="12.0389364"><ele>489.0</ele><time>2026-04-24T07:50:46.991Z</time></trkpt><trkpt lat="43.5909607" lon="12.0390692"><ele>490.0</ele><time>2026-04-24T07:50:47.991Z</time></trkpt><trkpt lat="43.5907608" lon="12.0392041"><ele>485.33333333333337</ele><time>2026-04-24T07:50:48.991Z</time></trkpt><trkpt lat="43.5905703" lon="12.0393389"><ele>480.66666666666663</ele><time>2026-04-24T07:50:49.991Z</time></trkpt><trkpt lat="43.5903918" lon="12.0394659"><ele>476.0</ele><time>2026-04-24T07:50:50.991Z</time></trkpt><trkpt lat="43.5902284" lon="12.0395813"><ele>476.0</ele><time>2026-04-24T07:50:51.991Z</time></trkpt><trkpt lat="43.5900848" lon="12.0396721"><ele>476.0</ele><time>2026-04-24T07:50:52.992Z</time></trkpt><trkpt lat="43.5899558" lon="12.0397363"><ele>476.0</ele><time>2026-04-24T07:50:53.991Z</time></trkpt><trkpt lat="43.5898245" lon="12.0397551"><ele>476.0</ele><time>2026-04-24T07:50:54.991Z</time></trkpt><trkpt lat="43.5897002" lon="12.0396901"><ele>476.0</ele><time>2026-04-24T07:50:55.991Z</time></trkpt><trkpt lat="43.5895942" lon="12.0395435"><ele>476.0</ele><time>2026-04-24T07:50:56.991Z</time></trkpt><trkpt lat="43.5894982" lon="12.039358"><ele>476.0</ele><time>2026-04-24T07:50:57.992Z</time></trkpt><trkpt lat="43.5894045" lon="12.0391712"><ele>473.3333333333333</ele><time>2026-04-24T07:50:58.991Z</time></trkpt><trkpt lat="43.5893026" lon="12.0390037"><ele>470.66666666666663</ele><time>2026-04-24T07:50:59.991Z</time></trkpt><trkpt lat="43.5891748" lon="12.0388818"><ele>468.0</ele><time>2026-04-24T07:51:00.991Z</time></trkpt><trkpt lat="43.5890162" lon="12.0388267"><ele>468.0</ele><time>2026-04-24T07:51:01.992Z</time></trkpt><trkpt lat="43.5888438" lon="12.0388145"><ele>468.0</ele><time>2026-04-24T07:51:02.992Z</time></trkpt><trkpt lat="43.5886546" lon="12.0388102"><ele>468.0</ele><time>2026-04-24T07:51:03.992Z</time></trkpt><trkpt lat="43.5884651" lon="12.0387967"><ele>463.33333333333337</ele><time>2026-04-24T07:51:04.991Z</time></trkpt><trkpt lat="43.5882808" lon="12.0387927"><ele>458.6666666666667</ele><time>2026-04-24T07:51:05.992Z</time></trkpt><trkpt lat="43.5881014" lon="12.0387844"><ele>454.0</ele><time>2026-04-24T07:51:06.992Z</time></trkpt><trkpt lat="43.5879281" lon="12.0387655"><ele>449.6666666666667</ele><time>2026-04-24T07:51:07.991Z</time></trkpt><trkpt lat="43.5877575" lon="12.0387383"><ele>445.33333333333337</ele><time>2026-04-24T07:51:08.991Z</time></trkpt><trkpt lat="43.587582" lon="12.038693"><ele>441.0</ele><time>2026-04-24T07:51:09.991Z</time></trkpt><trkpt lat="43.5874066" lon="12.0386285"><ele>441.0</ele><time>2026-04-24T07:51:10.991Z</time></trkpt><trkpt lat="43.5872393" lon="12.0385592"><ele>441.0</ele><time>2026-04-24T07:51:11.991Z</time></trkpt><trkpt lat="43.5870902" lon="12.0384965"><ele>441.0</ele><time>2026-04-24T07:51:12.992Z</time></trkpt><trkpt lat="43.5869522" lon="12.0384388"><ele>439.5</ele><time>2026-04-24T07:51:13.992Z</time></trkpt><trkpt lat="43.5868175" lon="12.0384154"><ele>438.0</ele><time>2026-04-24T07:51:14.991Z</time></trkpt><trkpt lat="43.5866921" lon="12.0384545"><ele>436.5</ele><time>2026-04-24T07:51:15.992Z</time></trkpt><trkpt lat="43.5865989" lon="12.0385467"><ele>435.0</ele><time>2026-04-24T07:51:16.991Z</time></trkpt><trkpt lat="43.5865533" lon="12.0386834"><ele>435.0</ele><time>2026-04-24T07:51:17.991Z</time></trkpt><trkpt lat="43.5865654" lon="12.0388261"><ele>435.0</ele><time>2026-04-24T07:51:18.992Z</time></trkpt><trkpt lat="43.5866394" lon="12.0389479"><ele>435.0</ele><time>2026-04-24T07:51:19.991Z</time></trkpt><trkpt lat="43.5867561" lon="12.0390163"><ele>435.0</ele><time>2026-04-24T07:51:20.991Z</time></trkpt><trkpt lat="43.5869064" lon="12.0390521"><ele>436.0</ele><time>2026-04-24T07:51:21.991Z</time></trkpt><trkpt lat="43.5870788" lon="12.0390908"><ele>437.0</ele><time>2026-04-24T07:51:22.991Z</time></trkpt><trkpt lat="43.5872667" lon="12.0391331"><ele>438.0</ele><time>2026-04-24T07:51:23.992Z</time></trkpt><trkpt lat="43.5874576" lon="12.0391724"><ele>438.0</ele><time>2026-04-24T07:51:24.991Z</time></trkpt><trkpt lat="43.5876132" lon="12.0392199"><ele>438.0</ele><time>2026-04-24T07:51:25.991Z</time></trkpt><trkpt lat="43.5877411" lon="12.0392809"><ele>438.0</ele><time>2026-04-24T07:51:26.992Z</time></trkpt><trkpt lat="43.587841" lon="12.0393815"><ele>438.0</ele><time>2026-04-24T07:51:27.991Z</time></trkpt><trkpt lat="43.5878931" lon="12.0395172"><ele>438.0</ele><time>2026-04-24T07:51:28.991Z</time></trkpt><trkpt lat="43.5878928" lon="12.0396614"><ele>438.0</ele><time>2026-04-24T07:51:29.991Z</time></trkpt><trkpt lat="43.5878501" lon="12.0397874"><ele>438.0</ele><time>2026-04-24T07:51:30.991Z</time></trkpt><trkpt lat="43.5877538" lon="12.0398761"><ele>438.0</ele><time>2026-04-24T07:51:31.991Z</time></trkpt><trkpt lat="43.5876183" lon="12.0399118"><ele>438.0</ele><time>2026-04-24T07:51:32.991Z</time></trkpt><trkpt lat="43.5874651" lon="12.0398998"><ele>438.0</ele><time>2026-04-24T07:51:33.991Z</time></trkpt><trkpt lat="43.5872996" lon="12.03987"><ele>438.0</ele><time>2026-04-24T07:51:34.991Z</time></trkpt><trkpt lat="43.587118" lon="12.0398259"><ele>436.0</ele><time>2026-04-24T07:51:35.991Z</time></trkpt><trkpt lat="43.5869286" lon="12.039786"><ele>434.0</ele><time>2026-04-24T07:51:36.991Z</time></trkpt><trkpt lat="43.5867387" lon="12.0397369"><ele>432.0</ele><time>2026-04-24T07:51:37.991Z</time></trkpt><trkpt lat="43.5865392" lon="12.0396936"><ele>432.0</ele><time>2026-04-24T07:51:38.991Z</time></trkpt><trkpt lat="43.586341" lon="12.0396498"><ele>432.0</ele><time>2026-04-24T07:51:39.991Z</time></trkpt><trkpt lat="43.586141" lon="12.0396216"><ele>432.0</ele><time>2026-04-24T07:51:40.992Z</time></trkpt><trkpt lat="43.5859373" lon="12.0396056"><ele>430.0</ele><time>2026-04-24T07:51:41.992Z</time></trkpt><trkpt lat="43.5857308" lon="12.0396016"><ele>428.0</ele><time>2026-04-24T07:51:42.991Z</time></trkpt><trkpt lat="43.5855227" lon="12.0396097"><ele>426.0</ele><time>2026-04-24T07:51:43.991Z</time></trkpt><trkpt lat="43.5853183" lon="12.0396205"><ele>422.33333333333337</ele><time>2026-04-24T07:51:44.993Z</time></trkpt><trkpt lat="43.5851233" lon="12.0396328"><ele>418.6666666666667</ele><time>2026-04-24T07:51:45.992Z</time></trkpt><trkpt lat="43.5849474" lon="12.0396427"><ele>415.0</ele><time>2026-04-24T07:51:46.991Z</time></trkpt><trkpt lat="43.5847846" lon="12.0396388"><ele>415.0</ele><time>2026-04-24T07:51:47.991Z</time></trkpt><trkpt lat="43.5846347" lon="12.0395883"><ele>415.0</ele><time>2026-04-24T07:51:48.991Z</time></trkpt><trkpt lat="43.5845064" lon="12.0394776"><ele>415.0</ele><time>2026-04-24T07:51:49.992Z</time></trkpt><trkpt lat="43.584403" lon="12.039314"><ele>411.33333333333337</ele><time>2026-04-24T07:51:50.991Z</time></trkpt><trkpt lat="43.5843107" lon="12.0391216"><ele>407.66666666666663</ele><time>2026-04-24T07:51:51.991Z</time></trkpt><trkpt lat="43.5842224" lon="12.0389129"><ele>404.0</ele><time>2026-04-24T07:51:52.992Z</time></trkpt><trkpt lat="43.5841336" lon="12.0387071"><ele>404.0</ele><time>2026-04-24T07:51:53.991Z</time></trkpt><trkpt lat="43.5840528" lon="12.0385127"><ele>404.0</ele><time>2026-04-24T07:51:54.991Z</time></trkpt><trkpt lat="43.5839786" lon="12.0383362"><ele>404.0</ele><time>2026-04-24T07:51:55.991Z</time></trkpt><trkpt lat="43.5838924" lon="12.038184"><ele>402.3333333333333</ele><time>2026-04-24T07:51:56.992Z</time></trkpt><trkpt lat="43.5837703" lon="12.0380862"><ele>400.66666666666663</ele><time>2026-04-24T07:51:57.992Z</time></trkpt><trkpt lat="43.5836209" lon="12.0380612"><ele>399.0</ele><time>2026-04-24T07:51:58.992Z</time></trkpt><trkpt lat="43.5834579" lon="12.0380872"><ele>396.0</ele><time>2026-04-24T07:51:59.991Z</time></trkpt><trkpt lat="43.5832798" lon="12.0381312"><ele>393.0</ele><time>2026-04-24T07:52:00.992Z</time></trkpt><trkpt lat="43.5830864" lon="12.0381796"><ele>390.0</ele><time>2026-04-24T07:52:01.993Z</time></trkpt><trkpt lat="43.582889" lon="12.0382303"><ele>388.0</ele><time>2026-04-24T07:52:02.992Z</time></trkpt><trkpt lat="43.5826996" lon="12.0382783"><ele>386.0</ele><time>2026-04-24T07:52:03.991Z</time></trkpt><trkpt lat="43.5825209" lon="12.0383205"><ele>384.0</ele><time>2026-04-24T07:52:04.991Z</time></trkpt><trkpt lat="43.5823614" lon="12.0383588"><ele>384.0</ele><time>2026-04-24T07:52:05.992Z</time></trkpt><trkpt lat="43.5822174" lon="12.038392"><ele>384.0</ele><time>2026-04-24T07:52:06.992Z</time></trkpt><trkpt lat="43.5820793" lon="12.0383988"><ele>384.0</ele><time>2026-04-24T07:52:07.991Z</time></trkpt><trkpt lat="43.581951" lon="12.0383446"><ele>384.0</ele><time>2026-04-24T07:52:08.991Z</time></trkpt><trkpt lat="43.5818576" lon="12.0382278"><ele>381.0</ele><time>2026-04-24T07:52:09.991Z</time></trkpt><trkpt lat="43.5818126" lon="12.0380705"><ele>378.0</ele><time>2026-04-24T07:52:10.992Z</time></trkpt><trkpt lat="43.581825" lon="12.0378898"><ele>375.0</ele><time>2026-04-24T07:52:11.991Z</time></trkpt><trkpt lat="43.5818916" lon="12.0377014"><ele>372.0</ele><time>2026-04-24T07:52:12.992Z</time></trkpt><trkpt lat="43.5819974" lon="12.0375402"><ele>373.3333333333333</ele><time>2026-04-24T07:52:13.991Z</time></trkpt><trkpt lat="43.5821213" lon="12.0373929"><ele>374.66666666666663</ele><time>2026-04-24T07:52:14.993Z</time></trkpt><trkpt lat="43.5822375" lon="12.037231"><ele>376.0</ele><time>2026-04-24T07:52:15.991Z</time></trkpt><trkpt lat="43.5823246" lon="12.0370388"><ele>376.0</ele><time>2026-04-24T07:52:16.991Z</time></trkpt><trkpt lat="43.5823721" lon="12.0368236"><ele>376.0</ele><time>2026-04-24T07:52:17.991Z</time></trkpt><trkpt lat="43.5823854" lon="12.0366142"><ele>376.0</ele><time>2026-04-24T07:52:18.991Z</time></trkpt><trkpt lat="43.5823712" lon="12.036421"><ele>377.0</ele><time>2026-04-24T07:52:19.991Z</time></trkpt><trkpt lat="43.5823136" lon="12.0362561"><ele>378.0</ele><time>2026-04-24T07:52:20.991Z</time></trkpt><trkpt lat="43.5822076" lon="12.0361367"><ele>379.0</ele><time>2026-04-24T07:52:21.991Z</time></trkpt><trkpt lat="43.5820699" lon="12.0360712"><ele>380.0</ele><time>2026-04-24T07:52:22.991Z</time></trkpt><trkpt lat="43.581915" lon="12.0360379"><ele>380.0</ele><time>2026-04-24T07:52:23.992Z</time></trkpt><trkpt lat="43.581729" lon="12.0360244"><ele>380.0</ele><time>2026-04-24T07:52:24.992Z</time></trkpt><trkpt lat="43.5815336" lon="12.0360009"><ele>380.0</ele><time>2026-04-24T07:52:25.992Z</time></trkpt><trkpt lat="43.5813349" lon="12.0359504"><ele>380.0</ele><time>2026-04-24T07:52:26.991Z</time></trkpt><trkpt lat="43.5811395" lon="12.0358635"><ele>380.0</ele><time>2026-04-24T07:52:27.992Z</time></trkpt><trkpt lat="43.5809497" lon="12.0357459"><ele>380.0</ele><time>2026-04-24T07:52:28.991Z</time></trkpt><trkpt lat="43.5807683" lon="12.0356086"><ele>380.0</ele><time>2026-04-24T07:52:29.991Z</time></trkpt><trkpt lat="43.5805927" lon="12.0354598"><ele>380.0</ele><time>2026-04-24T07:52:30.991Z</time></trkpt><trkpt lat="43.5804186" lon="12.0353082"><ele>380.0</ele><time>2026-04-24T07:52:31.992Z</time></trkpt><trkpt lat="43.5802436" lon="12.035152"><ele>379.0</ele><time>2026-04-24T07:52:32.991Z</time></trkpt><trkpt lat="43.5800713" lon="12.0349999"><ele>378.0</ele><time>2026-04-24T07:52:33.991Z</time></trkpt><trkpt lat="43.5798923" lon="12.0348682"><ele>377.0</ele><time>2026-04-24T07:52:34.991Z</time></trkpt><trkpt lat="43.5797023" lon="12.0347825"><ele>379.33333333333337</ele><time>2026-04-24T07:52:35.991Z</time></trkpt><trkpt lat="43.5794976" lon="12.0347612"><ele>381.6666666666667</ele><time>2026-04-24T07:52:36.992Z</time></trkpt><trkpt lat="43.579291" lon="12.0347937"><ele>384.0</ele><time>2026-04-24T07:52:37.992Z</time></trkpt><trkpt lat="43.5790827" lon="12.0348505"><ele>384.0</ele><time>2026-04-24T07:52:38.991Z</time></trkpt><trkpt lat="43.5788708" lon="12.0349116"><ele>384.0</ele><time>2026-04-24T07:52:39.991Z</time></trkpt><trkpt lat="43.5786556" lon="12.0349779"><ele>384.0</ele><time>2026-04-24T07:52:40.992Z</time></trkpt><trkpt lat="43.5784399" lon="12.035045"><ele>379.0</ele><time>2026-04-24T07:52:41.991Z</time></trkpt><trkpt lat="43.5782233" lon="12.0351176"><ele>374.0</ele><time>2026-04-24T07:52:42.991Z</time></trkpt><trkpt lat="43.5780071" lon="12.0352016"><ele>369.0</ele><time>2026-04-24T07:52:43.991Z</time></trkpt><trkpt lat="43.5777942" lon="12.0352937"><ele>366.6666666666667</ele><time>2026-04-24T07:52:44.991Z</time></trkpt><trkpt lat="43.5775838" lon="12.03539"><ele>364.33333333333337</ele><time>2026-04-24T07:52:45.991Z</time></trkpt><trkpt lat="43.5773784" lon="12.0354976"><ele>362.0</ele><time>2026-04-24T07:52:46.991Z</time></trkpt><trkpt lat="43.5771794" lon="12.0356225"><ele>361.6666666666667</ele><time>2026-04-24T07:52:47.992Z</time></trkpt><trkpt lat="43.5769911" lon="12.0357637"><ele>361.3333333333333</ele><time>2026-04-24T07:52:48.991Z</time></trkpt><trkpt lat="43.5768126" lon="12.0359153"><ele>361.0</ele><time>2026-04-24T07:52:49.991Z</time></trkpt><trkpt lat="43.5766441" lon="12.0360706"><ele>361.0</ele><time>2026-04-24T07:52:50.993Z</time></trkpt><trkpt lat="43.5764797" lon="12.0362132"><ele>361.0</ele><time>2026-04-24T07:52:51.991Z</time></trkpt><trkpt lat="43.5763076" lon="12.0363282"><ele>361.0</ele><time>2026-04-24T07:52:52.991Z</time></trkpt><trkpt lat="43.5761264" lon="12.0364231"><ele>363.66666666666663</ele><time>2026-04-24T07:52:53.991Z</time></trkpt><trkpt lat="43.5759364" lon="12.0364945"><ele>366.3333333333333</ele><time>2026-04-24T07:52:54.991Z</time></trkpt><trkpt lat="43.5757401" lon="12.0365614"><ele>369.0</ele><time>2026-04-24T07:52:55.991Z</time></trkpt><trkpt lat="43.5755421" lon="12.0366252"><ele>366.0</ele><time>2026-04-24T07:52:56.991Z</time></trkpt><trkpt lat="43.5753415" lon="12.0366872"><ele>363.0</ele><time>2026-04-24T07:52:57.991Z</time></trkpt><trkpt lat="43.575139" lon="12.0367506"><ele>360.0</ele><time>2026-04-24T07:52:58.991Z</time></trkpt><trkpt lat="43.5749332" lon="12.0368133"><ele>360.0</ele><time>2026-04-24T07:52:59.991Z</time></trkpt><trkpt lat="43.5747285" lon="12.0368744"><ele>360.0</ele><time>2026-04-24T07:53:00.991Z</time></trkpt><trkpt lat="43.5745267" lon="12.0369326"><ele>360.0</ele><time>2026-04-24T07:53:01.992Z</time></trkpt><trkpt lat="43.5743274" lon="12.0369883"><ele>361.3333333333333</ele><time>2026-04-24T07:53:02.992Z</time></trkpt><trkpt lat="43.5741282" lon="12.0370447"><ele>362.66666666666663</ele><time>2026-04-24T07:53:03.991Z</time></trkpt><trkpt lat="43.573929" lon="12.0370992"><ele>364.0</ele><time>2026-04-24T07:53:04.991Z</time></trkpt><trkpt lat="43.5737285" lon="12.0371551"><ele>364.0</ele><time>2026-04-24T07:53:05.991Z</time></trkpt><trkpt lat="43.5735278" lon="12.0372148"><ele>364.0</ele><time>2026-04-24T07:53:06.991Z</time></trkpt><trkpt lat="43.5733273" lon="12.0372815"><ele>364.0</ele><time>2026-04-24T07:53:07.992Z</time></trkpt><trkpt lat="43.5731269" lon="12.0373596"><ele>364.0</ele><time>2026-04-24T07:53:08.992Z</time></trkpt><trkpt lat="43.5729285" lon="12.0374516"><ele>364.0</ele><time>2026-04-24T07:53:09.991Z</time></trkpt><trkpt lat="43.5727346" lon="12.0375653"><ele>364.0</ele><time>2026-04-24T07:53:10.991Z</time></trkpt><trkpt lat="43.5725526" lon="12.0376952"><ele>363.3333333333333</ele><time>2026-04-24T07:53:11.991Z</time></trkpt><trkpt lat="43.5723777" lon="12.0378406"><ele>362.6666666666667</ele><time>2026-04-24T07:53:12.991Z</time></trkpt><trkpt lat="43.5722102" lon="12.0379891"><ele>362.0</ele><time>2026-04-24T07:53:13.991Z</time></trkpt><trkpt lat="43.5720456" lon="12.0381267"><ele>363.33333333333337</ele><time>2026-04-24T07:53:14.992Z</time></trkpt><trkpt lat="43.5718745" lon="12.0382335"><ele>364.6666666666667</ele><time>2026-04-24T07:53:15.991Z</time></trkpt><trkpt lat="43.5716839" lon="12.0383066"><ele>366.0</ele><time>2026-04-24T07:53:16.991Z</time></trkpt><trkpt lat="43.5714845" lon="12.0383528"><ele>363.3333333333333</ele><time>2026-04-24T07:53:17.991Z</time></trkpt><trkpt lat="43.571283" lon="12.0383994"><ele>360.66666666666663</ele><time>2026-04-24T07:53:18.991Z</time></trkpt><trkpt lat="43.5710788" lon="12.0384442"><ele>358.0</ele><time>2026-04-24T07:53:19.991Z</time></trkpt><trkpt lat="43.5708737" lon="12.0384908"><ele>358.0</ele><time>2026-04-24T07:53:20.991Z</time></trkpt><trkpt lat="43.5706665" lon="12.0385375"><ele>358.0</ele><time>2026-04-24T07:53:21.991Z</time></trkpt><trkpt lat="43.570459" lon="12.0385848"><ele>358.0</ele><time>2026-04-24T07:53:22.991Z</time></trkpt><trkpt lat="43.5702523" lon="12.0386322"><ele>358.0</ele><time>2026-04-24T07:53:23.991Z</time></trkpt><trkpt lat="43.5700456" lon="12.0386826"><ele>358.0</ele><time>2026-04-24T07:53:24.991Z</time></trkpt><trkpt lat="43.5698374" lon="12.0387383"><ele>358.0</ele><time>2026-04-24T07:53:25.991Z</time></trkpt><trkpt lat="43.5696317" lon="12.0388038"><ele>359.0</ele><time>2026-04-24T07:53:26.991Z</time></trkpt><trkpt lat="43.5694259" lon="12.0388755"><ele>360.0</ele><time>2026-04-24T07:53:27.991Z</time></trkpt><trkpt lat="43.5692205" lon="12.038951"><ele>361.0</ele><time>2026-04-24T07:53:28.991Z</time></trkpt><trkpt lat="43.5690139" lon="12.039029"><ele>361.0</ele><time>2026-04-24T07:53:29.991Z</time></trkpt><trkpt lat="43.5688078" lon="12.0391146"><ele>361.0</ele><time>2026-04-24T07:53:30.991Z</time></trkpt><trkpt lat="43.5686048" lon="12.0392085"><ele>361.0</ele><time>2026-04-24T07:53:31.992Z</time></trkpt><trkpt lat="43.5684042" lon="12.0393119"><ele>362.0</ele><time>2026-04-24T07:53:32.991Z</time></trkpt><trkpt lat="43.5682087" lon="12.0394309"><ele>363.0</ele><time>2026-04-24T07:53:33.992Z</time></trkpt><trkpt lat="43.5680177" lon="12.0395643"><ele>364.0</ele><time>2026-04-24T07:53:34.992Z</time></trkpt><trkpt lat="43.5678306" lon="12.0397063"><ele>364.0</ele><time>2026-04-24T07:53:35.992Z</time></trkpt><trkpt lat="43.567642" lon="12.0398524"><ele>364.0</ele><time>2026-04-24T07:53:36.992Z</time></trkpt><trkpt lat="43.5674527" lon="12.0399967"><ele>364.0</ele><time>2026-04-24T07:53:37.991Z</time></trkpt><trkpt lat="43.5672623" lon="12.0401431"><ele>363.66666666666663</ele><time>2026-04-24T07:53:38.991Z</time></trkpt><trkpt lat="43.5670717" lon="12.040292"><ele>363.3333333333333</ele><time>2026-04-24T07:53:39.991Z</time></trkpt><trkpt lat="43.5668804" lon="12.0404428"><ele>363.0</ele><time>2026-04-24T07:53:40.992Z</time></trkpt><trkpt lat="43.5666888" lon="12.0405945"><ele>363.0</ele><time>2026-04-24T07:53:41.992Z</time></trkpt><trkpt lat="43.5664903" lon="12.0407402"><ele>363.0</ele><time>2026-04-24T07:53:42.991Z</time></trkpt><trkpt lat="43.5662947" lon="12.0408877"><ele>363.0</ele><time>2026-04-24T07:53:43.991Z</time></trkpt><trkpt lat="43.5660989" lon="12.0410361"><ele>359.5</ele><time>2026-04-24T07:53:44.992Z</time></trkpt><trkpt lat="43.5659029" lon="12.0411855"><ele>356.0</ele><time>2026-04-24T07:53:45.992Z</time></trkpt><trkpt lat="43.5657054" lon="12.0413366"><ele>356.0</ele><time>2026-04-24T07:53:46.991Z</time></trkpt><trkpt lat="43.5655072" lon="12.0414889"><ele>356.0</ele><time>2026-04-24T07:53:47.991Z</time></trkpt><trkpt lat="43.5653093" lon="12.0416483"><ele>354.5</ele><time>2026-04-24T07:53:48.991Z</time></trkpt><trkpt lat="43.5651197" lon="12.0418259"><ele>353.0</ele><time>2026-04-24T07:53:49.991Z</time></trkpt><trkpt lat="43.5649374" lon="12.0420214"><ele>353.0</ele><time>2026-04-24T07:53:50.991Z</time></trkpt><trkpt lat="43.5647588" lon="12.0422266"><ele>353.0</ele><time>2026-04-24T07:53:51.992Z</time></trkpt><trkpt lat="43.5645827" lon="12.0424321"><ele>354.5</ele><time>2026-04-24T07:53:52.991Z</time></trkpt><trkpt lat="43.5644079" lon="12.0426349"><ele>356.0</ele><time>2026-04-24T07:53:53.992Z</time></trkpt><trkpt lat="43.5642361" lon="12.042836"><ele>356.0</ele><time>2026-04-24T07:53:54.992Z</time></trkpt><trkpt lat="43.5640665" lon="12.0430454"><ele>356.0</ele><time>2026-04-24T07:53:55.991Z</time></trkpt><trkpt lat="43.5639042" lon="12.0432682"><ele>358.0</ele><time>2026-04-24T07:53:56.991Z</time></trkpt><trkpt lat="43.5637474" lon="12.0435052"><ele>360.0</ele><time>2026-04-24T07:53:57.991Z</time></trkpt><trkpt lat="43.5635952" lon="12.0437512"><ele>360.0</ele><time>2026-04-24T07:53:58.991Z</time></trkpt><trkpt lat="43.5634455" lon="12.0440026"><ele>360.0</ele><time>2026-04-24T07:53:59.991Z</time></trkpt><trkpt lat="43.5632961" lon="12.0442557"><ele>355.0</ele><time>2026-04-24T07:54:00.991Z</time></trkpt><trkpt lat="43.5631506" lon="12.0445097"><ele>350.0</ele><time>2026-04-24T07:54:01.991Z</time></trkpt><trkpt lat="43.5630055" lon="12.0447627"><ele>353.0</ele><time>2026-04-24T07:54:02.991Z</time></trkpt><trkpt lat="43.5628622" lon="12.0450107"><ele>356.0</ele><time>2026-04-24T07:54:03.991Z</time></trkpt><trkpt lat="43.5627146" lon="12.0452452"><ele>356.0</ele><time>2026-04-24T07:54:04.992Z</time></trkpt><trkpt lat="43.5625601" lon="12.0454631"><ele>356.0</ele><time>2026-04-24T07:54:05.991Z</time></trkpt><trkpt lat="43.5623982" lon="12.0456719"><ele>356.0</ele><time>2026-04-24T07:54:06.991Z</time></trkpt><trkpt lat="43.5622318" lon="12.0458723"><ele>356.5</ele><time>2026-04-24T07:54:07.991Z</time></trkpt><trkpt lat="43.5620606" lon="12.0460685"><ele>357.0</ele><time>2026-04-24T07:54:08.992Z</time></trkpt><trkpt lat="43.5617113" lon="12.0464499"><ele>357.0</ele><time>2026-04-24T07:54:10.992Z</time></trkpt><trkpt lat="43.5615927" lon="12.0465654"><ele>357.0</ele><time>2026-04-24T07:54:12.148Z</time></trkpt><trkpt lat="43.5611531" lon="12.0469685"><ele>355.6666666666667</ele><time>2026-04-24T07:54:13.99Z</time></trkpt><trkpt lat="43.5609629" lon="12.0471214"><ele>354.33333333333337</ele><time>2026-04-24T07:54:14.99Z</time></trkpt><trkpt lat="43.5607692" lon="12.0472656"><ele>353.0</ele><time>2026-04-24T07:54:15.991Z</time></trkpt><trkpt lat="43.5605711" lon="12.0474025"><ele>352.33333333333337</ele><time>2026-04-24T07:54:16.99Z</time></trkpt><trkpt lat="43.5603715" lon="12.047538"><ele>351.6666666666667</ele><time>2026-04-24T07:54:17.99Z</time></trkpt><trkpt lat="43.5601711" lon="12.047678"><ele>351.0</ele><time>2026-04-24T07:54:18.99Z</time></trkpt><trkpt lat="43.5599686" lon="12.0478174"><ele>351.0</ele><time>2026-04-24T07:54:19.99Z</time></trkpt><trkpt lat="43.5597637" lon="12.0479565"><ele>351.0</ele><time>2026-04-24T07:54:20.991Z</time></trkpt><trkpt lat="43.5595588" lon="12.0480946"><ele>349.5</ele><time>2026-04-24T07:54:21.99Z</time></trkpt><trkpt lat="43.5593524" lon="12.0482371"><ele>348.0</ele><time>2026-04-24T07:54:22.99Z</time></trkpt><trkpt lat="43.5591457" lon="12.0483832"><ele>348.0</ele><time>2026-04-24T07:54:23.99Z</time></trkpt><trkpt lat="43.5589408" lon="12.0485298"><ele>348.0</ele><time>2026-04-24T07:54:24.99Z</time></trkpt><trkpt lat="43.5587366" lon="12.0486766"><ele>350.5</ele><time>2026-04-24T07:54:25.991Z</time></trkpt><trkpt lat="43.5585318" lon="12.0488241"><ele>353.0</ele><time>2026-04-24T07:54:26.99Z</time></trkpt><trkpt lat="43.5583241" lon="12.04897"><ele>353.0</ele><time>2026-04-24T07:54:27.991Z</time></trkpt><trkpt lat="43.5581161" lon="12.0491143"><ele>353.0</ele><time>2026-04-24T07:54:28.99Z</time></trkpt><trkpt lat="43.5579087" lon="12.0492567"><ele>350.0</ele><time>2026-04-24T07:54:29.99Z</time></trkpt><trkpt lat="43.5577016" lon="12.0493988"><ele>347.0</ele><time>2026-04-24T07:54:30.99Z</time></trkpt><trkpt lat="43.5574951" lon="12.0495433"><ele>347.0</ele><time>2026-04-24T07:54:31.99Z</time></trkpt><trkpt lat="43.557289" lon="12.049692"><ele>347.0</ele><time>2026-04-24T07:54:32.99Z</time></trkpt><trkpt lat="43.5570843" lon="12.0498435"><ele>347.0</ele><time>2026-04-24T07:54:33.99Z</time></trkpt><trkpt lat="43.5568777" lon="12.0499934"><ele>347.0</ele><time>2026-04-24T07:54:34.99Z</time></trkpt><trkpt lat="43.5566675" lon="12.0501383"><ele>347.0</ele><time>2026-04-24T07:54:35.99Z</time></trkpt><trkpt lat="43.5564528" lon="12.0502724"><ele>347.0</ele><time>2026-04-24T07:54:36.992Z</time></trkpt><trkpt lat="43.5562314" lon="12.0503889"><ele>349.0</ele><time>2026-04-24T07:54:37.99Z</time></trkpt><trkpt lat="43.5560044" lon="12.0504909"><ele>351.0</ele><time>2026-04-24T07:54:38.991Z</time></trkpt><trkpt lat="43.5557731" lon="12.0505886"><ele>351.0</ele><time>2026-04-24T07:54:39.99Z</time></trkpt><trkpt lat="43.5555422" lon="12.0506873"><ele>351.0</ele><time>2026-04-24T07:54:40.99Z</time></trkpt><trkpt lat="43.5553122" lon="12.0507896"><ele>350.0</ele><time>2026-04-24T07:54:41.99Z</time></trkpt><trkpt lat="43.5550826" lon="12.0508906"><ele>349.0</ele><time>2026-04-24T07:54:42.99Z</time></trkpt><trkpt lat="43.5548529" lon="12.0509895"><ele>349.0</ele><time>2026-04-24T07:54:43.99Z</time></trkpt><trkpt lat="43.5546227" lon="12.051091"><ele>349.0</ele><time>2026-04-24T07:54:44.992Z</time></trkpt><trkpt lat="43.5543918" lon="12.0511927"><ele>352.0</ele><time>2026-04-24T07:54:45.99Z</time></trkpt><trkpt lat="43.5541558" lon="12.0512938"><ele>355.0</ele><time>2026-04-24T07:54:46.991Z</time></trkpt><trkpt lat="43.5539185" lon="12.0513945"><ele>358.0</ele><time>2026-04-24T07:54:47.991Z</time></trkpt><trkpt lat="43.5536802" lon="12.0514977"><ele>361.0</ele><time>2026-04-24T07:54:48.991Z</time></trkpt><trkpt lat="43.5534385" lon="12.0516015"><ele>356.5</ele><time>2026-04-24T07:54:49.99Z</time></trkpt><trkpt lat="43.553193" lon="12.0517034"><ele>352.0</ele><time>2026-04-24T07:54:50.99Z</time></trkpt><trkpt lat="43.5529445" lon="12.0518089"><ele>351.5</ele><time>2026-04-24T07:54:51.99Z</time></trkpt><trkpt lat="43.5526937" lon="12.0519159"><ele>351.0</ele><time>2026-04-24T07:54:52.99Z</time></trkpt><trkpt lat="43.55244" lon="12.0520228"><ele>351.0</ele><time>2026-04-24T07:54:53.99Z</time></trkpt><trkpt lat="43.5521858" lon="12.0521319"><ele>351.0</ele><time>2026-04-24T07:54:54.99Z</time></trkpt><trkpt lat="43.5519318" lon="12.0522428"><ele>350.5</ele><time>2026-04-24T07:54:55.99Z</time></trkpt><trkpt lat="43.5516789" lon="12.0523556"><ele>350.0</ele><time>2026-04-24T07:54:56.991Z</time></trkpt><trkpt lat="43.5514263" lon="12.052474"><ele>353.5</ele><time>2026-04-24T07:54:57.99Z</time></trkpt><trkpt lat="43.5511754" lon="12.0526006"><ele>357.0</ele><time>2026-04-24T07:54:58.99Z</time></trkpt><trkpt lat="43.5509281" lon="12.0527361"><ele>357.0</ele><time>2026-04-24T07:54:59.991Z</time></trkpt><trkpt lat="43.550684" lon="12.052878"><ele>357.0</ele><time>2026-04-24T07:55:00.99Z</time></trkpt><trkpt lat="43.5504416" lon="12.0530201"><ele>355.0</ele><time>2026-04-24T07:55:01.99Z</time></trkpt><trkpt lat="43.5501997" lon="12.0531616"><ele>353.0</ele><time>2026-04-24T07:55:02.99Z</time></trkpt><trkpt lat="43.5499585" lon="12.0533022"><ele>353.0</ele><time>2026-04-24T07:55:03.991Z</time></trkpt><trkpt lat="43.5497196" lon="12.0534429"><ele>353.0</ele><time>2026-04-24T07:55:04.99Z</time></trkpt><trkpt lat="43.5494815" lon="12.0535788"><ele>358.5</ele><time>2026-04-24T07:55:05.99Z</time></trkpt><trkpt lat="43.5492454" lon="12.0537165"><ele>364.0</ele><time>2026-04-24T07:55:06.99Z</time></trkpt><trkpt lat="43.5490145" lon="12.0538521"><ele>364.0</ele><time>2026-04-24T07:55:07.99Z</time></trkpt><trkpt lat="43.5487875" lon="12.0539861"><ele>364.0</ele><time>2026-04-24T07:55:08.99Z</time></trkpt><trkpt lat="43.5485643" lon="12.0541159"><ele>362.0</ele><time>2026-04-24T07:55:09.99Z</time></trkpt><trkpt lat="43.5483458" lon="12.0542456"><ele>360.0</ele><time>2026-04-24T07:55:10.99Z</time></trkpt><trkpt lat="43.5481296" lon="12.0543716"><ele>360.0</ele><time>2026-04-24T07:55:11.99Z</time></trkpt><trkpt lat="43.5479169" lon="12.0544939"><ele>360.0</ele><time>2026-04-24T07:55:12.99Z</time></trkpt><trkpt lat="43.547709" lon="12.0546128"><ele>359.0</ele><time>2026-04-24T07:55:13.99Z</time></trkpt><trkpt lat="43.5475043" lon="12.0547296"><ele>358.0</ele><time>2026-04-24T07:55:14.99Z</time></trkpt><trkpt lat="43.5473024" lon="12.0548437"><ele>357.0</ele><time>2026-04-24T07:55:15.991Z</time></trkpt><trkpt lat="43.5471026" lon="12.0549574"><ele>360.3333333333333</ele><time>2026-04-24T07:55:16.99Z</time></trkpt><trkpt lat="43.5469069" lon="12.055069"><ele>363.66666666666663</ele><time>2026-04-24T07:55:17.99Z</time></trkpt><trkpt lat="43.5467191" lon="12.0551767"><ele>367.0</ele><time>2026-04-24T07:55:18.99Z</time></trkpt><trkpt lat="43.5465448" lon="12.055278"><ele>367.0</ele><time>2026-04-24T07:55:19.99Z</time></trkpt><trkpt lat="43.5463813" lon="12.0553743"><ele>367.0</ele><time>2026-04-24T07:55:20.99Z</time></trkpt><trkpt lat="43.5462286" lon="12.0554654"><ele>367.0</ele><time>2026-04-24T07:55:21.991Z</time></trkpt><trkpt lat="43.5460863" lon="12.0555497"><ele>367.0</ele><time>2026-04-24T07:55:22.991Z</time></trkpt><trkpt lat="43.545954" lon="12.0556278"><ele>367.0</ele><time>2026-04-24T07:55:23.99Z</time></trkpt><trkpt lat="43.5458302" lon="12.055701"><ele>367.0</ele><time>2026-04-24T07:55:24.99Z</time></trkpt><trkpt lat="43.5457147" lon="12.055769"><ele>367.0</ele><time>2026-04-24T07:55:25.99Z</time></trkpt><trkpt lat="43.5456042" lon="12.0558302"><ele>367.0</ele><time>2026-04-24T07:55:26.99Z</time></trkpt><trkpt lat="43.5454953" lon="12.05589"><ele>367.0</ele><time>2026-04-24T07:55:27.991Z</time></trkpt><trkpt lat="43.5453868" lon="12.0559505"><ele>367.0</ele><time>2026-04-24T07:55:28.99Z</time></trkpt><trkpt lat="43.5452777" lon="12.0560119"><ele>367.0</ele><time>2026-04-24T07:55:29.991Z</time></trkpt><trkpt lat="43.5451737" lon="12.0560783"><ele>369.5</ele><time>2026-04-24T07:55:30.99Z</time></trkpt><trkpt lat="43.5450851" lon="12.0561466"><ele>372.0</ele><time>2026-04-24T07:55:31.99Z</time></trkpt><trkpt lat="43.5450217" lon="12.0561998"><ele>374.5</ele><time>2026-04-24T07:55:32.99Z</time></trkpt><trkpt lat="43.5449681" lon="12.0562512"><ele>377.0</ele><time>2026-04-24T07:55:35.991Z</time></trkpt><trkpt lat="43.5449271" lon="12.0563304"><ele>379.5</ele><time>2026-04-24T07:55:59.99Z</time></trkpt><trkpt lat="43.5449022" lon="12.0564206"><ele>382.0</ele><time>2026-04-24T07:56:00.99Z</time></trkpt><trkpt lat="43.5448518" lon="12.0565244"><ele>383.0</ele><time>2026-04-24T07:56:01.99Z</time></trkpt><trkpt lat="43.5447582" lon="12.0566532"><ele>384.0</ele><time>2026-04-24T07:56:02.99Z</time></trkpt><trkpt lat="43.5446608" lon="12.0567783"><ele>385.0</ele><time>2026-04-24T07:56:03.991Z</time></trkpt><trkpt lat="43.5445406" lon="12.0569305"><ele>386.0</ele><time>2026-04-24T07:56:04.99Z</time></trkpt><trkpt lat="43.5444171" lon="12.0570922"><ele>386.0</ele><time>2026-04-24T07:56:05.99Z</time></trkpt><trkpt lat="43.5442907" lon="12.0572594"><ele>386.0</ele><time>2026-04-24T07:56:06.99Z</time></trkpt><trkpt lat="43.544154" lon="12.0574447"><ele>386.0</ele><time>2026-04-24T07:56:07.99Z</time></trkpt><trkpt lat="43.544016" lon="12.0576454"><ele>384.66666666666663</ele><time>2026-04-24T07:56:08.991Z</time></trkpt><trkpt lat="43.5438718" lon="12.0578506"><ele>383.3333333333333</ele><time>2026-04-24T07:56:09.99Z</time></trkpt><trkpt lat="43.5437372" lon="12.0580514"><ele>382.0</ele><time>2026-04-24T07:56:10.99Z</time></trkpt><trkpt lat="43.5436124" lon="12.0582615"><ele>376.0</ele><time>2026-04-24T07:56:11.991Z</time></trkpt><trkpt lat="43.5435015" lon="12.0584847"><ele>370.0</ele><time>2026-04-24T07:56:12.991Z</time></trkpt><trkpt lat="43.5434077" lon="12.0587208"><ele>364.0</ele><time>2026-04-24T07:56:13.99Z</time></trkpt><trkpt lat="43.5433385" lon="12.0589665"><ele>360.3333333333333</ele><time>2026-04-24T07:56:14.99Z</time></trkpt><trkpt lat="43.543293" lon="12.0592122"><ele>356.6666666666667</ele><time>2026-04-24T07:56:15.991Z</time></trkpt><trkpt lat="43.5432726" lon="12.0594576"><ele>353.0</ele><time>2026-04-24T07:56:16.99Z</time></trkpt><trkpt lat="43.5432738" lon="12.0597001"><ele>353.0</ele><time>2026-04-24T07:56:17.99Z</time></trkpt><trkpt lat="43.5432996" lon="12.0599357"><ele>353.0</ele><time>2026-04-24T07:56:18.992Z</time></trkpt><trkpt lat="43.5433411" lon="12.0601613"><ele>353.0</ele><time>2026-04-24T07:56:19.99Z</time></trkpt><trkpt lat="43.5433915" lon="12.0603783"><ele>351.75</ele><time>2026-04-24T07:56:20.99Z</time></trkpt><trkpt lat="43.5434421" lon="12.0605839"><ele>350.5</ele><time>2026-04-24T07:56:21.99Z</time></trkpt><trkpt lat="43.5434883" lon="12.0607812"><ele>349.25</ele><time>2026-04-24T07:56:22.991Z</time></trkpt><trkpt lat="43.543532" lon="12.0609639"><ele>348.0</ele><time>2026-04-24T07:56:23.99Z</time></trkpt><trkpt lat="43.5435768" lon="12.0611375"><ele>347.2</ele><time>2026-04-24T07:56:24.99Z</time></trkpt><trkpt lat="43.5436242" lon="12.0612949"><ele>346.4</ele><time>2026-04-24T07:56:25.99Z</time></trkpt><trkpt lat="43.5436713" lon="12.0614301"><ele>345.59999999999997</ele><time>2026-04-24T07:56:26.99Z</time></trkpt><trkpt lat="43.5437113" lon="12.0615379"><ele>344.79999999999995</ele><time>2026-04-24T07:56:27.99Z</time></trkpt><trkpt lat="43.5437457" lon="12.0616324"><ele>344.0</ele><time>2026-04-24T07:56:28.991Z</time></trkpt><trkpt lat="43.5438004" lon="12.0617795"><ele>342.6</ele><time>2026-04-24T07:56:30.992Z</time></trkpt><trkpt lat="43.543832" lon="12.0618817"><ele>341.2</ele><time>2026-04-24T07:56:32.99Z</time></trkpt><trkpt lat="43.543878" lon="12.0619887"><ele>339.8</ele><time>2026-04-24T07:56:35.99Z</time></trkpt><trkpt lat="43.543926" lon="12.0621229"><ele>338.40000000000003</ele><time>2026-04-24T07:56:37.99Z</time></trkpt><trkpt lat="43.5439695" lon="12.062253"><ele>337.0</ele><time>2026-04-24T07:56:39.99Z</time></trkpt><trkpt lat="43.5440148" lon="12.06238"><ele>336.40000000000003</ele><time>2026-04-24T07:56:41.991Z</time></trkpt><trkpt lat="43.5440679" lon="12.0625087"><ele>335.8</ele><time>2026-04-24T07:56:43.991Z</time></trkpt><trkpt lat="43.5440989" lon="12.0625856"><ele>335.2</ele><time>2026-04-24T07:56:44.99Z</time></trkpt><trkpt lat="43.5441434" lon="12.0626907"><ele>334.6</ele><time>2026-04-24T07:56:45.99Z</time></trkpt><trkpt lat="43.5441986" lon="12.0628234"><ele>334.0</ele><time>2026-04-24T07:56:46.99Z</time></trkpt><trkpt lat="43.5442594" lon="12.0629919"><ele>334.0</ele><time>2026-04-24T07:56:47.99Z</time></trkpt><trkpt lat="43.5443257" lon="12.0631824"><ele>334.0</ele><time>2026-04-24T07:56:48.99Z</time></trkpt><trkpt lat="43.5443951" lon="12.0633916"><ele>334.0</ele><time>2026-04-24T07:56:49.99Z</time></trkpt><trkpt lat="43.5444719" lon="12.0636104"><ele>332.3333333333333</ele><time>2026-04-24T07:56:50.991Z</time></trkpt><trkpt lat="43.5445583" lon="12.0638422"><ele>330.6666666666667</ele><time>2026-04-24T07:56:51.99Z</time></trkpt><trkpt lat="43.5446521" lon="12.0640834"><ele>329.0</ele><time>2026-04-24T07:56:52.99Z</time></trkpt><trkpt lat="43.5447491" lon="12.0643366"><ele>328.33333333333337</ele><time>2026-04-24T07:56:53.99Z</time></trkpt><trkpt lat="43.5448467" lon="12.0645915"><ele>327.6666666666667</ele><time>2026-04-24T07:56:54.99Z</time></trkpt><trkpt lat="43.544943" lon="12.0648475"><ele>327.0</ele><time>2026-04-24T07:56:55.99Z</time></trkpt><trkpt lat="43.5450368" lon="12.0650947"><ele>326.3333333333333</ele><time>2026-04-24T07:56:56.99Z</time></trkpt><trkpt lat="43.5451258" lon="12.0653297"><ele>325.66666666666663</ele><time>2026-04-24T07:56:57.991Z</time></trkpt><trkpt lat="43.5452109" lon="12.0655529"><ele>325.0</ele><time>2026-04-24T07:56:58.99Z</time></trkpt><trkpt lat="43.5452856" lon="12.0657506"><ele>324.8</ele><time>2026-04-24T07:56:59.99Z</time></trkpt><trkpt lat="43.5453486" lon="12.0659166"><ele>324.6</ele><time>2026-04-24T07:57:00.99Z</time></trkpt><trkpt lat="43.5454048" lon="12.066063"><ele>324.4</ele><time>2026-04-24T07:57:01.99Z</time></trkpt><trkpt lat="43.5454483" lon="12.0661735"><ele>324.2</ele><time>2026-04-24T07:57:02.99Z</time></trkpt><trkpt lat="43.5454853" lon="12.0662534"><ele>324.0</ele><time>2026-04-24T07:57:03.99Z</time></trkpt><trkpt lat="43.5455553" lon="12.0662946"><ele>324.0</ele><time>2026-04-24T07:57:05.99Z</time></trkpt><trkpt lat="43.5455738" lon="12.0661924"><ele>324.0</ele><time>2026-04-24T07:57:08.99Z</time></trkpt><trkpt lat="43.5455182" lon="12.0661392"><ele>324.0</ele><time>2026-04-24T07:57:10.99Z</time></trkpt><trkpt lat="43.5454207" lon="12.0660264"><ele>324.0</ele><time>2026-04-24T07:57:12.99Z</time></trkpt><trkpt lat="43.5453617" lon="12.0658964"><ele>324.0</ele><time>2026-04-24T07:57:13.99Z</time></trkpt><trkpt lat="43.545301" lon="12.0657305"><ele>324.3333333333333</ele><time>2026-04-24T07:57:14.991Z</time></trkpt><trkpt lat="43.5452262" lon="12.0655304"><ele>324.66666666666663</ele><time>2026-04-24T07:57:15.99Z</time></trkpt><trkpt lat="43.545152" lon="12.0653273"><ele>325.0</ele><time>2026-04-24T07:57:16.99Z</time></trkpt><trkpt lat="43.5450686" lon="12.0651073"><ele>325.66666666666663</ele><time>2026-04-24T07:57:17.99Z</time></trkpt><trkpt lat="43.5449752" lon="12.0648594"><ele>326.3333333333333</ele><time>2026-04-24T07:57:18.99Z</time></trkpt><trkpt lat="43.5448716" lon="12.0645869"><ele>327.0</ele><time>2026-04-24T07:57:19.99Z</time></trkpt><trkpt lat="43.5447598" lon="12.0642904"><ele>328.0</ele><time>2026-04-24T07:57:20.99Z</time></trkpt><trkpt lat="43.5446442" lon="12.0639812"><ele>329.0</ele><time>2026-04-24T07:57:21.99Z</time></trkpt><trkpt lat="43.5445294" lon="12.0636667"><ele>330.0</ele><time>2026-04-24T07:57:22.99Z</time></trkpt><trkpt lat="43.5444176" lon="12.0633539"><ele>331.0</ele><time>2026-04-24T07:57:23.99Z</time></trkpt><trkpt lat="43.5443102" lon="12.0630463"><ele>332.5</ele><time>2026-04-24T07:57:24.99Z</time></trkpt><trkpt lat="43.5442014" lon="12.062748"><ele>334.0</ele><time>2026-04-24T07:57:25.991Z</time></trkpt><trkpt lat="43.5440902" lon="12.0624559"><ele>335.5</ele><time>2026-04-24T07:57:26.99Z</time></trkpt><trkpt lat="43.5439781" lon="12.0621646"><ele>337.0</ele><time>2026-04-24T07:57:27.991Z</time></trkpt><trkpt lat="43.5438654" lon="12.0618732"><ele>337.5</ele><time>2026-04-24T07:57:28.99Z</time></trkpt><trkpt lat="43.5437561" lon="12.0615753"><ele>338.0</ele><time>2026-04-24T07:57:29.99Z</time></trkpt><trkpt lat="43.5436566" lon="12.0612647"><ele>341.0</ele><time>2026-04-24T07:57:30.991Z</time></trkpt><trkpt lat="43.5435646" lon="12.0609448"><ele>344.0</ele><time>2026-04-24T07:57:31.99Z</time></trkpt><trkpt lat="43.5434771" lon="12.0606198"><ele>346.0</ele><time>2026-04-24T07:57:32.99Z</time></trkpt><trkpt lat="43.5433962" lon="12.0602978"><ele>348.0</ele><time>2026-04-24T07:57:33.99Z</time></trkpt><trkpt lat="43.5433356" lon="12.05999"><ele>349.6666666666667</ele><time>2026-04-24T07:57:34.99Z</time></trkpt><trkpt lat="43.54331" lon="12.059682"><ele>351.33333333333337</ele><time>2026-04-24T07:57:35.991Z</time></trkpt><trkpt lat="43.5433183" lon="12.0593728"><ele>353.0</ele><time>2026-04-24T07:57:36.991Z</time></trkpt><trkpt lat="43.5433594" lon="12.0590646"><ele>358.5</ele><time>2026-04-24T07:57:37.99Z</time></trkpt><trkpt lat="43.5434364" lon="12.0587651"><ele>364.0</ele><time>2026-04-24T07:57:38.991Z</time></trkpt><trkpt lat="43.5435438" lon="12.0584792"><ele>364.5</ele><time>2026-04-24T07:57:39.99Z</time></trkpt><trkpt lat="43.5436792" lon="12.0582158"><ele>365.0</ele><time>2026-04-24T07:57:40.991Z</time></trkpt><trkpt lat="43.5438338" lon="12.0579648"><ele>365.0</ele><time>2026-04-24T07:57:41.99Z</time></trkpt><trkpt lat="43.5439972" lon="12.0577222"><ele>365.0</ele><time>2026-04-24T07:57:42.99Z</time></trkpt><trkpt lat="43.5441641" lon="12.057495"><ele>365.33333333333337</ele><time>2026-04-24T07:57:43.99Z</time></trkpt><trkpt lat="43.5443227" lon="12.0572888"><ele>365.6666666666667</ele><time>2026-04-24T07:57:44.991Z</time></trkpt><trkpt lat="43.5444688" lon="12.0570993"><ele>366.0</ele><time>2026-04-24T07:57:45.991Z</time></trkpt><trkpt lat="43.5446021" lon="12.0569295"><ele>366.0</ele><time>2026-04-24T07:57:46.99Z</time></trkpt><trkpt lat="43.5447238" lon="12.0567765"><ele>366.0</ele><time>2026-04-24T07:57:47.99Z</time></trkpt><trkpt lat="43.5448303" lon="12.0566473"><ele>366.0</ele><time>2026-04-24T07:57:48.99Z</time></trkpt><trkpt lat="43.5449112" lon="12.0565379"><ele>366.0</ele><time>2026-04-24T07:57:49.99Z</time></trkpt><trkpt lat="43.5449428" lon="12.0564434"><ele>368.6666666666667</ele><time>2026-04-24T07:57:50.99Z</time></trkpt><trkpt lat="43.5449362" lon="12.0563503"><ele>371.3333333333333</ele><time>2026-04-24T07:57:51.99Z</time></trkpt><trkpt lat="43.544889" lon="12.0562886"><ele>374.0</ele><time>2026-04-24T07:57:52.99Z</time></trkpt><trkpt lat="43.5448139" lon="12.0562828"><ele>376.66666666666663</ele><time>2026-04-24T07:57:53.99Z</time></trkpt><trkpt lat="43.5447176" lon="12.0563442"><ele>379.3333333333333</ele><time>2026-04-24T07:57:54.991Z</time></trkpt><trkpt lat="43.5446046" lon="12.0564375"><ele>382.0</ele><time>2026-04-24T07:57:55.99Z</time></trkpt><trkpt lat="43.5444698" lon="12.0565494"><ele>383.3333333333333</ele><time>2026-04-24T07:57:56.99Z</time></trkpt><trkpt lat="43.5443111" lon="12.056677"><ele>384.66666666666663</ele><time>2026-04-24T07:57:57.99Z</time></trkpt><trkpt lat="43.5441455" lon="12.0568071"><ele>386.0</ele><time>2026-04-24T07:57:58.991Z</time></trkpt><trkpt lat="43.543966" lon="12.0569424"><ele>386.0</ele><time>2026-04-24T07:57:59.99Z</time></trkpt><trkpt lat="43.543778" lon="12.0570765"><ele>386.0</ele><time>2026-04-24T07:58:00.99Z</time></trkpt><trkpt lat="43.5435868" lon="12.0571981"><ele>386.0</ele><time>2026-04-24T07:58:01.992Z</time></trkpt><trkpt lat="43.5433966" lon="12.0573022"><ele>389.66666666666663</ele><time>2026-04-24T07:58:02.99Z</time></trkpt><trkpt lat="43.5432066" lon="12.0573691"><ele>393.33333333333337</ele><time>2026-04-24T07:58:03.991Z</time></trkpt><trkpt lat="43.5430199" lon="12.0573928"><ele>397.0</ele><time>2026-04-24T07:58:04.99Z</time></trkpt><trkpt lat="43.542839" lon="12.0573381"><ele>397.0</ele><time>2026-04-24T07:58:05.991Z</time></trkpt><trkpt lat="43.5426836" lon="12.0572211"><ele>397.0</ele><time>2026-04-24T07:58:06.991Z</time></trkpt><trkpt lat="43.5425716" lon="12.0570525"><ele>397.0</ele><time>2026-04-24T07:58:07.99Z</time></trkpt><trkpt lat="43.5424863" lon="12.0568515"><ele>397.0</ele><time>2026-04-24T07:58:08.99Z</time></trkpt><trkpt lat="43.5423962" lon="12.0566436"><ele>397.0</ele><time>2026-04-24T07:58:09.991Z</time></trkpt><trkpt lat="43.5423062" lon="12.0564338"><ele>397.0</ele><time>2026-04-24T07:58:10.99Z</time></trkpt><trkpt lat="43.5422199" lon="12.0562311"><ele>399.75</ele><time>2026-04-24T07:58:11.99Z</time></trkpt><trkpt lat="43.5421379" lon="12.056047"><ele>402.5</ele><time>2026-04-24T07:58:12.99Z</time></trkpt><trkpt lat="43.5420637" lon="12.0558762"><ele>405.25</ele><time>2026-04-24T07:58:13.99Z</time></trkpt><trkpt lat="43.5420022" lon="12.0557207"><ele>408.0</ele><time>2026-04-24T07:58:14.99Z</time></trkpt><trkpt lat="43.5419703" lon="12.0555701"><ele>408.0</ele><time>2026-04-24T07:58:15.99Z</time></trkpt><trkpt lat="43.5419792" lon="12.0554505"><ele>408.0</ele><time>2026-04-24T07:58:16.99Z</time></trkpt><trkpt lat="43.5420768" lon="12.0553912"><ele>408.0</ele><time>2026-04-24T07:58:18.99Z</time></trkpt><trkpt lat="43.5421345" lon="12.0554498"><ele>408.0</ele><time>2026-04-24T07:58:19.991Z</time></trkpt><trkpt lat="43.5421983" lon="12.0555519"><ele>408.0</ele><time>2026-04-24T07:58:20.99Z</time></trkpt><trkpt lat="43.5422644" lon="12.0556739"><ele>408.0</ele><time>2026-04-24T07:58:21.99Z</time></trkpt><trkpt lat="43.5423307" lon="12.0558053"><ele>408.0</ele><time>2026-04-24T07:58:22.99Z</time></trkpt><trkpt lat="43.5424016" lon="12.0559437"><ele>408.0</ele><time>2026-04-24T07:58:23.99Z</time></trkpt><trkpt lat="43.5424731" lon="12.0560725"><ele>408.0</ele><time>2026-04-24T07:58:24.99Z</time></trkpt><trkpt lat="43.5425431" lon="12.0561839"><ele>408.0</ele><time>2026-04-24T07:58:25.991Z</time></trkpt><trkpt lat="43.5426153" lon="12.0562782"><ele>408.0</ele><time>2026-04-24T07:58:26.991Z</time></trkpt><trkpt lat="43.542688" lon="12.05635"><ele>408.0</ele><time>2026-04-24T07:58:27.991Z</time></trkpt><trkpt lat="43.5427596" lon="12.0563987"><ele>408.0</ele><time>2026-04-24T07:58:28.99Z</time></trkpt><trkpt lat="43.5428392" lon="12.0564364"><ele>408.0</ele><time>2026-04-24T07:58:29.99Z</time></trkpt><trkpt lat="43.5429208" lon="12.0564574"><ele>408.0</ele><time>2026-04-24T07:58:30.99Z</time></trkpt><trkpt lat="43.5429983" lon="12.0564651"><ele>410.0</ele><time>2026-04-24T07:58:31.99Z</time></trkpt><trkpt lat="43.5430737" lon="12.0564537"><ele>412.0</ele><time>2026-04-24T07:58:32.99Z</time></trkpt><trkpt lat="43.543144" lon="12.0564335"><ele>414.0</ele><time>2026-04-24T07:58:33.99Z</time></trkpt><trkpt lat="43.5432192" lon="12.056388"><ele>416.0</ele><time>2026-04-24T07:58:34.99Z</time></trkpt><trkpt lat="43.5433109" lon="12.0563064"><ele>418.0</ele><time>2026-04-24T07:58:35.99Z</time></trkpt><trkpt lat="43.5434172" lon="12.0562175"><ele>418.0</ele><time>2026-04-24T07:58:36.991Z</time></trkpt><trkpt lat="43.5435243" lon="12.0561342"><ele>418.0</ele><time>2026-04-24T07:58:37.99Z</time></trkpt><trkpt lat="43.5436212" lon="12.0560587"><ele>418.0</ele><time>2026-04-24T07:58:38.99Z</time></trkpt><trkpt lat="43.5437036" lon="12.0559903"><ele>418.0</ele><time>2026-04-24T07:58:39.99Z</time></trkpt><trkpt lat="43.5437759" lon="12.0559314"><ele>418.0</ele><time>2026-04-24T07:58:40.991Z</time></trkpt><trkpt lat="43.5438381" lon="12.0558817"><ele>417.1666666666667</ele><time>2026-04-24T07:58:41.99Z</time></trkpt><trkpt lat="43.543893" lon="12.0558366"><ele>416.33333333333337</ele><time>2026-04-24T07:58:42.99Z</time></trkpt><trkpt lat="43.5439916" lon="12.0557277"><ele>415.5</ele><time>2026-04-24T07:58:44.99Z</time></trkpt><trkpt lat="43.5440208" lon="12.0556498"><ele>414.66666666666663</ele><time>2026-04-24T07:58:45.99Z</time></trkpt><trkpt lat="43.543974" lon="12.0554954"><ele>413.8333333333333</ele><time>2026-04-24T07:58:47.99Z</time></trkpt><trkpt lat="43.543908" lon="12.0554697"><ele>413.0</ele><time>2026-04-24T07:58:48.991Z</time></trkpt><trkpt lat="43.5438332" lon="12.0555045"><ele>413.0</ele><time>2026-04-24T07:58:49.991Z</time></trkpt><trkpt lat="43.5437381" lon="12.0555898"><ele>413.0</ele><time>2026-04-24T07:58:50.99Z</time></trkpt><trkpt lat="43.5436132" lon="12.0556687"><ele>413.0</ele><time>2026-04-24T07:58:51.99Z</time></trkpt><trkpt lat="43.5434944" lon="12.0557474"><ele>413.0</ele><time>2026-04-24T07:58:52.99Z</time></trkpt><trkpt lat="43.5433841" lon="12.0558163"><ele>414.0</ele><time>2026-04-24T07:58:53.991Z</time></trkpt><trkpt lat="43.5432829" lon="12.055863"><ele>415.0</ele><time>2026-04-24T07:58:54.99Z</time></trkpt><trkpt lat="43.5431788" lon="12.0558661"><ele>416.0</ele><time>2026-04-24T07:58:55.99Z</time></trkpt><trkpt lat="43.5430852" lon="12.0558098"><ele>417.0</ele><time>2026-04-24T07:58:56.99Z</time></trkpt><trkpt lat="43.5430096" lon="12.0557036"><ele>418.0</ele><time>2026-04-24T07:58:57.99Z</time></trkpt><trkpt lat="43.542942" lon="12.0555466"><ele>418.33333333333337</ele><time>2026-04-24T07:58:58.99Z</time></trkpt><trkpt lat="43.5428852" lon="12.0553457"><ele>418.66666666666663</ele><time>2026-04-24T07:58:59.991Z</time></trkpt><trkpt lat="43.5428284" lon="12.0551114"><ele>419.0</ele><time>2026-04-24T07:59:00.99Z</time></trkpt><trkpt lat="43.5427631" lon="12.0548696"><ele>423.3333333333333</ele><time>2026-04-24T07:59:01.99Z</time></trkpt><trkpt lat="43.5426951" lon="12.0546382"><ele>427.66666666666663</ele><time>2026-04-24T07:59:02.991Z</time></trkpt><trkpt lat="43.5426228" lon="12.0544038"><ele>432.0</ele><time>2026-04-24T07:59:03.99Z</time></trkpt><trkpt lat="43.5425469" lon="12.0541635"><ele>434.0</ele><time>2026-04-24T07:59:04.99Z</time></trkpt><trkpt lat="43.5424556" lon="12.053934"><ele>436.0</ele><time>2026-04-24T07:59:05.99Z</time></trkpt><trkpt lat="43.5423462" lon="12.0537117"><ele>438.0</ele><time>2026-04-24T07:59:06.991Z</time></trkpt><trkpt lat="43.5422156" lon="12.0534977"><ele>438.0</ele><time>2026-04-24T07:59:07.99Z</time></trkpt><trkpt lat="43.5420576" lon="12.0533166"><ele>438.0</ele><time>2026-04-24T07:59:08.991Z</time></trkpt><trkpt lat="43.5418888" lon="12.0532008"><ele>438.0</ele><time>2026-04-24T07:59:09.99Z</time></trkpt><trkpt lat="43.5417064" lon="12.0531321"><ele>441.33333333333337</ele><time>2026-04-24T07:59:10.99Z</time></trkpt><trkpt lat="43.5415269" lon="12.0530675"><ele>444.6666666666667</ele><time>2026-04-24T07:59:11.991Z</time></trkpt><trkpt lat="43.5413726" lon="12.0529542"><ele>448.0</ele><time>2026-04-24T07:59:12.99Z</time></trkpt><trkpt lat="43.5412347" lon="12.0528095"><ele>447.75</ele><time>2026-04-24T07:59:13.992Z</time></trkpt><trkpt lat="43.5411145" lon="12.0526492"><ele>447.5</ele><time>2026-04-24T07:59:14.99Z</time></trkpt><trkpt lat="43.5410174" lon="12.0524918"><ele>447.25</ele><time>2026-04-24T07:59:15.991Z</time></trkpt><trkpt lat="43.5409337" lon="12.0523501"><ele>447.0</ele><time>2026-04-24T07:59:16.99Z</time></trkpt><trkpt lat="43.5408608" lon="12.0522329"><ele>447.0</ele><time>2026-04-24T07:59:17.99Z</time></trkpt><trkpt lat="43.5408019" lon="12.052129"><ele>447.0</ele><time>2026-04-24T07:59:18.99Z</time></trkpt><trkpt lat="43.5407581" lon="12.0520634"><ele>447.0</ele><time>2026-04-24T07:59:19.99Z</time></trkpt><trkpt lat="43.5407284" lon="12.0519786"><ele>447.0</ele><time>2026-04-24T07:59:34.99Z</time></trkpt><trkpt lat="43.5406688" lon="12.0518767"><ele>447.0</ele><time>2026-04-24T07:59:36.99Z</time></trkpt><trkpt lat="43.5405999" lon="12.0517642"><ele>447.0</ele><time>2026-04-24T07:59:38.99Z</time></trkpt><trkpt lat="43.5405055" lon="12.0517309"><ele>447.0</ele><time>2026-04-24T07:59:40.99Z</time></trkpt><trkpt lat="43.5404267" lon="12.0518126"><ele>447.00000000000006</ele><time>2026-04-24T07:59:42.992Z</time></trkpt><trkpt lat="43.5403448" lon="12.0518992"><ele>447.00000000000006</ele><time>2026-04-24T07:59:44.99Z</time></trkpt><trkpt lat="43.5402572" lon="12.0519727"><ele>447.0</ele><time>2026-04-24T07:59:46.99Z</time></trkpt><trkpt lat="43.5401721" lon="12.05204"><ele>447.0</ele><time>2026-04-24T07:59:48.99Z</time></trkpt><trkpt lat="43.5401183" lon="12.0521004"><ele>445.75</ele><time>2026-04-24T07:59:49.991Z</time></trkpt><trkpt lat="43.5400416" lon="12.0521999"><ele>444.5</ele><time>2026-04-24T07:59:50.99Z</time></trkpt><trkpt lat="43.5399633" lon="12.0523389"><ele>443.25</ele><time>2026-04-24T07:59:51.99Z</time></trkpt><trkpt lat="43.5398688" lon="12.0525053"><ele>442.0</ele><time>2026-04-24T07:59:52.99Z</time></trkpt><trkpt lat="43.5397572" lon="12.0526701"><ele>442.0</ele><time>2026-04-24T07:59:53.99Z</time></trkpt><trkpt lat="43.5396371" lon="12.0528438"><ele>442.0</ele><time>2026-04-24T07:59:54.991Z</time></trkpt><trkpt lat="43.539497" lon="12.0530225"><ele>442.0</ele><time>2026-04-24T07:59:55.99Z</time></trkpt><trkpt lat="43.5393604" lon="12.0532041"><ele>444.0</ele><time>2026-04-24T07:59:56.99Z</time></trkpt><trkpt lat="43.5392283" lon="12.0534036"><ele>446.0</ele><time>2026-04-24T07:59:57.99Z</time></trkpt><trkpt lat="43.5391016" lon="12.0536144"><ele>448.0</ele><time>2026-04-24T07:59:58.991Z</time></trkpt><trkpt lat="43.5389802" lon="12.053819"><ele>448.0</ele><time>2026-04-24T07:59:59.99Z</time></trkpt><trkpt lat="43.5388578" lon="12.0540096"><ele>448.0</ele><time>2026-04-24T08:00:00.99Z</time></trkpt><trkpt lat="43.5387342" lon="12.0541796"><ele>448.0</ele><time>2026-04-24T08:00:01.99Z</time></trkpt><trkpt lat="43.5386115" lon="12.0543395"><ele>448.6666666666667</ele><time>2026-04-24T08:00:02.99Z</time></trkpt><trkpt lat="43.5384948" lon="12.0544949"><ele>449.33333333333337</ele><time>2026-04-24T08:00:03.991Z</time></trkpt><trkpt lat="43.5383904" lon="12.054659"><ele>450.0</ele><time>2026-04-24T08:00:04.991Z</time></trkpt><trkpt lat="43.5382851" lon="12.0548188"><ele>448.33333333333337</ele><time>2026-04-24T08:00:05.991Z</time></trkpt><trkpt lat="43.5381763" lon="12.0549728"><ele>446.6666666666667</ele><time>2026-04-24T08:00:06.99Z</time></trkpt><trkpt lat="43.5380652" lon="12.055125"><ele>445.0</ele><time>2026-04-24T08:00:07.991Z</time></trkpt><trkpt lat="43.5379532" lon="12.0552777"><ele>444.6666666666667</ele><time>2026-04-24T08:00:08.991Z</time></trkpt><trkpt lat="43.5378403" lon="12.0554323"><ele>444.33333333333337</ele><time>2026-04-24T08:00:09.991Z</time></trkpt><trkpt lat="43.5377225" lon="12.0555839"><ele>444.0</ele><time>2026-04-24T08:00:10.991Z</time></trkpt><trkpt lat="43.5376011" lon="12.0557313"><ele>444.33333333333337</ele><time>2026-04-24T08:00:11.991Z</time></trkpt><trkpt lat="43.5374772" lon="12.0558777"><ele>444.6666666666667</ele><time>2026-04-24T08:00:12.99Z</time></trkpt><trkpt lat="43.5373479" lon="12.0560111"><ele>445.0</ele><time>2026-04-24T08:00:13.99Z</time></trkpt><trkpt lat="43.5372077" lon="12.056116"><ele>445.0</ele><time>2026-04-24T08:00:14.991Z</time></trkpt><trkpt lat="43.5370569" lon="12.0561866"><ele>445.0</ele><time>2026-04-24T08:00:15.99Z</time></trkpt><trkpt lat="43.5368912" lon="12.0562121"><ele>445.0</ele><time>2026-04-24T08:00:16.991Z</time></trkpt><trkpt lat="43.5367194" lon="12.0561974"><ele>444.33333333333337</ele><time>2026-04-24T08:00:17.99Z</time></trkpt><trkpt lat="43.5365436" lon="12.0561441"><ele>443.66666666666663</ele><time>2026-04-24T08:00:18.99Z</time></trkpt><trkpt lat="43.5363641" lon="12.0560719"><ele>443.0</ele><time>2026-04-24T08:00:19.99Z</time></trkpt><trkpt lat="43.536179" lon="12.0560052"><ele>442.0</ele><time>2026-04-24T08:00:20.99Z</time></trkpt><trkpt lat="43.5359916" lon="12.0559403"><ele>441.0</ele><time>2026-04-24T08:00:21.991Z</time></trkpt><trkpt lat="43.535801" lon="12.055888"><ele>440.0</ele><time>2026-04-24T08:00:22.99Z</time></trkpt><trkpt lat="43.535602" lon="12.0558733"><ele>440.0</ele><time>2026-04-24T08:00:23.992Z</time></trkpt><trkpt lat="43.5353962" lon="12.0559006"><ele>440.0</ele><time>2026-04-24T08:00:24.99Z</time></trkpt><trkpt lat="43.535186" lon="12.0559653"><ele>440.0</ele><time>2026-04-24T08:00:25.991Z</time></trkpt><trkpt lat="43.5349694" lon="12.0560402"><ele>437.5</ele><time>2026-04-24T08:00:26.99Z</time></trkpt><trkpt lat="43.5347512" lon="12.0561233"><ele>435.0</ele><time>2026-04-24T08:00:27.99Z</time></trkpt><trkpt lat="43.5345326" lon="12.0562092"><ele>431.66666666666663</ele><time>2026-04-24T08:00:28.99Z</time></trkpt><trkpt lat="43.5343166" lon="12.0562905"><ele>428.3333333333333</ele><time>2026-04-24T08:00:29.991Z</time></trkpt><trkpt lat="43.5341075" lon="12.0563657"><ele>425.0</ele><time>2026-04-24T08:00:30.99Z</time></trkpt><trkpt lat="43.5339074" lon="12.0564362"><ele>424.3333333333333</ele><time>2026-04-24T08:00:31.99Z</time></trkpt><trkpt lat="43.5337143" lon="12.0565053"><ele>423.66666666666663</ele><time>2026-04-24T08:00:32.991Z</time></trkpt><trkpt lat="43.5335313" lon="12.0565687"><ele>423.0</ele><time>2026-04-24T08:00:33.99Z</time></trkpt><trkpt lat="43.5333512" lon="12.0566333"><ele>422.0</ele><time>2026-04-24T08:00:34.99Z</time></trkpt><trkpt lat="43.5331754" lon="12.0566993"><ele>421.0</ele><time>2026-04-24T08:00:35.99Z</time></trkpt><trkpt lat="43.533005" lon="12.0567667"><ele>420.0</ele><time>2026-04-24T08:00:36.99Z</time></trkpt><trkpt lat="43.53285" lon="12.0568378"><ele>420.0</ele><time>2026-04-24T08:00:37.991Z</time></trkpt><trkpt lat="43.5327175" lon="12.056913"><ele>420.0</ele><time>2026-04-24T08:00:38.99Z</time></trkpt><trkpt lat="43.5326103" lon="12.0569869"><ele>420.0</ele><time>2026-04-24T08:00:39.99Z</time></trkpt><trkpt lat="43.53251" lon="12.0570746"><ele>420.0</ele><time>2026-04-24T08:00:40.991Z</time></trkpt><trkpt lat="43.5324116" lon="12.0571683"><ele>420.0</ele><time>2026-04-24T08:00:41.991Z</time></trkpt><trkpt lat="43.5322962" lon="12.0572648"><ele>420.0</ele><time>2026-04-24T08:00:42.99Z</time></trkpt><trkpt lat="43.532168" lon="12.0573795"><ele>420.0</ele><time>2026-04-24T08:00:43.992Z</time></trkpt><trkpt lat="43.5320327" lon="12.0575322"><ele>418.66666666666663</ele><time>2026-04-24T08:00:44.99Z</time></trkpt><trkpt lat="43.5319032" lon="12.0577119"><ele>417.3333333333333</ele><time>2026-04-24T08:00:45.99Z</time></trkpt><trkpt lat="43.5317745" lon="12.0579121"><ele>416.0</ele><time>2026-04-24T08:00:46.991Z</time></trkpt><trkpt lat="43.5316426" lon="12.0581191"><ele>416.0</ele><time>2026-04-24T08:00:47.991Z</time></trkpt><trkpt lat="43.5315069" lon="12.0583296"><ele>416.0</ele><time>2026-04-24T08:00:48.99Z</time></trkpt><trkpt lat="43.531374" lon="12.0585402"><ele>416.0</ele><time>2026-04-24T08:00:49.99Z</time></trkpt><trkpt lat="43.5312394" lon="12.0587512"><ele>412.66666666666663</ele><time>2026-04-24T08:00:50.991Z</time></trkpt><trkpt lat="43.5311065" lon="12.0589762"><ele>409.33333333333337</ele><time>2026-04-24T08:00:51.99Z</time></trkpt><trkpt lat="43.5309868" lon="12.0592171"><ele>406.0</ele><time>2026-04-24T08:00:52.99Z</time></trkpt><trkpt lat="43.53088" lon="12.0594731"><ele>406.0</ele><time>2026-04-24T08:00:53.99Z</time></trkpt><trkpt lat="43.5307884" lon="12.0597477"><ele>406.0</ele><time>2026-04-24T08:00:54.99Z</time></trkpt><trkpt lat="43.5307059" lon="12.0600272"><ele>406.0</ele><time>2026-04-24T08:00:55.99Z</time></trkpt><trkpt lat="43.530621" lon="12.0603069"><ele>406.33333333333337</ele><time>2026-04-24T08:00:56.99Z</time></trkpt><trkpt lat="43.530536" lon="12.0605878"><ele>406.66666666666663</ele><time>2026-04-24T08:00:57.99Z</time></trkpt><trkpt lat="43.530449" lon="12.0608697"><ele>407.0</ele><time>2026-04-24T08:00:58.991Z</time></trkpt><trkpt lat="43.5303582" lon="12.061148"><ele>406.0</ele><time>2026-04-24T08:00:59.99Z</time></trkpt><trkpt lat="43.5302617" lon="12.0614261"><ele>405.0</ele><time>2026-04-24T08:01:00.99Z</time></trkpt><trkpt lat="43.5301575" lon="12.0617014"><ele>404.0</ele><time>2026-04-24T08:01:01.99Z</time></trkpt><trkpt lat="43.5300369" lon="12.0619637"><ele>404.0</ele><time>2026-04-24T08:01:02.99Z</time></trkpt><trkpt lat="43.5298999" lon="12.062208"><ele>404.0</ele><time>2026-04-24T08:01:03.99Z</time></trkpt><trkpt lat="43.5297426" lon="12.0624316"><ele>403.5</ele><time>2026-04-24T08:01:04.99Z</time></trkpt><trkpt lat="43.5295661" lon="12.0626421"><ele>403.0</ele><time>2026-04-24T08:01:05.99Z</time></trkpt><trkpt lat="43.5293812" lon="12.0628451"><ele>403.0</ele><time>2026-04-24T08:01:06.991Z</time></trkpt><trkpt lat="43.5291931" lon="12.0630491"><ele>403.0</ele><time>2026-04-24T08:01:07.99Z</time></trkpt><trkpt lat="43.5290037" lon="12.0632557"><ele>403.0</ele><time>2026-04-24T08:01:08.99Z</time></trkpt><trkpt lat="43.5288113" lon="12.0634588"><ele>403.0</ele><time>2026-04-24T08:01:09.99Z</time></trkpt><trkpt lat="43.528618" lon="12.0636633"><ele>400.5</ele><time>2026-04-24T08:01:10.99Z</time></trkpt><trkpt lat="43.5284251" lon="12.0638712"><ele>398.0</ele><time>2026-04-24T08:01:11.991Z</time></trkpt><trkpt lat="43.5282324" lon="12.0640796"><ele>399.0</ele><time>2026-04-24T08:01:12.991Z</time></trkpt><trkpt lat="43.5280407" lon="12.0642904"><ele>400.0</ele><time>2026-04-24T08:01:13.99Z</time></trkpt><trkpt lat="43.5278501" lon="12.064504"><ele>398.0</ele><time>2026-04-24T08:01:14.991Z</time></trkpt><trkpt lat="43.5276583" lon="12.0647155"><ele>396.0</ele><time>2026-04-24T08:01:15.99Z</time></trkpt><trkpt lat="43.5274649" lon="12.0649231"><ele>398.0</ele><time>2026-04-24T08:01:16.991Z</time></trkpt><trkpt lat="43.5272722" lon="12.0651307"><ele>400.0</ele><time>2026-04-24T08:01:17.99Z</time></trkpt><trkpt lat="43.5270812" lon="12.0653395"><ele>396.5</ele><time>2026-04-24T08:01:18.99Z</time></trkpt><trkpt lat="43.5268954" lon="12.0655536"><ele>393.0</ele><time>2026-04-24T08:01:19.99Z</time></trkpt><trkpt lat="43.526718" lon="12.0657778"><ele>395.0</ele><time>2026-04-24T08:01:20.99Z</time></trkpt><trkpt lat="43.5265491" lon="12.066014"><ele>397.0</ele><time>2026-04-24T08:01:21.99Z</time></trkpt><trkpt lat="43.526389" lon="12.0662565"><ele>397.0</ele><time>2026-04-24T08:01:22.99Z</time></trkpt><trkpt lat="43.5262301" lon="12.0664997"><ele>397.0</ele><time>2026-04-24T08:01:23.991Z</time></trkpt><trkpt lat="43.5260727" lon="12.0667432"><ele>395.5</ele><time>2026-04-24T08:01:24.99Z</time></trkpt><trkpt lat="43.5259144" lon="12.0669843"><ele>394.0</ele><time>2026-04-24T08:01:25.99Z</time></trkpt><trkpt lat="43.5257534" lon="12.0672197"><ele>395.5</ele><time>2026-04-24T08:01:26.99Z</time></trkpt><trkpt lat="43.5255879" lon="12.067449"><ele>397.0</ele><time>2026-04-24T08:01:27.99Z</time></trkpt><trkpt lat="43.5254119" lon="12.0676631"><ele>394.5</ele><time>2026-04-24T08:01:28.99Z</time></trkpt><trkpt lat="43.5252265" lon="12.0678564"><ele>392.0</ele><time>2026-04-24T08:01:29.99Z</time></trkpt><trkpt lat="43.5250332" lon="12.0680329"><ele>392.0</ele><time>2026-04-24T08:01:30.99Z</time></trkpt><trkpt lat="43.524833" lon="12.0681934"><ele>392.0</ele><time>2026-04-24T08:01:31.99Z</time></trkpt><trkpt lat="43.5246236" lon="12.0683375"><ele>391.5</ele><time>2026-04-24T08:01:32.99Z</time></trkpt><trkpt lat="43.524408" lon="12.0684734"><ele>391.0</ele><time>2026-04-24T08:01:33.991Z</time></trkpt><trkpt lat="43.5241887" lon="12.0686083"><ele>391.0</ele><time>2026-04-24T08:01:34.991Z</time></trkpt><trkpt lat="43.5239661" lon="12.0687411"><ele>391.0</ele><time>2026-04-24T08:01:35.99Z</time></trkpt><trkpt lat="43.5237407" lon="12.0688713"><ele>389.0</ele><time>2026-04-24T08:01:36.99Z</time></trkpt><trkpt lat="43.5235129" lon="12.0690046"><ele>387.0</ele><time>2026-04-24T08:01:37.99Z</time></trkpt><trkpt lat="43.5232839" lon="12.0691395"><ele>387.0</ele><time>2026-04-24T08:01:38.99Z</time></trkpt><trkpt lat="43.523053" lon="12.0692736"><ele>387.0</ele><time>2026-04-24T08:01:39.99Z</time></trkpt><trkpt lat="43.5228212" lon="12.0694104"><ele>386.0</ele><time>2026-04-24T08:01:40.991Z</time></trkpt><trkpt lat="43.5225904" lon="12.0695557"><ele>385.0</ele><time>2026-04-24T08:01:41.99Z</time></trkpt><trkpt lat="43.5223686" lon="12.0697233"><ele>385.0</ele><time>2026-04-24T08:01:42.99Z</time></trkpt><trkpt lat="43.5221648" lon="12.0699335"><ele>385.0</ele><time>2026-04-24T08:01:43.99Z</time></trkpt><trkpt lat="43.5219797" lon="12.0701724"><ele>383.0</ele><time>2026-04-24T08:01:44.99Z</time></trkpt><trkpt lat="43.5218138" lon="12.070439"><ele>381.0</ele><time>2026-04-24T08:01:45.99Z</time></trkpt><trkpt lat="43.5216593" lon="12.0707207"><ele>378.0</ele><time>2026-04-24T08:01:46.991Z</time></trkpt><trkpt lat="43.5215035" lon="12.0710065"><ele>375.0</ele><time>2026-04-24T08:01:47.99Z</time></trkpt><trkpt lat="43.5213503" lon="12.0712992"><ele>372.0</ele><time>2026-04-24T08:01:48.991Z</time></trkpt><trkpt lat="43.5211919" lon="12.0715912"><ele>369.0</ele><time>2026-04-24T08:01:49.991Z</time></trkpt><trkpt lat="43.5210326" lon="12.0718869"><ele>367.5</ele><time>2026-04-24T08:01:50.99Z</time></trkpt><trkpt lat="43.520872" lon="12.0721826"><ele>366.0</ele><time>2026-04-24T08:01:51.99Z</time></trkpt><trkpt lat="43.5207114" lon="12.0724785"><ele>365.0</ele><time>2026-04-24T08:01:52.99Z</time></trkpt><trkpt lat="43.5205505" lon="12.0727762"><ele>364.0</ele><time>2026-04-24T08:01:53.991Z</time></trkpt><trkpt lat="43.5203898" lon="12.0730759"><ele>361.0</ele><time>2026-04-24T08:01:54.99Z</time></trkpt><trkpt lat="43.5202298" lon="12.0733731"><ele>358.0</ele><time>2026-04-24T08:01:55.99Z</time></trkpt><trkpt lat="43.5200723" lon="12.0736741"><ele>358.0</ele><time>2026-04-24T08:01:56.99Z</time></trkpt><trkpt lat="43.5199122" lon="12.0739704"><ele>358.0</ele><time>2026-04-24T08:01:57.99Z</time></trkpt><trkpt lat="43.5197515" lon="12.0742648"><ele>358.0</ele><time>2026-04-24T08:01:58.99Z</time></trkpt><trkpt lat="43.519591" lon="12.0745611"><ele>358.0</ele><time>2026-04-24T08:01:59.99Z</time></trkpt><trkpt lat="43.5194315" lon="12.0748558"><ele>356.0</ele><time>2026-04-24T08:02:00.99Z</time></trkpt><trkpt lat="43.5192756" lon="12.0751521"><ele>354.0</ele><time>2026-04-24T08:02:01.991Z</time></trkpt><trkpt lat="43.5191201" lon="12.0754454"><ele>354.0</ele><time>2026-04-24T08:02:02.99Z</time></trkpt><trkpt lat="43.5189639" lon="12.0757324"><ele>354.0</ele><time>2026-04-24T08:02:03.99Z</time></trkpt><trkpt lat="43.5188095" lon="12.0760145"><ele>353.0</ele><time>2026-04-24T08:02:04.99Z</time></trkpt><trkpt lat="43.5186618" lon="12.0762908"><ele>352.0</ele><time>2026-04-24T08:02:05.99Z</time></trkpt><trkpt lat="43.5185193" lon="12.0765657"><ele>353.5</ele><time>2026-04-24T08:02:06.991Z</time></trkpt><trkpt lat="43.5183822" lon="12.0768349"><ele>355.0</ele><time>2026-04-24T08:02:07.991Z</time></trkpt><trkpt lat="43.5182471" lon="12.0770986"><ele>355.0</ele><time>2026-04-24T08:02:08.991Z</time></trkpt><trkpt lat="43.5181101" lon="12.0773545"><ele>355.0</ele><time>2026-04-24T08:02:09.991Z</time></trkpt><trkpt lat="43.5179727" lon="12.077608"><ele>353.5</ele><time>2026-04-24T08:02:10.99Z</time></trkpt><trkpt lat="43.5178393" lon="12.0778597"><ele>352.0</ele><time>2026-04-24T08:02:11.99Z</time></trkpt><trkpt lat="43.5177083" lon="12.0781111"><ele>352.66666666666663</ele><time>2026-04-24T08:02:12.99Z</time></trkpt><trkpt lat="43.5175747" lon="12.0783589"><ele>353.3333333333333</ele><time>2026-04-24T08:02:13.99Z</time></trkpt><trkpt lat="43.5174444" lon="12.0786089"><ele>354.0</ele><time>2026-04-24T08:02:14.99Z</time></trkpt><trkpt lat="43.5173144" lon="12.0788581"><ele>355.0</ele><time>2026-04-24T08:02:15.991Z</time></trkpt><trkpt lat="43.5171873" lon="12.0791046"><ele>356.0</ele><time>2026-04-24T08:02:16.99Z</time></trkpt><trkpt lat="43.5170624" lon="12.0793438"><ele>357.0</ele><time>2026-04-24T08:02:17.991Z</time></trkpt><trkpt lat="43.5169359" lon="12.0795789"><ele>357.0</ele><time>2026-04-24T08:02:18.99Z</time></trkpt><trkpt lat="43.5168128" lon="12.0798108"><ele>357.0</ele><time>2026-04-24T08:02:19.99Z</time></trkpt><trkpt lat="43.5166911" lon="12.0800387"><ele>357.0</ele><time>2026-04-24T08:02:20.991Z</time></trkpt><trkpt lat="43.5165711" lon="12.0802633"><ele>356.6666666666667</ele><time>2026-04-24T08:02:21.991Z</time></trkpt><trkpt lat="43.5164551" lon="12.0804786"><ele>356.33333333333337</ele><time>2026-04-24T08:02:22.99Z</time></trkpt><trkpt lat="43.5163444" lon="12.0806831"><ele>356.0</ele><time>2026-04-24T08:02:23.99Z</time></trkpt><trkpt lat="43.5162433" lon="12.080874"><ele>355.0</ele><time>2026-04-24T08:02:24.99Z</time></trkpt><trkpt lat="43.5161535" lon="12.0810449"><ele>354.0</ele><time>2026-04-24T08:02:25.991Z</time></trkpt><trkpt lat="43.5160705" lon="12.0811959"><ele>353.0</ele><time>2026-04-24T08:02:26.991Z</time></trkpt><trkpt lat="43.5159995" lon="12.0813287"><ele>352.0</ele><time>2026-04-24T08:02:27.99Z</time></trkpt><trkpt lat="43.5159385" lon="12.0814363"><ele>352.0</ele><time>2026-04-24T08:02:28.99Z</time></trkpt><trkpt lat="43.5158731" lon="12.0815392"><ele>352.0</ele><time>2026-04-24T08:02:29.99Z</time></trkpt><trkpt lat="43.5157899" lon="12.0816464"><ele>352.0</ele><time>2026-04-24T08:02:30.99Z</time></trkpt><trkpt lat="43.5156771" lon="12.0817562"><ele>352.0</ele><time>2026-04-24T08:02:31.99Z</time></trkpt><trkpt lat="43.5155305" lon="12.0818504"><ele>350.66666666666663</ele><time>2026-04-24T08:02:32.99Z</time></trkpt><trkpt lat="43.515356" lon="12.0818983"><ele>349.3333333333333</ele><time>2026-04-24T08:02:33.99Z</time></trkpt><trkpt lat="43.5151647" lon="12.0819014"><ele>348.0</ele><time>2026-04-24T08:02:34.991Z</time></trkpt><trkpt lat="43.5149548" lon="12.0818929"><ele>348.0</ele><time>2026-04-24T08:02:35.99Z</time></trkpt><trkpt lat="43.5147392" lon="12.081893"><ele>348.0</ele><time>2026-04-24T08:02:36.99Z</time></trkpt><trkpt lat="43.5145157" lon="12.0818881"><ele>348.0</ele><time>2026-04-24T08:02:37.99Z</time></trkpt><trkpt lat="43.5142836" lon="12.0818902"><ele>343.5</ele><time>2026-04-24T08:02:38.99Z</time></trkpt><trkpt lat="43.5140491" lon="12.0819197"><ele>339.0</ele><time>2026-04-24T08:02:39.99Z</time></trkpt><trkpt lat="43.5138172" lon="12.0819881"><ele>337.5</ele><time>2026-04-24T08:02:40.99Z</time></trkpt><trkpt lat="43.5135922" lon="12.0820991"><ele>336.0</ele><time>2026-04-24T08:02:41.991Z</time></trkpt><trkpt lat="43.5133766" lon="12.0822587"><ele>334.5</ele><time>2026-04-24T08:02:42.99Z</time></trkpt><trkpt lat="43.5131735" lon="12.0824625"><ele>333.0</ele><time>2026-04-24T08:02:43.99Z</time></trkpt><trkpt lat="43.5129791" lon="12.0826983"><ele>334.5</ele><time>2026-04-24T08:02:44.99Z</time></trkpt><trkpt lat="43.5127871" lon="12.0829486"><ele>336.0</ele><time>2026-04-24T08:02:45.99Z</time></trkpt><trkpt lat="43.5125906" lon="12.0832036"><ele>331.5</ele><time>2026-04-24T08:02:46.99Z</time></trkpt><trkpt lat="43.5123937" lon="12.0834607"><ele>327.0</ele><time>2026-04-24T08:02:47.99Z</time></trkpt><trkpt lat="43.5121947" lon="12.083718"><ele>323.5</ele><time>2026-04-24T08:02:48.991Z</time></trkpt><trkpt lat="43.5119795" lon="12.0839539"><ele>320.0</ele><time>2026-04-24T08:02:49.99Z</time></trkpt><trkpt lat="43.5117458" lon="12.0841498"><ele>318.5</ele><time>2026-04-24T08:02:50.99Z</time></trkpt><trkpt lat="43.5114956" lon="12.0843"><ele>317.0</ele><time>2026-04-24T08:02:51.99Z</time></trkpt><trkpt lat="43.5112335" lon="12.084404"><ele>314.0</ele><time>2026-04-24T08:02:52.99Z</time></trkpt><trkpt lat="43.5109652" lon="12.0844594"><ele>311.0</ele><time>2026-04-24T08:02:53.99Z</time></trkpt><trkpt lat="43.5106963" lon="12.0844564"><ele>311.0</ele><time>2026-04-24T08:02:54.99Z</time></trkpt><trkpt lat="43.5104285" lon="12.0844219"><ele>311.0</ele><time>2026-04-24T08:02:55.991Z</time></trkpt><trkpt lat="43.5101617" lon="12.0843848"><ele>311.0</ele><time>2026-04-24T08:02:56.99Z</time></trkpt><trkpt lat="43.5098971" lon="12.0843407"><ele>311.0</ele><time>2026-04-24T08:02:57.99Z</time></trkpt><trkpt lat="43.5096354" lon="12.0842923"><ele>310.5</ele><time>2026-04-24T08:02:58.99Z</time></trkpt><trkpt lat="43.5093756" lon="12.0842359"><ele>310.0</ele><time>2026-04-24T08:02:59.99Z</time></trkpt><trkpt lat="43.5091214" lon="12.0841576"><ele>310.0</ele><time>2026-04-24T08:03:00.99Z</time></trkpt><trkpt lat="43.508873" lon="12.0840633"><ele>310.0</ele><time>2026-04-24T08:03:01.99Z</time></trkpt><trkpt lat="43.5086265" lon="12.0839663"><ele>310.0</ele><time>2026-04-24T08:03:02.991Z</time></trkpt><trkpt lat="43.5083808" lon="12.0838701"><ele>310.0</ele><time>2026-04-24T08:03:03.99Z</time></trkpt><trkpt lat="43.5081358" lon="12.0837738"><ele>309.0</ele><time>2026-04-24T08:03:04.991Z</time></trkpt><trkpt lat="43.50789" lon="12.0836785"><ele>308.0</ele><time>2026-04-24T08:03:05.99Z</time></trkpt><trkpt lat="43.5076452" lon="12.0835865"><ele>308.0</ele><time>2026-04-24T08:03:06.99Z</time></trkpt><trkpt lat="43.5074018" lon="12.0834954"><ele>308.0</ele><time>2026-04-24T08:03:07.99Z</time></trkpt><trkpt lat="43.507162" lon="12.0834051"><ele>308.0</ele><time>2026-04-24T08:03:08.991Z</time></trkpt><trkpt lat="43.5069321" lon="12.0833197"><ele>308.0</ele><time>2026-04-24T08:03:09.99Z</time></trkpt><trkpt lat="43.5067123" lon="12.0832394"><ele>308.33333333333337</ele><time>2026-04-24T08:03:10.99Z</time></trkpt><trkpt lat="43.5064975" lon="12.0831591"><ele>308.6666666666667</ele><time>2026-04-24T08:03:11.991Z</time></trkpt><trkpt lat="43.5062957" lon="12.083082"><ele>309.0</ele><time>2026-04-24T08:03:12.99Z</time></trkpt><trkpt lat="43.5061045" lon="12.0830093"><ele>309.3333333333333</ele><time>2026-04-24T08:03:13.99Z</time></trkpt><trkpt lat="43.5059228" lon="12.0829419"><ele>309.66666666666663</ele><time>2026-04-24T08:03:14.99Z</time></trkpt><trkpt lat="43.5057503" lon="12.0828776"><ele>310.0</ele><time>2026-04-24T08:03:15.99Z</time></trkpt><trkpt lat="43.5055836" lon="12.0828146"><ele>310.0</ele><time>2026-04-24T08:03:16.99Z</time></trkpt><trkpt lat="43.5054183" lon="12.0827533"><ele>310.0</ele><time>2026-04-24T08:03:17.99Z</time></trkpt><trkpt lat="43.5052513" lon="12.0826905"><ele>310.0</ele><time>2026-04-24T08:03:18.99Z</time></trkpt><trkpt lat="43.5050864" lon="12.0826261"><ele>310.0</ele><time>2026-04-24T08:03:19.991Z</time></trkpt><trkpt lat="43.5049162" lon="12.0825603"><ele>310.0</ele><time>2026-04-24T08:03:20.99Z</time></trkpt><trkpt lat="43.5047449" lon="12.0824942"><ele>310.0</ele><time>2026-04-24T08:03:21.99Z</time></trkpt><trkpt lat="43.5045768" lon="12.0824282"><ele>309.66666666666663</ele><time>2026-04-24T08:03:22.991Z</time></trkpt><trkpt lat="43.5044111" lon="12.0823633"><ele>309.3333333333333</ele><time>2026-04-24T08:03:23.99Z</time></trkpt><trkpt lat="43.5042488" lon="12.0822994"><ele>309.0</ele><time>2026-04-24T08:03:24.99Z</time></trkpt><trkpt lat="43.5040915" lon="12.0822356"><ele>309.0</ele><time>2026-04-24T08:03:25.99Z</time></trkpt><trkpt lat="43.5039329" lon="12.0821739"><ele>309.0</ele><time>2026-04-24T08:03:26.99Z</time></trkpt><trkpt lat="43.5037729" lon="12.0821145"><ele>309.0</ele><time>2026-04-24T08:03:27.99Z</time></trkpt><trkpt lat="43.5036186" lon="12.0820579"><ele>309.0</ele><time>2026-04-24T08:03:28.991Z</time></trkpt><trkpt lat="43.5034691" lon="12.0820005"><ele>309.0</ele><time>2026-04-24T08:03:29.99Z</time></trkpt><trkpt lat="43.5033199" lon="12.0819438"><ele>309.0</ele><time>2026-04-24T08:03:30.99Z</time></trkpt><trkpt lat="43.5031694" lon="12.0818917"><ele>309.0</ele><time>2026-04-24T08:03:31.99Z</time></trkpt><trkpt lat="43.5030199" lon="12.0818523"><ele>309.0</ele><time>2026-04-24T08:03:32.99Z</time></trkpt><trkpt lat="43.502868" lon="12.0818269"><ele>309.0</ele><time>2026-04-24T08:03:33.991Z</time></trkpt><trkpt lat="43.5027177" lon="12.0818162"><ele>309.5</ele><time>2026-04-24T08:03:34.99Z</time></trkpt><trkpt lat="43.5025672" lon="12.0818188"><ele>310.0</ele><time>2026-04-24T08:03:35.99Z</time></trkpt><trkpt lat="43.5024188" lon="12.0818344"><ele>310.5</ele><time>2026-04-24T08:03:36.99Z</time></trkpt><trkpt lat="43.5022736" lon="12.0818681"><ele>311.0</ele><time>2026-04-24T08:03:37.99Z</time></trkpt><trkpt lat="43.5021322" lon="12.0819184"><ele>311.0</ele><time>2026-04-24T08:03:38.99Z</time></trkpt><trkpt lat="43.5019895" lon="12.081982"><ele>311.0</ele><time>2026-04-24T08:03:39.99Z</time></trkpt><trkpt lat="43.5018477" lon="12.0820567"><ele>311.0</ele><time>2026-04-24T08:03:40.99Z</time></trkpt><trkpt lat="43.5017077" lon="12.0821472"><ele>311.0</ele><time>2026-04-24T08:03:41.99Z</time></trkpt><trkpt lat="43.5015711" lon="12.0822509"><ele>311.0</ele><time>2026-04-24T08:03:42.99Z</time></trkpt><trkpt lat="43.5014372" lon="12.0823697"><ele>311.0</ele><time>2026-04-24T08:03:43.991Z</time></trkpt><trkpt lat="43.5013107" lon="12.0825039"><ele>314.0</ele><time>2026-04-24T08:03:44.99Z</time></trkpt><trkpt lat="43.5011915" lon="12.0826462"><ele>317.0</ele><time>2026-04-24T08:03:45.99Z</time></trkpt><trkpt lat="43.5010815" lon="12.0827966"><ele>320.0</ele><time>2026-04-24T08:03:46.99Z</time></trkpt><trkpt lat="43.5009794" lon="12.0829456"><ele>320.0</ele><time>2026-04-24T08:03:47.99Z</time></trkpt><trkpt lat="43.5008791" lon="12.0830969"><ele>320.0</ele><time>2026-04-24T08:03:48.99Z</time></trkpt><trkpt lat="43.5007774" lon="12.0832437"><ele>320.0</ele><time>2026-04-24T08:03:49.991Z</time></trkpt><trkpt lat="43.5006761" lon="12.0833946"><ele>320.0</ele><time>2026-04-24T08:03:50.99Z</time></trkpt><trkpt lat="43.5005803" lon="12.0835387"><ele>320.0</ele><time>2026-04-24T08:03:51.99Z</time></trkpt><trkpt lat="43.5004819" lon="12.0836804"><ele>320.0</ele><time>2026-04-24T08:03:52.99Z</time></trkpt><trkpt lat="43.500384" lon="12.0838195"><ele>320.0</ele><time>2026-04-24T08:03:53.99Z</time></trkpt><trkpt lat="43.5002874" lon="12.0839576"><ele>320.0</ele><time>2026-04-24T08:03:54.99Z</time></trkpt><trkpt lat="43.500192" lon="12.0840942"><ele>323.75</ele><time>2026-04-24T08:03:55.99Z</time></trkpt><trkpt lat="43.5000998" lon="12.0842259"><ele>327.5</ele><time>2026-04-24T08:03:56.991Z</time></trkpt><trkpt lat="43.5000092" lon="12.0843535"><ele>331.25</ele><time>2026-04-24T08:03:57.991Z</time></trkpt><trkpt lat="43.4999129" lon="12.0844702"><ele>335.0</ele><time>2026-04-24T08:03:58.99Z</time></trkpt><trkpt lat="43.4998158" lon="12.0845734"><ele>335.0</ele><time>2026-04-24T08:03:59.99Z</time></trkpt><trkpt lat="43.4997155" lon="12.0846662"><ele>335.0</ele><time>2026-04-24T08:04:00.99Z</time></trkpt><trkpt lat="43.4996147" lon="12.0847464"><ele>335.0</ele><time>2026-04-24T08:04:01.99Z</time></trkpt><trkpt lat="43.4995127" lon="12.0848172"><ele>335.0</ele><time>2026-04-24T08:04:02.99Z</time></trkpt><trkpt lat="43.4994189" lon="12.0848774"><ele>335.2</ele><time>2026-04-24T08:04:03.99Z</time></trkpt><trkpt lat="43.4993369" lon="12.0849256"><ele>335.4</ele><time>2026-04-24T08:04:04.99Z</time></trkpt><trkpt lat="43.4992685" lon="12.085052"><ele>335.6</ele><time>2026-04-24T08:04:06.99Z</time></trkpt><trkpt lat="43.4992746" lon="12.0851642"><ele>335.8</ele><time>2026-04-24T08:04:07.991Z</time></trkpt><trkpt lat="43.4992829" lon="12.0853211"><ele>336.0</ele><time>2026-04-24T08:04:08.99Z</time></trkpt><trkpt lat="43.4992918" lon="12.085511"><ele>336.0</ele><time>2026-04-24T08:04:09.99Z</time></trkpt><trkpt lat="43.4993085" lon="12.085717"><ele>336.0</ele><time>2026-04-24T08:04:10.99Z</time></trkpt><trkpt lat="43.4993325" lon="12.0859435"><ele>336.0</ele><time>2026-04-24T08:04:11.99Z</time></trkpt><trkpt lat="43.4993701" lon="12.0861786"><ele>336.3333333333333</ele><time>2026-04-24T08:04:12.991Z</time></trkpt><trkpt lat="43.4994243" lon="12.0864055"><ele>336.66666666666663</ele><time>2026-04-24T08:04:13.991Z</time></trkpt><trkpt lat="43.4994738" lon="12.0866197"><ele>337.0</ele><time>2026-04-24T08:04:14.99Z</time></trkpt><trkpt lat="43.4995076" lon="12.0868204"><ele>337.0</ele><time>2026-04-24T08:04:15.99Z</time></trkpt><trkpt lat="43.4995284" lon="12.08702"><ele>337.0</ele><time>2026-04-24T08:04:16.99Z</time></trkpt><trkpt lat="43.4995519" lon="12.0872259"><ele>337.0</ele><time>2026-04-24T08:04:17.991Z</time></trkpt><trkpt lat="43.4995838" lon="12.0874142"><ele>337.0</ele><time>2026-04-24T08:04:18.99Z</time></trkpt><trkpt lat="43.4996306" lon="12.0875816"><ele>336.6</ele><time>2026-04-24T08:04:19.991Z</time></trkpt><trkpt lat="43.4996825" lon="12.0877242"><ele>336.20000000000005</ele><time>2026-04-24T08:04:20.99Z</time></trkpt><trkpt lat="43.4997373" lon="12.0878487"><ele>335.8</ele><time>2026-04-24T08:04:21.991Z</time></trkpt><trkpt lat="43.4997966" lon="12.0879684"><ele>335.4</ele><time>2026-04-24T08:04:22.99Z</time></trkpt><trkpt lat="43.4998551" lon="12.0880911"><ele>335.0</ele><time>2026-04-24T08:04:23.99Z</time></trkpt><trkpt lat="43.4999035" lon="12.0882153"><ele>336.6</ele><time>2026-04-24T08:04:24.99Z</time></trkpt><trkpt lat="43.499939" lon="12.0883445"><ele>338.2</ele><time>2026-04-24T08:04:25.99Z</time></trkpt><trkpt lat="43.4999654" lon="12.0884782"><ele>339.79999999999995</ele><time>2026-04-24T08:04:26.991Z</time></trkpt><trkpt lat="43.4999851" lon="12.0886182"><ele>341.4</ele><time>2026-04-24T08:04:27.99Z</time></trkpt><trkpt lat="43.5000004" lon="12.0887628"><ele>343.0</ele><time>2026-04-24T08:04:28.991Z</time></trkpt><trkpt lat="43.5000071" lon="12.0889138"><ele>343.0</ele><time>2026-04-24T08:04:29.99Z</time></trkpt><trkpt lat="43.5000019" lon="12.0890573"><ele>343.0</ele><time>2026-04-24T08:04:30.99Z</time></trkpt><trkpt lat="43.4999871" lon="12.0891989"><ele>343.0</ele><time>2026-04-24T08:04:31.991Z</time></trkpt><trkpt lat="43.499959" lon="12.0893429"><ele>343.0</ele><time>2026-04-24T08:04:32.991Z</time></trkpt><trkpt lat="43.4999267" lon="12.0894936"><ele>343.0</ele><time>2026-04-24T08:04:33.99Z</time></trkpt><trkpt lat="43.4998925" lon="12.0896536"><ele>344.0</ele><time>2026-04-24T08:04:34.99Z</time></trkpt><trkpt lat="43.499855" lon="12.0898154"><ele>345.0</ele><time>2026-04-24T08:04:35.991Z</time></trkpt><trkpt lat="43.4998127" lon="12.0899719"><ele>346.0</ele><time>2026-04-24T08:04:36.99Z</time></trkpt><trkpt lat="43.4997649" lon="12.0901224"><ele>347.0</ele><time>2026-04-24T08:04:37.99Z</time></trkpt><trkpt lat="43.4997086" lon="12.0902632"><ele>347.0</ele><time>2026-04-24T08:04:38.99Z</time></trkpt><trkpt lat="43.4996414" lon="12.0903893"><ele>347.0</ele><time>2026-04-24T08:04:39.99Z</time></trkpt><trkpt lat="43.499563" lon="12.0904915"><ele>347.0</ele><time>2026-04-24T08:04:40.99Z</time></trkpt><trkpt lat="43.4994785" lon="12.0905728"><ele>347.0</ele><time>2026-04-24T08:04:41.99Z</time></trkpt><trkpt lat="43.4993861" lon="12.090651"><ele>347.0</ele><time>2026-04-24T08:04:42.99Z</time></trkpt><trkpt lat="43.4992838" lon="12.0907385"><ele>347.25</ele><time>2026-04-24T08:04:43.989Z</time></trkpt><trkpt lat="43.4991825" lon="12.0908387"><ele>347.5</ele><time>2026-04-24T08:04:44.989Z</time></trkpt><trkpt lat="43.4990884" lon="12.0909466"><ele>347.75</ele><time>2026-04-24T08:04:45.989Z</time></trkpt><trkpt lat="43.4990033" lon="12.0910654"><ele>348.0</ele><time>2026-04-24T08:04:46.989Z</time></trkpt><trkpt lat="43.4989256" lon="12.0911965"><ele>348.0</ele><time>2026-04-24T08:04:47.989Z</time></trkpt><trkpt lat="43.4988545" lon="12.0913321"><ele>348.0</ele><time>2026-04-24T08:04:48.989Z</time></trkpt><trkpt lat="43.4987769" lon="12.0914701"><ele>348.0</ele><time>2026-04-24T08:04:49.989Z</time></trkpt><trkpt lat="43.4986976" lon="12.0916103"><ele>348.0</ele><time>2026-04-24T08:04:50.989Z</time></trkpt><trkpt lat="43.4986241" lon="12.0917497"><ele>347.75</ele><time>2026-04-24T08:04:51.989Z</time></trkpt><trkpt lat="43.4985588" lon="12.0918839"><ele>347.5</ele><time>2026-04-24T08:04:52.989Z</time></trkpt><trkpt lat="43.4985117" lon="12.0920291"><ele>347.25</ele><time>2026-04-24T08:04:53.989Z</time></trkpt><trkpt lat="43.4984843" lon="12.0921763"><ele>347.0</ele><time>2026-04-24T08:04:54.99Z</time></trkpt><trkpt lat="43.4984795" lon="12.092327"><ele>347.5</ele><time>2026-04-24T08:04:55.99Z</time></trkpt><trkpt lat="43.4984921" lon="12.0924862"><ele>348.0</ele><time>2026-04-24T08:04:56.99Z</time></trkpt><trkpt lat="43.498511" lon="12.0926571"><ele>348.5</ele><time>2026-04-24T08:04:57.989Z</time></trkpt><trkpt lat="43.4985275" lon="12.0928386"><ele>349.0</ele><time>2026-04-24T08:04:58.99Z</time></trkpt><trkpt lat="43.4985322" lon="12.0930265"><ele>349.0</ele><time>2026-04-24T08:04:59.989Z</time></trkpt><trkpt lat="43.4985186" lon="12.093217"><ele>349.0</ele><time>2026-04-24T08:05:00.991Z</time></trkpt><trkpt lat="43.4984803" lon="12.0934324"><ele>349.0</ele><time>2026-04-24T08:05:01.99Z</time></trkpt><trkpt lat="43.4984228" lon="12.0936759"><ele>348.3333333333333</ele><time>2026-04-24T08:05:02.99Z</time></trkpt><trkpt lat="43.4983502" lon="12.0939429"><ele>347.6666666666667</ele><time>2026-04-24T08:05:03.989Z</time></trkpt><trkpt lat="43.4982583" lon="12.0942315"><ele>347.0</ele><time>2026-04-24T08:05:04.99Z</time></trkpt><trkpt lat="43.4981402" lon="12.0945229"><ele>345.5</ele><time>2026-04-24T08:05:05.989Z</time></trkpt><trkpt lat="43.4980029" lon="12.0948112"><ele>344.0</ele><time>2026-04-24T08:05:06.989Z</time></trkpt><trkpt lat="43.4978634" lon="12.0950802"><ele>339.5</ele><time>2026-04-24T08:05:07.99Z</time></trkpt><trkpt lat="43.4977299" lon="12.0953383"><ele>335.0</ele><time>2026-04-24T08:05:08.99Z</time></trkpt><trkpt lat="43.4975957" lon="12.0955815"><ele>334.33333333333337</ele><time>2026-04-24T08:05:09.989Z</time></trkpt><trkpt lat="43.4974611" lon="12.0958082"><ele>333.6666666666667</ele><time>2026-04-24T08:05:10.989Z</time></trkpt><trkpt lat="43.4973276" lon="12.0960284"><ele>333.0</ele><time>2026-04-24T08:05:11.989Z</time></trkpt><trkpt lat="43.497189" lon="12.096249"><ele>330.0</ele><time>2026-04-24T08:05:12.989Z</time></trkpt><trkpt lat="43.4970461" lon="12.0964658"><ele>327.0</ele><time>2026-04-24T08:05:13.989Z</time></trkpt><trkpt lat="43.4968931" lon="12.0966727"><ele>324.0</ele><time>2026-04-24T08:05:14.989Z</time></trkpt><trkpt lat="43.4967306" lon="12.0968576"><ele>323.0</ele><time>2026-04-24T08:05:15.989Z</time></trkpt><trkpt lat="43.4965594" lon="12.097026"><ele>322.0</ele><time>2026-04-24T08:05:16.989Z</time></trkpt><trkpt lat="43.4963879" lon="12.0971789"><ele>321.0</ele><time>2026-04-24T08:05:17.989Z</time></trkpt><trkpt lat="43.4962188" lon="12.0973303"><ele>318.6666666666667</ele><time>2026-04-24T08:05:18.989Z</time></trkpt><trkpt lat="43.4960595" lon="12.0975091"><ele>316.33333333333337</ele><time>2026-04-24T08:05:19.989Z</time></trkpt><trkpt lat="43.4959225" lon="12.0977261"><ele>314.0</ele><time>2026-04-24T08:05:20.989Z</time></trkpt><trkpt lat="43.4957999" lon="12.0979748"><ele>314.0</ele><time>2026-04-24T08:05:21.99Z</time></trkpt><trkpt lat="43.4956863" lon="12.0982313"><ele>314.0</ele><time>2026-04-24T08:05:22.989Z</time></trkpt><trkpt lat="43.4955607" lon="12.0984802"><ele>314.0</ele><time>2026-04-24T08:05:23.989Z</time></trkpt><trkpt lat="43.4954049" lon="12.0987125"><ele>311.5</ele><time>2026-04-24T08:05:24.99Z</time></trkpt><trkpt lat="43.4952169" lon="12.0989048"><ele>309.0</ele><time>2026-04-24T08:05:25.99Z</time></trkpt><trkpt lat="43.4950066" lon="12.0990596"><ele>309.0</ele><time>2026-04-24T08:05:26.989Z</time></trkpt><trkpt lat="43.4947819" lon="12.0992009"><ele>309.0</ele><time>2026-04-24T08:05:27.989Z</time></trkpt><trkpt lat="43.4945548" lon="12.0993515"><ele>309.0</ele><time>2026-04-24T08:05:28.989Z</time></trkpt><trkpt lat="43.4943301" lon="12.0995107"><ele>309.0</ele><time>2026-04-24T08:05:29.989Z</time></trkpt><trkpt lat="43.4941055" lon="12.0996843"><ele>309.0</ele><time>2026-04-24T08:05:30.989Z</time></trkpt><trkpt lat="43.493886" lon="12.0998771"><ele>309.0</ele><time>2026-04-24T08:05:31.99Z</time></trkpt><trkpt lat="43.493671" lon="12.1000832"><ele>309.0</ele><time>2026-04-24T08:05:32.99Z</time></trkpt><trkpt lat="43.4934597" lon="12.1003024"><ele>309.0</ele><time>2026-04-24T08:05:33.989Z</time></trkpt><trkpt lat="43.4932492" lon="12.1005308"><ele>310.0</ele><time>2026-04-24T08:05:34.989Z</time></trkpt><trkpt lat="43.4930361" lon="12.1007627"><ele>311.0</ele><time>2026-04-24T08:05:35.989Z</time></trkpt><trkpt lat="43.4928199" lon="12.100995"><ele>309.0</ele><time>2026-04-24T08:05:36.989Z</time></trkpt><trkpt lat="43.4926034" lon="12.1012273"><ele>307.0</ele><time>2026-04-24T08:05:37.99Z</time></trkpt><trkpt lat="43.4923886" lon="12.1014613"><ele>307.0</ele><time>2026-04-24T08:05:38.989Z</time></trkpt><trkpt lat="43.4921739" lon="12.1016941"><ele>307.0</ele><time>2026-04-24T08:05:39.989Z</time></trkpt><trkpt lat="43.4919578" lon="12.101926"><ele>305.5</ele><time>2026-04-24T08:05:40.989Z</time></trkpt><trkpt lat="43.4917419" lon="12.1021531"><ele>304.0</ele><time>2026-04-24T08:05:41.989Z</time></trkpt><trkpt lat="43.4915264" lon="12.1023814"><ele>304.0</ele><time>2026-04-24T08:05:42.989Z</time></trkpt><trkpt lat="43.4913122" lon="12.1026092"><ele>304.0</ele><time>2026-04-24T08:05:43.989Z</time></trkpt><trkpt lat="43.4910993" lon="12.1028383"><ele>304.0</ele><time>2026-04-24T08:05:44.99Z</time></trkpt><trkpt lat="43.4908893" lon="12.1030656"><ele>304.0</ele><time>2026-04-24T08:05:45.989Z</time></trkpt><trkpt lat="43.4906831" lon="12.103292"><ele>303.5</ele><time>2026-04-24T08:05:46.99Z</time></trkpt><trkpt lat="43.490482" lon="12.1035108"><ele>303.0</ele><time>2026-04-24T08:05:47.99Z</time></trkpt><trkpt lat="43.490293" lon="12.1037163"><ele>303.0</ele><time>2026-04-24T08:05:48.99Z</time></trkpt><trkpt lat="43.4901127" lon="12.1039091"><ele>303.0</ele><time>2026-04-24T08:05:49.99Z</time></trkpt><trkpt lat="43.4899428" lon="12.1040924"><ele>303.0</ele><time>2026-04-24T08:05:50.99Z</time></trkpt><trkpt lat="43.4897836" lon="12.1042655"><ele>302.6666666666667</ele><time>2026-04-24T08:05:51.99Z</time></trkpt><trkpt lat="43.4896318" lon="12.1044288"><ele>302.33333333333337</ele><time>2026-04-24T08:05:52.989Z</time></trkpt><trkpt lat="43.4894863" lon="12.1045784"><ele>302.0</ele><time>2026-04-24T08:05:53.99Z</time></trkpt><trkpt lat="43.4893397" lon="12.1046981"><ele>302.0</ele><time>2026-04-24T08:05:54.989Z</time></trkpt><trkpt lat="43.4891937" lon="12.1047931"><ele>302.0</ele><time>2026-04-24T08:05:55.99Z</time></trkpt><trkpt lat="43.4890591" lon="12.1048587"><ele>302.0</ele><time>2026-04-24T08:05:56.989Z</time></trkpt><trkpt lat="43.4889411" lon="12.1049027"><ele>302.0</ele><time>2026-04-24T08:05:57.989Z</time></trkpt><trkpt lat="43.4888511" lon="12.1049377"><ele>302.2</ele><time>2026-04-24T08:05:58.989Z</time></trkpt><trkpt lat="43.4887857" lon="12.1049627"><ele>302.4</ele><time>2026-04-24T08:05:59.989Z</time></trkpt><trkpt lat="43.4886838" lon="12.1050721"><ele>302.6</ele><time>2026-04-24T08:06:01.989Z</time></trkpt><trkpt lat="43.4886345" lon="12.1051969"><ele>302.8</ele><time>2026-04-24T08:06:02.989Z</time></trkpt><trkpt lat="43.4885902" lon="12.1053472"><ele>303.0</ele><time>2026-04-24T08:06:03.989Z</time></trkpt><trkpt lat="43.4885434" lon="12.105526"><ele>303.0</ele><time>2026-04-24T08:06:04.989Z</time></trkpt><trkpt lat="43.4884904" lon="12.1057205"><ele>303.0</ele><time>2026-04-24T08:06:05.989Z</time></trkpt><trkpt lat="43.4884228" lon="12.1059258"><ele>303.0</ele><time>2026-04-24T08:06:06.989Z</time></trkpt><trkpt lat="43.488337" lon="12.1061322"><ele>304.0</ele><time>2026-04-24T08:06:07.989Z</time></trkpt><trkpt lat="43.4882351" lon="12.1063349"><ele>305.0</ele><time>2026-04-24T08:06:08.989Z</time></trkpt><trkpt lat="43.4881224" lon="12.1065403"><ele>306.0</ele><time>2026-04-24T08:06:09.989Z</time></trkpt><trkpt lat="43.4880056" lon="12.1067499"><ele>305.0</ele><time>2026-04-24T08:06:10.989Z</time></trkpt><trkpt lat="43.4878904" lon="12.1069628"><ele>304.0</ele><time>2026-04-24T08:06:11.989Z</time></trkpt><trkpt lat="43.4877775" lon="12.107177"><ele>303.0</ele><time>2026-04-24T08:06:12.989Z</time></trkpt><trkpt lat="43.4876659" lon="12.1073821"><ele>304.0</ele><time>2026-04-24T08:06:13.989Z</time></trkpt><trkpt lat="43.4875576" lon="12.1075828"><ele>305.0</ele><time>2026-04-24T08:06:14.989Z</time></trkpt><trkpt lat="43.4874543" lon="12.107779"><ele>306.0</ele><time>2026-04-24T08:06:15.99Z</time></trkpt><trkpt lat="43.48736" lon="12.1079754"><ele>306.0</ele><time>2026-04-24T08:06:16.989Z</time></trkpt><trkpt lat="43.4872876" lon="12.1081817"><ele>306.0</ele><time>2026-04-24T08:06:17.989Z</time></trkpt><trkpt lat="43.4872472" lon="12.1083988"><ele>306.0</ele><time>2026-04-24T08:06:18.989Z</time></trkpt><trkpt lat="43.4872411" lon="12.1086187"><ele>306.3333333333333</ele><time>2026-04-24T08:06:19.989Z</time></trkpt><trkpt lat="43.4872654" lon="12.1088316"><ele>306.66666666666663</ele><time>2026-04-24T08:06:20.989Z</time></trkpt><trkpt lat="43.4873186" lon="12.1090353"><ele>307.0</ele><time>2026-04-24T08:06:21.989Z</time></trkpt><trkpt lat="43.4873961" lon="12.109226"><ele>307.0</ele><time>2026-04-24T08:06:22.989Z</time></trkpt><trkpt lat="43.4874959" lon="12.1093976"><ele>307.0</ele><time>2026-04-24T08:06:23.989Z</time></trkpt><trkpt lat="43.487608" lon="12.1095566"><ele>307.0</ele><time>2026-04-24T08:06:24.989Z</time></trkpt><trkpt lat="43.487721" lon="12.1097138"><ele>307.0</ele><time>2026-04-24T08:06:25.989Z</time></trkpt><trkpt lat="43.4878178" lon="12.1098835"><ele>307.0</ele><time>2026-04-24T08:06:26.989Z</time></trkpt><trkpt lat="43.487893" lon="12.1100723"><ele>307.0</ele><time>2026-04-24T08:06:27.99Z</time></trkpt><trkpt lat="43.4879458" lon="12.1102734"><ele>307.25</ele><time>2026-04-24T08:06:28.989Z</time></trkpt><trkpt lat="43.4879776" lon="12.1104803"><ele>307.5</ele><time>2026-04-24T08:06:29.989Z</time></trkpt><trkpt lat="43.4879868" lon="12.1106856"><ele>307.75</ele><time>2026-04-24T08:06:30.989Z</time></trkpt><trkpt lat="43.4879836" lon="12.1108875"><ele>308.0</ele><time>2026-04-24T08:06:31.989Z</time></trkpt><trkpt lat="43.4879951" lon="12.1110973"><ele>307.33333333333337</ele><time>2026-04-24T08:06:32.989Z</time></trkpt><trkpt lat="43.4880375" lon="12.1113105"><ele>306.6666666666667</ele><time>2026-04-24T08:06:33.989Z</time></trkpt><trkpt lat="43.4880936" lon="12.1115252"><ele>306.0</ele><time>2026-04-24T08:06:34.99Z</time></trkpt><trkpt lat="43.4881584" lon="12.1117438"><ele>305.3333333333333</ele><time>2026-04-24T08:06:35.989Z</time></trkpt><trkpt lat="43.4882274" lon="12.1119612"><ele>304.66666666666663</ele><time>2026-04-24T08:06:36.989Z</time></trkpt><trkpt lat="43.4882962" lon="12.1121611"><ele>304.0</ele><time>2026-04-24T08:06:37.989Z</time></trkpt><trkpt lat="43.4883706" lon="12.1123696"><ele>303.3333333333333</ele><time>2026-04-24T08:06:38.989Z</time></trkpt><trkpt lat="43.4884496" lon="12.1125897"><ele>302.6666666666667</ele><time>2026-04-24T08:06:39.989Z</time></trkpt><trkpt lat="43.4885307" lon="12.1128191"><ele>302.0</ele><time>2026-04-24T08:06:40.99Z</time></trkpt><trkpt lat="43.4886093" lon="12.1130556"><ele>301.6666666666667</ele><time>2026-04-24T08:06:41.989Z</time></trkpt><trkpt lat="43.4886829" lon="12.1133015"><ele>301.3333333333333</ele><time>2026-04-24T08:06:42.99Z</time></trkpt><trkpt lat="43.488751" lon="12.1135542"><ele>301.0</ele><time>2026-04-24T08:06:43.989Z</time></trkpt><trkpt lat="43.4888174" lon="12.1138124"><ele>301.0</ele><time>2026-04-24T08:06:44.989Z</time></trkpt><trkpt lat="43.4888807" lon="12.1140772"><ele>301.0</ele><time>2026-04-24T08:06:45.989Z</time></trkpt><trkpt lat="43.4889441" lon="12.1143409"><ele>301.0</ele><time>2026-04-24T08:06:46.989Z</time></trkpt><trkpt lat="43.4890039" lon="12.1145979"><ele>301.0</ele><time>2026-04-24T08:06:47.991Z</time></trkpt><trkpt lat="43.4890428" lon="12.1148601"><ele>301.0</ele><time>2026-04-24T08:06:48.989Z</time></trkpt><trkpt lat="43.4890441" lon="12.1151327"><ele>301.0</ele><time>2026-04-24T08:06:49.989Z</time></trkpt><trkpt lat="43.4890111" lon="12.1154048"><ele>301.66666666666663</ele><time>2026-04-24T08:06:50.989Z</time></trkpt><trkpt lat="43.4889539" lon="12.1156741"><ele>302.3333333333333</ele><time>2026-04-24T08:06:51.989Z</time></trkpt><trkpt lat="43.4888938" lon="12.115947"><ele>303.0</ele><time>2026-04-24T08:06:52.989Z</time></trkpt><trkpt lat="43.4888343" lon="12.1162126"><ele>303.0</ele><time>2026-04-24T08:06:53.989Z</time></trkpt><trkpt lat="43.4887761" lon="12.116462"><ele>303.0</ele><time>2026-04-24T08:06:54.989Z</time></trkpt><trkpt lat="43.4887211" lon="12.1167051"><ele>303.0</ele><time>2026-04-24T08:06:55.989Z</time></trkpt><trkpt lat="43.4886668" lon="12.1169493"><ele>302.6666666666667</ele><time>2026-04-24T08:06:56.989Z</time></trkpt><trkpt lat="43.4886133" lon="12.1171899"><ele>302.33333333333337</ele><time>2026-04-24T08:06:57.989Z</time></trkpt><trkpt lat="43.4885586" lon="12.1174289"><ele>302.0</ele><time>2026-04-24T08:06:58.989Z</time></trkpt><trkpt lat="43.4885016" lon="12.1176592"><ele>302.6666666666667</ele><time>2026-04-24T08:06:59.989Z</time></trkpt><trkpt lat="43.4884418" lon="12.1178939"><ele>303.3333333333333</ele><time>2026-04-24T08:07:00.989Z</time></trkpt><trkpt lat="43.4883839" lon="12.1180978"><ele>304.0</ele><time>2026-04-24T08:07:01.99Z</time></trkpt><trkpt lat="43.4883284" lon="12.1182893"><ele>304.0</ele><time>2026-04-24T08:07:02.99Z</time></trkpt><trkpt lat="43.488273" lon="12.1184682"><ele>304.0</ele><time>2026-04-24T08:07:03.99Z</time></trkpt><trkpt lat="43.4882177" lon="12.1186377"><ele>304.0</ele><time>2026-04-24T08:07:04.99Z</time></trkpt><trkpt lat="43.4881579" lon="12.1188142"><ele>304.0</ele><time>2026-04-24T08:07:05.989Z</time></trkpt><trkpt lat="43.4880913" lon="12.1190033"><ele>303.0</ele><time>2026-04-24T08:07:06.989Z</time></trkpt><trkpt lat="43.4880209" lon="12.1192057"><ele>302.0</ele><time>2026-04-24T08:07:07.99Z</time></trkpt><trkpt lat="43.4879585" lon="12.1194404"><ele>301.0</ele><time>2026-04-24T08:07:08.989Z</time></trkpt><trkpt lat="43.4878985" lon="12.1197081"><ele>301.0</ele><time>2026-04-24T08:07:09.99Z</time></trkpt><trkpt lat="43.4878303" lon="12.1199799"><ele>301.0</ele><time>2026-04-24T08:07:10.99Z</time></trkpt><trkpt lat="43.4877633" lon="12.120266"><ele>301.0</ele><time>2026-04-24T08:07:11.989Z</time></trkpt><trkpt lat="43.4876984" lon="12.1205597"><ele>301.3333333333333</ele><time>2026-04-24T08:07:12.989Z</time></trkpt><trkpt lat="43.4876362" lon="12.1208575"><ele>301.6666666666667</ele><time>2026-04-24T08:07:13.989Z</time></trkpt><trkpt lat="43.4875723" lon="12.1211531"><ele>302.0</ele><time>2026-04-24T08:07:14.99Z</time></trkpt><trkpt lat="43.4875068" lon="12.1214438"><ele>302.33333333333337</ele><time>2026-04-24T08:07:15.99Z</time></trkpt><trkpt lat="43.4874379" lon="12.1217306"><ele>302.6666666666667</ele><time>2026-04-24T08:07:16.989Z</time></trkpt><trkpt lat="43.4873613" lon="12.122013"><ele>303.0</ele><time>2026-04-24T08:07:17.99Z</time></trkpt><trkpt lat="43.4872834" lon="12.1222914"><ele>302.3333333333333</ele><time>2026-04-24T08:07:18.989Z</time></trkpt><trkpt lat="43.4872099" lon="12.1225678"><ele>301.66666666666663</ele><time>2026-04-24T08:07:19.991Z</time></trkpt><trkpt lat="43.4871369" lon="12.1228384"><ele>301.0</ele><time>2026-04-24T08:07:20.99Z</time></trkpt><trkpt lat="43.4870642" lon="12.12311"><ele>300.66666666666663</ele><time>2026-04-24T08:07:21.989Z</time></trkpt><trkpt lat="43.4869901" lon="12.1233887"><ele>300.3333333333333</ele><time>2026-04-24T08:07:22.989Z</time></trkpt><trkpt lat="43.4869167" lon="12.1236705"><ele>300.0</ele><time>2026-04-24T08:07:23.989Z</time></trkpt><trkpt lat="43.4868432" lon="12.1239595"><ele>301.0</ele><time>2026-04-24T08:07:24.989Z</time></trkpt><trkpt lat="43.4867709" lon="12.1242518"><ele>302.0</ele><time>2026-04-24T08:07:25.989Z</time></trkpt><trkpt lat="43.4867022" lon="12.1245367"><ele>303.0</ele><time>2026-04-24T08:07:26.989Z</time></trkpt><trkpt lat="43.4866348" lon="12.1248109"><ele>304.0</ele><time>2026-04-24T08:07:27.99Z</time></trkpt><trkpt lat="43.4865661" lon="12.125074"><ele>305.0</ele><time>2026-04-24T08:07:28.989Z</time></trkpt><trkpt lat="43.4864994" lon="12.1253264"><ele>306.0</ele><time>2026-04-24T08:07:29.989Z</time></trkpt><trkpt lat="43.4864358" lon="12.125573"><ele>305.6666666666667</ele><time>2026-04-24T08:07:30.989Z</time></trkpt><trkpt lat="43.4863737" lon="12.1258163"><ele>305.33333333333337</ele><time>2026-04-24T08:07:31.989Z</time></trkpt><trkpt lat="43.4863123" lon="12.1260545"><ele>305.0</ele><time>2026-04-24T08:07:32.989Z</time></trkpt><trkpt lat="43.4862592" lon="12.1262946"><ele>305.0</ele><time>2026-04-24T08:07:33.989Z</time></trkpt><trkpt lat="43.486221" lon="12.1265418"><ele>305.0</ele><time>2026-04-24T08:07:34.989Z</time></trkpt><trkpt lat="43.4861951" lon="12.1267958"><ele>305.0</ele><time>2026-04-24T08:07:35.99Z</time></trkpt><trkpt lat="43.4861763" lon="12.1270472"><ele>305.0</ele><time>2026-04-24T08:07:36.989Z</time></trkpt><trkpt lat="43.4861563" lon="12.1272965"><ele>305.0</ele><time>2026-04-24T08:07:37.99Z</time></trkpt><trkpt lat="43.4861329" lon="12.1275455"><ele>305.0</ele><time>2026-04-24T08:07:38.989Z</time></trkpt><trkpt lat="43.48611" lon="12.127787"><ele>304.6666666666667</ele><time>2026-04-24T08:07:39.989Z</time></trkpt><trkpt lat="43.4860912" lon="12.1280201"><ele>304.3333333333333</ele><time>2026-04-24T08:07:40.99Z</time></trkpt><trkpt lat="43.4860802" lon="12.1282446"><ele>304.0</ele><time>2026-04-24T08:07:41.989Z</time></trkpt><trkpt lat="43.4860917" lon="12.1284587"><ele>303.66666666666663</ele><time>2026-04-24T08:07:42.989Z</time></trkpt><trkpt lat="43.4861536" lon="12.1286812"><ele>303.3333333333333</ele><time>2026-04-24T08:07:43.99Z</time></trkpt><trkpt lat="43.4862512" lon="12.1289095"><ele>303.0</ele><time>2026-04-24T08:07:44.989Z</time></trkpt><trkpt lat="43.4863604" lon="12.1291588"><ele>304.5</ele><time>2026-04-24T08:07:45.989Z</time></trkpt><trkpt lat="43.4864824" lon="12.1294278"><ele>306.0</ele><time>2026-04-24T08:07:46.989Z</time></trkpt><trkpt lat="43.4866094" lon="12.1297174"><ele>305.0</ele><time>2026-04-24T08:07:47.989Z</time></trkpt><trkpt lat="43.4867325" lon="12.1300219"><ele>304.0</ele><time>2026-04-24T08:07:48.989Z</time></trkpt><trkpt lat="43.4868217" lon="12.1303414"><ele>304.0</ele><time>2026-04-24T08:07:49.99Z</time></trkpt><trkpt lat="43.4868715" lon="12.1306785"><ele>304.0</ele><time>2026-04-24T08:07:50.989Z</time></trkpt><trkpt lat="43.4869034" lon="12.1310206"><ele>303.0</ele><time>2026-04-24T08:07:51.989Z</time></trkpt><trkpt lat="43.4869349" lon="12.1313703"><ele>302.0</ele><time>2026-04-24T08:07:52.989Z</time></trkpt><trkpt lat="43.4869652" lon="12.1317207"><ele>302.0</ele><time>2026-04-24T08:07:53.991Z</time></trkpt><trkpt lat="43.4869956" lon="12.1320722"><ele>302.0</ele><time>2026-04-24T08:07:54.989Z</time></trkpt><trkpt lat="43.4870241" lon="12.1324257"><ele>301.0</ele><time>2026-04-24T08:07:55.989Z</time></trkpt><trkpt lat="43.4870517" lon="12.1327807"><ele>300.0</ele><time>2026-04-24T08:07:56.99Z</time></trkpt><trkpt lat="43.4870797" lon="12.1331369"><ele>307.0</ele><time>2026-04-24T08:07:57.989Z</time></trkpt><trkpt lat="43.4871079" lon="12.1334933"><ele>314.0</ele><time>2026-04-24T08:07:58.989Z</time></trkpt><trkpt lat="43.4871379" lon="12.1338497"><ele>311.5</ele><time>2026-04-24T08:07:59.989Z</time></trkpt><trkpt lat="43.4871734" lon="12.1342074"><ele>309.0</ele><time>2026-04-24T08:08:00.989Z</time></trkpt><trkpt lat="43.4872176" lon="12.1345686"><ele>307.5</ele><time>2026-04-24T08:08:01.99Z</time></trkpt><trkpt lat="43.4872752" lon="12.1349293"><ele>306.0</ele><time>2026-04-24T08:08:02.99Z</time></trkpt><trkpt lat="43.4873513" lon="12.1352825"><ele>306.0</ele><time>2026-04-24T08:08:03.99Z</time></trkpt><trkpt lat="43.4874453" lon="12.1356242"><ele>306.0</ele><time>2026-04-24T08:08:04.989Z</time></trkpt><trkpt lat="43.4875427" lon="12.1359545"><ele>303.5</ele><time>2026-04-24T08:08:05.989Z</time></trkpt><trkpt lat="43.4876352" lon="12.1362676"><ele>301.0</ele><time>2026-04-24T08:08:06.989Z</time></trkpt><trkpt lat="43.4877313" lon="12.1365687"><ele>299.5</ele><time>2026-04-24T08:08:07.989Z</time></trkpt><trkpt lat="43.4878441" lon="12.1368617"><ele>298.0</ele><time>2026-04-24T08:08:08.989Z</time></trkpt><trkpt lat="43.4879768" lon="12.1371413"><ele>298.5</ele><time>2026-04-24T08:08:09.989Z</time></trkpt><trkpt lat="43.4881226" lon="12.1374096"><ele>299.0</ele><time>2026-04-24T08:08:10.989Z</time></trkpt><trkpt lat="43.4882655" lon="12.1376614"><ele>299.0</ele><time>2026-04-24T08:08:11.989Z</time></trkpt><trkpt lat="43.4884071" lon="12.1378956"><ele>299.0</ele><time>2026-04-24T08:08:12.989Z</time></trkpt><trkpt lat="43.4885683" lon="12.1380999"><ele>299.0</ele><time>2026-04-24T08:08:13.989Z</time></trkpt><trkpt lat="43.488752" lon="12.1382783"><ele>298.5</ele><time>2026-04-24T08:08:14.989Z</time></trkpt><trkpt lat="43.4889423" lon="12.1384465"><ele>298.0</ele><time>2026-04-24T08:08:15.989Z</time></trkpt><trkpt lat="43.4891355" lon="12.1386121"><ele>298.0</ele><time>2026-04-24T08:08:16.99Z</time></trkpt><trkpt lat="43.4893306" lon="12.1387794"><ele>298.0</ele><time>2026-04-24T08:08:17.989Z</time></trkpt><trkpt lat="43.4895254" lon="12.1389474"><ele>298.5</ele><time>2026-04-24T08:08:18.989Z</time></trkpt><trkpt lat="43.4897193" lon="12.1391168"><ele>299.0</ele><time>2026-04-24T08:08:19.99Z</time></trkpt><trkpt lat="43.4899081" lon="12.1392936"><ele>299.0</ele><time>2026-04-24T08:08:20.989Z</time></trkpt><trkpt lat="43.490088" lon="12.1394863"><ele>299.0</ele><time>2026-04-24T08:08:21.989Z</time></trkpt><trkpt lat="43.4902608" lon="12.139693"><ele>298.0</ele><time>2026-04-24T08:08:22.989Z</time></trkpt><trkpt lat="43.4904222" lon="12.1399167"><ele>297.0</ele><time>2026-04-24T08:08:23.99Z</time></trkpt><trkpt lat="43.4905768" lon="12.1401507"><ele>298.0</ele><time>2026-04-24T08:08:24.989Z</time></trkpt><trkpt lat="43.4907148" lon="12.1403843"><ele>299.0</ele><time>2026-04-24T08:08:25.989Z</time></trkpt><trkpt lat="43.4908249" lon="12.1406258"><ele>300.0</ele><time>2026-04-24T08:08:26.989Z</time></trkpt><trkpt lat="43.4908936" lon="12.1408846"><ele>300.0</ele><time>2026-04-24T08:08:27.99Z</time></trkpt><trkpt lat="43.4909148" lon="12.1411623"><ele>300.0</ele><time>2026-04-24T08:08:28.989Z</time></trkpt><trkpt lat="43.4908844" lon="12.141438"><ele>300.0</ele><time>2026-04-24T08:08:29.99Z</time></trkpt><trkpt lat="43.4908118" lon="12.1417146"><ele>298.0</ele><time>2026-04-24T08:08:30.989Z</time></trkpt><trkpt lat="43.4907197" lon="12.1419931"><ele>296.0</ele><time>2026-04-24T08:08:31.989Z</time></trkpt><trkpt lat="43.4906214" lon="12.1422804"><ele>296.5</ele><time>2026-04-24T08:08:32.989Z</time></trkpt><trkpt lat="43.4905202" lon="12.1425746"><ele>297.0</ele><time>2026-04-24T08:08:33.989Z</time></trkpt><trkpt lat="43.4904154" lon="12.1428734"><ele>295.0</ele><time>2026-04-24T08:08:34.989Z</time></trkpt><trkpt lat="43.4903082" lon="12.1431766"><ele>293.0</ele><time>2026-04-24T08:08:35.989Z</time></trkpt><trkpt lat="43.4901996" lon="12.1434844"><ele>293.0</ele><time>2026-04-24T08:08:36.989Z</time></trkpt><trkpt lat="43.4900892" lon="12.1437967"><ele>293.0</ele><time>2026-04-24T08:08:37.989Z</time></trkpt><trkpt lat="43.4899764" lon="12.1441131"><ele>294.5</ele><time>2026-04-24T08:08:38.989Z</time></trkpt><trkpt lat="43.4898599" lon="12.1444309"><ele>296.0</ele><time>2026-04-24T08:08:39.989Z</time></trkpt><trkpt lat="43.4897394" lon="12.144748"><ele>296.0</ele><time>2026-04-24T08:08:40.989Z</time></trkpt><trkpt lat="43.4896074" lon="12.1450498"><ele>296.0</ele><time>2026-04-24T08:08:41.989Z</time></trkpt><trkpt lat="43.489475" lon="12.1453222"><ele>296.0</ele><time>2026-04-24T08:08:42.989Z</time></trkpt><trkpt lat="43.4893428" lon="12.1455724"><ele>296.0</ele><time>2026-04-24T08:08:43.989Z</time></trkpt><trkpt lat="43.4892173" lon="12.1458093"><ele>296.0</ele><time>2026-04-24T08:08:44.989Z</time></trkpt><trkpt lat="43.4891142" lon="12.1460315"><ele>297.33333333333337</ele><time>2026-04-24T08:08:45.989Z</time></trkpt><trkpt lat="43.4890487" lon="12.1462368"><ele>298.6666666666667</ele><time>2026-04-24T08:08:46.99Z</time></trkpt><trkpt lat="43.4890258" lon="12.1464542"><ele>300.0</ele><time>2026-04-24T08:08:47.989Z</time></trkpt><trkpt lat="43.4890569" lon="12.1466735"><ele>299.6666666666667</ele><time>2026-04-24T08:08:48.989Z</time></trkpt><trkpt lat="43.4891332" lon="12.1468965"><ele>299.33333333333337</ele><time>2026-04-24T08:08:49.989Z</time></trkpt><trkpt lat="43.4892332" lon="12.1471301"><ele>299.0</ele><time>2026-04-24T08:08:50.989Z</time></trkpt><trkpt lat="43.4893427" lon="12.1473817"><ele>299.0</ele><time>2026-04-24T08:08:51.989Z</time></trkpt><trkpt lat="43.4894588" lon="12.147641"><ele>299.0</ele><time>2026-04-24T08:08:52.989Z</time></trkpt><trkpt lat="43.4895695" lon="12.1479129"><ele>299.0</ele><time>2026-04-24T08:08:53.989Z</time></trkpt><trkpt lat="43.4896686" lon="12.1482009"><ele>307.5</ele><time>2026-04-24T08:08:54.99Z</time></trkpt><trkpt lat="43.4897546" lon="12.1485027"><ele>316.0</ele><time>2026-04-24T08:08:55.989Z</time></trkpt><trkpt lat="43.4898219" lon="12.1488184"><ele>312.5</ele><time>2026-04-24T08:08:56.99Z</time></trkpt><trkpt lat="43.4898726" lon="12.1491413"><ele>309.0</ele><time>2026-04-24T08:08:57.989Z</time></trkpt><trkpt lat="43.4899102" lon="12.1494678"><ele>309.0</ele><time>2026-04-24T08:08:58.99Z</time></trkpt><trkpt lat="43.4899462" lon="12.1497908"><ele>309.0</ele><time>2026-04-24T08:08:59.989Z</time></trkpt><trkpt lat="43.4899844" lon="12.1501097"><ele>306.0</ele><time>2026-04-24T08:09:00.989Z</time></trkpt><trkpt lat="43.4900288" lon="12.1504154"><ele>303.0</ele><time>2026-04-24T08:09:01.989Z</time></trkpt><trkpt lat="43.4900816" lon="12.1507076"><ele>300.0</ele><time>2026-04-24T08:09:02.989Z</time></trkpt><trkpt lat="43.4901377" lon="12.1509856"><ele>298.6666666666667</ele><time>2026-04-24T08:09:03.989Z</time></trkpt><trkpt lat="43.4902008" lon="12.1512506"><ele>297.33333333333337</ele><time>2026-04-24T08:09:04.989Z</time></trkpt><trkpt lat="43.4902703" lon="12.151491"><ele>296.0</ele><time>2026-04-24T08:09:05.99Z</time></trkpt><trkpt lat="43.4903408" lon="12.151714"><ele>296.0</ele><time>2026-04-24T08:09:06.99Z</time></trkpt><trkpt lat="43.490404" lon="12.1519165"><ele>296.0</ele><time>2026-04-24T08:09:07.989Z</time></trkpt><trkpt lat="43.4904658" lon="12.1521062"><ele>296.0</ele><time>2026-04-24T08:09:08.99Z</time></trkpt><trkpt lat="43.4905273" lon="12.1522801"><ele>297.75</ele><time>2026-04-24T08:09:09.989Z</time></trkpt><trkpt lat="43.4906223" lon="12.1525763"><ele>299.5</ele><time>2026-04-24T08:09:11.99Z</time></trkpt><trkpt lat="43.4906651" lon="12.1527106"><ele>301.25</ele><time>2026-04-24T08:09:12.991Z</time></trkpt><trkpt lat="43.4907044" lon="12.1528343"><ele>303.0</ele><time>2026-04-24T08:09:13.99Z</time></trkpt><trkpt lat="43.4907417" lon="12.1529448"><ele>303.0</ele><time>2026-04-24T08:09:14.99Z</time></trkpt><trkpt lat="43.4907833" lon="12.1530593"><ele>303.0</ele><time>2026-04-24T08:09:15.99Z</time></trkpt><trkpt lat="43.4908276" lon="12.1532034"><ele>303.0</ele><time>2026-04-24T08:09:16.99Z</time></trkpt><trkpt lat="43.4908728" lon="12.1533815"><ele>303.0</ele><time>2026-04-24T08:09:17.99Z</time></trkpt><trkpt lat="43.4909294" lon="12.1535777"><ele>302.6666666666667</ele><time>2026-04-24T08:09:18.99Z</time></trkpt><trkpt lat="43.4909935" lon="12.1537994"><ele>302.33333333333337</ele><time>2026-04-24T08:09:19.99Z</time></trkpt><trkpt lat="43.4910647" lon="12.1540313"><ele>302.0</ele><time>2026-04-24T08:09:20.99Z</time></trkpt><trkpt lat="43.4911313" lon="12.1542502"><ele>301.6666666666667</ele><time>2026-04-24T08:09:21.99Z</time></trkpt><trkpt lat="43.4911895" lon="12.1544606"><ele>301.3333333333333</ele><time>2026-04-24T08:09:22.99Z</time></trkpt><trkpt lat="43.4912385" lon="12.1546685"><ele>301.0</ele><time>2026-04-24T08:09:23.991Z</time></trkpt><trkpt lat="43.4912794" lon="12.1548822"><ele>302.0</ele><time>2026-04-24T08:09:24.99Z</time></trkpt><trkpt lat="43.4913149" lon="12.1551131"><ele>303.0</ele><time>2026-04-24T08:09:25.99Z</time></trkpt><trkpt lat="43.4913452" lon="12.1553702"><ele>304.0</ele><time>2026-04-24T08:09:26.99Z</time></trkpt><trkpt lat="43.4913703" lon="12.155641"><ele>301.66666666666663</ele><time>2026-04-24T08:09:27.99Z</time></trkpt><trkpt lat="43.4913923" lon="12.1559063"><ele>299.3333333333333</ele><time>2026-04-24T08:09:28.99Z</time></trkpt><trkpt lat="43.4914141" lon="12.1561593"><ele>297.0</ele><time>2026-04-24T08:09:29.99Z</time></trkpt><trkpt lat="43.4914378" lon="12.1564015"><ele>296.6666666666667</ele><time>2026-04-24T08:09:30.99Z</time></trkpt><trkpt lat="43.4914641" lon="12.1566332"><ele>296.33333333333337</ele><time>2026-04-24T08:09:31.99Z</time></trkpt><trkpt lat="43.4915061" lon="12.1568624"><ele>296.0</ele><time>2026-04-24T08:09:32.99Z</time></trkpt><trkpt lat="43.4915583" lon="12.1571088"><ele>295.6666666666667</ele><time>2026-04-24T08:09:33.99Z</time></trkpt><trkpt lat="43.4916152" lon="12.1573782"><ele>295.3333333333333</ele><time>2026-04-24T08:09:34.99Z</time></trkpt><trkpt lat="43.491675" lon="12.1576573"><ele>295.0</ele><time>2026-04-24T08:09:35.99Z</time></trkpt><trkpt lat="43.4917376" lon="12.1579535"><ele>294.0</ele><time>2026-04-24T08:09:36.99Z</time></trkpt><trkpt lat="43.4918033" lon="12.1582571"><ele>293.0</ele><time>2026-04-24T08:09:37.99Z</time></trkpt><trkpt lat="43.4918756" lon="12.1585608"><ele>293.0</ele><time>2026-04-24T08:09:38.99Z</time></trkpt><trkpt lat="43.4919479" lon="12.1588673"><ele>293.0</ele><time>2026-04-24T08:09:39.99Z</time></trkpt><trkpt lat="43.4920206" lon="12.159177"><ele>292.5</ele><time>2026-04-24T08:09:40.99Z</time></trkpt><trkpt lat="43.4920953" lon="12.1594898"><ele>292.0</ele><time>2026-04-24T08:09:41.99Z</time></trkpt><trkpt lat="43.4921722" lon="12.1598067"><ele>292.0</ele><time>2026-04-24T08:09:42.99Z</time></trkpt><trkpt lat="43.4922517" lon="12.1601259"><ele>292.0</ele><time>2026-04-24T08:09:43.99Z</time></trkpt><trkpt lat="43.492332" lon="12.1604407"><ele>293.3333333333333</ele><time>2026-04-24T08:09:44.99Z</time></trkpt><trkpt lat="43.4924074" lon="12.160738"><ele>294.6666666666667</ele><time>2026-04-24T08:09:45.991Z</time></trkpt><trkpt lat="43.4924716" lon="12.16102"><ele>296.0</ele><time>2026-04-24T08:09:46.991Z</time></trkpt><trkpt lat="43.49251" lon="12.1612982"><ele>296.6666666666667</ele><time>2026-04-24T08:09:47.991Z</time></trkpt><trkpt lat="43.4925155" lon="12.1615761"><ele>297.3333333333333</ele><time>2026-04-24T08:09:48.99Z</time></trkpt><trkpt lat="43.4924883" lon="12.1618584"><ele>298.0</ele><time>2026-04-24T08:09:49.99Z</time></trkpt><trkpt lat="43.4924281" lon="12.1621415"><ele>297.5</ele><time>2026-04-24T08:09:50.991Z</time></trkpt><trkpt lat="43.4923502" lon="12.1624321"><ele>297.0</ele><time>2026-04-24T08:09:51.991Z</time></trkpt><trkpt lat="43.4922613" lon="12.162728"><ele>297.0</ele><time>2026-04-24T08:09:52.99Z</time></trkpt><trkpt lat="43.4921651" lon="12.1630271"><ele>297.0</ele><time>2026-04-24T08:09:53.99Z</time></trkpt><trkpt lat="43.492064" lon="12.1633272"><ele>303.5</ele><time>2026-04-24T08:09:54.99Z</time></trkpt><trkpt lat="43.4919598" lon="12.1636258"><ele>310.0</ele><time>2026-04-24T08:09:55.99Z</time></trkpt><trkpt lat="43.4918546" lon="12.1639195"><ele>307.0</ele><time>2026-04-24T08:09:56.99Z</time></trkpt><trkpt lat="43.4917383" lon="12.1642038"><ele>304.0</ele><time>2026-04-24T08:09:57.99Z</time></trkpt><trkpt lat="43.4916097" lon="12.1644749"><ele>304.0</ele><time>2026-04-24T08:09:58.991Z</time></trkpt><trkpt lat="43.4914731" lon="12.1647361"><ele>304.0</ele><time>2026-04-24T08:09:59.991Z</time></trkpt><trkpt lat="43.4913472" lon="12.1650036"><ele>306.0</ele><time>2026-04-24T08:10:00.99Z</time></trkpt><trkpt lat="43.4912489" lon="12.1652857"><ele>308.0</ele><time>2026-04-24T08:10:01.991Z</time></trkpt><trkpt lat="43.4911807" lon="12.1655617"><ele>310.0</ele><time>2026-04-24T08:10:02.99Z</time></trkpt><trkpt lat="43.491159" lon="12.1658421"><ele>310.0</ele><time>2026-04-24T08:10:03.99Z</time></trkpt><trkpt lat="43.49118" lon="12.1661364"><ele>310.0</ele><time>2026-04-24T08:10:04.991Z</time></trkpt><trkpt lat="43.491187" lon="12.1664415"><ele>310.0</ele><time>2026-04-24T08:10:05.991Z</time></trkpt><trkpt lat="43.4911632" lon="12.1667521"><ele>309.0</ele><time>2026-04-24T08:10:06.99Z</time></trkpt><trkpt lat="43.4911221" lon="12.1670652"><ele>308.0</ele><time>2026-04-24T08:10:07.99Z</time></trkpt><trkpt lat="43.4910622" lon="12.1673819"><ele>305.0</ele><time>2026-04-24T08:10:08.99Z</time></trkpt><trkpt lat="43.4910002" lon="12.1677091"><ele>302.0</ele><time>2026-04-24T08:10:09.99Z</time></trkpt><trkpt lat="43.4909358" lon="12.1680452"><ele>300.5</ele><time>2026-04-24T08:10:10.99Z</time></trkpt><trkpt lat="43.4908715" lon="12.1683854"><ele>299.0</ele><time>2026-04-24T08:10:11.99Z</time></trkpt><trkpt lat="43.490809" lon="12.168726"><ele>297.5</ele><time>2026-04-24T08:10:12.99Z</time></trkpt><trkpt lat="43.4907477" lon="12.1690643"><ele>296.0</ele><time>2026-04-24T08:10:13.99Z</time></trkpt><trkpt lat="43.4906885" lon="12.1693922"><ele>296.0</ele><time>2026-04-24T08:10:14.99Z</time></trkpt><trkpt lat="43.4906327" lon="12.169703"><ele>296.0</ele><time>2026-04-24T08:10:15.99Z</time></trkpt><trkpt lat="43.4905732" lon="12.1699914"><ele>296.33333333333337</ele><time>2026-04-24T08:10:16.991Z</time></trkpt><trkpt lat="43.4905011" lon="12.1702575"><ele>296.6666666666667</ele><time>2026-04-24T08:10:17.99Z</time></trkpt><trkpt lat="43.490422" lon="12.1705026"><ele>297.0</ele><time>2026-04-24T08:10:18.99Z</time></trkpt><trkpt lat="43.4903341" lon="12.1707322"><ele>297.0</ele><time>2026-04-24T08:10:19.991Z</time></trkpt><trkpt lat="43.4902425" lon="12.1709531"><ele>297.0</ele><time>2026-04-24T08:10:20.99Z</time></trkpt><trkpt lat="43.4901461" lon="12.1711839"><ele>297.0</ele><time>2026-04-24T08:10:21.99Z</time></trkpt><trkpt lat="43.4900389" lon="12.1714143"><ele>294.6666666666667</ele><time>2026-04-24T08:10:22.991Z</time></trkpt><trkpt lat="43.4899228" lon="12.1716364"><ele>292.33333333333337</ele><time>2026-04-24T08:10:23.99Z</time></trkpt><trkpt lat="43.4897907" lon="12.1718632"><ele>290.0</ele><time>2026-04-24T08:10:24.99Z</time></trkpt><trkpt lat="43.4896448" lon="12.1720896"><ele>291.0</ele><time>2026-04-24T08:10:25.99Z</time></trkpt><trkpt lat="43.4894925" lon="12.1723202"><ele>292.0</ele><time>2026-04-24T08:10:26.99Z</time></trkpt><trkpt lat="43.4893377" lon="12.1725545"><ele>292.0</ele><time>2026-04-24T08:10:27.99Z</time></trkpt><trkpt lat="43.489181" lon="12.1727961"><ele>292.0</ele><time>2026-04-24T08:10:28.99Z</time></trkpt><trkpt lat="43.4890231" lon="12.1730367"><ele>290.0</ele><time>2026-04-24T08:10:29.99Z</time></trkpt><trkpt lat="43.4888637" lon="12.1732795"><ele>288.0</ele><time>2026-04-24T08:10:30.99Z</time></trkpt><trkpt lat="43.4887076" lon="12.1735254"><ele>293.0</ele><time>2026-04-24T08:10:31.991Z</time></trkpt><trkpt lat="43.4885521" lon="12.173769"><ele>298.0</ele><time>2026-04-24T08:10:32.991Z</time></trkpt><trkpt lat="43.4883958" lon="12.1740145"><ele>295.5</ele><time>2026-04-24T08:10:33.99Z</time></trkpt><trkpt lat="43.4882353" lon="12.1742557"><ele>293.0</ele><time>2026-04-24T08:10:34.99Z</time></trkpt><trkpt lat="43.4880674" lon="12.1744902"><ele>294.0</ele><time>2026-04-24T08:10:35.99Z</time></trkpt><trkpt lat="43.4878935" lon="12.1747198"><ele>295.0</ele><time>2026-04-24T08:10:36.99Z</time></trkpt><trkpt lat="43.4877181" lon="12.174943"><ele>295.0</ele><time>2026-04-24T08:10:37.99Z</time></trkpt><trkpt lat="43.4875476" lon="12.1751609"><ele>295.0</ele><time>2026-04-24T08:10:38.99Z</time></trkpt><trkpt lat="43.4873818" lon="12.1753775"><ele>295.0</ele><time>2026-04-24T08:10:39.991Z</time></trkpt><trkpt lat="43.4872146" lon="12.1755954"><ele>295.0</ele><time>2026-04-24T08:10:40.989Z</time></trkpt><trkpt lat="43.4870455" lon="12.1758156"><ele>295.0</ele><time>2026-04-24T08:10:41.989Z</time></trkpt><trkpt lat="43.4868756" lon="12.1760395"><ele>295.0</ele><time>2026-04-24T08:10:42.989Z</time></trkpt><trkpt lat="43.4867049" lon="12.1762658"><ele>295.0</ele><time>2026-04-24T08:10:43.989Z</time></trkpt><trkpt lat="43.4865323" lon="12.1764926"><ele>295.0</ele><time>2026-04-24T08:10:44.989Z</time></trkpt><trkpt lat="43.4863591" lon="12.1767194"><ele>296.5</ele><time>2026-04-24T08:10:45.99Z</time></trkpt><trkpt lat="43.4861855" lon="12.1769456"><ele>298.0</ele><time>2026-04-24T08:10:46.989Z</time></trkpt><trkpt lat="43.4860132" lon="12.17717"><ele>295.5</ele><time>2026-04-24T08:10:47.99Z</time></trkpt><trkpt lat="43.4858449" lon="12.1773886"><ele>293.0</ele><time>2026-04-24T08:10:48.991Z</time></trkpt><trkpt lat="43.4856797" lon="12.1775962"><ele>293.0</ele><time>2026-04-24T08:10:49.989Z</time></trkpt><trkpt lat="43.4855149" lon="12.1777909"><ele>293.0</ele><time>2026-04-24T08:10:50.989Z</time></trkpt><trkpt lat="43.4853482" lon="12.1779739"><ele>293.0</ele><time>2026-04-24T08:10:51.989Z</time></trkpt><trkpt lat="43.4851793" lon="12.1781488"><ele>293.0</ele><time>2026-04-24T08:10:52.989Z</time></trkpt><trkpt lat="43.4850068" lon="12.1783189"><ele>293.0</ele><time>2026-04-24T08:10:53.989Z</time></trkpt><trkpt lat="43.4848318" lon="12.17849"><ele>293.0</ele><time>2026-04-24T08:10:54.989Z</time></trkpt><trkpt lat="43.4846519" lon="12.178658"><ele>292.6666666666667</ele><time>2026-04-24T08:10:55.989Z</time></trkpt><trkpt lat="43.4844652" lon="12.1788231"><ele>292.3333333333333</ele><time>2026-04-24T08:10:56.989Z</time></trkpt><trkpt lat="43.4842739" lon="12.1789858"><ele>292.0</ele><time>2026-04-24T08:10:57.989Z</time></trkpt><trkpt lat="43.4840802" lon="12.1791479"><ele>292.0</ele><time>2026-04-24T08:10:58.989Z</time></trkpt><trkpt lat="43.4838861" lon="12.179315"><ele>292.0</ele><time>2026-04-24T08:10:59.99Z</time></trkpt><trkpt lat="43.4836998" lon="12.1794967"><ele>292.3333333333333</ele><time>2026-04-24T08:11:00.989Z</time></trkpt><trkpt lat="43.4835268" lon="12.1796965"><ele>292.6666666666667</ele><time>2026-04-24T08:11:01.989Z</time></trkpt><trkpt lat="43.4833734" lon="12.1799063"><ele>293.0</ele><time>2026-04-24T08:11:02.99Z</time></trkpt><trkpt lat="43.4832301" lon="12.1801108"><ele>293.0</ele><time>2026-04-24T08:11:03.99Z</time></trkpt><trkpt lat="43.4830964" lon="12.1803035"><ele>293.0</ele><time>2026-04-24T08:11:04.989Z</time></trkpt><trkpt lat="43.4829792" lon="12.1805084"><ele>293.0</ele><time>2026-04-24T08:11:05.989Z</time></trkpt><trkpt lat="43.4828835" lon="12.1807456"><ele>293.33333333333337</ele><time>2026-04-24T08:11:06.989Z</time></trkpt><trkpt lat="43.4828065" lon="12.181002"><ele>293.6666666666667</ele><time>2026-04-24T08:11:07.99Z</time></trkpt><trkpt lat="43.4827425" lon="12.1812776"><ele>294.0</ele><time>2026-04-24T08:11:08.99Z</time></trkpt><trkpt lat="43.482683" lon="12.181568"><ele>292.6666666666667</ele><time>2026-04-24T08:11:09.989Z</time></trkpt><trkpt lat="43.4826248" lon="12.1818608"><ele>291.33333333333337</ele><time>2026-04-24T08:11:10.989Z</time></trkpt><trkpt lat="43.4825667" lon="12.1821582"><ele>290.0</ele><time>2026-04-24T08:11:11.99Z</time></trkpt><trkpt lat="43.4825077" lon="12.1824592"><ele>289.0</ele><time>2026-04-24T08:11:12.989Z</time></trkpt><trkpt lat="43.4824487" lon="12.1827625"><ele>288.0</ele><time>2026-04-24T08:11:13.99Z</time></trkpt><trkpt lat="43.4823938" lon="12.1830649"><ele>287.0</ele><time>2026-04-24T08:11:14.99Z</time></trkpt><trkpt lat="43.4823358" lon="12.1833663"><ele>286.0</ele><time>2026-04-24T08:11:15.989Z</time></trkpt><trkpt lat="43.4822761" lon="12.1836673"><ele>286.0</ele><time>2026-04-24T08:11:16.989Z</time></trkpt><trkpt lat="43.4822184" lon="12.1839722"><ele>286.0</ele><time>2026-04-24T08:11:17.989Z</time></trkpt><trkpt lat="43.4821604" lon="12.1842765"><ele>286.5</ele><time>2026-04-24T08:11:18.989Z</time></trkpt><trkpt lat="43.4821018" lon="12.1845816"><ele>287.0</ele><time>2026-04-24T08:11:19.99Z</time></trkpt><trkpt lat="43.4820435" lon="12.1848851"><ele>287.0</ele><time>2026-04-24T08:11:20.989Z</time></trkpt><trkpt lat="43.4819842" lon="12.1851859"><ele>287.0</ele><time>2026-04-24T08:11:21.99Z</time></trkpt><trkpt lat="43.4819216" lon="12.1854848"><ele>287.5</ele><time>2026-04-24T08:11:22.99Z</time></trkpt><trkpt lat="43.4818466" lon="12.1857781"><ele>288.0</ele><time>2026-04-24T08:11:23.989Z</time></trkpt><trkpt lat="43.4817441" lon="12.1860561"><ele>288.0</ele><time>2026-04-24T08:11:24.99Z</time></trkpt><trkpt lat="43.4816291" lon="12.1863236"><ele>288.0</ele><time>2026-04-24T08:11:25.989Z</time></trkpt><trkpt lat="43.4815047" lon="12.1865936"><ele>287.5</ele><time>2026-04-24T08:11:26.989Z</time></trkpt><trkpt lat="43.481381" lon="12.1868707"><ele>287.0</ele><time>2026-04-24T08:11:27.989Z</time></trkpt><trkpt lat="43.481252" lon="12.1871501"><ele>286.0</ele><time>2026-04-24T08:11:28.99Z</time></trkpt><trkpt lat="43.4811239" lon="12.1874301"><ele>285.0</ele><time>2026-04-24T08:11:29.989Z</time></trkpt><trkpt lat="43.4809968" lon="12.1877081"><ele>285.0</ele><time>2026-04-24T08:11:30.99Z</time></trkpt><trkpt lat="43.4808778" lon="12.1879793"><ele>285.0</ele><time>2026-04-24T08:11:31.99Z</time></trkpt><trkpt lat="43.4807594" lon="12.1882402"><ele>285.0</ele><time>2026-04-24T08:11:32.989Z</time></trkpt><trkpt lat="43.4806429" lon="12.1884979"><ele>285.0</ele><time>2026-04-24T08:11:33.989Z</time></trkpt><trkpt lat="43.4805298" lon="12.1887505"><ele>285.0</ele><time>2026-04-24T08:11:34.99Z</time></trkpt><trkpt lat="43.4804173" lon="12.1890011"><ele>287.0</ele><time>2026-04-24T08:11:35.989Z</time></trkpt><trkpt lat="43.4803048" lon="12.1892471"><ele>289.0</ele><time>2026-04-24T08:11:36.989Z</time></trkpt><trkpt lat="43.4801926" lon="12.1894922"><ele>291.0</ele><time>2026-04-24T08:11:37.989Z</time></trkpt><trkpt lat="43.4800809" lon="12.1897362"><ele>289.6666666666667</ele><time>2026-04-24T08:11:38.989Z</time></trkpt><trkpt lat="43.4799701" lon="12.1899816"><ele>288.33333333333337</ele><time>2026-04-24T08:11:39.99Z</time></trkpt><trkpt lat="43.4798632" lon="12.1902295"><ele>287.0</ele><time>2026-04-24T08:11:40.99Z</time></trkpt><trkpt lat="43.4797571" lon="12.1904777"><ele>286.6666666666667</ele><time>2026-04-24T08:11:41.99Z</time></trkpt><trkpt lat="43.4796497" lon="12.1907231"><ele>286.3333333333333</ele><time>2026-04-24T08:11:42.989Z</time></trkpt><trkpt lat="43.4795426" lon="12.1909673"><ele>286.0</ele><time>2026-04-24T08:11:43.99Z</time></trkpt><trkpt lat="43.479437" lon="12.1912094"><ele>287.66666666666663</ele><time>2026-04-24T08:11:44.989Z</time></trkpt><trkpt lat="43.4793329" lon="12.1914504"><ele>289.3333333333333</ele><time>2026-04-24T08:11:45.989Z</time></trkpt><trkpt lat="43.4792284" lon="12.1916872"><ele>291.0</ele><time>2026-04-24T08:11:46.989Z</time></trkpt><trkpt lat="43.4791256" lon="12.1919204"><ele>291.0</ele><time>2026-04-24T08:11:47.989Z</time></trkpt><trkpt lat="43.4790245" lon="12.1921508"><ele>291.0</ele><time>2026-04-24T08:11:48.989Z</time></trkpt><trkpt lat="43.4789265" lon="12.1923793"><ele>291.0</ele><time>2026-04-24T08:11:49.989Z</time></trkpt><trkpt lat="43.478825" lon="12.1926047"><ele>292.6666666666667</ele><time>2026-04-24T08:11:50.989Z</time></trkpt><trkpt lat="43.4787258" lon="12.192834"><ele>294.33333333333337</ele><time>2026-04-24T08:11:51.99Z</time></trkpt><trkpt lat="43.4786282" lon="12.1930616"><ele>296.0</ele><time>2026-04-24T08:11:52.989Z</time></trkpt><trkpt lat="43.47853" lon="12.1932875"><ele>296.0</ele><time>2026-04-24T08:11:53.989Z</time></trkpt><trkpt lat="43.47843" lon="12.1935098"><ele>296.0</ele><time>2026-04-24T08:11:54.989Z</time></trkpt><trkpt lat="43.4783303" lon="12.193731"><ele>296.0</ele><time>2026-04-24T08:11:55.989Z</time></trkpt><trkpt lat="43.4782299" lon="12.1939488"><ele>295.0</ele><time>2026-04-24T08:11:56.99Z</time></trkpt><trkpt lat="43.47813" lon="12.1941667"><ele>294.0</ele><time>2026-04-24T08:11:57.989Z</time></trkpt><trkpt lat="43.4780308" lon="12.1943868"><ele>293.0</ele><time>2026-04-24T08:11:58.989Z</time></trkpt><trkpt lat="43.4779313" lon="12.1946049"><ele>294.0</ele><time>2026-04-24T08:11:59.989Z</time></trkpt><trkpt lat="43.477833" lon="12.1948229"><ele>295.0</ele><time>2026-04-24T08:12:00.989Z</time></trkpt><trkpt lat="43.4777339" lon="12.1950445"><ele>296.0</ele><time>2026-04-24T08:12:01.989Z</time></trkpt><trkpt lat="43.4776331" lon="12.1952678"><ele>296.0</ele><time>2026-04-24T08:12:02.989Z</time></trkpt><trkpt lat="43.4775323" lon="12.19549"><ele>296.0</ele><time>2026-04-24T08:12:03.989Z</time></trkpt><trkpt lat="43.4774376" lon="12.1956961"><ele>296.0</ele><time>2026-04-24T08:12:04.99Z</time></trkpt><trkpt lat="43.4773475" lon="12.195896"><ele>296.33333333333337</ele><time>2026-04-24T08:12:05.989Z</time></trkpt><trkpt lat="43.4772618" lon="12.1960914"><ele>296.6666666666667</ele><time>2026-04-24T08:12:06.989Z</time></trkpt><trkpt lat="43.4771775" lon="12.1962793"><ele>297.0</ele><time>2026-04-24T08:12:07.989Z</time></trkpt><trkpt lat="43.4770935" lon="12.1964681"><ele>296.3333333333333</ele><time>2026-04-24T08:12:08.989Z</time></trkpt><trkpt lat="43.4770117" lon="12.1966546"><ele>295.66666666666663</ele><time>2026-04-24T08:12:09.989Z</time></trkpt><trkpt lat="43.4769312" lon="12.1968437"><ele>295.0</ele><time>2026-04-24T08:12:10.989Z</time></trkpt><trkpt lat="43.4768531" lon="12.1970281"><ele>295.0</ele><time>2026-04-24T08:12:11.989Z</time></trkpt><trkpt lat="43.4767765" lon="12.197207"><ele>295.0</ele><time>2026-04-24T08:12:12.989Z</time></trkpt><trkpt lat="43.4766996" lon="12.1973791"><ele>295.0</ele><time>2026-04-24T08:12:13.989Z</time></trkpt><trkpt lat="43.4766286" lon="12.1975394"><ele>295.0</ele><time>2026-04-24T08:12:14.989Z</time></trkpt><trkpt lat="43.4765615" lon="12.1976871"><ele>294.75</ele><time>2026-04-24T08:12:15.989Z</time></trkpt><trkpt lat="43.4764941" lon="12.1978262"><ele>294.5</ele><time>2026-04-24T08:12:16.989Z</time></trkpt><trkpt lat="43.4764253" lon="12.1979564"><ele>294.25</ele><time>2026-04-24T08:12:17.989Z</time></trkpt><trkpt lat="43.4763601" lon="12.1980879"><ele>294.0</ele><time>2026-04-24T08:12:18.989Z</time></trkpt><trkpt lat="43.4762968" lon="12.1982198"><ele>294.2</ele><time>2026-04-24T08:12:19.989Z</time></trkpt><trkpt lat="43.4762327" lon="12.1983543"><ele>294.4</ele><time>2026-04-24T08:12:20.989Z</time></trkpt><trkpt lat="43.4761706" lon="12.1984889"><ele>294.6</ele><time>2026-04-24T08:12:21.99Z</time></trkpt><trkpt lat="43.4761167" lon="12.1986176"><ele>294.8</ele><time>2026-04-24T08:12:22.989Z</time></trkpt><trkpt lat="43.4760586" lon="12.1987407"><ele>295.0</ele><time>2026-04-24T08:12:23.989Z</time></trkpt><trkpt lat="43.4760047" lon="12.1988591"><ele>295.0</ele><time>2026-04-24T08:12:24.989Z</time></trkpt><trkpt lat="43.4759513" lon="12.1989802"><ele>295.0</ele><time>2026-04-24T08:12:25.989Z</time></trkpt><trkpt lat="43.4758989" lon="12.1991078"><ele>295.0</ele><time>2026-04-24T08:12:26.989Z</time></trkpt><trkpt lat="43.4758451" lon="12.1992421"><ele>295.0</ele><time>2026-04-24T08:12:27.989Z</time></trkpt><trkpt lat="43.4757901" lon="12.1993818"><ele>295.0</ele><time>2026-04-24T08:12:28.989Z</time></trkpt><trkpt lat="43.4757291" lon="12.19952"><ele>295.0</ele><time>2026-04-24T08:12:29.99Z</time></trkpt><trkpt lat="43.4756722" lon="12.1996543"><ele>295.0</ele><time>2026-04-24T08:12:30.99Z</time></trkpt><trkpt lat="43.4756192" lon="12.1997739"><ele>295.0</ele><time>2026-04-24T08:12:31.989Z</time></trkpt><trkpt lat="43.4755666" lon="12.1998835"><ele>295.0</ele><time>2026-04-24T08:12:32.989Z</time></trkpt><trkpt lat="43.4755135" lon="12.1999848"><ele>295.0</ele><time>2026-04-24T08:12:33.989Z</time></trkpt><trkpt lat="43.4754619" lon="12.2000864"><ele>294.8</ele><time>2026-04-24T08:12:34.99Z</time></trkpt><trkpt lat="43.4754103" lon="12.2001902"><ele>294.6</ele><time>2026-04-24T08:12:35.989Z</time></trkpt><trkpt lat="43.4753561" lon="12.200294"><ele>294.4</ele><time>2026-04-24T08:12:36.989Z</time></trkpt><trkpt lat="43.4753047" lon="12.2004043"><ele>294.2</ele><time>2026-04-24T08:12:37.989Z</time></trkpt><trkpt lat="43.4752598" lon="12.2005107"><ele>294.0</ele><time>2026-04-24T08:12:38.989Z</time></trkpt><trkpt lat="43.4752096" lon="12.2006273"><ele>294.0</ele><time>2026-04-24T08:12:39.989Z</time></trkpt><trkpt lat="43.4751522" lon="12.2007529"><ele>294.0</ele><time>2026-04-24T08:12:40.99Z</time></trkpt><trkpt lat="43.4750888" lon="12.2008954"><ele>294.0</ele><time>2026-04-24T08:12:41.989Z</time></trkpt><trkpt lat="43.4750185" lon="12.2010471"><ele>294.0</ele><time>2026-04-24T08:12:42.99Z</time></trkpt><trkpt lat="43.4749423" lon="12.2012101"><ele>294.0</ele><time>2026-04-24T08:12:43.989Z</time></trkpt><trkpt lat="43.4748637" lon="12.2013815"><ele>294.0</ele><time>2026-04-24T08:12:44.99Z</time></trkpt><trkpt lat="43.4747831" lon="12.2015574"><ele>294.0</ele><time>2026-04-24T08:12:45.989Z</time></trkpt><trkpt lat="43.4747068" lon="12.2017284"><ele>294.0</ele><time>2026-04-24T08:12:46.989Z</time></trkpt><trkpt lat="43.4746235" lon="12.2019035"><ele>294.0</ele><time>2026-04-24T08:12:47.99Z</time></trkpt><trkpt lat="43.4745402" lon="12.2020827"><ele>294.0</ele><time>2026-04-24T08:12:48.989Z</time></trkpt><trkpt lat="43.474456" lon="12.2022685"><ele>294.0</ele><time>2026-04-24T08:12:49.989Z</time></trkpt><trkpt lat="43.4743697" lon="12.2024638"><ele>294.0</ele><time>2026-04-24T08:12:50.989Z</time></trkpt><trkpt lat="43.4742811" lon="12.2026713"><ele>294.0</ele><time>2026-04-24T08:12:51.989Z</time></trkpt><trkpt lat="43.4741883" lon="12.2028921"><ele>294.0</ele><time>2026-04-24T08:12:52.989Z</time></trkpt><trkpt lat="43.4740879" lon="12.2031185"><ele>294.6666666666667</ele><time>2026-04-24T08:12:53.989Z</time></trkpt><trkpt lat="43.4739762" lon="12.2033488"><ele>295.33333333333337</ele><time>2026-04-24T08:12:54.989Z</time></trkpt><trkpt lat="43.4738577" lon="12.2035878"><ele>296.0</ele><time>2026-04-24T08:12:55.99Z</time></trkpt><trkpt lat="43.473739" lon="12.203835"><ele>295.33333333333337</ele><time>2026-04-24T08:12:56.989Z</time></trkpt><trkpt lat="43.4736236" lon="12.2040824"><ele>294.6666666666667</ele><time>2026-04-24T08:12:57.989Z</time></trkpt><trkpt lat="43.4735099" lon="12.2043207"><ele>294.0</ele><time>2026-04-24T08:12:58.99Z</time></trkpt><trkpt lat="43.4734023" lon="12.2045511"><ele>294.0</ele><time>2026-04-24T08:12:59.99Z</time></trkpt><trkpt lat="43.4733031" lon="12.2047723"><ele>294.0</ele><time>2026-04-24T08:13:00.989Z</time></trkpt><trkpt lat="43.4732187" lon="12.2049901"><ele>294.0</ele><time>2026-04-24T08:13:01.989Z</time></trkpt><trkpt lat="43.4731629" lon="12.2052207"><ele>292.6666666666667</ele><time>2026-04-24T08:13:02.989Z</time></trkpt><trkpt lat="43.473141" lon="12.2054513"><ele>291.33333333333337</ele><time>2026-04-24T08:13:03.989Z</time></trkpt><trkpt lat="43.4731517" lon="12.2056813"><ele>290.0</ele><time>2026-04-24T08:13:04.989Z</time></trkpt><trkpt lat="43.4731975" lon="12.2059133"><ele>290.0</ele><time>2026-04-24T08:13:05.989Z</time></trkpt><trkpt lat="43.473267" lon="12.2061399"><ele>290.0</ele><time>2026-04-24T08:13:06.99Z</time></trkpt><trkpt lat="43.4733463" lon="12.2063558"><ele>290.0</ele><time>2026-04-24T08:13:07.989Z</time></trkpt><trkpt lat="43.4734227" lon="12.2065642"><ele>289.25</ele><time>2026-04-24T08:13:08.989Z</time></trkpt><trkpt lat="43.4734962" lon="12.2067574"><ele>288.5</ele><time>2026-04-24T08:13:09.989Z</time></trkpt><trkpt lat="43.4735651" lon="12.2069388"><ele>287.75</ele><time>2026-04-24T08:13:10.989Z</time></trkpt><trkpt lat="43.4736266" lon="12.2071158"><ele>287.0</ele><time>2026-04-24T08:13:11.99Z</time></trkpt><trkpt lat="43.4736875" lon="12.2072848"><ele>287.0</ele><time>2026-04-24T08:13:12.989Z</time></trkpt><trkpt lat="43.4737448" lon="12.207449"><ele>287.0</ele><time>2026-04-24T08:13:13.989Z</time></trkpt><trkpt lat="43.4737984" lon="12.2076122"><ele>287.0</ele><time>2026-04-24T08:13:14.99Z</time></trkpt><trkpt lat="43.4738468" lon="12.2077697"><ele>287.0</ele><time>2026-04-24T08:13:15.989Z</time></trkpt><trkpt lat="43.4738887" lon="12.2079277"><ele>286.75</ele><time>2026-04-24T08:13:16.991Z</time></trkpt><trkpt lat="43.4739249" lon="12.2080996"><ele>286.5</ele><time>2026-04-24T08:13:17.989Z</time></trkpt><trkpt lat="43.4739501" lon="12.2082865"><ele>286.25</ele><time>2026-04-24T08:13:18.99Z</time></trkpt><trkpt lat="43.473962" lon="12.2084805"><ele>286.0</ele><time>2026-04-24T08:13:19.989Z</time></trkpt><trkpt lat="43.4739566" lon="12.208668"><ele>285.75</ele><time>2026-04-24T08:13:20.989Z</time></trkpt><trkpt lat="43.4739375" lon="12.2088482"><ele>285.5</ele><time>2026-04-24T08:13:21.989Z</time></trkpt><trkpt lat="43.4739077" lon="12.2090112"><ele>285.25</ele><time>2026-04-24T08:13:22.989Z</time></trkpt><trkpt lat="43.4738749" lon="12.2091701"><ele>285.0</ele><time>2026-04-24T08:13:23.99Z</time></trkpt><trkpt lat="43.4738412" lon="12.2093278"><ele>284.5</ele><time>2026-04-24T08:13:24.989Z</time></trkpt><trkpt lat="43.4738057" lon="12.2094906"><ele>284.0</ele><time>2026-04-24T08:13:25.989Z</time></trkpt><trkpt lat="43.4737637" lon="12.2096586"><ele>283.5</ele><time>2026-04-24T08:13:26.989Z</time></trkpt><trkpt lat="43.4737222" lon="12.2098358"><ele>283.0</ele><time>2026-04-24T08:13:27.989Z</time></trkpt><trkpt lat="43.4736831" lon="12.2100177"><ele>284.3333333333333</ele><time>2026-04-24T08:13:28.989Z</time></trkpt><trkpt lat="43.4736484" lon="12.2102061"><ele>285.6666666666667</ele><time>2026-04-24T08:13:29.989Z</time></trkpt><trkpt lat="43.473618" lon="12.2104209"><ele>287.0</ele><time>2026-04-24T08:13:30.99Z</time></trkpt><trkpt lat="43.473585" lon="12.2106629"><ele>287.0</ele><time>2026-04-24T08:13:31.989Z</time></trkpt><trkpt lat="43.4735474" lon="12.210926"><ele>287.0</ele><time>2026-04-24T08:13:32.99Z</time></trkpt><trkpt lat="43.4735084" lon="12.2112084"><ele>287.0</ele><time>2026-04-24T08:13:33.99Z</time></trkpt><trkpt lat="43.4734652" lon="12.2115079"><ele>287.0</ele><time>2026-04-24T08:13:34.989Z</time></trkpt><trkpt lat="43.4734112" lon="12.2118085"><ele>287.0</ele><time>2026-04-24T08:13:35.989Z</time></trkpt><trkpt lat="43.4733598" lon="12.2121243"><ele>285.5</ele><time>2026-04-24T08:13:36.989Z</time></trkpt><trkpt lat="43.4733175" lon="12.2124483"><ele>284.0</ele><time>2026-04-24T08:13:37.989Z</time></trkpt><trkpt lat="43.4732778" lon="12.2127806"><ele>284.0</ele><time>2026-04-24T08:13:38.989Z</time></trkpt><trkpt lat="43.4732354" lon="12.2131152"><ele>284.0</ele><time>2026-04-24T08:13:39.989Z</time></trkpt><trkpt lat="43.4731954" lon="12.2134501"><ele>283.5</ele><time>2026-04-24T08:13:40.989Z</time></trkpt><trkpt lat="43.473156" lon="12.2137816"><ele>283.0</ele><time>2026-04-24T08:13:41.99Z</time></trkpt><trkpt lat="43.4731156" lon="12.2141008"><ele>283.0</ele><time>2026-04-24T08:13:42.989Z</time></trkpt><trkpt lat="43.4730701" lon="12.2143964"><ele>283.0</ele><time>2026-04-24T08:13:43.989Z</time></trkpt><trkpt lat="43.4729962" lon="12.2146784"><ele>283.0</ele><time>2026-04-24T08:13:44.989Z</time></trkpt><trkpt lat="43.4728931" lon="12.2149468"><ele>283.66666666666663</ele><time>2026-04-24T08:13:45.989Z</time></trkpt><trkpt lat="43.4727648" lon="12.2151943"><ele>284.3333333333333</ele><time>2026-04-24T08:13:46.989Z</time></trkpt><trkpt lat="43.4726078" lon="12.2154142"><ele>285.0</ele><time>2026-04-24T08:13:47.989Z</time></trkpt><trkpt lat="43.4724278" lon="12.2156029"><ele>286.0</ele><time>2026-04-24T08:13:48.989Z</time></trkpt><trkpt lat="43.4722342" lon="12.2157655"><ele>287.0</ele><time>2026-04-24T08:13:49.989Z</time></trkpt><trkpt lat="43.4720238" lon="12.2158853"><ele>287.0</ele><time>2026-04-24T08:13:50.989Z</time></trkpt><trkpt lat="43.4718012" lon="12.2159684"><ele>287.0</ele><time>2026-04-24T08:13:51.989Z</time></trkpt><trkpt lat="43.4715768" lon="12.2160379"><ele>287.0</ele><time>2026-04-24T08:13:52.989Z</time></trkpt><trkpt lat="43.4713497" lon="12.216109"><ele>287.0</ele><time>2026-04-24T08:13:53.989Z</time></trkpt><trkpt lat="43.4711246" lon="12.2161831"><ele>287.0</ele><time>2026-04-24T08:13:54.989Z</time></trkpt><trkpt lat="43.4708992" lon="12.2162555"><ele>287.0</ele><time>2026-04-24T08:13:55.99Z</time></trkpt><trkpt lat="43.4706735" lon="12.2163174"><ele>287.0</ele><time>2026-04-24T08:13:56.99Z</time></trkpt><trkpt lat="43.4704433" lon="12.2163511"><ele>287.0</ele><time>2026-04-24T08:13:57.989Z</time></trkpt><trkpt lat="43.470209" lon="12.2163587"><ele>288.5</ele><time>2026-04-24T08:13:58.99Z</time></trkpt><trkpt lat="43.4699749" lon="12.2163492"><ele>290.0</ele><time>2026-04-24T08:13:59.99Z</time></trkpt><trkpt lat="43.4697426" lon="12.216332"><ele>289.0</ele><time>2026-04-24T08:14:00.99Z</time></trkpt><trkpt lat="43.4695131" lon="12.2163174"><ele>288.0</ele><time>2026-04-24T08:14:01.989Z</time></trkpt><trkpt lat="43.4692889" lon="12.2163065"><ele>288.0</ele><time>2026-04-24T08:14:02.989Z</time></trkpt><trkpt lat="43.4690696" lon="12.2162947"><ele>288.0</ele><time>2026-04-24T08:14:03.989Z</time></trkpt><trkpt lat="43.4688617" lon="12.2162817"><ele>288.0</ele><time>2026-04-24T08:14:04.99Z</time></trkpt><trkpt lat="43.468665" lon="12.216275"><ele>288.6666666666667</ele><time>2026-04-24T08:14:05.989Z</time></trkpt><trkpt lat="43.4684762" lon="12.2162907"><ele>289.33333333333337</ele><time>2026-04-24T08:14:06.989Z</time></trkpt><trkpt lat="43.468299" lon="12.2163313"><ele>290.0</ele><time>2026-04-24T08:14:07.989Z</time></trkpt><trkpt lat="43.468144" lon="12.2164154"><ele>288.0</ele><time>2026-04-24T08:14:08.989Z</time></trkpt><trkpt lat="43.4680138" lon="12.2165464"><ele>286.0</ele><time>2026-04-24T08:14:09.99Z</time></trkpt><trkpt lat="43.467899" lon="12.2167272"><ele>284.0</ele><time>2026-04-24T08:14:10.989Z</time></trkpt><trkpt lat="43.467798" lon="12.2169349"><ele>284.0</ele><time>2026-04-24T08:14:11.989Z</time></trkpt><trkpt lat="43.4676923" lon="12.2171601"><ele>284.0</ele><time>2026-04-24T08:14:12.989Z</time></trkpt><trkpt lat="43.4675837" lon="12.2173951"><ele>284.0</ele><time>2026-04-24T08:14:13.989Z</time></trkpt><trkpt lat="43.467478" lon="12.2176404"><ele>283.0</ele><time>2026-04-24T08:14:14.989Z</time></trkpt><trkpt lat="43.4673673" lon="12.2178915"><ele>282.0</ele><time>2026-04-24T08:14:15.99Z</time></trkpt><trkpt lat="43.4672534" lon="12.2181433"><ele>281.0</ele><time>2026-04-24T08:14:16.989Z</time></trkpt><trkpt lat="43.4671418" lon="12.2184007"><ele>281.33333333333337</ele><time>2026-04-24T08:14:17.989Z</time></trkpt><trkpt lat="43.467031" lon="12.2186633"><ele>281.6666666666667</ele><time>2026-04-24T08:14:18.989Z</time></trkpt><trkpt lat="43.4669197" lon="12.2189253"><ele>282.0</ele><time>2026-04-24T08:14:19.989Z</time></trkpt><trkpt lat="43.4668119" lon="12.2191783"><ele>282.0</ele><time>2026-04-24T08:14:20.989Z</time></trkpt><trkpt lat="43.4667099" lon="12.2194246"><ele>282.0</ele><time>2026-04-24T08:14:21.989Z</time></trkpt><trkpt lat="43.4666131" lon="12.2196561"><ele>282.0</ele><time>2026-04-24T08:14:22.989Z</time></trkpt><trkpt lat="43.4665244" lon="12.2198772"><ele>281.3333333333333</ele><time>2026-04-24T08:14:23.99Z</time></trkpt><trkpt lat="43.4664402" lon="12.220088"><ele>280.66666666666663</ele><time>2026-04-24T08:14:24.99Z</time></trkpt><trkpt lat="43.4663744" lon="12.2202989"><ele>280.0</ele><time>2026-04-24T08:14:25.989Z</time></trkpt><trkpt lat="43.4663303" lon="12.2205173"><ele>279.66666666666663</ele><time>2026-04-24T08:14:26.989Z</time></trkpt><trkpt lat="43.4663078" lon="12.2207425"><ele>279.3333333333333</ele><time>2026-04-24T08:14:27.99Z</time></trkpt><trkpt lat="43.4663135" lon="12.2209735"><ele>279.0</ele><time>2026-04-24T08:14:28.989Z</time></trkpt><trkpt lat="43.4663377" lon="12.221201"><ele>279.0</ele><time>2026-04-24T08:14:29.989Z</time></trkpt><trkpt lat="43.4663678" lon="12.2214223"><ele>279.0</ele><time>2026-04-24T08:14:30.99Z</time></trkpt><trkpt lat="43.4664013" lon="12.22164"><ele>279.0</ele><time>2026-04-24T08:14:31.989Z</time></trkpt><trkpt lat="43.4664354" lon="12.2218552"><ele>279.0</ele><time>2026-04-24T08:14:32.99Z</time></trkpt><trkpt lat="43.4664704" lon="12.2220707"><ele>279.0</ele><time>2026-04-24T08:14:33.991Z</time></trkpt><trkpt lat="43.4665052" lon="12.2222872"><ele>279.0</ele><time>2026-04-24T08:14:34.989Z</time></trkpt><trkpt lat="43.4665365" lon="12.2225024"><ele>279.3333333333333</ele><time>2026-04-24T08:14:35.989Z</time></trkpt><trkpt lat="43.4665678" lon="12.2227179"><ele>279.66666666666663</ele><time>2026-04-24T08:14:36.989Z</time></trkpt><trkpt lat="43.4666001" lon="12.2229336"><ele>280.0</ele><time>2026-04-24T08:14:37.989Z</time></trkpt><trkpt lat="43.4666348" lon="12.2231477"><ele>280.0</ele><time>2026-04-24T08:14:38.989Z</time></trkpt><trkpt lat="43.4666696" lon="12.2233662"><ele>280.0</ele><time>2026-04-24T08:14:39.99Z</time></trkpt><trkpt lat="43.4667038" lon="12.2235864"><ele>280.0</ele><time>2026-04-24T08:14:40.99Z</time></trkpt><trkpt lat="43.4667372" lon="12.223806"><ele>280.3333333333333</ele><time>2026-04-24T08:14:41.989Z</time></trkpt><trkpt lat="43.4667704" lon="12.2240262"><ele>280.6666666666667</ele><time>2026-04-24T08:14:42.99Z</time></trkpt><trkpt lat="43.4668045" lon="12.2242428"><ele>281.0</ele><time>2026-04-24T08:14:43.989Z</time></trkpt><trkpt lat="43.4668369" lon="12.2244536"><ele>281.0</ele><time>2026-04-24T08:14:44.989Z</time></trkpt><trkpt lat="43.466866" lon="12.2246561"><ele>281.0</ele><time>2026-04-24T08:14:45.989Z</time></trkpt><trkpt lat="43.4668926" lon="12.2248536"><ele>281.0</ele><time>2026-04-24T08:14:46.99Z</time></trkpt><trkpt lat="43.4669189" lon="12.2250458"><ele>281.0</ele><time>2026-04-24T08:14:47.989Z</time></trkpt><trkpt lat="43.4669455" lon="12.2252354"><ele>281.25</ele><time>2026-04-24T08:14:48.989Z</time></trkpt><trkpt lat="43.4669724" lon="12.2254199"><ele>281.5</ele><time>2026-04-24T08:14:49.989Z</time></trkpt><trkpt lat="43.4669981" lon="12.2256002"><ele>281.75</ele><time>2026-04-24T08:14:50.989Z</time></trkpt><trkpt lat="43.4670237" lon="12.2257772"><ele>282.0</ele><time>2026-04-24T08:14:51.989Z</time></trkpt><trkpt lat="43.4670495" lon="12.2259546"><ele>281.75</ele><time>2026-04-24T08:14:52.989Z</time></trkpt><trkpt lat="43.4670789" lon="12.2261315"><ele>281.5</ele><time>2026-04-24T08:14:53.989Z</time></trkpt><trkpt lat="43.4671144" lon="12.2263083"><ele>281.25</ele><time>2026-04-24T08:14:54.99Z</time></trkpt><trkpt lat="43.4671557" lon="12.2264834"><ele>281.0</ele><time>2026-04-24T08:14:55.99Z</time></trkpt><trkpt lat="43.4671992" lon="12.2266569"><ele>281.0</ele><time>2026-04-24T08:14:56.989Z</time></trkpt><trkpt lat="43.4672461" lon="12.2268287"><ele>281.0</ele><time>2026-04-24T08:14:57.989Z</time></trkpt><trkpt lat="43.4672973" lon="12.2269985"><ele>281.0</ele><time>2026-04-24T08:14:58.989Z</time></trkpt><trkpt lat="43.4673512" lon="12.2271689"><ele>281.0</ele><time>2026-04-24T08:14:59.99Z</time></trkpt><trkpt lat="43.4674075" lon="12.2273316"><ele>281.25</ele><time>2026-04-24T08:15:00.989Z</time></trkpt><trkpt lat="43.467468" lon="12.2274871"><ele>281.5</ele><time>2026-04-24T08:15:01.989Z</time></trkpt><trkpt lat="43.467525" lon="12.2276514"><ele>281.75</ele><time>2026-04-24T08:15:02.989Z</time></trkpt><trkpt lat="43.4675839" lon="12.2278145"><ele>282.0</ele><time>2026-04-24T08:15:03.989Z</time></trkpt><trkpt lat="43.4676486" lon="12.227975"><ele>282.0</ele><time>2026-04-24T08:15:04.99Z</time></trkpt><trkpt lat="43.4677163" lon="12.2281338"><ele>282.0</ele><time>2026-04-24T08:15:05.99Z</time></trkpt><trkpt lat="43.4677881" lon="12.2282919"><ele>282.0</ele><time>2026-04-24T08:15:06.989Z</time></trkpt><trkpt lat="43.4678626" lon="12.2284431"><ele>282.0</ele><time>2026-04-24T08:15:07.989Z</time></trkpt><trkpt lat="43.4679396" lon="12.2285835"><ele>281.25</ele><time>2026-04-24T08:15:08.99Z</time></trkpt><trkpt lat="43.4680163" lon="12.2287172"><ele>280.5</ele><time>2026-04-24T08:15:09.989Z</time></trkpt><trkpt lat="43.4680916" lon="12.2288385"><ele>279.75</ele><time>2026-04-24T08:15:10.99Z</time></trkpt><trkpt lat="43.4681664" lon="12.2289538"><ele>279.0</ele><time>2026-04-24T08:15:11.989Z</time></trkpt><trkpt lat="43.4682363" lon="12.2290632"><ele>279.0</ele><time>2026-04-24T08:15:12.989Z</time></trkpt><trkpt lat="43.4682999" lon="12.229165"><ele>279.0</ele><time>2026-04-24T08:15:13.99Z</time></trkpt><trkpt lat="43.4683531" lon="12.2292534"><ele>279.0</ele><time>2026-04-24T08:15:14.991Z</time></trkpt><trkpt lat="43.4683957" lon="12.2293275"><ele>279.0</ele><time>2026-04-24T08:15:15.99Z</time></trkpt><trkpt lat="43.4684558" lon="12.2294291"><ele>279.0</ele><time>2026-04-24T08:15:17.989Z</time></trkpt><trkpt lat="43.4684982" lon="12.2294967"><ele>279.0</ele><time>2026-04-24T08:15:19.989Z</time></trkpt><trkpt lat="43.4685391" lon="12.2295753"><ele>279.0</ele><time>2026-04-24T08:15:21.989Z</time></trkpt><trkpt lat="43.4685745" lon="12.2296786"><ele>279.0</ele><time>2026-04-24T08:15:23.989Z</time></trkpt><trkpt lat="43.4685949" lon="12.2297802"><ele>279.0</ele><time>2026-04-24T08:15:28.99Z</time></trkpt><trkpt lat="43.4685969" lon="12.2299093"><ele>279.0</ele><time>2026-04-24T08:15:30.99Z</time></trkpt><trkpt lat="43.4685879" lon="12.2300096"><ele>279.0</ele><time>2026-04-24T08:15:31.989Z</time></trkpt><trkpt lat="43.4685929" lon="12.2301237"><ele>279.0</ele><time>2026-04-24T08:15:32.989Z</time></trkpt><trkpt lat="43.4686142" lon="12.230241"><ele>279.4</ele><time>2026-04-24T08:15:33.989Z</time></trkpt><trkpt lat="43.4686576" lon="12.2303533"><ele>279.79999999999995</ele><time>2026-04-24T08:15:34.99Z</time></trkpt><trkpt lat="43.4687239" lon="12.2304449"><ele>280.20000000000005</ele><time>2026-04-24T08:15:35.99Z</time></trkpt><trkpt lat="43.4688005" lon="12.2305115"><ele>280.6</ele><time>2026-04-24T08:15:36.989Z</time></trkpt><trkpt lat="43.4688859" lon="12.2305422"><ele>281.0</ele><time>2026-04-24T08:15:37.989Z</time></trkpt><trkpt lat="43.4689777" lon="12.2305366"><ele>281.5</ele><time>2026-04-24T08:15:38.989Z</time></trkpt><trkpt lat="43.4690809" lon="12.2305019"><ele>282.0</ele><time>2026-04-24T08:15:39.99Z</time></trkpt><trkpt lat="43.4691956" lon="12.2304784"><ele>282.5</ele><time>2026-04-24T08:15:40.99Z</time></trkpt><trkpt lat="43.4693228" lon="12.2304844"><ele>283.0</ele><time>2026-04-24T08:15:41.989Z</time></trkpt><trkpt lat="43.4694474" lon="12.2305429"><ele>283.0</ele><time>2026-04-24T08:15:42.989Z</time></trkpt><trkpt lat="43.4695684" lon="12.230636"><ele>283.0</ele><time>2026-04-24T08:15:43.989Z</time></trkpt><trkpt lat="43.4696914" lon="12.2307471"><ele>283.0</ele><time>2026-04-24T08:15:44.989Z</time></trkpt><trkpt lat="43.4698079" lon="12.2308603"><ele>283.0</ele><time>2026-04-24T08:15:45.99Z</time></trkpt><trkpt lat="43.4699221" lon="12.2309779"><ele>283.0</ele><time>2026-04-24T08:15:46.99Z</time></trkpt><trkpt lat="43.470042" lon="12.2311009"><ele>283.0</ele><time>2026-04-24T08:15:47.989Z</time></trkpt><trkpt lat="43.4701631" lon="12.231232"><ele>283.0</ele><time>2026-04-24T08:15:48.989Z</time></trkpt><trkpt lat="43.470288" lon="12.2313751"><ele>283.3333333333333</ele><time>2026-04-24T08:15:49.989Z</time></trkpt><trkpt lat="43.4704166" lon="12.2315281"><ele>283.6666666666667</ele><time>2026-04-24T08:15:50.99Z</time></trkpt><trkpt lat="43.4705443" lon="12.2316959"><ele>284.0</ele><time>2026-04-24T08:15:51.99Z</time></trkpt><trkpt lat="43.4706708" lon="12.2318747"><ele>284.33333333333337</ele><time>2026-04-24T08:15:52.989Z</time></trkpt><trkpt lat="43.4707927" lon="12.2320599"><ele>284.6666666666667</ele><time>2026-04-24T08:15:53.99Z</time></trkpt><trkpt lat="43.4709107" lon="12.2322535"><ele>285.0</ele><time>2026-04-24T08:15:54.989Z</time></trkpt><trkpt lat="43.4710218" lon="12.2324561"><ele>285.3333333333333</ele><time>2026-04-24T08:15:55.989Z</time></trkpt><trkpt lat="43.4711283" lon="12.2326718"><ele>285.66666666666663</ele><time>2026-04-24T08:15:56.989Z</time></trkpt><trkpt lat="43.4712353" lon="12.2328991"><ele>286.0</ele><time>2026-04-24T08:15:57.99Z</time></trkpt><trkpt lat="43.4713409" lon="12.2331304"><ele>285.0</ele><time>2026-04-24T08:15:58.989Z</time></trkpt><trkpt lat="43.4714458" lon="12.2333658"><ele>284.0</ele><time>2026-04-24T08:15:59.989Z</time></trkpt><trkpt lat="43.4715485" lon="12.2336069"><ele>283.0</ele><time>2026-04-24T08:16:00.989Z</time></trkpt><trkpt lat="43.4716532" lon="12.2338504"><ele>284.66666666666663</ele><time>2026-04-24T08:16:01.99Z</time></trkpt><trkpt lat="43.4717553" lon="12.2340864"><ele>286.3333333333333</ele><time>2026-04-24T08:16:02.989Z</time></trkpt><trkpt lat="43.4718509" lon="12.2343103"><ele>288.0</ele><time>2026-04-24T08:16:03.989Z</time></trkpt><trkpt lat="43.4719378" lon="12.2345086"><ele>288.0</ele><time>2026-04-24T08:16:04.989Z</time></trkpt><trkpt lat="43.4720119" lon="12.2346776"><ele>288.0</ele><time>2026-04-24T08:16:05.989Z</time></trkpt><trkpt lat="43.4720724" lon="12.2348192"><ele>288.0</ele><time>2026-04-24T08:16:06.989Z</time></trkpt><trkpt lat="43.4721201" lon="12.2349423"><ele>288.0</ele><time>2026-04-24T08:16:07.99Z</time></trkpt><trkpt lat="43.4721457" lon="12.2350684"><ele>288.25</ele><time>2026-04-24T08:16:08.989Z</time></trkpt><trkpt lat="43.4721464" lon="12.2352149"><ele>288.5</ele><time>2026-04-24T08:16:09.989Z</time></trkpt><trkpt lat="43.4721163" lon="12.2353724"><ele>288.75</ele><time>2026-04-24T08:16:10.989Z</time></trkpt><trkpt lat="43.4720881" lon="12.2355437"><ele>289.0</ele><time>2026-04-24T08:16:11.989Z</time></trkpt><trkpt lat="43.4720934" lon="12.2356984"><ele>288.0</ele><time>2026-04-24T08:16:12.989Z</time></trkpt><trkpt lat="43.4721303" lon="12.2358485"><ele>287.0</ele><time>2026-04-24T08:16:13.989Z</time></trkpt><trkpt lat="43.472199" lon="12.2359816"><ele>286.0</ele><time>2026-04-24T08:16:14.989Z</time></trkpt><trkpt lat="43.4722938" lon="12.2360802"><ele>285.0</ele><time>2026-04-24T08:16:15.99Z</time></trkpt><trkpt lat="43.4724107" lon="12.23614"><ele>285.0</ele><time>2026-04-24T08:16:16.99Z</time></trkpt><trkpt lat="43.4725329" lon="12.236191"><ele>285.0</ele><time>2026-04-24T08:16:17.989Z</time></trkpt><trkpt lat="43.4726403" lon="12.2362733"><ele>285.0</ele><time>2026-04-24T08:16:18.99Z</time></trkpt><trkpt lat="43.4727271" lon="12.2364"><ele>285.0</ele><time>2026-04-24T08:16:19.989Z</time></trkpt><trkpt lat="43.4728017" lon="12.2365492"><ele>285.3333333333333</ele><time>2026-04-24T08:16:20.989Z</time></trkpt><trkpt lat="43.4728721" lon="12.2367069"><ele>285.66666666666663</ele><time>2026-04-24T08:16:21.989Z</time></trkpt><trkpt lat="43.4729607" lon="12.2368954"><ele>286.0</ele><time>2026-04-24T08:16:22.989Z</time></trkpt><trkpt lat="43.4730507" lon="12.2371059"><ele>286.0</ele><time>2026-04-24T08:16:23.989Z</time></trkpt><trkpt lat="43.4731199" lon="12.2373413"><ele>286.0</ele><time>2026-04-24T08:16:24.989Z</time></trkpt><trkpt lat="43.4731726" lon="12.2376102"><ele>286.0</ele><time>2026-04-24T08:16:25.989Z</time></trkpt><trkpt lat="43.4732091" lon="12.2379003"><ele>286.66666666666663</ele><time>2026-04-24T08:16:26.989Z</time></trkpt><trkpt lat="43.4732239" lon="12.2381902"><ele>287.3333333333333</ele><time>2026-04-24T08:16:27.99Z</time></trkpt><trkpt lat="43.4732178" lon="12.2384578"><ele>288.0</ele><time>2026-04-24T08:16:28.989Z</time></trkpt><trkpt lat="43.4731968" lon="12.2387064"><ele>288.0</ele><time>2026-04-24T08:16:29.989Z</time></trkpt><trkpt lat="43.4731662" lon="12.2389117"><ele>288.0</ele><time>2026-04-24T08:16:30.989Z</time></trkpt><trkpt lat="43.473135" lon="12.239065"><ele>288.0</ele><time>2026-04-24T08:16:31.989Z</time></trkpt><trkpt lat="43.4730945" lon="12.2391644"><ele>288.0</ele><time>2026-04-24T08:16:32.989Z</time></trkpt><trkpt lat="43.4730122" lon="12.239261"><ele>288.0</ele><time>2026-04-24T08:16:33.99Z</time></trkpt><trkpt lat="43.4729415" lon="12.239386"><ele>288.0</ele><time>2026-04-24T08:16:34.989Z</time></trkpt><trkpt lat="43.4729078" lon="12.2395429"><ele>288.0</ele><time>2026-04-24T08:16:35.989Z</time></trkpt><trkpt lat="43.4729112" lon="12.2397238"><ele>288.0</ele><time>2026-04-24T08:16:36.989Z</time></trkpt><trkpt lat="43.4729152" lon="12.2399319"><ele>288.0</ele><time>2026-04-24T08:16:37.989Z</time></trkpt><trkpt lat="43.4728828" lon="12.2401433"><ele>288.0</ele><time>2026-04-24T08:16:38.99Z</time></trkpt><trkpt lat="43.4728413" lon="12.2403482"><ele>288.0</ele><time>2026-04-24T08:16:39.989Z</time></trkpt><trkpt lat="43.4728" lon="12.2405396"><ele>288.6666666666667</ele><time>2026-04-24T08:16:40.99Z</time></trkpt><trkpt lat="43.4727537" lon="12.2407413"><ele>289.33333333333337</ele><time>2026-04-24T08:16:41.989Z</time></trkpt><trkpt lat="43.4727052" lon="12.240955"><ele>290.0</ele><time>2026-04-24T08:16:42.99Z</time></trkpt><trkpt lat="43.4726507" lon="12.2411753"><ele>290.0</ele><time>2026-04-24T08:16:43.989Z</time></trkpt><trkpt lat="43.472596" lon="12.2414007"><ele>290.0</ele><time>2026-04-24T08:16:44.99Z</time></trkpt><trkpt lat="43.4725392" lon="12.2416359"><ele>290.0</ele><time>2026-04-24T08:16:45.989Z</time></trkpt><trkpt lat="43.4724794" lon="12.2418815"><ele>290.0</ele><time>2026-04-24T08:16:46.989Z</time></trkpt><trkpt lat="43.4724134" lon="12.2421351"><ele>290.0</ele><time>2026-04-24T08:16:47.989Z</time></trkpt><trkpt lat="43.4723438" lon="12.2423922"><ele>290.0</ele><time>2026-04-24T08:16:48.989Z</time></trkpt><trkpt lat="43.4722719" lon="12.2426573"><ele>290.0</ele><time>2026-04-24T08:16:49.989Z</time></trkpt><trkpt lat="43.4722023" lon="12.2429231"><ele>290.0</ele><time>2026-04-24T08:16:50.989Z</time></trkpt><trkpt lat="43.4721371" lon="12.243192"><ele>290.0</ele><time>2026-04-24T08:16:51.99Z</time></trkpt><trkpt lat="43.4720733" lon="12.2434579"><ele>290.0</ele><time>2026-04-24T08:16:52.989Z</time></trkpt><trkpt lat="43.4720124" lon="12.2437191"><ele>290.0</ele><time>2026-04-24T08:16:53.99Z</time></trkpt><trkpt lat="43.4719508" lon="12.243974"><ele>290.0</ele><time>2026-04-24T08:16:54.989Z</time></trkpt><trkpt lat="43.4718845" lon="12.2442257"><ele>290.33333333333337</ele><time>2026-04-24T08:16:55.989Z</time></trkpt><trkpt lat="43.4718168" lon="12.2444812"><ele>290.6666666666667</ele><time>2026-04-24T08:16:56.989Z</time></trkpt><trkpt lat="43.4717509" lon="12.24474"><ele>291.0</ele><time>2026-04-24T08:16:57.99Z</time></trkpt><trkpt lat="43.471691" lon="12.2449815"><ele>291.0</ele><time>2026-04-24T08:16:58.989Z</time></trkpt><trkpt lat="43.471635" lon="12.2451972"><ele>291.0</ele><time>2026-04-24T08:16:59.989Z</time></trkpt><trkpt lat="43.4715708" lon="12.2453736"><ele>291.0</ele><time>2026-04-24T08:17:00.989Z</time></trkpt><trkpt lat="43.4714802" lon="12.2455098"><ele>291.0</ele><time>2026-04-24T08:17:01.989Z</time></trkpt><trkpt lat="43.4713697" lon="12.2456096"><ele>291.25</ele><time>2026-04-24T08:17:02.989Z</time></trkpt><trkpt lat="43.4712526" lon="12.245707"><ele>291.5</ele><time>2026-04-24T08:17:03.989Z</time></trkpt><trkpt lat="43.4711665" lon="12.2458404"><ele>291.75</ele><time>2026-04-24T08:17:04.989Z</time></trkpt><trkpt lat="43.4711159" lon="12.2459948"><ele>292.0</ele><time>2026-04-24T08:17:05.99Z</time></trkpt><trkpt lat="43.4711053" lon="12.2461668"><ele>292.0</ele><time>2026-04-24T08:17:06.989Z</time></trkpt><trkpt lat="43.4711291" lon="12.2463582"><ele>292.0</ele><time>2026-04-24T08:17:07.989Z</time></trkpt><trkpt lat="43.4711738" lon="12.2465712"><ele>292.0</ele><time>2026-04-24T08:17:08.989Z</time></trkpt><trkpt lat="43.471188" lon="12.2468062"><ele>292.3333333333333</ele><time>2026-04-24T08:17:09.989Z</time></trkpt><trkpt lat="43.4711494" lon="12.2470553"><ele>292.6666666666667</ele><time>2026-04-24T08:17:10.989Z</time></trkpt><trkpt lat="43.4710777" lon="12.2473129"><ele>293.0</ele><time>2026-04-24T08:17:11.989Z</time></trkpt><trkpt lat="43.4709952" lon="12.2475931"><ele>293.0</ele><time>2026-04-24T08:17:12.99Z</time></trkpt><trkpt lat="43.4709165" lon="12.2478909"><ele>293.0</ele><time>2026-04-24T08:17:13.989Z</time></trkpt><trkpt lat="43.4708456" lon="12.2482053"><ele>293.0</ele><time>2026-04-24T08:17:14.989Z</time></trkpt><trkpt lat="43.4707856" lon="12.2485379"><ele>293.0</ele><time>2026-04-24T08:17:15.989Z</time></trkpt><trkpt lat="43.4707311" lon="12.2488837"><ele>293.5</ele><time>2026-04-24T08:17:16.99Z</time></trkpt><trkpt lat="43.4706843" lon="12.2492439"><ele>294.0</ele><time>2026-04-24T08:17:17.99Z</time></trkpt><trkpt lat="43.4706477" lon="12.2496087"><ele>295.5</ele><time>2026-04-24T08:17:18.989Z</time></trkpt><trkpt lat="43.470626" lon="12.2499818"><ele>297.0</ele><time>2026-04-24T08:17:19.989Z</time></trkpt><trkpt lat="43.470619" lon="12.2503594"><ele>296.5</ele><time>2026-04-24T08:17:20.989Z</time></trkpt><trkpt lat="43.4706172" lon="12.2507414"><ele>296.0</ele><time>2026-04-24T08:17:21.989Z</time></trkpt><trkpt lat="43.4706168" lon="12.2511264"><ele>296.5</ele><time>2026-04-24T08:17:22.989Z</time></trkpt><trkpt lat="43.4706177" lon="12.251513"><ele>297.0</ele><time>2026-04-24T08:17:23.989Z</time></trkpt><trkpt lat="43.4706235" lon="12.2519004"><ele>297.0</ele><time>2026-04-24T08:17:24.989Z</time></trkpt><trkpt lat="43.4706334" lon="12.2522848"><ele>297.0</ele><time>2026-04-24T08:17:25.989Z</time></trkpt><trkpt lat="43.4706477" lon="12.2526679"><ele>297.5</ele><time>2026-04-24T08:17:26.989Z</time></trkpt><trkpt lat="43.4706678" lon="12.2530386"><ele>298.0</ele><time>2026-04-24T08:17:27.989Z</time></trkpt><trkpt lat="43.4706966" lon="12.253384"><ele>299.5</ele><time>2026-04-24T08:17:28.989Z</time></trkpt><trkpt lat="43.470737" lon="12.2537086"><ele>301.0</ele><time>2026-04-24T08:17:29.989Z</time></trkpt><trkpt lat="43.4707866" lon="12.2540075"><ele>301.3333333333333</ele><time>2026-04-24T08:17:30.989Z</time></trkpt><trkpt lat="43.4708388" lon="12.2542829"><ele>301.6666666666667</ele><time>2026-04-24T08:17:31.989Z</time></trkpt><trkpt lat="43.4708884" lon="12.2545363"><ele>302.0</ele><time>2026-04-24T08:17:32.991Z</time></trkpt><trkpt lat="43.4709342" lon="12.2547652"><ele>302.75</ele><time>2026-04-24T08:17:33.989Z</time></trkpt><trkpt lat="43.470965" lon="12.2549716"><ele>303.5</ele><time>2026-04-24T08:17:34.989Z</time></trkpt><trkpt lat="43.4709706" lon="12.255159"><ele>304.25</ele><time>2026-04-24T08:17:35.99Z</time></trkpt><trkpt lat="43.4709523" lon="12.2553292"><ele>305.0</ele><time>2026-04-24T08:17:36.989Z</time></trkpt><trkpt lat="43.4709376" lon="12.2554673"><ele>305.0</ele><time>2026-04-24T08:17:37.989Z</time></trkpt><trkpt lat="43.4709618" lon="12.255593"><ele>305.0</ele><time>2026-04-24T08:17:38.989Z</time></trkpt><trkpt lat="43.47102" lon="12.2557175"><ele>305.0</ele><time>2026-04-24T08:17:39.989Z</time></trkpt><trkpt lat="43.471108" lon="12.2558533"><ele>305.0</ele><time>2026-04-24T08:17:40.989Z</time></trkpt><trkpt lat="43.4711767" lon="12.2560412"><ele>305.6666666666667</ele><time>2026-04-24T08:17:41.99Z</time></trkpt><trkpt lat="43.4712243" lon="12.2562696"><ele>306.3333333333333</ele><time>2026-04-24T08:17:42.989Z</time></trkpt><trkpt lat="43.4712673" lon="12.2565248"><ele>307.0</ele><time>2026-04-24T08:17:43.99Z</time></trkpt><trkpt lat="43.471313" lon="12.256808"><ele>307.5</ele><time>2026-04-24T08:17:44.989Z</time></trkpt><trkpt lat="43.4713624" lon="12.2571128"><ele>308.0</ele><time>2026-04-24T08:17:45.989Z</time></trkpt><trkpt lat="43.4714155" lon="12.2574259"><ele>308.5</ele><time>2026-04-24T08:17:46.99Z</time></trkpt><trkpt lat="43.4714753" lon="12.2577421"><ele>309.0</ele><time>2026-04-24T08:17:47.989Z</time></trkpt><trkpt lat="43.4715425" lon="12.258057"><ele>310.5</ele><time>2026-04-24T08:17:48.99Z</time></trkpt><trkpt lat="43.4716241" lon="12.2583674"><ele>312.0</ele><time>2026-04-24T08:17:49.99Z</time></trkpt><trkpt lat="43.4717261" lon="12.2586703"><ele>313.5</ele><time>2026-04-24T08:17:50.989Z</time></trkpt><trkpt lat="43.4718506" lon="12.2589567"><ele>315.0</ele><time>2026-04-24T08:17:51.989Z</time></trkpt><trkpt lat="43.4719901" lon="12.2592172"><ele>318.0</ele><time>2026-04-24T08:17:52.989Z</time></trkpt><trkpt lat="43.4721396" lon="12.2594595"><ele>321.0</ele><time>2026-04-24T08:17:53.989Z</time></trkpt><trkpt lat="43.4722974" lon="12.2596861"><ele>320.6666666666667</ele><time>2026-04-24T08:17:54.99Z</time></trkpt><trkpt lat="43.4724587" lon="12.2599042"><ele>320.33333333333337</ele><time>2026-04-24T08:17:55.989Z</time></trkpt><trkpt lat="43.472616" lon="12.260118"><ele>320.0</ele><time>2026-04-24T08:17:56.989Z</time></trkpt><trkpt lat="43.472761" lon="12.2603134"><ele>320.0</ele><time>2026-04-24T08:17:57.989Z</time></trkpt><trkpt lat="43.4728963" lon="12.2604969"><ele>320.0</ele><time>2026-04-24T08:17:58.989Z</time></trkpt><trkpt lat="43.4730248" lon="12.2606739"><ele>320.0</ele><time>2026-04-24T08:17:59.989Z</time></trkpt><trkpt lat="43.4731599" lon="12.2608611"><ele>321.0</ele><time>2026-04-24T08:18:00.989Z</time></trkpt><trkpt lat="43.4733014" lon="12.2610529"><ele>322.0</ele><time>2026-04-24T08:18:01.989Z</time></trkpt><trkpt lat="43.4734491" lon="12.2612504"><ele>323.0</ele><time>2026-04-24T08:18:02.989Z</time></trkpt><trkpt lat="43.4735988" lon="12.2614564"><ele>323.6666666666667</ele><time>2026-04-24T08:18:03.99Z</time></trkpt><trkpt lat="43.4737503" lon="12.2616618"><ele>324.3333333333333</ele><time>2026-04-24T08:18:04.989Z</time></trkpt><trkpt lat="43.4739025" lon="12.2618691"><ele>325.0</ele><time>2026-04-24T08:18:05.989Z</time></trkpt><trkpt lat="43.4740561" lon="12.2620774"><ele>325.0</ele><time>2026-04-24T08:18:06.989Z</time></trkpt><trkpt lat="43.4742062" lon="12.2622786"><ele>325.0</ele><time>2026-04-24T08:18:07.989Z</time></trkpt><trkpt lat="43.4743458" lon="12.2624626"><ele>325.0</ele><time>2026-04-24T08:18:08.989Z</time></trkpt><trkpt lat="43.4744737" lon="12.2626363"><ele>327.66666666666663</ele><time>2026-04-24T08:18:09.989Z</time></trkpt><trkpt lat="43.474589" lon="12.2628017"><ele>330.3333333333333</ele><time>2026-04-24T08:18:10.989Z</time></trkpt><trkpt lat="43.4746885" lon="12.262964"><ele>333.0</ele><time>2026-04-24T08:18:11.99Z</time></trkpt><trkpt lat="43.4747565" lon="12.2631477"><ele>337.0</ele><time>2026-04-24T08:18:12.989Z</time></trkpt><trkpt lat="43.4747621" lon="12.2633535"><ele>341.0</ele><time>2026-04-24T08:18:13.99Z</time></trkpt><trkpt lat="43.4747163" lon="12.2635582"><ele>345.0</ele><time>2026-04-24T08:18:14.99Z</time></trkpt><trkpt lat="43.4746364" lon="12.2637692"><ele>342.6666666666667</ele><time>2026-04-24T08:18:15.989Z</time></trkpt><trkpt lat="43.4745734" lon="12.2640119"><ele>340.33333333333337</ele><time>2026-04-24T08:18:16.989Z</time></trkpt><trkpt lat="43.4745506" lon="12.2642863"><ele>338.0</ele><time>2026-04-24T08:18:17.99Z</time></trkpt><trkpt lat="43.4745578" lon="12.2645791"><ele>340.0</ele><time>2026-04-24T08:18:18.989Z</time></trkpt><trkpt lat="43.474588" lon="12.2648871"><ele>342.0</ele><time>2026-04-24T08:18:19.991Z</time></trkpt><trkpt lat="43.4746497" lon="12.2651941"><ele>347.5</ele><time>2026-04-24T08:18:20.989Z</time></trkpt><trkpt lat="43.4747609" lon="12.2654854"><ele>353.0</ele><time>2026-04-24T08:18:21.989Z</time></trkpt><trkpt lat="43.474893" lon="12.2657675"><ele>353.0</ele><time>2026-04-24T08:18:22.99Z</time></trkpt><trkpt lat="43.4749992" lon="12.2660648"><ele>353.0</ele><time>2026-04-24T08:18:23.989Z</time></trkpt><trkpt lat="43.4750637" lon="12.2663834"><ele>354.0</ele><time>2026-04-24T08:18:24.989Z</time></trkpt><trkpt lat="43.4750666" lon="12.2666825"><ele>355.0</ele><time>2026-04-24T08:18:25.989Z</time></trkpt><trkpt lat="43.4750359" lon="12.2669875"><ele>356.0</ele><time>2026-04-24T08:18:26.989Z</time></trkpt><trkpt lat="43.4750176" lon="12.2672915"><ele>356.0</ele><time>2026-04-24T08:18:27.989Z</time></trkpt><trkpt lat="43.4750382" lon="12.2676073"><ele>356.0</ele><time>2026-04-24T08:18:28.989Z</time></trkpt><trkpt lat="43.4751027" lon="12.2679254"><ele>356.5</ele><time>2026-04-24T08:18:29.989Z</time></trkpt><trkpt lat="43.4751993" lon="12.268246"><ele>357.0</ele><time>2026-04-24T08:18:30.989Z</time></trkpt><trkpt lat="43.4753141" lon="12.2685738"><ele>357.0</ele><time>2026-04-24T08:18:31.989Z</time></trkpt><trkpt lat="43.4754363" lon="12.268871"><ele>357.0</ele><time>2026-04-24T08:18:32.99Z</time></trkpt><trkpt lat="43.4755589" lon="12.2691097"><ele>362.6666666666667</ele><time>2026-04-24T08:18:33.989Z</time></trkpt><trkpt lat="43.4756963" lon="12.2692972"><ele>368.33333333333337</ele><time>2026-04-24T08:18:34.99Z</time></trkpt><trkpt lat="43.4758741" lon="12.2694291"><ele>374.0</ele><time>2026-04-24T08:18:35.99Z</time></trkpt><trkpt lat="43.4760789" lon="12.2695074"><ele>374.0</ele><time>2026-04-24T08:18:36.99Z</time></trkpt><trkpt lat="43.4762697" lon="12.2695543"><ele>374.0</ele><time>2026-04-24T08:18:37.989Z</time></trkpt><trkpt lat="43.4764307" lon="12.2695905"><ele>374.0</ele><time>2026-04-24T08:18:38.989Z</time></trkpt><trkpt lat="43.4765596" lon="12.2696018"><ele>375.0</ele><time>2026-04-24T08:18:39.989Z</time></trkpt><trkpt lat="43.4766657" lon="12.2695447"><ele>376.0</ele><time>2026-04-24T08:18:40.989Z</time></trkpt><trkpt lat="43.4767252" lon="12.2694195"><ele>377.0</ele><time>2026-04-24T08:18:41.989Z</time></trkpt><trkpt lat="43.4767087" lon="12.2692631"><ele>378.0</ele><time>2026-04-24T08:18:42.989Z</time></trkpt><trkpt lat="43.4766212" lon="12.2691469"><ele>378.0</ele><time>2026-04-24T08:18:43.989Z</time></trkpt><trkpt lat="43.4764805" lon="12.269095"><ele>378.0</ele><time>2026-04-24T08:18:44.989Z</time></trkpt><trkpt lat="43.4762997" lon="12.2690611"><ele>378.0</ele><time>2026-04-24T08:18:45.989Z</time></trkpt><trkpt lat="43.4760947" lon="12.2689959"><ele>379.3333333333333</ele><time>2026-04-24T08:18:46.989Z</time></trkpt><trkpt lat="43.4759135" lon="12.2688648"><ele>380.66666666666663</ele><time>2026-04-24T08:18:47.99Z</time></trkpt><trkpt lat="43.4757808" lon="12.2686957"><ele>382.0</ele><time>2026-04-24T08:18:48.989Z</time></trkpt><trkpt lat="43.475684" lon="12.2684705"><ele>382.0</ele><time>2026-04-24T08:18:49.989Z</time></trkpt><trkpt lat="43.4756189" lon="12.2681983"><ele>382.0</ele><time>2026-04-24T08:18:50.99Z</time></trkpt><trkpt lat="43.475596" lon="12.2679425"><ele>382.0</ele><time>2026-04-24T08:18:51.989Z</time></trkpt><trkpt lat="43.4756103" lon="12.2676868"><ele>383.0</ele><time>2026-04-24T08:18:52.989Z</time></trkpt><trkpt lat="43.4757265" lon="12.2674494"><ele>384.0</ele><time>2026-04-24T08:18:53.989Z</time></trkpt><trkpt lat="43.4758271" lon="12.2671738"><ele>385.0</ele><time>2026-04-24T08:18:54.99Z</time></trkpt><trkpt lat="43.4759316" lon="12.2668763"><ele>381.5</ele><time>2026-04-24T08:18:55.989Z</time></trkpt><trkpt lat="43.4760246" lon="12.2665546"><ele>378.0</ele><time>2026-04-24T08:18:56.99Z</time></trkpt><trkpt lat="43.4760867" lon="12.2662056"><ele>376.0</ele><time>2026-04-24T08:18:57.989Z</time></trkpt><trkpt lat="43.4761032" lon="12.2658555"><ele>374.0</ele><time>2026-04-24T08:18:58.989Z</time></trkpt><trkpt lat="43.4760753" lon="12.2655403"><ele>374.0</ele><time>2026-04-24T08:18:59.989Z</time></trkpt><trkpt lat="43.4760149" lon="12.2652484"><ele>374.0</ele><time>2026-04-24T08:19:00.989Z</time></trkpt><trkpt lat="43.4759551" lon="12.2649814"><ele>374.0</ele><time>2026-04-24T08:19:01.989Z</time></trkpt><trkpt lat="43.4759149" lon="12.2647292"><ele>373.33333333333337</ele><time>2026-04-24T08:19:02.989Z</time></trkpt><trkpt lat="43.4759743" lon="12.2645164"><ele>372.6666666666667</ele><time>2026-04-24T08:19:03.989Z</time></trkpt><trkpt lat="43.4760484" lon="12.2643372"><ele>372.0</ele><time>2026-04-24T08:19:04.99Z</time></trkpt><trkpt lat="43.476178" lon="12.2642184"><ele>377.66666666666663</ele><time>2026-04-24T08:19:05.99Z</time></trkpt><trkpt lat="43.4763461" lon="12.2641626"><ele>383.3333333333333</ele><time>2026-04-24T08:19:06.99Z</time></trkpt><trkpt lat="43.4765399" lon="12.2641344"><ele>389.0</ele><time>2026-04-24T08:19:07.989Z</time></trkpt><trkpt lat="43.4767575" lon="12.264116"><ele>389.0</ele><time>2026-04-24T08:19:08.99Z</time></trkpt><trkpt lat="43.4769987" lon="12.2641377"><ele>389.0</ele><time>2026-04-24T08:19:09.989Z</time></trkpt><trkpt lat="43.4772531" lon="12.2641908"><ele>390.0</ele><time>2026-04-24T08:19:10.99Z</time></trkpt><trkpt lat="43.4775246" lon="12.2642451"><ele>391.0</ele><time>2026-04-24T08:19:11.989Z</time></trkpt><trkpt lat="43.4777965" lon="12.2643062"><ele>390.0</ele><time>2026-04-24T08:19:12.989Z</time></trkpt><trkpt lat="43.4780509" lon="12.2643812"><ele>389.0</ele><time>2026-04-24T08:19:13.989Z</time></trkpt><trkpt lat="43.4782994" lon="12.2644888"><ele>389.0</ele><time>2026-04-24T08:19:14.989Z</time></trkpt><trkpt lat="43.4785077" lon="12.264599"><ele>389.0</ele><time>2026-04-24T08:19:15.989Z</time></trkpt><trkpt lat="43.4786806" lon="12.2646932"><ele>389.0</ele><time>2026-04-24T08:19:16.989Z</time></trkpt><trkpt lat="43.4788095" lon="12.2647677"><ele>389.6</ele><time>2026-04-24T08:19:17.989Z</time></trkpt><trkpt lat="43.4789095" lon="12.26485"><ele>390.2</ele><time>2026-04-24T08:19:18.989Z</time></trkpt><trkpt lat="43.4789733" lon="12.2649663"><ele>390.8</ele><time>2026-04-24T08:19:19.989Z</time></trkpt><trkpt lat="43.4789676" lon="12.2650981"><ele>391.40000000000003</ele><time>2026-04-24T08:19:20.989Z</time></trkpt><trkpt lat="43.4789063" lon="12.2651899"><ele>392.0</ele><time>2026-04-24T08:19:21.99Z</time></trkpt><trkpt lat="43.478806" lon="12.2652056"><ele>397.0</ele><time>2026-04-24T08:19:22.989Z</time></trkpt><trkpt lat="43.4786748" lon="12.2651667"><ele>402.0</ele><time>2026-04-24T08:19:23.989Z</time></trkpt><trkpt lat="43.4785416" lon="12.2651199"><ele>407.0</ele><time>2026-04-24T08:19:24.989Z</time></trkpt><trkpt lat="43.4783589" lon="12.2650235"><ele>407.0</ele><time>2026-04-24T08:19:25.989Z</time></trkpt><trkpt lat="43.4780987" lon="12.2649402"><ele>407.0</ele><time>2026-04-24T08:19:26.991Z</time></trkpt><trkpt lat="43.4778454" lon="12.2648438"><ele>408.3333333333333</ele><time>2026-04-24T08:19:27.989Z</time></trkpt><trkpt lat="43.4776268" lon="12.2647842"><ele>409.66666666666663</ele><time>2026-04-24T08:19:28.989Z</time></trkpt><trkpt lat="43.4774428" lon="12.2647486"><ele>411.0</ele><time>2026-04-24T08:19:29.989Z</time></trkpt><trkpt lat="43.4772862" lon="12.2647329"><ele>408.5</ele><time>2026-04-24T08:19:30.989Z</time></trkpt><trkpt lat="43.4771466" lon="12.2647648"><ele>406.0</ele><time>2026-04-24T08:19:31.99Z</time></trkpt><trkpt lat="43.4770347" lon="12.264858"><ele>403.5</ele><time>2026-04-24T08:19:32.989Z</time></trkpt><trkpt lat="43.4769554" lon="12.2650306"><ele>401.0</ele><time>2026-04-24T08:19:33.99Z</time></trkpt><trkpt lat="43.4769185" lon="12.2652426"><ele>401.0</ele><time>2026-04-24T08:19:34.989Z</time></trkpt><trkpt lat="43.4768903" lon="12.2654737"><ele>401.0</ele><time>2026-04-24T08:19:35.989Z</time></trkpt><trkpt lat="43.4769585" lon="12.2657909"><ele>401.0</ele><time>2026-04-24T08:19:36.989Z</time></trkpt><trkpt lat="43.4770054" lon="12.266097"><ele>400.0</ele><time>2026-04-24T08:19:37.99Z</time></trkpt><trkpt lat="43.4770729" lon="12.266414"><ele>399.0</ele><time>2026-04-24T08:19:38.989Z</time></trkpt><trkpt lat="43.4771679" lon="12.2667223"><ele>407.0</ele><time>2026-04-24T08:19:39.989Z</time></trkpt><trkpt lat="43.4773034" lon="12.2670145"><ele>415.0</ele><time>2026-04-24T08:19:40.989Z</time></trkpt><trkpt lat="43.477474" lon="12.2672984"><ele>415.0</ele><time>2026-04-24T08:19:41.989Z</time></trkpt><trkpt lat="43.4776684" lon="12.267576"><ele>415.0</ele><time>2026-04-24T08:19:42.989Z</time></trkpt><trkpt lat="43.477866" lon="12.267859"><ele>420.5</ele><time>2026-04-24T08:19:43.989Z</time></trkpt><trkpt lat="43.4780617" lon="12.2681366"><ele>426.0</ele><time>2026-04-24T08:19:44.989Z</time></trkpt><trkpt lat="43.4782453" lon="12.2683876"><ele>426.0</ele><time>2026-04-24T08:19:45.989Z</time></trkpt><trkpt lat="43.4784373" lon="12.2686258"><ele>426.0</ele><time>2026-04-24T08:19:46.99Z</time></trkpt><trkpt lat="43.4786534" lon="12.2688372"><ele>427.5</ele><time>2026-04-24T08:19:47.99Z</time></trkpt><trkpt lat="43.4788846" lon="12.2690375"><ele>429.0</ele><time>2026-04-24T08:19:48.989Z</time></trkpt><trkpt lat="43.4791118" lon="12.2692416"><ele>429.0</ele><time>2026-04-24T08:19:49.99Z</time></trkpt><trkpt lat="43.4793312" lon="12.2694644"><ele>429.0</ele><time>2026-04-24T08:19:50.99Z</time></trkpt><trkpt lat="43.4795424" lon="12.2697107"><ele>434.0</ele><time>2026-04-24T08:19:51.989Z</time></trkpt><trkpt lat="43.4797531" lon="12.2699545"><ele>439.0</ele><time>2026-04-24T08:19:52.989Z</time></trkpt><trkpt lat="43.4799527" lon="12.27018"><ele>439.0</ele><time>2026-04-24T08:19:53.989Z</time></trkpt><trkpt lat="43.480135" lon="12.2704029"><ele>439.0</ele><time>2026-04-24T08:19:54.989Z</time></trkpt><trkpt lat="43.4802924" lon="12.2706674"><ele>434.0</ele><time>2026-04-24T08:19:55.989Z</time></trkpt><trkpt lat="43.480426" lon="12.2709636"><ele>429.0</ele><time>2026-04-24T08:19:56.989Z</time></trkpt><trkpt lat="43.480554" lon="12.2712715"><ele>438.0</ele><time>2026-04-24T08:19:57.989Z</time></trkpt><trkpt lat="43.4806742" lon="12.2715966"><ele>447.0</ele><time>2026-04-24T08:19:58.989Z</time></trkpt><trkpt lat="43.4807735" lon="12.2719278"><ele>447.0</ele><time>2026-04-24T08:19:59.989Z</time></trkpt><trkpt lat="43.4808516" lon="12.2722237"><ele>447.0</ele><time>2026-04-24T08:20:00.989Z</time></trkpt><trkpt lat="43.4809175" lon="12.2724843"><ele>447.0</ele><time>2026-04-24T08:20:01.989Z</time></trkpt><trkpt lat="43.4809629" lon="12.2727111"><ele>447.5</ele><time>2026-04-24T08:20:02.989Z</time></trkpt><trkpt lat="43.480969" lon="12.2729119"><ele>448.0</ele><time>2026-04-24T08:20:03.989Z</time></trkpt><trkpt lat="43.4809286" lon="12.2730846"><ele>448.5</ele><time>2026-04-24T08:20:04.989Z</time></trkpt><trkpt lat="43.4808478" lon="12.2732178"><ele>449.0</ele><time>2026-04-24T08:20:05.989Z</time></trkpt><trkpt lat="43.4807416" lon="12.273293"><ele>451.25</ele><time>2026-04-24T08:20:06.989Z</time></trkpt><trkpt lat="43.4806324" lon="12.2732973"><ele>453.5</ele><time>2026-04-24T08:20:07.989Z</time></trkpt><trkpt lat="43.4805221" lon="12.2732633"><ele>455.75</ele><time>2026-04-24T08:20:08.989Z</time></trkpt><trkpt lat="43.4804206" lon="12.2732103"><ele>458.0</ele><time>2026-04-24T08:20:09.989Z</time></trkpt><trkpt lat="43.4803125" lon="12.2731419"><ele>454.5</ele><time>2026-04-24T08:20:10.99Z</time></trkpt><trkpt lat="43.480209" lon="12.273064"><ele>451.0</ele><time>2026-04-24T08:20:11.989Z</time></trkpt><trkpt lat="43.480098" lon="12.2729992"><ele>447.5</ele><time>2026-04-24T08:20:12.989Z</time></trkpt><trkpt lat="43.47998" lon="12.2729553"><ele>444.0</ele><time>2026-04-24T08:20:13.989Z</time></trkpt><trkpt lat="43.4798618" lon="12.2729568"><ele>444.0</ele><time>2026-04-24T08:20:14.99Z</time></trkpt><trkpt lat="43.4797471" lon="12.2730015"><ele>444.0</ele><time>2026-04-24T08:20:15.989Z</time></trkpt><trkpt lat="43.4796521" lon="12.2730765"><ele>444.0</ele><time>2026-04-24T08:20:16.989Z</time></trkpt><trkpt lat="43.4795763" lon="12.2731874"><ele>444.0</ele><time>2026-04-24T08:20:17.99Z</time></trkpt><trkpt lat="43.4795383" lon="12.2733356"><ele>446.25</ele><time>2026-04-24T08:20:18.989Z</time></trkpt><trkpt lat="43.4795513" lon="12.2735057"><ele>448.5</ele><time>2026-04-24T08:20:19.989Z</time></trkpt><trkpt lat="43.4796003" lon="12.2736523"><ele>450.75</ele><time>2026-04-24T08:20:20.99Z</time></trkpt><trkpt lat="43.4796938" lon="12.2737793"><ele>453.0</ele><time>2026-04-24T08:20:21.989Z</time></trkpt><trkpt lat="43.47983" lon="12.2739018"><ele>454.0</ele><time>2026-04-24T08:20:22.989Z</time></trkpt><trkpt lat="43.479994" lon="12.2740467"><ele>455.0</ele><time>2026-04-24T08:20:23.99Z</time></trkpt><trkpt lat="43.4801745" lon="12.2741999"><ele>456.0</ele><time>2026-04-24T08:20:24.989Z</time></trkpt><trkpt lat="43.4803788" lon="12.2743165"><ele>457.5</ele><time>2026-04-24T08:20:25.989Z</time></trkpt><trkpt lat="43.4806045" lon="12.2743756"><ele>459.0</ele><time>2026-04-24T08:20:26.989Z</time></trkpt><trkpt lat="43.4808429" lon="12.2743624"><ele>459.0</ele><time>2026-04-24T08:20:27.989Z</time></trkpt><trkpt lat="43.4810887" lon="12.274341"><ele>459.0</ele><time>2026-04-24T08:20:28.989Z</time></trkpt><trkpt lat="43.4813487" lon="12.2743953"><ele>460.5</ele><time>2026-04-24T08:20:29.989Z</time></trkpt><trkpt lat="43.481615" lon="12.27448"><ele>462.0</ele><time>2026-04-24T08:20:30.989Z</time></trkpt><trkpt lat="43.4818602" lon="12.2745513"><ele>462.0</ele><time>2026-04-24T08:20:31.989Z</time></trkpt><trkpt lat="43.4820924" lon="12.274609"><ele>462.0</ele><time>2026-04-24T08:20:32.989Z</time></trkpt><trkpt lat="43.4823082" lon="12.2746737"><ele>462.0</ele><time>2026-04-24T08:20:33.99Z</time></trkpt><trkpt lat="43.4824966" lon="12.2748029"><ele>462.0</ele><time>2026-04-24T08:20:34.989Z</time></trkpt><trkpt lat="43.4826649" lon="12.2750071"><ele>462.0</ele><time>2026-04-24T08:20:35.989Z</time></trkpt><trkpt lat="43.4828135" lon="12.2752441"><ele>463.66666666666663</ele><time>2026-04-24T08:20:36.989Z</time></trkpt><trkpt lat="43.4829502" lon="12.2754662"><ele>465.3333333333333</ele><time>2026-04-24T08:20:37.989Z</time></trkpt><trkpt lat="43.4830705" lon="12.2756728"><ele>467.0</ele><time>2026-04-24T08:20:38.989Z</time></trkpt><trkpt lat="43.483142" lon="12.2758873"><ele>467.0</ele><time>2026-04-24T08:20:39.989Z</time></trkpt><trkpt lat="43.4831479" lon="12.2760937"><ele>467.0</ele><time>2026-04-24T08:20:40.989Z</time></trkpt><trkpt lat="43.4830814" lon="12.2762615"><ele>467.0</ele><time>2026-04-24T08:20:41.989Z</time></trkpt><trkpt lat="43.482993" lon="12.2764309"><ele>467.0</ele><time>2026-04-24T08:20:42.99Z</time></trkpt><trkpt lat="43.4827783" lon="12.27642"><ele>468.66666666666663</ele><time>2026-04-24T08:20:43.989Z</time></trkpt><trkpt lat="43.4825883" lon="12.2764228"><ele>470.33333333333337</ele><time>2026-04-24T08:20:44.989Z</time></trkpt><trkpt lat="43.4823907" lon="12.276436"><ele>472.0</ele><time>2026-04-24T08:20:45.989Z</time></trkpt><trkpt lat="43.4822157" lon="12.2764615"><ele>469.0</ele><time>2026-04-24T08:20:46.989Z</time></trkpt><trkpt lat="43.4820625" lon="12.2765279"><ele>466.0</ele><time>2026-04-24T08:20:47.989Z</time></trkpt><trkpt lat="43.4819396" lon="12.2766428"><ele>463.0</ele><time>2026-04-24T08:20:48.989Z</time></trkpt><trkpt lat="43.4818403" lon="12.2767777"><ele>460.0</ele><time>2026-04-24T08:20:49.989Z</time></trkpt><trkpt lat="43.4818684" lon="12.2770077"><ele>460.0</ele><time>2026-04-24T08:20:50.989Z</time></trkpt><trkpt lat="43.4819429" lon="12.2771991"><ele>460.0</ele><time>2026-04-24T08:20:51.989Z</time></trkpt><trkpt lat="43.4820598" lon="12.2773817"><ele>460.0</ele><time>2026-04-24T08:20:52.989Z</time></trkpt><trkpt lat="43.4822027" lon="12.277555"><ele>464.6666666666667</ele><time>2026-04-24T08:20:53.989Z</time></trkpt><trkpt lat="43.4823919" lon="12.2776577"><ele>469.33333333333337</ele><time>2026-04-24T08:20:54.989Z</time></trkpt><trkpt lat="43.4826122" lon="12.2777167"><ele>474.0</ele><time>2026-04-24T08:20:55.989Z</time></trkpt><trkpt lat="43.4828306" lon="12.2778413"><ele>472.5</ele><time>2026-04-24T08:20:56.989Z</time></trkpt><trkpt lat="43.4830513" lon="12.2780244"><ele>471.0</ele><time>2026-04-24T08:20:57.989Z</time></trkpt><trkpt lat="43.4832848" lon="12.2782308"><ele>471.0</ele><time>2026-04-24T08:20:58.989Z</time></trkpt><trkpt lat="43.4835197" lon="12.2784408"><ele>471.0</ele><time>2026-04-24T08:20:59.989Z</time></trkpt><trkpt lat="43.4837354" lon="12.2786293"><ele>470.5</ele><time>2026-04-24T08:21:00.989Z</time></trkpt><trkpt lat="43.4839363" lon="12.2788113"><ele>470.0</ele><time>2026-04-24T08:21:01.99Z</time></trkpt><trkpt lat="43.4841191" lon="12.2790233"><ele>472.5</ele><time>2026-04-24T08:21:02.989Z</time></trkpt><trkpt lat="43.4842841" lon="12.2792956"><ele>475.0</ele><time>2026-04-24T08:21:03.989Z</time></trkpt><trkpt lat="43.4844264" lon="12.2796034"><ele>473.0</ele><time>2026-04-24T08:21:04.989Z</time></trkpt><trkpt lat="43.4845597" lon="12.2798875"><ele>471.0</ele><time>2026-04-24T08:21:05.989Z</time></trkpt><trkpt lat="43.4846813" lon="12.2801537"><ele>475.0</ele><time>2026-04-24T08:21:06.989Z</time></trkpt><trkpt lat="43.4847912" lon="12.2804043"><ele>479.0</ele><time>2026-04-24T08:21:07.989Z</time></trkpt><trkpt lat="43.484883" lon="12.2806408"><ele>483.0</ele><time>2026-04-24T08:21:08.989Z</time></trkpt><trkpt lat="43.4849356" lon="12.2808826"><ele>484.0</ele><time>2026-04-24T08:21:09.989Z</time></trkpt><trkpt lat="43.4849268" lon="12.2811457"><ele>485.0</ele><time>2026-04-24T08:21:10.99Z</time></trkpt><trkpt lat="43.4848646" lon="12.2813628"><ele>486.0</ele><time>2026-04-24T08:21:11.99Z</time></trkpt><trkpt lat="43.4848126" lon="12.2815597"><ele>487.25</ele><time>2026-04-24T08:21:12.989Z</time></trkpt><trkpt lat="43.4848106" lon="12.2817362"><ele>488.5</ele><time>2026-04-24T08:21:13.989Z</time></trkpt><trkpt lat="43.484871" lon="12.2819108"><ele>489.75</ele><time>2026-04-24T08:21:14.989Z</time></trkpt><trkpt lat="43.4849974" lon="12.2820606"><ele>491.0</ele><time>2026-04-24T08:21:15.989Z</time></trkpt><trkpt lat="43.4851733" lon="12.2822014"><ele>492.5</ele><time>2026-04-24T08:21:16.989Z</time></trkpt><trkpt lat="43.4853821" lon="12.2823585"><ele>494.0</ele><time>2026-04-24T08:21:17.989Z</time></trkpt><trkpt lat="43.4856179" lon="12.2825258"><ele>494.0</ele><time>2026-04-24T08:21:18.989Z</time></trkpt><trkpt lat="43.485875" lon="12.2826953"><ele>494.0</ele><time>2026-04-24T08:21:19.989Z</time></trkpt><trkpt lat="43.4861525" lon="12.2828741"><ele>493.5</ele><time>2026-04-24T08:21:20.989Z</time></trkpt><trkpt lat="43.486439" lon="12.2830626"><ele>493.0</ele><time>2026-04-24T08:21:21.989Z</time></trkpt><trkpt lat="43.4867196" lon="12.2832497"><ele>489.5</ele><time>2026-04-24T08:21:22.989Z</time></trkpt><trkpt lat="43.4869835" lon="12.2834231"><ele>486.0</ele><time>2026-04-24T08:21:23.989Z</time></trkpt><trkpt lat="43.4872421" lon="12.2836041"><ele>487.5</ele><time>2026-04-24T08:21:24.989Z</time></trkpt><trkpt lat="43.4874734" lon="12.2838036"><ele>489.0</ele><time>2026-04-24T08:21:25.99Z</time></trkpt><trkpt lat="43.4876704" lon="12.2840128"><ele>489.0</ele><time>2026-04-24T08:21:26.989Z</time></trkpt><trkpt lat="43.487855" lon="12.2841889"><ele>489.0</ele><time>2026-04-24T08:21:27.989Z</time></trkpt><trkpt lat="43.4880675" lon="12.284325"><ele>496.5</ele><time>2026-04-24T08:21:28.99Z</time></trkpt><trkpt lat="43.4882906" lon="12.2843902"><ele>504.0</ele><time>2026-04-24T08:21:29.989Z</time></trkpt><trkpt lat="43.4885175" lon="12.2843911"><ele>504.0</ele><time>2026-04-24T08:21:30.989Z</time></trkpt><trkpt lat="43.4887298" lon="12.2843783"><ele>504.0</ele><time>2026-04-24T08:21:31.989Z</time></trkpt><trkpt lat="43.4889415" lon="12.2844331"><ele>504.0</ele><time>2026-04-24T08:21:32.989Z</time></trkpt><trkpt lat="43.489152" lon="12.284554"><ele>508.5</ele><time>2026-04-24T08:21:33.989Z</time></trkpt><trkpt lat="43.4893726" lon="12.2846942"><ele>513.0</ele><time>2026-04-24T08:21:34.99Z</time></trkpt><trkpt lat="43.489589" lon="12.2848371"><ele>511.0</ele><time>2026-04-24T08:21:35.989Z</time></trkpt><trkpt lat="43.489775" lon="12.2849777"><ele>509.0</ele><time>2026-04-24T08:21:36.989Z</time></trkpt><trkpt lat="43.4899196" lon="12.285132"><ele>507.0</ele><time>2026-04-24T08:21:37.989Z</time></trkpt><trkpt lat="43.4900104" lon="12.2853359"><ele>505.33333333333337</ele><time>2026-04-24T08:21:38.989Z</time></trkpt><trkpt lat="43.4900391" lon="12.2855962"><ele>503.6666666666667</ele><time>2026-04-24T08:21:39.989Z</time></trkpt><trkpt lat="43.4900382" lon="12.2858711"><ele>502.0</ele><time>2026-04-24T08:21:40.989Z</time></trkpt><trkpt lat="43.4900632" lon="12.2861569"><ele>502.0</ele><time>2026-04-24T08:21:41.99Z</time></trkpt><trkpt lat="43.4901184" lon="12.2864166"><ele>502.0</ele><time>2026-04-24T08:21:42.989Z</time></trkpt><trkpt lat="43.4902052" lon="12.286642"><ele>502.0</ele><time>2026-04-24T08:21:43.989Z</time></trkpt><trkpt lat="43.4903431" lon="12.2868353"><ele>501.0</ele><time>2026-04-24T08:21:44.989Z</time></trkpt><trkpt lat="43.4905173" lon="12.2870082"><ele>500.0</ele><time>2026-04-24T08:21:45.989Z</time></trkpt><trkpt lat="43.49071" lon="12.2871828"><ele>499.0</ele><time>2026-04-24T08:21:46.989Z</time></trkpt><trkpt lat="43.4909215" lon="12.2873642"><ele>499.0</ele><time>2026-04-24T08:21:47.989Z</time></trkpt><trkpt lat="43.4911482" lon="12.2875519"><ele>499.0</ele><time>2026-04-24T08:21:48.989Z</time></trkpt><trkpt lat="43.4913881" lon="12.2877499"><ele>498.5</ele><time>2026-04-24T08:21:49.989Z</time></trkpt><trkpt lat="43.4916391" lon="12.2879515"><ele>498.0</ele><time>2026-04-24T08:21:50.989Z</time></trkpt><trkpt lat="43.4918885" lon="12.288159"><ele>507.0</ele><time>2026-04-24T08:21:51.99Z</time></trkpt><trkpt lat="43.4921223" lon="12.2883564"><ele>516.0</ele><time>2026-04-24T08:21:52.989Z</time></trkpt><trkpt lat="43.492343" lon="12.2885574"><ele>516.0</ele><time>2026-04-24T08:21:53.989Z</time></trkpt><trkpt lat="43.4925543" lon="12.2888019"><ele>516.0</ele><time>2026-04-24T08:21:54.989Z</time></trkpt><trkpt lat="43.4927416" lon="12.289088"><ele>518.0</ele><time>2026-04-24T08:21:55.989Z</time></trkpt><trkpt lat="43.4929102" lon="12.289395"><ele>520.0</ele><time>2026-04-24T08:21:56.99Z</time></trkpt><trkpt lat="43.4930734" lon="12.2897045"><ele>517.5</ele><time>2026-04-24T08:21:57.989Z</time></trkpt><trkpt lat="43.4932254" lon="12.2899891"><ele>515.0</ele><time>2026-04-24T08:21:58.989Z</time></trkpt><trkpt lat="43.4933814" lon="12.2902538"><ele>515.0</ele><time>2026-04-24T08:21:59.989Z</time></trkpt><trkpt lat="43.4935618" lon="12.2904736"><ele>515.0</ele><time>2026-04-24T08:22:00.989Z</time></trkpt><trkpt lat="43.4937398" lon="12.29066"><ele>517.6666666666666</ele><time>2026-04-24T08:22:01.989Z</time></trkpt><trkpt lat="43.4938821" lon="12.2908921"><ele>520.3333333333334</ele><time>2026-04-24T08:22:02.99Z</time></trkpt><trkpt lat="43.4939698" lon="12.2911444"><ele>523.0</ele><time>2026-04-24T08:22:03.99Z</time></trkpt><trkpt lat="43.494022" lon="12.2914044"><ele>521.0</ele><time>2026-04-24T08:22:04.989Z</time></trkpt><trkpt lat="43.4941111" lon="12.2916649"><ele>519.0</ele><time>2026-04-24T08:22:05.989Z</time></trkpt><trkpt lat="43.4942563" lon="12.2919199"><ele>517.0</ele><time>2026-04-24T08:22:06.989Z</time></trkpt><trkpt lat="43.494426" lon="12.2921658"><ele>518.5</ele><time>2026-04-24T08:22:07.989Z</time></trkpt><trkpt lat="43.4946127" lon="12.2923861"><ele>520.0</ele><time>2026-04-24T08:22:08.99Z</time></trkpt><trkpt lat="43.4948077" lon="12.2925724"><ele>520.0</ele><time>2026-04-24T08:22:09.989Z</time></trkpt><trkpt lat="43.4950373" lon="12.2927243"><ele>520.0</ele><time>2026-04-24T08:22:10.989Z</time></trkpt><trkpt lat="43.4952911" lon="12.2928489"><ele>518.5</ele><time>2026-04-24T08:22:11.99Z</time></trkpt><trkpt lat="43.4955323" lon="12.2929859"><ele>517.0</ele><time>2026-04-24T08:22:12.989Z</time></trkpt><trkpt lat="43.4957656" lon="12.2931441"><ele>517.0</ele><time>2026-04-24T08:22:13.989Z</time></trkpt><trkpt lat="43.4959773" lon="12.2933336"><ele>517.0</ele><time>2026-04-24T08:22:14.989Z</time></trkpt><trkpt lat="43.4961541" lon="12.2935273"><ele>521.6666666666667</ele><time>2026-04-24T08:22:15.99Z</time></trkpt><trkpt lat="43.4962954" lon="12.2937165"><ele>526.3333333333334</ele><time>2026-04-24T08:22:16.989Z</time></trkpt><trkpt lat="43.4963982" lon="12.2939191"><ele>531.0</ele><time>2026-04-24T08:22:17.989Z</time></trkpt><trkpt lat="43.4964543" lon="12.2941335"><ele>531.0</ele><time>2026-04-24T08:22:18.989Z</time></trkpt><trkpt lat="43.4964426" lon="12.2943532"><ele>531.0</ele><time>2026-04-24T08:22:19.99Z</time></trkpt><trkpt lat="43.496368" lon="12.2945606"><ele>531.0</ele><time>2026-04-24T08:22:20.99Z</time></trkpt><trkpt lat="43.496228" lon="12.2947118"><ele>528.0</ele><time>2026-04-24T08:22:21.989Z</time></trkpt><trkpt lat="43.4960922" lon="12.2948233"><ele>525.0</ele><time>2026-04-24T08:22:22.989Z</time></trkpt><trkpt lat="43.4959847" lon="12.2949682"><ele>522.0</ele><time>2026-04-24T08:22:23.989Z</time></trkpt><trkpt lat="43.4959184" lon="12.2951521"><ele>522.0</ele><time>2026-04-24T08:22:24.989Z</time></trkpt><trkpt lat="43.4959166" lon="12.2953383"><ele>522.0</ele><time>2026-04-24T08:22:25.989Z</time></trkpt><trkpt lat="43.4959736" lon="12.2955051"><ele>522.0</ele><time>2026-04-24T08:22:26.989Z</time></trkpt><trkpt lat="43.4960891" lon="12.2956557"><ele>522.0</ele><time>2026-04-24T08:22:27.989Z</time></trkpt><trkpt lat="43.4962383" lon="12.295799"><ele>525.6666666666666</ele><time>2026-04-24T08:22:28.989Z</time></trkpt><trkpt lat="43.4964076" lon="12.2959582"><ele>529.3333333333333</ele><time>2026-04-24T08:22:29.99Z</time></trkpt><trkpt lat="43.496601" lon="12.2961316"><ele>533.0</ele><time>2026-04-24T08:22:30.989Z</time></trkpt><trkpt lat="43.4968117" lon="12.29632"><ele>532.0</ele><time>2026-04-24T08:22:31.99Z</time></trkpt><trkpt lat="43.4970452" lon="12.2964991"><ele>531.0</ele><time>2026-04-24T08:22:32.99Z</time></trkpt><trkpt lat="43.4972844" lon="12.2966291"><ele>531.0</ele><time>2026-04-24T08:22:33.989Z</time></trkpt><trkpt lat="43.4975111" lon="12.2967211"><ele>531.0</ele><time>2026-04-24T08:22:34.989Z</time></trkpt><trkpt lat="43.4977346" lon="12.2967789"><ele>534.3333333333334</ele><time>2026-04-24T08:22:35.989Z</time></trkpt><trkpt lat="43.4979506" lon="12.2967853"><ele>537.6666666666667</ele><time>2026-04-24T08:22:36.989Z</time></trkpt><trkpt lat="43.4981392" lon="12.2968061"><ele>541.0</ele><time>2026-04-24T08:22:37.989Z</time></trkpt><trkpt lat="43.4983022" lon="12.2968929"><ele>541.0</ele><time>2026-04-24T08:22:38.99Z</time></trkpt><trkpt lat="43.4984328" lon="12.2970374"><ele>541.0</ele><time>2026-04-24T08:22:39.989Z</time></trkpt><trkpt lat="43.498517" lon="12.2972142"><ele>541.0</ele><time>2026-04-24T08:22:40.99Z</time></trkpt><trkpt lat="43.4985386" lon="12.2974014"><ele>538.5</ele><time>2026-04-24T08:22:41.989Z</time></trkpt><trkpt lat="43.4984878" lon="12.2975758"><ele>536.0</ele><time>2026-04-24T08:22:42.989Z</time></trkpt><trkpt lat="43.4983858" lon="12.2976899"><ele>533.5</ele><time>2026-04-24T08:22:43.989Z</time></trkpt><trkpt lat="43.4982622" lon="12.2977818"><ele>531.0</ele><time>2026-04-24T08:22:44.989Z</time></trkpt><trkpt lat="43.4981779" lon="12.2978959"><ele>531.0</ele><time>2026-04-24T08:22:45.991Z</time></trkpt><trkpt lat="43.4981416" lon="12.2980581"><ele>531.0</ele><time>2026-04-24T08:22:46.989Z</time></trkpt><trkpt lat="43.4981789" lon="12.2982444"><ele>531.0</ele><time>2026-04-24T08:22:47.989Z</time></trkpt><trkpt lat="43.4982674" lon="12.298454"><ele>531.0</ele><time>2026-04-24T08:22:48.989Z</time></trkpt><trkpt lat="43.4983787" lon="12.2987048"><ele>528.5</ele><time>2026-04-24T08:22:49.99Z</time></trkpt><trkpt lat="43.4985048" lon="12.298977"><ele>526.0</ele><time>2026-04-24T08:22:50.989Z</time></trkpt><trkpt lat="43.4986653" lon="12.2992269"><ele>534.0</ele><time>2026-04-24T08:22:51.99Z</time></trkpt><trkpt lat="43.4988307" lon="12.2994658"><ele>542.0</ele><time>2026-04-24T08:22:52.989Z</time></trkpt><trkpt lat="43.4989547" lon="12.2997645"><ele>542.0</ele><time>2026-04-24T08:22:53.989Z</time></trkpt><trkpt lat="43.499032" lon="12.3001117"><ele>542.0</ele><time>2026-04-24T08:22:54.99Z</time></trkpt><trkpt lat="43.4991136" lon="12.3004656"><ele>538.0</ele><time>2026-04-24T08:22:55.989Z</time></trkpt><trkpt lat="43.4992069" lon="12.3008042"><ele>534.0</ele><time>2026-04-24T08:22:56.989Z</time></trkpt><trkpt lat="43.4992841" lon="12.3011267"><ele>532.0</ele><time>2026-04-24T08:22:57.99Z</time></trkpt><trkpt lat="43.4993526" lon="12.3014303"><ele>530.0</ele><time>2026-04-24T08:22:58.989Z</time></trkpt><trkpt lat="43.4994302" lon="12.3017086"><ele>528.0</ele><time>2026-04-24T08:22:59.989Z</time></trkpt><trkpt lat="43.4995453" lon="12.3019662"><ele>530.3333333333334</ele><time>2026-04-24T08:23:00.989Z</time></trkpt><trkpt lat="43.4997018" lon="12.302195"><ele>532.6666666666667</ele><time>2026-04-24T08:23:01.989Z</time></trkpt><trkpt lat="43.4998722" lon="12.3023801"><ele>535.0</ele><time>2026-04-24T08:23:02.989Z</time></trkpt><trkpt lat="43.5000393" lon="12.3025215"><ele>535.0</ele><time>2026-04-24T08:23:03.989Z</time></trkpt><trkpt lat="43.5001963" lon="12.3026164"><ele>535.0</ele><time>2026-04-24T08:23:04.99Z</time></trkpt><trkpt lat="43.5003498" lon="12.3026342"><ele>535.0</ele><time>2026-04-24T08:23:05.99Z</time></trkpt><trkpt lat="43.5005133" lon="12.3025719"><ele>536.6666666666667</ele><time>2026-04-24T08:23:06.99Z</time></trkpt><trkpt lat="43.5006824" lon="12.3024804"><ele>538.3333333333334</ele><time>2026-04-24T08:23:07.989Z</time></trkpt><trkpt lat="43.5008699" lon="12.3024661"><ele>540.0</ele><time>2026-04-24T08:23:08.989Z</time></trkpt><trkpt lat="43.501061" lon="12.3025139"><ele>544.3333333333334</ele><time>2026-04-24T08:23:09.989Z</time></trkpt><trkpt lat="43.5012503" lon="12.302641"><ele>548.6666666666667</ele><time>2026-04-24T08:23:10.989Z</time></trkpt><trkpt lat="43.5014376" lon="12.3028306"><ele>553.0</ele><time>2026-04-24T08:23:11.989Z</time></trkpt><trkpt lat="43.5016416" lon="12.3030377"><ele>552.5</ele><time>2026-04-24T08:23:12.989Z</time></trkpt><trkpt lat="43.5018637" lon="12.3032389"><ele>552.0</ele><time>2026-04-24T08:23:13.989Z</time></trkpt><trkpt lat="43.5020916" lon="12.3034404"><ele>552.0</ele><time>2026-04-24T08:23:14.99Z</time></trkpt><trkpt lat="43.5023207" lon="12.303631"><ele>552.0</ele><time>2026-04-24T08:23:15.989Z</time></trkpt><trkpt lat="43.5025474" lon="12.3038026"><ele>545.5</ele><time>2026-04-24T08:23:16.989Z</time></trkpt><trkpt lat="43.5027637" lon="12.3039434"><ele>539.0</ele><time>2026-04-24T08:23:17.989Z</time></trkpt><trkpt lat="43.5029696" lon="12.3040687"><ele>539.0</ele><time>2026-04-24T08:23:18.989Z</time></trkpt><trkpt lat="43.5031623" lon="12.3041896"><ele>539.0</ele><time>2026-04-24T08:23:19.99Z</time></trkpt><trkpt lat="43.503346" lon="12.3043108"><ele>539.0</ele><time>2026-04-24T08:23:20.99Z</time></trkpt><trkpt lat="43.5035144" lon="12.3044636"><ele>539.0</ele><time>2026-04-24T08:23:21.989Z</time></trkpt><trkpt lat="43.5036557" lon="12.3046506"><ele>539.0</ele><time>2026-04-24T08:23:22.989Z</time></trkpt><trkpt lat="43.5037628" lon="12.3048701"><ele>539.0</ele><time>2026-04-24T08:23:23.99Z</time></trkpt><trkpt lat="43.5038327" lon="12.3051157"><ele>540.0</ele><time>2026-04-24T08:23:24.989Z</time></trkpt><trkpt lat="43.5038739" lon="12.3053715"><ele>541.0</ele><time>2026-04-24T08:23:25.989Z</time></trkpt><trkpt lat="43.5039103" lon="12.30563"><ele>542.0</ele><time>2026-04-24T08:23:26.989Z</time></trkpt><trkpt lat="43.5039442" lon="12.3058918"><ele>542.0</ele><time>2026-04-24T08:23:27.99Z</time></trkpt><trkpt lat="43.5039697" lon="12.3061605"><ele>542.0</ele><time>2026-04-24T08:23:28.989Z</time></trkpt><trkpt lat="43.5039857" lon="12.306431"><ele>542.0</ele><time>2026-04-24T08:23:29.989Z</time></trkpt><trkpt lat="43.5040031" lon="12.3066845"><ele>543.6666666666666</ele><time>2026-04-24T08:23:30.99Z</time></trkpt><trkpt lat="43.5040247" lon="12.3069186"><ele>545.3333333333334</ele><time>2026-04-24T08:23:31.99Z</time></trkpt><trkpt lat="43.5040565" lon="12.3071377"><ele>547.0</ele><time>2026-04-24T08:23:32.989Z</time></trkpt><trkpt lat="43.5041117" lon="12.3073484"><ele>548.6666666666667</ele><time>2026-04-24T08:23:33.99Z</time></trkpt><trkpt lat="43.5042029" lon="12.3075415"><ele>550.3333333333334</ele><time>2026-04-24T08:23:34.99Z</time></trkpt><trkpt lat="43.5043258" lon="12.3077096"><ele>552.0</ele><time>2026-04-24T08:23:35.99Z</time></trkpt><trkpt lat="43.5044566" lon="12.3078785"><ele>551.6666666666666</ele><time>2026-04-24T08:23:36.989Z</time></trkpt><trkpt lat="43.504594" lon="12.3080454"><ele>551.3333333333333</ele><time>2026-04-24T08:23:37.99Z</time></trkpt><trkpt lat="43.5047352" lon="12.3082167"><ele>551.0</ele><time>2026-04-24T08:23:38.99Z</time></trkpt><trkpt lat="43.5048788" lon="12.3083901"><ele>551.6666666666666</ele><time>2026-04-24T08:23:39.989Z</time></trkpt><trkpt lat="43.505028" lon="12.3085667"><ele>552.3333333333334</ele><time>2026-04-24T08:23:40.989Z</time></trkpt><trkpt lat="43.5051816" lon="12.3087482"><ele>553.0</ele><time>2026-04-24T08:23:41.99Z</time></trkpt><trkpt lat="43.5053339" lon="12.3089323"><ele>555.6666666666667</ele><time>2026-04-24T08:23:42.989Z</time></trkpt><trkpt lat="43.505468" lon="12.3091258"><ele>558.3333333333334</ele><time>2026-04-24T08:23:43.989Z</time></trkpt><trkpt lat="43.5055602" lon="12.3093592"><ele>561.0</ele><time>2026-04-24T08:23:44.99Z</time></trkpt><trkpt lat="43.5055946" lon="12.3096116"><ele>564.0</ele><time>2026-04-24T08:23:45.989Z</time></trkpt><trkpt lat="43.5055901" lon="12.3098697"><ele>567.0</ele><time>2026-04-24T08:23:46.989Z</time></trkpt><trkpt lat="43.5056076" lon="12.3101252"><ele>570.0</ele><time>2026-04-24T08:23:47.99Z</time></trkpt><trkpt lat="43.5056773" lon="12.3103741"><ele>569.3333333333334</ele><time>2026-04-24T08:23:48.989Z</time></trkpt><trkpt lat="43.5057892" lon="12.3106143"><ele>568.6666666666667</ele><time>2026-04-24T08:23:49.989Z</time></trkpt><trkpt lat="43.5059239" lon="12.3108484"><ele>568.0</ele><time>2026-04-24T08:23:50.989Z</time></trkpt><trkpt lat="43.5060527" lon="12.3110908"><ele>568.0</ele><time>2026-04-24T08:23:51.989Z</time></trkpt><trkpt lat="43.506159" lon="12.311351"><ele>568.0</ele><time>2026-04-24T08:23:52.989Z</time></trkpt><trkpt lat="43.5062239" lon="12.3116247"><ele>568.0</ele><time>2026-04-24T08:23:53.99Z</time></trkpt><trkpt lat="43.5062839" lon="12.311887"><ele>570.3333333333334</ele><time>2026-04-24T08:23:54.989Z</time></trkpt><trkpt lat="43.5063715" lon="12.3121522"><ele>572.6666666666666</ele><time>2026-04-24T08:23:55.989Z</time></trkpt><trkpt lat="43.5064955" lon="12.3124095"><ele>575.0</ele><time>2026-04-24T08:23:56.989Z</time></trkpt><trkpt lat="43.5066335" lon="12.3126663"><ele>575.0</ele><time>2026-04-24T08:23:57.989Z</time></trkpt><trkpt lat="43.5067802" lon="12.3129284"><ele>575.0</ele><time>2026-04-24T08:23:58.989Z</time></trkpt><trkpt lat="43.5069131" lon="12.3131744"><ele>573.3333333333333</ele><time>2026-04-24T08:23:59.989Z</time></trkpt><trkpt lat="43.5070205" lon="12.3134236"><ele>571.6666666666666</ele><time>2026-04-24T08:24:00.989Z</time></trkpt><trkpt lat="43.507085" lon="12.3136813"><ele>570.0</ele><time>2026-04-24T08:24:01.989Z</time></trkpt><trkpt lat="43.5071201" lon="12.3139394"><ele>574.3333333333334</ele><time>2026-04-24T08:24:02.989Z</time></trkpt><trkpt lat="43.5071372" lon="12.3142113"><ele>578.6666666666667</ele><time>2026-04-24T08:24:03.989Z</time></trkpt><trkpt lat="43.5071511" lon="12.3145011"><ele>583.0</ele><time>2026-04-24T08:24:04.989Z</time></trkpt><trkpt lat="43.5071594" lon="12.3148065"><ele>584.6666666666667</ele><time>2026-04-24T08:24:05.989Z</time></trkpt><trkpt lat="43.5071591" lon="12.3151224"><ele>586.3333333333334</ele><time>2026-04-24T08:24:06.99Z</time></trkpt><trkpt lat="43.507142" lon="12.3154182"><ele>588.0</ele><time>2026-04-24T08:24:07.989Z</time></trkpt><trkpt lat="43.5071184" lon="12.3156729"><ele>588.6666666666666</ele><time>2026-04-24T08:24:08.99Z</time></trkpt><trkpt lat="43.507111" lon="12.3159062"><ele>589.3333333333333</ele><time>2026-04-24T08:24:09.989Z</time></trkpt><trkpt lat="43.5071343" lon="12.3161281"><ele>590.0</ele><time>2026-04-24T08:24:11.47Z</time></trkpt><trkpt lat="43.5072773" lon="12.3163829"><ele>591.0</ele><time>2026-04-24T08:24:12.653Z</time></trkpt><trkpt lat="43.5074765" lon="12.3168398"><ele>592.0</ele><time>2026-04-24T08:24:13.99Z</time></trkpt><trkpt lat="43.5075303" lon="12.3170729"><ele>592.0</ele><time>2026-04-24T08:24:14.989Z</time></trkpt><trkpt lat="43.5075386" lon="12.3172824"><ele>592.0</ele><time>2026-04-24T08:24:15.989Z</time></trkpt><trkpt lat="43.5074793" lon="12.3174848"><ele>592.0</ele><time>2026-04-24T08:24:16.989Z</time></trkpt><trkpt lat="43.5073634" lon="12.317631"><ele>592.0</ele><time>2026-04-24T08:24:17.989Z</time></trkpt><trkpt lat="43.5072087" lon="12.3177044"><ele>592.0</ele><time>2026-04-24T08:24:18.99Z</time></trkpt><trkpt lat="43.5070322" lon="12.317689"><ele>592.0</ele><time>2026-04-24T08:24:19.99Z</time></trkpt><trkpt lat="43.5068782" lon="12.3176048"><ele>592.0</ele><time>2026-04-24T08:24:20.989Z</time></trkpt><trkpt lat="43.5067156" lon="12.3175001"><ele>592.0</ele><time>2026-04-24T08:24:21.989Z</time></trkpt><trkpt lat="43.5065315" lon="12.3174771"><ele>592.0</ele><time>2026-04-24T08:24:22.989Z</time></trkpt><trkpt lat="43.5063466" lon="12.3175196"><ele>592.0</ele><time>2026-04-24T08:24:23.989Z</time></trkpt><trkpt lat="43.506192" lon="12.3176239"><ele>592.0</ele><time>2026-04-24T08:24:24.989Z</time></trkpt><trkpt lat="43.5060611" lon="12.3178085"><ele>592.0</ele><time>2026-04-24T08:24:25.989Z</time></trkpt><trkpt lat="43.5059773" lon="12.3180285"><ele>595.75</ele><time>2026-04-24T08:24:26.989Z</time></trkpt><trkpt lat="43.5058955" lon="12.3181993"><ele>599.5</ele><time>2026-04-24T08:24:27.99Z</time></trkpt><trkpt lat="43.5057833" lon="12.3183158"><ele>603.25</ele><time>2026-04-24T08:24:28.989Z</time></trkpt><trkpt lat="43.5056456" lon="12.3183321"><ele>607.0</ele><time>2026-04-24T08:24:29.989Z</time></trkpt><trkpt lat="43.5054892" lon="12.3182971"><ele>606.6666666666667</ele><time>2026-04-24T08:24:30.989Z</time></trkpt><trkpt lat="43.5053269" lon="12.3182659"><ele>606.3333333333334</ele><time>2026-04-24T08:24:31.99Z</time></trkpt><trkpt lat="43.5051845" lon="12.3182608"><ele>606.0</ele><time>2026-04-24T08:24:32.99Z</time></trkpt><trkpt lat="43.5050407" lon="12.3183171"><ele>606.0</ele><time>2026-04-24T08:24:33.989Z</time></trkpt><trkpt lat="43.5049222" lon="12.3184484"><ele>606.0</ele><time>2026-04-24T08:24:34.989Z</time></trkpt><trkpt lat="43.504842" lon="12.3186528"><ele>606.0</ele><time>2026-04-24T08:24:35.99Z</time></trkpt><trkpt lat="43.5047995" lon="12.3189141"><ele>608.6666666666666</ele><time>2026-04-24T08:24:36.989Z</time></trkpt><trkpt lat="43.5047784" lon="12.319196"><ele>611.3333333333333</ele><time>2026-04-24T08:24:37.99Z</time></trkpt><trkpt lat="43.5047747" lon="12.3194544"><ele>614.0</ele><time>2026-04-24T08:24:38.989Z</time></trkpt><trkpt lat="43.5048278" lon="12.3197285"><ele>614.3333333333333</ele><time>2026-04-24T08:24:39.99Z</time></trkpt><trkpt lat="43.5049363" lon="12.3199913"><ele>614.6666666666666</ele><time>2026-04-24T08:24:40.989Z</time></trkpt><trkpt lat="43.505038" lon="12.3202678"><ele>615.0</ele><time>2026-04-24T08:24:41.989Z</time></trkpt><trkpt lat="43.5050954" lon="12.3205744"><ele>615.3333333333334</ele><time>2026-04-24T08:24:42.989Z</time></trkpt><trkpt lat="43.5051165" lon="12.3208422"><ele>615.6666666666667</ele><time>2026-04-24T08:24:43.99Z</time></trkpt><trkpt lat="43.5051618" lon="12.3210972"><ele>616.0</ele><time>2026-04-24T08:24:44.989Z</time></trkpt><trkpt lat="43.5052674" lon="12.3213581"><ele>621.5</ele><time>2026-04-24T08:24:45.99Z</time></trkpt><trkpt lat="43.5054275" lon="12.3215957"><ele>627.0</ele><time>2026-04-24T08:24:46.989Z</time></trkpt><trkpt lat="43.5056323" lon="12.321802"><ele>627.0</ele><time>2026-04-24T08:24:47.989Z</time></trkpt><trkpt lat="43.5058702" lon="12.3219866"><ele>627.0</ele><time>2026-04-24T08:24:48.989Z</time></trkpt><trkpt lat="43.5061314" lon="12.3221599"><ele>627.5</ele><time>2026-04-24T08:24:49.989Z</time></trkpt><trkpt lat="43.5063897" lon="12.3223394"><ele>628.0</ele><time>2026-04-24T08:24:50.989Z</time></trkpt><trkpt lat="43.5066198" lon="12.322511"><ele>628.0</ele><time>2026-04-24T08:24:51.989Z</time></trkpt><trkpt lat="43.5068298" lon="12.3227021"><ele>628.0</ele><time>2026-04-24T08:24:52.989Z</time></trkpt><trkpt lat="43.5070217" lon="12.3229575"><ele>632.0</ele><time>2026-04-24T08:24:53.989Z</time></trkpt><trkpt lat="43.5072011" lon="12.3232464"><ele>636.0</ele><time>2026-04-24T08:24:54.989Z</time></trkpt><trkpt lat="43.5073709" lon="12.3235168"><ele>636.0</ele><time>2026-04-24T08:24:55.989Z</time></trkpt><trkpt lat="43.5075292" lon="12.3237638"><ele>636.0</ele><time>2026-04-24T08:24:56.989Z</time></trkpt><trkpt lat="43.5076856" lon="12.3239958"><ele>631.0</ele><time>2026-04-24T08:24:57.989Z</time></trkpt><trkpt lat="43.5078773" lon="12.3242081"><ele>626.0</ele><time>2026-04-24T08:24:58.99Z</time></trkpt><trkpt lat="43.5081041" lon="12.3243853"><ele>636.0</ele><time>2026-04-24T08:24:59.989Z</time></trkpt><trkpt lat="43.5083372" lon="12.3245419"><ele>646.0</ele><time>2026-04-24T08:25:00.989Z</time></trkpt><trkpt lat="43.5085485" lon="12.324697"><ele>647.0</ele><time>2026-04-24T08:25:01.989Z</time></trkpt><trkpt lat="43.5087536" lon="12.3248785"><ele>648.0</ele><time>2026-04-24T08:25:02.989Z</time></trkpt><trkpt lat="43.5089256" lon="12.3250928"><ele>648.0</ele><time>2026-04-24T08:25:03.99Z</time></trkpt><trkpt lat="43.5090656" lon="12.3253096"><ele>648.0</ele><time>2026-04-24T08:25:04.99Z</time></trkpt><trkpt lat="43.5092037" lon="12.3254986"><ele>648.0</ele><time>2026-04-24T08:25:05.989Z</time></trkpt><trkpt lat="43.5093668" lon="12.3256479"><ele>649.0</ele><time>2026-04-24T08:25:06.989Z</time></trkpt><trkpt lat="43.5095761" lon="12.3257475"><ele>650.0</ele><time>2026-04-24T08:25:07.989Z</time></trkpt><trkpt lat="43.5098086" lon="12.3257847"><ele>650.0</ele><time>2026-04-24T08:25:08.989Z</time></trkpt><trkpt lat="43.5100441" lon="12.3257931"><ele>650.0</ele><time>2026-04-24T08:25:09.989Z</time></trkpt><trkpt lat="43.5102499" lon="12.3258159"><ele>650.0</ele><time>2026-04-24T08:25:10.989Z</time></trkpt><trkpt lat="43.5104076" lon="12.325865"><ele>651.0</ele><time>2026-04-24T08:25:11.989Z</time></trkpt><trkpt lat="43.510523" lon="12.3259643"><ele>652.0</ele><time>2026-04-24T08:25:12.99Z</time></trkpt><trkpt lat="43.5105906" lon="12.326124"><ele>653.0</ele><time>2026-04-24T08:25:13.989Z</time></trkpt><trkpt lat="43.5105868" lon="12.3263247"><ele>654.0</ele><time>2026-04-24T08:25:14.989Z</time></trkpt><trkpt lat="43.5105179" lon="12.3265196"><ele>655.3333333333334</ele><time>2026-04-24T08:25:15.989Z</time></trkpt><trkpt lat="43.5104184" lon="12.3267283"><ele>656.6666666666667</ele><time>2026-04-24T08:25:16.989Z</time></trkpt><trkpt lat="43.5103071" lon="12.3269594"><ele>658.0</ele><time>2026-04-24T08:25:17.99Z</time></trkpt><trkpt lat="43.510175" lon="12.3271935"><ele>658.3333333333334</ele><time>2026-04-24T08:25:18.989Z</time></trkpt><trkpt lat="43.5100196" lon="12.3273813"><ele>658.6666666666666</ele><time>2026-04-24T08:25:19.989Z</time></trkpt><trkpt lat="43.5098439" lon="12.3274919"><ele>659.0</ele><time>2026-04-24T08:25:20.989Z</time></trkpt><trkpt lat="43.5096433" lon="12.3275313"><ele>657.0</ele><time>2026-04-24T08:25:21.989Z</time></trkpt><trkpt lat="43.5094329" lon="12.3275549"><ele>655.0</ele><time>2026-04-24T08:25:22.989Z</time></trkpt><trkpt lat="43.5092313" lon="12.3275899"><ele>653.0</ele><time>2026-04-24T08:25:23.989Z</time></trkpt><trkpt lat="43.509048" lon="12.3276397"><ele>653.0</ele><time>2026-04-24T08:25:24.989Z</time></trkpt><trkpt lat="43.5088867" lon="12.3277443"><ele>653.0</ele><time>2026-04-24T08:25:25.989Z</time></trkpt><trkpt lat="43.5087676" lon="12.3279068"><ele>653.0</ele><time>2026-04-24T08:25:26.99Z</time></trkpt><trkpt lat="43.5086913" lon="12.3281232"><ele>653.6666666666666</ele><time>2026-04-24T08:25:27.989Z</time></trkpt><trkpt lat="43.5086689" lon="12.328374"><ele>654.3333333333334</ele><time>2026-04-24T08:25:28.989Z</time></trkpt><trkpt lat="43.5087116" lon="12.3286597"><ele>655.0</ele><time>2026-04-24T08:25:29.989Z</time></trkpt><trkpt lat="43.5087877" lon="12.3288969"><ele>658.6666666666667</ele><time>2026-04-24T08:25:30.989Z</time></trkpt><trkpt lat="43.5088864" lon="12.3290864"><ele>662.3333333333334</ele><time>2026-04-24T08:25:31.989Z</time></trkpt><trkpt lat="43.5090002" lon="12.3292459"><ele>666.0</ele><time>2026-04-24T08:25:32.988Z</time></trkpt><trkpt lat="43.5091575" lon="12.3292744"><ele>666.0</ele><time>2026-04-24T08:25:33.989Z</time></trkpt><trkpt lat="43.5092913" lon="12.3292941"><ele>666.0</ele><time>2026-04-24T08:25:34.988Z</time></trkpt><trkpt lat="43.5094173" lon="12.3292622"><ele>666.0</ele><time>2026-04-24T08:25:35.989Z</time></trkpt><trkpt lat="43.5095402" lon="12.3291898"><ele>666.0</ele><time>2026-04-24T08:25:36.99Z</time></trkpt><trkpt lat="43.5096823" lon="12.3290534"><ele>666.0</ele><time>2026-04-24T08:25:37.988Z</time></trkpt><trkpt lat="43.5098566" lon="12.3289062"><ele>666.0</ele><time>2026-04-24T08:25:38.988Z</time></trkpt><trkpt lat="43.5100608" lon="12.3287489"><ele>666.0</ele><time>2026-04-24T08:25:39.989Z</time></trkpt><trkpt lat="43.5102465" lon="12.3286119"><ele>665.3333333333334</ele><time>2026-04-24T08:25:40.988Z</time></trkpt><trkpt lat="43.5104446" lon="12.3285103"><ele>664.6666666666667</ele><time>2026-04-24T08:25:41.988Z</time></trkpt><trkpt lat="43.5106664" lon="12.3284892"><ele>664.0</ele><time>2026-04-24T08:25:42.989Z</time></trkpt><trkpt lat="43.5109089" lon="12.3285381"><ele>664.0</ele><time>2026-04-24T08:25:43.988Z</time></trkpt><trkpt lat="43.5111696" lon="12.3286156"><ele>664.0</ele><time>2026-04-24T08:25:44.988Z</time></trkpt><trkpt lat="43.5114473" lon="12.3286886"><ele>670.5</ele><time>2026-04-24T08:25:45.988Z</time></trkpt><trkpt lat="43.5117198" lon="12.32876"><ele>677.0</ele><time>2026-04-24T08:25:46.988Z</time></trkpt><trkpt lat="43.5119602" lon="12.32883"><ele>675.0</ele><time>2026-04-24T08:25:47.989Z</time></trkpt><trkpt lat="43.5121641" lon="12.328895"><ele>673.0</ele><time>2026-04-24T08:25:48.988Z</time></trkpt><trkpt lat="43.5123409" lon="12.3289808"><ele>671.0</ele><time>2026-04-24T08:25:49.988Z</time></trkpt><trkpt lat="43.5124809" lon="12.3291403"><ele>671.0</ele><time>2026-04-24T08:25:50.988Z</time></trkpt><trkpt lat="43.5125735" lon="12.3293622"><ele>671.0</ele><time>2026-04-24T08:25:51.988Z</time></trkpt><trkpt lat="43.5126015" lon="12.3296195"><ele>671.0</ele><time>2026-04-24T08:25:52.989Z</time></trkpt><trkpt lat="43.5125907" lon="12.3298529"><ele>668.75</ele><time>2026-04-24T08:25:53.988Z</time></trkpt><trkpt lat="43.5125989" lon="12.3300457"><ele>666.5</ele><time>2026-04-24T08:25:54.988Z</time></trkpt><trkpt lat="43.5126445" lon="12.3302236"><ele>664.25</ele><time>2026-04-24T08:25:55.988Z</time></trkpt><trkpt lat="43.5127463" lon="12.3303631"><ele>662.0</ele><time>2026-04-24T08:25:56.989Z</time></trkpt><trkpt lat="43.5128946" lon="12.3304389"><ele>664.3333333333333</ele><time>2026-04-24T08:25:57.988Z</time></trkpt><trkpt lat="43.5130773" lon="12.3304569"><ele>666.6666666666666</ele><time>2026-04-24T08:25:58.988Z</time></trkpt><trkpt lat="43.5132757" lon="12.3304866"><ele>669.0</ele><time>2026-04-24T08:25:59.989Z</time></trkpt><trkpt lat="43.5134501" lon="12.3305598"><ele>669.0</ele><time>2026-04-24T08:26:00.989Z</time></trkpt><trkpt lat="43.513587" lon="12.3307018"><ele>669.0</ele><time>2026-04-24T08:26:01.988Z</time></trkpt><trkpt lat="43.5136745" lon="12.3309018"><ele>669.0</ele><time>2026-04-24T08:26:02.988Z</time></trkpt><trkpt lat="43.5136946" lon="12.3311189"><ele>669.0</ele><time>2026-04-24T08:26:03.988Z</time></trkpt><trkpt lat="43.5137022" lon="12.3313191"><ele>669.0</ele><time>2026-04-24T08:26:04.988Z</time></trkpt><trkpt lat="43.513763" lon="12.3314955"><ele>669.0</ele><time>2026-04-24T08:26:05.988Z</time></trkpt><trkpt lat="43.5138631" lon="12.3316209"><ele>669.0</ele><time>2026-04-24T08:26:06.988Z</time></trkpt><trkpt lat="43.5140103" lon="12.3316697"><ele>671.0</ele><time>2026-04-24T08:26:07.988Z</time></trkpt><trkpt lat="43.5141897" lon="12.3316467"><ele>673.0</ele><time>2026-04-24T08:26:08.988Z</time></trkpt><trkpt lat="43.5143659" lon="12.3315492"><ele>675.0</ele><time>2026-04-24T08:26:09.988Z</time></trkpt><trkpt lat="43.5145361" lon="12.3314363"><ele>679.6666666666666</ele><time>2026-04-24T08:26:10.989Z</time></trkpt><trkpt lat="43.5147193" lon="12.3313956"><ele>684.3333333333333</ele><time>2026-04-24T08:26:11.988Z</time></trkpt><trkpt lat="43.5148876" lon="12.3314383"><ele>689.0</ele><time>2026-04-24T08:26:12.99Z</time></trkpt><trkpt lat="43.515053" lon="12.3314947"><ele>689.0</ele><time>2026-04-24T08:26:13.988Z</time></trkpt><trkpt lat="43.5151391" lon="12.3317942"><ele>689.0</ele><time>2026-04-24T08:26:14.988Z</time></trkpt><trkpt lat="43.5152685" lon="12.3320327"><ele>695.5</ele><time>2026-04-24T08:26:15.988Z</time></trkpt><trkpt lat="43.5154245" lon="12.3322838"><ele>702.0</ele><time>2026-04-24T08:26:16.988Z</time></trkpt><trkpt lat="43.5155746" lon="12.332498"><ele>702.0</ele><time>2026-04-24T08:26:17.989Z</time></trkpt><trkpt lat="43.5156966" lon="12.3327025"><ele>702.0</ele><time>2026-04-24T08:26:18.989Z</time></trkpt><trkpt lat="43.5157782" lon="12.332902"><ele>702.0</ele><time>2026-04-24T08:26:19.988Z</time></trkpt><trkpt lat="43.5158237" lon="12.3331005"><ele>698.3333333333334</ele><time>2026-04-24T08:26:20.988Z</time></trkpt><trkpt lat="43.5157334" lon="12.3332824"><ele>694.6666666666667</ele><time>2026-04-24T08:26:21.989Z</time></trkpt><trkpt lat="43.5156122" lon="12.333427"><ele>691.0</ele><time>2026-04-24T08:26:22.988Z</time></trkpt><trkpt lat="43.515478" lon="12.3335466"><ele>690.75</ele><time>2026-04-24T08:26:23.988Z</time></trkpt><trkpt lat="43.5153788" lon="12.3337112"><ele>690.5</ele><time>2026-04-24T08:26:24.988Z</time></trkpt><trkpt lat="43.5153276" lon="12.3339012"><ele>690.25</ele><time>2026-04-24T08:26:25.988Z</time></trkpt><trkpt lat="43.515338" lon="12.3340873"><ele>690.0</ele><time>2026-04-24T08:26:26.988Z</time></trkpt><trkpt lat="43.5154152" lon="12.3342542"><ele>690.0</ele><time>2026-04-24T08:26:27.988Z</time></trkpt><trkpt lat="43.5155534" lon="12.3343626"><ele>690.0</ele><time>2026-04-24T08:26:28.988Z</time></trkpt><trkpt lat="43.5157078" lon="12.3344661"><ele>690.0</ele><time>2026-04-24T08:26:29.988Z</time></trkpt><trkpt lat="43.5159353" lon="12.3345103"><ele>690.0</ele><time>2026-04-24T08:26:30.988Z</time></trkpt><trkpt lat="43.5161622" lon="12.334583"><ele>690.0</ele><time>2026-04-24T08:26:31.988Z</time></trkpt><trkpt lat="43.5164159" lon="12.3346522"><ele>685.0</ele><time>2026-04-24T08:26:32.988Z</time></trkpt><trkpt lat="43.5166868" lon="12.334725"><ele>680.0</ele><time>2026-04-24T08:26:33.988Z</time></trkpt><trkpt lat="43.5169698" lon="12.3348212"><ele>686.5</ele><time>2026-04-24T08:26:34.989Z</time></trkpt><trkpt lat="43.5172357" lon="12.3349362"><ele>693.0</ele><time>2026-04-24T08:26:35.989Z</time></trkpt><trkpt lat="43.5174667" lon="12.335043"><ele>693.0</ele><time>2026-04-24T08:26:36.989Z</time></trkpt><trkpt lat="43.5176575" lon="12.3351506"><ele>693.0</ele><time>2026-04-24T08:26:37.988Z</time></trkpt><trkpt lat="43.5178149" lon="12.3352951"><ele>693.0</ele><time>2026-04-24T08:26:38.988Z</time></trkpt><trkpt lat="43.5179219" lon="12.3355128"><ele>696.3333333333334</ele><time>2026-04-24T08:26:39.988Z</time></trkpt><trkpt lat="43.5179741" lon="12.3357901"><ele>699.6666666666667</ele><time>2026-04-24T08:26:40.988Z</time></trkpt><trkpt lat="43.5179798" lon="12.3360893"><ele>703.0</ele><time>2026-04-24T08:26:41.988Z</time></trkpt><trkpt lat="43.517931" lon="12.3363853"><ele>695.5</ele><time>2026-04-24T08:26:42.989Z</time></trkpt><trkpt lat="43.517829" lon="12.3366622"><ele>688.0</ele><time>2026-04-24T08:26:43.988Z</time></trkpt><trkpt lat="43.5176698" lon="12.3368997"><ele>688.0</ele><time>2026-04-24T08:26:44.988Z</time></trkpt><trkpt lat="43.5174762" lon="12.3371338"><ele>688.0</ele><time>2026-04-24T08:26:45.989Z</time></trkpt><trkpt lat="43.5172721" lon="12.3373736"><ele>688.5</ele><time>2026-04-24T08:26:46.989Z</time></trkpt><trkpt lat="43.5170528" lon="12.3375953"><ele>689.0</ele><time>2026-04-24T08:26:47.988Z</time></trkpt><trkpt lat="43.5168092" lon="12.3377946"><ele>689.0</ele><time>2026-04-24T08:26:48.988Z</time></trkpt><trkpt lat="43.5165721" lon="12.3379615"><ele>689.0</ele><time>2026-04-24T08:26:49.988Z</time></trkpt><trkpt lat="43.516355" lon="12.3381158"><ele>690.6666666666666</ele><time>2026-04-24T08:26:50.989Z</time></trkpt><trkpt lat="43.5161619" lon="12.3382522"><ele>692.3333333333334</ele><time>2026-04-24T08:26:51.988Z</time></trkpt><trkpt lat="43.5159969" lon="12.3383709"><ele>694.0</ele><time>2026-04-24T08:26:52.988Z</time></trkpt><trkpt lat="43.5158517" lon="12.3384851"><ele>694.0</ele><time>2026-04-24T08:26:53.988Z</time></trkpt><trkpt lat="43.5157221" lon="12.3386366"><ele>694.0</ele><time>2026-04-24T08:26:54.988Z</time></trkpt><trkpt lat="43.5156347" lon="12.3388324"><ele>694.0</ele><time>2026-04-24T08:26:55.989Z</time></trkpt><trkpt lat="43.5156009" lon="12.3390522"><ele>696.3333333333334</ele><time>2026-04-24T08:26:56.988Z</time></trkpt><trkpt lat="43.5156291" lon="12.3392549"><ele>698.6666666666666</ele><time>2026-04-24T08:26:57.989Z</time></trkpt><trkpt lat="43.5157225" lon="12.3394461"><ele>701.0</ele><time>2026-04-24T08:26:58.988Z</time></trkpt><trkpt lat="43.5158794" lon="12.3396048"><ele>704.0</ele><time>2026-04-24T08:26:59.988Z</time></trkpt><trkpt lat="43.5160775" lon="12.3397294"><ele>707.0</ele><time>2026-04-24T08:27:00.988Z</time></trkpt><trkpt lat="43.5163027" lon="12.3398605"><ele>707.0</ele><time>2026-04-24T08:27:01.99Z</time></trkpt><trkpt lat="43.5165385" lon="12.3400033"><ele>707.0</ele><time>2026-04-24T08:27:02.989Z</time></trkpt><trkpt lat="43.5167606" lon="12.3401316"><ele>707.0</ele><time>2026-04-24T08:27:03.988Z</time></trkpt><trkpt lat="43.5169787" lon="12.3402327"><ele>707.0</ele><time>2026-04-24T08:27:04.988Z</time></trkpt><trkpt lat="43.5172039" lon="12.3403005"><ele>714.5</ele><time>2026-04-24T08:27:05.988Z</time></trkpt><trkpt lat="43.5174433" lon="12.3403083"><ele>722.0</ele><time>2026-04-24T08:27:06.989Z</time></trkpt><trkpt lat="43.5176901" lon="12.3402903"><ele>726.5</ele><time>2026-04-24T08:27:07.988Z</time></trkpt><trkpt lat="43.5179327" lon="12.3403155"><ele>731.0</ele><time>2026-04-24T08:27:08.989Z</time></trkpt><trkpt lat="43.5181653" lon="12.340381"><ele>731.0</ele><time>2026-04-24T08:27:09.988Z</time></trkpt><trkpt lat="43.5183849" lon="12.3404833"><ele>731.0</ele><time>2026-04-24T08:27:10.988Z</time></trkpt><trkpt lat="43.5185815" lon="12.3406102"><ele>731.0</ele><time>2026-04-24T08:27:11.988Z</time></trkpt><trkpt lat="43.5187493" lon="12.3407472"><ele>726.6666666666666</ele><time>2026-04-24T08:27:12.988Z</time></trkpt><trkpt lat="43.5188814" lon="12.3409078"><ele>722.3333333333334</ele><time>2026-04-24T08:27:13.989Z</time></trkpt><trkpt lat="43.5189685" lon="12.3411007"><ele>718.0</ele><time>2026-04-24T08:27:14.988Z</time></trkpt><trkpt lat="43.518998" lon="12.3413184"><ele>716.6666666666667</ele><time>2026-04-24T08:27:15.988Z</time></trkpt><trkpt lat="43.5189627" lon="12.3415386"><ele>715.3333333333334</ele><time>2026-04-24T08:27:16.989Z</time></trkpt><trkpt lat="43.5188618" lon="12.3417396"><ele>714.0</ele><time>2026-04-24T08:27:17.989Z</time></trkpt><trkpt lat="43.5187349" lon="12.3419156"><ele>707.0</ele><time>2026-04-24T08:27:18.989Z</time></trkpt><trkpt lat="43.5186283" lon="12.3420983"><ele>700.0</ele><time>2026-04-24T08:27:19.989Z</time></trkpt><trkpt lat="43.518549" lon="12.3423235"><ele>693.0</ele><time>2026-04-24T08:27:20.989Z</time></trkpt><trkpt lat="43.5185196" lon="12.3425602"><ele>693.0</ele><time>2026-04-24T08:27:21.988Z</time></trkpt><trkpt lat="43.5185325" lon="12.3427903"><ele>693.0</ele><time>2026-04-24T08:27:22.989Z</time></trkpt><trkpt lat="43.5185988" lon="12.343017"><ele>693.0</ele><time>2026-04-24T08:27:23.988Z</time></trkpt><trkpt lat="43.5186766" lon="12.3432279"><ele>693.0</ele><time>2026-04-24T08:27:24.988Z</time></trkpt><trkpt lat="43.518706" lon="12.3434691"><ele>693.0</ele><time>2026-04-24T08:27:25.989Z</time></trkpt><trkpt lat="43.5186704" lon="12.3437001"><ele>693.0</ele><time>2026-04-24T08:27:26.988Z</time></trkpt><trkpt lat="43.5186052" lon="12.3439282"><ele>693.0</ele><time>2026-04-24T08:27:27.988Z</time></trkpt><trkpt lat="43.5185679" lon="12.3441931"><ele>693.0</ele><time>2026-04-24T08:27:28.988Z</time></trkpt><trkpt lat="43.5185814" lon="12.3444837"><ele>693.0</ele><time>2026-04-24T08:27:29.988Z</time></trkpt><trkpt lat="43.5186369" lon="12.34479"><ele>691.5</ele><time>2026-04-24T08:27:30.988Z</time></trkpt><trkpt lat="43.5187274" lon="12.3450983"><ele>690.0</ele><time>2026-04-24T08:27:31.988Z</time></trkpt><trkpt lat="43.5188324" lon="12.3453733"><ele>701.6666666666666</ele><time>2026-04-24T08:27:32.989Z</time></trkpt><trkpt lat="43.518934" lon="12.3456275"><ele>713.3333333333333</ele><time>2026-04-24T08:27:33.988Z</time></trkpt><trkpt lat="43.5190013" lon="12.3458494"><ele>725.0</ele><time>2026-04-24T08:27:34.988Z</time></trkpt><trkpt lat="43.5190259" lon="12.3460655"><ele>725.0</ele><time>2026-04-24T08:27:35.988Z</time></trkpt><trkpt lat="43.5189833" lon="12.3462619"><ele>725.0</ele><time>2026-04-24T08:27:36.989Z</time></trkpt><trkpt lat="43.5188814" lon="12.3464114"><ele>725.0</ele><time>2026-04-24T08:27:37.988Z</time></trkpt><trkpt lat="43.5187374" lon="12.3465346"><ele>717.6666666666666</ele><time>2026-04-24T08:27:38.988Z</time></trkpt><trkpt lat="43.5185737" lon="12.346672"><ele>710.3333333333334</ele><time>2026-04-24T08:27:39.988Z</time></trkpt><trkpt lat="43.5183921" lon="12.3468262"><ele>703.0</ele><time>2026-04-24T08:27:40.989Z</time></trkpt><trkpt lat="43.5182248" lon="12.3469705"><ele>703.0</ele><time>2026-04-24T08:27:41.988Z</time></trkpt><trkpt lat="43.5180769" lon="12.3471073"><ele>703.0</ele><time>2026-04-24T08:27:42.988Z</time></trkpt><trkpt lat="43.5179548" lon="12.3472482"><ele>703.0</ele><time>2026-04-24T08:27:43.988Z</time></trkpt><trkpt lat="43.5178754" lon="12.3474455"><ele>702.0</ele><time>2026-04-24T08:27:44.989Z</time></trkpt><trkpt lat="43.5178448" lon="12.3476979"><ele>701.0</ele><time>2026-04-24T08:27:45.988Z</time></trkpt><trkpt lat="43.5177907" lon="12.3479648"><ele>700.0</ele><time>2026-04-24T08:27:46.989Z</time></trkpt><trkpt lat="43.5176994" lon="12.3481843"><ele>705.6666666666667</ele><time>2026-04-24T08:27:47.988Z</time></trkpt><trkpt lat="43.5175769" lon="12.3483825"><ele>711.3333333333334</ele><time>2026-04-24T08:27:48.988Z</time></trkpt><trkpt lat="43.5174293" lon="12.3485253"><ele>717.0</ele><time>2026-04-24T08:27:49.988Z</time></trkpt><trkpt lat="43.517273" lon="12.3486144"><ele>717.0</ele><time>2026-04-24T08:27:50.988Z</time></trkpt><trkpt lat="43.5171228" lon="12.3486223"><ele>717.0</ele><time>2026-04-24T08:27:51.988Z</time></trkpt><trkpt lat="43.5169799" lon="12.3485443"><ele>717.0</ele><time>2026-04-24T08:27:52.989Z</time></trkpt><trkpt lat="43.5168516" lon="12.3483804"><ele>720.3333333333334</ele><time>2026-04-24T08:27:53.988Z</time></trkpt><trkpt lat="43.5167478" lon="12.3481872"><ele>723.6666666666667</ele><time>2026-04-24T08:27:54.988Z</time></trkpt><trkpt lat="43.5166669" lon="12.3479957"><ele>727.0</ele><time>2026-04-24T08:27:55.988Z</time></trkpt><trkpt lat="43.5165574" lon="12.347843"><ele>723.3333333333334</ele><time>2026-04-24T08:27:56.988Z</time></trkpt><trkpt lat="43.516414" lon="12.3477542"><ele>719.6666666666666</ele><time>2026-04-24T08:27:57.988Z</time></trkpt><trkpt lat="43.5162344" lon="12.3477205"><ele>716.0</ele><time>2026-04-24T08:27:58.988Z</time></trkpt><trkpt lat="43.5160354" lon="12.3476907"><ele>716.0</ele><time>2026-04-24T08:27:59.989Z</time></trkpt><trkpt lat="43.5158119" lon="12.3476646"><ele>716.0</ele><time>2026-04-24T08:28:00.988Z</time></trkpt><trkpt lat="43.5155707" lon="12.3476325"><ele>717.6666666666666</ele><time>2026-04-24T08:28:01.989Z</time></trkpt><trkpt lat="43.5153524" lon="12.3475717"><ele>719.3333333333334</ele><time>2026-04-24T08:28:02.988Z</time></trkpt><trkpt lat="43.5151459" lon="12.3475105"><ele>721.0</ele><time>2026-04-24T08:28:03.989Z</time></trkpt><trkpt lat="43.5149189" lon="12.3474799"><ele>721.0</ele><time>2026-04-24T08:28:04.989Z</time></trkpt><trkpt lat="43.5146894" lon="12.3474915"><ele>721.0</ele><time>2026-04-24T08:28:05.988Z</time></trkpt><trkpt lat="43.5144852" lon="12.3475185"><ele>721.0</ele><time>2026-04-24T08:28:06.988Z</time></trkpt><trkpt lat="43.5143159" lon="12.3475512"><ele>721.5</ele><time>2026-04-24T08:28:07.989Z</time></trkpt><trkpt lat="43.5141741" lon="12.3476133"><ele>722.0</ele><time>2026-04-24T08:28:08.989Z</time></trkpt><trkpt lat="43.5140816" lon="12.347742"><ele>722.5</ele><time>2026-04-24T08:28:09.989Z</time></trkpt><trkpt lat="43.5140503" lon="12.3479215"><ele>723.0</ele><time>2026-04-24T08:28:10.988Z</time></trkpt><trkpt lat="43.5140581" lon="12.3481238"><ele>723.0</ele><time>2026-04-24T08:28:11.989Z</time></trkpt><trkpt lat="43.5141118" lon="12.3484033"><ele>723.0</ele><time>2026-04-24T08:28:12.989Z</time></trkpt><trkpt lat="43.5141078" lon="12.3486936"><ele>723.0</ele><time>2026-04-24T08:28:13.988Z</time></trkpt><trkpt lat="43.514084" lon="12.348999"><ele>723.6666666666666</ele><time>2026-04-24T08:28:14.988Z</time></trkpt><trkpt lat="43.5140957" lon="12.3493023"><ele>724.3333333333333</ele><time>2026-04-24T08:28:15.988Z</time></trkpt><trkpt lat="43.5141201" lon="12.3495638"><ele>725.0</ele><time>2026-04-24T08:28:16.988Z</time></trkpt><trkpt lat="43.5141073" lon="12.3497862"><ele>728.6666666666666</ele><time>2026-04-24T08:28:17.988Z</time></trkpt><trkpt lat="43.5140508" lon="12.3499742"><ele>732.3333333333334</ele><time>2026-04-24T08:28:18.989Z</time></trkpt><trkpt lat="43.5139428" lon="12.3500959"><ele>736.0</ele><time>2026-04-24T08:28:19.988Z</time></trkpt><trkpt lat="43.5137839" lon="12.3501588"><ele>731.6666666666667</ele><time>2026-04-24T08:28:20.989Z</time></trkpt><trkpt lat="43.5135953" lon="12.3501627"><ele>727.3333333333334</ele><time>2026-04-24T08:28:21.989Z</time></trkpt><trkpt lat="43.5133819" lon="12.3501495"><ele>723.0</ele><time>2026-04-24T08:28:22.988Z</time></trkpt><trkpt lat="43.51315" lon="12.350113"><ele>723.0</ele><time>2026-04-24T08:28:23.988Z</time></trkpt><trkpt lat="43.5129262" lon="12.3500127"><ele>723.0</ele><time>2026-04-24T08:28:24.988Z</time></trkpt><trkpt lat="43.5127349" lon="12.349855"><ele>717.0</ele><time>2026-04-24T08:28:25.988Z</time></trkpt><trkpt lat="43.5125682" lon="12.3496474"><ele>711.0</ele><time>2026-04-24T08:28:26.988Z</time></trkpt><trkpt lat="43.5123941" lon="12.3494184"><ele>711.0</ele><time>2026-04-24T08:28:27.988Z</time></trkpt><trkpt lat="43.5122174" lon="12.3492223"><ele>711.0</ele><time>2026-04-24T08:28:28.989Z</time></trkpt><trkpt lat="43.5120615" lon="12.3490583"><ele>711.0</ele><time>2026-04-24T08:28:29.988Z</time></trkpt><trkpt lat="43.5119254" lon="12.3489291"><ele>711.1999999999999</ele><time>2026-04-24T08:28:30.988Z</time></trkpt><trkpt lat="43.5118141" lon="12.3488439"><ele>711.4</ele><time>2026-04-24T08:28:31.988Z</time></trkpt><trkpt lat="43.5117109" lon="12.3488307"><ele>711.6</ele><time>2026-04-24T08:28:32.988Z</time></trkpt><trkpt lat="43.5116294" lon="12.3489117"><ele>711.8</ele><time>2026-04-24T08:28:33.989Z</time></trkpt><trkpt lat="43.511591" lon="12.3490643"><ele>712.0</ele><time>2026-04-24T08:28:34.989Z</time></trkpt><trkpt lat="43.5116137" lon="12.349266"><ele>713.0</ele><time>2026-04-24T08:28:35.988Z</time></trkpt><trkpt lat="43.5116927" lon="12.349494"><ele>714.0</ele><time>2026-04-24T08:28:36.988Z</time></trkpt><trkpt lat="43.5118184" lon="12.3497354"><ele>715.0</ele><time>2026-04-24T08:28:37.989Z</time></trkpt><trkpt lat="43.5119631" lon="12.3499715"><ele>719.0</ele><time>2026-04-24T08:28:38.988Z</time></trkpt><trkpt lat="43.5120754" lon="12.3502213"><ele>723.0</ele><time>2026-04-24T08:28:39.988Z</time></trkpt><trkpt lat="43.5121404" lon="12.3505142"><ele>727.0</ele><time>2026-04-24T08:28:40.988Z</time></trkpt><trkpt lat="43.5121551" lon="12.3508071"><ele>730.3333333333334</ele><time>2026-04-24T08:28:41.989Z</time></trkpt><trkpt lat="43.5121399" lon="12.351081"><ele>733.6666666666666</ele><time>2026-04-24T08:28:42.988Z</time></trkpt><trkpt lat="43.5121448" lon="12.3513513"><ele>737.0</ele><time>2026-04-24T08:28:43.988Z</time></trkpt><trkpt lat="43.5121741" lon="12.3515675"><ele>737.0</ele><time>2026-04-24T08:28:44.988Z</time></trkpt><trkpt lat="43.5122648" lon="12.3517779"><ele>737.0</ele><time>2026-04-24T08:28:45.989Z</time></trkpt><trkpt lat="43.512413" lon="12.3519627"><ele>737.0</ele><time>2026-04-24T08:28:46.988Z</time></trkpt><trkpt lat="43.512581" lon="12.3521669"><ele>732.3333333333333</ele><time>2026-04-24T08:28:47.989Z</time></trkpt><trkpt lat="43.5127268" lon="12.3524175"><ele>727.6666666666666</ele><time>2026-04-24T08:28:48.988Z</time></trkpt><trkpt lat="43.5128225" lon="12.3526771"><ele>723.0</ele><time>2026-04-24T08:28:49.989Z</time></trkpt><trkpt lat="43.5128989" lon="12.352911"><ele>727.0</ele><time>2026-04-24T08:28:50.988Z</time></trkpt><trkpt lat="43.5130128" lon="12.353118"><ele>731.0</ele><time>2026-04-24T08:28:51.988Z</time></trkpt><trkpt lat="43.5131841" lon="12.353291"><ele>735.0</ele><time>2026-04-24T08:28:52.989Z</time></trkpt><trkpt lat="43.5133901" lon="12.353422"><ele>735.0</ele><time>2026-04-24T08:28:53.988Z</time></trkpt><trkpt lat="43.5136233" lon="12.3535218"><ele>735.0</ele><time>2026-04-24T08:28:54.988Z</time></trkpt><trkpt lat="43.5138847" lon="12.3535877"><ele>742.5</ele><time>2026-04-24T08:28:55.988Z</time></trkpt><trkpt lat="43.5141552" lon="12.3536201"><ele>750.0</ele><time>2026-04-24T08:28:56.988Z</time></trkpt><trkpt lat="43.514394" lon="12.3536323"><ele>748.6666666666666</ele><time>2026-04-24T08:28:57.989Z</time></trkpt><trkpt lat="43.5146065" lon="12.3536224"><ele>747.3333333333333</ele><time>2026-04-24T08:28:58.988Z</time></trkpt><trkpt lat="43.5148199" lon="12.3535457"><ele>746.0</ele><time>2026-04-24T08:28:59.988Z</time></trkpt><trkpt lat="43.5150317" lon="12.353411"><ele>746.0</ele><time>2026-04-24T08:29:00.988Z</time></trkpt><trkpt lat="43.5152428" lon="12.3532846"><ele>746.0</ele><time>2026-04-24T08:29:01.988Z</time></trkpt><trkpt lat="43.5154444" lon="12.3532061"><ele>746.0</ele><time>2026-04-24T08:29:02.989Z</time></trkpt><trkpt lat="43.5156245" lon="12.3531718"><ele>745.6666666666666</ele><time>2026-04-24T08:29:03.988Z</time></trkpt><trkpt lat="43.5157884" lon="12.353209"><ele>745.3333333333334</ele><time>2026-04-24T08:29:04.988Z</time></trkpt><trkpt lat="43.515932" lon="12.3533247"><ele>745.0</ele><time>2026-04-24T08:29:05.988Z</time></trkpt><trkpt lat="43.516031" lon="12.3535044"><ele>745.0</ele><time>2026-04-24T08:29:06.988Z</time></trkpt><trkpt lat="43.5160745" lon="12.3537184"><ele>745.0</ele><time>2026-04-24T08:29:07.988Z</time></trkpt><trkpt lat="43.5160606" lon="12.3539628"><ele>745.0</ele><time>2026-04-24T08:29:08.988Z</time></trkpt><trkpt lat="43.5160149" lon="12.3542355"><ele>740.3333333333334</ele><time>2026-04-24T08:29:09.988Z</time></trkpt><trkpt lat="43.5160045" lon="12.3545169"><ele>735.6666666666666</ele><time>2026-04-24T08:29:10.989Z</time></trkpt><trkpt lat="43.5160276" lon="12.3547785"><ele>731.0</ele><time>2026-04-24T08:29:11.988Z</time></trkpt><trkpt lat="43.5160278" lon="12.3550235"><ele>730.75</ele><time>2026-04-24T08:29:12.988Z</time></trkpt><trkpt lat="43.5159972" lon="12.3552417"><ele>730.5</ele><time>2026-04-24T08:29:13.988Z</time></trkpt><trkpt lat="43.5159477" lon="12.3554164"><ele>730.25</ele><time>2026-04-24T08:29:14.989Z</time></trkpt><trkpt lat="43.515887" lon="12.3555566"><ele>730.0</ele><time>2026-04-24T08:29:15.989Z</time></trkpt><trkpt lat="43.515817" lon="12.3556651"><ele>730.0</ele><time>2026-04-24T08:29:16.988Z</time></trkpt><trkpt lat="43.5157592" lon="12.3557498"><ele>730.0</ele><time>2026-04-24T08:29:17.988Z</time></trkpt><trkpt lat="43.515711" lon="12.355815"><ele>730.0</ele><time>2026-04-24T08:29:18.988Z</time></trkpt><trkpt lat="43.5156564" lon="12.3558972"><ele>730.0</ele><time>2026-04-24T08:29:20.989Z</time></trkpt><trkpt lat="43.5156395" lon="12.3560177"><ele>730.0</ele><time>2026-04-24T08:35:18.987Z</time></trkpt><trkpt lat="43.5156038" lon="12.3561775"><ele>730.0</ele><time>2026-04-24T08:35:20.987Z</time></trkpt><trkpt lat="43.5155959" lon="12.3563033"><ele>731.0</ele><time>2026-04-24T08:35:21.987Z</time></trkpt><trkpt lat="43.5155974" lon="12.356457"><ele>732.0</ele><time>2026-04-24T08:35:22.988Z</time></trkpt><trkpt lat="43.5156203" lon="12.356616"><ele>733.0</ele><time>2026-04-24T08:35:23.987Z</time></trkpt><trkpt lat="43.5156472" lon="12.3567788"><ele>734.0</ele><time>2026-04-24T08:35:24.987Z</time></trkpt><trkpt lat="43.5156775" lon="12.3569222"><ele>734.0</ele><time>2026-04-24T08:35:25.987Z</time></trkpt><trkpt lat="43.5157216" lon="12.3570466"><ele>734.0</ele><time>2026-04-24T08:35:26.987Z</time></trkpt><trkpt lat="43.5157848" lon="12.3571486"><ele>734.0</ele><time>2026-04-24T08:35:27.988Z</time></trkpt><trkpt lat="43.5158744" lon="12.3572187"><ele>734.0</ele><time>2026-04-24T08:35:28.987Z</time></trkpt><trkpt lat="43.5159755" lon="12.3572324"><ele>734.0</ele><time>2026-04-24T08:35:29.988Z</time></trkpt><trkpt lat="43.5160832" lon="12.3571898"><ele>734.0</ele><time>2026-04-24T08:35:30.987Z</time></trkpt><trkpt lat="43.5161873" lon="12.3570982"><ele>734.0</ele><time>2026-04-24T08:35:31.987Z</time></trkpt><trkpt lat="43.516288" lon="12.356984"><ele>734.0</ele><time>2026-04-24T08:35:32.987Z</time></trkpt><trkpt lat="43.5163882" lon="12.3568392"><ele>734.0</ele><time>2026-04-24T08:35:33.987Z</time></trkpt><trkpt lat="43.5164852" lon="12.3567099"><ele>735.5</ele><time>2026-04-24T08:35:34.988Z</time></trkpt><trkpt lat="43.5165898" lon="12.3566241"><ele>737.0</ele><time>2026-04-24T08:35:35.987Z</time></trkpt><trkpt lat="43.5166976" lon="12.3565995"><ele>738.5</ele><time>2026-04-24T08:35:36.987Z</time></trkpt><trkpt lat="43.5168113" lon="12.3566502"><ele>740.0</ele><time>2026-04-24T08:35:37.987Z</time></trkpt><trkpt lat="43.5168978" lon="12.3567673"><ele>740.0</ele><time>2026-04-24T08:35:38.988Z</time></trkpt><trkpt lat="43.516958" lon="12.356927"><ele>740.0</ele><time>2026-04-24T08:35:39.988Z</time></trkpt><trkpt lat="43.5170121" lon="12.3571114"><ele>740.0</ele><time>2026-04-24T08:35:40.987Z</time></trkpt><trkpt lat="43.5170694" lon="12.3573002"><ele>740.0</ele><time>2026-04-24T08:35:41.987Z</time></trkpt><trkpt lat="43.5171255" lon="12.3574716"><ele>738.25</ele><time>2026-04-24T08:35:42.987Z</time></trkpt><trkpt lat="43.5171993" lon="12.357626"><ele>736.5</ele><time>2026-04-24T08:35:43.987Z</time></trkpt><trkpt lat="43.517311" lon="12.3577648"><ele>734.75</ele><time>2026-04-24T08:35:44.988Z</time></trkpt><trkpt lat="43.5174527" lon="12.3578559"><ele>733.0</ele><time>2026-04-24T08:35:45.987Z</time></trkpt><trkpt lat="43.5176079" lon="12.3579248"><ele>733.0</ele><time>2026-04-24T08:35:46.987Z</time></trkpt><trkpt lat="43.5177645" lon="12.3580162"><ele>733.0</ele><time>2026-04-24T08:35:47.987Z</time></trkpt><trkpt lat="43.5179184" lon="12.3581233"><ele>733.0</ele><time>2026-04-24T08:35:48.987Z</time></trkpt><trkpt lat="43.518072" lon="12.3582316"><ele>729.3333333333334</ele><time>2026-04-24T08:35:49.987Z</time></trkpt><trkpt lat="43.5182375" lon="12.3583237"><ele>725.6666666666666</ele><time>2026-04-24T08:35:50.988Z</time></trkpt><trkpt lat="43.5184142" lon="12.3583788"><ele>722.0</ele><time>2026-04-24T08:35:51.987Z</time></trkpt><trkpt lat="43.5185845" lon="12.3584078"><ele>719.5</ele><time>2026-04-24T08:35:52.987Z</time></trkpt><trkpt lat="43.5187349" lon="12.3584111"><ele>717.0</ele><time>2026-04-24T08:35:53.987Z</time></trkpt><trkpt lat="43.5188512" lon="12.3583857"><ele>714.5</ele><time>2026-04-24T08:35:54.987Z</time></trkpt><trkpt lat="43.5189473" lon="12.3582965"><ele>712.0</ele><time>2026-04-24T08:35:55.987Z</time></trkpt><trkpt lat="43.5190166" lon="12.3581431"><ele>714.0</ele><time>2026-04-24T08:35:56.987Z</time></trkpt><trkpt lat="43.5190504" lon="12.3579555"><ele>716.0</ele><time>2026-04-24T08:35:57.987Z</time></trkpt><trkpt lat="43.5190847" lon="12.3577786"><ele>718.0</ele><time>2026-04-24T08:35:58.987Z</time></trkpt><trkpt lat="43.5191506" lon="12.3576286"><ele>720.0</ele><time>2026-04-24T08:35:59.987Z</time></trkpt><trkpt lat="43.519237" lon="12.3575346"><ele>720.0</ele><time>2026-04-24T08:36:00.987Z</time></trkpt><trkpt lat="43.5193341" lon="12.3574976"><ele>720.0</ele><time>2026-04-24T08:36:01.987Z</time></trkpt><trkpt lat="43.5194297" lon="12.3575305"><ele>720.0</ele><time>2026-04-24T08:36:02.988Z</time></trkpt><trkpt lat="43.5194887" lon="12.3576474"><ele>720.0</ele><time>2026-04-24T08:36:03.987Z</time></trkpt><trkpt lat="43.5195077" lon="12.3578107"><ele>720.0</ele><time>2026-04-24T08:36:04.987Z</time></trkpt><trkpt lat="43.5194755" lon="12.3579882"><ele>720.0</ele><time>2026-04-24T08:36:05.987Z</time></trkpt><trkpt lat="43.5194626" lon="12.3581775"><ele>720.0</ele><time>2026-04-24T08:36:06.988Z</time></trkpt><trkpt lat="43.5194912" lon="12.3583779"><ele>720.0</ele><time>2026-04-24T08:36:07.987Z</time></trkpt><trkpt lat="43.5195687" lon="12.3585701"><ele>720.0</ele><time>2026-04-24T08:36:08.988Z</time></trkpt><trkpt lat="43.5196852" lon="12.3587329"><ele>720.0</ele><time>2026-04-24T08:36:09.987Z</time></trkpt><trkpt lat="43.5198382" lon="12.3588625"><ele>720.0</ele><time>2026-04-24T08:36:10.987Z</time></trkpt><trkpt lat="43.5200193" lon="12.358969"><ele>720.0</ele><time>2026-04-24T08:36:11.987Z</time></trkpt><trkpt lat="43.520218" lon="12.3590843"><ele>714.0</ele><time>2026-04-24T08:36:12.987Z</time></trkpt><trkpt lat="43.5204251" lon="12.3592097"><ele>708.0</ele><time>2026-04-24T08:36:13.987Z</time></trkpt><trkpt lat="43.5206334" lon="12.3593469"><ele>708.0</ele><time>2026-04-24T08:36:14.987Z</time></trkpt><trkpt lat="43.520835" lon="12.3594839"><ele>708.0</ele><time>2026-04-24T08:36:15.987Z</time></trkpt><trkpt lat="43.5210262" lon="12.3596189"><ele>708.0</ele><time>2026-04-24T08:36:16.987Z</time></trkpt><trkpt lat="43.5211997" lon="12.3597728"><ele>705.6666666666666</ele><time>2026-04-24T08:36:17.987Z</time></trkpt><trkpt lat="43.5213475" lon="12.3599603"><ele>703.3333333333333</ele><time>2026-04-24T08:36:18.988Z</time></trkpt><trkpt lat="43.5214774" lon="12.3601604"><ele>701.0</ele><time>2026-04-24T08:36:19.987Z</time></trkpt><trkpt lat="43.5216049" lon="12.360349"><ele>697.0</ele><time>2026-04-24T08:36:20.987Z</time></trkpt><trkpt lat="43.5217306" lon="12.3605346"><ele>693.0</ele><time>2026-04-24T08:36:21.988Z</time></trkpt><trkpt lat="43.5218705" lon="12.3607003"><ele>689.0</ele><time>2026-04-24T08:36:22.987Z</time></trkpt><trkpt lat="43.5220398" lon="12.360824"><ele>689.3333333333333</ele><time>2026-04-24T08:36:23.987Z</time></trkpt><trkpt lat="43.5222148" lon="12.3609246"><ele>689.6666666666666</ele><time>2026-04-24T08:36:24.987Z</time></trkpt><trkpt lat="43.5223595" lon="12.3610766"><ele>690.0</ele><time>2026-04-24T08:36:25.987Z</time></trkpt><trkpt lat="43.522458" lon="12.3612737"><ele>687.3333333333334</ele><time>2026-04-24T08:36:26.987Z</time></trkpt><trkpt lat="43.5225204" lon="12.3614837"><ele>684.6666666666667</ele><time>2026-04-24T08:36:27.987Z</time></trkpt><trkpt lat="43.5225976" lon="12.3616763"><ele>682.0</ele><time>2026-04-24T08:36:28.988Z</time></trkpt><trkpt lat="43.5227144" lon="12.3618338"><ele>682.0</ele><time>2026-04-24T08:36:29.987Z</time></trkpt><trkpt lat="43.5228751" lon="12.361962"><ele>682.0</ele><time>2026-04-24T08:36:30.987Z</time></trkpt><trkpt lat="43.5230444" lon="12.3621007"><ele>682.0</ele><time>2026-04-24T08:36:31.988Z</time></trkpt><trkpt lat="43.5232046" lon="12.3622853"><ele>680.0</ele><time>2026-04-24T08:36:32.988Z</time></trkpt><trkpt lat="43.5233425" lon="12.362495"><ele>678.0</ele><time>2026-04-24T08:36:33.987Z</time></trkpt><trkpt lat="43.5234648" lon="12.3627061"><ele>676.0</ele><time>2026-04-24T08:36:34.987Z</time></trkpt><trkpt lat="43.523606" lon="12.3628969"><ele>674.6666666666667</ele><time>2026-04-24T08:36:35.988Z</time></trkpt><trkpt lat="43.5237683" lon="12.3630557"><ele>673.3333333333334</ele><time>2026-04-24T08:36:36.987Z</time></trkpt><trkpt lat="43.5239417" lon="12.3631888"><ele>672.0</ele><time>2026-04-24T08:36:37.987Z</time></trkpt><trkpt lat="43.5241195" lon="12.3632853"><ele>672.0</ele><time>2026-04-24T08:36:38.987Z</time></trkpt><trkpt lat="43.5243111" lon="12.3633289"><ele>672.0</ele><time>2026-04-24T08:36:39.988Z</time></trkpt><trkpt lat="43.5245111" lon="12.363339"><ele>672.0</ele><time>2026-04-24T08:36:40.987Z</time></trkpt><trkpt lat="43.5247133" lon="12.3633935"><ele>673.6666666666666</ele><time>2026-04-24T08:36:41.987Z</time></trkpt><trkpt lat="43.5249104" lon="12.3634955"><ele>675.3333333333333</ele><time>2026-04-24T08:36:42.987Z</time></trkpt><trkpt lat="43.5250974" lon="12.3636452"><ele>677.0</ele><time>2026-04-24T08:36:43.987Z</time></trkpt><trkpt lat="43.5252689" lon="12.3638246"><ele>676.0</ele><time>2026-04-24T08:36:44.987Z</time></trkpt><trkpt lat="43.5254152" lon="12.3640271"><ele>675.0</ele><time>2026-04-24T08:36:45.987Z</time></trkpt><trkpt lat="43.525558" lon="12.3642202"><ele>674.0</ele><time>2026-04-24T08:36:46.986Z</time></trkpt><trkpt lat="43.5257048" lon="12.3643955"><ele>674.0</ele><time>2026-04-24T08:36:47.987Z</time></trkpt><trkpt lat="43.5258643" lon="12.364543"><ele>674.0</ele><time>2026-04-24T08:36:48.987Z</time></trkpt><trkpt lat="43.5260447" lon="12.3646391"><ele>674.0</ele><time>2026-04-24T08:36:49.988Z</time></trkpt><trkpt lat="43.5262393" lon="12.364706"><ele>669.6666666666666</ele><time>2026-04-24T08:36:50.988Z</time></trkpt><trkpt lat="43.5264423" lon="12.364754"><ele>665.3333333333334</ele><time>2026-04-24T08:36:51.987Z</time></trkpt><trkpt lat="43.5266492" lon="12.3648335"><ele>661.0</ele><time>2026-04-24T08:36:52.987Z</time></trkpt><trkpt lat="43.5268603" lon="12.3649259"><ele>661.0</ele><time>2026-04-24T08:36:53.987Z</time></trkpt><trkpt lat="43.5270676" lon="12.3650277"><ele>661.0</ele><time>2026-04-24T08:36:54.988Z</time></trkpt><trkpt lat="43.5272635" lon="12.3651404"><ele>661.0</ele><time>2026-04-24T08:36:55.987Z</time></trkpt><trkpt lat="43.5274423" lon="12.3652697"><ele>661.0</ele><time>2026-04-24T08:36:56.988Z</time></trkpt><trkpt lat="43.5276049" lon="12.3654111"><ele>661.0</ele><time>2026-04-24T08:36:57.987Z</time></trkpt><trkpt lat="43.5277616" lon="12.3655532"><ele>661.0</ele><time>2026-04-24T08:36:58.987Z</time></trkpt><trkpt lat="43.5279494" lon="12.3656545"><ele>658.3333333333334</ele><time>2026-04-24T08:36:59.988Z</time></trkpt><trkpt lat="43.52815" lon="12.3657155"><ele>655.6666666666666</ele><time>2026-04-24T08:37:00.988Z</time></trkpt><trkpt lat="43.5283569" lon="12.3657607"><ele>653.0</ele><time>2026-04-24T08:37:01.987Z</time></trkpt><trkpt lat="43.5285621" lon="12.3657993"><ele>655.3333333333333</ele><time>2026-04-24T08:37:02.988Z</time></trkpt><trkpt lat="43.5287477" lon="12.3658532"><ele>657.6666666666666</ele><time>2026-04-24T08:37:03.987Z</time></trkpt><trkpt lat="43.5288999" lon="12.3659488"><ele>660.0</ele><time>2026-04-24T08:37:04.988Z</time></trkpt><trkpt lat="43.5290063" lon="12.3660885"><ele>660.0</ele><time>2026-04-24T08:37:05.987Z</time></trkpt><trkpt lat="43.529065" lon="12.3662679"><ele>660.0</ele><time>2026-04-24T08:37:06.987Z</time></trkpt><trkpt lat="43.5291001" lon="12.366457"><ele>660.0</ele><time>2026-04-24T08:37:07.987Z</time></trkpt><trkpt lat="43.5291699" lon="12.3666216"><ele>660.0</ele><time>2026-04-24T08:37:08.987Z</time></trkpt><trkpt lat="43.5292828" lon="12.3667426"><ele>658.6666666666666</ele><time>2026-04-24T08:37:09.988Z</time></trkpt><trkpt lat="43.5294356" lon="12.3668123"><ele>657.3333333333333</ele><time>2026-04-24T08:37:10.987Z</time></trkpt><trkpt lat="43.5296056" lon="12.3668592"><ele>656.0</ele><time>2026-04-24T08:37:11.987Z</time></trkpt><trkpt lat="43.5297813" lon="12.366896"><ele>656.0</ele><time>2026-04-24T08:37:12.987Z</time></trkpt><trkpt lat="43.52995" lon="12.3669148"><ele>656.0</ele><time>2026-04-24T08:37:13.987Z</time></trkpt><trkpt lat="43.5301143" lon="12.3669209"><ele>656.0</ele><time>2026-04-24T08:37:14.988Z</time></trkpt><trkpt lat="43.5302701" lon="12.3669607"><ele>655.3333333333333</ele><time>2026-04-24T08:37:15.987Z</time></trkpt><trkpt lat="43.5304159" lon="12.3670668"><ele>654.6666666666666</ele><time>2026-04-24T08:37:16.988Z</time></trkpt><trkpt lat="43.53053" lon="12.3672504"><ele>654.0</ele><time>2026-04-24T08:37:17.987Z</time></trkpt><trkpt lat="43.5306116" lon="12.3674686"><ele>654.0</ele><time>2026-04-24T08:37:18.987Z</time></trkpt><trkpt lat="43.5307001" lon="12.3676993"><ele>654.0</ele><time>2026-04-24T08:37:19.988Z</time></trkpt><trkpt lat="43.5308334" lon="12.367922"><ele>654.0</ele><time>2026-04-24T08:37:20.987Z</time></trkpt><trkpt lat="43.5309849" lon="12.3681214"><ele>653.3333333333334</ele><time>2026-04-24T08:37:21.987Z</time></trkpt><trkpt lat="43.5311436" lon="12.3682898"><ele>652.6666666666667</ele><time>2026-04-24T08:37:22.987Z</time></trkpt><trkpt lat="43.531299" lon="12.368433"><ele>652.0</ele><time>2026-04-24T08:37:23.989Z</time></trkpt><trkpt lat="43.5314356" lon="12.3685355"><ele>652.0</ele><time>2026-04-24T08:37:24.987Z</time></trkpt><trkpt lat="43.5315655" lon="12.368577"><ele>652.0</ele><time>2026-04-24T08:37:25.987Z</time></trkpt><trkpt lat="43.53169" lon="12.3685366"><ele>652.0</ele><time>2026-04-24T08:37:26.987Z</time></trkpt><trkpt lat="43.5317972" lon="12.3684586"><ele>652.0</ele><time>2026-04-24T08:37:27.987Z</time></trkpt><trkpt lat="43.5319134" lon="12.3684162"><ele>652.0</ele><time>2026-04-24T08:37:28.987Z</time></trkpt><trkpt lat="43.5320282" lon="12.3684405"><ele>652.0</ele><time>2026-04-24T08:37:29.987Z</time></trkpt><trkpt lat="43.5321034" lon="12.3685248"><ele>652.0</ele><time>2026-04-24T08:37:30.988Z</time></trkpt><trkpt lat="43.5321195" lon="12.3686492"><ele>652.0</ele><time>2026-04-24T08:37:31.987Z</time></trkpt><trkpt lat="43.5320848" lon="12.368789"><ele>652.0</ele><time>2026-04-24T08:37:32.987Z</time></trkpt><trkpt lat="43.5320476" lon="12.3689497"><ele>652.0</ele><time>2026-04-24T08:37:33.987Z</time></trkpt><trkpt lat="43.5320402" lon="12.3691019"><ele>652.0</ele><time>2026-04-24T08:37:34.987Z</time></trkpt><trkpt lat="43.5320678" lon="12.3692489"><ele>652.0</ele><time>2026-04-24T08:37:35.987Z</time></trkpt><trkpt lat="43.5321548" lon="12.3693744"><ele>652.0</ele><time>2026-04-24T08:37:36.987Z</time></trkpt><trkpt lat="43.5322912" lon="12.3694458"><ele>652.0</ele><time>2026-04-24T08:37:37.988Z</time></trkpt><trkpt lat="43.5324576" lon="12.3694808"><ele>652.0</ele><time>2026-04-24T08:37:38.987Z</time></trkpt><trkpt lat="43.5326373" lon="12.3694946"><ele>652.0</ele><time>2026-04-24T08:37:39.987Z</time></trkpt><trkpt lat="43.532832" lon="12.3694971"><ele>655.0</ele><time>2026-04-24T08:37:40.987Z</time></trkpt><trkpt lat="43.533022" lon="12.3695093"><ele>658.0</ele><time>2026-04-24T08:37:41.988Z</time></trkpt><trkpt lat="43.5332106" lon="12.3695871"><ele>661.0</ele><time>2026-04-24T08:37:42.987Z</time></trkpt><trkpt lat="43.5333861" lon="12.3697193"><ele>654.0</ele><time>2026-04-24T08:37:43.987Z</time></trkpt><trkpt lat="43.5335555" lon="12.3698604"><ele>647.0</ele><time>2026-04-24T08:37:44.987Z</time></trkpt><trkpt lat="43.5337412" lon="12.3699827"><ele>640.0</ele><time>2026-04-24T08:37:45.987Z</time></trkpt><trkpt lat="43.5339456" lon="12.3700652"><ele>640.0</ele><time>2026-04-24T08:37:46.987Z</time></trkpt><trkpt lat="43.5341621" lon="12.3701096"><ele>640.0</ele><time>2026-04-24T08:37:47.987Z</time></trkpt><trkpt lat="43.534387" lon="12.3701274"><ele>640.0</ele><time>2026-04-24T08:37:48.988Z</time></trkpt><trkpt lat="43.5346161" lon="12.3701367"><ele>639.0</ele><time>2026-04-24T08:37:49.987Z</time></trkpt><trkpt lat="43.5348467" lon="12.3701517"><ele>638.0</ele><time>2026-04-24T08:37:50.988Z</time></trkpt><trkpt lat="43.5350783" lon="12.3701958"><ele>638.0</ele><time>2026-04-24T08:37:51.987Z</time></trkpt><trkpt lat="43.5353037" lon="12.3702736"><ele>638.0</ele><time>2026-04-24T08:37:52.987Z</time></trkpt><trkpt lat="43.5355147" lon="12.3703673"><ele>639.6666666666666</ele><time>2026-04-24T08:37:53.987Z</time></trkpt><trkpt lat="43.535712" lon="12.370484"><ele>641.3333333333334</ele><time>2026-04-24T08:37:54.987Z</time></trkpt><trkpt lat="43.5358913" lon="12.3706344"><ele>643.0</ele><time>2026-04-24T08:37:55.988Z</time></trkpt><trkpt lat="43.5360585" lon="12.3708057"><ele>637.0</ele><time>2026-04-24T08:37:56.988Z</time></trkpt><trkpt lat="43.5362363" lon="12.3709607"><ele>631.0</ele><time>2026-04-24T08:37:57.987Z</time></trkpt><trkpt lat="43.5364332" lon="12.3710829"><ele>625.0</ele><time>2026-04-24T08:37:58.987Z</time></trkpt><trkpt lat="43.536645" lon="12.3711669"><ele>625.0</ele><time>2026-04-24T08:37:59.987Z</time></trkpt><trkpt lat="43.536865" lon="12.3712231"><ele>625.0</ele><time>2026-04-24T08:38:00.989Z</time></trkpt><trkpt lat="43.5370917" lon="12.3712459"><ele>622.5</ele><time>2026-04-24T08:38:01.987Z</time></trkpt><trkpt lat="43.5373157" lon="12.3712731"><ele>620.0</ele><time>2026-04-24T08:38:02.987Z</time></trkpt><trkpt lat="43.5375402" lon="12.3712998"><ele>620.0</ele><time>2026-04-24T08:38:03.988Z</time></trkpt><trkpt lat="43.53776" lon="12.3713303"><ele>620.0</ele><time>2026-04-24T08:38:04.987Z</time></trkpt><trkpt lat="43.5379722" lon="12.3713578"><ele>620.0</ele><time>2026-04-24T08:38:05.987Z</time></trkpt><trkpt lat="43.5381789" lon="12.3713841"><ele>614.3333333333333</ele><time>2026-04-24T08:38:06.987Z</time></trkpt><trkpt lat="43.538383" lon="12.3714047"><ele>608.6666666666666</ele><time>2026-04-24T08:38:07.987Z</time></trkpt><trkpt lat="43.5386017" lon="12.3714109"><ele>603.0</ele><time>2026-04-24T08:38:08.987Z</time></trkpt><trkpt lat="43.5388345" lon="12.3714049"><ele>602.0</ele><time>2026-04-24T08:38:09.987Z</time></trkpt><trkpt lat="43.5390803" lon="12.3713934"><ele>601.0</ele><time>2026-04-24T08:38:10.987Z</time></trkpt><trkpt lat="43.5393345" lon="12.371384"><ele>597.0</ele><time>2026-04-24T08:38:11.987Z</time></trkpt><trkpt lat="43.5395905" lon="12.371385"><ele>593.0</ele><time>2026-04-24T08:38:12.987Z</time></trkpt><trkpt lat="43.5398337" lon="12.3713832"><ele>593.0</ele><time>2026-04-24T08:38:13.987Z</time></trkpt><trkpt lat="43.5400677" lon="12.371373"><ele>593.0</ele><time>2026-04-24T08:38:14.987Z</time></trkpt><trkpt lat="43.5402778" lon="12.3713637"><ele>593.0</ele><time>2026-04-24T08:38:15.987Z</time></trkpt><trkpt lat="43.5404607" lon="12.3713551"><ele>593.25</ele><time>2026-04-24T08:38:16.987Z</time></trkpt><trkpt lat="43.5406171" lon="12.3713369"><ele>593.5</ele><time>2026-04-24T08:38:17.988Z</time></trkpt><trkpt lat="43.5407464" lon="12.3712789"><ele>593.75</ele><time>2026-04-24T08:38:18.987Z</time></trkpt><trkpt lat="43.5408457" lon="12.3711503"><ele>594.0</ele><time>2026-04-24T08:38:19.987Z</time></trkpt><trkpt lat="43.5408992" lon="12.3709639"><ele>594.0</ele><time>2026-04-24T08:38:20.988Z</time></trkpt><trkpt lat="43.5409177" lon="12.3707385"><ele>594.0</ele><time>2026-04-24T08:38:21.987Z</time></trkpt><trkpt lat="43.5409214" lon="12.3704938"><ele>594.0</ele><time>2026-04-24T08:38:22.986Z</time></trkpt><trkpt lat="43.5409411" lon="12.370243"><ele>596.6666666666666</ele><time>2026-04-24T08:38:23.986Z</time></trkpt><trkpt lat="43.5410035" lon="12.3699993"><ele>599.3333333333333</ele><time>2026-04-24T08:38:24.987Z</time></trkpt><trkpt lat="43.5411169" lon="12.369778"><ele>602.0</ele><time>2026-04-24T08:38:25.987Z</time></trkpt><trkpt lat="43.5412652" lon="12.3696128"><ele>595.3333333333333</ele><time>2026-04-24T08:38:26.986Z</time></trkpt><trkpt lat="43.5414208" lon="12.3694866"><ele>588.6666666666666</ele><time>2026-04-24T08:38:27.986Z</time></trkpt><trkpt lat="43.5415625" lon="12.3693441"><ele>582.0</ele><time>2026-04-24T08:38:28.987Z</time></trkpt><trkpt lat="43.5416737" lon="12.3691577"><ele>582.0</ele><time>2026-04-24T08:38:29.986Z</time></trkpt><trkpt lat="43.5417375" lon="12.3689421"><ele>582.0</ele><time>2026-04-24T08:38:30.987Z</time></trkpt><trkpt lat="43.541772" lon="12.3687242"><ele>582.0</ele><time>2026-04-24T08:38:31.986Z</time></trkpt><trkpt lat="43.5418395" lon="12.3685373"><ele>581.5</ele><time>2026-04-24T08:38:32.986Z</time></trkpt><trkpt lat="43.5419381" lon="12.3683953"><ele>581.0</ele><time>2026-04-24T08:38:33.986Z</time></trkpt><trkpt lat="43.5420531" lon="12.3683038"><ele>580.5</ele><time>2026-04-24T08:38:34.987Z</time></trkpt><trkpt lat="43.5421823" lon="12.3682876"><ele>580.0</ele><time>2026-04-24T08:38:35.987Z</time></trkpt><trkpt lat="43.5423218" lon="12.3683546"><ele>582.0</ele><time>2026-04-24T08:38:36.986Z</time></trkpt><trkpt lat="43.5424506" lon="12.3684963"><ele>584.0</ele><time>2026-04-24T08:38:37.986Z</time></trkpt><trkpt lat="43.5425696" lon="12.3686798"><ele>586.0</ele><time>2026-04-24T08:38:38.986Z</time></trkpt><trkpt lat="43.5426981" lon="12.3688819"><ele>586.6666666666667</ele><time>2026-04-24T08:38:39.986Z</time></trkpt><trkpt lat="43.5428462" lon="12.3690904"><ele>587.3333333333334</ele><time>2026-04-24T08:38:40.986Z</time></trkpt><trkpt lat="43.543009" lon="12.3692972"><ele>588.0</ele><time>2026-04-24T08:38:41.987Z</time></trkpt><trkpt lat="43.5431852" lon="12.369489"><ele>588.0</ele><time>2026-04-24T08:38:42.987Z</time></trkpt><trkpt lat="43.5433729" lon="12.3696633"><ele>588.0</ele><time>2026-04-24T08:38:43.986Z</time></trkpt><trkpt lat="43.5435726" lon="12.369815"><ele>582.0</ele><time>2026-04-24T08:38:44.987Z</time></trkpt><trkpt lat="43.5437883" lon="12.3699373"><ele>576.0</ele><time>2026-04-24T08:38:45.986Z</time></trkpt><trkpt lat="43.544012" lon="12.3700434"><ele>576.0</ele><time>2026-04-24T08:38:46.986Z</time></trkpt><trkpt lat="43.5442384" lon="12.370147"><ele>576.0</ele><time>2026-04-24T08:38:47.986Z</time></trkpt><trkpt lat="43.5444677" lon="12.3702518"><ele>576.5</ele><time>2026-04-24T08:38:48.986Z</time></trkpt><trkpt lat="43.5446989" lon="12.3703573"><ele>577.0</ele><time>2026-04-24T08:38:49.986Z</time></trkpt><trkpt lat="43.544931" lon="12.3704608"><ele>570.5</ele><time>2026-04-24T08:38:50.986Z</time></trkpt><trkpt lat="43.5451663" lon="12.3705648"><ele>564.0</ele><time>2026-04-24T08:38:51.986Z</time></trkpt><trkpt lat="43.5454003" lon="12.3706684"><ele>560.5</ele><time>2026-04-24T08:38:52.986Z</time></trkpt><trkpt lat="43.5456359" lon="12.3707742"><ele>557.0</ele><time>2026-04-24T08:38:53.986Z</time></trkpt><trkpt lat="43.5458696" lon="12.3708793"><ele>557.0</ele><time>2026-04-24T08:38:54.986Z</time></trkpt><trkpt lat="43.546094" lon="12.3709984"><ele>557.0</ele><time>2026-04-24T08:38:55.987Z</time></trkpt><trkpt lat="43.5462968" lon="12.3711662"><ele>554.5</ele><time>2026-04-24T08:38:56.986Z</time></trkpt><trkpt lat="43.5464774" lon="12.3713757"><ele>552.0</ele><time>2026-04-24T08:38:57.986Z</time></trkpt><trkpt lat="43.5466432" lon="12.3716086"><ele>552.0</ele><time>2026-04-24T08:38:58.986Z</time></trkpt><trkpt lat="43.5468065" lon="12.3718511"><ele>552.0</ele><time>2026-04-24T08:38:59.986Z</time></trkpt><trkpt lat="43.5469701" lon="12.3720928"><ele>555.0</ele><time>2026-04-24T08:39:00.986Z</time></trkpt><trkpt lat="43.5471358" lon="12.3723321"><ele>558.0</ele><time>2026-04-24T08:39:01.986Z</time></trkpt><trkpt lat="43.5473005" lon="12.3725695"><ele>558.0</ele><time>2026-04-24T08:39:02.987Z</time></trkpt><trkpt lat="43.5474622" lon="12.3728084"><ele>558.0</ele><time>2026-04-24T08:39:03.987Z</time></trkpt><trkpt lat="43.547623" lon="12.3730493"><ele>559.5</ele><time>2026-04-24T08:39:04.986Z</time></trkpt><trkpt lat="43.5477888" lon="12.3732908"><ele>561.0</ele><time>2026-04-24T08:39:05.987Z</time></trkpt><trkpt lat="43.5479568" lon="12.3735354"><ele>561.0</ele><time>2026-04-24T08:39:06.986Z</time></trkpt><trkpt lat="43.5481259" lon="12.3737828"><ele>561.0</ele><time>2026-04-24T08:39:07.987Z</time></trkpt><trkpt lat="43.5482965" lon="12.3740304"><ele>556.0</ele><time>2026-04-24T08:39:08.987Z</time></trkpt><trkpt lat="43.5484691" lon="12.3742766"><ele>551.0</ele><time>2026-04-24T08:39:09.986Z</time></trkpt><trkpt lat="43.5486413" lon="12.3745205"><ele>552.6666666666666</ele><time>2026-04-24T08:39:10.986Z</time></trkpt><trkpt lat="43.5487568" lon="12.3746892"><ele>554.3333333333334</ele><time>2026-04-24T08:39:12.182Z</time></trkpt><trkpt lat="43.5489147" lon="12.3749202"><ele>556.0</ele><time>2026-04-24T08:39:13.114Z</time></trkpt><trkpt lat="43.5493251" lon="12.3755132"><ele>558.5</ele><time>2026-04-24T08:39:14.988Z</time></trkpt><trkpt lat="43.5494972" lon="12.3757592"><ele>561.0</ele><time>2026-04-24T08:39:15.987Z</time></trkpt><trkpt lat="43.5496678" lon="12.3760056"><ele>561.0</ele><time>2026-04-24T08:39:16.987Z</time></trkpt><trkpt lat="43.5498369" lon="12.3762527"><ele>561.0</ele><time>2026-04-24T08:39:17.988Z</time></trkpt><trkpt lat="43.550008" lon="12.3764984"><ele>553.5</ele><time>2026-04-24T08:39:18.987Z</time></trkpt><trkpt lat="43.550182" lon="12.3767402"><ele>546.0</ele><time>2026-04-24T08:39:19.987Z</time></trkpt><trkpt lat="43.5503597" lon="12.3769794"><ele>547.5</ele><time>2026-04-24T08:39:20.987Z</time></trkpt><trkpt lat="43.5505396" lon="12.3772159"><ele>549.0</ele><time>2026-04-24T08:39:21.988Z</time></trkpt><trkpt lat="43.5507211" lon="12.3774561"><ele>549.0</ele><time>2026-04-24T08:39:22.988Z</time></trkpt><trkpt lat="43.5509031" lon="12.3777003"><ele>549.0</ele><time>2026-04-24T08:39:23.987Z</time></trkpt><trkpt lat="43.5510856" lon="12.3779443"><ele>548.5</ele><time>2026-04-24T08:39:24.988Z</time></trkpt><trkpt lat="43.5512714" lon="12.3781871"><ele>548.0</ele><time>2026-04-24T08:39:25.988Z</time></trkpt><trkpt lat="43.5514581" lon="12.3784313"><ele>548.0</ele><time>2026-04-24T08:39:26.987Z</time></trkpt><trkpt lat="43.5516445" lon="12.3786759"><ele>548.0</ele><time>2026-04-24T08:39:27.987Z</time></trkpt><trkpt lat="43.5518307" lon="12.3789148"><ele>549.5</ele><time>2026-04-24T08:39:28.988Z</time></trkpt><trkpt lat="43.5520208" lon="12.3791484"><ele>551.0</ele><time>2026-04-24T08:39:29.987Z</time></trkpt><trkpt lat="43.5522122" lon="12.3793762"><ele>551.0</ele><time>2026-04-24T08:39:30.988Z</time></trkpt><trkpt lat="43.5524055" lon="12.3795978"><ele>551.0</ele><time>2026-04-24T08:39:31.988Z</time></trkpt><trkpt lat="43.5525977" lon="12.3798151"><ele>549.0</ele><time>2026-04-24T08:39:32.987Z</time></trkpt><trkpt lat="43.5527825" lon="12.38004"><ele>547.0</ele><time>2026-04-24T08:39:33.987Z</time></trkpt><trkpt lat="43.5529517" lon="12.3802832"><ele>539.5</ele><time>2026-04-24T08:39:34.988Z</time></trkpt><trkpt lat="43.5530946" lon="12.3805479"><ele>532.0</ele><time>2026-04-24T08:39:35.987Z</time></trkpt><trkpt lat="43.5532046" lon="12.380827"><ele>532.0</ele><time>2026-04-24T08:39:36.987Z</time></trkpt><trkpt lat="43.5532935" lon="12.3811107"><ele>532.0</ele><time>2026-04-24T08:39:37.987Z</time></trkpt><trkpt lat="43.5533718" lon="12.3813836"><ele>532.0</ele><time>2026-04-24T08:39:38.987Z</time></trkpt><trkpt lat="43.5534256" lon="12.3816516"><ele>531.3333333333334</ele><time>2026-04-24T08:39:39.987Z</time></trkpt><trkpt lat="43.5534252" lon="12.3819172"><ele>530.6666666666666</ele><time>2026-04-24T08:39:40.987Z</time></trkpt><trkpt lat="43.5533655" lon="12.3821797"><ele>530.0</ele><time>2026-04-24T08:39:41.988Z</time></trkpt><trkpt lat="43.5532673" lon="12.3824264"><ele>533.0</ele><time>2026-04-24T08:39:42.987Z</time></trkpt><trkpt lat="43.5531436" lon="12.3826669"><ele>536.0</ele><time>2026-04-24T08:39:43.988Z</time></trkpt><trkpt lat="43.5530173" lon="12.3829162"><ele>539.0</ele><time>2026-04-24T08:39:44.987Z</time></trkpt><trkpt lat="43.5529158" lon="12.3831621"><ele>537.6666666666666</ele><time>2026-04-24T08:39:45.988Z</time></trkpt><trkpt lat="43.5528559" lon="12.3834268"><ele>536.3333333333334</ele><time>2026-04-24T08:39:46.988Z</time></trkpt><trkpt lat="43.5528398" lon="12.3837195"><ele>535.0</ele><time>2026-04-24T08:39:47.987Z</time></trkpt><trkpt lat="43.5528446" lon="12.3840258"><ele>533.5</ele><time>2026-04-24T08:39:48.989Z</time></trkpt><trkpt lat="43.5528559" lon="12.384347"><ele>532.0</ele><time>2026-04-24T08:39:49.987Z</time></trkpt><trkpt lat="43.5528654" lon="12.3846774"><ele>550.0</ele><time>2026-04-24T08:39:50.988Z</time></trkpt><trkpt lat="43.5528746" lon="12.38502"><ele>568.0</ele><time>2026-04-24T08:39:51.987Z</time></trkpt><trkpt lat="43.5528824" lon="12.3853675"><ele>568.5</ele><time>2026-04-24T08:39:52.987Z</time></trkpt><trkpt lat="43.5528791" lon="12.3857222"><ele>569.0</ele><time>2026-04-24T08:39:53.988Z</time></trkpt><trkpt lat="43.5528501" lon="12.3860823"><ele>551.5</ele><time>2026-04-24T08:39:54.988Z</time></trkpt><trkpt lat="43.5528001" lon="12.3864386"><ele>534.0</ele><time>2026-04-24T08:39:55.987Z</time></trkpt><trkpt lat="43.5527391" lon="12.3867923"><ele>534.0</ele><time>2026-04-24T08:39:56.987Z</time></trkpt><trkpt lat="43.5526713" lon="12.38713"><ele>534.0</ele><time>2026-04-24T08:39:57.987Z</time></trkpt><trkpt lat="43.5525803" lon="12.3874333"><ele>537.6666666666666</ele><time>2026-04-24T08:39:58.987Z</time></trkpt><trkpt lat="43.5524725" lon="12.3877019"><ele>541.3333333333333</ele><time>2026-04-24T08:39:59.987Z</time></trkpt><trkpt lat="43.5523912" lon="12.3879701"><ele>545.0</ele><time>2026-04-24T08:40:00.987Z</time></trkpt><trkpt lat="43.552356" lon="12.3882617"><ele>547.3333333333333</ele><time>2026-04-24T08:40:01.987Z</time></trkpt><trkpt lat="43.5523672" lon="12.3885641"><ele>549.6666666666666</ele><time>2026-04-24T08:40:02.987Z</time></trkpt><trkpt lat="43.5523865" lon="12.3888696"><ele>552.0</ele><time>2026-04-24T08:40:03.987Z</time></trkpt><trkpt lat="43.5523768" lon="12.3891895"><ele>552.0</ele><time>2026-04-24T08:40:04.987Z</time></trkpt><trkpt lat="43.5523237" lon="12.3895107"><ele>552.0</ele><time>2026-04-24T08:40:05.987Z</time></trkpt><trkpt lat="43.5522275" lon="12.3898185"><ele>555.5</ele><time>2026-04-24T08:40:06.987Z</time></trkpt><trkpt lat="43.5521032" lon="12.390114"><ele>559.0</ele><time>2026-04-24T08:40:07.988Z</time></trkpt><trkpt lat="43.5519684" lon="12.3903985"><ele>548.0</ele><time>2026-04-24T08:40:08.987Z</time></trkpt><trkpt lat="43.5518238" lon="12.3906581"><ele>537.0</ele><time>2026-04-24T08:40:09.987Z</time></trkpt><trkpt lat="43.5516648" lon="12.3908887"><ele>537.0</ele><time>2026-04-24T08:40:10.987Z</time></trkpt><trkpt lat="43.5514837" lon="12.3910888"><ele>537.0</ele><time>2026-04-24T08:40:11.987Z</time></trkpt><trkpt lat="43.5513022" lon="12.3912944"><ele>531.5</ele><time>2026-04-24T08:40:12.987Z</time></trkpt><trkpt lat="43.5511292" lon="12.391523"><ele>526.0</ele><time>2026-04-24T08:40:13.987Z</time></trkpt><trkpt lat="43.5509601" lon="12.391759"><ele>526.0</ele><time>2026-04-24T08:40:14.987Z</time></trkpt><trkpt lat="43.5507974" lon="12.3919861"><ele>526.0</ele><time>2026-04-24T08:40:15.987Z</time></trkpt><trkpt lat="43.5506437" lon="12.3922067"><ele>523.3333333333334</ele><time>2026-04-24T08:40:16.988Z</time></trkpt><trkpt lat="43.550499" lon="12.3924308"><ele>520.6666666666666</ele><time>2026-04-24T08:40:17.987Z</time></trkpt><trkpt lat="43.55037" lon="12.3926622"><ele>518.0</ele><time>2026-04-24T08:40:18.987Z</time></trkpt><trkpt lat="43.550262" lon="12.3929039"><ele>520.0</ele><time>2026-04-24T08:40:19.988Z</time></trkpt><trkpt lat="43.5501806" lon="12.3931684"><ele>522.0</ele><time>2026-04-24T08:40:20.987Z</time></trkpt><trkpt lat="43.5501331" lon="12.3934567"><ele>524.0</ele><time>2026-04-24T08:40:21.987Z</time></trkpt><trkpt lat="43.5501221" lon="12.3937557"><ele>525.0</ele><time>2026-04-24T08:40:22.987Z</time></trkpt><trkpt lat="43.550153" lon="12.3940499"><ele>526.0</ele><time>2026-04-24T08:40:23.987Z</time></trkpt><trkpt lat="43.5502255" lon="12.3943546"><ele>527.0</ele><time>2026-04-24T08:40:24.987Z</time></trkpt><trkpt lat="43.5503154" lon="12.3946635"><ele>539.5</ele><time>2026-04-24T08:40:25.987Z</time></trkpt><trkpt lat="43.5504106" lon="12.3949766"><ele>552.0</ele><time>2026-04-24T08:40:26.987Z</time></trkpt><trkpt lat="43.5504997" lon="12.3952953"><ele>543.0</ele><time>2026-04-24T08:40:27.987Z</time></trkpt><trkpt lat="43.5505737" lon="12.3956293"><ele>534.0</ele><time>2026-04-24T08:40:28.988Z</time></trkpt><trkpt lat="43.5506275" lon="12.3959708"><ele>534.0</ele><time>2026-04-24T08:40:29.987Z</time></trkpt><trkpt lat="43.5506826" lon="12.3963152"><ele>534.0</ele><time>2026-04-24T08:40:30.987Z</time></trkpt><trkpt lat="43.5507639" lon="12.396656"><ele>529.0</ele><time>2026-04-24T08:40:31.986Z</time></trkpt><trkpt lat="43.5508525" lon="12.3969963"><ele>524.0</ele><time>2026-04-24T08:40:32.986Z</time></trkpt><trkpt lat="43.5509417" lon="12.3973403"><ele>518.0</ele><time>2026-04-24T08:40:33.986Z</time></trkpt><trkpt lat="43.5510298" lon="12.3976822"><ele>512.0</ele><time>2026-04-24T08:40:34.986Z</time></trkpt><trkpt lat="43.5511038" lon="12.3980263"><ele>507.5</ele><time>2026-04-24T08:40:35.986Z</time></trkpt><trkpt lat="43.5511411" lon="12.3983745"><ele>503.0</ele><time>2026-04-24T08:40:36.986Z</time></trkpt><trkpt lat="43.551152" lon="12.3987157"><ele>502.0</ele><time>2026-04-24T08:40:37.986Z</time></trkpt><trkpt lat="43.5511659" lon="12.3990466"><ele>501.0</ele><time>2026-04-24T08:40:38.986Z</time></trkpt><trkpt lat="43.5511863" lon="12.3993647"><ele>506.0</ele><time>2026-04-24T08:40:39.987Z</time></trkpt><trkpt lat="43.551225" lon="12.3996665"><ele>511.0</ele><time>2026-04-24T08:40:40.986Z</time></trkpt><trkpt lat="43.5512891" lon="12.3999574"><ele>516.0</ele><time>2026-04-24T08:40:41.986Z</time></trkpt><trkpt lat="43.5513851" lon="12.4002467"><ele>512.0</ele><time>2026-04-24T08:40:42.987Z</time></trkpt><trkpt lat="43.5515078" lon="12.4005301"><ele>508.0</ele><time>2026-04-24T08:40:43.986Z</time></trkpt><trkpt lat="43.5516456" lon="12.4008084"><ele>508.0</ele><time>2026-04-24T08:40:44.986Z</time></trkpt><trkpt lat="43.5517938" lon="12.4010811"><ele>508.0</ele><time>2026-04-24T08:40:45.986Z</time></trkpt><trkpt lat="43.5519449" lon="12.4013338"><ele>512.0</ele><time>2026-04-24T08:40:46.987Z</time></trkpt><trkpt lat="43.5521124" lon="12.4015621"><ele>516.0</ele><time>2026-04-24T08:40:47.986Z</time></trkpt><trkpt lat="43.5523083" lon="12.4017545"><ele>516.0</ele><time>2026-04-24T08:40:48.987Z</time></trkpt><trkpt lat="43.5525228" lon="12.4019183"><ele>516.0</ele><time>2026-04-24T08:40:49.987Z</time></trkpt><trkpt lat="43.5527383" lon="12.4020845"><ele>516.0</ele><time>2026-04-24T08:40:50.986Z</time></trkpt><trkpt lat="43.5529476" lon="12.4022605"><ele>516.0</ele><time>2026-04-24T08:40:51.986Z</time></trkpt><trkpt lat="43.553137" lon="12.4024543"><ele>516.0</ele><time>2026-04-24T08:40:52.986Z</time></trkpt><trkpt lat="43.5532811" lon="12.4026971"><ele>516.0</ele><time>2026-04-24T08:40:53.987Z</time></trkpt><trkpt lat="43.5533868" lon="12.4029846"><ele>509.5</ele><time>2026-04-24T08:40:54.986Z</time></trkpt><trkpt lat="43.5534621" lon="12.4032906"><ele>503.0</ele><time>2026-04-24T08:40:55.986Z</time></trkpt><trkpt lat="43.5535319" lon="12.4035814"><ele>500.3333333333333</ele><time>2026-04-24T08:40:56.987Z</time></trkpt><trkpt lat="43.5536011" lon="12.403862"><ele>497.66666666666663</ele><time>2026-04-24T08:40:57.986Z</time></trkpt><trkpt lat="43.5536706" lon="12.4041273"><ele>495.0</ele><time>2026-04-24T08:40:58.987Z</time></trkpt><trkpt lat="43.5537518" lon="12.4043702"><ele>497.0</ele><time>2026-04-24T08:40:59.987Z</time></trkpt><trkpt lat="43.5538551" lon="12.4045802"><ele>499.0</ele><time>2026-04-24T08:41:00.986Z</time></trkpt><trkpt lat="43.5539761" lon="12.4047573"><ele>501.0</ele><time>2026-04-24T08:41:01.987Z</time></trkpt><trkpt lat="43.5540958" lon="12.4049082"><ele>501.0</ele><time>2026-04-24T08:41:02.987Z</time></trkpt><trkpt lat="43.5542006" lon="12.4050395"><ele>501.0</ele><time>2026-04-24T08:41:03.986Z</time></trkpt><trkpt lat="43.5542943" lon="12.405158"><ele>501.0</ele><time>2026-04-24T08:41:04.987Z</time></trkpt><trkpt lat="43.5543823" lon="12.4052731"><ele>501.0</ele><time>2026-04-24T08:41:05.986Z</time></trkpt><trkpt lat="43.5544658" lon="12.4053861"><ele>502.0</ele><time>2026-04-24T08:41:06.987Z</time></trkpt><trkpt lat="43.5545486" lon="12.4054974"><ele>503.0</ele><time>2026-04-24T08:41:07.986Z</time></trkpt><trkpt lat="43.5546333" lon="12.4056101"><ele>504.0</ele><time>2026-04-24T08:41:08.986Z</time></trkpt><trkpt lat="43.5547195" lon="12.4057291"><ele>505.0</ele><time>2026-04-24T08:41:09.987Z</time></trkpt><trkpt lat="43.5548063" lon="12.4058612"><ele>505.0</ele><time>2026-04-24T08:41:10.987Z</time></trkpt><trkpt lat="43.5548841" lon="12.4060048"><ele>505.0</ele><time>2026-04-24T08:41:11.987Z</time></trkpt><trkpt lat="43.5549458" lon="12.4061532"><ele>505.0</ele><time>2026-04-24T08:41:12.986Z</time></trkpt><trkpt lat="43.5549965" lon="12.4063062"><ele>505.0</ele><time>2026-04-24T08:41:13.986Z</time></trkpt><trkpt lat="43.555052" lon="12.4064623"><ele>502.0</ele><time>2026-04-24T08:41:14.987Z</time></trkpt><trkpt lat="43.5551202" lon="12.406616"><ele>499.0</ele><time>2026-04-24T08:41:15.986Z</time></trkpt><trkpt lat="43.5552295" lon="12.4067967"><ele>496.0</ele><time>2026-04-24T08:41:16.986Z</time></trkpt><trkpt lat="43.5553629" lon="12.4070185"><ele>496.5</ele><time>2026-04-24T08:41:17.987Z</time></trkpt><trkpt lat="43.5555168" lon="12.4072849"><ele>497.0</ele><time>2026-04-24T08:41:18.986Z</time></trkpt><trkpt lat="43.5556821" lon="12.4075843"><ele>497.0</ele><time>2026-04-24T08:41:19.986Z</time></trkpt><trkpt lat="43.5558701" lon="12.4078802"><ele>497.0</ele><time>2026-04-24T08:41:20.986Z</time></trkpt><trkpt lat="43.5560636" lon="12.4081471"><ele>495.0</ele><time>2026-04-24T08:41:21.986Z</time></trkpt><trkpt lat="43.5562597" lon="12.4083976"><ele>493.0</ele><time>2026-04-24T08:41:22.986Z</time></trkpt><trkpt lat="43.5564656" lon="12.4086351"><ele>489.5</ele><time>2026-04-24T08:41:23.987Z</time></trkpt><trkpt lat="43.5566827" lon="12.4088552"><ele>486.0</ele><time>2026-04-24T08:41:24.986Z</time></trkpt><trkpt lat="43.5569027" lon="12.4090665"><ele>489.5</ele><time>2026-04-24T08:41:25.987Z</time></trkpt><trkpt lat="43.557122" lon="12.4092748"><ele>493.0</ele><time>2026-04-24T08:41:26.986Z</time></trkpt><trkpt lat="43.5573399" lon="12.4094756"><ele>490.5</ele><time>2026-04-24T08:41:27.986Z</time></trkpt><trkpt lat="43.5575505" lon="12.4096707"><ele>488.0</ele><time>2026-04-24T08:41:28.986Z</time></trkpt><trkpt lat="43.5577523" lon="12.4098619"><ele>488.5</ele><time>2026-04-24T08:41:29.986Z</time></trkpt><trkpt lat="43.5579455" lon="12.4100483"><ele>489.0</ele><time>2026-04-24T08:41:30.986Z</time></trkpt><trkpt lat="43.5581288" lon="12.4102335"><ele>489.0</ele><time>2026-04-24T08:41:31.986Z</time></trkpt><trkpt lat="43.5583069" lon="12.4104245"><ele>489.0</ele><time>2026-04-24T08:41:32.986Z</time></trkpt><trkpt lat="43.5584757" lon="12.4106294"><ele>488.5</ele><time>2026-04-24T08:41:33.986Z</time></trkpt><trkpt lat="43.5586313" lon="12.4108611"><ele>488.0</ele><time>2026-04-24T08:41:34.987Z</time></trkpt><trkpt lat="43.5587593" lon="12.4111174"><ele>493.3333333333333</ele><time>2026-04-24T08:41:35.986Z</time></trkpt><trkpt lat="43.5588559" lon="12.411378"><ele>498.66666666666663</ele><time>2026-04-24T08:41:36.987Z</time></trkpt><trkpt lat="43.5589286" lon="12.4116403"><ele>504.0</ele><time>2026-04-24T08:41:37.986Z</time></trkpt><trkpt lat="43.5589936" lon="12.4118918"><ele>504.0</ele><time>2026-04-24T08:41:38.986Z</time></trkpt><trkpt lat="43.5590563" lon="12.4121343"><ele>504.0</ele><time>2026-04-24T08:41:39.986Z</time></trkpt><trkpt lat="43.5591183" lon="12.4123715"><ele>504.0</ele><time>2026-04-24T08:41:40.987Z</time></trkpt><trkpt lat="43.5591819" lon="12.4126153"><ele>500.33333333333337</ele><time>2026-04-24T08:41:41.986Z</time></trkpt><trkpt lat="43.5592466" lon="12.4128598"><ele>496.6666666666667</ele><time>2026-04-24T08:41:42.986Z</time></trkpt><trkpt lat="43.5593129" lon="12.4131077"><ele>493.0</ele><time>2026-04-24T08:41:43.986Z</time></trkpt><trkpt lat="43.55938" lon="12.4133531"><ele>490.6666666666667</ele><time>2026-04-24T08:41:44.986Z</time></trkpt><trkpt lat="43.5594476" lon="12.4135956"><ele>488.33333333333337</ele><time>2026-04-24T08:41:45.986Z</time></trkpt><trkpt lat="43.5595054" lon="12.413838"><ele>486.0</ele><time>2026-04-24T08:41:46.986Z</time></trkpt><trkpt lat="43.5595501" lon="12.4140821"><ele>490.0</ele><time>2026-04-24T08:41:47.987Z</time></trkpt><trkpt lat="43.5595674" lon="12.4143234"><ele>494.0</ele><time>2026-04-24T08:41:48.987Z</time></trkpt><trkpt lat="43.5595569" lon="12.4145532"><ele>498.0</ele><time>2026-04-24T08:41:49.987Z</time></trkpt><trkpt lat="43.5595369" lon="12.4147711"><ele>498.0</ele><time>2026-04-24T08:41:50.986Z</time></trkpt><trkpt lat="43.5595259" lon="12.4149794"><ele>498.0</ele><time>2026-04-24T08:41:51.986Z</time></trkpt><trkpt lat="43.5595283" lon="12.415178"><ele>498.0</ele><time>2026-04-24T08:41:52.987Z</time></trkpt><trkpt lat="43.5595583" lon="12.4153682"><ele>498.0</ele><time>2026-04-24T08:41:53.986Z</time></trkpt><trkpt lat="43.5596129" lon="12.415544"><ele>497.25</ele><time>2026-04-24T08:41:54.987Z</time></trkpt><trkpt lat="43.5596849" lon="12.4157118"><ele>496.5</ele><time>2026-04-24T08:41:55.986Z</time></trkpt><trkpt lat="43.5597597" lon="12.4158791"><ele>495.75</ele><time>2026-04-24T08:41:56.986Z</time></trkpt><trkpt lat="43.5598286" lon="12.4160466"><ele>495.0</ele><time>2026-04-24T08:41:57.987Z</time></trkpt><trkpt lat="43.5598869" lon="12.416217"><ele>493.75</ele><time>2026-04-24T08:41:58.987Z</time></trkpt><trkpt lat="43.5599209" lon="12.4163832"><ele>492.5</ele><time>2026-04-24T08:41:59.987Z</time></trkpt><trkpt lat="43.5599286" lon="12.4165526"><ele>491.25</ele><time>2026-04-24T08:42:00.986Z</time></trkpt><trkpt lat="43.5599026" lon="12.4167111"><ele>490.0</ele><time>2026-04-24T08:42:01.987Z</time></trkpt><trkpt lat="43.5598472" lon="12.4168524"><ele>490.0</ele><time>2026-04-24T08:42:02.986Z</time></trkpt><trkpt lat="43.5597799" lon="12.416986"><ele>490.0</ele><time>2026-04-24T08:42:03.987Z</time></trkpt><trkpt lat="43.5597084" lon="12.4171069"><ele>490.0</ele><time>2026-04-24T08:42:04.986Z</time></trkpt><trkpt lat="43.5596277" lon="12.4172155"><ele>490.0</ele><time>2026-04-24T08:42:05.987Z</time></trkpt><trkpt lat="43.5595452" lon="12.4173191"><ele>488.6</ele><time>2026-04-24T08:42:06.986Z</time></trkpt><trkpt lat="43.5594653" lon="12.4174139"><ele>487.2</ele><time>2026-04-24T08:42:07.986Z</time></trkpt><trkpt lat="43.5593871" lon="12.4175015"><ele>485.79999999999995</ele><time>2026-04-24T08:42:08.986Z</time></trkpt><trkpt lat="43.5593136" lon="12.4175861"><ele>484.4</ele><time>2026-04-24T08:42:09.987Z</time></trkpt><trkpt lat="43.5592451" lon="12.4176706"><ele>483.0</ele><time>2026-04-24T08:42:10.987Z</time></trkpt><trkpt lat="43.559188" lon="12.417763"><ele>483.0</ele><time>2026-04-24T08:42:11.986Z</time></trkpt><trkpt lat="43.5591466" lon="12.417865"><ele>483.0</ele><time>2026-04-24T08:42:12.986Z</time></trkpt><trkpt lat="43.5591134" lon="12.4179671"><ele>483.0</ele><time>2026-04-24T08:42:13.986Z</time></trkpt><trkpt lat="43.5590904" lon="12.4180595"><ele>483.0</ele><time>2026-04-24T08:42:14.986Z</time></trkpt><trkpt lat="43.5590654" lon="12.418205"><ele>483.0</ele><time>2026-04-24T08:42:16.988Z</time></trkpt><trkpt lat="43.5590469" lon="12.4183388"><ele>483.0</ele><time>2026-04-24T08:42:18.987Z</time></trkpt><trkpt lat="43.5590342" lon="12.4184583"><ele>482.79999999999995</ele><time>2026-04-24T08:42:20.988Z</time></trkpt><trkpt lat="43.5590274" lon="12.418568"><ele>482.59999999999997</ele><time>2026-04-24T08:42:22.986Z</time></trkpt><trkpt lat="43.55902" lon="12.4186769"><ele>482.40000000000003</ele><time>2026-04-24T08:42:24.986Z</time></trkpt><trkpt lat="43.5590118" lon="12.4188113"><ele>482.20000000000005</ele><time>2026-04-24T08:42:26.986Z</time></trkpt><trkpt lat="43.5590116" lon="12.4189533"><ele>482.0</ele><time>2026-04-24T08:42:28.986Z</time></trkpt><trkpt lat="43.559013" lon="12.4191084"><ele>481.6</ele><time>2026-04-24T08:42:30.986Z</time></trkpt><trkpt lat="43.5590157" lon="12.419281"><ele>481.20000000000005</ele><time>2026-04-24T08:42:32.986Z</time></trkpt><trkpt lat="43.5590191" lon="12.4194478"><ele>480.8</ele><time>2026-04-24T08:42:34.986Z</time></trkpt><trkpt lat="43.5590233" lon="12.419535"><ele>480.4</ele><time>2026-04-24T08:42:35.986Z</time></trkpt><trkpt lat="43.5590328" lon="12.4197104"><ele>480.0</ele><time>2026-04-24T08:42:37.986Z</time></trkpt><trkpt lat="43.5590518" lon="12.4198674"><ele>479.6</ele><time>2026-04-24T08:42:39.987Z</time></trkpt><trkpt lat="43.5590626" lon="12.4200133"><ele>479.2</ele><time>2026-04-24T08:42:41.987Z</time></trkpt><trkpt lat="43.5590678" lon="12.4201482"><ele>478.79999999999995</ele><time>2026-04-24T08:42:43.986Z</time></trkpt><trkpt lat="43.5590826" lon="12.4203005"><ele>478.4</ele><time>2026-04-24T08:42:45.986Z</time></trkpt><trkpt lat="43.5590904" lon="12.4203889"><ele>478.0</ele><time>2026-04-24T08:42:46.986Z</time></trkpt><trkpt lat="43.559098" lon="12.4204862"><ele>477.50000000000006</ele><time>2026-04-24T08:42:47.986Z</time></trkpt><trkpt lat="43.5591047" lon="12.4205897"><ele>477.0</ele><time>2026-04-24T08:42:48.986Z</time></trkpt><trkpt lat="43.5591107" lon="12.4206999"><ele>476.5</ele><time>2026-04-24T08:42:49.986Z</time></trkpt><trkpt lat="43.559122" lon="12.420812"><ele>476.0</ele><time>2026-04-24T08:42:50.986Z</time></trkpt><trkpt lat="43.5591363" lon="12.4209213"><ele>475.50000000000006</ele><time>2026-04-24T08:42:51.986Z</time></trkpt><trkpt lat="43.5591506" lon="12.4210304"><ele>475.0</ele><time>2026-04-24T08:42:52.986Z</time></trkpt><trkpt lat="43.5591652" lon="12.4211328"><ele>475.0</ele><time>2026-04-24T08:42:53.987Z</time></trkpt><trkpt lat="43.5591777" lon="12.4212276"><ele>475.00000000000006</ele><time>2026-04-24T08:42:54.986Z</time></trkpt><trkpt lat="43.5591914" lon="12.4213157"><ele>475.0</ele><time>2026-04-24T08:42:55.987Z</time></trkpt><trkpt lat="43.5592044" lon="12.4214029"><ele>475.0</ele><time>2026-04-24T08:42:56.986Z</time></trkpt><trkpt lat="43.5592138" lon="12.4215393"><ele>475.00000000000006</ele><time>2026-04-24T08:42:58.986Z</time></trkpt><trkpt lat="43.5592084" lon="12.4216391"><ele>475.0</ele><time>2026-04-24T08:43:00.986Z</time></trkpt><trkpt lat="43.5592367" lon="12.4217276"><ele>475.0</ele><time>2026-04-24T08:43:07.986Z</time></trkpt><trkpt lat="43.559254" lon="12.4215879"><ele>475.0</ele><time>2026-04-24T08:43:10.987Z</time></trkpt><trkpt lat="43.5592335" lon="12.4214093"><ele>475.0</ele><time>2026-04-24T08:43:12.986Z</time></trkpt><trkpt lat="43.5592215" lon="12.421296"><ele>475.0</ele><time>2026-04-24T08:43:13.987Z</time></trkpt><trkpt lat="43.5592079" lon="12.4211632"><ele>475.0</ele><time>2026-04-24T08:43:14.987Z</time></trkpt><trkpt lat="43.5591939" lon="12.4210308"><ele>475.0</ele><time>2026-04-24T08:43:15.986Z</time></trkpt><trkpt lat="43.5591816" lon="12.4209007"><ele>475.00000000000006</ele><time>2026-04-24T08:43:16.987Z</time></trkpt><trkpt lat="43.5591671" lon="12.4207662"><ele>475.0</ele><time>2026-04-24T08:43:17.986Z</time></trkpt><trkpt lat="43.5591534" lon="12.4206412"><ele>475.0</ele><time>2026-04-24T08:43:18.986Z</time></trkpt><trkpt lat="43.5591405" lon="12.4205266"><ele>475.0</ele><time>2026-04-24T08:43:19.986Z</time></trkpt><trkpt lat="43.5591294" lon="12.4204271"><ele>475.00000000000006</ele><time>2026-04-24T08:43:20.986Z</time></trkpt><trkpt lat="43.5591203" lon="12.4203345"><ele>475.0</ele><time>2026-04-24T08:43:21.987Z</time></trkpt><trkpt lat="43.5590848" lon="12.420193"><ele>475.0</ele><time>2026-04-24T08:43:23.986Z</time></trkpt><trkpt lat="43.5589747" lon="12.4201795"><ele>475.0</ele><time>2026-04-24T08:43:25.987Z</time></trkpt><trkpt lat="43.558911" lon="12.4202294"><ele>475.0</ele><time>2026-04-24T08:43:26.986Z</time></trkpt><trkpt lat="43.5588425" lon="12.4203074"><ele>475.0</ele><time>2026-04-24T08:43:27.987Z</time></trkpt><trkpt lat="43.5587779" lon="12.4204144"><ele>475.0</ele><time>2026-04-24T08:43:28.986Z</time></trkpt><trkpt lat="43.5587037" lon="12.4205074"><ele>475.25</ele><time>2026-04-24T08:43:29.986Z</time></trkpt><trkpt lat="43.558623" lon="12.4206024"><ele>475.5</ele><time>2026-04-24T08:43:30.986Z</time></trkpt><trkpt lat="43.5585334" lon="12.4206939"><ele>475.75</ele><time>2026-04-24T08:43:31.986Z</time></trkpt><trkpt lat="43.5584402" lon="12.4207777"><ele>476.0</ele><time>2026-04-24T08:43:32.986Z</time></trkpt><trkpt lat="43.5583356" lon="12.4208615"><ele>476.0</ele><time>2026-04-24T08:43:33.986Z</time></trkpt><trkpt lat="43.5582252" lon="12.4209351"><ele>476.0</ele><time>2026-04-24T08:43:34.987Z</time></trkpt><trkpt lat="43.5581172" lon="12.4210064"><ele>476.0</ele><time>2026-04-24T08:43:35.986Z</time></trkpt><trkpt lat="43.5580148" lon="12.4210702"><ele>476.0</ele><time>2026-04-24T08:43:36.986Z</time></trkpt><trkpt lat="43.5579247" lon="12.4211224"><ele>475.99999999999994</ele><time>2026-04-24T08:43:37.986Z</time></trkpt><trkpt lat="43.5578512" lon="12.4211564"><ele>476.0</ele><time>2026-04-24T08:43:38.988Z</time></trkpt><trkpt lat="43.5577792" lon="12.4211754"><ele>476.0</ele><time>2026-04-24T08:43:39.986Z</time></trkpt><trkpt lat="43.5576954" lon="12.4211814"><ele>476.0</ele><time>2026-04-24T08:43:40.986Z</time></trkpt><trkpt lat="43.5576018" lon="12.4211655"><ele>475.99999999999994</ele><time>2026-04-24T08:43:41.986Z</time></trkpt><trkpt lat="43.5575014" lon="12.4211245"><ele>476.0</ele><time>2026-04-24T08:43:42.986Z</time></trkpt><trkpt lat="43.5573882" lon="12.421083"><ele>476.0</ele><time>2026-04-24T08:43:43.986Z</time></trkpt><trkpt lat="43.5572969" lon="12.4210574"><ele>476.0</ele><time>2026-04-24T08:43:44.987Z</time></trkpt><trkpt lat="43.5572258" lon="12.4210748"><ele>476.0</ele><time>2026-04-24T08:43:46.986Z</time></trkpt><trkpt lat="43.557203" lon="12.4211982"><ele>476.0</ele><time>2026-04-24T08:43:48.988Z</time></trkpt><trkpt lat="43.5571869" lon="12.4213385"><ele>476.0</ele><time>2026-04-24T08:43:49.986Z</time></trkpt><trkpt lat="43.5571671" lon="12.4215533"><ele>476.3333333333333</ele><time>2026-04-24T08:43:50.986Z</time></trkpt><trkpt lat="43.5571434" lon="12.4217738"><ele>476.66666666666663</ele><time>2026-04-24T08:43:51.987Z</time></trkpt><trkpt lat="43.5571446" lon="12.4220103"><ele>477.0</ele><time>2026-04-24T08:43:52.987Z</time></trkpt><trkpt lat="43.557155" lon="12.4222582"><ele>477.0</ele><time>2026-04-24T08:43:53.986Z</time></trkpt><trkpt lat="43.5571706" lon="12.4225091"><ele>477.0</ele><time>2026-04-24T08:43:54.986Z</time></trkpt><trkpt lat="43.5571889" lon="12.4227717"><ele>477.0</ele><time>2026-04-24T08:43:55.987Z</time></trkpt><trkpt lat="43.5572043" lon="12.4230383"><ele>477.33333333333337</ele><time>2026-04-24T08:43:56.986Z</time></trkpt><trkpt lat="43.5572195" lon="12.4233065"><ele>477.6666666666667</ele><time>2026-04-24T08:43:57.987Z</time></trkpt><trkpt lat="43.5572387" lon="12.4235505"><ele>478.0</ele><time>2026-04-24T08:43:58.986Z</time></trkpt><trkpt lat="43.5572628" lon="12.4237832"><ele>479.59999999999997</ele><time>2026-04-24T08:43:59.987Z</time></trkpt><trkpt lat="43.5573326" lon="12.4239078"><ele>481.19999999999993</ele><time>2026-04-24T08:44:00.986Z</time></trkpt><trkpt lat="43.5573657" lon="12.4240258"><ele>482.8</ele><time>2026-04-24T08:44:01.986Z</time></trkpt><trkpt lat="43.557362" lon="12.4241285"><ele>484.4</ele><time>2026-04-24T08:44:02.987Z</time></trkpt><trkpt lat="43.5572741" lon="12.4241825"><ele>486.0</ele><time>2026-04-24T08:44:04.986Z</time></trkpt><trkpt lat="43.5572037" lon="12.4239941"><ele>486.0</ele><time>2026-04-24T08:44:06.986Z</time></trkpt><trkpt lat="43.557142" lon="12.4238475"><ele>486.0</ele><time>2026-04-24T08:44:07.986Z</time></trkpt><trkpt lat="43.5570711" lon="12.423688"><ele>486.0</ele><time>2026-04-24T08:44:08.986Z</time></trkpt><trkpt lat="43.5569879" lon="12.4235039"><ele>486.0</ele><time>2026-04-24T08:44:09.986Z</time></trkpt><trkpt lat="43.5569129" lon="12.4233178"><ele>487.20000000000005</ele><time>2026-04-24T08:44:10.986Z</time></trkpt><trkpt lat="43.5568623" lon="12.4231545"><ele>488.40000000000003</ele><time>2026-04-24T08:44:11.987Z</time></trkpt><trkpt lat="43.5568351" lon="12.4230158"><ele>489.6</ele><time>2026-04-24T08:44:12.987Z</time></trkpt><trkpt lat="43.5567999" lon="12.4229064"><ele>490.8</ele><time>2026-04-24T08:44:13.986Z</time></trkpt><trkpt lat="43.5567444" lon="12.4228429"><ele>492.0</ele><time>2026-04-24T08:44:14.986Z</time></trkpt><trkpt lat="43.5566356" lon="12.4229031"><ele>493.20000000000005</ele><time>2026-04-24T08:44:16.986Z</time></trkpt><trkpt lat="43.556628" lon="12.4229931"><ele>494.40000000000003</ele><time>2026-04-24T08:44:17.986Z</time></trkpt><trkpt lat="43.5566533" lon="12.4231076"><ele>495.59999999999997</ele><time>2026-04-24T08:44:18.987Z</time></trkpt><trkpt lat="43.5566929" lon="12.4232311"><ele>496.79999999999995</ele><time>2026-04-24T08:44:19.987Z</time></trkpt><trkpt lat="43.5567262" lon="12.4234009"><ele>498.0</ele><time>2026-04-24T08:44:20.987Z</time></trkpt><trkpt lat="43.5567533" lon="12.4235969"><ele>498.0</ele><time>2026-04-24T08:44:21.987Z</time></trkpt><trkpt lat="43.5567846" lon="12.4238104"><ele>498.0</ele><time>2026-04-24T08:44:22.986Z</time></trkpt><trkpt lat="43.5568237" lon="12.4240129"><ele>498.0</ele><time>2026-04-24T08:44:23.986Z</time></trkpt><trkpt lat="43.5568675" lon="12.4241783"><ele>498.0</ele><time>2026-04-24T08:44:24.986Z</time></trkpt><trkpt lat="43.5569076" lon="12.4243018"><ele>500.3333333333333</ele><time>2026-04-24T08:44:25.986Z</time></trkpt><trkpt lat="43.5569109" lon="12.4244146"><ele>502.66666666666663</ele><time>2026-04-24T08:44:26.987Z</time></trkpt><trkpt lat="43.5568702" lon="12.4244909"><ele>505.0</ele><time>2026-04-24T08:44:27.986Z</time></trkpt><trkpt lat="43.5568051" lon="12.4244961"><ele>507.3333333333333</ele><time>2026-04-24T08:44:28.987Z</time></trkpt><trkpt lat="43.5567558" lon="12.4244228"><ele>509.66666666666663</ele><time>2026-04-24T08:44:29.986Z</time></trkpt><trkpt lat="43.5567245" lon="12.4243158"><ele>512.0</ele><time>2026-04-24T08:44:30.986Z</time></trkpt><trkpt lat="43.5566746" lon="12.4241959"><ele>512.0</ele><time>2026-04-24T08:44:31.987Z</time></trkpt><trkpt lat="43.5566053" lon="12.4240707"><ele>512.0</ele><time>2026-04-24T08:44:32.986Z</time></trkpt><trkpt lat="43.556534" lon="12.4239306"><ele>512.0</ele><time>2026-04-24T08:44:33.986Z</time></trkpt><trkpt lat="43.556467" lon="12.4237712"><ele>512.0</ele><time>2026-04-24T08:44:34.986Z</time></trkpt><trkpt lat="43.5564149" lon="12.4236152"><ele>514.4</ele><time>2026-04-24T08:44:35.986Z</time></trkpt><trkpt lat="43.5563649" lon="12.4234891"><ele>516.8000000000001</ele><time>2026-04-24T08:44:36.986Z</time></trkpt><trkpt lat="43.5562947" lon="12.4233802"><ele>519.2</ele><time>2026-04-24T08:44:37.986Z</time></trkpt><trkpt lat="43.5562043" lon="12.4233046"><ele>521.6</ele><time>2026-04-24T08:44:38.987Z</time></trkpt><trkpt lat="43.5560848" lon="12.4232637"><ele>524.0</ele><time>2026-04-24T08:44:39.986Z</time></trkpt><trkpt lat="43.5559441" lon="12.4232568"><ele>524.0</ele><time>2026-04-24T08:44:40.986Z</time></trkpt><trkpt lat="43.5557845" lon="12.4232603"><ele>524.0</ele><time>2026-04-24T08:44:41.986Z</time></trkpt><trkpt lat="43.5556142" lon="12.423264"><ele>524.0</ele><time>2026-04-24T08:44:42.986Z</time></trkpt><trkpt lat="43.5554475" lon="12.4232461"><ele>524.25</ele><time>2026-04-24T08:44:43.986Z</time></trkpt><trkpt lat="43.5553092" lon="12.4231819"><ele>524.5</ele><time>2026-04-24T08:44:44.986Z</time></trkpt><trkpt lat="43.5552155" lon="12.4230729"><ele>524.75</ele><time>2026-04-24T08:44:45.987Z</time></trkpt><trkpt lat="43.5551455" lon="12.4229614"><ele>525.0</ele><time>2026-04-24T08:44:46.986Z</time></trkpt><trkpt lat="43.5550683" lon="12.4229082"><ele>525.0</ele><time>2026-04-24T08:44:47.986Z</time></trkpt><trkpt lat="43.5549965" lon="12.422923"><ele>525.0</ele><time>2026-04-24T08:44:48.987Z</time></trkpt><trkpt lat="43.5549535" lon="12.4229915"><ele>525.0</ele><time>2026-04-24T08:44:49.987Z</time></trkpt><trkpt lat="43.5549576" lon="12.4230879"><ele>525.0</ele><time>2026-04-24T08:44:50.986Z</time></trkpt><trkpt lat="43.5549997" lon="12.4232145"><ele>525.0</ele><time>2026-04-24T08:44:51.986Z</time></trkpt><trkpt lat="43.555058" lon="12.4233679"><ele>525.0</ele><time>2026-04-24T08:44:52.986Z</time></trkpt><trkpt lat="43.5551321" lon="12.4235441"><ele>528.6666666666666</ele><time>2026-04-24T08:44:53.987Z</time></trkpt><trkpt lat="43.5552232" lon="12.4237319"><ele>532.3333333333333</ele><time>2026-04-24T08:44:54.986Z</time></trkpt><trkpt lat="43.5553166" lon="12.4239381"><ele>536.0</ele><time>2026-04-24T08:44:55.987Z</time></trkpt><trkpt lat="43.5554002" lon="12.4241514"><ele>536.3333333333333</ele><time>2026-04-24T08:44:56.988Z</time></trkpt><trkpt lat="43.5554762" lon="12.4243793"><ele>536.6666666666666</ele><time>2026-04-24T08:44:57.987Z</time></trkpt><trkpt lat="43.5555406" lon="12.4246081"><ele>537.0</ele><time>2026-04-24T08:44:58.986Z</time></trkpt><trkpt lat="43.5555917" lon="12.4248093"><ele>537.2</ele><time>2026-04-24T08:44:59.988Z</time></trkpt><trkpt lat="43.5556315" lon="12.4249709"><ele>537.4000000000001</ele><time>2026-04-24T08:45:00.986Z</time></trkpt><trkpt lat="43.5556414" lon="12.4250951"><ele>537.5999999999999</ele><time>2026-04-24T08:45:01.986Z</time></trkpt><trkpt lat="43.555611" lon="12.4251853"><ele>537.8</ele><time>2026-04-24T08:45:02.986Z</time></trkpt><trkpt lat="43.555471" lon="12.425173"><ele>538.0</ele><time>2026-04-24T08:45:04.986Z</time></trkpt><trkpt lat="43.5553729" lon="12.4250856"><ele>540.75</ele><time>2026-04-24T08:45:05.986Z</time></trkpt><trkpt lat="43.5552571" lon="12.4249833"><ele>543.5</ele><time>2026-04-24T08:45:06.986Z</time></trkpt><trkpt lat="43.5551338" lon="12.4248606"><ele>546.25</ele><time>2026-04-24T08:45:07.987Z</time></trkpt><trkpt lat="43.5550137" lon="12.4247152"><ele>549.0</ele><time>2026-04-24T08:45:08.987Z</time></trkpt><trkpt lat="43.5548955" lon="12.4245699"><ele>549.0</ele><time>2026-04-24T08:45:09.986Z</time></trkpt><trkpt lat="43.5547743" lon="12.4244484"><ele>549.0</ele><time>2026-04-24T08:45:10.986Z</time></trkpt><trkpt lat="43.5546614" lon="12.424356"><ele>549.0</ele><time>2026-04-24T08:45:11.986Z</time></trkpt><trkpt lat="43.5545622" lon="12.4242861"><ele>549.0</ele><time>2026-04-24T08:45:12.986Z</time></trkpt><trkpt lat="43.5544876" lon="12.4242498"><ele>549.0</ele><time>2026-04-24T08:45:13.986Z</time></trkpt><trkpt lat="43.5544186" lon="12.4242577"><ele>549.0</ele><time>2026-04-24T08:45:14.986Z</time></trkpt><trkpt lat="43.5543813" lon="12.424402"><ele>549.0</ele><time>2026-04-24T08:45:16.987Z</time></trkpt><trkpt lat="43.5544284" lon="12.424475"><ele>549.0</ele><time>2026-04-24T08:45:17.986Z</time></trkpt><trkpt lat="43.5545117" lon="12.4245353"><ele>549.0</ele><time>2026-04-24T08:45:18.986Z</time></trkpt><trkpt lat="43.5546066" lon="12.4246163"><ele>552.25</ele><time>2026-04-24T08:45:19.986Z</time></trkpt><trkpt lat="43.5546864" lon="12.4247592"><ele>555.5</ele><time>2026-04-24T08:45:20.986Z</time></trkpt><trkpt lat="43.5547566" lon="12.4249313"><ele>558.75</ele><time>2026-04-24T08:45:21.986Z</time></trkpt><trkpt lat="43.554832" lon="12.425128"><ele>562.0</ele><time>2026-04-24T08:45:22.986Z</time></trkpt><trkpt lat="43.554908" lon="12.4253442"><ele>567.6666666666667</ele><time>2026-04-24T08:45:23.986Z</time></trkpt><trkpt lat="43.5549884" lon="12.4255676"><ele>573.3333333333334</ele><time>2026-04-24T08:45:24.986Z</time></trkpt><trkpt lat="43.5550941" lon="12.425783"><ele>579.0</ele><time>2026-04-24T08:45:25.986Z</time></trkpt><trkpt lat="43.5552191" lon="12.4259613"><ele>579.0</ele><time>2026-04-24T08:45:26.986Z</time></trkpt><trkpt lat="43.5553375" lon="12.426116"><ele>579.0</ele><time>2026-04-24T08:45:27.986Z</time></trkpt><trkpt lat="43.5554212" lon="12.4262677"><ele>579.0</ele><time>2026-04-24T08:45:28.986Z</time></trkpt><trkpt lat="43.5554611" lon="12.4263979"><ele>579.0</ele><time>2026-04-24T08:45:29.987Z</time></trkpt><trkpt lat="43.555462" lon="12.4265327"><ele>576.0</ele><time>2026-04-24T08:45:30.986Z</time></trkpt><trkpt lat="43.5554328" lon="12.4266852"><ele>573.0</ele><time>2026-04-24T08:45:31.986Z</time></trkpt><trkpt lat="43.5553784" lon="12.4268402"><ele>570.0</ele><time>2026-04-24T08:45:32.987Z</time></trkpt><trkpt lat="43.5553375" lon="12.4270119"><ele>567.0</ele><time>2026-04-24T08:45:33.986Z</time></trkpt><trkpt lat="43.5553273" lon="12.4271889"><ele>570.0</ele><time>2026-04-24T08:45:34.987Z</time></trkpt><trkpt lat="43.5553611" lon="12.4273459"><ele>573.0</ele><time>2026-04-24T08:45:35.987Z</time></trkpt><trkpt lat="43.5554357" lon="12.4274914"><ele>576.0</ele><time>2026-04-24T08:45:36.987Z</time></trkpt><trkpt lat="43.5555466" lon="12.4276064"><ele>579.0</ele><time>2026-04-24T08:45:37.986Z</time></trkpt><trkpt lat="43.5556715" lon="12.4276769"><ele>579.0</ele><time>2026-04-24T08:45:38.986Z</time></trkpt><trkpt lat="43.5557908" lon="12.4277066"><ele>579.0</ele><time>2026-04-24T08:45:39.986Z</time></trkpt><trkpt lat="43.5558887" lon="12.4277491"><ele>579.0</ele><time>2026-04-24T08:45:40.986Z</time></trkpt><trkpt lat="43.555954" lon="12.4278387"><ele>579.0</ele><time>2026-04-24T08:45:41.987Z</time></trkpt><trkpt lat="43.5559904" lon="12.4279743"><ele>579.0</ele><time>2026-04-24T08:45:42.986Z</time></trkpt><trkpt lat="43.5560096" lon="12.4281449"><ele>585.6666666666666</ele><time>2026-04-24T08:45:43.986Z</time></trkpt><trkpt lat="43.5560343" lon="12.4283353"><ele>592.3333333333333</ele><time>2026-04-24T08:45:44.986Z</time></trkpt><trkpt lat="43.5560774" lon="12.4285443"><ele>599.0</ele><time>2026-04-24T08:45:45.986Z</time></trkpt><trkpt lat="43.5561167" lon="12.4287641"><ele>603.3333333333333</ele><time>2026-04-24T08:45:46.986Z</time></trkpt><trkpt lat="43.5561389" lon="12.428995"><ele>607.6666666666666</ele><time>2026-04-24T08:45:47.987Z</time></trkpt><trkpt lat="43.5561798" lon="12.4292185"><ele>612.0</ele><time>2026-04-24T08:45:48.986Z</time></trkpt><trkpt lat="43.5562407" lon="12.4294291"><ele>605.75</ele><time>2026-04-24T08:45:49.987Z</time></trkpt><trkpt lat="43.556303" lon="12.42962"><ele>599.5</ele><time>2026-04-24T08:45:50.986Z</time></trkpt><trkpt lat="43.5563651" lon="12.4297878"><ele>593.25</ele><time>2026-04-24T08:45:51.986Z</time></trkpt><trkpt lat="43.5564168" lon="12.4299228"><ele>587.0</ele><time>2026-04-24T08:45:52.986Z</time></trkpt><trkpt lat="43.5564358" lon="12.4300359"><ele>587.0</ele><time>2026-04-24T08:45:53.987Z</time></trkpt><trkpt lat="43.5564209" lon="12.4301253"><ele>587.0</ele><time>2026-04-24T08:45:54.986Z</time></trkpt><trkpt lat="43.5563122" lon="12.4301315"><ele>587.0</ele><time>2026-04-24T08:45:56.986Z</time></trkpt><trkpt lat="43.5562303" lon="12.4300724"><ele>587.0</ele><time>2026-04-24T08:45:57.988Z</time></trkpt><trkpt lat="43.5561265" lon="12.4299878"><ele>587.0</ele><time>2026-04-24T08:45:58.987Z</time></trkpt><trkpt lat="43.5560093" lon="12.4298919"><ele>590.0</ele><time>2026-04-24T08:45:59.987Z</time></trkpt><trkpt lat="43.5558635" lon="12.4298019"><ele>593.0</ele><time>2026-04-24T08:46:00.986Z</time></trkpt><trkpt lat="43.5556957" lon="12.4297297"><ele>596.0</ele><time>2026-04-24T08:46:01.986Z</time></trkpt><trkpt lat="43.5555201" lon="12.4296671"><ele>603.3333333333333</ele><time>2026-04-24T08:46:02.986Z</time></trkpt><trkpt lat="43.5553397" lon="12.4296"><ele>610.6666666666666</ele><time>2026-04-24T08:46:03.987Z</time></trkpt><trkpt lat="43.5551655" lon="12.4295261"><ele>618.0</ele><time>2026-04-24T08:46:04.986Z</time></trkpt><trkpt lat="43.5549974" lon="12.4294437"><ele>618.0</ele><time>2026-04-24T08:46:05.987Z</time></trkpt><trkpt lat="43.5548441" lon="12.4293571"><ele>618.0</ele><time>2026-04-24T08:46:06.987Z</time></trkpt><trkpt lat="43.554703" lon="12.4292831"><ele>618.0</ele><time>2026-04-24T08:46:07.986Z</time></trkpt><trkpt lat="43.5545692" lon="12.4292357"><ele>619.0</ele><time>2026-04-24T08:46:08.986Z</time></trkpt><trkpt lat="43.5544436" lon="12.4292281"><ele>620.0</ele><time>2026-04-24T08:46:09.986Z</time></trkpt><trkpt lat="43.554335" lon="12.4292622"><ele>621.0</ele><time>2026-04-24T08:46:10.986Z</time></trkpt><trkpt lat="43.5542484" lon="12.4293381"><ele>622.0</ele><time>2026-04-24T08:46:11.986Z</time></trkpt><trkpt lat="43.5541907" lon="12.4294507"><ele>623.0</ele><time>2026-04-24T08:46:12.986Z</time></trkpt><trkpt lat="43.554167" lon="12.4295982"><ele>623.75</ele><time>2026-04-24T08:46:13.986Z</time></trkpt><trkpt lat="43.5541843" lon="12.4297612"><ele>624.5</ele><time>2026-04-24T08:46:14.986Z</time></trkpt><trkpt lat="43.5542255" lon="12.4299367"><ele>625.25</ele><time>2026-04-24T08:46:15.987Z</time></trkpt><trkpt lat="43.5542792" lon="12.4301231"><ele>626.0</ele><time>2026-04-24T08:46:16.986Z</time></trkpt><trkpt lat="43.5543404" lon="12.430321"><ele>627.0</ele><time>2026-04-24T08:46:17.985Z</time></trkpt><trkpt lat="43.55441" lon="12.4305198"><ele>628.0</ele><time>2026-04-24T08:46:18.985Z</time></trkpt><trkpt lat="43.5544798" lon="12.4307115"><ele>629.0</ele><time>2026-04-24T08:46:19.985Z</time></trkpt><trkpt lat="43.5545471" lon="12.4308881"><ele>625.0</ele><time>2026-04-24T08:46:20.986Z</time></trkpt><trkpt lat="43.5545981" lon="12.431054"><ele>621.0</ele><time>2026-04-24T08:46:21.985Z</time></trkpt><trkpt lat="43.5546212" lon="12.4311995"><ele>617.0</ele><time>2026-04-24T08:46:22.985Z</time></trkpt><trkpt lat="43.554604" lon="12.431305"><ele>613.0</ele><time>2026-04-24T08:46:23.985Z</time></trkpt><trkpt lat="43.5545499" lon="12.4313719"><ele>609.0</ele><time>2026-04-24T08:46:24.985Z</time></trkpt><trkpt lat="43.5544771" lon="12.4313714"><ele>614.0</ele><time>2026-04-24T08:46:25.985Z</time></trkpt><trkpt lat="43.5543818" lon="12.4313057"><ele>619.0</ele><time>2026-04-24T08:46:26.985Z</time></trkpt><trkpt lat="43.5542749" lon="12.4312038"><ele>624.0</ele><time>2026-04-24T08:46:27.985Z</time></trkpt><trkpt lat="43.5541484" lon="12.4310988"><ele>629.0</ele><time>2026-04-24T08:46:28.985Z</time></trkpt><trkpt lat="43.5539921" lon="12.4310077"><ele>629.0</ele><time>2026-04-24T08:46:29.986Z</time></trkpt><trkpt lat="43.5538144" lon="12.4309593"><ele>629.0</ele><time>2026-04-24T08:46:30.985Z</time></trkpt><trkpt lat="43.5536215" lon="12.4309494"><ele>629.0</ele><time>2026-04-24T08:46:31.985Z</time></trkpt><trkpt lat="43.5534394" lon="12.4309605"><ele>631.25</ele><time>2026-04-24T08:46:32.985Z</time></trkpt><trkpt lat="43.5532865" lon="12.4309795"><ele>633.5</ele><time>2026-04-24T08:46:33.985Z</time></trkpt><trkpt lat="43.5531654" lon="12.4310175"><ele>635.75</ele><time>2026-04-24T08:46:34.985Z</time></trkpt><trkpt lat="43.5530539" lon="12.4311138"><ele>638.0</ele><time>2026-04-24T08:46:35.985Z</time></trkpt><trkpt lat="43.5529616" lon="12.4312629"><ele>634.5</ele><time>2026-04-24T08:46:36.985Z</time></trkpt><trkpt lat="43.5528665" lon="12.4314039"><ele>631.0</ele><time>2026-04-24T08:46:37.985Z</time></trkpt><trkpt lat="43.5527549" lon="12.4314879"><ele>627.5</ele><time>2026-04-24T08:46:38.985Z</time></trkpt><trkpt lat="43.5526262" lon="12.431524"><ele>624.0</ele><time>2026-04-24T08:46:39.985Z</time></trkpt><trkpt lat="43.5524716" lon="12.431529"><ele>624.0</ele><time>2026-04-24T08:46:40.985Z</time></trkpt><trkpt lat="43.5522971" lon="12.4315411"><ele>624.0</ele><time>2026-04-24T08:46:41.985Z</time></trkpt><trkpt lat="43.5521187" lon="12.4315795"><ele>624.0</ele><time>2026-04-24T08:46:42.985Z</time></trkpt><trkpt lat="43.5519533" lon="12.4316594"><ele>623.6666666666666</ele><time>2026-04-24T08:46:43.985Z</time></trkpt><trkpt lat="43.5518059" lon="12.4318088"><ele>623.3333333333333</ele><time>2026-04-24T08:46:44.985Z</time></trkpt><trkpt lat="43.5516832" lon="12.4319952"><ele>623.0</ele><time>2026-04-24T08:46:45.985Z</time></trkpt><trkpt lat="43.5515669" lon="12.432197"><ele>624.3333333333333</ele><time>2026-04-24T08:46:46.985Z</time></trkpt><trkpt lat="43.5514504" lon="12.4324016"><ele>625.6666666666666</ele><time>2026-04-24T08:46:47.985Z</time></trkpt><trkpt lat="43.5513281" lon="12.4325857"><ele>627.0</ele><time>2026-04-24T08:46:48.986Z</time></trkpt><trkpt lat="43.5512157" lon="12.432746"><ele>627.25</ele><time>2026-04-24T08:46:49.985Z</time></trkpt><trkpt lat="43.5511243" lon="12.4329058"><ele>627.5</ele><time>2026-04-24T08:46:50.986Z</time></trkpt><trkpt lat="43.551067" lon="12.4330847"><ele>627.75</ele><time>2026-04-24T08:46:51.986Z</time></trkpt><trkpt lat="43.5510478" lon="12.4332883"><ele>628.0</ele><time>2026-04-24T08:46:52.986Z</time></trkpt><trkpt lat="43.5510422" lon="12.4334875"><ele>628.0</ele><time>2026-04-24T08:46:53.986Z</time></trkpt><trkpt lat="43.5510497" lon="12.4337129"><ele>628.0</ele><time>2026-04-24T08:46:54.985Z</time></trkpt><trkpt lat="43.5510564" lon="12.4339583"><ele>628.0</ele><time>2026-04-24T08:46:55.985Z</time></trkpt><trkpt lat="43.5510543" lon="12.434217"><ele>628.0</ele><time>2026-04-24T08:46:56.985Z</time></trkpt><trkpt lat="43.5510239" lon="12.4344816"><ele>628.0</ele><time>2026-04-24T08:46:57.986Z</time></trkpt><trkpt lat="43.5509671" lon="12.4347253"><ele>628.0</ele><time>2026-04-24T08:46:58.985Z</time></trkpt><trkpt lat="43.5509029" lon="12.4349415"><ele>628.0</ele><time>2026-04-24T08:46:59.986Z</time></trkpt><trkpt lat="43.5508567" lon="12.4351392"><ele>628.0</ele><time>2026-04-24T08:47:00.985Z</time></trkpt><trkpt lat="43.5508382" lon="12.4353147"><ele>628.0</ele><time>2026-04-24T08:47:01.985Z</time></trkpt><trkpt lat="43.5508692" lon="12.4354867"><ele>628.0</ele><time>2026-04-24T08:47:02.985Z</time></trkpt><trkpt lat="43.5509396" lon="12.4356542"><ele>630.0</ele><time>2026-04-24T08:47:03.985Z</time></trkpt><trkpt lat="43.5510247" lon="12.4358205"><ele>632.0</ele><time>2026-04-24T08:47:04.985Z</time></trkpt><trkpt lat="43.5511185" lon="12.4359886"><ele>634.0</ele><time>2026-04-24T08:47:05.985Z</time></trkpt><trkpt lat="43.5512141" lon="12.4361604"><ele>638.3333333333334</ele><time>2026-04-24T08:47:06.985Z</time></trkpt><trkpt lat="43.5513178" lon="12.4363333"><ele>642.6666666666666</ele><time>2026-04-24T08:47:07.985Z</time></trkpt><trkpt lat="43.5514421" lon="12.4364918"><ele>647.0</ele><time>2026-04-24T08:47:08.985Z</time></trkpt><trkpt lat="43.5515806" lon="12.4366297"><ele>647.0</ele><time>2026-04-24T08:47:09.985Z</time></trkpt><trkpt lat="43.5517229" lon="12.4367614"><ele>647.0</ele><time>2026-04-24T08:47:10.985Z</time></trkpt><trkpt lat="43.5518471" lon="12.4369077"><ele>647.0</ele><time>2026-04-24T08:47:11.985Z</time></trkpt><trkpt lat="43.5519394" lon="12.4370823"><ele>649.6666666666666</ele><time>2026-04-24T08:47:12.985Z</time></trkpt><trkpt lat="43.5519838" lon="12.4372837"><ele>652.3333333333334</ele><time>2026-04-24T08:47:13.987Z</time></trkpt><trkpt lat="43.5519871" lon="12.4374979"><ele>655.0</ele><time>2026-04-24T08:47:14.986Z</time></trkpt><trkpt lat="43.5519773" lon="12.4377272"><ele>655.0</ele><time>2026-04-24T08:47:15.985Z</time></trkpt><trkpt lat="43.5519539" lon="12.437963"><ele>655.0</ele><time>2026-04-24T08:47:16.986Z</time></trkpt><trkpt lat="43.5519325" lon="12.4382048"><ele>655.0</ele><time>2026-04-24T08:47:17.986Z</time></trkpt><trkpt lat="43.5519146" lon="12.438453"><ele>659.6666666666667</ele><time>2026-04-24T08:47:18.986Z</time></trkpt><trkpt lat="43.5519108" lon="12.4387022"><ele>664.3333333333334</ele><time>2026-04-24T08:47:19.985Z</time></trkpt><trkpt lat="43.5519296" lon="12.4389479"><ele>669.0</ele><time>2026-04-24T08:47:20.985Z</time></trkpt><trkpt lat="43.5519556" lon="12.4391778"><ele>671.5</ele><time>2026-04-24T08:47:21.987Z</time></trkpt><trkpt lat="43.551961" lon="12.4393821"><ele>674.0</ele><time>2026-04-24T08:47:22.985Z</time></trkpt><trkpt lat="43.5519361" lon="12.4395732"><ele>676.5</ele><time>2026-04-24T08:47:23.985Z</time></trkpt><trkpt lat="43.5518814" lon="12.4397643"><ele>679.0</ele><time>2026-04-24T08:47:24.985Z</time></trkpt><trkpt lat="43.5518117" lon="12.4399569"><ele>679.0</ele><time>2026-04-24T08:47:25.985Z</time></trkpt><trkpt lat="43.5517329" lon="12.4401456"><ele>679.0</ele><time>2026-04-24T08:47:26.985Z</time></trkpt><trkpt lat="43.5516528" lon="12.4403182"><ele>679.0</ele><time>2026-04-24T08:47:27.985Z</time></trkpt><trkpt lat="43.5515911" lon="12.4405008"><ele>679.75</ele><time>2026-04-24T08:47:28.985Z</time></trkpt><trkpt lat="43.5515587" lon="12.4406895"><ele>680.5</ele><time>2026-04-24T08:47:29.985Z</time></trkpt><trkpt lat="43.5515706" lon="12.4408678"><ele>681.25</ele><time>2026-04-24T08:47:30.985Z</time></trkpt><trkpt lat="43.5516238" lon="12.4410428"><ele>682.0</ele><time>2026-04-24T08:47:31.985Z</time></trkpt><trkpt lat="43.5517104" lon="12.4411915"><ele>685.5</ele><time>2026-04-24T08:47:32.985Z</time></trkpt><trkpt lat="43.5517875" lon="12.4413485"><ele>689.0</ele><time>2026-04-24T08:47:33.985Z</time></trkpt><trkpt lat="43.5518311" lon="12.4415174"><ele>692.5</ele><time>2026-04-24T08:47:34.985Z</time></trkpt><trkpt lat="43.5518586" lon="12.4416907"><ele>696.0</ele><time>2026-04-24T08:47:35.985Z</time></trkpt><trkpt lat="43.5519129" lon="12.4418412"><ele>696.0</ele><time>2026-04-24T08:47:36.986Z</time></trkpt><trkpt lat="43.552009" lon="12.4419457"><ele>696.0</ele><time>2026-04-24T08:47:37.985Z</time></trkpt><trkpt lat="43.5521329" lon="12.4420216"><ele>696.0</ele><time>2026-04-24T08:47:38.985Z</time></trkpt><trkpt lat="43.5522721" lon="12.4420693"><ele>696.0</ele><time>2026-04-24T08:47:39.985Z</time></trkpt><trkpt lat="43.5524031" lon="12.442129"><ele>696.75</ele><time>2026-04-24T08:47:40.985Z</time></trkpt><trkpt lat="43.5525059" lon="12.4422211"><ele>697.5</ele><time>2026-04-24T08:47:41.985Z</time></trkpt><trkpt lat="43.5525723" lon="12.4423299"><ele>698.25</ele><time>2026-04-24T08:47:42.985Z</time></trkpt><trkpt lat="43.5526034" lon="12.4424787"><ele>699.0</ele><time>2026-04-24T08:47:43.985Z</time></trkpt><trkpt lat="43.5526103" lon="12.4426556"><ele>699.0</ele><time>2026-04-24T08:47:44.985Z</time></trkpt><trkpt lat="43.5526053" lon="12.4428563"><ele>699.0</ele><time>2026-04-24T08:47:45.986Z</time></trkpt><trkpt lat="43.552578" lon="12.4430696"><ele>699.0</ele><time>2026-04-24T08:47:46.985Z</time></trkpt><trkpt lat="43.5525241" lon="12.4432886"><ele>700.0</ele><time>2026-04-24T08:47:47.985Z</time></trkpt><trkpt lat="43.5524586" lon="12.4435051"><ele>701.0</ele><time>2026-04-24T08:47:48.985Z</time></trkpt><trkpt lat="43.5523975" lon="12.4437058"><ele>702.0</ele><time>2026-04-24T08:47:49.985Z</time></trkpt><trkpt lat="43.5523492" lon="12.4438979"><ele>699.3333333333334</ele><time>2026-04-24T08:47:50.985Z</time></trkpt><trkpt lat="43.5523217" lon="12.4440985"><ele>696.6666666666667</ele><time>2026-04-24T08:47:51.985Z</time></trkpt><trkpt lat="43.5523407" lon="12.4443157"><ele>694.0</ele><time>2026-04-24T08:47:52.985Z</time></trkpt><trkpt lat="43.5523882" lon="12.4445361"><ele>695.3333333333334</ele><time>2026-04-24T08:47:53.986Z</time></trkpt><trkpt lat="43.5524409" lon="12.4447583"><ele>696.6666666666666</ele><time>2026-04-24T08:47:54.986Z</time></trkpt><trkpt lat="43.5524815" lon="12.4449892"><ele>698.0</ele><time>2026-04-24T08:47:55.985Z</time></trkpt><trkpt lat="43.5524869" lon="12.4452057"><ele>698.0</ele><time>2026-04-24T08:47:56.986Z</time></trkpt><trkpt lat="43.5524525" lon="12.4453856"><ele>698.0</ele><time>2026-04-24T08:47:57.985Z</time></trkpt><trkpt lat="43.5523937" lon="12.4454928"><ele>698.0</ele><time>2026-04-24T08:47:58.986Z</time></trkpt><trkpt lat="43.5523086" lon="12.4455575"><ele>698.0</ele><time>2026-04-24T08:47:59.985Z</time></trkpt><trkpt lat="43.5522149" lon="12.4456348"><ele>698.0</ele><time>2026-04-24T08:48:00.986Z</time></trkpt><trkpt lat="43.5521659" lon="12.445772"><ele>698.4</ele><time>2026-04-24T08:48:01.986Z</time></trkpt><trkpt lat="43.5521741" lon="12.445903"><ele>698.8</ele><time>2026-04-24T08:48:02.985Z</time></trkpt><trkpt lat="43.5522216" lon="12.4460287"><ele>699.2</ele><time>2026-04-24T08:48:03.986Z</time></trkpt><trkpt lat="43.5522784" lon="12.4461689"><ele>699.6</ele><time>2026-04-24T08:48:04.985Z</time></trkpt><trkpt lat="43.5522991" lon="12.4463454"><ele>700.0</ele><time>2026-04-24T08:48:05.986Z</time></trkpt><trkpt lat="43.552305" lon="12.4465345"><ele>701.75</ele><time>2026-04-24T08:48:06.985Z</time></trkpt><trkpt lat="43.5523039" lon="12.4467311"><ele>703.5</ele><time>2026-04-24T08:48:07.985Z</time></trkpt><trkpt lat="43.5522964" lon="12.4469312"><ele>705.25</ele><time>2026-04-24T08:48:08.985Z</time></trkpt><trkpt lat="43.5522981" lon="12.4471289"><ele>707.0</ele><time>2026-04-24T08:48:09.985Z</time></trkpt><trkpt lat="43.5523236" lon="12.4473105"><ele>708.25</ele><time>2026-04-24T08:48:10.985Z</time></trkpt><trkpt lat="43.5523835" lon="12.4474741"><ele>709.5</ele><time>2026-04-24T08:48:11.986Z</time></trkpt><trkpt lat="43.5524734" lon="12.447623"><ele>710.75</ele><time>2026-04-24T08:48:12.985Z</time></trkpt><trkpt lat="43.5525868" lon="12.4477491"><ele>712.0</ele><time>2026-04-24T08:48:13.985Z</time></trkpt><trkpt lat="43.5527134" lon="12.4478637"><ele>712.0</ele><time>2026-04-24T08:48:14.985Z</time></trkpt><trkpt lat="43.5528411" lon="12.4479798"><ele>712.0</ele><time>2026-04-24T08:48:15.987Z</time></trkpt><trkpt lat="43.5529663" lon="12.44811"><ele>712.0</ele><time>2026-04-24T08:48:16.986Z</time></trkpt><trkpt lat="43.5530872" lon="12.4482586"><ele>717.3333333333334</ele><time>2026-04-24T08:48:17.985Z</time></trkpt><trkpt lat="43.5532019" lon="12.4484214"><ele>722.6666666666666</ele><time>2026-04-24T08:48:18.985Z</time></trkpt><trkpt lat="43.5533109" lon="12.4485931"><ele>728.0</ele><time>2026-04-24T08:48:19.985Z</time></trkpt><trkpt lat="43.5534061" lon="12.4487687"><ele>728.0</ele><time>2026-04-24T08:48:20.985Z</time></trkpt><trkpt lat="43.5534719" lon="12.4489571"><ele>728.0</ele><time>2026-04-24T08:48:21.985Z</time></trkpt><trkpt lat="43.5534973" lon="12.4491561"><ele>728.0</ele><time>2026-04-24T08:48:22.985Z</time></trkpt><trkpt lat="43.5534883" lon="12.4493641"><ele>728.0</ele><time>2026-04-24T08:48:23.986Z</time></trkpt><trkpt lat="43.5534682" lon="12.449581"><ele>731.0</ele><time>2026-04-24T08:48:24.985Z</time></trkpt><trkpt lat="43.5534423" lon="12.4498082"><ele>734.0</ele><time>2026-04-24T08:48:25.985Z</time></trkpt><trkpt lat="43.5534169" lon="12.4500398"><ele>737.0</ele><time>2026-04-24T08:48:26.986Z</time></trkpt><trkpt lat="43.5533937" lon="12.4502749"><ele>739.0</ele><time>2026-04-24T08:48:27.986Z</time></trkpt><trkpt lat="43.553376" lon="12.4505139"><ele>741.0</ele><time>2026-04-24T08:48:28.985Z</time></trkpt><trkpt lat="43.5533563" lon="12.4507574"><ele>743.0</ele><time>2026-04-24T08:48:29.985Z</time></trkpt><trkpt lat="43.5533234" lon="12.4509948"><ele>743.0</ele><time>2026-04-24T08:48:30.985Z</time></trkpt><trkpt lat="43.5532649" lon="12.4512037"><ele>743.0</ele><time>2026-04-24T08:48:31.985Z</time></trkpt><trkpt lat="43.553178" lon="12.4513782"><ele>743.0</ele><time>2026-04-24T08:48:32.985Z</time></trkpt><trkpt lat="43.5530606" lon="12.4515136"><ele>741.25</ele><time>2026-04-24T08:48:33.987Z</time></trkpt><trkpt lat="43.5529261" lon="12.4516206"><ele>739.5</ele><time>2026-04-24T08:48:34.986Z</time></trkpt><trkpt lat="43.5528006" lon="12.4517063"><ele>737.75</ele><time>2026-04-24T08:48:35.987Z</time></trkpt><trkpt lat="43.5526887" lon="12.4518018"><ele>736.0</ele><time>2026-04-24T08:48:36.987Z</time></trkpt><trkpt lat="43.5525977" lon="12.4519387"><ele>736.0</ele><time>2026-04-24T08:48:37.985Z</time></trkpt><trkpt lat="43.5525267" lon="12.4521166"><ele>736.0</ele><time>2026-04-24T08:48:38.985Z</time></trkpt><trkpt lat="43.5524678" lon="12.4523155"><ele>736.0</ele><time>2026-04-24T08:48:39.985Z</time></trkpt><trkpt lat="43.5523822" lon="12.4525007"><ele>735.0</ele><time>2026-04-24T08:48:40.986Z</time></trkpt><trkpt lat="43.5522637" lon="12.4526466"><ele>734.0</ele><time>2026-04-24T08:48:41.985Z</time></trkpt><trkpt lat="43.5521285" lon="12.452733"><ele>733.0</ele><time>2026-04-24T08:48:42.985Z</time></trkpt><trkpt lat="43.5519963" lon="12.4527808"><ele>732.0</ele><time>2026-04-24T08:48:43.985Z</time></trkpt><trkpt lat="43.5518792" lon="12.4528422"><ele>732.0</ele><time>2026-04-24T08:48:44.986Z</time></trkpt><trkpt lat="43.5517768" lon="12.4529296"><ele>732.0</ele><time>2026-04-24T08:48:45.985Z</time></trkpt><trkpt lat="43.5516912" lon="12.45306"><ele>732.0</ele><time>2026-04-24T08:48:46.986Z</time></trkpt><trkpt lat="43.5516095" lon="12.4532227"><ele>732.0</ele><time>2026-04-24T08:48:47.985Z</time></trkpt><trkpt lat="43.551516" lon="12.4533887"><ele>732.75</ele><time>2026-04-24T08:48:48.985Z</time></trkpt><trkpt lat="43.5514056" lon="12.453541"><ele>733.5</ele><time>2026-04-24T08:48:49.985Z</time></trkpt><trkpt lat="43.5512849" lon="12.4536621"><ele>734.25</ele><time>2026-04-24T08:48:50.985Z</time></trkpt><trkpt lat="43.5511523" lon="12.4537213"><ele>735.0</ele><time>2026-04-24T08:48:51.985Z</time></trkpt><trkpt lat="43.5510214" lon="12.4537073"><ele>735.0</ele><time>2026-04-24T08:48:52.986Z</time></trkpt><trkpt lat="43.550897" lon="12.4536518"><ele>735.0</ele><time>2026-04-24T08:48:53.985Z</time></trkpt><trkpt lat="43.5507661" lon="12.4536055"><ele>735.0</ele><time>2026-04-24T08:48:54.985Z</time></trkpt><trkpt lat="43.5506283" lon="12.453586"><ele>735.0</ele><time>2026-04-24T08:48:55.985Z</time></trkpt><trkpt lat="43.5505042" lon="12.4535843"><ele>735.0</ele><time>2026-04-24T08:48:56.986Z</time></trkpt><trkpt lat="43.5503798" lon="12.4536113"><ele>735.0</ele><time>2026-04-24T08:48:57.985Z</time></trkpt><trkpt lat="43.5502567" lon="12.4536785"><ele>735.0</ele><time>2026-04-24T08:48:58.985Z</time></trkpt><trkpt lat="43.5501454" lon="12.4537904"><ele>735.0</ele><time>2026-04-24T08:48:59.986Z</time></trkpt><trkpt lat="43.550048" lon="12.4539404"><ele>739.3333333333334</ele><time>2026-04-24T08:49:00.985Z</time></trkpt><trkpt lat="43.549964" lon="12.4541129"><ele>743.6666666666667</ele><time>2026-04-24T08:49:01.985Z</time></trkpt><trkpt lat="43.5498627" lon="12.4542748"><ele>748.0</ele><time>2026-04-24T08:49:02.986Z</time></trkpt><trkpt lat="43.5497333" lon="12.4544084"><ele>748.0</ele><time>2026-04-24T08:49:03.985Z</time></trkpt><trkpt lat="43.5495878" lon="12.4545113"><ele>748.0</ele><time>2026-04-24T08:49:04.985Z</time></trkpt><trkpt lat="43.5494322" lon="12.4546038"><ele>748.0</ele><time>2026-04-24T08:49:05.985Z</time></trkpt><trkpt lat="43.5492724" lon="12.4546936"><ele>749.3333333333334</ele><time>2026-04-24T08:49:06.985Z</time></trkpt><trkpt lat="43.5491056" lon="12.454784"><ele>750.6666666666666</ele><time>2026-04-24T08:49:07.985Z</time></trkpt><trkpt lat="43.5489354" lon="12.4548814"><ele>752.0</ele><time>2026-04-24T08:49:08.985Z</time></trkpt><trkpt lat="43.5487591" lon="12.4549748"><ele>749.6666666666666</ele><time>2026-04-24T08:49:09.986Z</time></trkpt><trkpt lat="43.5485841" lon="12.4550636"><ele>747.3333333333334</ele><time>2026-04-24T08:49:10.986Z</time></trkpt><trkpt lat="43.5484206" lon="12.4551521"><ele>745.0</ele><time>2026-04-24T08:49:11.985Z</time></trkpt><trkpt lat="43.5482692" lon="12.455239"><ele>745.0</ele><time>2026-04-24T08:49:12.986Z</time></trkpt><trkpt lat="43.5481336" lon="12.4553348"><ele>745.0</ele><time>2026-04-24T08:49:13.985Z</time></trkpt><trkpt lat="43.5480132" lon="12.4554666"><ele>745.0</ele><time>2026-04-24T08:49:14.985Z</time></trkpt><trkpt lat="43.5479039" lon="12.4556321"><ele>745.3333333333334</ele><time>2026-04-24T08:49:15.986Z</time></trkpt><trkpt lat="43.5477962" lon="12.455812"><ele>745.6666666666666</ele><time>2026-04-24T08:49:16.985Z</time></trkpt><trkpt lat="43.5476841" lon="12.4559958"><ele>746.0</ele><time>2026-04-24T08:49:17.985Z</time></trkpt><trkpt lat="43.5475772" lon="12.456193"><ele>752.6666666666666</ele><time>2026-04-24T08:49:18.985Z</time></trkpt><trkpt lat="43.5474792" lon="12.4564023"><ele>759.3333333333334</ele><time>2026-04-24T08:49:19.985Z</time></trkpt><trkpt lat="43.5473874" lon="12.4566167"><ele>766.0</ele><time>2026-04-24T08:49:20.985Z</time></trkpt><trkpt lat="43.5472895" lon="12.4568263"><ele>766.0</ele><time>2026-04-24T08:49:21.985Z</time></trkpt><trkpt lat="43.5471747" lon="12.4570214"><ele>766.0</ele><time>2026-04-24T08:49:22.986Z</time></trkpt><trkpt lat="43.5470477" lon="12.4572022"><ele>766.0</ele><time>2026-04-24T08:49:23.985Z</time></trkpt><trkpt lat="43.5469188" lon="12.4573805"><ele>764.0</ele><time>2026-04-24T08:49:24.985Z</time></trkpt><trkpt lat="43.5467928" lon="12.4575505"><ele>762.0</ele><time>2026-04-24T08:49:25.985Z</time></trkpt><trkpt lat="43.5466735" lon="12.4577065"><ele>760.0</ele><time>2026-04-24T08:49:26.986Z</time></trkpt><trkpt lat="43.5465519" lon="12.4578384"><ele>760.0</ele><time>2026-04-24T08:49:27.986Z</time></trkpt><trkpt lat="43.5464227" lon="12.4579254"><ele>760.0</ele><time>2026-04-24T08:49:28.985Z</time></trkpt><trkpt lat="43.546287" lon="12.4579666"><ele>760.0</ele><time>2026-04-24T08:49:29.985Z</time></trkpt><trkpt lat="43.546165" lon="12.4579811"><ele>760.0</ele><time>2026-04-24T08:49:30.985Z</time></trkpt><trkpt lat="43.5460686" lon="12.4579912"><ele>762.3333333333334</ele><time>2026-04-24T08:49:31.985Z</time></trkpt><trkpt lat="43.5459968" lon="12.4580017"><ele>764.6666666666667</ele><time>2026-04-24T08:49:32.985Z</time></trkpt><trkpt lat="43.5459034" lon="12.4580191"><ele>767.0</ele><time>2026-04-24T08:49:34.985Z</time></trkpt><trkpt lat="43.5458274" lon="12.4580538"><ele>769.3333333333334</ele><time>2026-04-24T08:51:03.985Z</time></trkpt><trkpt lat="43.5457659" lon="12.4580886"><ele>771.6666666666666</ele><time>2026-04-24T08:51:04.986Z</time></trkpt><trkpt lat="43.5456856" lon="12.4581328"><ele>774.0</ele><time>2026-04-24T08:51:05.985Z</time></trkpt><trkpt lat="43.5456062" lon="12.4581897"><ele>774.0</ele><time>2026-04-24T08:51:06.985Z</time></trkpt><trkpt lat="43.545517" lon="12.4582682"><ele>774.0</ele><time>2026-04-24T08:51:07.985Z</time></trkpt><trkpt lat="43.5454322" lon="12.4583812"><ele>774.0</ele><time>2026-04-24T08:51:08.985Z</time></trkpt><trkpt lat="43.5453594" lon="12.4585268"><ele>774.0</ele><time>2026-04-24T08:51:09.985Z</time></trkpt><trkpt lat="43.5453068" lon="12.4586941"><ele>772.3333333333333</ele><time>2026-04-24T08:51:10.985Z</time></trkpt><trkpt lat="43.5452607" lon="12.4588974"><ele>770.6666666666666</ele><time>2026-04-24T08:51:11.985Z</time></trkpt><trkpt lat="43.5451996" lon="12.4591141"><ele>769.0</ele><time>2026-04-24T08:51:12.985Z</time></trkpt><trkpt lat="43.5451211" lon="12.4593351"><ele>769.0</ele><time>2026-04-24T08:51:13.985Z</time></trkpt><trkpt lat="43.5450299" lon="12.4595543"><ele>769.0</ele><time>2026-04-24T08:51:14.985Z</time></trkpt><trkpt lat="43.5449253" lon="12.4597458"><ele>769.0</ele><time>2026-04-24T08:51:15.985Z</time></trkpt><trkpt lat="43.544794" lon="12.4599028"><ele>770.3333333333333</ele><time>2026-04-24T08:51:16.986Z</time></trkpt><trkpt lat="43.5446487" lon="12.4600438"><ele>771.6666666666667</ele><time>2026-04-24T08:51:17.985Z</time></trkpt><trkpt lat="43.5445004" lon="12.4601888"><ele>773.0</ele><time>2026-04-24T08:51:18.985Z</time></trkpt><trkpt lat="43.5443513" lon="12.460339"><ele>779.6666666666667</ele><time>2026-04-24T08:51:19.986Z</time></trkpt><trkpt lat="43.5442026" lon="12.4604934"><ele>786.3333333333333</ele><time>2026-04-24T08:51:20.986Z</time></trkpt><trkpt lat="43.5440568" lon="12.4606434"><ele>793.0</ele><time>2026-04-24T08:51:21.985Z</time></trkpt><trkpt lat="43.5439162" lon="12.4607888"><ele>793.0</ele><time>2026-04-24T08:51:22.985Z</time></trkpt><trkpt lat="43.5437827" lon="12.4609315"><ele>793.0</ele><time>2026-04-24T08:51:23.985Z</time></trkpt><trkpt lat="43.5436628" lon="12.461101"><ele>793.0</ele><time>2026-04-24T08:51:24.985Z</time></trkpt><trkpt lat="43.5435515" lon="12.4613029"><ele>789.6666666666666</ele><time>2026-04-24T08:51:25.985Z</time></trkpt><trkpt lat="43.5434464" lon="12.4615295"><ele>786.3333333333333</ele><time>2026-04-24T08:51:26.985Z</time></trkpt><trkpt lat="43.543338" lon="12.4617659"><ele>783.0</ele><time>2026-04-24T08:51:27.985Z</time></trkpt><trkpt lat="43.5432297" lon="12.4620064"><ele>789.3333333333333</ele><time>2026-04-24T08:51:28.985Z</time></trkpt><trkpt lat="43.5431233" lon="12.4622441"><ele>795.6666666666666</ele><time>2026-04-24T08:51:29.985Z</time></trkpt><trkpt lat="43.5430257" lon="12.4624741"><ele>802.0</ele><time>2026-04-24T08:51:30.986Z</time></trkpt><trkpt lat="43.5429379" lon="12.4626786"><ele>804.25</ele><time>2026-04-24T08:51:31.985Z</time></trkpt><trkpt lat="43.5428413" lon="12.4628501"><ele>806.5</ele><time>2026-04-24T08:51:32.985Z</time></trkpt><trkpt lat="43.5427354" lon="12.4629694"><ele>808.75</ele><time>2026-04-24T08:51:33.985Z</time></trkpt><trkpt lat="43.542601" lon="12.4630336"><ele>811.0</ele><time>2026-04-24T08:51:34.986Z</time></trkpt><trkpt lat="43.5424499" lon="12.463059"><ele>811.0</ele><time>2026-04-24T08:51:35.985Z</time></trkpt><trkpt lat="43.5422947" lon="12.4630762"><ele>811.0</ele><time>2026-04-24T08:51:36.985Z</time></trkpt><trkpt lat="43.5421451" lon="12.4630843"><ele>811.0</ele><time>2026-04-24T08:51:37.985Z</time></trkpt><trkpt lat="43.5420121" lon="12.4630993"><ele>811.0</ele><time>2026-04-24T08:51:38.985Z</time></trkpt><trkpt lat="43.541898" lon="12.4631636"><ele>807.0</ele><time>2026-04-24T08:51:39.985Z</time></trkpt><trkpt lat="43.5417826" lon="12.4632738"><ele>803.0</ele><time>2026-04-24T08:51:40.985Z</time></trkpt><trkpt lat="43.5416656" lon="12.4634076"><ele>799.0</ele><time>2026-04-24T08:51:41.986Z</time></trkpt><trkpt lat="43.5415357" lon="12.4635518"><ele>799.0</ele><time>2026-04-24T08:51:42.986Z</time></trkpt><trkpt lat="43.5413948" lon="12.4636975"><ele>799.0</ele><time>2026-04-24T08:51:43.985Z</time></trkpt><trkpt lat="43.5412546" lon="12.4638515"><ele>799.0</ele><time>2026-04-24T08:51:44.986Z</time></trkpt><trkpt lat="43.5411136" lon="12.4640133"><ele>802.3333333333333</ele><time>2026-04-24T08:51:45.987Z</time></trkpt><trkpt lat="43.5409746" lon="12.4641948"><ele>805.6666666666667</ele><time>2026-04-24T08:51:46.985Z</time></trkpt><trkpt lat="43.5408432" lon="12.4643893"><ele>809.0</ele><time>2026-04-24T08:51:47.985Z</time></trkpt><trkpt lat="43.5407092" lon="12.4645911"><ele>809.6666666666667</ele><time>2026-04-24T08:51:48.985Z</time></trkpt><trkpt lat="43.5405694" lon="12.4647892"><ele>810.3333333333333</ele><time>2026-04-24T08:51:49.985Z</time></trkpt><trkpt lat="43.5404212" lon="12.4649828"><ele>811.0</ele><time>2026-04-24T08:51:50.985Z</time></trkpt><trkpt lat="43.5402694" lon="12.465183"><ele>811.0</ele><time>2026-04-24T08:51:51.986Z</time></trkpt><trkpt lat="43.5401125" lon="12.4653808"><ele>811.0</ele><time>2026-04-24T08:51:52.985Z</time></trkpt><trkpt lat="43.5399483" lon="12.4655668"><ele>811.0</ele><time>2026-04-24T08:51:53.985Z</time></trkpt><trkpt lat="43.5397827" lon="12.4657297"><ele>811.3333333333333</ele><time>2026-04-24T08:51:54.986Z</time></trkpt><trkpt lat="43.5396292" lon="12.4658792"><ele>811.6666666666667</ele><time>2026-04-24T08:51:55.986Z</time></trkpt><trkpt lat="43.539487" lon="12.4660208"><ele>812.0</ele><time>2026-04-24T08:51:56.986Z</time></trkpt><trkpt lat="43.5393636" lon="12.4661533"><ele>816.3333333333334</ele><time>2026-04-24T08:51:57.985Z</time></trkpt><trkpt lat="43.5392727" lon="12.46629"><ele>820.6666666666667</ele><time>2026-04-24T08:51:58.985Z</time></trkpt><trkpt lat="43.5392056" lon="12.4664793"><ele>825.0</ele><time>2026-04-24T08:51:59.985Z</time></trkpt><trkpt lat="43.5391516" lon="12.4666932"><ele>825.0</ele><time>2026-04-24T08:52:00.986Z</time></trkpt><trkpt lat="43.5390956" lon="12.4669272"><ele>825.0</ele><time>2026-04-24T08:52:01.986Z</time></trkpt><trkpt lat="43.5390376" lon="12.4671667"><ele>825.0</ele><time>2026-04-24T08:52:02.985Z</time></trkpt><trkpt lat="43.5389754" lon="12.4673848"><ele>821.6666666666667</ele><time>2026-04-24T08:52:03.986Z</time></trkpt><trkpt lat="43.5388885" lon="12.4675698"><ele>818.3333333333334</ele><time>2026-04-24T08:52:04.985Z</time></trkpt><trkpt lat="43.5387716" lon="12.4677175"><ele>815.0</ele><time>2026-04-24T08:52:05.986Z</time></trkpt><trkpt lat="43.5386225" lon="12.4678289"><ele>815.0</ele><time>2026-04-24T08:52:06.985Z</time></trkpt><trkpt lat="43.5384779" lon="12.4679273"><ele>815.0</ele><time>2026-04-24T08:52:07.985Z</time></trkpt><trkpt lat="43.5383445" lon="12.4680254"><ele>815.0</ele><time>2026-04-24T08:52:08.986Z</time></trkpt><trkpt lat="43.5382204" lon="12.4681266"><ele>815.6666666666667</ele><time>2026-04-24T08:52:09.985Z</time></trkpt><trkpt lat="43.5381081" lon="12.4682768"><ele>816.3333333333333</ele><time>2026-04-24T08:52:10.985Z</time></trkpt><trkpt lat="43.5379963" lon="12.4684549"><ele>817.0</ele><time>2026-04-24T08:52:11.985Z</time></trkpt><trkpt lat="43.5378805" lon="12.4686446"><ele>823.6666666666666</ele><time>2026-04-24T08:52:12.986Z</time></trkpt><trkpt lat="43.537756" lon="12.4688317"><ele>830.3333333333333</ele><time>2026-04-24T08:52:13.985Z</time></trkpt><trkpt lat="43.5376316" lon="12.4690196"><ele>837.0</ele><time>2026-04-24T08:52:14.985Z</time></trkpt><trkpt lat="43.5375006" lon="12.4692069"><ele>837.0</ele><time>2026-04-24T08:52:15.986Z</time></trkpt><trkpt lat="43.5373621" lon="12.4693942"><ele>837.0</ele><time>2026-04-24T08:52:16.985Z</time></trkpt><trkpt lat="43.5372086" lon="12.4695712"><ele>837.0</ele><time>2026-04-24T08:52:17.985Z</time></trkpt><trkpt lat="43.5370419" lon="12.4697358"><ele>841.0</ele><time>2026-04-24T08:52:18.985Z</time></trkpt><trkpt lat="43.5368763" lon="12.4698794"><ele>845.0</ele><time>2026-04-24T08:52:19.986Z</time></trkpt><trkpt lat="43.5367102" lon="12.4699863"><ele>849.0</ele><time>2026-04-24T08:52:20.986Z</time></trkpt><trkpt lat="43.536557" lon="12.4700786"><ele>849.0</ele><time>2026-04-24T08:52:21.985Z</time></trkpt><trkpt lat="43.5364111" lon="12.4701522"><ele>849.0</ele><time>2026-04-24T08:52:22.985Z</time></trkpt><trkpt lat="43.5362756" lon="12.4702268"><ele>849.0</ele><time>2026-04-24T08:52:23.986Z</time></trkpt><trkpt lat="43.5361533" lon="12.4702967"><ele>849.0</ele><time>2026-04-24T08:52:24.986Z</time></trkpt><trkpt lat="43.5360457" lon="12.4703783"><ele>851.75</ele><time>2026-04-24T08:52:25.985Z</time></trkpt><trkpt lat="43.5359594" lon="12.4704931"><ele>854.5</ele><time>2026-04-24T08:52:26.986Z</time></trkpt><trkpt lat="43.5358962" lon="12.4706284"><ele>857.25</ele><time>2026-04-24T08:52:27.984Z</time></trkpt><trkpt lat="43.5358355" lon="12.470753"><ele>860.0</ele><time>2026-04-24T08:52:28.984Z</time></trkpt><trkpt lat="43.5357671" lon="12.4708693"><ele>860.0</ele><time>2026-04-24T08:52:29.984Z</time></trkpt><trkpt lat="43.5356777" lon="12.470971"><ele>860.0</ele><time>2026-04-24T08:52:30.984Z</time></trkpt><trkpt lat="43.5355598" lon="12.4710499"><ele>860.0</ele><time>2026-04-24T08:52:31.985Z</time></trkpt><trkpt lat="43.5354235" lon="12.4711175"><ele>860.0</ele><time>2026-04-24T08:52:32.984Z</time></trkpt><trkpt lat="43.5352689" lon="12.471166"><ele>855.3333333333334</ele><time>2026-04-24T08:52:33.984Z</time></trkpt><trkpt lat="43.5351117" lon="12.4712039"><ele>850.6666666666667</ele><time>2026-04-24T08:52:34.984Z</time></trkpt><trkpt lat="43.5349448" lon="12.471229"><ele>846.0</ele><time>2026-04-24T08:52:35.984Z</time></trkpt><trkpt lat="43.5347723" lon="12.4712102"><ele>846.0</ele><time>2026-04-24T08:52:36.984Z</time></trkpt><trkpt lat="43.5345975" lon="12.4711587"><ele>846.0</ele><time>2026-04-24T08:52:37.984Z</time></trkpt><trkpt lat="43.5344219" lon="12.4711159"><ele>846.0</ele><time>2026-04-24T08:52:38.984Z</time></trkpt><trkpt lat="43.5342473" lon="12.4710699"><ele>846.0</ele><time>2026-04-24T08:52:39.984Z</time></trkpt><trkpt lat="43.5340923" lon="12.4709897"><ele>846.0</ele><time>2026-04-24T08:52:40.984Z</time></trkpt><trkpt lat="43.5339604" lon="12.4708941"><ele>846.0</ele><time>2026-04-24T08:52:41.984Z</time></trkpt><trkpt lat="43.5338495" lon="12.4708105"><ele>846.0</ele><time>2026-04-24T08:52:42.984Z</time></trkpt><trkpt lat="43.5337397" lon="12.4707645"><ele>846.0</ele><time>2026-04-24T08:52:43.984Z</time></trkpt><trkpt lat="43.5336314" lon="12.4707642"><ele>846.0</ele><time>2026-04-24T08:52:44.984Z</time></trkpt><trkpt lat="43.5335121" lon="12.4708146"><ele>846.0</ele><time>2026-04-24T08:52:45.984Z</time></trkpt><trkpt lat="43.5333877" lon="12.4709036"><ele>846.0</ele><time>2026-04-24T08:52:46.985Z</time></trkpt><trkpt lat="43.5332515" lon="12.4710024"><ele>846.0</ele><time>2026-04-24T08:52:47.984Z</time></trkpt><trkpt lat="43.5331132" lon="12.4711107"><ele>846.0</ele><time>2026-04-24T08:52:48.984Z</time></trkpt><trkpt lat="43.5329727" lon="12.471235"><ele>846.0</ele><time>2026-04-24T08:52:49.984Z</time></trkpt><trkpt lat="43.5328404" lon="12.4713898"><ele>846.3333333333333</ele><time>2026-04-24T08:52:50.984Z</time></trkpt><trkpt lat="43.5327123" lon="12.4715735"><ele>846.6666666666666</ele><time>2026-04-24T08:52:51.984Z</time></trkpt><trkpt lat="43.5325862" lon="12.4717638"><ele>847.0</ele><time>2026-04-24T08:52:52.984Z</time></trkpt><trkpt lat="43.5324571" lon="12.471948"><ele>852.6666666666666</ele><time>2026-04-24T08:52:53.984Z</time></trkpt><trkpt lat="43.532326" lon="12.4721356"><ele>858.3333333333333</ele><time>2026-04-24T08:52:54.985Z</time></trkpt><trkpt lat="43.5322073" lon="12.4723449"><ele>864.0</ele><time>2026-04-24T08:52:55.984Z</time></trkpt><trkpt lat="43.5320945" lon="12.4725725"><ele>862.3333333333333</ele><time>2026-04-24T08:52:56.984Z</time></trkpt><trkpt lat="43.5319808" lon="12.4728052"><ele>860.6666666666666</ele><time>2026-04-24T08:52:57.984Z</time></trkpt><trkpt lat="43.5318624" lon="12.4730381"><ele>859.0</ele><time>2026-04-24T08:52:58.985Z</time></trkpt><trkpt lat="43.5317459" lon="12.4732514"><ele>859.0</ele><time>2026-04-24T08:52:59.984Z</time></trkpt><trkpt lat="43.531631" lon="12.4734476"><ele>859.0</ele><time>2026-04-24T08:53:00.984Z</time></trkpt><trkpt lat="43.5315015" lon="12.4736279"><ele>859.0</ele><time>2026-04-24T08:53:01.984Z</time></trkpt><trkpt lat="43.5313486" lon="12.4737659"><ele>860.6666666666666</ele><time>2026-04-24T08:53:02.985Z</time></trkpt><trkpt lat="43.5311813" lon="12.4738657"><ele>862.3333333333333</ele><time>2026-04-24T08:53:03.984Z</time></trkpt><trkpt lat="43.5310052" lon="12.4739452"><ele>864.0</ele><time>2026-04-24T08:53:04.985Z</time></trkpt><trkpt lat="43.5308205" lon="12.4740048"><ele>864.0</ele><time>2026-04-24T08:53:05.985Z</time></trkpt><trkpt lat="43.5306313" lon="12.4740289"><ele>864.0</ele><time>2026-04-24T08:53:06.984Z</time></trkpt><trkpt lat="43.5304525" lon="12.4740272"><ele>864.0</ele><time>2026-04-24T08:53:07.984Z</time></trkpt><trkpt lat="43.5302859" lon="12.4740216"><ele>862.6666666666667</ele><time>2026-04-24T08:53:08.984Z</time></trkpt><trkpt lat="43.5301234" lon="12.4740375"><ele>861.3333333333334</ele><time>2026-04-24T08:53:09.985Z</time></trkpt><trkpt lat="43.5299698" lon="12.4740769"><ele>860.0</ele><time>2026-04-24T08:53:10.984Z</time></trkpt><trkpt lat="43.5298218" lon="12.4741551"><ele>860.0</ele><time>2026-04-24T08:53:11.984Z</time></trkpt><trkpt lat="43.5296891" lon="12.4742506"><ele>860.0</ele><time>2026-04-24T08:53:12.985Z</time></trkpt><trkpt lat="43.5295565" lon="12.4743184"><ele>860.0</ele><time>2026-04-24T08:53:13.984Z</time></trkpt><trkpt lat="43.5294238" lon="12.4743589"><ele>860.0</ele><time>2026-04-24T08:53:14.985Z</time></trkpt><trkpt lat="43.529298" lon="12.4743946"><ele>862.0</ele><time>2026-04-24T08:53:15.984Z</time></trkpt><trkpt lat="43.5291777" lon="12.4744617"><ele>864.0</ele><time>2026-04-24T08:53:16.985Z</time></trkpt><trkpt lat="43.5290829" lon="12.4745701"><ele>866.0</ele><time>2026-04-24T08:53:17.984Z</time></trkpt><trkpt lat="43.5290124" lon="12.4747266"><ele>868.0</ele><time>2026-04-24T08:53:18.984Z</time></trkpt><trkpt lat="43.528955" lon="12.4749221"><ele>868.0</ele><time>2026-04-24T08:53:19.985Z</time></trkpt><trkpt lat="43.5288702" lon="12.4751206"><ele>868.0</ele><time>2026-04-24T08:53:20.986Z</time></trkpt><trkpt lat="43.5287516" lon="12.4753073"><ele>868.0</ele><time>2026-04-24T08:53:21.985Z</time></trkpt><trkpt lat="43.5286043" lon="12.4754801"><ele>864.6666666666666</ele><time>2026-04-24T08:53:22.984Z</time></trkpt><trkpt lat="43.528463" lon="12.4756406"><ele>861.3333333333333</ele><time>2026-04-24T08:53:23.984Z</time></trkpt><trkpt lat="43.528338" lon="12.4757884"><ele>858.0</ele><time>2026-04-24T08:53:24.984Z</time></trkpt><trkpt lat="43.5282221" lon="12.4759211"><ele>858.0</ele><time>2026-04-24T08:53:25.984Z</time></trkpt><trkpt lat="43.5281145" lon="12.4760489"><ele>858.0</ele><time>2026-04-24T08:53:26.984Z</time></trkpt><trkpt lat="43.5280036" lon="12.4761971"><ele>858.0</ele><time>2026-04-24T08:53:27.984Z</time></trkpt><trkpt lat="43.5278899" lon="12.4763582"><ele>855.6666666666667</ele><time>2026-04-24T08:53:28.984Z</time></trkpt><trkpt lat="43.5277821" lon="12.4765384"><ele>853.3333333333334</ele><time>2026-04-24T08:53:29.984Z</time></trkpt><trkpt lat="43.5276709" lon="12.4767198"><ele>851.0</ele><time>2026-04-24T08:53:30.984Z</time></trkpt><trkpt lat="43.5275666" lon="12.4769045"><ele>851.0</ele><time>2026-04-24T08:53:31.984Z</time></trkpt><trkpt lat="43.5274708" lon="12.4770894"><ele>851.0</ele><time>2026-04-24T08:53:32.985Z</time></trkpt><trkpt lat="43.5273866" lon="12.4772684"><ele>851.0</ele><time>2026-04-24T08:53:33.984Z</time></trkpt><trkpt lat="43.527317" lon="12.4774363"><ele>853.75</ele><time>2026-04-24T08:53:34.984Z</time></trkpt><trkpt lat="43.5272613" lon="12.4775997"><ele>856.5</ele><time>2026-04-24T08:53:35.984Z</time></trkpt><trkpt lat="43.5272178" lon="12.4777526"><ele>859.25</ele><time>2026-04-24T08:53:36.984Z</time></trkpt><trkpt lat="43.5271827" lon="12.4778995"><ele>862.0</ele><time>2026-04-24T08:53:37.985Z</time></trkpt><trkpt lat="43.5271547" lon="12.4780382"><ele>864.75</ele><time>2026-04-24T08:53:38.984Z</time></trkpt><trkpt lat="43.5271289" lon="12.4781714"><ele>867.5</ele><time>2026-04-24T08:53:39.984Z</time></trkpt><trkpt lat="43.5270959" lon="12.4783179"><ele>870.25</ele><time>2026-04-24T08:53:40.984Z</time></trkpt><trkpt lat="43.5270636" lon="12.4784757"><ele>873.0</ele><time>2026-04-24T08:53:41.984Z</time></trkpt><trkpt lat="43.5270307" lon="12.4786348"><ele>868.25</ele><time>2026-04-24T08:53:42.985Z</time></trkpt><trkpt lat="43.5269941" lon="12.4788001"><ele>863.5</ele><time>2026-04-24T08:53:43.984Z</time></trkpt><trkpt lat="43.5269577" lon="12.4789702"><ele>858.75</ele><time>2026-04-24T08:53:44.985Z</time></trkpt><trkpt lat="43.5269203" lon="12.4791276"><ele>854.0</ele><time>2026-04-24T08:53:45.984Z</time></trkpt><trkpt lat="43.5268832" lon="12.4792752"><ele>854.0</ele><time>2026-04-24T08:53:46.984Z</time></trkpt><trkpt lat="43.5268537" lon="12.4794154"><ele>854.0000000000001</ele><time>2026-04-24T08:53:47.985Z</time></trkpt><trkpt lat="43.526846" lon="12.4795594"><ele>854.0000000000001</ele><time>2026-04-24T08:53:48.984Z</time></trkpt><trkpt lat="43.5268651" lon="12.4796842"><ele>854.0</ele><time>2026-04-24T08:53:49.984Z</time></trkpt><trkpt lat="43.5269152" lon="12.4797853"><ele>854.0</ele><time>2026-04-24T08:53:50.984Z</time></trkpt><trkpt lat="43.5269999" lon="12.4798671"><ele>855.75</ele><time>2026-04-24T08:53:51.984Z</time></trkpt><trkpt lat="43.5271036" lon="12.4799578"><ele>857.5</ele><time>2026-04-24T08:53:52.984Z</time></trkpt><trkpt lat="43.5272245" lon="12.4800527"><ele>859.25</ele><time>2026-04-24T08:53:53.984Z</time></trkpt><trkpt lat="43.5273591" lon="12.4801504"><ele>861.0</ele><time>2026-04-24T08:53:54.984Z</time></trkpt><trkpt lat="43.5275035" lon="12.480246"><ele>861.0</ele><time>2026-04-24T08:53:55.984Z</time></trkpt><trkpt lat="43.5276596" lon="12.4803287"><ele>861.0</ele><time>2026-04-24T08:53:56.984Z</time></trkpt><trkpt lat="43.5278266" lon="12.4803846"><ele>861.0</ele><time>2026-04-24T08:53:57.984Z</time></trkpt><trkpt lat="43.5280048" lon="12.4803923"><ele>858.6666666666667</ele><time>2026-04-24T08:53:58.985Z</time></trkpt><trkpt lat="43.528184" lon="12.480368"><ele>856.3333333333334</ele><time>2026-04-24T08:53:59.984Z</time></trkpt><trkpt lat="43.5283547" lon="12.480312"><ele>854.0</ele><time>2026-04-24T08:54:00.985Z</time></trkpt><trkpt lat="43.5285248" lon="12.4802175"><ele>854.0</ele><time>2026-04-24T08:54:01.985Z</time></trkpt><trkpt lat="43.5286922" lon="12.4800923"><ele>854.0</ele><time>2026-04-24T08:54:02.985Z</time></trkpt><trkpt lat="43.528863" lon="12.4799573"><ele>854.0</ele><time>2026-04-24T08:54:03.984Z</time></trkpt><trkpt lat="43.5290409" lon="12.47983"><ele>857.6666666666667</ele><time>2026-04-24T08:54:04.985Z</time></trkpt><trkpt lat="43.5292261" lon="12.4797125"><ele>861.3333333333333</ele><time>2026-04-24T08:54:05.985Z</time></trkpt><trkpt lat="43.529413" lon="12.479589"><ele>865.0</ele><time>2026-04-24T08:54:06.984Z</time></trkpt><trkpt lat="43.5295997" lon="12.4794559"><ele>855.3333333333333</ele><time>2026-04-24T08:54:07.984Z</time></trkpt><trkpt lat="43.5297849" lon="12.4793388"><ele>845.6666666666667</ele><time>2026-04-24T08:54:08.984Z</time></trkpt><trkpt lat="43.5299696" lon="12.4792465"><ele>836.0</ele><time>2026-04-24T08:54:09.984Z</time></trkpt><trkpt lat="43.5301456" lon="12.4791672"><ele>837.5</ele><time>2026-04-24T08:54:10.984Z</time></trkpt><trkpt lat="43.5305432" lon="12.4789369"><ele>839.0</ele><time>2026-04-24T08:54:13.906Z</time></trkpt><trkpt lat="43.5307707" lon="12.4787047"><ele>839.0</ele><time>2026-04-24T08:54:14.985Z</time></trkpt><trkpt lat="43.5309413" lon="12.4785765"><ele>839.0</ele><time>2026-04-24T08:54:15.986Z</time></trkpt><trkpt lat="43.5311184" lon="12.4784745"><ele>839.0</ele><time>2026-04-24T08:54:16.984Z</time></trkpt><trkpt lat="43.5312874" lon="12.4783529"><ele>834.0</ele><time>2026-04-24T08:54:17.985Z</time></trkpt><trkpt lat="43.5314451" lon="12.4782182"><ele>829.0</ele><time>2026-04-24T08:54:18.984Z</time></trkpt><trkpt lat="43.5316065" lon="12.4781005"><ele>824.0</ele><time>2026-04-24T08:54:19.984Z</time></trkpt><trkpt lat="43.5317681" lon="12.478027"><ele>824.0</ele><time>2026-04-24T08:54:20.986Z</time></trkpt><trkpt lat="43.5319273" lon="12.4779957"><ele>824.0</ele><time>2026-04-24T08:54:21.984Z</time></trkpt><trkpt lat="43.5320768" lon="12.4780147"><ele>824.0</ele><time>2026-04-24T08:54:22.984Z</time></trkpt><trkpt lat="43.5322206" lon="12.4780624"><ele>823.0</ele><time>2026-04-24T08:54:23.984Z</time></trkpt><trkpt lat="43.5323541" lon="12.4781307"><ele>822.0</ele><time>2026-04-24T08:54:24.984Z</time></trkpt><trkpt lat="43.5324886" lon="12.4781846"><ele>821.0</ele><time>2026-04-24T08:54:25.984Z</time></trkpt><trkpt lat="43.5326366" lon="12.4782173"><ele>820.0</ele><time>2026-04-24T08:54:26.985Z</time></trkpt><trkpt lat="43.532796" lon="12.4782121"><ele>820.3333333333333</ele><time>2026-04-24T08:54:27.984Z</time></trkpt><trkpt lat="43.5329642" lon="12.4781767"><ele>820.6666666666667</ele><time>2026-04-24T08:54:28.985Z</time></trkpt><trkpt lat="43.5331413" lon="12.478149"><ele>821.0</ele><time>2026-04-24T08:54:29.984Z</time></trkpt><trkpt lat="43.5333254" lon="12.4781388"><ele>821.0</ele><time>2026-04-24T08:54:30.984Z</time></trkpt><trkpt lat="43.5335073" lon="12.4781421"><ele>821.0</ele><time>2026-04-24T08:54:31.984Z</time></trkpt><trkpt lat="43.5336801" lon="12.4781588"><ele>821.0</ele><time>2026-04-24T08:54:32.984Z</time></trkpt><trkpt lat="43.533845" lon="12.4781824"><ele>821.75</ele><time>2026-04-24T08:54:33.984Z</time></trkpt><trkpt lat="43.5339938" lon="12.4782176"><ele>822.5</ele><time>2026-04-24T08:54:34.984Z</time></trkpt><trkpt lat="43.5341292" lon="12.478282"><ele>823.25</ele><time>2026-04-24T08:54:35.984Z</time></trkpt><trkpt lat="43.5342487" lon="12.4783796"><ele>824.0</ele><time>2026-04-24T08:54:36.985Z</time></trkpt><trkpt lat="43.5343635" lon="12.47847"><ele>824.0</ele><time>2026-04-24T08:54:37.984Z</time></trkpt><trkpt lat="43.5344897" lon="12.4785279"><ele>824.0</ele><time>2026-04-24T08:54:38.984Z</time></trkpt><trkpt lat="43.5346309" lon="12.4785587"><ele>824.0</ele><time>2026-04-24T08:54:39.984Z</time></trkpt><trkpt lat="43.5347763" lon="12.4785942"><ele>824.0</ele><time>2026-04-24T08:54:40.985Z</time></trkpt><trkpt lat="43.5349153" lon="12.4786654"><ele>824.25</ele><time>2026-04-24T08:54:41.984Z</time></trkpt><trkpt lat="43.5350367" lon="12.4787647"><ele>824.5</ele><time>2026-04-24T08:54:42.984Z</time></trkpt><trkpt lat="43.5351377" lon="12.4788939"><ele>824.75</ele><time>2026-04-24T08:54:43.984Z</time></trkpt><trkpt lat="43.5352198" lon="12.47907"><ele>825.0</ele><time>2026-04-24T08:54:44.984Z</time></trkpt><trkpt lat="43.5352747" lon="12.4792759"><ele>824.3333333333333</ele><time>2026-04-24T08:54:45.984Z</time></trkpt><trkpt lat="43.5353163" lon="12.4794994"><ele>823.6666666666666</ele><time>2026-04-24T08:54:46.984Z</time></trkpt><trkpt lat="43.5353586" lon="12.4797296"><ele>823.0</ele><time>2026-04-24T08:54:47.984Z</time></trkpt><trkpt lat="43.5354008" lon="12.479955"><ele>823.0</ele><time>2026-04-24T08:54:48.984Z</time></trkpt><trkpt lat="43.5354355" lon="12.4801676"><ele>823.0</ele><time>2026-04-24T08:54:49.984Z</time></trkpt><trkpt lat="43.5354517" lon="12.4803781"><ele>823.0</ele><time>2026-04-24T08:54:50.984Z</time></trkpt><trkpt lat="43.5354284" lon="12.4805788"><ele>819.25</ele><time>2026-04-24T08:54:51.984Z</time></trkpt><trkpt lat="43.535363" lon="12.480762"><ele>815.5</ele><time>2026-04-24T08:54:52.984Z</time></trkpt><trkpt lat="43.5352711" lon="12.4809289"><ele>811.75</ele><time>2026-04-24T08:54:53.985Z</time></trkpt><trkpt lat="43.5351607" lon="12.4810581"><ele>808.0</ele><time>2026-04-24T08:54:54.984Z</time></trkpt><trkpt lat="43.535059" lon="12.4811881"><ele>811.6666666666666</ele><time>2026-04-24T08:54:55.984Z</time></trkpt><trkpt lat="43.5349772" lon="12.4813557"><ele>815.3333333333333</ele><time>2026-04-24T08:54:56.984Z</time></trkpt><trkpt lat="43.5349143" lon="12.481552"><ele>819.0</ele><time>2026-04-24T08:54:57.984Z</time></trkpt><trkpt lat="43.5348631" lon="12.481758"><ele>819.0</ele><time>2026-04-24T08:54:58.985Z</time></trkpt><trkpt lat="43.5348136" lon="12.4819542"><ele>819.0</ele><time>2026-04-24T08:54:59.984Z</time></trkpt><trkpt lat="43.5347593" lon="12.4821372"><ele>819.0</ele><time>2026-04-24T08:55:00.985Z</time></trkpt><trkpt lat="43.5347001" lon="12.4823088"><ele>819.0</ele><time>2026-04-24T08:55:01.984Z</time></trkpt><trkpt lat="43.5346486" lon="12.4824668"><ele>819.2</ele><time>2026-04-24T08:55:02.984Z</time></trkpt><trkpt lat="43.534624" lon="12.4826056"><ele>819.4000000000001</ele><time>2026-04-24T08:55:03.985Z</time></trkpt><trkpt lat="43.5346385" lon="12.4827367"><ele>819.6</ele><time>2026-04-24T08:55:04.984Z</time></trkpt><trkpt lat="43.5346921" lon="12.4828335"><ele>819.8</ele><time>2026-04-24T08:55:05.985Z</time></trkpt><trkpt lat="43.5347861" lon="12.482877"><ele>820.0</ele><time>2026-04-24T08:55:06.984Z</time></trkpt><trkpt lat="43.5349094" lon="12.4828731"><ele>820.0</ele><time>2026-04-24T08:55:07.985Z</time></trkpt><trkpt lat="43.535052" lon="12.4828536"><ele>820.0</ele><time>2026-04-24T08:55:08.984Z</time></trkpt><trkpt lat="43.5352058" lon="12.4828397"><ele>820.0</ele><time>2026-04-24T08:55:09.984Z</time></trkpt><trkpt lat="43.5353634" lon="12.4828276"><ele>822.75</ele><time>2026-04-24T08:55:10.984Z</time></trkpt><trkpt lat="43.5355196" lon="12.4828233"><ele>825.5</ele><time>2026-04-24T08:55:11.984Z</time></trkpt><trkpt lat="43.5356685" lon="12.4828467"><ele>828.25</ele><time>2026-04-24T08:55:12.984Z</time></trkpt><trkpt lat="43.5358085" lon="12.4828869"><ele>831.0</ele><time>2026-04-24T08:55:13.984Z</time></trkpt><trkpt lat="43.5359441" lon="12.482889"><ele>831.0</ele><time>2026-04-24T08:55:14.984Z</time></trkpt><trkpt lat="43.5360786" lon="12.4828487"><ele>831.0</ele><time>2026-04-24T08:55:15.985Z</time></trkpt><trkpt lat="43.5362152" lon="12.4827824"><ele>831.0</ele><time>2026-04-24T08:55:16.984Z</time></trkpt><trkpt lat="43.5363573" lon="12.4827484"><ele>831.0</ele><time>2026-04-24T08:55:17.984Z</time></trkpt><trkpt lat="43.5364919" lon="12.4827334"><ele>828.75</ele><time>2026-04-24T08:55:18.984Z</time></trkpt><trkpt lat="43.5366256" lon="12.4827074"><ele>826.5</ele><time>2026-04-24T08:55:19.984Z</time></trkpt><trkpt lat="43.5367592" lon="12.4826354"><ele>824.25</ele><time>2026-04-24T08:55:20.984Z</time></trkpt><trkpt lat="43.5368927" lon="12.4825533"><ele>822.0</ele><time>2026-04-24T08:55:21.985Z</time></trkpt><trkpt lat="43.5370317" lon="12.482464"><ele>818.6666666666667</ele><time>2026-04-24T08:55:22.984Z</time></trkpt><trkpt lat="43.5371719" lon="12.4823817"><ele>815.3333333333334</ele><time>2026-04-24T08:55:23.985Z</time></trkpt><trkpt lat="43.537313" lon="12.4823115"><ele>812.0</ele><time>2026-04-24T08:55:24.984Z</time></trkpt><trkpt lat="43.5374547" lon="12.4822515"><ele>812.0</ele><time>2026-04-24T08:55:25.984Z</time></trkpt><trkpt lat="43.5375967" lon="12.4822064"><ele>812.0</ele><time>2026-04-24T08:55:26.985Z</time></trkpt><trkpt lat="43.5377361" lon="12.4821829"><ele>812.0</ele><time>2026-04-24T08:55:27.985Z</time></trkpt><trkpt lat="43.5378655" lon="12.4821772"><ele>812.0</ele><time>2026-04-24T08:55:28.984Z</time></trkpt><trkpt lat="43.5379967" lon="12.4822"><ele>813.0</ele><time>2026-04-24T08:55:29.984Z</time></trkpt><trkpt lat="43.5381299" lon="12.4822669"><ele>814.0</ele><time>2026-04-24T08:55:30.984Z</time></trkpt><trkpt lat="43.5382497" lon="12.482369"><ele>815.0</ele><time>2026-04-24T08:55:31.984Z</time></trkpt><trkpt lat="43.5383678" lon="12.4824851"><ele>816.0</ele><time>2026-04-24T08:55:32.984Z</time></trkpt><trkpt lat="43.5384847" lon="12.4826035"><ele>816.0</ele><time>2026-04-24T08:55:33.984Z</time></trkpt><trkpt lat="43.5385952" lon="12.4827185"><ele>816.0</ele><time>2026-04-24T08:55:34.984Z</time></trkpt><trkpt lat="43.5386924" lon="12.4828259"><ele>816.0</ele><time>2026-04-24T08:55:35.985Z</time></trkpt><trkpt lat="43.5387946" lon="12.482899"><ele>816.0</ele><time>2026-04-24T08:55:36.984Z</time></trkpt><trkpt lat="43.5388941" lon="12.4829252"><ele>817.0</ele><time>2026-04-24T08:55:37.984Z</time></trkpt><trkpt lat="43.5390139" lon="12.4828828"><ele>818.0</ele><time>2026-04-24T08:55:38.984Z</time></trkpt><trkpt lat="43.5391477" lon="12.4828158"><ele>819.0</ele><time>2026-04-24T08:55:39.984Z</time></trkpt><trkpt lat="43.5393092" lon="12.4827704"><ele>820.0</ele><time>2026-04-24T08:55:40.984Z</time></trkpt><trkpt lat="43.5394746" lon="12.4827404"><ele>821.6666666666666</ele><time>2026-04-24T08:55:41.984Z</time></trkpt><trkpt lat="43.5396313" lon="12.4827301"><ele>823.3333333333333</ele><time>2026-04-24T08:55:42.984Z</time></trkpt><trkpt lat="43.5397879" lon="12.4827364"><ele>825.0</ele><time>2026-04-24T08:55:43.985Z</time></trkpt><trkpt lat="43.5399495" lon="12.4827605"><ele>825.0</ele><time>2026-04-24T08:55:44.984Z</time></trkpt><trkpt lat="43.5401122" lon="12.4828078"><ele>825.0</ele><time>2026-04-24T08:55:45.985Z</time></trkpt><trkpt lat="43.5402636" lon="12.4828944"><ele>825.0</ele><time>2026-04-24T08:55:46.984Z</time></trkpt><trkpt lat="43.5404011" lon="12.4829795"><ele>819.0</ele><time>2026-04-24T08:55:47.984Z</time></trkpt><trkpt lat="43.5405534" lon="12.4830284"><ele>813.0</ele><time>2026-04-24T08:55:48.984Z</time></trkpt><trkpt lat="43.5407233" lon="12.4830468"><ele>807.0</ele><time>2026-04-24T08:55:49.984Z</time></trkpt><trkpt lat="43.5409015" lon="12.4830667"><ele>807.0</ele><time>2026-04-24T08:55:50.985Z</time></trkpt><trkpt lat="43.5410833" lon="12.4831104"><ele>807.0</ele><time>2026-04-24T08:55:51.985Z</time></trkpt><trkpt lat="43.5412669" lon="12.483168"><ele>807.0</ele><time>2026-04-24T08:55:52.984Z</time></trkpt><trkpt lat="43.5414461" lon="12.4832331"><ele>809.3333333333333</ele><time>2026-04-24T08:55:53.984Z</time></trkpt><trkpt lat="43.5416134" lon="12.483308"><ele>811.6666666666666</ele><time>2026-04-24T08:55:54.985Z</time></trkpt><trkpt lat="43.5417608" lon="12.4834075"><ele>814.0</ele><time>2026-04-24T08:55:55.984Z</time></trkpt><trkpt lat="43.5418975" lon="12.4835331"><ele>814.0</ele><time>2026-04-24T08:55:56.985Z</time></trkpt><trkpt lat="43.5420103" lon="12.4836966"><ele>814.0</ele><time>2026-04-24T08:55:57.984Z</time></trkpt><trkpt lat="43.5421332" lon="12.4838447"><ele>814.0</ele><time>2026-04-24T08:55:58.985Z</time></trkpt><trkpt lat="43.5422696" lon="12.4839581"><ele>813.0</ele><time>2026-04-24T08:55:59.985Z</time></trkpt><trkpt lat="43.5423917" lon="12.4840941"><ele>812.0</ele><time>2026-04-24T08:56:00.984Z</time></trkpt><trkpt lat="43.5424911" lon="12.4842735"><ele>811.0</ele><time>2026-04-24T08:56:01.984Z</time></trkpt><trkpt lat="43.542573" lon="12.4844739"><ele>803.6666666666666</ele><time>2026-04-24T08:56:02.984Z</time></trkpt><trkpt lat="43.5426503" lon="12.4846738"><ele>796.3333333333333</ele><time>2026-04-24T08:56:03.985Z</time></trkpt><trkpt lat="43.5427257" lon="12.4848667"><ele>789.0</ele><time>2026-04-24T08:56:04.984Z</time></trkpt><trkpt lat="43.5428058" lon="12.4850438"><ele>793.0</ele><time>2026-04-24T08:56:05.985Z</time></trkpt><trkpt lat="43.5429042" lon="12.4851789"><ele>797.0</ele><time>2026-04-24T08:56:06.985Z</time></trkpt><trkpt lat="43.5430334" lon="12.4852848"><ele>801.0</ele><time>2026-04-24T08:56:07.984Z</time></trkpt><trkpt lat="43.5431731" lon="12.4853602"><ele>805.0</ele><time>2026-04-24T08:56:08.984Z</time></trkpt><trkpt lat="43.5433095" lon="12.4854001"><ele>801.4</ele><time>2026-04-24T08:56:09.984Z</time></trkpt><trkpt lat="43.5434161" lon="12.4854538"><ele>797.8</ele><time>2026-04-24T08:56:10.984Z</time></trkpt><trkpt lat="43.5434917" lon="12.485541"><ele>794.2</ele><time>2026-04-24T08:56:11.984Z</time></trkpt><trkpt lat="43.5435247" lon="12.4856696"><ele>790.6</ele><time>2026-04-24T08:56:12.984Z</time></trkpt><trkpt lat="43.5435043" lon="12.4858286"><ele>787.0</ele><time>2026-04-24T08:56:13.984Z</time></trkpt><trkpt lat="43.5434614" lon="12.4859984"><ele>787.0</ele><time>2026-04-24T08:56:14.984Z</time></trkpt><trkpt lat="43.5434246" lon="12.4861887"><ele>787.0</ele><time>2026-04-24T08:56:15.984Z</time></trkpt><trkpt lat="43.5433991" lon="12.4863863"><ele>787.0</ele><time>2026-04-24T08:56:16.984Z</time></trkpt><trkpt lat="43.5434151" lon="12.4866165"><ele>785.0</ele><time>2026-04-24T08:56:17.984Z</time></trkpt><trkpt lat="43.5434393" lon="12.4868441"><ele>783.0</ele><time>2026-04-24T08:56:18.984Z</time></trkpt><trkpt lat="43.5434507" lon="12.4870763"><ele>781.0</ele><time>2026-04-24T08:56:19.984Z</time></trkpt><trkpt lat="43.5434521" lon="12.4873037"><ele>780.5</ele><time>2026-04-24T08:56:20.984Z</time></trkpt><trkpt lat="43.543444" lon="12.4875183"><ele>780.0</ele><time>2026-04-24T08:56:21.984Z</time></trkpt><trkpt lat="43.5434188" lon="12.4877184"><ele>779.5</ele><time>2026-04-24T08:56:22.984Z</time></trkpt><trkpt lat="43.5433706" lon="12.4879028"><ele>779.0</ele><time>2026-04-24T08:56:23.984Z</time></trkpt><trkpt lat="43.5433155" lon="12.48807"><ele>778.2</ele><time>2026-04-24T08:56:24.984Z</time></trkpt><trkpt lat="43.5432601" lon="12.4882217"><ele>777.4000000000001</ele><time>2026-04-24T08:56:25.984Z</time></trkpt><trkpt lat="43.5432207" lon="12.4883639"><ele>776.6</ele><time>2026-04-24T08:56:26.985Z</time></trkpt><trkpt lat="43.5432304" lon="12.488504"><ele>775.8</ele><time>2026-04-24T08:56:27.984Z</time></trkpt><trkpt lat="43.5432865" lon="12.4886239"><ele>775.0</ele><time>2026-04-24T08:56:28.984Z</time></trkpt><trkpt lat="43.5433722" lon="12.4887274"><ele>773.5</ele><time>2026-04-24T08:56:29.984Z</time></trkpt><trkpt lat="43.5434596" lon="12.4888365"><ele>772.0</ele><time>2026-04-24T08:56:30.984Z</time></trkpt><trkpt lat="43.5435386" lon="12.488967"><ele>770.5</ele><time>2026-04-24T08:56:31.984Z</time></trkpt><trkpt lat="43.5436145" lon="12.4891071"><ele>769.0</ele><time>2026-04-24T08:56:32.984Z</time></trkpt><trkpt lat="43.5436894" lon="12.4892529"><ele>769.25</ele><time>2026-04-24T08:56:33.985Z</time></trkpt><trkpt lat="43.5437595" lon="12.4893986"><ele>769.5</ele><time>2026-04-24T08:56:34.984Z</time></trkpt><trkpt lat="43.5438244" lon="12.4895444"><ele>769.75</ele><time>2026-04-24T08:56:35.985Z</time></trkpt><trkpt lat="43.5438808" lon="12.4896819"><ele>770.0</ele><time>2026-04-24T08:56:36.985Z</time></trkpt><trkpt lat="43.5439246" lon="12.4898027"><ele>770.0000000000001</ele><time>2026-04-24T08:56:37.984Z</time></trkpt><trkpt lat="43.5439586" lon="12.4899117"><ele>770.0</ele><time>2026-04-24T08:56:38.985Z</time></trkpt><trkpt lat="43.5439825" lon="12.4900059"><ele>770.0</ele><time>2026-04-24T08:56:39.984Z</time></trkpt><trkpt lat="43.544008" lon="12.4901475"><ele>770.0</ele><time>2026-04-24T08:56:41.984Z</time></trkpt><trkpt lat="43.5440206" lon="12.4902331"><ele>770.0000000000001</ele><time>2026-04-24T08:56:43.985Z</time></trkpt><trkpt lat="43.544051" lon="12.4903772"><ele>770.0</ele><time>2026-04-24T08:56:46.984Z</time></trkpt><trkpt lat="43.5440799" lon="12.490509"><ele>770.6666666666667</ele><time>2026-04-24T08:56:48.984Z</time></trkpt><trkpt lat="43.5441207" lon="12.4905988"><ele>771.3333333333334</ele><time>2026-04-24T08:56:50.984Z</time></trkpt><trkpt lat="43.5441685" lon="12.4906721"><ele>772.0</ele><time>2026-04-24T08:56:52.984Z</time></trkpt><trkpt lat="43.5442096" lon="12.4907519"><ele>772.6666666666667</ele><time>2026-04-24T08:56:54.984Z</time></trkpt><trkpt lat="43.5442437" lon="12.4908874"><ele>773.3333333333334</ele><time>2026-04-24T08:56:56.984Z</time></trkpt><trkpt lat="43.544266" lon="12.4909689"><ele>774.0</ele><time>2026-04-24T08:56:57.984Z</time></trkpt><trkpt lat="43.5442885" lon="12.4910544"><ele>774.0</ele><time>2026-04-24T08:56:58.985Z</time></trkpt><trkpt lat="43.5443289" lon="12.4911632"><ele>774.0</ele><time>2026-04-24T08:56:59.985Z</time></trkpt><trkpt lat="43.5443943" lon="12.4912843"><ele>774.0</ele><time>2026-04-24T08:57:00.984Z</time></trkpt><trkpt lat="43.544469" lon="12.4913725"><ele>774.0</ele><time>2026-04-24T08:57:01.984Z</time></trkpt><trkpt lat="43.5445661" lon="12.4914467"><ele>774.0</ele><time>2026-04-24T08:57:02.984Z</time></trkpt><trkpt lat="43.5446837" lon="12.4914887"><ele>777.25</ele><time>2026-04-24T08:57:03.984Z</time></trkpt><trkpt lat="43.5448204" lon="12.4914916"><ele>780.5</ele><time>2026-04-24T08:57:04.984Z</time></trkpt><trkpt lat="43.5449612" lon="12.4914607"><ele>783.75</ele><time>2026-04-24T08:57:05.984Z</time></trkpt><trkpt lat="43.5451094" lon="12.4914297"><ele>787.0</ele><time>2026-04-24T08:57:06.984Z</time></trkpt><trkpt lat="43.5452645" lon="12.4914169"><ele>792.3333333333333</ele><time>2026-04-24T08:57:07.984Z</time></trkpt><trkpt lat="43.5454139" lon="12.4914219"><ele>797.6666666666667</ele><time>2026-04-24T08:57:08.984Z</time></trkpt><trkpt lat="43.5455702" lon="12.4914356"><ele>803.0</ele><time>2026-04-24T08:57:09.984Z</time></trkpt><trkpt lat="43.5457266" lon="12.4914569"><ele>803.0</ele><time>2026-04-24T08:57:10.985Z</time></trkpt><trkpt lat="43.5458869" lon="12.4914792"><ele>803.0</ele><time>2026-04-24T08:57:11.984Z</time></trkpt><trkpt lat="43.5460496" lon="12.4915032"><ele>803.0</ele><time>2026-04-24T08:57:12.985Z</time></trkpt><trkpt lat="43.5462169" lon="12.4915269"><ele>804.6666666666667</ele><time>2026-04-24T08:57:13.984Z</time></trkpt><trkpt lat="43.5463874" lon="12.491551"><ele>806.3333333333333</ele><time>2026-04-24T08:57:14.984Z</time></trkpt><trkpt lat="43.5465593" lon="12.4915726"><ele>808.0</ele><time>2026-04-24T08:57:15.984Z</time></trkpt><trkpt lat="43.5467334" lon="12.4915819"><ele>808.0</ele><time>2026-04-24T08:57:16.984Z</time></trkpt><trkpt lat="43.5469123" lon="12.4915655"><ele>808.0</ele><time>2026-04-24T08:57:17.984Z</time></trkpt><trkpt lat="43.547093" lon="12.4915132"><ele>808.0</ele><time>2026-04-24T08:57:18.984Z</time></trkpt><trkpt lat="43.5472754" lon="12.4914329"><ele>804.6666666666666</ele><time>2026-04-24T08:57:19.983Z</time></trkpt><trkpt lat="43.5474582" lon="12.4913373"><ele>801.3333333333333</ele><time>2026-04-24T08:57:20.984Z</time></trkpt><trkpt lat="43.5476414" lon="12.4912267"><ele>798.0</ele><time>2026-04-24T08:57:21.983Z</time></trkpt><trkpt lat="43.5478169" lon="12.4910895"><ele>804.6666666666667</ele><time>2026-04-24T08:57:22.984Z</time></trkpt><trkpt lat="43.5479848" lon="12.4909336"><ele>811.3333333333334</ele><time>2026-04-24T08:57:23.983Z</time></trkpt><trkpt lat="43.5481631" lon="12.490798"><ele>818.0</ele><time>2026-04-24T08:57:24.983Z</time></trkpt><trkpt lat="43.5483429" lon="12.490669"><ele>818.0</ele><time>2026-04-24T08:57:25.984Z</time></trkpt><trkpt lat="43.5485165" lon="12.490525"><ele>818.0</ele><time>2026-04-24T08:57:26.983Z</time></trkpt><trkpt lat="43.5486796" lon="12.4903734"><ele>818.0</ele><time>2026-04-24T08:57:27.983Z</time></trkpt><trkpt lat="43.5488279" lon="12.4902384"><ele>817.6666666666667</ele><time>2026-04-24T08:57:28.983Z</time></trkpt><trkpt lat="43.548965" lon="12.4901057"><ele>817.3333333333333</ele><time>2026-04-24T08:57:29.984Z</time></trkpt><trkpt lat="43.5490951" lon="12.4899877"><ele>817.0</ele><time>2026-04-24T08:57:30.984Z</time></trkpt><trkpt lat="43.5492252" lon="12.4898836"><ele>817.0</ele><time>2026-04-24T08:57:31.983Z</time></trkpt><trkpt lat="43.5493503" lon="12.4897883"><ele>817.0</ele><time>2026-04-24T08:57:32.983Z</time></trkpt><trkpt lat="43.5494715" lon="12.4897054"><ele>817.0</ele><time>2026-04-24T08:57:33.983Z</time></trkpt><trkpt lat="43.549588" lon="12.4896331"><ele>817.0</ele><time>2026-04-24T08:57:34.983Z</time></trkpt><trkpt lat="43.5497009" lon="12.4895958"><ele>817.6</ele><time>2026-04-24T08:57:35.984Z</time></trkpt><trkpt lat="43.5497934" lon="12.489645"><ele>818.2</ele><time>2026-04-24T08:57:36.983Z</time></trkpt><trkpt lat="43.5498492" lon="12.4897486"><ele>818.8</ele><time>2026-04-24T08:57:37.984Z</time></trkpt><trkpt lat="43.5498479" lon="12.4898875"><ele>819.4</ele><time>2026-04-24T08:57:38.983Z</time></trkpt><trkpt lat="43.5497849" lon="12.4899909"><ele>820.0</ele><time>2026-04-24T08:57:39.983Z</time></trkpt><trkpt lat="43.5496902" lon="12.4900175"><ele>820.0</ele><time>2026-04-24T08:57:40.983Z</time></trkpt><trkpt lat="43.5495906" lon="12.4899695"><ele>820.0</ele><time>2026-04-24T08:57:41.984Z</time></trkpt><trkpt lat="43.5494899" lon="12.4899331"><ele>820.0</ele><time>2026-04-24T08:57:42.983Z</time></trkpt><trkpt lat="43.5493829" lon="12.4899881"><ele>820.0</ele><time>2026-04-24T08:57:43.983Z</time></trkpt><trkpt lat="43.5493188" lon="12.4901083"><ele>820.0</ele><time>2026-04-24T08:57:44.984Z</time></trkpt><trkpt lat="43.549317" lon="12.4902457"><ele>820.0</ele><time>2026-04-24T08:57:45.983Z</time></trkpt><trkpt lat="43.5493714" lon="12.4903599"><ele>820.0</ele><time>2026-04-24T08:57:46.984Z</time></trkpt><trkpt lat="43.5494751" lon="12.490414"><ele>820.0</ele><time>2026-04-24T08:57:47.983Z</time></trkpt><trkpt lat="43.5495857" lon="12.4904237"><ele>820.0</ele><time>2026-04-24T08:57:48.983Z</time></trkpt><trkpt lat="43.549671" lon="12.4904939"><ele>820.0</ele><time>2026-04-24T08:57:49.983Z</time></trkpt><trkpt lat="43.549712" lon="12.4906172"><ele>824.4</ele><time>2026-04-24T08:57:50.984Z</time></trkpt><trkpt lat="43.5496886" lon="12.490743"><ele>828.8</ele><time>2026-04-24T08:57:51.984Z</time></trkpt><trkpt lat="43.5496059" lon="12.4908305"><ele>833.2</ele><time>2026-04-24T08:57:52.983Z</time></trkpt><trkpt lat="43.549503" lon="12.4908205"><ele>837.6</ele><time>2026-04-24T08:57:53.984Z</time></trkpt><trkpt lat="43.5494205" lon="12.4907291"><ele>842.0</ele><time>2026-04-24T08:57:54.983Z</time></trkpt><trkpt lat="43.5493384" lon="12.4906308"><ele>842.0</ele><time>2026-04-24T08:57:55.983Z</time></trkpt><trkpt lat="43.5492315" lon="12.4906184"><ele>842.0</ele><time>2026-04-24T08:57:56.984Z</time></trkpt><trkpt lat="43.5491345" lon="12.4906769"><ele>842.0</ele><time>2026-04-24T08:57:57.983Z</time></trkpt><trkpt lat="43.5490816" lon="12.4907998"><ele>842.0</ele><time>2026-04-24T08:57:58.983Z</time></trkpt><trkpt lat="43.5490869" lon="12.4909277"><ele>842.0</ele><time>2026-04-24T08:57:59.984Z</time></trkpt><trkpt lat="43.5491484" lon="12.4910266"><ele>842.0</ele><time>2026-04-24T08:58:00.983Z</time></trkpt><trkpt lat="43.5492572" lon="12.491079"><ele>842.0</ele><time>2026-04-24T08:58:01.984Z</time></trkpt><trkpt lat="43.5493935" lon="12.4910955"><ele>842.0</ele><time>2026-04-24T08:58:02.983Z</time></trkpt><trkpt lat="43.549551" lon="12.4911194"><ele>842.0</ele><time>2026-04-24T08:58:03.984Z</time></trkpt><trkpt lat="43.5497161" lon="12.4911567"><ele>842.0</ele><time>2026-04-24T08:58:04.983Z</time></trkpt><trkpt lat="43.5498877" lon="12.4912178"><ele>842.0</ele><time>2026-04-24T08:58:05.983Z</time></trkpt><trkpt lat="43.5500631" lon="12.4912967"><ele>842.0</ele><time>2026-04-24T08:58:06.983Z</time></trkpt><trkpt lat="43.5502424" lon="12.4913866"><ele>848.3333333333334</ele><time>2026-04-24T08:58:07.983Z</time></trkpt><trkpt lat="43.5504266" lon="12.4914914"><ele>854.6666666666667</ele><time>2026-04-24T08:58:08.983Z</time></trkpt><trkpt lat="43.5506026" lon="12.4916226"><ele>861.0</ele><time>2026-04-24T08:58:09.983Z</time></trkpt><trkpt lat="43.5507732" lon="12.491765"><ele>861.0</ele><time>2026-04-24T08:58:10.984Z</time></trkpt><trkpt lat="43.5509537" lon="12.4918895"><ele>861.0</ele><time>2026-04-24T08:58:11.983Z</time></trkpt><trkpt lat="43.5511444" lon="12.4919803"><ele>861.0</ele><time>2026-04-24T08:58:12.983Z</time></trkpt><trkpt lat="43.5513437" lon="12.492029"><ele>860.3333333333333</ele><time>2026-04-24T08:58:13.983Z</time></trkpt><trkpt lat="43.551549" lon="12.4920402"><ele>859.6666666666666</ele><time>2026-04-24T08:58:14.984Z</time></trkpt><trkpt lat="43.5517589" lon="12.4920298"><ele>859.0</ele><time>2026-04-24T08:58:15.983Z</time></trkpt><trkpt lat="43.5519658" lon="12.4920107"><ele>863.6666666666666</ele><time>2026-04-24T08:58:16.983Z</time></trkpt><trkpt lat="43.552163" lon="12.4920015"><ele>868.3333333333333</ele><time>2026-04-24T08:58:17.983Z</time></trkpt><trkpt lat="43.5523554" lon="12.492003"><ele>873.0</ele><time>2026-04-24T08:58:18.984Z</time></trkpt><trkpt lat="43.5525458" lon="12.491985"><ele>873.0</ele><time>2026-04-24T08:58:19.984Z</time></trkpt><trkpt lat="43.5527368" lon="12.4919237"><ele>873.0</ele><time>2026-04-24T08:58:20.984Z</time></trkpt><trkpt lat="43.5529225" lon="12.4918198"><ele>873.0</ele><time>2026-04-24T08:58:21.983Z</time></trkpt><trkpt lat="43.553101" lon="12.4916887"><ele>878.6666666666667</ele><time>2026-04-24T08:58:22.983Z</time></trkpt><trkpt lat="43.5532755" lon="12.4915519"><ele>884.3333333333334</ele><time>2026-04-24T08:58:23.984Z</time></trkpt><trkpt lat="43.553442" lon="12.4914114"><ele>890.0</ele><time>2026-04-24T08:58:24.983Z</time></trkpt><trkpt lat="43.5535993" lon="12.4912886"><ele>886.6666666666667</ele><time>2026-04-24T08:58:25.984Z</time></trkpt><trkpt lat="43.5537559" lon="12.4912013"><ele>883.3333333333333</ele><time>2026-04-24T08:58:26.983Z</time></trkpt><trkpt lat="43.553914" lon="12.4911599"><ele>880.0</ele><time>2026-04-24T08:58:27.983Z</time></trkpt><trkpt lat="43.5540725" lon="12.4911742"><ele>880.0</ele><time>2026-04-24T08:58:28.983Z</time></trkpt><trkpt lat="43.5542278" lon="12.4912428"><ele>880.0</ele><time>2026-04-24T08:58:29.984Z</time></trkpt><trkpt lat="43.5543725" lon="12.4913609"><ele>880.0</ele><time>2026-04-24T08:58:30.983Z</time></trkpt><trkpt lat="43.5545051" lon="12.491514"><ele>883.3333333333333</ele><time>2026-04-24T08:58:31.983Z</time></trkpt><trkpt lat="43.5546143" lon="12.4916968"><ele>886.6666666666667</ele><time>2026-04-24T08:58:32.984Z</time></trkpt><trkpt lat="43.5546735" lon="12.4919009"><ele>890.0</ele><time>2026-04-24T08:58:33.983Z</time></trkpt><trkpt lat="43.5546768" lon="12.492126"><ele>895.6666666666667</ele><time>2026-04-24T08:58:34.983Z</time></trkpt><trkpt lat="43.5546385" lon="12.4923562"><ele>901.3333333333333</ele><time>2026-04-24T08:58:35.983Z</time></trkpt><trkpt lat="43.554595" lon="12.4925709"><ele>907.0</ele><time>2026-04-24T08:58:36.983Z</time></trkpt><trkpt lat="43.5545512" lon="12.4927545"><ele>909.8</ele><time>2026-04-24T08:58:37.983Z</time></trkpt><trkpt lat="43.5545297" lon="12.4929056"><ele>912.6</ele><time>2026-04-24T08:58:38.983Z</time></trkpt><trkpt lat="43.554554" lon="12.4930481"><ele>915.3999999999999</ele><time>2026-04-24T08:58:39.984Z</time></trkpt><trkpt lat="43.554619" lon="12.4931363"><ele>918.1999999999999</ele><time>2026-04-24T08:58:40.983Z</time></trkpt><trkpt lat="43.5547064" lon="12.4931608"><ele>921.0</ele><time>2026-04-24T08:58:41.983Z</time></trkpt><trkpt lat="43.5548028" lon="12.4930981"><ele>921.75</ele><time>2026-04-24T08:58:42.984Z</time></trkpt><trkpt lat="43.5548678" lon="12.4929528"><ele>922.5</ele><time>2026-04-24T08:58:43.983Z</time></trkpt><trkpt lat="43.5549307" lon="12.4927843"><ele>923.25</ele><time>2026-04-24T08:58:44.983Z</time></trkpt><trkpt lat="43.5550204" lon="12.4926707"><ele>924.0</ele><time>2026-04-24T08:58:45.983Z</time></trkpt><trkpt lat="43.5551284" lon="12.4926151"><ele>924.0</ele><time>2026-04-24T08:58:46.983Z</time></trkpt><trkpt lat="43.555228" lon="12.4926443"><ele>924.0000000000001</ele><time>2026-04-24T08:58:47.984Z</time></trkpt><trkpt lat="43.5552858" lon="12.4927414"><ele>924.0000000000001</ele><time>2026-04-24T08:58:48.983Z</time></trkpt><trkpt lat="43.5552862" lon="12.492871"><ele>924.0</ele><time>2026-04-24T08:58:49.983Z</time></trkpt><trkpt lat="43.5552223" lon="12.4929944"><ele>924.0</ele><time>2026-04-24T08:58:50.983Z</time></trkpt><trkpt lat="43.555111" lon="12.4930748"><ele>924.0</ele><time>2026-04-24T08:58:51.983Z</time></trkpt><trkpt lat="43.5549819" lon="12.4931755"><ele>924.0</ele><time>2026-04-24T08:58:52.983Z</time></trkpt><trkpt lat="43.5548526" lon="12.4933397"><ele>924.0</ele><time>2026-04-24T08:58:53.983Z</time></trkpt><trkpt lat="43.5547201" lon="12.493503"><ele>924.0</ele><time>2026-04-24T08:58:54.984Z</time></trkpt><trkpt lat="43.5545814" lon="12.4936305"><ele>924.0</ele><time>2026-04-24T08:58:55.984Z</time></trkpt><trkpt lat="43.5544491" lon="12.4936931"><ele>924.0</ele><time>2026-04-24T08:58:56.983Z</time></trkpt><trkpt lat="43.554327" lon="12.4936845"><ele>924.0</ele><time>2026-04-24T08:58:57.983Z</time></trkpt><trkpt lat="43.5542146" lon="12.4936128"><ele>925.75</ele><time>2026-04-24T08:58:58.983Z</time></trkpt><trkpt lat="43.5541269" lon="12.4934833"><ele>927.5</ele><time>2026-04-24T08:58:59.983Z</time></trkpt><trkpt lat="43.5540888" lon="12.4933106"><ele>929.25</ele><time>2026-04-24T08:59:00.983Z</time></trkpt><trkpt lat="43.5540933" lon="12.4931286"><ele>931.0</ele><time>2026-04-24T08:59:01.983Z</time></trkpt><trkpt lat="43.554117" lon="12.4929397"><ele>929.0</ele><time>2026-04-24T08:59:02.983Z</time></trkpt><trkpt lat="43.5541109" lon="12.492782"><ele>926.9999999999999</ele><time>2026-04-24T08:59:03.983Z</time></trkpt><trkpt lat="43.5540619" lon="12.4926545"><ele>924.9999999999999</ele><time>2026-04-24T08:59:04.984Z</time></trkpt><trkpt lat="43.5539745" lon="12.4925766"><ele>923.0</ele><time>2026-04-24T08:59:05.983Z</time></trkpt><trkpt lat="43.553877" lon="12.4925804"><ele>921.0</ele><time>2026-04-24T08:59:06.983Z</time></trkpt><trkpt lat="43.5537993" lon="12.4926638"><ele>921.0</ele><time>2026-04-24T08:59:07.983Z</time></trkpt><trkpt lat="43.5537702" lon="12.4927874"><ele>921.0</ele><time>2026-04-24T08:59:08.984Z</time></trkpt><trkpt lat="43.5537973" lon="12.4929273"><ele>921.0</ele><time>2026-04-24T08:59:09.983Z</time></trkpt><trkpt lat="43.553848" lon="12.4930851"><ele>921.0</ele><time>2026-04-24T08:59:10.983Z</time></trkpt><trkpt lat="43.5538447" lon="12.4932689"><ele>923.5</ele><time>2026-04-24T08:59:11.983Z</time></trkpt><trkpt lat="43.5537926" lon="12.4934428"><ele>926.0</ele><time>2026-04-24T08:59:12.985Z</time></trkpt><trkpt lat="43.5537245" lon="12.4936341"><ele>928.5</ele><time>2026-04-24T08:59:13.983Z</time></trkpt><trkpt lat="43.5536634" lon="12.4938261"><ele>931.0</ele><time>2026-04-24T08:59:14.983Z</time></trkpt><trkpt lat="43.5536321" lon="12.4939969"><ele>936.25</ele><time>2026-04-24T08:59:15.984Z</time></trkpt><trkpt lat="43.5536522" lon="12.4941392"><ele>941.5</ele><time>2026-04-24T08:59:16.984Z</time></trkpt><trkpt lat="43.5537354" lon="12.4942455"><ele>946.75</ele><time>2026-04-24T08:59:17.983Z</time></trkpt><trkpt lat="43.5538596" lon="12.4942857"><ele>952.0</ele><time>2026-04-24T08:59:18.983Z</time></trkpt><trkpt lat="43.5540087" lon="12.4942874"><ele>952.0</ele><time>2026-04-24T08:59:19.984Z</time></trkpt><trkpt lat="43.5541819" lon="12.4942822"><ele>952.0</ele><time>2026-04-24T08:59:20.983Z</time></trkpt><trkpt lat="43.5543428" lon="12.4942761"><ele>952.0</ele><time>2026-04-24T08:59:21.983Z</time></trkpt><trkpt lat="43.5544978" lon="12.4943019"><ele>950.6666666666666</ele><time>2026-04-24T08:59:22.984Z</time></trkpt><trkpt lat="43.5546431" lon="12.4943837"><ele>949.3333333333333</ele><time>2026-04-24T08:59:23.983Z</time></trkpt><trkpt lat="43.554784" lon="12.4945196"><ele>948.0</ele><time>2026-04-24T08:59:24.983Z</time></trkpt><trkpt lat="43.5549332" lon="12.4946648"><ele>954.6666666666667</ele><time>2026-04-24T08:59:25.983Z</time></trkpt><trkpt lat="43.5550855" lon="12.4948164"><ele>961.3333333333334</ele><time>2026-04-24T08:59:26.983Z</time></trkpt><trkpt lat="43.5552347" lon="12.4949849"><ele>968.0</ele><time>2026-04-24T08:59:27.984Z</time></trkpt><trkpt lat="43.5553686" lon="12.4951795"><ele>967.3333333333334</ele><time>2026-04-24T08:59:28.983Z</time></trkpt><trkpt lat="43.5554802" lon="12.4953826"><ele>966.6666666666667</ele><time>2026-04-24T08:59:29.983Z</time></trkpt><trkpt lat="43.5555671" lon="12.4955693"><ele>966.0</ele><time>2026-04-24T08:59:30.983Z</time></trkpt><trkpt lat="43.5556205" lon="12.495751"><ele>968.0</ele><time>2026-04-24T08:59:31.983Z</time></trkpt><trkpt lat="43.5556409" lon="12.4959229"><ele>970.0</ele><time>2026-04-24T08:59:32.983Z</time></trkpt><trkpt lat="43.555653" lon="12.4960805"><ele>972.0</ele><time>2026-04-24T08:59:33.983Z</time></trkpt><trkpt lat="43.5557052" lon="12.4962025"><ele>974.0</ele><time>2026-04-24T08:59:34.984Z</time></trkpt><trkpt lat="43.555795" lon="12.4962841"><ele>977.5</ele><time>2026-04-24T08:59:35.983Z</time></trkpt><trkpt lat="43.5559076" lon="12.4963073"><ele>981.0</ele><time>2026-04-24T08:59:36.983Z</time></trkpt><trkpt lat="43.5560391" lon="12.4962818"><ele>984.5</ele><time>2026-04-24T08:59:37.984Z</time></trkpt><trkpt lat="43.5561897" lon="12.4962701"><ele>988.0</ele><time>2026-04-24T08:59:38.983Z</time></trkpt><trkpt lat="43.5563305" lon="12.4963158"><ele>988.0</ele><time>2026-04-24T08:59:39.983Z</time></trkpt><trkpt lat="43.5564637" lon="12.4964111"><ele>988.0</ele><time>2026-04-24T08:59:40.983Z</time></trkpt><trkpt lat="43.5565748" lon="12.4965565"><ele>988.0</ele><time>2026-04-24T08:59:41.984Z</time></trkpt><trkpt lat="43.5566672" lon="12.4967124"><ele>988.0</ele><time>2026-04-24T08:59:42.983Z</time></trkpt><trkpt lat="43.5567476" lon="12.4968511"><ele>988.0</ele><time>2026-04-24T08:59:43.983Z</time></trkpt><trkpt lat="43.5567858" lon="12.4970164"><ele>988.0</ele><time>2026-04-24T08:59:44.983Z</time></trkpt><trkpt lat="43.5567554" lon="12.497164"><ele>988.0</ele><time>2026-04-24T08:59:45.983Z</time></trkpt><trkpt lat="43.5566803" lon="12.4972567"><ele>988.0</ele><time>2026-04-24T08:59:46.983Z</time></trkpt><trkpt lat="43.5565818" lon="12.4972675"><ele>988.0</ele><time>2026-04-24T08:59:47.984Z</time></trkpt><trkpt lat="43.556497" lon="12.4971919"><ele>988.0</ele><time>2026-04-24T08:59:48.983Z</time></trkpt><trkpt lat="43.5564581" lon="12.4970618"><ele>988.0</ele><time>2026-04-24T08:59:49.983Z</time></trkpt><trkpt lat="43.5564507" lon="12.4969244"><ele>988.0</ele><time>2026-04-24T08:59:50.983Z</time></trkpt><trkpt lat="43.5564199" lon="12.4967847"><ele>988.0</ele><time>2026-04-24T08:59:51.983Z</time></trkpt><trkpt lat="43.5563433" lon="12.4966548"><ele>988.0</ele><time>2026-04-24T08:59:52.984Z</time></trkpt><trkpt lat="43.5562366" lon="12.4965823"><ele>989.0</ele><time>2026-04-24T08:59:53.983Z</time></trkpt><trkpt lat="43.5561078" lon="12.4965883"><ele>990.0</ele><time>2026-04-24T08:59:54.983Z</time></trkpt><trkpt lat="43.5559709" lon="12.4966739"><ele>991.0</ele><time>2026-04-24T08:59:55.983Z</time></trkpt><trkpt lat="43.5558169" lon="12.4967918"><ele>991.0</ele><time>2026-04-24T08:59:56.983Z</time></trkpt><trkpt lat="43.5556456" lon="12.4968616"><ele>991.0</ele><time>2026-04-24T08:59:57.984Z</time></trkpt><trkpt lat="43.555468" lon="12.4969057"><ele>991.0</ele><time>2026-04-24T08:59:58.984Z</time></trkpt><trkpt lat="43.5552977" lon="12.4969369"><ele>995.25</ele><time>2026-04-24T08:59:59.983Z</time></trkpt><trkpt lat="43.5551613" lon="12.4969211"><ele>999.5</ele><time>2026-04-24T09:00:00.984Z</time></trkpt><trkpt lat="43.5550566" lon="12.4968517"><ele>1003.75</ele><time>2026-04-24T09:00:01.983Z</time></trkpt><trkpt lat="43.5549858" lon="12.4967212"><ele>1008.0</ele><time>2026-04-24T09:00:02.983Z</time></trkpt><trkpt lat="43.5549428" lon="12.4965461"><ele>1008.0</ele><time>2026-04-24T09:00:03.983Z</time></trkpt><trkpt lat="43.5548873" lon="12.4963553"><ele>1008.0</ele><time>2026-04-24T09:00:04.983Z</time></trkpt><trkpt lat="43.5548058" lon="12.4961751"><ele>1008.0</ele><time>2026-04-24T09:00:05.983Z</time></trkpt><trkpt lat="43.5547096" lon="12.4960259"><ele>1008.0</ele><time>2026-04-24T09:00:06.983Z</time></trkpt><trkpt lat="43.5545906" lon="12.4959195"><ele>1009.5</ele><time>2026-04-24T09:00:07.983Z</time></trkpt><trkpt lat="43.5544569" lon="12.4958591"><ele>1011.0</ele><time>2026-04-24T09:00:08.983Z</time></trkpt><trkpt lat="43.5543137" lon="12.4958344"><ele>1012.5</ele><time>2026-04-24T09:00:09.983Z</time></trkpt><trkpt lat="43.5541664" lon="12.4958231"><ele>1014.0</ele><time>2026-04-24T09:00:10.983Z</time></trkpt><trkpt lat="43.5540174" lon="12.4958191"><ele>1014.0</ele><time>2026-04-24T09:00:11.984Z</time></trkpt><trkpt lat="43.5538575" lon="12.4957685"><ele>1014.0</ele><time>2026-04-24T09:00:12.983Z</time></trkpt><trkpt lat="43.5537059" lon="12.4956701"><ele>1014.0</ele><time>2026-04-24T09:00:13.983Z</time></trkpt><trkpt lat="43.5535579" lon="12.4955551"><ele>1010.6666666666667</ele><time>2026-04-24T09:00:14.983Z</time></trkpt><trkpt lat="43.5534106" lon="12.4954617"><ele>1007.3333333333334</ele><time>2026-04-24T09:00:15.984Z</time></trkpt><trkpt lat="43.5532515" lon="12.4954028"><ele>1004.0</ele><time>2026-04-24T09:00:16.983Z</time></trkpt><trkpt lat="43.5530787" lon="12.4953779"><ele>1004.0</ele><time>2026-04-24T09:00:17.984Z</time></trkpt><trkpt lat="43.5528996" lon="12.4953695"><ele>1004.0</ele><time>2026-04-24T09:00:18.983Z</time></trkpt><trkpt lat="43.5527114" lon="12.4953684"><ele>1004.0</ele><time>2026-04-24T09:00:19.985Z</time></trkpt><trkpt lat="43.5525152" lon="12.4953712"><ele>1005.6666666666667</ele><time>2026-04-24T09:00:20.983Z</time></trkpt><trkpt lat="43.5523085" lon="12.4953831"><ele>1007.3333333333333</ele><time>2026-04-24T09:00:21.983Z</time></trkpt><trkpt lat="43.5521006" lon="12.4954005"><ele>1009.0</ele><time>2026-04-24T09:00:22.984Z</time></trkpt><trkpt lat="43.5518902" lon="12.4954278"><ele>1021.3333333333333</ele><time>2026-04-24T09:00:23.983Z</time></trkpt><trkpt lat="43.5516792" lon="12.4954775"><ele>1033.6666666666667</ele><time>2026-04-24T09:00:24.984Z</time></trkpt><trkpt lat="43.5514673" lon="12.4955504"><ele>1046.0</ele><time>2026-04-24T09:00:25.984Z</time></trkpt><trkpt lat="43.5512543" lon="12.4956254"><ele>1045.0</ele><time>2026-04-24T09:00:26.983Z</time></trkpt><trkpt lat="43.5510392" lon="12.4957011"><ele>1044.0</ele><time>2026-04-24T09:00:27.984Z</time></trkpt><trkpt lat="43.5508197" lon="12.4957732"><ele>1043.0</ele><time>2026-04-24T09:00:28.983Z</time></trkpt><trkpt lat="43.5506" lon="12.4958377"><ele>1043.0</ele><time>2026-04-24T09:00:29.983Z</time></trkpt><trkpt lat="43.5503805" lon="12.4958782"><ele>1043.0</ele><time>2026-04-24T09:00:30.983Z</time></trkpt><trkpt lat="43.5501695" lon="12.4959093"><ele>1043.0</ele><time>2026-04-24T09:00:31.983Z</time></trkpt><trkpt lat="43.5499792" lon="12.4959407"><ele>1044.0</ele><time>2026-04-24T09:00:32.983Z</time></trkpt><trkpt lat="43.5498034" lon="12.4959841"><ele>1045.0</ele><time>2026-04-24T09:00:33.984Z</time></trkpt><trkpt lat="43.5496335" lon="12.4960662"><ele>1046.0</ele><time>2026-04-24T09:00:34.983Z</time></trkpt><trkpt lat="43.549473" lon="12.496197"><ele>1052.3333333333335</ele><time>2026-04-24T09:00:35.983Z</time></trkpt><trkpt lat="43.5493214" lon="12.4963588"><ele>1058.6666666666667</ele><time>2026-04-24T09:00:36.983Z</time></trkpt><trkpt lat="43.5491751" lon="12.4965432"><ele>1065.0</ele><time>2026-04-24T09:00:37.984Z</time></trkpt><trkpt lat="43.549031" lon="12.4967471"><ele>1065.0</ele><time>2026-04-24T09:00:38.983Z</time></trkpt><trkpt lat="43.5488885" lon="12.4969653"><ele>1065.0</ele><time>2026-04-24T09:00:39.983Z</time></trkpt><trkpt lat="43.548742" lon="12.4971883"><ele>1065.0</ele><time>2026-04-24T09:00:40.984Z</time></trkpt><trkpt lat="43.5485888" lon="12.4974149"><ele>1065.5</ele><time>2026-04-24T09:00:41.983Z</time></trkpt><trkpt lat="43.5484284" lon="12.4976431"><ele>1066.0</ele><time>2026-04-24T09:00:42.983Z</time></trkpt><trkpt lat="43.5482657" lon="12.4978707"><ele>1078.5</ele><time>2026-04-24T09:00:43.984Z</time></trkpt><trkpt lat="43.5481011" lon="12.4981"><ele>1091.0</ele><time>2026-04-24T09:00:44.984Z</time></trkpt><trkpt lat="43.5479353" lon="12.4983284"><ele>1092.0</ele><time>2026-04-24T09:00:45.984Z</time></trkpt><trkpt lat="43.5477688" lon="12.4985581"><ele>1093.0</ele><time>2026-04-24T09:00:46.983Z</time></trkpt><trkpt lat="43.5476002" lon="12.4987914"><ele>1093.0</ele><time>2026-04-24T09:00:47.984Z</time></trkpt><trkpt lat="43.5474259" lon="12.4990184"><ele>1093.0</ele><time>2026-04-24T09:00:48.984Z</time></trkpt><trkpt lat="43.5472444" lon="12.4992398"><ele>1093.0</ele><time>2026-04-24T09:00:49.983Z</time></trkpt><trkpt lat="43.5470583" lon="12.4994545"><ele>1093.0</ele><time>2026-04-24T09:00:50.983Z</time></trkpt><trkpt lat="43.5468707" lon="12.4996671"><ele>1096.5</ele><time>2026-04-24T09:00:51.984Z</time></trkpt><trkpt lat="43.5466867" lon="12.4998817"><ele>1100.0</ele><time>2026-04-24T09:00:52.983Z</time></trkpt><trkpt lat="43.5465179" lon="12.5001053"><ele>1100.0</ele><time>2026-04-24T09:00:53.984Z</time></trkpt><trkpt lat="43.5463638" lon="12.5003435"><ele>1100.0</ele><time>2026-04-24T09:00:54.984Z</time></trkpt><trkpt lat="43.54622" lon="12.5005951"><ele>1095.5</ele><time>2026-04-24T09:00:55.983Z</time></trkpt><trkpt lat="43.5460862" lon="12.5008583"><ele>1091.0</ele><time>2026-04-24T09:00:56.983Z</time></trkpt><trkpt lat="43.5459644" lon="12.5011324"><ele>1098.3333333333335</ele><time>2026-04-24T09:00:57.983Z</time></trkpt><trkpt lat="43.5458587" lon="12.5014168"><ele>1105.6666666666667</ele><time>2026-04-24T09:00:58.983Z</time></trkpt><trkpt lat="43.5457698" lon="12.5016879"><ele>1113.0</ele><time>2026-04-24T09:00:59.983Z</time></trkpt><trkpt lat="43.5456901" lon="12.5019725"><ele>1119.0</ele><time>2026-04-24T09:01:00.984Z</time></trkpt><trkpt lat="43.5456131" lon="12.5022611"><ele>1125.0</ele><time>2026-04-24T09:01:01.983Z</time></trkpt><trkpt lat="43.5455219" lon="12.5025446"><ele>1131.0</ele><time>2026-04-24T09:01:02.983Z</time></trkpt><trkpt lat="43.5454373" lon="12.5028327"><ele>1117.0</ele><time>2026-04-24T09:01:03.984Z</time></trkpt><trkpt lat="43.5453675" lon="12.5031316"><ele>1103.0</ele><time>2026-04-24T09:01:04.984Z</time></trkpt><trkpt lat="43.5453094" lon="12.5034373"><ele>1110.5</ele><time>2026-04-24T09:01:05.983Z</time></trkpt><trkpt lat="43.5452695" lon="12.5037504"><ele>1118.0</ele><time>2026-04-24T09:01:06.984Z</time></trkpt><trkpt lat="43.5452469" lon="12.5040541"><ele>1118.0</ele><time>2026-04-24T09:01:07.984Z</time></trkpt><trkpt lat="43.5452248" lon="12.5043292"><ele>1118.0</ele><time>2026-04-24T09:01:08.984Z</time></trkpt><trkpt lat="43.5451819" lon="12.5045756"><ele>1118.0</ele><time>2026-04-24T09:01:09.984Z</time></trkpt><trkpt lat="43.5450954" lon="12.5047738"><ele>1122.0</ele><time>2026-04-24T09:01:10.983Z</time></trkpt><trkpt lat="43.5449914" lon="12.5049406"><ele>1126.0</ele><time>2026-04-24T09:01:11.983Z</time></trkpt><trkpt lat="43.544911" lon="12.505103"><ele>1130.0</ele><time>2026-04-24T09:01:12.983Z</time></trkpt><trkpt lat="43.54486" lon="12.5052476"><ele>1134.0</ele><time>2026-04-24T09:01:13.984Z</time></trkpt><trkpt lat="43.5448489" lon="12.5054105"><ele>1133.6000000000001</ele><time>2026-04-24T09:01:14.983Z</time></trkpt><trkpt lat="43.5448834" lon="12.5055889"><ele>1133.2</ele><time>2026-04-24T09:01:15.983Z</time></trkpt><trkpt lat="43.5449377" lon="12.505737"><ele>1132.8000000000002</ele><time>2026-04-24T09:01:16.984Z</time></trkpt><trkpt lat="43.5450076" lon="12.505827"><ele>1132.4</ele><time>2026-04-24T09:01:17.983Z</time></trkpt><trkpt lat="43.5451029" lon="12.5058495"><ele>1132.0</ele><time>2026-04-24T09:01:18.983Z</time></trkpt><trkpt lat="43.545208" lon="12.5057957"><ele>1132.0</ele><time>2026-04-24T09:01:19.984Z</time></trkpt><trkpt lat="43.5453316" lon="12.5057044"><ele>1132.0</ele><time>2026-04-24T09:01:20.983Z</time></trkpt><trkpt lat="43.5454768" lon="12.5056729"><ele>1132.0</ele><time>2026-04-24T09:01:21.984Z</time></trkpt><trkpt lat="43.5456376" lon="12.5056632"><ele>1132.0</ele><time>2026-04-24T09:01:22.984Z</time></trkpt><trkpt lat="43.5458052" lon="12.5056186"><ele>1137.6666666666665</ele><time>2026-04-24T09:01:23.983Z</time></trkpt><trkpt lat="43.5459865" lon="12.5055985"><ele>1143.3333333333333</ele><time>2026-04-24T09:01:24.984Z</time></trkpt><trkpt lat="43.5461685" lon="12.5056285"><ele>1149.0</ele><time>2026-04-24T09:01:25.983Z</time></trkpt><trkpt lat="43.546351" lon="12.5056083"><ele>1149.0</ele><time>2026-04-24T09:01:26.983Z</time></trkpt><trkpt lat="43.5465274" lon="12.5055775"><ele>1149.0</ele><time>2026-04-24T09:01:27.983Z</time></trkpt><trkpt lat="43.5466832" lon="12.5056113"><ele>1149.0</ele><time>2026-04-24T09:01:28.984Z</time></trkpt><trkpt lat="43.5468389" lon="12.5056396"><ele>1149.0</ele><time>2026-04-24T09:01:29.983Z</time></trkpt><trkpt lat="43.5469986" lon="12.5056516"><ele>1149.0</ele><time>2026-04-24T09:01:30.983Z</time></trkpt><trkpt lat="43.5471616" lon="12.505706"><ele>1149.0</ele><time>2026-04-24T09:01:31.983Z</time></trkpt><trkpt lat="43.5473153" lon="12.5057433"><ele>1156.0</ele><time>2026-04-24T09:01:32.984Z</time></trkpt><trkpt lat="43.5474537" lon="12.5058108"><ele>1163.0</ele><time>2026-04-24T09:01:33.983Z</time></trkpt><trkpt lat="43.5475603" lon="12.5059271"><ele>1170.0</ele><time>2026-04-24T09:01:34.984Z</time></trkpt><trkpt lat="43.5476655" lon="12.5060539"><ele>1177.0</ele><time>2026-04-24T09:01:35.983Z</time></trkpt><trkpt lat="43.5478152" lon="12.5061424"><ele>1173.6666666666665</ele><time>2026-04-24T09:01:36.983Z</time></trkpt><trkpt lat="43.5479852" lon="12.5062161"><ele>1170.3333333333333</ele><time>2026-04-24T09:01:37.983Z</time></trkpt><trkpt lat="43.5481576" lon="12.5062998"><ele>1167.0</ele><time>2026-04-24T09:01:38.983Z</time></trkpt><trkpt lat="43.5483105" lon="12.5064039"><ele>1167.0</ele><time>2026-04-24T09:01:39.983Z</time></trkpt><trkpt lat="43.5484536" lon="12.5065064"><ele>1167.0</ele><time>2026-04-24T09:01:40.983Z</time></trkpt><trkpt lat="43.5486089" lon="12.5065664"><ele>1167.0</ele><time>2026-04-24T09:01:41.983Z</time></trkpt><trkpt lat="43.5487649" lon="12.5065742"><ele>1177.3333333333333</ele><time>2026-04-24T09:01:42.984Z</time></trkpt><trkpt lat="43.5489092" lon="12.5066225"><ele>1187.6666666666665</ele><time>2026-04-24T09:01:43.983Z</time></trkpt><trkpt lat="43.5490524" lon="12.5067368"><ele>1198.0</ele><time>2026-04-24T09:01:44.983Z</time></trkpt><trkpt lat="43.5492019" lon="12.506859"><ele>1198.0</ele><time>2026-04-24T09:01:45.983Z</time></trkpt><trkpt lat="43.5493632" lon="12.506983"><ele>1198.0</ele><time>2026-04-24T09:01:46.985Z</time></trkpt><trkpt lat="43.5495334" lon="12.5071137"><ele>1198.0</ele><time>2026-04-24T09:01:47.983Z</time></trkpt><trkpt lat="43.5497152" lon="12.5072414"><ele>1196.6666666666665</ele><time>2026-04-24T09:01:48.983Z</time></trkpt><trkpt lat="43.5499048" lon="12.5073674"><ele>1195.3333333333333</ele><time>2026-04-24T09:01:49.983Z</time></trkpt><trkpt lat="43.5500996" lon="12.5074872"><ele>1194.0</ele><time>2026-04-24T09:01:50.984Z</time></trkpt><trkpt lat="43.5502914" lon="12.5076246"><ele>1197.3333333333333</ele><time>2026-04-24T09:01:51.983Z</time></trkpt><trkpt lat="43.5504705" lon="12.5077917"><ele>1200.6666666666665</ele><time>2026-04-24T09:01:52.983Z</time></trkpt><trkpt lat="43.5506361" lon="12.5079753"><ele>1204.0</ele><time>2026-04-24T09:01:53.983Z</time></trkpt><trkpt lat="43.5507923" lon="12.5081667"><ele>1204.0</ele><time>2026-04-24T09:01:54.983Z</time></trkpt><trkpt lat="43.550932" lon="12.5083797"><ele>1204.0</ele><time>2026-04-24T09:01:55.983Z</time></trkpt><trkpt lat="43.5510553" lon="12.5086167"><ele>1204.0</ele><time>2026-04-24T09:01:56.983Z</time></trkpt><trkpt lat="43.5511533" lon="12.5088779"><ele>1209.3333333333333</ele><time>2026-04-24T09:01:57.983Z</time></trkpt><trkpt lat="43.5512371" lon="12.5091551"><ele>1214.6666666666667</ele><time>2026-04-24T09:01:58.984Z</time></trkpt><trkpt lat="43.5513134" lon="12.5094434"><ele>1220.0</ele><time>2026-04-24T09:01:59.983Z</time></trkpt><trkpt lat="43.5513839" lon="12.5097336"><ele>1220.0</ele><time>2026-04-24T09:02:00.983Z</time></trkpt><trkpt lat="43.5514511" lon="12.5100129"><ele>1220.0</ele><time>2026-04-24T09:02:01.983Z</time></trkpt><trkpt lat="43.551499" lon="12.5102765"><ele>1220.0</ele><time>2026-04-24T09:02:02.983Z</time></trkpt><trkpt lat="43.5515175" lon="12.5105503"><ele>1220.6666666666667</ele><time>2026-04-24T09:02:03.983Z</time></trkpt><trkpt lat="43.5514946" lon="12.5108199"><ele>1221.3333333333333</ele><time>2026-04-24T09:02:04.984Z</time></trkpt><trkpt lat="43.5514341" lon="12.5110726"><ele>1222.0</ele><time>2026-04-24T09:02:05.984Z</time></trkpt><trkpt lat="43.5513506" lon="12.5112863"><ele>1224.6</ele><time>2026-04-24T09:02:06.983Z</time></trkpt><trkpt lat="43.5512862" lon="12.511459"><ele>1227.2</ele><time>2026-04-24T09:02:07.983Z</time></trkpt><trkpt lat="43.5512476" lon="12.5115984"><ele>1229.8</ele><time>2026-04-24T09:02:08.984Z</time></trkpt><trkpt lat="43.5512441" lon="12.5117232"><ele>1232.4</ele><time>2026-04-24T09:02:09.983Z</time></trkpt><trkpt lat="43.5512728" lon="12.5118613"><ele>1235.0</ele><time>2026-04-24T09:02:10.983Z</time></trkpt><trkpt lat="43.5513135" lon="12.5120195"><ele>1237.0</ele><time>2026-04-24T09:02:11.983Z</time></trkpt><trkpt lat="43.5513214" lon="12.5121953"><ele>1239.0</ele><time>2026-04-24T09:02:12.983Z</time></trkpt><trkpt lat="43.5512843" lon="12.5123672"><ele>1241.0</ele><time>2026-04-24T09:02:13.983Z</time></trkpt><trkpt lat="43.5512036" lon="12.5125279"><ele>1243.0</ele><time>2026-04-24T09:02:14.983Z</time></trkpt><trkpt lat="43.5511066" lon="12.5126921"><ele>1241.0</ele><time>2026-04-24T09:02:15.983Z</time></trkpt><trkpt lat="43.5510058" lon="12.5128704"><ele>1239.0</ele><time>2026-04-24T09:02:16.983Z</time></trkpt><trkpt lat="43.5509026" lon="12.513039"><ele>1237.0</ele><time>2026-04-24T09:02:17.984Z</time></trkpt><trkpt lat="43.5508103" lon="12.5131874"><ele>1237.0</ele><time>2026-04-24T09:02:18.983Z</time></trkpt><trkpt lat="43.5507396" lon="12.5133339"><ele>1237.0</ele><time>2026-04-24T09:02:19.984Z</time></trkpt><trkpt lat="43.5507136" lon="12.513475"><ele>1237.0</ele><time>2026-04-24T09:02:20.983Z</time></trkpt><trkpt lat="43.5507366" lon="12.5136135"><ele>1237.0</ele><time>2026-04-24T09:02:21.983Z</time></trkpt><trkpt lat="43.5508133" lon="12.5137139"><ele>1237.0</ele><time>2026-04-24T09:02:22.984Z</time></trkpt><trkpt lat="43.5509025" lon="12.5137411"><ele>1237.0</ele><time>2026-04-24T09:02:23.983Z</time></trkpt><trkpt lat="43.550994" lon="12.5136903"><ele>1237.0</ele><time>2026-04-24T09:02:24.983Z</time></trkpt><trkpt lat="43.5510707" lon="12.5135716"><ele>1237.0</ele><time>2026-04-24T09:02:25.984Z</time></trkpt><trkpt lat="43.5511245" lon="12.5134328"><ele>1237.0</ele><time>2026-04-24T09:02:26.984Z</time></trkpt><trkpt lat="43.5511974" lon="12.5133284"><ele>1237.0</ele><time>2026-04-24T09:02:27.984Z</time></trkpt><trkpt lat="43.5513005" lon="12.5132807"><ele>1239.6</ele><time>2026-04-24T09:02:28.983Z</time></trkpt><trkpt lat="43.5514066" lon="12.5133058"><ele>1242.2</ele><time>2026-04-24T09:02:29.983Z</time></trkpt><trkpt lat="43.5514915" lon="12.5134059"><ele>1244.8</ele><time>2026-04-24T09:02:30.983Z</time></trkpt><trkpt lat="43.5515188" lon="12.5135364"><ele>1247.4</ele><time>2026-04-24T09:02:31.983Z</time></trkpt><trkpt lat="43.5514978" lon="12.5136946"><ele>1250.0</ele><time>2026-04-24T09:02:32.984Z</time></trkpt><trkpt lat="43.551452" lon="12.5138753"><ele>1253.3333333333335</ele><time>2026-04-24T09:02:33.984Z</time></trkpt><trkpt lat="43.5514011" lon="12.5140871"><ele>1256.6666666666667</ele><time>2026-04-24T09:02:34.983Z</time></trkpt><trkpt lat="43.5513419" lon="12.5143204"><ele>1260.0</ele><time>2026-04-24T09:02:35.983Z</time></trkpt><trkpt lat="43.5512752" lon="12.5145575"><ele>1259.3333333333333</ele><time>2026-04-24T09:02:36.983Z</time></trkpt><trkpt lat="43.5512054" lon="12.5147985"><ele>1258.6666666666665</ele><time>2026-04-24T09:02:37.983Z</time></trkpt><trkpt lat="43.5511255" lon="12.515036"><ele>1258.0</ele><time>2026-04-24T09:02:38.984Z</time></trkpt><trkpt lat="43.5510311" lon="12.5152642"><ele>1262.6666666666665</ele><time>2026-04-24T09:02:39.983Z</time></trkpt><trkpt lat="43.5509218" lon="12.5154693"><ele>1267.3333333333333</ele><time>2026-04-24T09:02:40.983Z</time></trkpt><trkpt lat="43.5508208" lon="12.515651"><ele>1272.0</ele><time>2026-04-24T09:02:41.984Z</time></trkpt><trkpt lat="43.5507329" lon="12.5158181"><ele>1272.0</ele><time>2026-04-24T09:02:42.983Z</time></trkpt><trkpt lat="43.5506552" lon="12.5159947"><ele>1272.0</ele><time>2026-04-24T09:02:43.983Z</time></trkpt><trkpt lat="43.5505948" lon="12.5162016"><ele>1272.0</ele><time>2026-04-24T09:02:44.983Z</time></trkpt><trkpt lat="43.5505426" lon="12.5164277"><ele>1274.6666666666667</ele><time>2026-04-24T09:02:45.983Z</time></trkpt><trkpt lat="43.5504936" lon="12.5166684"><ele>1277.3333333333335</ele><time>2026-04-24T09:02:46.983Z</time></trkpt><trkpt lat="43.5504391" lon="12.5169138"><ele>1280.0</ele><time>2026-04-24T09:02:47.984Z</time></trkpt><trkpt lat="43.5503843" lon="12.5171725"><ele>1279.6666666666667</ele><time>2026-04-24T09:02:48.983Z</time></trkpt><trkpt lat="43.5503349" lon="12.517432"><ele>1279.3333333333333</ele><time>2026-04-24T09:02:49.983Z</time></trkpt><trkpt lat="43.5502927" lon="12.5176879"><ele>1279.0</ele><time>2026-04-24T09:02:50.983Z</time></trkpt><trkpt lat="43.5502535" lon="12.5179227"><ele>1279.0</ele><time>2026-04-24T09:02:51.983Z</time></trkpt><trkpt lat="43.5502203" lon="12.5181596"><ele>1279.0</ele><time>2026-04-24T09:02:52.984Z</time></trkpt><trkpt lat="43.5501958" lon="12.5183986"><ele>1279.0</ele><time>2026-04-24T09:02:53.984Z</time></trkpt><trkpt lat="43.5501674" lon="12.5186411"><ele>1281.3333333333333</ele><time>2026-04-24T09:02:54.983Z</time></trkpt><trkpt lat="43.5501367" lon="12.5188833"><ele>1283.6666666666667</ele><time>2026-04-24T09:02:55.983Z</time></trkpt><trkpt lat="43.5501066" lon="12.5191048"><ele>1286.0</ele><time>2026-04-24T09:02:56.983Z</time></trkpt><trkpt lat="43.5500809" lon="12.5193049"><ele>1286.0</ele><time>2026-04-24T09:02:57.983Z</time></trkpt><trkpt lat="43.5500718" lon="12.5194885"><ele>1286.0</ele><time>2026-04-24T09:02:58.983Z</time></trkpt><trkpt lat="43.5500821" lon="12.5196552"><ele>1286.0</ele><time>2026-04-24T09:02:59.983Z</time></trkpt><trkpt lat="43.5501273" lon="12.5198113"><ele>1286.0</ele><time>2026-04-24T09:03:00.983Z</time></trkpt><trkpt lat="43.5502129" lon="12.5199332"><ele>1286.25</ele><time>2026-04-24T09:03:01.983Z</time></trkpt><trkpt lat="43.5503271" lon="12.5200089"><ele>1286.5</ele><time>2026-04-24T09:03:02.983Z</time></trkpt><trkpt lat="43.5504667" lon="12.5200287"><ele>1286.75</ele><time>2026-04-24T09:03:03.983Z</time></trkpt><trkpt lat="43.5506095" lon="12.5199829"><ele>1287.0</ele><time>2026-04-24T09:03:04.983Z</time></trkpt><trkpt lat="43.5507335" lon="12.5198634"><ele>1291.0</ele><time>2026-04-24T09:03:05.983Z</time></trkpt><trkpt lat="43.5508446" lon="12.5196995"><ele>1295.0</ele><time>2026-04-24T09:03:06.983Z</time></trkpt><trkpt lat="43.5509472" lon="12.5195037"><ele>1299.0</ele><time>2026-04-24T09:03:07.984Z</time></trkpt><trkpt lat="43.5510578" lon="12.5192896"><ele>1299.0</ele><time>2026-04-24T09:03:08.983Z</time></trkpt><trkpt lat="43.5511766" lon="12.5190571"><ele>1299.0</ele><time>2026-04-24T09:03:09.983Z</time></trkpt><trkpt lat="43.5512983" lon="12.5188066"><ele>1299.0</ele><time>2026-04-24T09:03:10.984Z</time></trkpt><trkpt lat="43.5514243" lon="12.5185474"><ele>1302.3333333333333</ele><time>2026-04-24T09:03:11.983Z</time></trkpt><trkpt lat="43.5515504" lon="12.5182913"><ele>1305.6666666666665</ele><time>2026-04-24T09:03:12.983Z</time></trkpt><trkpt lat="43.5516722" lon="12.5180359"><ele>1309.0</ele><time>2026-04-24T09:03:13.983Z</time></trkpt><trkpt lat="43.5517855" lon="12.5177995"><ele>1309.0</ele><time>2026-04-24T09:03:14.983Z</time></trkpt><trkpt lat="43.5519032" lon="12.5175671"><ele>1309.0</ele><time>2026-04-24T09:03:15.983Z</time></trkpt><trkpt lat="43.5520389" lon="12.5173448"><ele>1309.0</ele><time>2026-04-24T09:03:16.983Z</time></trkpt><trkpt lat="43.552194" lon="12.5171424"><ele>1316.0</ele><time>2026-04-24T09:03:17.984Z</time></trkpt><trkpt lat="43.5523655" lon="12.5169607"><ele>1323.0</ele><time>2026-04-24T09:03:18.983Z</time></trkpt><trkpt lat="43.5525402" lon="12.5167778"><ele>1330.0</ele><time>2026-04-24T09:03:19.983Z</time></trkpt><trkpt lat="43.5527152" lon="12.5165855"><ele>1338.0</ele><time>2026-04-24T09:03:20.983Z</time></trkpt><trkpt lat="43.5528879" lon="12.5163781"><ele>1346.0</ele><time>2026-04-24T09:03:21.983Z</time></trkpt><trkpt lat="43.5530567" lon="12.5161558"><ele>1346.0</ele><time>2026-04-24T09:03:22.984Z</time></trkpt><trkpt lat="43.5532247" lon="12.5159246"><ele>1346.0</ele><time>2026-04-24T09:03:23.984Z</time></trkpt><trkpt lat="43.5533966" lon="12.5156979"><ele>1346.0</ele><time>2026-04-24T09:03:24.983Z</time></trkpt><trkpt lat="43.5535773" lon="12.5154895"><ele>1346.0</ele><time>2026-04-24T09:03:25.983Z</time></trkpt><trkpt lat="43.5537605" lon="12.5152884"><ele>1353.5</ele><time>2026-04-24T09:03:26.984Z</time></trkpt><trkpt lat="43.5539377" lon="12.5150792"><ele>1361.0</ele><time>2026-04-24T09:03:27.983Z</time></trkpt><trkpt lat="43.5541005" lon="12.5148523"><ele>1361.0</ele><time>2026-04-24T09:03:28.983Z</time></trkpt><trkpt lat="43.5542315" lon="12.5146218"><ele>1361.0</ele><time>2026-04-24T09:03:29.983Z</time></trkpt><trkpt lat="43.5543412" lon="12.5144148"><ele>1361.0</ele><time>2026-04-24T09:03:30.984Z</time></trkpt><trkpt lat="43.5544462" lon="12.5142372"><ele>1365.5</ele><time>2026-04-24T09:03:31.984Z</time></trkpt><trkpt lat="43.5545511" lon="12.5141115"><ele>1370.0</ele><time>2026-04-24T09:03:32.983Z</time></trkpt><trkpt lat="43.554654" lon="12.5140522"><ele>1374.5</ele><time>2026-04-24T09:03:33.983Z</time></trkpt><trkpt lat="43.5547626" lon="12.5140563"><ele>1379.0</ele><time>2026-04-24T09:03:34.984Z</time></trkpt><trkpt lat="43.5548637" lon="12.5141156"><ele>1379.0</ele><time>2026-04-24T09:03:35.983Z</time></trkpt><trkpt lat="43.5549547" lon="12.5142184"><ele>1379.0</ele><time>2026-04-24T09:03:36.984Z</time></trkpt><trkpt lat="43.5550251" lon="12.5143696"><ele>1379.0</ele><time>2026-04-24T09:03:37.984Z</time></trkpt><trkpt lat="43.5551012" lon="12.5145341"><ele>1379.0</ele><time>2026-04-24T09:03:38.983Z</time></trkpt><trkpt lat="43.5550902" lon="12.514789"><ele>1380.0</ele><time>2026-04-24T09:03:39.983Z</time></trkpt><trkpt lat="43.5551253" lon="12.5150322"><ele>1381.0</ele><time>2026-04-24T09:03:40.983Z</time></trkpt><trkpt lat="43.5551637" lon="12.5152714"><ele>1382.0</ele><time>2026-04-24T09:03:41.983Z</time></trkpt><trkpt lat="43.5551936" lon="12.5154777"><ele>1383.3999999999999</ele><time>2026-04-24T09:03:42.984Z</time></trkpt><trkpt lat="43.5551945" lon="12.5156622"><ele>1384.8</ele><time>2026-04-24T09:03:43.983Z</time></trkpt><trkpt lat="43.5551656" lon="12.5157976"><ele>1386.2</ele><time>2026-04-24T09:03:44.983Z</time></trkpt><trkpt lat="43.555103" lon="12.5158818"><ele>1387.6</ele><time>2026-04-24T09:03:45.984Z</time></trkpt><trkpt lat="43.5550366" lon="12.5159155"><ele>1389.0</ele><time>2026-04-24T09:03:46.983Z</time></trkpt><trkpt lat="43.5549605" lon="12.5158878"><ele>1389.0</ele><time>2026-04-24T09:03:47.983Z</time></trkpt><trkpt lat="43.5548922" lon="12.515787"><ele>1389.0</ele><time>2026-04-24T09:03:48.984Z</time></trkpt><trkpt lat="43.5548354" lon="12.5156558"><ele>1389.0</ele><time>2026-04-24T09:03:49.983Z</time></trkpt><trkpt lat="43.5547657" lon="12.515566"><ele>1389.0</ele><time>2026-04-24T09:03:50.983Z</time></trkpt><trkpt lat="43.5546819" lon="12.5155348"><ele>1389.0</ele><time>2026-04-24T09:03:51.983Z</time></trkpt><trkpt lat="43.5545936" lon="12.5155636"><ele>1389.0</ele><time>2026-04-24T09:03:52.983Z</time></trkpt><trkpt lat="43.5545267" lon="12.5156522"><ele>1389.0</ele><time>2026-04-24T09:03:53.983Z</time></trkpt><trkpt lat="43.5545044" lon="12.5157726"><ele>1389.0</ele><time>2026-04-24T09:03:54.983Z</time></trkpt><trkpt lat="43.5545277" lon="12.5159193"><ele>1389.0</ele><time>2026-04-24T09:03:55.983Z</time></trkpt><trkpt lat="43.554584" lon="12.5160755"><ele>1389.0</ele><time>2026-04-24T09:03:56.984Z</time></trkpt><trkpt lat="43.5546524" lon="12.5162527"><ele>1392.0</ele><time>2026-04-24T09:03:57.984Z</time></trkpt><trkpt lat="43.5547243" lon="12.5164529"><ele>1395.0</ele><time>2026-04-24T09:03:58.983Z</time></trkpt><trkpt lat="43.5547991" lon="12.5166612"><ele>1398.0</ele><time>2026-04-24T09:03:59.983Z</time></trkpt><trkpt lat="43.554877" lon="12.5168823"><ele>1398.3333333333333</ele><time>2026-04-24T09:04:00.984Z</time></trkpt><trkpt lat="43.5549571" lon="12.5171156"><ele>1398.6666666666665</ele><time>2026-04-24T09:04:01.983Z</time></trkpt><trkpt lat="43.5550356" lon="12.5173432"><ele>1399.0</ele><time>2026-04-24T09:04:02.984Z</time></trkpt><trkpt lat="43.5551037" lon="12.5175452"><ele>1399.0</ele><time>2026-04-24T09:04:03.983Z</time></trkpt><trkpt lat="43.5551702" lon="12.5177311"><ele>1399.0</ele><time>2026-04-24T09:04:04.984Z</time></trkpt><trkpt lat="43.5552406" lon="12.5178908"><ele>1399.0</ele><time>2026-04-24T09:04:05.983Z</time></trkpt><trkpt lat="43.5553243" lon="12.5180054"><ele>1399.0</ele><time>2026-04-24T09:04:06.983Z</time></trkpt><trkpt lat="43.5554155" lon="12.5180547"><ele>1403.0</ele><time>2026-04-24T09:04:07.983Z</time></trkpt><trkpt lat="43.5555036" lon="12.5180488"><ele>1407.0</ele><time>2026-04-24T09:04:08.983Z</time></trkpt><trkpt lat="43.555563" lon="12.5179815"><ele>1411.0</ele><time>2026-04-24T09:04:09.984Z</time></trkpt><trkpt lat="43.5555897" lon="12.5178576"><ele>1415.0</ele><time>2026-04-24T09:04:10.983Z</time></trkpt><trkpt lat="43.5555852" lon="12.5177032"><ele>1419.0</ele><time>2026-04-24T09:04:11.983Z</time></trkpt><trkpt lat="43.5555946" lon="12.5175433"><ele>1419.2</ele><time>2026-04-24T09:04:12.983Z</time></trkpt><trkpt lat="43.5556519" lon="12.5174245"><ele>1419.4</ele><time>2026-04-24T09:04:13.984Z</time></trkpt><trkpt lat="43.5557266" lon="12.517377"><ele>1419.6</ele><time>2026-04-24T09:04:14.984Z</time></trkpt><trkpt lat="43.5558175" lon="12.5174149"><ele>1419.8</ele><time>2026-04-24T09:04:15.983Z</time></trkpt><trkpt lat="43.5558856" lon="12.5175396"><ele>1420.0</ele><time>2026-04-24T09:04:16.984Z</time></trkpt><trkpt lat="43.5558973" lon="12.5177161"><ele>1419.6666666666665</ele><time>2026-04-24T09:04:17.983Z</time></trkpt><trkpt lat="43.555877" lon="12.5179205"><ele>1419.3333333333333</ele><time>2026-04-24T09:04:18.983Z</time></trkpt><trkpt lat="43.5558691" lon="12.5181486"><ele>1419.0</ele><time>2026-04-24T09:04:19.983Z</time></trkpt><trkpt lat="43.5558965" lon="12.5183968"><ele>1419.0</ele><time>2026-04-24T09:04:20.983Z</time></trkpt><trkpt lat="43.555946" lon="12.5186604"><ele>1419.0</ele><time>2026-04-24T09:04:21.983Z</time></trkpt><trkpt lat="43.5559848" lon="12.5189306"><ele>1419.0</ele><time>2026-04-24T09:04:22.984Z</time></trkpt><trkpt lat="43.5559874" lon="12.5191769"><ele>1419.25</ele><time>2026-04-24T09:04:23.984Z</time></trkpt><trkpt lat="43.5559571" lon="12.5193975"><ele>1419.5</ele><time>2026-04-24T09:04:24.983Z</time></trkpt><trkpt lat="43.5559167" lon="12.5195856"><ele>1419.75</ele><time>2026-04-24T09:04:25.985Z</time></trkpt><trkpt lat="43.5559177" lon="12.5197433"><ele>1420.0</ele><time>2026-04-24T09:04:26.983Z</time></trkpt><trkpt lat="43.5559644" lon="12.519872"><ele>1420.8</ele><time>2026-04-24T09:04:27.984Z</time></trkpt><trkpt lat="43.5560488" lon="12.519934"><ele>1421.6</ele><time>2026-04-24T09:04:28.983Z</time></trkpt><trkpt lat="43.556137" lon="12.5199198"><ele>1422.4</ele><time>2026-04-24T09:04:29.983Z</time></trkpt><trkpt lat="43.556212" lon="12.5198211"><ele>1423.2</ele><time>2026-04-24T09:04:30.984Z</time></trkpt><trkpt lat="43.5562607" lon="12.5196664"><ele>1424.0</ele><time>2026-04-24T09:04:31.983Z</time></trkpt><trkpt lat="43.5562951" lon="12.5194781"><ele>1436.6666666666667</ele><time>2026-04-24T09:04:32.984Z</time></trkpt><trkpt lat="43.5563305" lon="12.5192711"><ele>1449.3333333333333</ele><time>2026-04-24T09:04:33.983Z</time></trkpt><trkpt lat="43.5563611" lon="12.5190548"><ele>1462.0</ele><time>2026-04-24T09:04:34.985Z</time></trkpt><trkpt lat="43.5563804" lon="12.5188279"><ele>1462.0</ele><time>2026-04-24T09:04:35.983Z</time></trkpt><trkpt lat="43.5563884" lon="12.5185967"><ele>1462.0</ele><time>2026-04-24T09:04:36.983Z</time></trkpt><trkpt lat="43.5564009" lon="12.5183702"><ele>1462.0</ele><time>2026-04-24T09:04:37.984Z</time></trkpt><trkpt lat="43.5564337" lon="12.5181436"><ele>1462.0</ele><time>2026-04-24T09:04:38.983Z</time></trkpt><trkpt lat="43.5564894" lon="12.5179207"><ele>1462.0</ele><time>2026-04-24T09:04:39.983Z</time></trkpt><trkpt lat="43.5565649" lon="12.5176994"><ele>1462.0</ele><time>2026-04-24T09:04:40.984Z</time></trkpt><trkpt lat="43.5566189" lon="12.5174559"><ele>1460.6666666666665</ele><time>2026-04-24T09:04:41.982Z</time></trkpt><trkpt lat="43.556661" lon="12.5172009"><ele>1459.3333333333333</ele><time>2026-04-24T09:04:42.983Z</time></trkpt><trkpt lat="43.5566978" lon="12.5169371"><ele>1458.0</ele><time>2026-04-24T09:04:43.982Z</time></trkpt><trkpt lat="43.5567362" lon="12.5166676"><ele>1455.6666666666667</ele><time>2026-04-24T09:04:44.982Z</time></trkpt><trkpt lat="43.5567854" lon="12.5164024"><ele>1453.3333333333335</ele><time>2026-04-24T09:04:45.982Z</time></trkpt><trkpt lat="43.5568315" lon="12.516141"><ele>1451.0</ele><time>2026-04-24T09:04:46.982Z</time></trkpt><trkpt lat="43.5568595" lon="12.5158789"><ele>1451.0</ele><time>2026-04-24T09:04:47.982Z</time></trkpt><trkpt lat="43.556873" lon="12.5156232"><ele>1451.0</ele><time>2026-04-24T09:04:48.982Z</time></trkpt><trkpt lat="43.5568728" lon="12.515374"><ele>1451.0</ele><time>2026-04-24T09:04:49.983Z</time></trkpt><trkpt lat="43.5568618" lon="12.5151439"><ele>1451.0</ele><time>2026-04-24T09:04:50.983Z</time></trkpt><trkpt lat="43.5568518" lon="12.5149369"><ele>1451.0</ele><time>2026-04-24T09:04:51.983Z</time></trkpt><trkpt lat="43.556842" lon="12.5147499"><ele>1451.0</ele><time>2026-04-24T09:04:52.982Z</time></trkpt><trkpt lat="43.5568562" lon="12.5145896"><ele>1451.0</ele><time>2026-04-24T09:04:53.982Z</time></trkpt><trkpt lat="43.556905" lon="12.5144632"><ele>1451.5</ele><time>2026-04-24T09:04:54.982Z</time></trkpt><trkpt lat="43.5569825" lon="12.5143905"><ele>1452.0</ele><time>2026-04-24T09:04:55.982Z</time></trkpt><trkpt lat="43.5570689" lon="12.5143861"><ele>1452.5</ele><time>2026-04-24T09:04:56.982Z</time></trkpt><trkpt lat="43.5571527" lon="12.5144497"><ele>1453.0</ele><time>2026-04-24T09:04:57.982Z</time></trkpt><trkpt lat="43.5571916" lon="12.5145525"><ele>1453.5</ele><time>2026-04-24T09:04:58.983Z</time></trkpt><trkpt lat="43.5571928" lon="12.5146571"><ele>1454.0</ele><time>2026-04-24T09:04:59.982Z</time></trkpt><trkpt lat="43.5571425" lon="12.5147852"><ele>1454.0</ele><time>2026-04-24T09:05:01.982Z</time></trkpt><trkpt lat="43.5570818" lon="12.5148168"><ele>1454.0</ele><time>2026-04-24T09:05:03.982Z</time></trkpt><trkpt lat="43.5570119" lon="12.5147968"><ele>1454.0</ele><time>2026-04-24T09:05:06.983Z</time></trkpt><trkpt lat="43.5569728" lon="12.5147105"><ele>1454.0</ele><time>2026-04-24T09:05:08.983Z</time></trkpt><trkpt lat="43.5569809" lon="12.5145872"><ele>1454.0</ele><time>2026-04-24T09:05:10.983Z</time></trkpt><trkpt lat="43.5570413" lon="12.5145382"><ele>1454.0</ele><time>2026-04-24T09:05:12.982Z</time></trkpt><trkpt lat="43.5570843" lon="12.5146405"><ele>1454.0</ele><time>2026-04-24T09:05:15.982Z</time></trkpt><trkpt lat="43.5570738" lon="12.5147488"><ele>1454.0</ele><time>2026-04-24T09:05:19.982Z</time></trkpt><trkpt lat="43.5570766" lon="12.5148793"><ele>1454.0</ele><time>2026-04-24T09:05:22.982Z</time></trkpt><trkpt lat="43.5571153" lon="12.5149683"><ele>1454.0</ele><time>2026-04-24T09:05:25.982Z</time></trkpt><trkpt lat="43.5571889" lon="12.5149602"><ele>1454.0</ele><time>2026-04-24T09:30:59.978Z</time></trkpt><trkpt lat="43.5572052" lon="12.5148279"><ele>1454.0</ele><time>2026-04-24T09:31:01.977Z</time></trkpt><trkpt lat="43.5572139" lon="12.5147192"><ele>1454.0</ele><time>2026-04-24T09:31:02.977Z</time></trkpt><trkpt lat="43.5572204" lon="12.5146095"><ele>1454.0</ele><time>2026-04-24T09:31:03.977Z</time></trkpt><trkpt lat="43.5572053" lon="12.514504"><ele>1454.0</ele><time>2026-04-24T09:31:04.978Z</time></trkpt><trkpt lat="43.5571535" lon="12.5144156"><ele>1454.0</ele><time>2026-04-24T09:31:05.977Z</time></trkpt><trkpt lat="43.5570817" lon="12.5143628"><ele>1454.0</ele><time>2026-04-24T09:31:06.977Z</time></trkpt><trkpt lat="43.5569967" lon="12.5143612"><ele>1454.0</ele><time>2026-04-24T09:31:07.978Z</time></trkpt><trkpt lat="43.5569108" lon="12.5144121"><ele>1454.25</ele><time>2026-04-24T09:31:08.977Z</time></trkpt><trkpt lat="43.5568569" lon="12.5145161"><ele>1454.5</ele><time>2026-04-24T09:31:09.977Z</time></trkpt><trkpt lat="43.5568419" lon="12.5146671"><ele>1454.75</ele><time>2026-04-24T09:31:10.977Z</time></trkpt><trkpt lat="43.5568486" lon="12.5148595"><ele>1455.0</ele><time>2026-04-24T09:31:11.977Z</time></trkpt><trkpt lat="43.5568605" lon="12.5150811"><ele>1453.6666666666667</ele><time>2026-04-24T09:31:12.978Z</time></trkpt><trkpt lat="43.5568692" lon="12.5153201"><ele>1452.3333333333335</ele><time>2026-04-24T09:31:13.978Z</time></trkpt><trkpt lat="43.5568737" lon="12.5155652"><ele>1451.0</ele><time>2026-04-24T09:31:14.977Z</time></trkpt><trkpt lat="43.5568675" lon="12.5158134"><ele>1451.0</ele><time>2026-04-24T09:31:15.977Z</time></trkpt><trkpt lat="43.5568353" lon="12.5160586"><ele>1451.0</ele><time>2026-04-24T09:31:16.978Z</time></trkpt><trkpt lat="43.5567892" lon="12.5163048"><ele>1451.0</ele><time>2026-04-24T09:31:17.977Z</time></trkpt><trkpt lat="43.5567455" lon="12.5165538"><ele>1451.0</ele><time>2026-04-24T09:31:18.976Z</time></trkpt><trkpt lat="43.5567095" lon="12.5168019"><ele>1451.0</ele><time>2026-04-24T09:31:19.976Z</time></trkpt><trkpt lat="43.5566789" lon="12.5170459"><ele>1451.0</ele><time>2026-04-24T09:31:20.976Z</time></trkpt><trkpt lat="43.5566424" lon="12.5172854"><ele>1453.3333333333335</ele><time>2026-04-24T09:31:21.976Z</time></trkpt><trkpt lat="43.5565933" lon="12.5175112"><ele>1455.6666666666667</ele><time>2026-04-24T09:31:22.977Z</time></trkpt><trkpt lat="43.5565275" lon="12.5177237"><ele>1458.0</ele><time>2026-04-24T09:31:23.976Z</time></trkpt><trkpt lat="43.5564553" lon="12.5179278"><ele>1459.3333333333333</ele><time>2026-04-24T09:31:24.976Z</time></trkpt><trkpt lat="43.5564165" lon="12.5181441"><ele>1460.6666666666665</ele><time>2026-04-24T09:31:25.976Z</time></trkpt><trkpt lat="43.5564005" lon="12.5183736"><ele>1462.0</ele><time>2026-04-24T09:31:26.976Z</time></trkpt><trkpt lat="43.5563917" lon="12.5186112"><ele>1462.0</ele><time>2026-04-24T09:31:27.977Z</time></trkpt><trkpt lat="43.5563714" lon="12.5188452"><ele>1462.0</ele><time>2026-04-24T09:31:28.976Z</time></trkpt><trkpt lat="43.5563441" lon="12.5190728"><ele>1462.0</ele><time>2026-04-24T09:31:29.976Z</time></trkpt><trkpt lat="43.5563185" lon="12.5192927"><ele>1462.0</ele><time>2026-04-24T09:31:30.976Z</time></trkpt><trkpt lat="43.5562908" lon="12.5194891"><ele>1462.0</ele><time>2026-04-24T09:31:31.978Z</time></trkpt><trkpt lat="43.556262" lon="12.5196603"><ele>1462.0</ele><time>2026-04-24T09:31:32.977Z</time></trkpt><trkpt lat="43.5562244" lon="12.5198043"><ele>1462.0</ele><time>2026-04-24T09:31:33.977Z</time></trkpt><trkpt lat="43.5561499" lon="12.5199002"><ele>1454.3999999999999</ele><time>2026-04-24T09:31:34.976Z</time></trkpt><trkpt lat="43.5560616" lon="12.51993"><ele>1446.8</ele><time>2026-04-24T09:31:35.976Z</time></trkpt><trkpt lat="43.5559796" lon="12.5198898"><ele>1439.2</ele><time>2026-04-24T09:31:36.976Z</time></trkpt><trkpt lat="43.5559331" lon="12.5197844"><ele>1431.6</ele><time>2026-04-24T09:31:37.976Z</time></trkpt><trkpt lat="43.5559402" lon="12.5196417"><ele>1424.0</ele><time>2026-04-24T09:31:38.976Z</time></trkpt><trkpt lat="43.5559752" lon="12.5194872"><ele>1422.6666666666667</ele><time>2026-04-24T09:31:39.976Z</time></trkpt><trkpt lat="43.5559943" lon="12.5192954"><ele>1421.3333333333333</ele><time>2026-04-24T09:31:40.976Z</time></trkpt><trkpt lat="43.5559984" lon="12.5190753"><ele>1420.0</ele><time>2026-04-24T09:31:41.976Z</time></trkpt><trkpt lat="43.5559735" lon="12.5188469"><ele>1419.75</ele><time>2026-04-24T09:31:42.976Z</time></trkpt><trkpt lat="43.5559388" lon="12.5186364"><ele>1419.5</ele><time>2026-04-24T09:31:43.977Z</time></trkpt><trkpt lat="43.5559098" lon="12.5184445"><ele>1419.25</ele><time>2026-04-24T09:31:44.976Z</time></trkpt><trkpt lat="43.5558921" lon="12.5182654"><ele>1419.0</ele><time>2026-04-24T09:31:45.976Z</time></trkpt><trkpt lat="43.5558906" lon="12.5181072"><ele>1419.0</ele><time>2026-04-24T09:31:46.976Z</time></trkpt><trkpt lat="43.5558974" lon="12.5179666"><ele>1419.0</ele><time>2026-04-24T09:31:47.976Z</time></trkpt><trkpt lat="43.5559057" lon="12.5178315"><ele>1419.0</ele><time>2026-04-24T09:31:48.976Z</time></trkpt><trkpt lat="43.5559132" lon="12.5177072"><ele>1419.0</ele><time>2026-04-24T09:31:49.976Z</time></trkpt><trkpt lat="43.555902" lon="12.5175849"><ele>1419.0</ele><time>2026-04-24T09:31:50.976Z</time></trkpt><trkpt lat="43.5558597" lon="12.5174696"><ele>1419.1666666666667</ele><time>2026-04-24T09:31:51.976Z</time></trkpt><trkpt lat="43.5557927" lon="12.5173974"><ele>1419.3333333333333</ele><time>2026-04-24T09:31:52.977Z</time></trkpt><trkpt lat="43.5557077" lon="12.5173856"><ele>1419.5</ele><time>2026-04-24T09:31:53.976Z</time></trkpt><trkpt lat="43.5556305" lon="12.5174414"><ele>1419.6666666666665</ele><time>2026-04-24T09:31:54.978Z</time></trkpt><trkpt lat="43.5555875" lon="12.517552"><ele>1419.8333333333333</ele><time>2026-04-24T09:31:55.976Z</time></trkpt><trkpt lat="43.5555859" lon="12.5176755"><ele>1420.0</ele><time>2026-04-24T09:31:56.976Z</time></trkpt><trkpt lat="43.5555921" lon="12.5178022"><ele>1419.8333333333333</ele><time>2026-04-24T09:31:57.977Z</time></trkpt><trkpt lat="43.5555826" lon="12.517924"><ele>1419.6666666666665</ele><time>2026-04-24T09:31:58.976Z</time></trkpt><trkpt lat="43.5555445" lon="12.5180183"><ele>1419.5</ele><time>2026-04-24T09:31:59.976Z</time></trkpt><trkpt lat="43.555473" lon="12.5180646"><ele>1419.3333333333333</ele><time>2026-04-24T09:32:00.976Z</time></trkpt><trkpt lat="43.5553803" lon="12.51805"><ele>1419.1666666666667</ele><time>2026-04-24T09:32:01.976Z</time></trkpt><trkpt lat="43.5552974" lon="12.5179665"><ele>1419.0</ele><time>2026-04-24T09:32:02.977Z</time></trkpt><trkpt lat="43.5552355" lon="12.5178292"><ele>1414.0</ele><time>2026-04-24T09:32:03.977Z</time></trkpt><trkpt lat="43.5551768" lon="12.517666"><ele>1409.0</ele><time>2026-04-24T09:32:04.977Z</time></trkpt><trkpt lat="43.5551106" lon="12.5174823"><ele>1404.0</ele><time>2026-04-24T09:32:05.977Z</time></trkpt><trkpt lat="43.5550439" lon="12.5172887"><ele>1399.0</ele><time>2026-04-24T09:32:06.977Z</time></trkpt><trkpt lat="43.5549759" lon="12.5170865"><ele>1398.6666666666665</ele><time>2026-04-24T09:32:07.976Z</time></trkpt><trkpt lat="43.5549104" lon="12.5168798"><ele>1398.3333333333333</ele><time>2026-04-24T09:32:08.977Z</time></trkpt><trkpt lat="43.5548444" lon="12.5166813"><ele>1398.0</ele><time>2026-04-24T09:32:09.977Z</time></trkpt><trkpt lat="43.5547735" lon="12.5164894"><ele>1398.0</ele><time>2026-04-24T09:32:10.976Z</time></trkpt><trkpt lat="43.5547002" lon="12.5163062"><ele>1398.0</ele><time>2026-04-24T09:32:11.976Z</time></trkpt><trkpt lat="43.5546283" lon="12.5161318"><ele>1398.0</ele><time>2026-04-24T09:32:12.976Z</time></trkpt><trkpt lat="43.554565" lon="12.5159658"><ele>1398.0</ele><time>2026-04-24T09:32:13.976Z</time></trkpt><trkpt lat="43.5545354" lon="12.5158184"><ele>1396.2</ele><time>2026-04-24T09:32:14.976Z</time></trkpt><trkpt lat="43.5545461" lon="12.5156828"><ele>1394.4</ele><time>2026-04-24T09:32:15.976Z</time></trkpt><trkpt lat="43.5546008" lon="12.5155917"><ele>1392.6000000000001</ele><time>2026-04-24T09:32:16.977Z</time></trkpt><trkpt lat="43.5546785" lon="12.5155679"><ele>1390.8000000000002</ele><time>2026-04-24T09:32:17.976Z</time></trkpt><trkpt lat="43.5547602" lon="12.5156073"><ele>1389.0</ele><time>2026-04-24T09:32:18.976Z</time></trkpt><trkpt lat="43.5548346" lon="12.5157093"><ele>1389.0</ele><time>2026-04-24T09:32:19.977Z</time></trkpt><trkpt lat="43.5548852" lon="12.5158227"><ele>1389.0</ele><time>2026-04-24T09:32:20.976Z</time></trkpt><trkpt lat="43.5549588" lon="12.515903"><ele>1389.0</ele><time>2026-04-24T09:32:21.977Z</time></trkpt><trkpt lat="43.5550462" lon="12.515928"><ele>1389.0</ele><time>2026-04-24T09:32:22.976Z</time></trkpt><trkpt lat="43.5551255" lon="12.5158976"><ele>1389.0</ele><time>2026-04-24T09:32:23.976Z</time></trkpt><trkpt lat="43.5551853" lon="12.5158218"><ele>1389.0</ele><time>2026-04-24T09:32:24.976Z</time></trkpt><trkpt lat="43.5552076" lon="12.5156998"><ele>1389.0</ele><time>2026-04-24T09:32:25.976Z</time></trkpt><trkpt lat="43.5552034" lon="12.5155415"><ele>1389.0</ele><time>2026-04-24T09:32:26.976Z</time></trkpt><trkpt lat="43.5551837" lon="12.5153586"><ele>1389.0</ele><time>2026-04-24T09:32:27.976Z</time></trkpt><trkpt lat="43.5551601" lon="12.5151545"><ele>1389.0</ele><time>2026-04-24T09:32:28.976Z</time></trkpt><trkpt lat="43.5551351" lon="12.5149404"><ele>1387.25</ele><time>2026-04-24T09:32:29.976Z</time></trkpt><trkpt lat="43.5551094" lon="12.5147327"><ele>1385.5</ele><time>2026-04-24T09:32:30.976Z</time></trkpt><trkpt lat="43.5550836" lon="12.51454"><ele>1383.75</ele><time>2026-04-24T09:32:31.977Z</time></trkpt><trkpt lat="43.5550375" lon="12.5143772"><ele>1382.0</ele><time>2026-04-24T09:32:32.977Z</time></trkpt><trkpt lat="43.5549762" lon="12.5142361"><ele>1381.3999999999999</ele><time>2026-04-24T09:32:33.976Z</time></trkpt><trkpt lat="43.5549051" lon="12.5141234"><ele>1380.8</ele><time>2026-04-24T09:32:34.976Z</time></trkpt><trkpt lat="43.5548195" lon="12.5140459"><ele>1380.2</ele><time>2026-04-24T09:32:35.977Z</time></trkpt><trkpt lat="43.554731" lon="12.5140109"><ele>1379.6</ele><time>2026-04-24T09:32:36.976Z</time></trkpt><trkpt lat="43.5546416" lon="12.5140254"><ele>1379.0</ele><time>2026-04-24T09:32:37.976Z</time></trkpt><trkpt lat="43.5545503" lon="12.5140927"><ele>1374.5</ele><time>2026-04-24T09:32:38.976Z</time></trkpt><trkpt lat="43.5544649" lon="12.5141975"><ele>1370.0</ele><time>2026-04-24T09:32:39.976Z</time></trkpt><trkpt lat="43.5543869" lon="12.5143351"><ele>1365.5</ele><time>2026-04-24T09:32:40.976Z</time></trkpt><trkpt lat="43.5543106" lon="12.5144869"><ele>1361.0</ele><time>2026-04-24T09:32:41.976Z</time></trkpt><trkpt lat="43.5542266" lon="12.5146491"><ele>1361.0</ele><time>2026-04-24T09:32:42.976Z</time></trkpt><trkpt lat="43.5541307" lon="12.5148115"><ele>1361.0</ele><time>2026-04-24T09:32:43.976Z</time></trkpt><trkpt lat="43.5540187" lon="12.5149659"><ele>1361.0</ele><time>2026-04-24T09:32:44.976Z</time></trkpt><trkpt lat="43.5538934" lon="12.5151123"><ele>1361.0</ele><time>2026-04-24T09:32:45.976Z</time></trkpt><trkpt lat="43.5537594" lon="12.5152587"><ele>1361.0</ele><time>2026-04-24T09:32:46.977Z</time></trkpt><trkpt lat="43.5536269" lon="12.515413"><ele>1361.0</ele><time>2026-04-24T09:32:47.976Z</time></trkpt><trkpt lat="43.553499" lon="12.5155749"><ele>1356.0</ele><time>2026-04-24T09:32:48.976Z</time></trkpt><trkpt lat="43.5533733" lon="12.5157337"><ele>1351.0</ele><time>2026-04-24T09:32:49.976Z</time></trkpt><trkpt lat="43.55325" lon="12.5158996"><ele>1346.0</ele><time>2026-04-24T09:32:50.976Z</time></trkpt><trkpt lat="43.5531291" lon="12.5160666"><ele>1346.0</ele><time>2026-04-24T09:32:51.976Z</time></trkpt><trkpt lat="43.5530085" lon="12.5162268"><ele>1346.0</ele><time>2026-04-24T09:32:52.976Z</time></trkpt><trkpt lat="43.5528787" lon="12.5163843"><ele>1346.0</ele><time>2026-04-24T09:32:53.977Z</time></trkpt><trkpt lat="43.5527472" lon="12.5165311"><ele>1340.6666666666667</ele><time>2026-04-24T09:32:54.976Z</time></trkpt><trkpt lat="43.5526072" lon="12.5166718"><ele>1335.3333333333333</ele><time>2026-04-24T09:32:55.976Z</time></trkpt><trkpt lat="43.5524641" lon="12.5168071"><ele>1330.0</ele><time>2026-04-24T09:32:56.976Z</time></trkpt><trkpt lat="43.5523243" lon="12.5169419"><ele>1332.3333333333333</ele><time>2026-04-24T09:32:57.976Z</time></trkpt><trkpt lat="43.5521913" lon="12.5170918"><ele>1334.6666666666667</ele><time>2026-04-24T09:32:58.976Z</time></trkpt><trkpt lat="43.5520685" lon="12.5172711"><ele>1337.0</ele><time>2026-04-24T09:32:59.977Z</time></trkpt><trkpt lat="43.5519572" lon="12.5174721"><ele>1329.3333333333335</ele><time>2026-04-24T09:33:00.976Z</time></trkpt><trkpt lat="43.5518496" lon="12.5176865"><ele>1321.6666666666667</ele><time>2026-04-24T09:33:01.976Z</time></trkpt><trkpt lat="43.5517478" lon="12.5178989"><ele>1314.0</ele><time>2026-04-24T09:33:02.976Z</time></trkpt><trkpt lat="43.5516476" lon="12.5181102"><ele>1314.0</ele><time>2026-04-24T09:33:03.976Z</time></trkpt><trkpt lat="43.5515474" lon="12.5183157"><ele>1314.0</ele><time>2026-04-24T09:33:04.977Z</time></trkpt><trkpt lat="43.5514491" lon="12.5185167"><ele>1314.0</ele><time>2026-04-24T09:33:05.976Z</time></trkpt><trkpt lat="43.5513512" lon="12.5187133"><ele>1315.3333333333333</ele><time>2026-04-24T09:33:06.977Z</time></trkpt><trkpt lat="43.5512544" lon="12.5189041"><ele>1316.6666666666665</ele><time>2026-04-24T09:33:07.976Z</time></trkpt><trkpt lat="43.5511605" lon="12.5190926"><ele>1318.0</ele><time>2026-04-24T09:33:08.977Z</time></trkpt><trkpt lat="43.5510679" lon="12.5192783"><ele>1313.3333333333333</ele><time>2026-04-24T09:33:09.976Z</time></trkpt><trkpt lat="43.5509738" lon="12.51946"><ele>1308.6666666666667</ele><time>2026-04-24T09:33:10.976Z</time></trkpt><trkpt lat="43.5508847" lon="12.5196366"><ele>1304.0</ele><time>2026-04-24T09:33:11.976Z</time></trkpt><trkpt lat="43.5507929" lon="12.5197953"><ele>1304.0</ele><time>2026-04-24T09:33:12.976Z</time></trkpt><trkpt lat="43.5506882" lon="12.5199188"><ele>1304.0</ele><time>2026-04-24T09:33:13.977Z</time></trkpt><trkpt lat="43.5505725" lon="12.5200011"><ele>1304.0</ele><time>2026-04-24T09:33:14.976Z</time></trkpt><trkpt lat="43.55045" lon="12.5200269"><ele>1304.0</ele><time>2026-04-24T09:33:15.976Z</time></trkpt><trkpt lat="43.5503293" lon="12.5199966"><ele>1299.75</ele><time>2026-04-24T09:33:16.976Z</time></trkpt><trkpt lat="43.5502268" lon="12.5199175"><ele>1295.5</ele><time>2026-04-24T09:33:17.977Z</time></trkpt><trkpt lat="43.550152" lon="12.519804"><ele>1291.25</ele><time>2026-04-24T09:33:18.976Z</time></trkpt><trkpt lat="43.5501045" lon="12.5196632"><ele>1287.0</ele><time>2026-04-24T09:33:19.976Z</time></trkpt><trkpt lat="43.5501006" lon="12.5194961"><ele>1286.75</ele><time>2026-04-24T09:33:20.977Z</time></trkpt><trkpt lat="43.5501162" lon="12.5193151"><ele>1286.5</ele><time>2026-04-24T09:33:21.976Z</time></trkpt><trkpt lat="43.5501354" lon="12.5191155"><ele>1286.25</ele><time>2026-04-24T09:33:22.977Z</time></trkpt><trkpt lat="43.550158" lon="12.5189017"><ele>1286.0</ele><time>2026-04-24T09:33:23.977Z</time></trkpt><trkpt lat="43.5501789" lon="12.518671"><ele>1283.6666666666667</ele><time>2026-04-24T09:33:24.976Z</time></trkpt><trkpt lat="43.5502058" lon="12.5184272"><ele>1281.3333333333333</ele><time>2026-04-24T09:33:25.976Z</time></trkpt><trkpt lat="43.5502381" lon="12.5181756"><ele>1279.0</ele><time>2026-04-24T09:33:26.976Z</time></trkpt><trkpt lat="43.5502734" lon="12.5179221"><ele>1276.0</ele><time>2026-04-24T09:33:27.976Z</time></trkpt><trkpt lat="43.5503131" lon="12.5176782"><ele>1273.0</ele><time>2026-04-24T09:33:28.976Z</time></trkpt><trkpt lat="43.5503572" lon="12.5174402"><ele>1270.0</ele><time>2026-04-24T09:33:29.976Z</time></trkpt><trkpt lat="43.550402" lon="12.5172032"><ele>1273.3333333333333</ele><time>2026-04-24T09:33:30.976Z</time></trkpt><trkpt lat="43.5504465" lon="12.516964"><ele>1276.6666666666667</ele><time>2026-04-24T09:33:31.976Z</time></trkpt><trkpt lat="43.5504947" lon="12.5167238"><ele>1280.0</ele><time>2026-04-24T09:33:32.977Z</time></trkpt><trkpt lat="43.5505465" lon="12.516483"><ele>1280.0</ele><time>2026-04-24T09:33:33.976Z</time></trkpt><trkpt lat="43.5506073" lon="12.5162495"><ele>1280.0</ele><time>2026-04-24T09:33:34.976Z</time></trkpt><trkpt lat="43.5506839" lon="12.5160333"><ele>1280.0</ele><time>2026-04-24T09:33:35.976Z</time></trkpt><trkpt lat="43.5507807" lon="12.515828"><ele>1277.3333333333335</ele><time>2026-04-24T09:33:36.976Z</time></trkpt><trkpt lat="43.5508859" lon="12.5156321"><ele>1274.6666666666667</ele><time>2026-04-24T09:33:37.976Z</time></trkpt><trkpt lat="43.5509891" lon="12.5154292"><ele>1272.0</ele><time>2026-04-24T09:33:38.976Z</time></trkpt><trkpt lat="43.5510846" lon="12.5152145"><ele>1273.6666666666667</ele><time>2026-04-24T09:33:39.977Z</time></trkpt><trkpt lat="43.5511719" lon="12.5149871"><ele>1275.3333333333335</ele><time>2026-04-24T09:33:40.976Z</time></trkpt><trkpt lat="43.5512463" lon="12.5147485"><ele>1277.0</ele><time>2026-04-24T09:33:41.977Z</time></trkpt><trkpt lat="43.5513117" lon="12.5145103"><ele>1271.3333333333335</ele><time>2026-04-24T09:33:42.978Z</time></trkpt><trkpt lat="43.5513755" lon="12.5142883"><ele>1265.6666666666667</ele><time>2026-04-24T09:33:43.976Z</time></trkpt><trkpt lat="43.5514344" lon="12.5140861"><ele>1260.0</ele><time>2026-04-24T09:33:44.977Z</time></trkpt><trkpt lat="43.5514845" lon="12.513907"><ele>1260.0</ele><time>2026-04-24T09:33:45.976Z</time></trkpt><trkpt lat="43.5515251" lon="12.5137527"><ele>1260.0</ele><time>2026-04-24T09:33:46.976Z</time></trkpt><trkpt lat="43.5515486" lon="12.5136111"><ele>1260.0</ele><time>2026-04-24T09:33:47.976Z</time></trkpt><trkpt lat="43.5515374" lon="12.5134742"><ele>1260.0</ele><time>2026-04-24T09:33:48.976Z</time></trkpt><trkpt lat="43.551486" lon="12.5133663"><ele>1260.0</ele><time>2026-04-24T09:33:49.976Z</time></trkpt><trkpt lat="43.5514148" lon="12.5132913"><ele>1258.0</ele><time>2026-04-24T09:33:50.976Z</time></trkpt><trkpt lat="43.5513198" lon="12.5132726"><ele>1256.0</ele><time>2026-04-24T09:33:51.976Z</time></trkpt><trkpt lat="43.5512244" lon="12.5133212"><ele>1254.0</ele><time>2026-04-24T09:33:52.977Z</time></trkpt><trkpt lat="43.5511476" lon="12.5134259"><ele>1252.0</ele><time>2026-04-24T09:33:53.976Z</time></trkpt><trkpt lat="43.5510943" lon="12.5135493"><ele>1250.0</ele><time>2026-04-24T09:33:54.977Z</time></trkpt><trkpt lat="43.5510329" lon="12.5136496"><ele>1247.4</ele><time>2026-04-24T09:33:55.976Z</time></trkpt><trkpt lat="43.550949" lon="12.5137062"><ele>1244.8</ele><time>2026-04-24T09:33:56.977Z</time></trkpt><trkpt lat="43.5508564" lon="12.5137133"><ele>1242.2</ele><time>2026-04-24T09:33:57.976Z</time></trkpt><trkpt lat="43.5507815" lon="12.5136563"><ele>1239.6</ele><time>2026-04-24T09:33:58.976Z</time></trkpt><trkpt lat="43.5507448" lon="12.5135406"><ele>1237.0</ele><time>2026-04-24T09:33:59.976Z</time></trkpt><trkpt lat="43.5507572" lon="12.5133995"><ele>1237.0</ele><time>2026-04-24T09:34:00.976Z</time></trkpt><trkpt lat="43.5508043" lon="12.513271"><ele>1237.0</ele><time>2026-04-24T09:34:01.977Z</time></trkpt><trkpt lat="43.5508717" lon="12.5131344"><ele>1237.0</ele><time>2026-04-24T09:34:02.977Z</time></trkpt><trkpt lat="43.5509599" lon="12.5130012"><ele>1237.0</ele><time>2026-04-24T09:34:03.976Z</time></trkpt><trkpt lat="43.5510511" lon="12.5128559"><ele>1238.5</ele><time>2026-04-24T09:34:04.976Z</time></trkpt><trkpt lat="43.551141" lon="12.5127108"><ele>1240.0</ele><time>2026-04-24T09:34:05.976Z</time></trkpt><trkpt lat="43.5512269" lon="12.5125683"><ele>1241.5</ele><time>2026-04-24T09:34:06.976Z</time></trkpt><trkpt lat="43.5512908" lon="12.5124138"><ele>1243.0</ele><time>2026-04-24T09:34:07.976Z</time></trkpt><trkpt lat="43.5513265" lon="12.5122482"><ele>1241.0</ele><time>2026-04-24T09:34:08.976Z</time></trkpt><trkpt lat="43.5513262" lon="12.5120698"><ele>1239.0</ele><time>2026-04-24T09:34:09.976Z</time></trkpt><trkpt lat="43.5512897" lon="12.5118958"><ele>1237.0</ele><time>2026-04-24T09:34:10.976Z</time></trkpt><trkpt lat="43.5512644" lon="12.5117261"><ele>1235.0</ele><time>2026-04-24T09:34:11.977Z</time></trkpt><trkpt lat="43.551272" lon="12.5115584"><ele>1235.0</ele><time>2026-04-24T09:34:12.976Z</time></trkpt><trkpt lat="43.551347" lon="12.5113998"><ele>1235.0</ele><time>2026-04-24T09:34:13.976Z</time></trkpt><trkpt lat="43.5514112" lon="12.5112344"><ele>1235.0</ele><time>2026-04-24T09:34:14.976Z</time></trkpt><trkpt lat="43.5514698" lon="12.5110555"><ele>1235.0</ele><time>2026-04-24T09:34:15.976Z</time></trkpt><trkpt lat="43.5515103" lon="12.5108562"><ele>1230.6666666666667</ele><time>2026-04-24T09:34:16.977Z</time></trkpt><trkpt lat="43.5515321" lon="12.5106403"><ele>1226.3333333333333</ele><time>2026-04-24T09:34:17.976Z</time></trkpt><trkpt lat="43.551528" lon="12.5104113"><ele>1222.0</ele><time>2026-04-24T09:34:18.977Z</time></trkpt><trkpt lat="43.5514945" lon="12.5101734"><ele>1221.3333333333333</ele><time>2026-04-24T09:34:19.976Z</time></trkpt><trkpt lat="43.5514415" lon="12.5099364"><ele>1220.6666666666667</ele><time>2026-04-24T09:34:20.978Z</time></trkpt><trkpt lat="43.5513802" lon="12.509702"><ele>1220.0</ele><time>2026-04-24T09:34:21.976Z</time></trkpt><trkpt lat="43.5513219" lon="12.5094759"><ele>1221.3333333333335</ele><time>2026-04-24T09:34:22.976Z</time></trkpt><trkpt lat="43.5512664" lon="12.5092535"><ele>1222.6666666666667</ele><time>2026-04-24T09:34:23.976Z</time></trkpt><trkpt lat="43.5512074" lon="12.5090375"><ele>1224.0</ele><time>2026-04-24T09:34:24.976Z</time></trkpt><trkpt lat="43.5511444" lon="12.5088238"><ele>1217.3333333333333</ele><time>2026-04-24T09:34:25.976Z</time></trkpt><trkpt lat="43.5510718" lon="12.5086131"><ele>1210.6666666666665</ele><time>2026-04-24T09:34:26.976Z</time></trkpt><trkpt lat="43.5509765" lon="12.5084102"><ele>1204.0</ele><time>2026-04-24T09:34:27.976Z</time></trkpt><trkpt lat="43.550852" lon="12.5082265"><ele>1204.0</ele><time>2026-04-24T09:34:28.976Z</time></trkpt><trkpt lat="43.5507182" lon="12.508047"><ele>1204.0</ele><time>2026-04-24T09:34:29.976Z</time></trkpt><trkpt lat="43.5505751" lon="12.5078692"><ele>1204.0</ele><time>2026-04-24T09:34:30.976Z</time></trkpt><trkpt lat="43.5504149" lon="12.507709"><ele>1200.6666666666665</ele><time>2026-04-24T09:34:31.976Z</time></trkpt><trkpt lat="43.5502426" lon="12.5075616"><ele>1197.3333333333333</ele><time>2026-04-24T09:34:32.976Z</time></trkpt><trkpt lat="43.5500585" lon="12.507427"><ele>1194.0</ele><time>2026-04-24T09:34:33.976Z</time></trkpt><trkpt lat="43.5498688" lon="12.5073018"><ele>1194.0</ele><time>2026-04-24T09:34:34.977Z</time></trkpt><trkpt lat="43.5496799" lon="12.5071765"><ele>1194.0</ele><time>2026-04-24T09:34:35.976Z</time></trkpt><trkpt lat="43.5494977" lon="12.5070438"><ele>1194.0</ele><time>2026-04-24T09:34:36.976Z</time></trkpt><trkpt lat="43.5493245" lon="12.5069039"><ele>1195.3333333333333</ele><time>2026-04-24T09:34:37.977Z</time></trkpt><trkpt lat="43.5491617" lon="12.5067747"><ele>1196.6666666666665</ele><time>2026-04-24T09:34:38.976Z</time></trkpt><trkpt lat="43.5490297" lon="12.5066813"><ele>1198.0</ele><time>2026-04-24T09:34:39.977Z</time></trkpt><trkpt lat="43.548887" lon="12.5066117"><ele>1198.0</ele><time>2026-04-24T09:34:40.976Z</time></trkpt><trkpt lat="43.5487374" lon="12.5065814"><ele>1198.0</ele><time>2026-04-24T09:34:41.976Z</time></trkpt><trkpt lat="43.5485793" lon="12.5065364"><ele>1198.0</ele><time>2026-04-24T09:34:42.976Z</time></trkpt><trkpt lat="43.5484257" lon="12.5064413"><ele>1202.0</ele><time>2026-04-24T09:34:43.976Z</time></trkpt><trkpt lat="43.5482723" lon="12.5063281"><ele>1206.0</ele><time>2026-04-24T09:34:44.976Z</time></trkpt><trkpt lat="43.5481002" lon="12.5062453"><ele>1210.0</ele><time>2026-04-24T09:34:45.976Z</time></trkpt><trkpt lat="43.5479331" lon="12.5061833"><ele>1201.75</ele><time>2026-04-24T09:34:46.976Z</time></trkpt><trkpt lat="43.5477951" lon="12.5061247"><ele>1193.5</ele><time>2026-04-24T09:34:47.977Z</time></trkpt><trkpt lat="43.5476934" lon="12.5060443"><ele>1185.25</ele><time>2026-04-24T09:34:48.976Z</time></trkpt><trkpt lat="43.5476169" lon="12.505933"><ele>1177.0</ele><time>2026-04-24T09:34:49.976Z</time></trkpt><trkpt lat="43.5475252" lon="12.5058213"><ele>1177.0</ele><time>2026-04-24T09:34:50.976Z</time></trkpt><trkpt lat="43.5473936" lon="12.5057527"><ele>1177.0</ele><time>2026-04-24T09:34:51.977Z</time></trkpt><trkpt lat="43.5472489" lon="12.5057218"><ele>1177.0</ele><time>2026-04-24T09:34:52.976Z</time></trkpt><trkpt lat="43.5471159" lon="12.505667"><ele>1177.0</ele><time>2026-04-24T09:34:53.976Z</time></trkpt><trkpt lat="43.5469813" lon="12.50562"><ele>1170.0</ele><time>2026-04-24T09:34:54.977Z</time></trkpt><trkpt lat="43.5468661" lon="12.5056283"><ele>1163.0</ele><time>2026-04-24T09:34:55.976Z</time></trkpt><trkpt lat="43.5467417" lon="12.5056219"><ele>1156.0</ele><time>2026-04-24T09:34:56.976Z</time></trkpt><trkpt lat="43.5466069" lon="12.5055907"><ele>1149.0</ele><time>2026-04-24T09:34:57.976Z</time></trkpt><trkpt lat="43.546454" lon="12.505601"><ele>1149.0</ele><time>2026-04-24T09:34:58.976Z</time></trkpt><trkpt lat="43.5462966" lon="12.5056074"><ele>1149.0</ele><time>2026-04-24T09:34:59.976Z</time></trkpt><trkpt lat="43.5461454" lon="12.5055873"><ele>1149.0</ele><time>2026-04-24T09:35:00.976Z</time></trkpt><trkpt lat="43.5459899" lon="12.5055852"><ele>1149.0</ele><time>2026-04-24T09:35:01.976Z</time></trkpt><trkpt lat="43.5458335" lon="12.5056156"><ele>1149.0</ele><time>2026-04-24T09:35:02.976Z</time></trkpt><trkpt lat="43.5456823" lon="12.5056451"><ele>1149.0</ele><time>2026-04-24T09:35:03.976Z</time></trkpt><trkpt lat="43.5455341" lon="12.5056424"><ele>1149.0</ele><time>2026-04-24T09:35:04.977Z</time></trkpt><trkpt lat="43.5454084" lon="12.5056748"><ele>1149.0</ele><time>2026-04-24T09:35:05.976Z</time></trkpt><trkpt lat="43.5452894" lon="12.505738"><ele>1149.0</ele><time>2026-04-24T09:35:06.976Z</time></trkpt><trkpt lat="43.5451912" lon="12.5058052"><ele>1149.0</ele><time>2026-04-24T09:35:07.977Z</time></trkpt><trkpt lat="43.5450906" lon="12.5058276"><ele>1146.0</ele><time>2026-04-24T09:35:08.976Z</time></trkpt><trkpt lat="43.5450043" lon="12.5057842"><ele>1143.0</ele><time>2026-04-24T09:35:09.977Z</time></trkpt><trkpt lat="43.5449307" lon="12.5056792"><ele>1140.0</ele><time>2026-04-24T09:35:10.977Z</time></trkpt><trkpt lat="43.544882" lon="12.5055126"><ele>1137.0</ele><time>2026-04-24T09:35:11.976Z</time></trkpt><trkpt lat="43.5448675" lon="12.5053505"><ele>1134.0</ele><time>2026-04-24T09:35:12.976Z</time></trkpt><trkpt lat="43.5449014" lon="12.5051918"><ele>1134.0</ele><time>2026-04-24T09:35:13.976Z</time></trkpt><trkpt lat="43.5449715" lon="12.5050562"><ele>1134.0</ele><time>2026-04-24T09:35:14.976Z</time></trkpt><trkpt lat="43.5450611" lon="12.5049177"><ele>1134.0</ele><time>2026-04-24T09:35:15.976Z</time></trkpt><trkpt lat="43.5451395" lon="12.504754"><ele>1134.0</ele><time>2026-04-24T09:35:16.976Z</time></trkpt><trkpt lat="43.5451954" lon="12.504555"><ele>1128.6666666666667</ele><time>2026-04-24T09:35:17.976Z</time></trkpt><trkpt lat="43.545224" lon="12.5043341"><ele>1123.3333333333335</ele><time>2026-04-24T09:35:18.976Z</time></trkpt><trkpt lat="43.5452401" lon="12.5041019"><ele>1118.0</ele><time>2026-04-24T09:35:19.976Z</time></trkpt><trkpt lat="43.5452599" lon="12.5038621"><ele>1113.0</ele><time>2026-04-24T09:35:20.976Z</time></trkpt><trkpt lat="43.5452929" lon="12.503617"><ele>1108.0</ele><time>2026-04-24T09:35:21.976Z</time></trkpt><trkpt lat="43.5453364" lon="12.5033719"><ele>1103.0</ele><time>2026-04-24T09:35:22.976Z</time></trkpt><trkpt lat="43.545389" lon="12.5031279"><ele>1112.3333333333335</ele><time>2026-04-24T09:35:23.977Z</time></trkpt><trkpt lat="43.5454463" lon="12.5028856"><ele>1121.6666666666667</ele><time>2026-04-24T09:35:24.976Z</time></trkpt><trkpt lat="43.5455091" lon="12.5026416"><ele>1131.0</ele><time>2026-04-24T09:35:25.976Z</time></trkpt><trkpt lat="43.5455762" lon="12.5023952"><ele>1131.0</ele><time>2026-04-24T09:35:26.976Z</time></trkpt><trkpt lat="43.5456483" lon="12.5021484"><ele>1131.0</ele><time>2026-04-24T09:35:27.976Z</time></trkpt><trkpt lat="43.5457234" lon="12.5018998"><ele>1131.0</ele><time>2026-04-24T09:35:28.976Z</time></trkpt><trkpt lat="43.5458004" lon="12.5016501"><ele>1125.0</ele><time>2026-04-24T09:35:29.976Z</time></trkpt><trkpt lat="43.5458857" lon="12.5014019"><ele>1119.0</ele><time>2026-04-24T09:35:30.976Z</time></trkpt><trkpt lat="43.5459808" lon="12.5011637"><ele>1113.0</ele><time>2026-04-24T09:35:31.976Z</time></trkpt><trkpt lat="43.546083" lon="12.500933"><ele>1108.6666666666667</ele><time>2026-04-24T09:35:32.976Z</time></trkpt><trkpt lat="43.5461887" lon="12.500717"><ele>1104.3333333333335</ele><time>2026-04-24T09:35:33.977Z</time></trkpt><trkpt lat="43.546298" lon="12.5005081"><ele>1100.0</ele><time>2026-04-24T09:35:34.976Z</time></trkpt><trkpt lat="43.5464129" lon="12.5003053"><ele>1100.0</ele><time>2026-04-24T09:35:35.976Z</time></trkpt><trkpt lat="43.5465414" lon="12.5001219"><ele>1100.0</ele><time>2026-04-24T09:35:36.977Z</time></trkpt><trkpt lat="43.54668" lon="12.4999552"><ele>1100.0</ele><time>2026-04-24T09:35:37.976Z</time></trkpt><trkpt lat="43.5468207" lon="12.4997907"><ele>1100.0</ele><time>2026-04-24T09:35:38.976Z</time></trkpt><trkpt lat="43.5469618" lon="12.4996224"><ele>1100.0</ele><time>2026-04-24T09:35:39.976Z</time></trkpt><trkpt lat="43.5471071" lon="12.4994527"><ele>1100.0</ele><time>2026-04-24T09:35:40.977Z</time></trkpt><trkpt lat="43.5472561" lon="12.4992807"><ele>1097.6666666666667</ele><time>2026-04-24T09:35:41.976Z</time></trkpt><trkpt lat="43.5474031" lon="12.4990994"><ele>1095.3333333333333</ele><time>2026-04-24T09:35:42.976Z</time></trkpt><trkpt lat="43.5475476" lon="12.4989091"><ele>1093.0</ele><time>2026-04-24T09:35:43.976Z</time></trkpt><trkpt lat="43.5476917" lon="12.4987124"><ele>1092.3333333333333</ele><time>2026-04-24T09:35:44.976Z</time></trkpt><trkpt lat="43.5478385" lon="12.4985133"><ele>1091.6666666666667</ele><time>2026-04-24T09:35:45.977Z</time></trkpt><trkpt lat="43.5479849" lon="12.4983114"><ele>1091.0</ele><time>2026-04-24T09:35:46.977Z</time></trkpt><trkpt lat="43.5481318" lon="12.4981058"><ele>1082.6666666666667</ele><time>2026-04-24T09:35:47.976Z</time></trkpt><trkpt lat="43.5482784" lon="12.4978964"><ele>1074.3333333333333</ele><time>2026-04-24T09:35:48.976Z</time></trkpt><trkpt lat="43.5484243" lon="12.497685"><ele>1066.0</ele><time>2026-04-24T09:35:49.977Z</time></trkpt><trkpt lat="43.5485642" lon="12.497476"><ele>1066.0</ele><time>2026-04-24T09:35:50.977Z</time></trkpt><trkpt lat="43.5487006" lon="12.4972661"><ele>1066.0</ele><time>2026-04-24T09:35:51.976Z</time></trkpt><trkpt lat="43.5488345" lon="12.4970579"><ele>1066.0</ele><time>2026-04-24T09:35:52.976Z</time></trkpt><trkpt lat="43.5489652" lon="12.4968552"><ele>1065.6666666666665</ele><time>2026-04-24T09:35:53.976Z</time></trkpt><trkpt lat="43.5490983" lon="12.4966589"><ele>1065.3333333333333</ele><time>2026-04-24T09:35:54.977Z</time></trkpt><trkpt lat="43.5492351" lon="12.4964756"><ele>1065.0</ele><time>2026-04-24T09:35:55.976Z</time></trkpt><trkpt lat="43.5493768" lon="12.4963084"><ele>1058.6666666666667</ele><time>2026-04-24T09:35:56.976Z</time></trkpt><trkpt lat="43.5495288" lon="12.4961667"><ele>1052.3333333333335</ele><time>2026-04-24T09:35:57.976Z</time></trkpt><trkpt lat="43.5496928" lon="12.4960627"><ele>1046.0</ele><time>2026-04-24T09:35:58.976Z</time></trkpt><trkpt lat="43.5498689" lon="12.495999"><ele>1046.0</ele><time>2026-04-24T09:35:59.976Z</time></trkpt><trkpt lat="43.5500543" lon="12.4959652"><ele>1046.0</ele><time>2026-04-24T09:36:00.976Z</time></trkpt><trkpt lat="43.5502458" lon="12.4959353"><ele>1046.0</ele><time>2026-04-24T09:36:01.977Z</time></trkpt><trkpt lat="43.5504405" lon="12.4958988"><ele>1045.0</ele><time>2026-04-24T09:36:02.976Z</time></trkpt><trkpt lat="43.5506352" lon="12.4958493"><ele>1044.0</ele><time>2026-04-24T09:36:03.976Z</time></trkpt><trkpt lat="43.5508306" lon="12.495785"><ele>1043.0</ele><time>2026-04-24T09:36:04.976Z</time></trkpt><trkpt lat="43.5510237" lon="12.4957101"><ele>1044.0</ele><time>2026-04-24T09:36:05.976Z</time></trkpt><trkpt lat="43.5512152" lon="12.495639"><ele>1045.0</ele><time>2026-04-24T09:36:06.976Z</time></trkpt><trkpt lat="43.5514073" lon="12.4955734"><ele>1046.0</ele><time>2026-04-24T09:36:07.976Z</time></trkpt><trkpt lat="43.5516032" lon="12.4955123"><ele>1046.0</ele><time>2026-04-24T09:36:08.976Z</time></trkpt><trkpt lat="43.5517997" lon="12.4954642"><ele>1046.0</ele><time>2026-04-24T09:36:09.976Z</time></trkpt><trkpt lat="43.551998" lon="12.4954325"><ele>1046.0</ele><time>2026-04-24T09:36:10.976Z</time></trkpt><trkpt lat="43.5521931" lon="12.4954094"><ele>1033.6666666666667</ele><time>2026-04-24T09:36:11.976Z</time></trkpt><trkpt lat="43.5523886" lon="12.4953898"><ele>1021.3333333333333</ele><time>2026-04-24T09:36:12.976Z</time></trkpt><trkpt lat="43.5525794" lon="12.4953819"><ele>1009.0</ele><time>2026-04-24T09:36:13.977Z</time></trkpt><trkpt lat="43.5527679" lon="12.4953828"><ele>1007.3333333333333</ele><time>2026-04-24T09:36:14.977Z</time></trkpt><trkpt lat="43.5529528" lon="12.4953847"><ele>1005.6666666666667</ele><time>2026-04-24T09:36:15.976Z</time></trkpt><trkpt lat="43.5531296" lon="12.4953937"><ele>1004.0</ele><time>2026-04-24T09:36:16.977Z</time></trkpt><trkpt lat="43.5532886" lon="12.4954323"><ele>1007.3333333333334</ele><time>2026-04-24T09:36:17.976Z</time></trkpt><trkpt lat="43.5534377" lon="12.4955143"><ele>1010.6666666666667</ele><time>2026-04-24T09:36:18.976Z</time></trkpt><trkpt lat="43.5535854" lon="12.4956109"><ele>1014.0</ele><time>2026-04-24T09:36:19.977Z</time></trkpt><trkpt lat="43.5537433" lon="12.4956943"><ele>1014.0</ele><time>2026-04-24T09:36:20.976Z</time></trkpt><trkpt lat="43.5539106" lon="12.4957544"><ele>1014.0</ele><time>2026-04-24T09:36:21.976Z</time></trkpt><trkpt lat="43.5540804" lon="12.4957819"><ele>1014.0</ele><time>2026-04-24T09:36:22.976Z</time></trkpt><trkpt lat="43.5542487" lon="12.4958013"><ele>1014.0</ele><time>2026-04-24T09:36:23.976Z</time></trkpt><trkpt lat="43.5544107" lon="12.4958464"><ele>1014.0</ele><time>2026-04-24T09:36:24.977Z</time></trkpt><trkpt lat="43.5545592" lon="12.4959274"><ele>1014.0</ele><time>2026-04-24T09:36:25.976Z</time></trkpt><trkpt lat="43.5546891" lon="12.4960441"><ele>1012.5</ele><time>2026-04-24T09:36:26.976Z</time></trkpt><trkpt lat="43.5547954" lon="12.4961965"><ele>1011.0</ele><time>2026-04-24T09:36:27.976Z</time></trkpt><trkpt lat="43.554869" lon="12.4963732"><ele>1009.5</ele><time>2026-04-24T09:36:28.976Z</time></trkpt><trkpt lat="43.5549184" lon="12.4965583"><ele>1008.0</ele><time>2026-04-24T09:36:29.977Z</time></trkpt><trkpt lat="43.5549722" lon="12.4967178"><ele>1008.0</ele><time>2026-04-24T09:36:30.976Z</time></trkpt><trkpt lat="43.5550427" lon="12.496828"><ele>1008.0</ele><time>2026-04-24T09:36:31.976Z</time></trkpt><trkpt lat="43.5551324" lon="12.4969042"><ele>1008.0</ele><time>2026-04-24T09:36:32.977Z</time></trkpt><trkpt lat="43.5552374" lon="12.4969423"><ele>1008.0</ele><time>2026-04-24T09:36:33.976Z</time></trkpt><trkpt lat="43.5553573" lon="12.4969475"><ele>1008.0</ele><time>2026-04-24T09:36:34.976Z</time></trkpt><trkpt lat="43.5554856" lon="12.496933"><ele>1003.75</ele><time>2026-04-24T09:36:35.976Z</time></trkpt><trkpt lat="43.5556202" lon="12.4968841"><ele>999.5</ele><time>2026-04-24T09:36:36.976Z</time></trkpt><trkpt lat="43.5557522" lon="12.496808"><ele>995.25</ele><time>2026-04-24T09:36:37.976Z</time></trkpt><trkpt lat="43.5558808" lon="12.4967237"><ele>991.0</ele><time>2026-04-24T09:36:38.976Z</time></trkpt><trkpt lat="43.5560046" lon="12.4966459"><ele>991.0</ele><time>2026-04-24T09:36:39.975Z</time></trkpt><trkpt lat="43.5561281" lon="12.4966049"><ele>991.0</ele><time>2026-04-24T09:36:40.975Z</time></trkpt><trkpt lat="43.5562488" lon="12.4966227"><ele>991.0</ele><time>2026-04-24T09:36:41.975Z</time></trkpt><trkpt lat="43.5563445" lon="12.496699"><ele>991.0</ele><time>2026-04-24T09:36:42.975Z</time></trkpt><trkpt lat="43.5564045" lon="12.4968005"><ele>990.4</ele><time>2026-04-24T09:36:43.975Z</time></trkpt><trkpt lat="43.5564207" lon="12.4969307"><ele>989.8</ele><time>2026-04-24T09:36:44.975Z</time></trkpt><trkpt lat="43.5564347" lon="12.4970625"><ele>989.1999999999999</ele><time>2026-04-24T09:36:45.976Z</time></trkpt><trkpt lat="43.5564811" lon="12.4971829"><ele>988.5999999999999</ele><time>2026-04-24T09:36:46.975Z</time></trkpt><trkpt lat="43.5565509" lon="12.4972623"><ele>988.0</ele><time>2026-04-24T09:36:47.976Z</time></trkpt><trkpt lat="43.5566391" lon="12.4972789"><ele>988.0</ele><time>2026-04-24T09:36:48.975Z</time></trkpt><trkpt lat="43.5567131" lon="12.497233"><ele>988.0</ele><time>2026-04-24T09:36:49.976Z</time></trkpt><trkpt lat="43.556769" lon="12.4971271"><ele>988.0</ele><time>2026-04-24T09:36:50.976Z</time></trkpt><trkpt lat="43.556776" lon="12.4969832"><ele>988.0</ele><time>2026-04-24T09:36:51.975Z</time></trkpt><trkpt lat="43.5567364" lon="12.496827"><ele>988.0</ele><time>2026-04-24T09:36:52.976Z</time></trkpt><trkpt lat="43.5566713" lon="12.4966704"><ele>988.0</ele><time>2026-04-24T09:36:53.976Z</time></trkpt><trkpt lat="43.5565923" lon="12.4965219"><ele>988.0</ele><time>2026-04-24T09:36:54.975Z</time></trkpt><trkpt lat="43.5564957" lon="12.4963969"><ele>988.0</ele><time>2026-04-24T09:36:55.976Z</time></trkpt><trkpt lat="43.5563789" lon="12.4963062"><ele>988.0</ele><time>2026-04-24T09:36:56.975Z</time></trkpt><trkpt lat="43.5562515" lon="12.496261"><ele>988.75</ele><time>2026-04-24T09:36:57.975Z</time></trkpt><trkpt lat="43.5561237" lon="12.4962583"><ele>989.5</ele><time>2026-04-24T09:36:58.976Z</time></trkpt><trkpt lat="43.5560008" lon="12.4962897"><ele>990.25</ele><time>2026-04-24T09:36:59.976Z</time></trkpt><trkpt lat="43.5558879" lon="12.496306"><ele>991.0</ele><time>2026-04-24T09:37:00.975Z</time></trkpt><trkpt lat="43.5557817" lon="12.4962873"><ele>987.5999999999999</ele><time>2026-04-24T09:37:01.975Z</time></trkpt><trkpt lat="43.5557081" lon="12.4962081"><ele>984.1999999999999</ele><time>2026-04-24T09:37:02.975Z</time></trkpt><trkpt lat="43.5556708" lon="12.4960879"><ele>980.8000000000001</ele><time>2026-04-24T09:37:03.976Z</time></trkpt><trkpt lat="43.5556709" lon="12.495959"><ele>977.4000000000001</ele><time>2026-04-24T09:37:04.975Z</time></trkpt><trkpt lat="43.5556697" lon="12.4958198"><ele>974.0</ele><time>2026-04-24T09:37:05.975Z</time></trkpt><trkpt lat="43.5556223" lon="12.4956575"><ele>974.0</ele><time>2026-04-24T09:37:06.975Z</time></trkpt><trkpt lat="43.5555599" lon="12.4954923"><ele>974.0</ele><time>2026-04-24T09:37:07.975Z</time></trkpt><trkpt lat="43.5554855" lon="12.4953211"><ele>974.0</ele><time>2026-04-24T09:37:08.975Z</time></trkpt><trkpt lat="43.5553949" lon="12.4951585"><ele>974.0</ele><time>2026-04-24T09:37:09.976Z</time></trkpt><trkpt lat="43.5552855" lon="12.4950133"><ele>972.0</ele><time>2026-04-24T09:37:10.975Z</time></trkpt><trkpt lat="43.5551627" lon="12.4948742"><ele>970.0</ele><time>2026-04-24T09:37:11.975Z</time></trkpt><trkpt lat="43.5550399" lon="12.4947393"><ele>968.0</ele><time>2026-04-24T09:37:12.975Z</time></trkpt><trkpt lat="43.554921" lon="12.4946037"><ele>964.0</ele><time>2026-04-24T09:37:13.975Z</time></trkpt><trkpt lat="43.5548055" lon="12.4944726"><ele>960.0</ele><time>2026-04-24T09:37:14.975Z</time></trkpt><trkpt lat="43.5546842" lon="12.4943608"><ele>956.0</ele><time>2026-04-24T09:37:15.975Z</time></trkpt><trkpt lat="43.5545497" lon="12.4942947"><ele>952.0</ele><time>2026-04-24T09:37:16.975Z</time></trkpt><trkpt lat="43.5544071" lon="12.4942683"><ele>952.0</ele><time>2026-04-24T09:37:17.975Z</time></trkpt><trkpt lat="43.5542597" lon="12.4942771"><ele>952.0</ele><time>2026-04-24T09:37:18.975Z</time></trkpt><trkpt lat="43.5541195" lon="12.4943028"><ele>952.0</ele><time>2026-04-24T09:37:19.976Z</time></trkpt><trkpt lat="43.5539811" lon="12.4943162"><ele>952.0</ele><time>2026-04-24T09:37:20.975Z</time></trkpt><trkpt lat="43.5538539" lon="12.4943047"><ele>952.0</ele><time>2026-04-24T09:37:21.975Z</time></trkpt><trkpt lat="43.553746" lon="12.4942589"><ele>952.0</ele><time>2026-04-24T09:37:22.976Z</time></trkpt><trkpt lat="43.5536732" lon="12.4941622"><ele>952.0</ele><time>2026-04-24T09:37:23.975Z</time></trkpt><trkpt lat="43.5536453" lon="12.4940334"><ele>952.0</ele><time>2026-04-24T09:37:24.976Z</time></trkpt><trkpt lat="43.55367" lon="12.4938891"><ele>952.0</ele><time>2026-04-24T09:37:25.976Z</time></trkpt><trkpt lat="43.553723" lon="12.4937461"><ele>946.75</ele><time>2026-04-24T09:37:26.975Z</time></trkpt><trkpt lat="43.5537807" lon="12.4935928"><ele>941.5</ele><time>2026-04-24T09:37:27.975Z</time></trkpt><trkpt lat="43.5538345" lon="12.4934418"><ele>936.25</ele><time>2026-04-24T09:37:28.975Z</time></trkpt><trkpt lat="43.5538718" lon="12.4932994"><ele>931.0</ele><time>2026-04-24T09:37:29.976Z</time></trkpt><trkpt lat="43.5538664" lon="12.4931544"><ele>931.0</ele><time>2026-04-24T09:37:30.976Z</time></trkpt><trkpt lat="43.5538197" lon="12.4930136"><ele>930.9999999999999</ele><time>2026-04-24T09:37:31.975Z</time></trkpt><trkpt lat="43.5537837" lon="12.4928815"><ele>930.9999999999999</ele><time>2026-04-24T09:37:32.975Z</time></trkpt><trkpt lat="43.5537878" lon="12.492746"><ele>931.0</ele><time>2026-04-24T09:37:33.975Z</time></trkpt><trkpt lat="43.5538374" lon="12.4926496"><ele>931.0</ele><time>2026-04-24T09:37:34.975Z</time></trkpt><trkpt lat="43.5539268" lon="12.4925942"><ele>931.0</ele><time>2026-04-24T09:37:35.977Z</time></trkpt><trkpt lat="43.5540124" lon="12.4926172"><ele>930.9999999999999</ele><time>2026-04-24T09:37:36.975Z</time></trkpt><trkpt lat="43.554067" lon="12.4927057"><ele>930.9999999999999</ele><time>2026-04-24T09:37:37.975Z</time></trkpt><trkpt lat="43.5540841" lon="12.4928404"><ele>931.0</ele><time>2026-04-24T09:37:38.975Z</time></trkpt><trkpt lat="43.55407" lon="12.493004"><ele>931.0</ele><time>2026-04-24T09:37:39.975Z</time></trkpt><trkpt lat="43.5540546" lon="12.493172"><ele>931.0</ele><time>2026-04-24T09:37:40.975Z</time></trkpt><trkpt lat="43.5540617" lon="12.493329"><ele>930.9999999999999</ele><time>2026-04-24T09:37:41.975Z</time></trkpt><trkpt lat="43.5540953" lon="12.4934751"><ele>930.9999999999999</ele><time>2026-04-24T09:37:42.975Z</time></trkpt><trkpt lat="43.5541611" lon="12.4935971"><ele>931.0</ele><time>2026-04-24T09:37:43.976Z</time></trkpt><trkpt lat="43.5542556" lon="12.4936788"><ele>931.0</ele><time>2026-04-24T09:37:44.975Z</time></trkpt><trkpt lat="43.554364" lon="12.493711"><ele>931.0</ele><time>2026-04-24T09:37:45.975Z</time></trkpt><trkpt lat="43.5544815" lon="12.4936907"><ele>931.0</ele><time>2026-04-24T09:37:46.975Z</time></trkpt><trkpt lat="43.5546038" lon="12.4936125"><ele>931.0</ele><time>2026-04-24T09:37:47.975Z</time></trkpt><trkpt lat="43.5547159" lon="12.4934949"><ele>931.0</ele><time>2026-04-24T09:37:48.975Z</time></trkpt><trkpt lat="43.5548236" lon="12.4933708"><ele>929.25</ele><time>2026-04-24T09:37:49.976Z</time></trkpt><trkpt lat="43.5549298" lon="12.4932594"><ele>927.5</ele><time>2026-04-24T09:37:50.975Z</time></trkpt><trkpt lat="43.5550393" lon="12.4931669"><ele>925.75</ele><time>2026-04-24T09:37:51.975Z</time></trkpt><trkpt lat="43.5551464" lon="12.4930996"><ele>924.0</ele><time>2026-04-24T09:37:52.975Z</time></trkpt><trkpt lat="43.5552377" lon="12.4930328"><ele>920.6</ele><time>2026-04-24T09:37:53.976Z</time></trkpt><trkpt lat="43.5552911" lon="12.4929218"><ele>917.2</ele><time>2026-04-24T09:37:54.975Z</time></trkpt><trkpt lat="43.5553043" lon="12.4927884"><ele>913.8000000000001</ele><time>2026-04-24T09:37:55.975Z</time></trkpt><trkpt lat="43.5552687" lon="12.4926701"><ele>910.4000000000001</ele><time>2026-04-24T09:37:56.975Z</time></trkpt><trkpt lat="43.5551942" lon="12.492608"><ele>907.0</ele><time>2026-04-24T09:37:57.975Z</time></trkpt><trkpt lat="43.555103" lon="12.4926095"><ele>907.0</ele><time>2026-04-24T09:37:58.975Z</time></trkpt><trkpt lat="43.5550118" lon="12.4926864"><ele>907.0</ele><time>2026-04-24T09:37:59.975Z</time></trkpt><trkpt lat="43.5549445" lon="12.4928221"><ele>907.0</ele><time>2026-04-24T09:38:00.977Z</time></trkpt><trkpt lat="43.5548927" lon="12.492969"><ele>907.0</ele><time>2026-04-24T09:38:01.975Z</time></trkpt><trkpt lat="43.554814" lon="12.4930759"><ele>907.0</ele><time>2026-04-24T09:38:02.975Z</time></trkpt><trkpt lat="43.5547187" lon="12.4931373"><ele>907.0</ele><time>2026-04-24T09:38:03.976Z</time></trkpt><trkpt lat="43.5546229" lon="12.4931329"><ele>907.0</ele><time>2026-04-24T09:38:04.976Z</time></trkpt><trkpt lat="43.5545568" lon="12.4930597"><ele>907.0</ele><time>2026-04-24T09:38:05.975Z</time></trkpt><trkpt lat="43.5545266" lon="12.4929293"><ele>907.0</ele><time>2026-04-24T09:38:06.975Z</time></trkpt><trkpt lat="43.5545447" lon="12.4927776"><ele>907.0</ele><time>2026-04-24T09:38:07.975Z</time></trkpt><trkpt lat="43.5545946" lon="12.4926224"><ele>907.0</ele><time>2026-04-24T09:38:08.975Z</time></trkpt><trkpt lat="43.5546479" lon="12.4924543"><ele>907.0</ele><time>2026-04-24T09:38:09.975Z</time></trkpt><trkpt lat="43.5546818" lon="12.4922525"><ele>907.0</ele><time>2026-04-24T09:38:10.975Z</time></trkpt><trkpt lat="43.5546996" lon="12.4920504"><ele>904.3333333333333</ele><time>2026-04-24T09:38:11.975Z</time></trkpt><trkpt lat="43.5546812" lon="12.4918519"><ele>901.6666666666667</ele><time>2026-04-24T09:38:12.975Z</time></trkpt><trkpt lat="43.5546191" lon="12.4916626"><ele>899.0</ele><time>2026-04-24T09:38:13.976Z</time></trkpt><trkpt lat="43.554521" lon="12.4914954"><ele>899.0</ele><time>2026-04-24T09:38:14.976Z</time></trkpt><trkpt lat="43.5544021" lon="12.4913497"><ele>899.0</ele><time>2026-04-24T09:38:15.976Z</time></trkpt><trkpt lat="43.5542597" lon="12.4912296"><ele>899.0</ele><time>2026-04-24T09:38:16.975Z</time></trkpt><trkpt lat="43.5541085" lon="12.4911453"><ele>896.0</ele><time>2026-04-24T09:38:17.975Z</time></trkpt><trkpt lat="43.5539372" lon="12.4911569"><ele>893.0</ele><time>2026-04-24T09:38:18.976Z</time></trkpt><trkpt lat="43.5537684" lon="12.491201"><ele>890.0</ele><time>2026-04-24T09:38:19.975Z</time></trkpt><trkpt lat="43.5536038" lon="12.4913004"><ele>890.0</ele><time>2026-04-24T09:38:20.976Z</time></trkpt><trkpt lat="43.5534383" lon="12.4914244"><ele>890.0</ele><time>2026-04-24T09:38:21.975Z</time></trkpt><trkpt lat="43.5532717" lon="12.4915564"><ele>890.0</ele><time>2026-04-24T09:38:22.975Z</time></trkpt><trkpt lat="43.5531054" lon="12.4916891"><ele>890.0</ele><time>2026-04-24T09:38:23.975Z</time></trkpt><trkpt lat="43.5529342" lon="12.491802"><ele>890.0</ele><time>2026-04-24T09:38:24.975Z</time></trkpt><trkpt lat="43.5527557" lon="12.4918899"><ele>890.0</ele><time>2026-04-24T09:38:25.976Z</time></trkpt><trkpt lat="43.5525689" lon="12.4919416"><ele>884.3333333333334</ele><time>2026-04-24T09:38:26.975Z</time></trkpt><trkpt lat="43.5523757" lon="12.4919633"><ele>878.6666666666667</ele><time>2026-04-24T09:38:27.975Z</time></trkpt><trkpt lat="43.5521802" lon="12.4919767"><ele>873.0</ele><time>2026-04-24T09:38:28.975Z</time></trkpt><trkpt lat="43.5519806" lon="12.4919977"><ele>868.3333333333333</ele><time>2026-04-24T09:38:29.976Z</time></trkpt><trkpt lat="43.551779" lon="12.4920216"><ele>863.6666666666666</ele><time>2026-04-24T09:38:30.975Z</time></trkpt><trkpt lat="43.5515804" lon="12.4920335"><ele>859.0</ele><time>2026-04-24T09:38:31.975Z</time></trkpt><trkpt lat="43.5513893" lon="12.4920171"><ele>859.6666666666666</ele><time>2026-04-24T09:38:32.975Z</time></trkpt><trkpt lat="43.5512051" lon="12.4919689"><ele>860.3333333333333</ele><time>2026-04-24T09:38:33.975Z</time></trkpt><trkpt lat="43.5510323" lon="12.4918872"><ele>861.0</ele><time>2026-04-24T09:38:34.975Z</time></trkpt><trkpt lat="43.5508674" lon="12.4917782"><ele>861.0</ele><time>2026-04-24T09:38:35.976Z</time></trkpt><trkpt lat="43.5507069" lon="12.4916495"><ele>861.0</ele><time>2026-04-24T09:38:36.975Z</time></trkpt><trkpt lat="43.5505445" lon="12.4915208"><ele>861.0</ele><time>2026-04-24T09:38:37.975Z</time></trkpt><trkpt lat="43.5503706" lon="12.4914047"><ele>865.3333333333333</ele><time>2026-04-24T09:38:38.975Z</time></trkpt><trkpt lat="43.5501953" lon="12.4913093"><ele>869.6666666666666</ele><time>2026-04-24T09:38:39.976Z</time></trkpt><trkpt lat="43.550023" lon="12.4912273"><ele>874.0</ele><time>2026-04-24T09:38:40.975Z</time></trkpt><trkpt lat="43.54985" lon="12.4911682"><ele>863.3333333333333</ele><time>2026-04-24T09:38:41.975Z</time></trkpt><trkpt lat="43.5496767" lon="12.4911359"><ele>852.6666666666667</ele><time>2026-04-24T09:38:42.975Z</time></trkpt><trkpt lat="43.5495163" lon="12.4911244"><ele>842.0</ele><time>2026-04-24T09:38:43.975Z</time></trkpt><trkpt lat="43.5493696" lon="12.4911232"><ele>842.0</ele><time>2026-04-24T09:38:44.975Z</time></trkpt><trkpt lat="43.5492462" lon="12.4910966"><ele>842.0</ele><time>2026-04-24T09:38:45.975Z</time></trkpt><trkpt lat="43.5491561" lon="12.4910321"><ele>842.0</ele><time>2026-04-24T09:38:46.975Z</time></trkpt><trkpt lat="43.5491032" lon="12.4909262"><ele>842.0</ele><time>2026-04-24T09:38:47.975Z</time></trkpt><trkpt lat="43.5491036" lon="12.4907966"><ele>842.0</ele><time>2026-04-24T09:38:48.975Z</time></trkpt><trkpt lat="43.5491563" lon="12.4906843"><ele>842.0000000000001</ele><time>2026-04-24T09:38:49.975Z</time></trkpt><trkpt lat="43.5492407" lon="12.4906361"><ele>842.0</ele><time>2026-04-24T09:38:50.975Z</time></trkpt><trkpt lat="43.5493218" lon="12.4906596"><ele>842.0</ele><time>2026-04-24T09:38:51.975Z</time></trkpt><trkpt lat="43.5493923" lon="12.4907471"><ele>842.0</ele><time>2026-04-24T09:38:52.975Z</time></trkpt><trkpt lat="43.5494584" lon="12.4908231"><ele>842.0000000000001</ele><time>2026-04-24T09:38:53.976Z</time></trkpt><trkpt lat="43.5495483" lon="12.4908534"><ele>842.0</ele><time>2026-04-24T09:38:54.975Z</time></trkpt><trkpt lat="43.5496303" lon="12.4908289"><ele>842.0</ele><time>2026-04-24T09:38:55.975Z</time></trkpt><trkpt lat="43.5497016" lon="12.4907429"><ele>842.0</ele><time>2026-04-24T09:38:56.975Z</time></trkpt><trkpt lat="43.5497284" lon="12.4906263"><ele>842.0</ele><time>2026-04-24T09:38:57.975Z</time></trkpt><trkpt lat="43.5497059" lon="12.4905112"><ele>842.0</ele><time>2026-04-24T09:38:58.975Z</time></trkpt><trkpt lat="43.5496408" lon="12.4904294"><ele>842.0</ele><time>2026-04-24T09:38:59.975Z</time></trkpt><trkpt lat="43.5495475" lon="12.4904074"><ele>837.0</ele><time>2026-04-24T09:39:00.975Z</time></trkpt><trkpt lat="43.5494482" lon="12.4904023"><ele>832.0</ele><time>2026-04-24T09:39:01.976Z</time></trkpt><trkpt lat="43.5493673" lon="12.4903282"><ele>827.0</ele><time>2026-04-24T09:39:02.976Z</time></trkpt><trkpt lat="43.5493292" lon="12.4902205"><ele>822.0</ele><time>2026-04-24T09:39:03.975Z</time></trkpt><trkpt lat="43.5493364" lon="12.4900902"><ele>817.0</ele><time>2026-04-24T09:39:04.975Z</time></trkpt><trkpt lat="43.5493959" lon="12.4899953"><ele>817.0</ele><time>2026-04-24T09:39:05.975Z</time></trkpt><trkpt lat="43.5494835" lon="12.4899667"><ele>817.0</ele><time>2026-04-24T09:39:06.975Z</time></trkpt><trkpt lat="43.5495829" lon="12.4900036"><ele>817.0</ele><time>2026-04-24T09:39:07.975Z</time></trkpt><trkpt lat="43.5496781" lon="12.4900376"><ele>817.0</ele><time>2026-04-24T09:39:08.975Z</time></trkpt><trkpt lat="43.5497707" lon="12.4900115"><ele>817.0</ele><time>2026-04-24T09:39:09.975Z</time></trkpt><trkpt lat="43.5498415" lon="12.4899304"><ele>817.0</ele><time>2026-04-24T09:39:10.975Z</time></trkpt><trkpt lat="43.549866" lon="12.4897987"><ele>817.0</ele><time>2026-04-24T09:39:11.975Z</time></trkpt><trkpt lat="43.549845" lon="12.4896845"><ele>817.0</ele><time>2026-04-24T09:39:13.5Z</time></trkpt><trkpt lat="43.5496529" lon="12.4896034"><ele>817.0</ele><time>2026-04-24T09:39:14.977Z</time></trkpt><trkpt lat="43.5495263" lon="12.4896538"><ele>817.0</ele><time>2026-04-24T09:39:15.976Z</time></trkpt><trkpt lat="43.5493866" lon="12.489736"><ele>817.0</ele><time>2026-04-24T09:39:16.975Z</time></trkpt><trkpt lat="43.5492395" lon="12.4898374"><ele>817.0</ele><time>2026-04-24T09:39:17.975Z</time></trkpt><trkpt lat="43.5490852" lon="12.4899605"><ele>817.0</ele><time>2026-04-24T09:39:18.976Z</time></trkpt><trkpt lat="43.548933" lon="12.4901061"><ele>817.0</ele><time>2026-04-24T09:39:19.975Z</time></trkpt><trkpt lat="43.5487848" lon="12.4902679"><ele>817.0</ele><time>2026-04-24T09:39:20.975Z</time></trkpt><trkpt lat="43.5486281" lon="12.4904212"><ele>817.3333333333333</ele><time>2026-04-24T09:39:21.976Z</time></trkpt><trkpt lat="43.5484571" lon="12.4905479"><ele>817.6666666666667</ele><time>2026-04-24T09:39:22.975Z</time></trkpt><trkpt lat="43.5482791" lon="12.4906707"><ele>818.0</ele><time>2026-04-24T09:39:23.975Z</time></trkpt><trkpt lat="43.5481049" lon="12.4908058"><ele>818.0</ele><time>2026-04-24T09:39:24.975Z</time></trkpt><trkpt lat="43.5479429" lon="12.4909596"><ele>818.0</ele><time>2026-04-24T09:39:25.975Z</time></trkpt><trkpt lat="43.5477861" lon="12.4911057"><ele>818.0</ele><time>2026-04-24T09:39:26.976Z</time></trkpt><trkpt lat="43.5476163" lon="12.4912279"><ele>823.0</ele><time>2026-04-24T09:39:27.975Z</time></trkpt><trkpt lat="43.5474389" lon="12.4913308"><ele>828.0</ele><time>2026-04-24T09:39:28.975Z</time></trkpt><trkpt lat="43.5472635" lon="12.4914192"><ele>833.0</ele><time>2026-04-24T09:39:29.975Z</time></trkpt><trkpt lat="43.5470832" lon="12.4914913"><ele>824.6666666666667</ele><time>2026-04-24T09:39:30.975Z</time></trkpt><trkpt lat="43.5468969" lon="12.4915355"><ele>816.3333333333333</ele><time>2026-04-24T09:39:31.975Z</time></trkpt><trkpt lat="43.5467046" lon="12.4915433"><ele>808.0</ele><time>2026-04-24T09:39:32.975Z</time></trkpt><trkpt lat="43.5465113" lon="12.4915273"><ele>808.0</ele><time>2026-04-24T09:39:33.975Z</time></trkpt><trkpt lat="43.5463201" lon="12.4915059"><ele>808.0</ele><time>2026-04-24T09:39:34.976Z</time></trkpt><trkpt lat="43.5461336" lon="12.4914836"><ele>808.0</ele><time>2026-04-24T09:39:35.975Z</time></trkpt><trkpt lat="43.5459431" lon="12.4914564"><ele>806.3333333333333</ele><time>2026-04-24T09:39:36.975Z</time></trkpt><trkpt lat="43.5457533" lon="12.491431"><ele>804.6666666666667</ele><time>2026-04-24T09:39:37.976Z</time></trkpt><trkpt lat="43.5455692" lon="12.4914101"><ele>803.0</ele><time>2026-04-24T09:39:38.975Z</time></trkpt><trkpt lat="43.5453873" lon="12.4914019"><ele>797.6666666666667</ele><time>2026-04-24T09:39:39.974Z</time></trkpt><trkpt lat="43.545217" lon="12.4914145"><ele>792.3333333333333</ele><time>2026-04-24T09:39:40.975Z</time></trkpt><trkpt lat="43.5450553" lon="12.4914419"><ele>787.0</ele><time>2026-04-24T09:39:41.975Z</time></trkpt><trkpt lat="43.544906" lon="12.4914724"><ele>787.0</ele><time>2026-04-24T09:39:42.975Z</time></trkpt><trkpt lat="43.5447685" lon="12.491478"><ele>787.0</ele><time>2026-04-24T09:39:43.975Z</time></trkpt><trkpt lat="43.5446415" lon="12.4914438"><ele>787.0</ele><time>2026-04-24T09:39:44.975Z</time></trkpt><trkpt lat="43.5445257" lon="12.4913766"><ele>787.0</ele><time>2026-04-24T09:39:45.975Z</time></trkpt><trkpt lat="43.5444277" lon="12.4912691"><ele>784.4000000000001</ele><time>2026-04-24T09:39:46.975Z</time></trkpt><trkpt lat="43.5443537" lon="12.4911292"><ele>781.8000000000001</ele><time>2026-04-24T09:39:47.975Z</time></trkpt><trkpt lat="43.5443009" lon="12.4909857"><ele>779.2</ele><time>2026-04-24T09:39:48.975Z</time></trkpt><trkpt lat="43.5442583" lon="12.4908551"><ele>776.6</ele><time>2026-04-24T09:39:49.976Z</time></trkpt><trkpt lat="43.5442315" lon="12.4907313"><ele>774.0</ele><time>2026-04-24T09:39:50.975Z</time></trkpt><trkpt lat="43.5442193" lon="12.4906032"><ele>774.0</ele><time>2026-04-24T09:39:51.976Z</time></trkpt><trkpt lat="43.5442244" lon="12.4904797"><ele>774.0</ele><time>2026-04-24T09:39:52.976Z</time></trkpt><trkpt lat="43.5442468" lon="12.4903666"><ele>774.0</ele><time>2026-04-24T09:39:53.976Z</time></trkpt><trkpt lat="43.544286" lon="12.4902776"><ele>774.0</ele><time>2026-04-24T09:39:54.976Z</time></trkpt><trkpt lat="43.5443366" lon="12.4901984"><ele>774.0</ele><time>2026-04-24T09:39:55.976Z</time></trkpt><trkpt lat="43.5444149" lon="12.4901163"><ele>774.0</ele><time>2026-04-24T09:39:56.976Z</time></trkpt><trkpt lat="43.5445062" lon="12.4900451"><ele>773.0</ele><time>2026-04-24T09:39:57.975Z</time></trkpt><trkpt lat="43.5446072" lon="12.4899693"><ele>772.0</ele><time>2026-04-24T09:39:58.975Z</time></trkpt><trkpt lat="43.5447109" lon="12.4898894"><ele>771.0</ele><time>2026-04-24T09:39:59.975Z</time></trkpt><trkpt lat="43.5448243" lon="12.4898104"><ele>770.0</ele><time>2026-04-24T09:40:00.975Z</time></trkpt><trkpt lat="43.5449473" lon="12.4897409"><ele>770.0</ele><time>2026-04-24T09:40:01.975Z</time></trkpt><trkpt lat="43.5450808" lon="12.4896749"><ele>770.0</ele><time>2026-04-24T09:40:02.975Z</time></trkpt><trkpt lat="43.5452208" lon="12.4895978"><ele>770.0</ele><time>2026-04-24T09:40:03.975Z</time></trkpt><trkpt lat="43.5453663" lon="12.4895101"><ele>769.0</ele><time>2026-04-24T09:40:04.975Z</time></trkpt><trkpt lat="43.5455177" lon="12.4894144"><ele>768.0</ele><time>2026-04-24T09:40:05.975Z</time></trkpt><trkpt lat="43.5456761" lon="12.4893135"><ele>767.0</ele><time>2026-04-24T09:40:06.975Z</time></trkpt><trkpt lat="43.5458351" lon="12.4891972"><ele>767.0</ele><time>2026-04-24T09:40:07.975Z</time></trkpt><trkpt lat="43.5459917" lon="12.4890622"><ele>767.0</ele><time>2026-04-24T09:40:08.975Z</time></trkpt><trkpt lat="43.5461423" lon="12.4889139"><ele>767.0</ele><time>2026-04-24T09:40:09.976Z</time></trkpt><trkpt lat="43.5462912" lon="12.4887567"><ele>764.0</ele><time>2026-04-24T09:40:10.975Z</time></trkpt><trkpt lat="43.5464393" lon="12.4885927"><ele>761.0</ele><time>2026-04-24T09:40:11.975Z</time></trkpt><trkpt lat="43.5465949" lon="12.4884277"><ele>758.0</ele><time>2026-04-24T09:40:12.975Z</time></trkpt><trkpt lat="43.5467542" lon="12.4882713"><ele>758.0</ele><time>2026-04-24T09:40:13.975Z</time></trkpt><trkpt lat="43.5469191" lon="12.4881266"><ele>758.0</ele><time>2026-04-24T09:40:14.976Z</time></trkpt><trkpt lat="43.5470867" lon="12.4879868"><ele>758.0</ele><time>2026-04-24T09:40:15.975Z</time></trkpt><trkpt lat="43.5472567" lon="12.4878496"><ele>757.3333333333333</ele><time>2026-04-24T09:40:16.975Z</time></trkpt><trkpt lat="43.5474315" lon="12.4877264"><ele>756.6666666666666</ele><time>2026-04-24T09:40:17.976Z</time></trkpt><trkpt lat="43.5476104" lon="12.4876122"><ele>756.0</ele><time>2026-04-24T09:40:18.975Z</time></trkpt><trkpt lat="43.5477922" lon="12.4875007"><ele>756.0</ele><time>2026-04-24T09:40:19.975Z</time></trkpt><trkpt lat="43.5479769" lon="12.487395"><ele>756.0</ele><time>2026-04-24T09:40:20.976Z</time></trkpt><trkpt lat="43.5481649" lon="12.4872936"><ele>756.0</ele><time>2026-04-24T09:40:21.975Z</time></trkpt><trkpt lat="43.5483533" lon="12.4871933"><ele>755.6666666666666</ele><time>2026-04-24T09:40:22.975Z</time></trkpt><trkpt lat="43.5485422" lon="12.4870883"><ele>755.3333333333333</ele><time>2026-04-24T09:40:23.975Z</time></trkpt><trkpt lat="43.5487332" lon="12.4869851"><ele>755.0</ele><time>2026-04-24T09:40:24.977Z</time></trkpt><trkpt lat="43.5489256" lon="12.4868819"><ele>754.3333333333333</ele><time>2026-04-24T09:40:25.976Z</time></trkpt><trkpt lat="43.5491161" lon="12.4867774"><ele>753.6666666666666</ele><time>2026-04-24T09:40:26.975Z</time></trkpt><trkpt lat="43.549305" lon="12.4866713"><ele>753.0</ele><time>2026-04-24T09:40:27.975Z</time></trkpt><trkpt lat="43.5494936" lon="12.4865669"><ele>752.3333333333334</ele><time>2026-04-24T09:40:28.975Z</time></trkpt><trkpt lat="43.5496812" lon="12.4864642"><ele>751.6666666666667</ele><time>2026-04-24T09:40:29.976Z</time></trkpt><trkpt lat="43.5498692" lon="12.486362"><ele>751.0</ele><time>2026-04-24T09:40:30.975Z</time></trkpt><trkpt lat="43.5500552" lon="12.4862601"><ele>751.0</ele><time>2026-04-24T09:40:31.975Z</time></trkpt><trkpt lat="43.5502419" lon="12.4861589"><ele>751.0</ele><time>2026-04-24T09:40:32.975Z</time></trkpt><trkpt lat="43.5504278" lon="12.4860605"><ele>751.0</ele><time>2026-04-24T09:40:33.975Z</time></trkpt><trkpt lat="43.5506131" lon="12.4859634"><ele>750.3333333333334</ele><time>2026-04-24T09:40:34.975Z</time></trkpt><trkpt lat="43.5507985" lon="12.4858659"><ele>749.6666666666666</ele><time>2026-04-24T09:40:35.976Z</time></trkpt><trkpt lat="43.5509835" lon="12.4857681"><ele>749.0</ele><time>2026-04-24T09:40:36.975Z</time></trkpt><trkpt lat="43.5511677" lon="12.4856709"><ele>748.6666666666666</ele><time>2026-04-24T09:40:37.975Z</time></trkpt><trkpt lat="43.5513501" lon="12.4855782"><ele>748.3333333333334</ele><time>2026-04-24T09:40:38.975Z</time></trkpt><trkpt lat="43.5515291" lon="12.4854871"><ele>748.0</ele><time>2026-04-24T09:40:39.975Z</time></trkpt><trkpt lat="43.551697" lon="12.4853984"><ele>747.3333333333334</ele><time>2026-04-24T09:40:40.975Z</time></trkpt><trkpt lat="43.5518555" lon="12.4853121"><ele>746.6666666666666</ele><time>2026-04-24T09:40:41.975Z</time></trkpt><trkpt lat="43.5519962" lon="12.48523"><ele>746.0</ele><time>2026-04-24T09:40:42.975Z</time></trkpt><trkpt lat="43.5521191" lon="12.4851448"><ele>746.0</ele><time>2026-04-24T09:40:43.975Z</time></trkpt><trkpt lat="43.5522132" lon="12.4850256"><ele>746.0</ele><time>2026-04-24T09:40:44.976Z</time></trkpt><trkpt lat="43.5522687" lon="12.4848627"><ele>746.0</ele><time>2026-04-24T09:40:45.975Z</time></trkpt><trkpt lat="43.5522755" lon="12.4846689"><ele>746.0</ele><time>2026-04-24T09:40:46.976Z</time></trkpt><trkpt lat="43.5522451" lon="12.4844559"><ele>738.3333333333333</ele><time>2026-04-24T09:40:47.975Z</time></trkpt><trkpt lat="43.5521931" lon="12.4842305"><ele>730.6666666666666</ele><time>2026-04-24T09:40:48.975Z</time></trkpt><trkpt lat="43.552142" lon="12.4839899"><ele>723.0</ele><time>2026-04-24T09:40:49.975Z</time></trkpt><trkpt lat="43.5520909" lon="12.4837422"><ele>720.3333333333334</ele><time>2026-04-24T09:40:50.975Z</time></trkpt><trkpt lat="43.5520414" lon="12.4835037"><ele>717.6666666666667</ele><time>2026-04-24T09:40:51.975Z</time></trkpt><trkpt lat="43.5519927" lon="12.4832888"><ele>715.0</ele><time>2026-04-24T09:40:52.976Z</time></trkpt><trkpt lat="43.5519224" lon="12.4831095"><ele>719.0</ele><time>2026-04-24T09:40:53.976Z</time></trkpt><trkpt lat="43.5518109" lon="12.4829661"><ele>723.0</ele><time>2026-04-24T09:40:54.975Z</time></trkpt><trkpt lat="43.551668" lon="12.4828433"><ele>727.0</ele><time>2026-04-24T09:40:55.977Z</time></trkpt><trkpt lat="43.5515299" lon="12.4827072"><ele>727.0</ele><time>2026-04-24T09:40:56.975Z</time></trkpt><trkpt lat="43.5514139" lon="12.4825521"><ele>727.0</ele><time>2026-04-24T09:40:57.976Z</time></trkpt><trkpt lat="43.5513425" lon="12.4823723"><ele>727.0</ele><time>2026-04-24T09:40:58.975Z</time></trkpt><trkpt lat="43.5513262" lon="12.4821632"><ele>721.6666666666667</ele><time>2026-04-24T09:40:59.975Z</time></trkpt><trkpt lat="43.5513365" lon="12.4819573"><ele>716.3333333333334</ele><time>2026-04-24T09:41:00.975Z</time></trkpt><trkpt lat="43.5513163" lon="12.4817292"><ele>711.0</ele><time>2026-04-24T09:41:01.976Z</time></trkpt><trkpt lat="43.5512627" lon="12.4815004"><ele>711.0</ele><time>2026-04-24T09:41:02.975Z</time></trkpt><trkpt lat="43.5512095" lon="12.4812762"><ele>711.0</ele><time>2026-04-24T09:41:03.976Z</time></trkpt><trkpt lat="43.5511936" lon="12.4810433"><ele>711.0</ele><time>2026-04-24T09:41:04.975Z</time></trkpt><trkpt lat="43.5512226" lon="12.4808068"><ele>711.0</ele><time>2026-04-24T09:41:05.976Z</time></trkpt><trkpt lat="43.5512958" lon="12.4805872"><ele>711.0</ele><time>2026-04-24T09:41:06.975Z</time></trkpt><trkpt lat="43.5513973" lon="12.4803726"><ele>711.0</ele><time>2026-04-24T09:41:07.976Z</time></trkpt><trkpt lat="43.5515044" lon="12.4801585"><ele>711.0</ele><time>2026-04-24T09:41:08.975Z</time></trkpt><trkpt lat="43.551616" lon="12.4799395"><ele>711.0</ele><time>2026-04-24T09:41:09.975Z</time></trkpt><trkpt lat="43.5517293" lon="12.4797215"><ele>711.0</ele><time>2026-04-24T09:41:10.975Z</time></trkpt><trkpt lat="43.5518416" lon="12.4795016"><ele>712.0</ele><time>2026-04-24T09:41:11.976Z</time></trkpt><trkpt lat="43.5519478" lon="12.4792687"><ele>713.0</ele><time>2026-04-24T09:41:12.976Z</time></trkpt><trkpt lat="43.5520398" lon="12.4790244"><ele>714.0</ele><time>2026-04-24T09:41:13.975Z</time></trkpt><trkpt lat="43.5521168" lon="12.4787683"><ele>708.3333333333334</ele><time>2026-04-24T09:41:14.975Z</time></trkpt><trkpt lat="43.5521875" lon="12.4785076"><ele>702.6666666666667</ele><time>2026-04-24T09:41:15.976Z</time></trkpt><trkpt lat="43.5522593" lon="12.4782571"><ele>697.0</ele><time>2026-04-24T09:41:16.975Z</time></trkpt><trkpt lat="43.5523476" lon="12.4780198"><ele>699.0</ele><time>2026-04-24T09:41:17.975Z</time></trkpt><trkpt lat="43.5524742" lon="12.4778004"><ele>701.0</ele><time>2026-04-24T09:41:18.975Z</time></trkpt><trkpt lat="43.5526323" lon="12.4776067"><ele>703.0</ele><time>2026-04-24T09:41:19.976Z</time></trkpt><trkpt lat="43.5528035" lon="12.4774186"><ele>699.6666666666667</ele><time>2026-04-24T09:41:20.976Z</time></trkpt><trkpt lat="43.5529733" lon="12.4772309"><ele>696.3333333333334</ele><time>2026-04-24T09:41:21.975Z</time></trkpt><trkpt lat="43.5531371" lon="12.477046"><ele>693.0</ele><time>2026-04-24T09:41:22.975Z</time></trkpt><trkpt lat="43.5532958" lon="12.4768654"><ele>693.0</ele><time>2026-04-24T09:41:23.975Z</time></trkpt><trkpt lat="43.553452" lon="12.476689"><ele>693.0</ele><time>2026-04-24T09:41:24.975Z</time></trkpt><trkpt lat="43.5536094" lon="12.4765241"><ele>693.0</ele><time>2026-04-24T09:41:25.975Z</time></trkpt><trkpt lat="43.5537712" lon="12.4763766"><ele>694.6666666666666</ele><time>2026-04-24T09:41:26.976Z</time></trkpt><trkpt lat="43.5539456" lon="12.4762616"><ele>696.3333333333333</ele><time>2026-04-24T09:41:27.975Z</time></trkpt><trkpt lat="43.5541354" lon="12.4762024"><ele>698.0</ele><time>2026-04-24T09:41:28.976Z</time></trkpt><trkpt lat="43.5543352" lon="12.4761745"><ele>698.0</ele><time>2026-04-24T09:41:29.975Z</time></trkpt><trkpt lat="43.5545369" lon="12.4761445"><ele>698.0</ele><time>2026-04-24T09:41:30.975Z</time></trkpt><trkpt lat="43.5547417" lon="12.4760861"><ele>698.0</ele><time>2026-04-24T09:41:31.975Z</time></trkpt><trkpt lat="43.5549438" lon="12.4760085"><ele>694.0</ele><time>2026-04-24T09:41:32.976Z</time></trkpt><trkpt lat="43.5551473" lon="12.4759074"><ele>690.0</ele><time>2026-04-24T09:41:33.975Z</time></trkpt><trkpt lat="43.5553523" lon="12.4758023"><ele>686.0</ele><time>2026-04-24T09:41:34.977Z</time></trkpt><trkpt lat="43.5555554" lon="12.475701"><ele>685.3333333333333</ele><time>2026-04-24T09:41:35.975Z</time></trkpt><trkpt lat="43.5557494" lon="12.4756083"><ele>684.6666666666666</ele><time>2026-04-24T09:41:36.975Z</time></trkpt><trkpt lat="43.55594" lon="12.4755186"><ele>684.0</ele><time>2026-04-24T09:41:37.975Z</time></trkpt><trkpt lat="43.556125" lon="12.4754319"><ele>678.0</ele><time>2026-04-24T09:41:38.975Z</time></trkpt><trkpt lat="43.5562947" lon="12.4753473"><ele>672.0</ele><time>2026-04-24T09:41:39.975Z</time></trkpt><trkpt lat="43.5564437" lon="12.4752646"><ele>666.0</ele><time>2026-04-24T09:41:40.976Z</time></trkpt><trkpt lat="43.5565798" lon="12.4751709"><ele>666.0</ele><time>2026-04-24T09:41:41.975Z</time></trkpt><trkpt lat="43.5566778" lon="12.4750369"><ele>666.0</ele><time>2026-04-24T09:41:42.975Z</time></trkpt><trkpt lat="43.5567407" lon="12.4748555"><ele>666.0</ele><time>2026-04-24T09:41:43.975Z</time></trkpt><trkpt lat="43.5567979" lon="12.4746587"><ele>666.0</ele><time>2026-04-24T09:41:44.975Z</time></trkpt><trkpt lat="43.5568246" lon="12.4744049"><ele>666.6666666666666</ele><time>2026-04-24T09:41:45.975Z</time></trkpt><trkpt lat="43.5568625" lon="12.4741572"><ele>667.3333333333333</ele><time>2026-04-24T09:41:46.976Z</time></trkpt><trkpt lat="43.5568974" lon="12.4739067"><ele>668.0</ele><time>2026-04-24T09:41:47.975Z</time></trkpt><trkpt lat="43.5569351" lon="12.4736569"><ele>665.0</ele><time>2026-04-24T09:41:48.975Z</time></trkpt><trkpt lat="43.5569689" lon="12.4734166"><ele>662.0</ele><time>2026-04-24T09:41:49.975Z</time></trkpt><trkpt lat="43.557003" lon="12.4731829"><ele>659.0</ele><time>2026-04-24T09:41:50.975Z</time></trkpt><trkpt lat="43.5570281" lon="12.4729543"><ele>656.6666666666666</ele><time>2026-04-24T09:41:51.975Z</time></trkpt><trkpt lat="43.5570259" lon="12.4727169"><ele>654.3333333333334</ele><time>2026-04-24T09:41:52.975Z</time></trkpt><trkpt lat="43.5569854" lon="12.4724675"><ele>652.0</ele><time>2026-04-24T09:41:53.975Z</time></trkpt><trkpt lat="43.5569176" lon="12.4722223"><ele>648.0</ele><time>2026-04-24T09:41:54.975Z</time></trkpt><trkpt lat="43.5568458" lon="12.4719699"><ele>644.0</ele><time>2026-04-24T09:41:55.975Z</time></trkpt><trkpt lat="43.5567968" lon="12.4717063"><ele>640.0</ele><time>2026-04-24T09:41:56.975Z</time></trkpt><trkpt lat="43.5567708" lon="12.4714359"><ele>639.0</ele><time>2026-04-24T09:41:57.976Z</time></trkpt><trkpt lat="43.5567643" lon="12.4711598"><ele>638.0</ele><time>2026-04-24T09:41:58.976Z</time></trkpt><trkpt lat="43.55678" lon="12.4708848"><ele>637.0</ele><time>2026-04-24T09:41:59.975Z</time></trkpt><trkpt lat="43.5568198" lon="12.4706104"><ele>637.3333333333334</ele><time>2026-04-24T09:42:00.975Z</time></trkpt><trkpt lat="43.5568709" lon="12.4703394"><ele>637.6666666666666</ele><time>2026-04-24T09:42:01.974Z</time></trkpt><trkpt lat="43.556927" lon="12.4700667"><ele>638.0</ele><time>2026-04-24T09:42:02.975Z</time></trkpt><trkpt lat="43.5569817" lon="12.4697832"><ele>631.0</ele><time>2026-04-24T09:42:03.974Z</time></trkpt><trkpt lat="43.5570421" lon="12.4694982"><ele>624.0</ele><time>2026-04-24T09:42:04.974Z</time></trkpt><trkpt lat="43.5571142" lon="12.4692144"><ele>617.0</ele><time>2026-04-24T09:42:05.975Z</time></trkpt><trkpt lat="43.5571998" lon="12.4689356"><ele>618.3333333333333</ele><time>2026-04-24T09:42:06.974Z</time></trkpt><trkpt lat="43.5572941" lon="12.4686611"><ele>619.6666666666666</ele><time>2026-04-24T09:42:07.974Z</time></trkpt><trkpt lat="43.5573959" lon="12.468391"><ele>621.0</ele><time>2026-04-24T09:42:08.974Z</time></trkpt><trkpt lat="43.5575091" lon="12.4681317"><ele>621.3333333333334</ele><time>2026-04-24T09:42:09.974Z</time></trkpt><trkpt lat="43.5576299" lon="12.4678792"><ele>621.6666666666667</ele><time>2026-04-24T09:42:10.974Z</time></trkpt><trkpt lat="43.557759" lon="12.4676377"><ele>622.0</ele><time>2026-04-24T09:42:11.974Z</time></trkpt><trkpt lat="43.5578941" lon="12.467406"><ele>619.0</ele><time>2026-04-24T09:42:12.974Z</time></trkpt><trkpt lat="43.5580326" lon="12.4671762"><ele>616.0</ele><time>2026-04-24T09:42:13.974Z</time></trkpt><trkpt lat="43.5581724" lon="12.4669477"><ele>613.0</ele><time>2026-04-24T09:42:14.974Z</time></trkpt><trkpt lat="43.5583111" lon="12.4667178"><ele>613.0</ele><time>2026-04-24T09:42:15.974Z</time></trkpt><trkpt lat="43.558449" lon="12.4664878"><ele>613.0</ele><time>2026-04-24T09:42:16.975Z</time></trkpt><trkpt lat="43.5585803" lon="12.4662533"><ele>613.0</ele><time>2026-04-24T09:42:17.974Z</time></trkpt><trkpt lat="43.5586958" lon="12.4660028"><ele>610.0</ele><time>2026-04-24T09:42:18.975Z</time></trkpt><trkpt lat="43.5587952" lon="12.4657358"><ele>607.0</ele><time>2026-04-24T09:42:19.974Z</time></trkpt><trkpt lat="43.5588806" lon="12.4654624"><ele>604.0</ele><time>2026-04-24T09:42:20.974Z</time></trkpt><trkpt lat="43.5589575" lon="12.4651917"><ele>604.0</ele><time>2026-04-24T09:42:21.975Z</time></trkpt><trkpt lat="43.5590299" lon="12.4649292"><ele>604.0</ele><time>2026-04-24T09:42:22.974Z</time></trkpt><trkpt lat="43.5590977" lon="12.4646751"><ele>604.0</ele><time>2026-04-24T09:42:23.974Z</time></trkpt><trkpt lat="43.5591639" lon="12.4644331"><ele>604.6666666666667</ele><time>2026-04-24T09:42:24.974Z</time></trkpt><trkpt lat="43.5592248" lon="12.464199"><ele>605.3333333333334</ele><time>2026-04-24T09:42:25.974Z</time></trkpt><trkpt lat="43.5592733" lon="12.4639575"><ele>606.0</ele><time>2026-04-24T09:42:26.975Z</time></trkpt><trkpt lat="43.5592965" lon="12.4636956"><ele>604.0</ele><time>2026-04-24T09:42:27.975Z</time></trkpt><trkpt lat="43.5592947" lon="12.4634299"><ele>602.0</ele><time>2026-04-24T09:42:28.974Z</time></trkpt><trkpt lat="43.559281" lon="12.4631769"><ele>600.0</ele><time>2026-04-24T09:42:29.974Z</time></trkpt><trkpt lat="43.5592657" lon="12.4629267"><ele>597.6666666666666</ele><time>2026-04-24T09:42:30.974Z</time></trkpt><trkpt lat="43.5592481" lon="12.4626785"><ele>595.3333333333333</ele><time>2026-04-24T09:42:31.975Z</time></trkpt><trkpt lat="43.5592315" lon="12.4624305"><ele>593.0</ele><time>2026-04-24T09:42:32.974Z</time></trkpt><trkpt lat="43.5591992" lon="12.4621762"><ele>591.0</ele><time>2026-04-24T09:42:33.974Z</time></trkpt><trkpt lat="43.5591462" lon="12.4619199"><ele>589.0</ele><time>2026-04-24T09:42:34.974Z</time></trkpt><trkpt lat="43.5590757" lon="12.4616692"><ele>587.0</ele><time>2026-04-24T09:42:35.974Z</time></trkpt><trkpt lat="43.5589988" lon="12.4614238"><ele>585.0</ele><time>2026-04-24T09:42:36.974Z</time></trkpt><trkpt lat="43.5589192" lon="12.46119"><ele>583.0</ele><time>2026-04-24T09:42:37.974Z</time></trkpt><trkpt lat="43.5588373" lon="12.4609666"><ele>581.0</ele><time>2026-04-24T09:42:38.974Z</time></trkpt><trkpt lat="43.558761" lon="12.4607605"><ele>581.0</ele><time>2026-04-24T09:42:39.974Z</time></trkpt><trkpt lat="43.5587058" lon="12.4606024"><ele>581.0</ele><time>2026-04-24T09:42:40.974Z</time></trkpt><trkpt lat="43.5586773" lon="12.460468"><ele>581.0</ele><time>2026-04-24T09:42:41.974Z</time></trkpt><trkpt lat="43.5586692" lon="12.4603369"><ele>581.0</ele><time>2026-04-24T09:42:42.974Z</time></trkpt><trkpt lat="43.5587298" lon="12.4601851"><ele>581.75</ele><time>2026-04-24T09:42:43.974Z</time></trkpt><trkpt lat="43.5588049" lon="12.4600632"><ele>582.5</ele><time>2026-04-24T09:42:44.974Z</time></trkpt><trkpt lat="43.5589091" lon="12.4599785"><ele>583.25</ele><time>2026-04-24T09:42:45.974Z</time></trkpt><trkpt lat="43.559027" lon="12.4599453"><ele>584.0</ele><time>2026-04-24T09:42:46.974Z</time></trkpt><trkpt lat="43.559151" lon="12.4599773"><ele>584.0</ele><time>2026-04-24T09:42:47.974Z</time></trkpt><trkpt lat="43.5592823" lon="12.4600323"><ele>584.0</ele><time>2026-04-24T09:42:48.974Z</time></trkpt><trkpt lat="43.5594375" lon="12.4600645"><ele>584.0</ele><time>2026-04-24T09:42:49.974Z</time></trkpt><trkpt lat="43.5596046" lon="12.4600795"><ele>582.6666666666666</ele><time>2026-04-24T09:42:50.974Z</time></trkpt><trkpt lat="43.5597828" lon="12.4600757"><ele>581.3333333333334</ele><time>2026-04-24T09:42:51.975Z</time></trkpt><trkpt lat="43.5599688" lon="12.4600584"><ele>580.0</ele><time>2026-04-24T09:42:52.974Z</time></trkpt><trkpt lat="43.5601599" lon="12.4600328"><ele>580.0</ele><time>2026-04-24T09:42:53.974Z</time></trkpt><trkpt lat="43.560355" lon="12.460012"><ele>580.0</ele><time>2026-04-24T09:42:54.974Z</time></trkpt><trkpt lat="43.5605561" lon="12.4599969"><ele>580.0</ele><time>2026-04-24T09:42:55.974Z</time></trkpt><trkpt lat="43.5607591" lon="12.4599971"><ele>577.0</ele><time>2026-04-24T09:42:56.974Z</time></trkpt><trkpt lat="43.5609588" lon="12.460004"><ele>574.0</ele><time>2026-04-24T09:42:57.975Z</time></trkpt><trkpt lat="43.5611528" lon="12.4599976"><ele>571.0</ele><time>2026-04-24T09:42:58.974Z</time></trkpt><trkpt lat="43.5613407" lon="12.4599914"><ele>570.0</ele><time>2026-04-24T09:42:59.975Z</time></trkpt><trkpt lat="43.5615214" lon="12.4600027"><ele>569.0</ele><time>2026-04-24T09:43:00.975Z</time></trkpt><trkpt lat="43.5616968" lon="12.4600517"><ele>568.0</ele><time>2026-04-24T09:43:01.974Z</time></trkpt><trkpt lat="43.5618531" lon="12.4601461"><ele>568.0</ele><time>2026-04-24T09:43:02.974Z</time></trkpt><trkpt lat="43.5620019" lon="12.4602761"><ele>568.0</ele><time>2026-04-24T09:43:03.974Z</time></trkpt><trkpt lat="43.5621505" lon="12.4604186"><ele>568.0</ele><time>2026-04-24T09:43:04.975Z</time></trkpt><trkpt lat="43.5622991" lon="12.460567"><ele>564.0</ele><time>2026-04-24T09:43:05.974Z</time></trkpt><trkpt lat="43.5624403" lon="12.4607188"><ele>560.0</ele><time>2026-04-24T09:43:06.976Z</time></trkpt><trkpt lat="43.5625734" lon="12.4608743"><ele>556.0</ele><time>2026-04-24T09:43:07.974Z</time></trkpt><trkpt lat="43.5627143" lon="12.4610192"><ele>558.3333333333334</ele><time>2026-04-24T09:43:08.974Z</time></trkpt><trkpt lat="43.5628753" lon="12.4611426"><ele>560.6666666666666</ele><time>2026-04-24T09:43:09.976Z</time></trkpt><trkpt lat="43.5630549" lon="12.4612347"><ele>563.0</ele><time>2026-04-24T09:43:10.974Z</time></trkpt><trkpt lat="43.5632427" lon="12.4613063"><ele>556.3333333333333</ele><time>2026-04-24T09:43:11.974Z</time></trkpt><trkpt lat="43.5634395" lon="12.461376"><ele>549.6666666666666</ele><time>2026-04-24T09:43:12.975Z</time></trkpt><trkpt lat="43.5636388" lon="12.4614446"><ele>543.0</ele><time>2026-04-24T09:43:13.974Z</time></trkpt><trkpt lat="43.5638391" lon="12.4615169"><ele>542.6666666666666</ele><time>2026-04-24T09:43:14.975Z</time></trkpt><trkpt lat="43.5640371" lon="12.4615887"><ele>542.3333333333333</ele><time>2026-04-24T09:43:15.974Z</time></trkpt><trkpt lat="43.5642336" lon="12.4616564"><ele>542.0</ele><time>2026-04-24T09:43:16.974Z</time></trkpt><trkpt lat="43.5644255" lon="12.4617213"><ele>542.6666666666666</ele><time>2026-04-24T09:43:17.974Z</time></trkpt><trkpt lat="43.5646148" lon="12.4617837"><ele>543.3333333333334</ele><time>2026-04-24T09:43:18.974Z</time></trkpt><trkpt lat="43.5647973" lon="12.4618449"><ele>544.0</ele><time>2026-04-24T09:43:19.975Z</time></trkpt><trkpt lat="43.5649695" lon="12.4619146"><ele>544.0</ele><time>2026-04-24T09:43:20.975Z</time></trkpt><trkpt lat="43.5651311" lon="12.4620028"><ele>544.0</ele><time>2026-04-24T09:43:21.976Z</time></trkpt><trkpt lat="43.5652716" lon="12.46213"><ele>544.0</ele><time>2026-04-24T09:43:22.975Z</time></trkpt><trkpt lat="43.5653884" lon="12.4622902"><ele>543.0</ele><time>2026-04-24T09:43:23.976Z</time></trkpt><trkpt lat="43.565471" lon="12.4624703"><ele>542.0</ele><time>2026-04-24T09:43:24.974Z</time></trkpt><trkpt lat="43.5655208" lon="12.4626444"><ele>541.0</ele><time>2026-04-24T09:43:25.974Z</time></trkpt><trkpt lat="43.5655789" lon="12.4628022"><ele>540.0</ele><time>2026-04-24T09:43:26.974Z</time></trkpt><trkpt lat="43.5656639" lon="12.4629316"><ele>533.5</ele><time>2026-04-24T09:43:27.974Z</time></trkpt><trkpt lat="43.5657887" lon="12.4630183"><ele>527.0</ele><time>2026-04-24T09:43:28.974Z</time></trkpt><trkpt lat="43.5659295" lon="12.4630621"><ele>520.5</ele><time>2026-04-24T09:43:29.975Z</time></trkpt><trkpt lat="43.5660851" lon="12.4630813"><ele>514.0</ele><time>2026-04-24T09:43:30.974Z</time></trkpt><trkpt lat="43.5662524" lon="12.4630714"><ele>509.33333333333337</ele><time>2026-04-24T09:43:31.974Z</time></trkpt><trkpt lat="43.5664113" lon="12.4630313"><ele>504.66666666666663</ele><time>2026-04-24T09:43:32.974Z</time></trkpt><trkpt lat="43.5665538" lon="12.46296"><ele>500.0</ele><time>2026-04-24T09:43:33.974Z</time></trkpt><trkpt lat="43.566676" lon="12.4628517"><ele>507.5</ele><time>2026-04-24T09:43:34.974Z</time></trkpt><trkpt lat="43.5667654" lon="12.462704"><ele>515.0</ele><time>2026-04-24T09:43:35.975Z</time></trkpt><trkpt lat="43.5668208" lon="12.4625217"><ele>522.5</ele><time>2026-04-24T09:43:36.975Z</time></trkpt><trkpt lat="43.5668411" lon="12.4623177"><ele>530.0</ele><time>2026-04-24T09:43:37.974Z</time></trkpt><trkpt lat="43.5668543" lon="12.4621255"><ele>528.5</ele><time>2026-04-24T09:43:38.974Z</time></trkpt><trkpt lat="43.5668978" lon="12.461953"><ele>527.0</ele><time>2026-04-24T09:43:39.974Z</time></trkpt><trkpt lat="43.5669718" lon="12.4618181"><ele>525.5</ele><time>2026-04-24T09:43:40.974Z</time></trkpt><trkpt lat="43.5670688" lon="12.4617105"><ele>524.0</ele><time>2026-04-24T09:43:41.974Z</time></trkpt><trkpt lat="43.5672122" lon="12.4616827"><ele>524.0</ele><time>2026-04-24T09:43:42.974Z</time></trkpt><trkpt lat="43.5673256" lon="12.4617104"><ele>524.0</ele><time>2026-04-24T09:43:43.974Z</time></trkpt><trkpt lat="43.5674453" lon="12.4617477"><ele>524.0</ele><time>2026-04-24T09:43:44.974Z</time></trkpt><trkpt lat="43.5675734" lon="12.4617181"><ele>524.0</ele><time>2026-04-24T09:43:45.974Z</time></trkpt><trkpt lat="43.5676961" lon="12.4616215"><ele>524.0</ele><time>2026-04-24T09:43:46.975Z</time></trkpt><trkpt lat="43.5678093" lon="12.4614929"><ele>524.0</ele><time>2026-04-24T09:43:47.975Z</time></trkpt><trkpt lat="43.5679284" lon="12.4613657"><ele>524.0</ele><time>2026-04-24T09:43:48.975Z</time></trkpt><trkpt lat="43.5680589" lon="12.4612997"><ele>524.0</ele><time>2026-04-24T09:43:49.974Z</time></trkpt><trkpt lat="43.5681948" lon="12.4612979"><ele>521.5</ele><time>2026-04-24T09:43:50.974Z</time></trkpt><trkpt lat="43.5683299" lon="12.4613473"><ele>519.0</ele><time>2026-04-24T09:43:51.975Z</time></trkpt><trkpt lat="43.5684675" lon="12.4613575"><ele>516.5</ele><time>2026-04-24T09:43:52.974Z</time></trkpt><trkpt lat="43.5686127" lon="12.4613027"><ele>514.0</ele><time>2026-04-24T09:43:53.974Z</time></trkpt><trkpt lat="43.5687585" lon="12.4612163"><ele>520.6666666666667</ele><time>2026-04-24T09:43:54.974Z</time></trkpt><trkpt lat="43.568914" lon="12.4611152"><ele>527.3333333333334</ele><time>2026-04-24T09:43:55.975Z</time></trkpt><trkpt lat="43.5690762" lon="12.4610074"><ele>534.0</ele><time>2026-04-24T09:43:56.974Z</time></trkpt><trkpt lat="43.5692435" lon="12.4608987"><ele>534.0</ele><time>2026-04-24T09:43:57.974Z</time></trkpt><trkpt lat="43.5694134" lon="12.4608009"><ele>534.0</ele><time>2026-04-24T09:43:58.974Z</time></trkpt><trkpt lat="43.5695882" lon="12.4607352"><ele>534.0</ele><time>2026-04-24T09:43:59.974Z</time></trkpt><trkpt lat="43.5697602" lon="12.4607241"><ele>531.3333333333334</ele><time>2026-04-24T09:44:00.975Z</time></trkpt><trkpt lat="43.5699202" lon="12.4607534"><ele>528.6666666666667</ele><time>2026-04-24T09:44:01.974Z</time></trkpt><trkpt lat="43.5700751" lon="12.4607893"><ele>526.0</ele><time>2026-04-24T09:44:02.974Z</time></trkpt><trkpt lat="43.5702268" lon="12.4607761"><ele>521.6666666666667</ele><time>2026-04-24T09:44:03.974Z</time></trkpt><trkpt lat="43.5703752" lon="12.46071"><ele>517.3333333333334</ele><time>2026-04-24T09:44:04.975Z</time></trkpt><trkpt lat="43.5705217" lon="12.4606094"><ele>513.0</ele><time>2026-04-24T09:44:05.974Z</time></trkpt><trkpt lat="43.5706743" lon="12.4605022"><ele>520.0</ele><time>2026-04-24T09:44:06.974Z</time></trkpt><trkpt lat="43.5708363" lon="12.4604033"><ele>527.0</ele><time>2026-04-24T09:44:07.974Z</time></trkpt><trkpt lat="43.5710089" lon="12.4603337"><ele>534.0</ele><time>2026-04-24T09:44:08.974Z</time></trkpt><trkpt lat="43.5711869" lon="12.4603027"><ele>531.6666666666666</ele><time>2026-04-24T09:44:09.975Z</time></trkpt><trkpt lat="43.5713603" lon="12.4603135"><ele>529.3333333333333</ele><time>2026-04-24T09:44:10.974Z</time></trkpt><trkpt lat="43.5715174" lon="12.4603717"><ele>527.0</ele><time>2026-04-24T09:44:11.974Z</time></trkpt><trkpt lat="43.5716525" lon="12.4604663"><ele>523.75</ele><time>2026-04-24T09:44:12.974Z</time></trkpt><trkpt lat="43.5717746" lon="12.460561"><ele>520.5</ele><time>2026-04-24T09:44:13.974Z</time></trkpt><trkpt lat="43.5718942" lon="12.460632"><ele>517.25</ele><time>2026-04-24T09:44:14.974Z</time></trkpt><trkpt lat="43.5720194" lon="12.4606535"><ele>514.0</ele><time>2026-04-24T09:44:15.974Z</time></trkpt><trkpt lat="43.5721328" lon="12.4606112"><ele>514.0</ele><time>2026-04-24T09:44:16.974Z</time></trkpt><trkpt lat="43.5722356" lon="12.4605112"><ele>514.0</ele><time>2026-04-24T09:44:17.976Z</time></trkpt><trkpt lat="43.5723294" lon="12.4603747"><ele>514.0</ele><time>2026-04-24T09:44:18.974Z</time></trkpt><trkpt lat="43.5724232" lon="12.4602135"><ele>514.0</ele><time>2026-04-24T09:44:19.975Z</time></trkpt><trkpt lat="43.5725287" lon="12.4600435"><ele>516.6666666666667</ele><time>2026-04-24T09:44:20.974Z</time></trkpt><trkpt lat="43.572648" lon="12.4598859"><ele>519.3333333333334</ele><time>2026-04-24T09:44:21.974Z</time></trkpt><trkpt lat="43.5727791" lon="12.4597464"><ele>522.0</ele><time>2026-04-24T09:44:22.974Z</time></trkpt><trkpt lat="43.5729239" lon="12.4596337"><ele>521.0</ele><time>2026-04-24T09:44:23.975Z</time></trkpt><trkpt lat="43.5730695" lon="12.4595486"><ele>520.0</ele><time>2026-04-24T09:44:24.974Z</time></trkpt><trkpt lat="43.5732011" lon="12.4595161"><ele>519.0</ele><time>2026-04-24T09:44:25.975Z</time></trkpt><trkpt lat="43.5733331" lon="12.459528"><ele>518.0</ele><time>2026-04-24T09:44:26.974Z</time></trkpt><trkpt lat="43.5734652" lon="12.4595744"><ele>517.0</ele><time>2026-04-24T09:44:27.974Z</time></trkpt><trkpt lat="43.5736059" lon="12.459635"><ele>516.0</ele><time>2026-04-24T09:44:28.974Z</time></trkpt><trkpt lat="43.5737541" lon="12.4597038"><ele>515.0</ele><time>2026-04-24T09:44:29.975Z</time></trkpt><trkpt lat="43.5739144" lon="12.4597723"><ele>515.0</ele><time>2026-04-24T09:44:30.975Z</time></trkpt><trkpt lat="43.5740818" lon="12.4598536"><ele>515.0</ele><time>2026-04-24T09:44:31.974Z</time></trkpt><trkpt lat="43.5742549" lon="12.4599333"><ele>515.0</ele><time>2026-04-24T09:44:32.975Z</time></trkpt><trkpt lat="43.5744354" lon="12.4599987"><ele>510.3333333333333</ele><time>2026-04-24T09:44:33.974Z</time></trkpt><trkpt lat="43.5746247" lon="12.4600359"><ele>505.66666666666663</ele><time>2026-04-24T09:44:34.975Z</time></trkpt><trkpt lat="43.5748157" lon="12.4600436"><ele>501.0</ele><time>2026-04-24T09:44:35.974Z</time></trkpt><trkpt lat="43.5750082" lon="12.4600312"><ele>501.0</ele><time>2026-04-24T09:44:36.974Z</time></trkpt><trkpt lat="43.5752022" lon="12.4600094"><ele>501.0</ele><time>2026-04-24T09:44:37.974Z</time></trkpt><trkpt lat="43.5753934" lon="12.4599876"><ele>501.0</ele><time>2026-04-24T09:44:38.974Z</time></trkpt><trkpt lat="43.5755804" lon="12.4599621"><ele>499.66666666666663</ele><time>2026-04-24T09:44:39.974Z</time></trkpt><trkpt lat="43.5757675" lon="12.459908"><ele>498.3333333333333</ele><time>2026-04-24T09:44:40.975Z</time></trkpt><trkpt lat="43.5759497" lon="12.4597959"><ele>497.0</ele><time>2026-04-24T09:44:41.975Z</time></trkpt><trkpt lat="43.576119" lon="12.4596469"><ele>492.3333333333333</ele><time>2026-04-24T09:44:42.974Z</time></trkpt><trkpt lat="43.5762739" lon="12.4594772"><ele>487.66666666666663</ele><time>2026-04-24T09:44:43.975Z</time></trkpt><trkpt lat="43.5764156" lon="12.4592964"><ele>483.0</ele><time>2026-04-24T09:44:44.974Z</time></trkpt><trkpt lat="43.5765491" lon="12.4591133"><ele>483.0</ele><time>2026-04-24T09:44:45.974Z</time></trkpt><trkpt lat="43.5766739" lon="12.4589526"><ele>483.0</ele><time>2026-04-24T09:44:46.975Z</time></trkpt><trkpt lat="43.5768018" lon="12.4588232"><ele>483.0</ele><time>2026-04-24T09:44:47.974Z</time></trkpt><trkpt lat="43.5769375" lon="12.4587403"><ele>482.5</ele><time>2026-04-24T09:44:48.974Z</time></trkpt><trkpt lat="43.5770708" lon="12.4587216"><ele>482.0</ele><time>2026-04-24T09:44:49.974Z</time></trkpt><trkpt lat="43.5772113" lon="12.4587641"><ele>481.5</ele><time>2026-04-24T09:44:50.974Z</time></trkpt><trkpt lat="43.5773576" lon="12.45885"><ele>481.0</ele><time>2026-04-24T09:44:51.974Z</time></trkpt><trkpt lat="43.5775064" lon="12.4589407"><ele>481.0</ele><time>2026-04-24T09:44:52.974Z</time></trkpt><trkpt lat="43.5776483" lon="12.4590353"><ele>481.0</ele><time>2026-04-24T09:44:53.974Z</time></trkpt><trkpt lat="43.5777895" lon="12.4591241"><ele>481.0</ele><time>2026-04-24T09:44:54.975Z</time></trkpt><trkpt lat="43.5779189" lon="12.4592055"><ele>476.4</ele><time>2026-04-24T09:44:55.974Z</time></trkpt><trkpt lat="43.5780303" lon="12.4592633"><ele>471.8</ele><time>2026-04-24T09:44:56.974Z</time></trkpt><trkpt lat="43.5781275" lon="12.4592684"><ele>467.19999999999993</ele><time>2026-04-24T09:44:57.975Z</time></trkpt><trkpt lat="43.5782089" lon="12.4592127"><ele>462.59999999999997</ele><time>2026-04-24T09:44:58.974Z</time></trkpt><trkpt lat="43.5782575" lon="12.4591234"><ele>458.0</ele><time>2026-04-24T09:44:59.974Z</time></trkpt><trkpt lat="43.5782638" lon="12.4590088"><ele>458.0</ele><time>2026-04-24T09:45:00.974Z</time></trkpt><trkpt lat="43.5782231" lon="12.4588833"><ele>458.0</ele><time>2026-04-24T09:45:01.974Z</time></trkpt><trkpt lat="43.578124" lon="12.4587723"><ele>458.0</ele><time>2026-04-24T09:45:02.975Z</time></trkpt><trkpt lat="43.5779913" lon="12.458681"><ele>458.0</ele><time>2026-04-24T09:45:03.974Z</time></trkpt><trkpt lat="43.577835" lon="12.4585937"><ele>461.0</ele><time>2026-04-24T09:45:04.974Z</time></trkpt><trkpt lat="43.5776685" lon="12.4584978"><ele>464.0</ele><time>2026-04-24T09:45:05.975Z</time></trkpt><trkpt lat="43.5775022" lon="12.4583989"><ele>467.0</ele><time>2026-04-24T09:45:06.975Z</time></trkpt><trkpt lat="43.5773463" lon="12.4583055"><ele>467.0</ele><time>2026-04-24T09:45:07.974Z</time></trkpt><trkpt lat="43.5772132" lon="12.4582234"><ele>467.00000000000006</ele><time>2026-04-24T09:45:08.974Z</time></trkpt><trkpt lat="43.5771169" lon="12.4581309"><ele>467.00000000000006</ele><time>2026-04-24T09:45:09.975Z</time></trkpt><trkpt lat="43.5770582" lon="12.4580298"><ele>467.0</ele><time>2026-04-24T09:45:10.974Z</time></trkpt><trkpt lat="43.577051" lon="12.45792"><ele>467.0</ele><time>2026-04-24T09:45:11.974Z</time></trkpt><trkpt lat="43.5771028" lon="12.4578254"><ele>467.0</ele><time>2026-04-24T09:45:12.974Z</time></trkpt><trkpt lat="43.5771931" lon="12.4577883"><ele>467.0</ele><time>2026-04-24T09:45:13.975Z</time></trkpt><trkpt lat="43.5773059" lon="12.4578118"><ele>467.0</ele><time>2026-04-24T09:45:14.974Z</time></trkpt><trkpt lat="43.5774311" lon="12.4578835"><ele>467.0</ele><time>2026-04-24T09:45:15.974Z</time></trkpt><trkpt lat="43.5775696" lon="12.4579841"><ele>467.0</ele><time>2026-04-24T09:45:16.974Z</time></trkpt><trkpt lat="43.5777219" lon="12.4580915"><ele>467.0</ele><time>2026-04-24T09:45:17.974Z</time></trkpt><trkpt lat="43.5778852" lon="12.4581871"><ele>467.0</ele><time>2026-04-24T09:45:18.974Z</time></trkpt><trkpt lat="43.5780464" lon="12.4582595"><ele>464.5</ele><time>2026-04-24T09:45:19.974Z</time></trkpt><trkpt lat="43.5782005" lon="12.458322"><ele>462.0</ele><time>2026-04-24T09:45:20.974Z</time></trkpt><trkpt lat="43.5783361" lon="12.4583786"><ele>459.5</ele><time>2026-04-24T09:45:21.974Z</time></trkpt><trkpt lat="43.5784514" lon="12.4584278"><ele>457.0</ele><time>2026-04-24T09:45:22.974Z</time></trkpt><trkpt lat="43.5785537" lon="12.4584607"><ele>457.0</ele><time>2026-04-24T09:45:23.974Z</time></trkpt><trkpt lat="43.5786514" lon="12.4584451"><ele>457.00000000000006</ele><time>2026-04-24T09:45:24.974Z</time></trkpt><trkpt lat="43.5787275" lon="12.4583751"><ele>457.00000000000006</ele><time>2026-04-24T09:45:25.974Z</time></trkpt><trkpt lat="43.5787669" lon="12.4582665"><ele>457.0</ele><time>2026-04-24T09:45:26.974Z</time></trkpt><trkpt lat="43.5787621" lon="12.4581375"><ele>457.0</ele><time>2026-04-24T09:45:27.974Z</time></trkpt><trkpt lat="43.5787055" lon="12.4580259"><ele>451.75</ele><time>2026-04-24T09:45:28.975Z</time></trkpt><trkpt lat="43.5786066" lon="12.4579421"><ele>446.5</ele><time>2026-04-24T09:45:29.974Z</time></trkpt><trkpt lat="43.5784799" lon="12.4578714"><ele>441.25</ele><time>2026-04-24T09:45:30.974Z</time></trkpt><trkpt lat="43.5783293" lon="12.4578018"><ele>436.0</ele><time>2026-04-24T09:45:31.974Z</time></trkpt><trkpt lat="43.5781718" lon="12.4577053"><ele>436.0</ele><time>2026-04-24T09:45:32.974Z</time></trkpt><trkpt lat="43.5780143" lon="12.4575829"><ele>436.0</ele><time>2026-04-24T09:45:33.975Z</time></trkpt><trkpt lat="43.57786" lon="12.4574482"><ele>436.0</ele><time>2026-04-24T09:45:34.974Z</time></trkpt><trkpt lat="43.5777144" lon="12.4573101"><ele>435.33333333333337</ele><time>2026-04-24T09:45:35.974Z</time></trkpt><trkpt lat="43.5775716" lon="12.4571804"><ele>434.66666666666663</ele><time>2026-04-24T09:45:36.975Z</time></trkpt><trkpt lat="43.577433" lon="12.4570546"><ele>434.0</ele><time>2026-04-24T09:45:37.974Z</time></trkpt><trkpt lat="43.5773067" lon="12.4569287"><ele>434.0</ele><time>2026-04-24T09:45:38.974Z</time></trkpt><trkpt lat="43.577201" lon="12.4567931"><ele>434.0</ele><time>2026-04-24T09:45:39.974Z</time></trkpt><trkpt lat="43.5771194" lon="12.4566336"><ele>434.0</ele><time>2026-04-24T09:45:40.974Z</time></trkpt><trkpt lat="43.5770791" lon="12.456453"><ele>434.0</ele><time>2026-04-24T09:45:41.974Z</time></trkpt><trkpt lat="43.5770832" lon="12.456265"><ele>434.0</ele><time>2026-04-24T09:45:42.974Z</time></trkpt><trkpt lat="43.5771311" lon="12.4560801"><ele>434.0</ele><time>2026-04-24T09:45:43.975Z</time></trkpt><trkpt lat="43.577225" lon="12.4559093"><ele>434.0</ele><time>2026-04-24T09:45:44.974Z</time></trkpt><trkpt lat="43.577355" lon="12.4557611"><ele>434.0</ele><time>2026-04-24T09:45:45.974Z</time></trkpt><trkpt lat="43.5775032" lon="12.4556148"><ele>434.0</ele><time>2026-04-24T09:45:46.974Z</time></trkpt><trkpt lat="43.5776621" lon="12.4554636"><ele>434.0</ele><time>2026-04-24T09:45:47.974Z</time></trkpt><trkpt lat="43.5778263" lon="12.4553085"><ele>431.0</ele><time>2026-04-24T09:45:48.974Z</time></trkpt><trkpt lat="43.5779942" lon="12.455148"><ele>428.0</ele><time>2026-04-24T09:45:49.974Z</time></trkpt><trkpt lat="43.5781587" lon="12.4549877"><ele>425.0</ele><time>2026-04-24T09:45:50.974Z</time></trkpt><trkpt lat="43.5783152" lon="12.4548343"><ele>425.0</ele><time>2026-04-24T09:45:51.974Z</time></trkpt><trkpt lat="43.5784641" lon="12.4546824"><ele>425.0</ele><time>2026-04-24T09:45:52.975Z</time></trkpt><trkpt lat="43.5786098" lon="12.4545402"><ele>425.0</ele><time>2026-04-24T09:45:53.974Z</time></trkpt><trkpt lat="43.5787554" lon="12.4544151"><ele>423.66666666666663</ele><time>2026-04-24T09:45:54.974Z</time></trkpt><trkpt lat="43.578902" lon="12.4543185"><ele>422.33333333333337</ele><time>2026-04-24T09:45:55.975Z</time></trkpt><trkpt lat="43.5790514" lon="12.4542608"><ele>421.0</ele><time>2026-04-24T09:45:56.974Z</time></trkpt><trkpt lat="43.5792079" lon="12.4542292"><ele>421.0</ele><time>2026-04-24T09:45:57.974Z</time></trkpt><trkpt lat="43.5793699" lon="12.4542222"><ele>421.0</ele><time>2026-04-24T09:45:58.974Z</time></trkpt><trkpt lat="43.5795374" lon="12.4542336"><ele>421.0</ele><time>2026-04-24T09:45:59.975Z</time></trkpt><trkpt lat="43.5797007" lon="12.4542532"><ele>420.75</ele><time>2026-04-24T09:46:00.974Z</time></trkpt><trkpt lat="43.579856" lon="12.4542735"><ele>420.5</ele><time>2026-04-24T09:46:01.974Z</time></trkpt><trkpt lat="43.5799982" lon="12.4542931"><ele>420.25</ele><time>2026-04-24T09:46:02.974Z</time></trkpt><trkpt lat="43.580126" lon="12.4543146"><ele>420.0</ele><time>2026-04-24T09:46:03.974Z</time></trkpt><trkpt lat="43.5802463" lon="12.4543494"><ele>420.0</ele><time>2026-04-24T09:46:04.974Z</time></trkpt><trkpt lat="43.5803599" lon="12.4544268"><ele>420.0</ele><time>2026-04-24T09:46:05.974Z</time></trkpt><trkpt lat="43.580463" lon="12.4545358"><ele>420.0</ele><time>2026-04-24T09:46:06.974Z</time></trkpt><trkpt lat="43.5805335" lon="12.4546552"><ele>420.0</ele><time>2026-04-24T09:46:07.975Z</time></trkpt><trkpt lat="43.5805807" lon="12.4548039"><ele>420.0</ele><time>2026-04-24T09:46:08.975Z</time></trkpt><trkpt lat="43.5805998" lon="12.4549803"><ele>420.0</ele><time>2026-04-24T09:46:09.975Z</time></trkpt><trkpt lat="43.5805918" lon="12.4551928"><ele>420.0</ele><time>2026-04-24T09:46:10.975Z</time></trkpt><trkpt lat="43.5805774" lon="12.4554335"><ele>418.33333333333337</ele><time>2026-04-24T09:46:11.974Z</time></trkpt><trkpt lat="43.5805603" lon="12.4556988"><ele>416.6666666666667</ele><time>2026-04-24T09:46:12.974Z</time></trkpt><trkpt lat="43.5805421" lon="12.4559822"><ele>415.0</ele><time>2026-04-24T09:46:13.975Z</time></trkpt><trkpt lat="43.5805153" lon="12.4562728"><ele>415.5</ele><time>2026-04-24T09:46:14.975Z</time></trkpt><trkpt lat="43.5804677" lon="12.4565688"><ele>416.0</ele><time>2026-04-24T09:46:15.974Z</time></trkpt><trkpt lat="43.5803953" lon="12.4568707"><ele>416.5</ele><time>2026-04-24T09:46:16.974Z</time></trkpt><trkpt lat="43.5803078" lon="12.4571813"><ele>417.0</ele><time>2026-04-24T09:46:17.974Z</time></trkpt><trkpt lat="43.5802131" lon="12.4574999"><ele>417.0</ele><time>2026-04-24T09:46:18.975Z</time></trkpt><trkpt lat="43.5801178" lon="12.4578179"><ele>417.0</ele><time>2026-04-24T09:46:19.974Z</time></trkpt><trkpt lat="43.5800227" lon="12.4581381"><ele>419.0</ele><time>2026-04-24T09:46:20.974Z</time></trkpt><trkpt lat="43.5799258" lon="12.4584646"><ele>421.0</ele><time>2026-04-24T09:46:21.974Z</time></trkpt><trkpt lat="43.5798283" lon="12.4587938"><ele>427.0</ele><time>2026-04-24T09:46:22.974Z</time></trkpt><trkpt lat="43.579728" lon="12.4591249"><ele>433.0</ele><time>2026-04-24T09:46:23.974Z</time></trkpt><trkpt lat="43.5796287" lon="12.4594474"><ele>422.5</ele><time>2026-04-24T09:46:24.975Z</time></trkpt><trkpt lat="43.5795367" lon="12.4597613"><ele>412.0</ele><time>2026-04-24T09:46:25.974Z</time></trkpt><trkpt lat="43.579447" lon="12.4600737"><ele>412.0</ele><time>2026-04-24T09:46:26.975Z</time></trkpt><trkpt lat="43.579368" lon="12.4603872"><ele>412.0</ele><time>2026-04-24T09:46:27.974Z</time></trkpt><trkpt lat="43.5793168" lon="12.4607083"><ele>412.5</ele><time>2026-04-24T09:46:28.975Z</time></trkpt><trkpt lat="43.5792966" lon="12.4610486"><ele>413.0</ele><time>2026-04-24T09:46:29.974Z</time></trkpt><trkpt lat="43.579291" lon="12.4613915"><ele>414.0</ele><time>2026-04-24T09:46:30.975Z</time></trkpt><trkpt lat="43.579281" lon="12.4617177"><ele>415.0</ele><time>2026-04-24T09:46:31.974Z</time></trkpt><trkpt lat="43.5792589" lon="12.4620317"><ele>415.5</ele><time>2026-04-24T09:46:32.975Z</time></trkpt><trkpt lat="43.579207" lon="12.4623356"><ele>416.0</ele><time>2026-04-24T09:46:33.974Z</time></trkpt><trkpt lat="43.5791164" lon="12.4626295"><ele>416.0</ele><time>2026-04-24T09:46:34.974Z</time></trkpt><trkpt lat="43.5789869" lon="12.4629022"><ele>416.0</ele><time>2026-04-24T09:46:35.975Z</time></trkpt><trkpt lat="43.5788233" lon="12.4631435"><ele>409.5</ele><time>2026-04-24T09:46:36.974Z</time></trkpt><trkpt lat="43.5786351" lon="12.4633602"><ele>403.0</ele><time>2026-04-24T09:46:37.974Z</time></trkpt><trkpt lat="43.5784328" lon="12.4635743"><ele>411.5</ele><time>2026-04-24T09:46:38.974Z</time></trkpt><trkpt lat="43.5782258" lon="12.4637913"><ele>420.0</ele><time>2026-04-24T09:46:39.975Z</time></trkpt><trkpt lat="43.5780297" lon="12.4639988"><ele>410.5</ele><time>2026-04-24T09:46:40.975Z</time></trkpt><trkpt lat="43.5778406" lon="12.4642005"><ele>401.0</ele><time>2026-04-24T09:46:41.974Z</time></trkpt><trkpt lat="43.5776585" lon="12.4643957"><ele>401.0</ele><time>2026-04-24T09:46:42.974Z</time></trkpt><trkpt lat="43.5774852" lon="12.4645866"><ele>401.0</ele><time>2026-04-24T09:46:43.974Z</time></trkpt><trkpt lat="43.5773237" lon="12.4647822"><ele>401.0</ele><time>2026-04-24T09:46:44.974Z</time></trkpt><trkpt lat="43.5771836" lon="12.4649991"><ele>399.0</ele><time>2026-04-24T09:46:45.974Z</time></trkpt><trkpt lat="43.5770752" lon="12.4652397"><ele>397.0</ele><time>2026-04-24T09:46:46.974Z</time></trkpt><trkpt lat="43.5770003" lon="12.4654984"><ele>395.0</ele><time>2026-04-24T09:46:47.975Z</time></trkpt><trkpt lat="43.5769576" lon="12.4657767"><ele>395.0</ele><time>2026-04-24T09:46:48.974Z</time></trkpt><trkpt lat="43.5769491" lon="12.4660674"><ele>395.0</ele><time>2026-04-24T09:46:49.974Z</time></trkpt><trkpt lat="43.576964" lon="12.4663445"><ele>395.0</ele><time>2026-04-24T09:46:50.974Z</time></trkpt><trkpt lat="43.5770094" lon="12.4666168"><ele>397.3333333333333</ele><time>2026-04-24T09:46:51.974Z</time></trkpt><trkpt lat="43.5770959" lon="12.4668799"><ele>399.66666666666663</ele><time>2026-04-24T09:46:52.974Z</time></trkpt><trkpt lat="43.577224" lon="12.4671181"><ele>402.0</ele><time>2026-04-24T09:46:53.974Z</time></trkpt><trkpt lat="43.5773853" lon="12.4673364"><ele>404.5</ele><time>2026-04-24T09:46:54.974Z</time></trkpt><trkpt lat="43.5775534" lon="12.4675553"><ele>407.0</ele><time>2026-04-24T09:46:55.974Z</time></trkpt><trkpt lat="43.5777275" lon="12.4677772"><ele>404.5</ele><time>2026-04-24T09:46:56.974Z</time></trkpt><trkpt lat="43.5778991" lon="12.467997"><ele>402.0</ele><time>2026-04-24T09:46:57.974Z</time></trkpt><trkpt lat="43.5780688" lon="12.4682165"><ele>402.0</ele><time>2026-04-24T09:46:58.975Z</time></trkpt><trkpt lat="43.5782332" lon="12.4684316"><ele>402.0</ele><time>2026-04-24T09:46:59.974Z</time></trkpt><trkpt lat="43.5783899" lon="12.4686412"><ele>402.0</ele><time>2026-04-24T09:47:00.974Z</time></trkpt><trkpt lat="43.5785236" lon="12.4688433"><ele>405.66666666666663</ele><time>2026-04-24T09:47:01.975Z</time></trkpt><trkpt lat="43.5786558" lon="12.469044"><ele>409.3333333333333</ele><time>2026-04-24T09:47:02.974Z</time></trkpt><trkpt lat="43.5786602" lon="12.4692704"><ele>413.0</ele><time>2026-04-24T09:47:03.974Z</time></trkpt><trkpt lat="43.5786727" lon="12.4695112"><ele>412.3333333333333</ele><time>2026-04-24T09:47:04.975Z</time></trkpt><trkpt lat="43.5785685" lon="12.469683"><ele>411.66666666666663</ele><time>2026-04-24T09:47:05.975Z</time></trkpt><trkpt lat="43.5784633" lon="12.4699059"><ele>411.0</ele><time>2026-04-24T09:47:06.974Z</time></trkpt><trkpt lat="43.5783652" lon="12.4701417"><ele>411.0</ele><time>2026-04-24T09:47:07.975Z</time></trkpt><trkpt lat="43.5782815" lon="12.4704158"><ele>411.0</ele><time>2026-04-24T09:47:08.974Z</time></trkpt><trkpt lat="43.5782186" lon="12.4707096"><ele>411.0</ele><time>2026-04-24T09:47:09.973Z</time></trkpt><trkpt lat="43.5781603" lon="12.4710141"><ele>398.5</ele><time>2026-04-24T09:47:10.974Z</time></trkpt><trkpt lat="43.5781065" lon="12.4713234"><ele>386.0</ele><time>2026-04-24T09:47:11.973Z</time></trkpt><trkpt lat="43.5780545" lon="12.4716317"><ele>386.0</ele><time>2026-04-24T09:47:12.973Z</time></trkpt><trkpt lat="43.5780039" lon="12.4719391"><ele>386.0</ele><time>2026-04-24T09:47:13.974Z</time></trkpt><trkpt lat="43.5779552" lon="12.4722474"><ele>385.5</ele><time>2026-04-24T09:47:14.973Z</time></trkpt><trkpt lat="43.5779127" lon="12.4725575"><ele>385.0</ele><time>2026-04-24T09:47:15.973Z</time></trkpt><trkpt lat="43.5778893" lon="12.4728736"><ele>386.0</ele><time>2026-04-24T09:47:16.973Z</time></trkpt><trkpt lat="43.577894" lon="12.4731936"><ele>387.0</ele><time>2026-04-24T09:47:17.973Z</time></trkpt><trkpt lat="43.5779274" lon="12.4735121"><ele>387.5</ele><time>2026-04-24T09:47:18.973Z</time></trkpt><trkpt lat="43.5779888" lon="12.4738237"><ele>388.0</ele><time>2026-04-24T09:47:19.973Z</time></trkpt><trkpt lat="43.5780773" lon="12.4741222"><ele>388.0</ele><time>2026-04-24T09:47:20.973Z</time></trkpt><trkpt lat="43.5781903" lon="12.4744077"><ele>388.0</ele><time>2026-04-24T09:47:21.973Z</time></trkpt><trkpt lat="43.5783088" lon="12.4746869"><ele>387.5</ele><time>2026-04-24T09:47:22.973Z</time></trkpt><trkpt lat="43.578432" lon="12.4749672"><ele>387.0</ele><time>2026-04-24T09:47:23.973Z</time></trkpt><trkpt lat="43.5785549" lon="12.4752477"><ele>385.5</ele><time>2026-04-24T09:47:24.974Z</time></trkpt><trkpt lat="43.5786764" lon="12.4755295"><ele>384.0</ele><time>2026-04-24T09:47:25.973Z</time></trkpt><trkpt lat="43.5787983" lon="12.4758139"><ele>389.5</ele><time>2026-04-24T09:47:26.974Z</time></trkpt><trkpt lat="43.578917" lon="12.4760871"><ele>395.0</ele><time>2026-04-24T09:47:27.973Z</time></trkpt><trkpt lat="43.5790152" lon="12.476358"><ele>395.0</ele><time>2026-04-24T09:47:28.973Z</time></trkpt><trkpt lat="43.5790744" lon="12.4766469"><ele>395.0</ele><time>2026-04-24T09:47:29.973Z</time></trkpt><trkpt lat="43.5790834" lon="12.4769414"><ele>395.0</ele><time>2026-04-24T09:47:30.973Z</time></trkpt><trkpt lat="43.5790367" lon="12.4772273"><ele>397.3333333333333</ele><time>2026-04-24T09:47:31.973Z</time></trkpt><trkpt lat="43.5789489" lon="12.477481"><ele>399.66666666666663</ele><time>2026-04-24T09:47:32.974Z</time></trkpt><trkpt lat="43.5788633" lon="12.4777237"><ele>402.0</ele><time>2026-04-24T09:47:33.974Z</time></trkpt><trkpt lat="43.5788041" lon="12.4779892"><ele>402.33333333333337</ele><time>2026-04-24T09:47:34.974Z</time></trkpt><trkpt lat="43.5787855" lon="12.4782593"><ele>402.6666666666667</ele><time>2026-04-24T09:47:35.973Z</time></trkpt><trkpt lat="43.5788128" lon="12.4785411"><ele>403.0</ele><time>2026-04-24T09:47:36.974Z</time></trkpt><trkpt lat="43.5788857" lon="12.4788182"><ele>398.33333333333337</ele><time>2026-04-24T09:47:37.973Z</time></trkpt><trkpt lat="43.5789632" lon="12.4791033"><ele>393.66666666666663</ele><time>2026-04-24T09:47:38.973Z</time></trkpt><trkpt lat="43.5790103" lon="12.4794058"><ele>389.0</ele><time>2026-04-24T09:47:39.973Z</time></trkpt><trkpt lat="43.5790228" lon="12.4797102"><ele>385.66666666666663</ele><time>2026-04-24T09:47:40.973Z</time></trkpt><trkpt lat="43.5789992" lon="12.4800117"><ele>382.3333333333333</ele><time>2026-04-24T09:47:41.974Z</time></trkpt><trkpt lat="43.5789465" lon="12.4803014"><ele>379.0</ele><time>2026-04-24T09:47:42.973Z</time></trkpt><trkpt lat="43.5788683" lon="12.4805477"><ele>379.0</ele><time>2026-04-24T09:47:43.973Z</time></trkpt><trkpt lat="43.5787996" lon="12.480787"><ele>379.0</ele><time>2026-04-24T09:47:44.973Z</time></trkpt><trkpt lat="43.578769" lon="12.4810467"><ele>379.0</ele><time>2026-04-24T09:47:45.974Z</time></trkpt><trkpt lat="43.5787829" lon="12.481315"><ele>380.3333333333333</ele><time>2026-04-24T09:47:46.973Z</time></trkpt><trkpt lat="43.5788261" lon="12.4815686"><ele>381.6666666666667</ele><time>2026-04-24T09:47:47.973Z</time></trkpt><trkpt lat="43.5788666" lon="12.4818166"><ele>383.0</ele><time>2026-04-24T09:47:48.973Z</time></trkpt><trkpt lat="43.5788662" lon="12.4820682"><ele>382.33333333333337</ele><time>2026-04-24T09:47:49.973Z</time></trkpt><trkpt lat="43.578815" lon="12.4823069"><ele>381.6666666666667</ele><time>2026-04-24T09:47:50.973Z</time></trkpt><trkpt lat="43.5787298" lon="12.4825109"><ele>381.0</ele><time>2026-04-24T09:47:51.973Z</time></trkpt><trkpt lat="43.5786067" lon="12.4826665"><ele>381.0</ele><time>2026-04-24T09:47:52.974Z</time></trkpt><trkpt lat="43.578456" lon="12.4827752"><ele>381.0</ele><time>2026-04-24T09:47:53.974Z</time></trkpt><trkpt lat="43.5782961" lon="12.4828151"><ele>381.0</ele><time>2026-04-24T09:47:54.973Z</time></trkpt><trkpt lat="43.5781472" lon="12.4828135"><ele>381.0</ele><time>2026-04-24T09:47:55.973Z</time></trkpt><trkpt lat="43.5780126" lon="12.4828231"><ele>381.0</ele><time>2026-04-24T09:47:56.973Z</time></trkpt><trkpt lat="43.5778874" lon="12.4828851"><ele>381.0</ele><time>2026-04-24T09:47:57.973Z</time></trkpt><trkpt lat="43.5777874" lon="12.483001"><ele>381.0</ele><time>2026-04-24T09:47:58.973Z</time></trkpt><trkpt lat="43.5777115" lon="12.4831589"><ele>384.75</ele><time>2026-04-24T09:47:59.974Z</time></trkpt><trkpt lat="43.577652" lon="12.4833334"><ele>388.5</ele><time>2026-04-24T09:48:00.974Z</time></trkpt><trkpt lat="43.5776352" lon="12.4835327"><ele>392.25</ele><time>2026-04-24T09:48:01.973Z</time></trkpt><trkpt lat="43.577629" lon="12.4837158"><ele>396.0</ele><time>2026-04-24T09:48:02.973Z</time></trkpt><trkpt lat="43.5777723" lon="12.4839146"><ele>396.0</ele><time>2026-04-24T09:48:03.973Z</time></trkpt><trkpt lat="43.5778404" lon="12.4841074"><ele>396.0</ele><time>2026-04-24T09:48:04.973Z</time></trkpt><trkpt lat="43.5779328" lon="12.4843042"><ele>396.0</ele><time>2026-04-24T09:48:05.973Z</time></trkpt><trkpt lat="43.5780357" lon="12.4845029"><ele>390.6666666666667</ele><time>2026-04-24T09:48:06.973Z</time></trkpt><trkpt lat="43.5781465" lon="12.4846941"><ele>385.33333333333337</ele><time>2026-04-24T09:48:07.973Z</time></trkpt><trkpt lat="43.5782612" lon="12.4848716"><ele>380.0</ele><time>2026-04-24T09:48:08.973Z</time></trkpt><trkpt lat="43.5783816" lon="12.4850398"><ele>380.0</ele><time>2026-04-24T09:48:09.973Z</time></trkpt><trkpt lat="43.5785064" lon="12.4852142"><ele>380.0</ele><time>2026-04-24T09:48:10.975Z</time></trkpt><trkpt lat="43.5786371" lon="12.4853819"><ele>380.0</ele><time>2026-04-24T09:48:11.974Z</time></trkpt><trkpt lat="43.5787709" lon="12.4855367"><ele>382.0</ele><time>2026-04-24T09:48:12.973Z</time></trkpt><trkpt lat="43.5789056" lon="12.4856834"><ele>384.0</ele><time>2026-04-24T09:48:13.974Z</time></trkpt><trkpt lat="43.5790464" lon="12.4858229"><ele>386.0</ele><time>2026-04-24T09:48:14.974Z</time></trkpt><trkpt lat="43.5791945" lon="12.4859526"><ele>386.0</ele><time>2026-04-24T09:48:15.974Z</time></trkpt><trkpt lat="43.5793465" lon="12.4860785"><ele>386.0</ele><time>2026-04-24T09:48:16.973Z</time></trkpt><trkpt lat="43.5795012" lon="12.4862009"><ele>386.0</ele><time>2026-04-24T09:48:17.974Z</time></trkpt><trkpt lat="43.5796586" lon="12.4863046"><ele>383.66666666666663</ele><time>2026-04-24T09:48:18.973Z</time></trkpt><trkpt lat="43.5798125" lon="12.4863946"><ele>381.3333333333333</ele><time>2026-04-24T09:48:19.974Z</time></trkpt><trkpt lat="43.5799647" lon="12.4864802"><ele>379.0</ele><time>2026-04-24T09:48:20.973Z</time></trkpt><trkpt lat="43.5801168" lon="12.4865558"><ele>379.0</ele><time>2026-04-24T09:48:21.973Z</time></trkpt><trkpt lat="43.5802704" lon="12.4866271"><ele>379.0</ele><time>2026-04-24T09:48:22.973Z</time></trkpt><trkpt lat="43.5804244" lon="12.4866993"><ele>379.0</ele><time>2026-04-24T09:48:23.973Z</time></trkpt><trkpt lat="43.5805817" lon="12.4867673"><ele>382.0</ele><time>2026-04-24T09:48:24.974Z</time></trkpt><trkpt lat="43.580744" lon="12.4868273"><ele>385.0</ele><time>2026-04-24T09:48:25.973Z</time></trkpt><trkpt lat="43.5809042" lon="12.4868727"><ele>388.0</ele><time>2026-04-24T09:48:26.973Z</time></trkpt><trkpt lat="43.5810673" lon="12.4868883"><ele>386.0</ele><time>2026-04-24T09:48:27.973Z</time></trkpt><trkpt lat="43.581236" lon="12.486879"><ele>384.0</ele><time>2026-04-24T09:48:28.974Z</time></trkpt><trkpt lat="43.5814102" lon="12.4868262"><ele>382.0</ele><time>2026-04-24T09:48:29.973Z</time></trkpt><trkpt lat="43.5815741" lon="12.4867677"><ele>382.0</ele><time>2026-04-24T09:48:30.973Z</time></trkpt><trkpt lat="43.5817317" lon="12.4867023"><ele>382.0</ele><time>2026-04-24T09:48:31.973Z</time></trkpt><trkpt lat="43.5818973" lon="12.486641"><ele>382.0</ele><time>2026-04-24T09:48:32.973Z</time></trkpt><trkpt lat="43.5820707" lon="12.4866138"><ele>377.66666666666663</ele><time>2026-04-24T09:48:33.973Z</time></trkpt><trkpt lat="43.5822378" lon="12.4866356"><ele>373.3333333333333</ele><time>2026-04-24T09:48:34.973Z</time></trkpt><trkpt lat="43.5823932" lon="12.4866906"><ele>369.0</ele><time>2026-04-24T09:48:35.973Z</time></trkpt><trkpt lat="43.5825363" lon="12.4867789"><ele>369.0</ele><time>2026-04-24T09:48:36.973Z</time></trkpt><trkpt lat="43.5826692" lon="12.4868958"><ele>369.0</ele><time>2026-04-24T09:48:37.974Z</time></trkpt><trkpt lat="43.5827913" lon="12.4870439"><ele>369.0</ele><time>2026-04-24T09:48:38.974Z</time></trkpt><trkpt lat="43.5828974" lon="12.4872082"><ele>367.0</ele><time>2026-04-24T09:48:39.973Z</time></trkpt><trkpt lat="43.5829772" lon="12.4873887"><ele>365.0</ele><time>2026-04-24T09:48:40.974Z</time></trkpt><trkpt lat="43.5830388" lon="12.4875916"><ele>363.0</ele><time>2026-04-24T09:48:41.973Z</time></trkpt><trkpt lat="43.5830806" lon="12.4878164"><ele>362.0</ele><time>2026-04-24T09:48:42.973Z</time></trkpt><trkpt lat="43.5831024" lon="12.488072"><ele>361.0</ele><time>2026-04-24T09:48:43.973Z</time></trkpt><trkpt lat="43.5831068" lon="12.4883496"><ele>360.0</ele><time>2026-04-24T09:48:44.973Z</time></trkpt><trkpt lat="43.5830991" lon="12.4886446"><ele>359.5</ele><time>2026-04-24T09:48:45.973Z</time></trkpt><trkpt lat="43.5830803" lon="12.4889521"><ele>359.0</ele><time>2026-04-24T09:48:46.973Z</time></trkpt><trkpt lat="43.5830583" lon="12.4892741"><ele>357.0</ele><time>2026-04-24T09:48:47.974Z</time></trkpt><trkpt lat="43.583037" lon="12.4896082"><ele>355.0</ele><time>2026-04-24T09:48:48.973Z</time></trkpt><trkpt lat="43.5830181" lon="12.4899512"><ele>355.0</ele><time>2026-04-24T09:48:49.973Z</time></trkpt><trkpt lat="43.5830012" lon="12.4902998"><ele>355.0</ele><time>2026-04-24T09:48:50.974Z</time></trkpt><trkpt lat="43.582987" lon="12.490649"><ele>355.0</ele><time>2026-04-24T09:48:51.973Z</time></trkpt><trkpt lat="43.5829709" lon="12.4909868"><ele>355.0</ele><time>2026-04-24T09:48:52.973Z</time></trkpt><trkpt lat="43.5829532" lon="12.4913044"><ele>355.0</ele><time>2026-04-24T09:48:53.973Z</time></trkpt><trkpt lat="43.5829266" lon="12.4916069"><ele>355.0</ele><time>2026-04-24T09:48:54.973Z</time></trkpt><trkpt lat="43.5828769" lon="12.4919032"><ele>355.0</ele><time>2026-04-24T09:48:55.973Z</time></trkpt><trkpt lat="43.5827896" lon="12.4921936"><ele>361.0</ele><time>2026-04-24T09:48:56.974Z</time></trkpt><trkpt lat="43.5826779" lon="12.4924731"><ele>367.0</ele><time>2026-04-24T09:48:57.973Z</time></trkpt><trkpt lat="43.5825368" lon="12.4927301"><ele>361.5</ele><time>2026-04-24T09:48:58.974Z</time></trkpt><trkpt lat="43.5823782" lon="12.4929696"><ele>356.0</ele><time>2026-04-24T09:48:59.974Z</time></trkpt><trkpt lat="43.5822207" lon="12.4931999"><ele>356.0</ele><time>2026-04-24T09:49:00.973Z</time></trkpt><trkpt lat="43.5820697" lon="12.493412"><ele>356.0</ele><time>2026-04-24T09:49:01.974Z</time></trkpt><trkpt lat="43.5819124" lon="12.4936036"><ele>356.0</ele><time>2026-04-24T09:49:02.973Z</time></trkpt><trkpt lat="43.5817323" lon="12.4937621"><ele>356.6666666666667</ele><time>2026-04-24T09:49:03.973Z</time></trkpt><trkpt lat="43.5815383" lon="12.4938924"><ele>357.3333333333333</ele><time>2026-04-24T09:49:04.973Z</time></trkpt><trkpt lat="43.5813361" lon="12.4940077"><ele>358.0</ele><time>2026-04-24T09:49:05.973Z</time></trkpt><trkpt lat="43.5811264" lon="12.4941067"><ele>358.0</ele><time>2026-04-24T09:49:06.974Z</time></trkpt><trkpt lat="43.5809105" lon="12.4941955"><ele>358.0</ele><time>2026-04-24T09:49:07.973Z</time></trkpt><trkpt lat="43.5807016" lon="12.4942897"><ele>358.0</ele><time>2026-04-24T09:49:08.973Z</time></trkpt><trkpt lat="43.5805042" lon="12.494405"><ele>357.0</ele><time>2026-04-24T09:49:09.973Z</time></trkpt><trkpt lat="43.5803195" lon="12.4945592"><ele>356.0</ele><time>2026-04-24T09:49:10.974Z</time></trkpt><trkpt lat="43.5801552" lon="12.4947557"><ele>355.0</ele><time>2026-04-24T09:49:11.973Z</time></trkpt><trkpt lat="43.5800154" lon="12.4949947"><ele>358.66666666666663</ele><time>2026-04-24T09:49:12.973Z</time></trkpt><trkpt lat="43.57989" lon="12.4952541"><ele>362.3333333333333</ele><time>2026-04-24T09:49:13.973Z</time></trkpt><trkpt lat="43.5797763" lon="12.4955114"><ele>366.0</ele><time>2026-04-24T09:49:14.973Z</time></trkpt><trkpt lat="43.5796744" lon="12.4957672"><ele>373.33333333333337</ele><time>2026-04-24T09:49:15.973Z</time></trkpt><trkpt lat="43.5795935" lon="12.4960257"><ele>380.6666666666667</ele><time>2026-04-24T09:49:16.973Z</time></trkpt><trkpt lat="43.5795496" lon="12.4962912"><ele>388.0</ele><time>2026-04-24T09:49:17.973Z</time></trkpt><trkpt lat="43.5795469" lon="12.4965697"><ele>388.33333333333337</ele><time>2026-04-24T09:49:18.973Z</time></trkpt><trkpt lat="43.5795816" lon="12.4968436"><ele>388.66666666666663</ele><time>2026-04-24T09:49:19.973Z</time></trkpt><trkpt lat="43.5796605" lon="12.497104"><ele>389.0</ele><time>2026-04-24T09:49:20.974Z</time></trkpt><trkpt lat="43.5797782" lon="12.4973463"><ele>381.3333333333333</ele><time>2026-04-24T09:49:21.973Z</time></trkpt><trkpt lat="43.5799288" lon="12.4975588"><ele>373.66666666666663</ele><time>2026-04-24T09:49:22.974Z</time></trkpt><trkpt lat="43.5801075" lon="12.4977345"><ele>366.0</ele><time>2026-04-24T09:49:23.973Z</time></trkpt><trkpt lat="43.5802937" lon="12.4978937"><ele>362.0</ele><time>2026-04-24T09:49:24.973Z</time></trkpt><trkpt lat="43.5805316" lon="12.4979609"><ele>358.0</ele><time>2026-04-24T09:49:25.973Z</time></trkpt><trkpt lat="43.5807584" lon="12.4980425"><ele>358.0</ele><time>2026-04-24T09:49:26.973Z</time></trkpt><trkpt lat="43.5809978" lon="12.4981211"><ele>358.0</ele><time>2026-04-24T09:49:27.973Z</time></trkpt><trkpt lat="43.5812381" lon="12.4981992"><ele>357.5</ele><time>2026-04-24T09:49:28.973Z</time></trkpt><trkpt lat="43.5814798" lon="12.4982693"><ele>357.0</ele><time>2026-04-24T09:49:29.973Z</time></trkpt><trkpt lat="43.5817281" lon="12.4983247"><ele>357.0</ele><time>2026-04-24T09:49:30.973Z</time></trkpt><trkpt lat="43.5819802" lon="12.4983518"><ele>357.0</ele><time>2026-04-24T09:49:31.973Z</time></trkpt><trkpt lat="43.5822346" lon="12.4983658"><ele>356.5</ele><time>2026-04-24T09:49:32.974Z</time></trkpt><trkpt lat="43.5824909" lon="12.4983697"><ele>356.0</ele><time>2026-04-24T09:49:33.974Z</time></trkpt><trkpt lat="43.5827492" lon="12.4983631"><ele>355.0</ele><time>2026-04-24T09:49:34.973Z</time></trkpt><trkpt lat="43.5830072" lon="12.4983564"><ele>354.0</ele><time>2026-04-24T09:49:35.973Z</time></trkpt><trkpt lat="43.5832646" lon="12.4983593"><ele>354.0</ele><time>2026-04-24T09:49:36.973Z</time></trkpt><trkpt lat="43.5835197" lon="12.4983722"><ele>354.0</ele><time>2026-04-24T09:49:37.973Z</time></trkpt><trkpt lat="43.5837735" lon="12.4983959"><ele>353.5</ele><time>2026-04-24T09:49:38.974Z</time></trkpt><trkpt lat="43.5840255" lon="12.4984299"><ele>353.0</ele><time>2026-04-24T09:49:39.974Z</time></trkpt><trkpt lat="43.5842765" lon="12.4984753"><ele>357.0</ele><time>2026-04-24T09:49:40.973Z</time></trkpt><trkpt lat="43.5845258" lon="12.49853"><ele>361.0</ele><time>2026-04-24T09:49:41.973Z</time></trkpt><trkpt lat="43.5847691" lon="12.4986014"><ele>361.0</ele><time>2026-04-24T09:49:42.974Z</time></trkpt><trkpt lat="43.5850107" lon="12.4986782"><ele>361.0</ele><time>2026-04-24T09:49:43.973Z</time></trkpt><trkpt lat="43.5852469" lon="12.4987635"><ele>360.5</ele><time>2026-04-24T09:49:44.973Z</time></trkpt><trkpt lat="43.5854691" lon="12.4988592"><ele>360.0</ele><time>2026-04-24T09:49:45.973Z</time></trkpt><trkpt lat="43.5856724" lon="12.4989763"><ele>360.0</ele><time>2026-04-24T09:49:46.973Z</time></trkpt><trkpt lat="43.5858477" lon="12.49913"><ele>360.0</ele><time>2026-04-24T09:49:47.973Z</time></trkpt><trkpt lat="43.5859849" lon="12.4993241"><ele>360.0</ele><time>2026-04-24T09:49:48.974Z</time></trkpt><trkpt lat="43.5860885" lon="12.4995548"><ele>357.0</ele><time>2026-04-24T09:49:49.973Z</time></trkpt><trkpt lat="43.5861414" lon="12.4998215"><ele>354.0</ele><time>2026-04-24T09:49:50.973Z</time></trkpt><trkpt lat="43.5861506" lon="12.5001098"><ele>351.0</ele><time>2026-04-24T09:49:51.974Z</time></trkpt><trkpt lat="43.5861285" lon="12.5004148"><ele>351.0</ele><time>2026-04-24T09:49:52.973Z</time></trkpt><trkpt lat="43.586098" lon="12.5007342"><ele>351.0</ele><time>2026-04-24T09:49:53.973Z</time></trkpt><trkpt lat="43.5860646" lon="12.5010641"><ele>351.0</ele><time>2026-04-24T09:49:54.974Z</time></trkpt><trkpt lat="43.5860293" lon="12.5014033"><ele>351.0</ele><time>2026-04-24T09:49:55.973Z</time></trkpt><trkpt lat="43.5859916" lon="12.5017467"><ele>349.5</ele><time>2026-04-24T09:49:56.973Z</time></trkpt><trkpt lat="43.5859561" lon="12.5020962"><ele>348.0</ele><time>2026-04-24T09:49:57.973Z</time></trkpt><trkpt lat="43.5859188" lon="12.5024512"><ele>348.0</ele><time>2026-04-24T09:49:58.973Z</time></trkpt><trkpt lat="43.5858822" lon="12.5028079"><ele>348.0</ele><time>2026-04-24T09:49:59.973Z</time></trkpt><trkpt lat="43.5858467" lon="12.5031679"><ele>349.0</ele><time>2026-04-24T09:50:00.973Z</time></trkpt><trkpt lat="43.5858133" lon="12.5035263"><ele>350.0</ele><time>2026-04-24T09:50:01.973Z</time></trkpt><trkpt lat="43.5857795" lon="12.5038783"><ele>350.5</ele><time>2026-04-24T09:50:02.973Z</time></trkpt><trkpt lat="43.5857454" lon="12.5042125"><ele>351.0</ele><time>2026-04-24T09:50:03.973Z</time></trkpt><trkpt lat="43.5857058" lon="12.504533"><ele>351.3333333333333</ele><time>2026-04-24T09:50:04.973Z</time></trkpt><trkpt lat="43.585657" lon="12.504831"><ele>351.66666666666663</ele><time>2026-04-24T09:50:05.974Z</time></trkpt><trkpt lat="43.5855994" lon="12.5050936"><ele>352.0</ele><time>2026-04-24T09:50:06.973Z</time></trkpt><trkpt lat="43.5855313" lon="12.5053148"><ele>352.66666666666663</ele><time>2026-04-24T09:50:07.973Z</time></trkpt><trkpt lat="43.5854656" lon="12.5055131"><ele>353.3333333333333</ele><time>2026-04-24T09:50:08.974Z</time></trkpt><trkpt lat="43.5854209" lon="12.5057079"><ele>354.0</ele><time>2026-04-24T09:50:09.973Z</time></trkpt><trkpt lat="43.5853901" lon="12.505902"><ele>354.0</ele><time>2026-04-24T09:50:10.974Z</time></trkpt><trkpt lat="43.5853782" lon="12.5060945"><ele>354.0</ele><time>2026-04-24T09:50:11.973Z</time></trkpt><trkpt lat="43.5853817" lon="12.5062805"><ele>354.0</ele><time>2026-04-24T09:50:12.973Z</time></trkpt><trkpt lat="43.5853963" lon="12.5064537"><ele>354.0</ele><time>2026-04-24T09:50:13.974Z</time></trkpt><trkpt lat="43.5854284" lon="12.5066225"><ele>353.25</ele><time>2026-04-24T09:50:14.974Z</time></trkpt><trkpt lat="43.5854784" lon="12.5067853"><ele>352.5</ele><time>2026-04-24T09:50:15.973Z</time></trkpt><trkpt lat="43.5855464" lon="12.506942"><ele>351.75</ele><time>2026-04-24T09:50:16.974Z</time></trkpt><trkpt lat="43.5856292" lon="12.5070903"><ele>351.0</ele><time>2026-04-24T09:50:17.973Z</time></trkpt><trkpt lat="43.585719" lon="12.507235"><ele>349.75</ele><time>2026-04-24T09:50:18.973Z</time></trkpt><trkpt lat="43.5858271" lon="12.5073577"><ele>348.5</ele><time>2026-04-24T09:50:19.974Z</time></trkpt><trkpt lat="43.5859462" lon="12.5074528"><ele>347.25</ele><time>2026-04-24T09:50:20.973Z</time></trkpt><trkpt lat="43.586059" lon="12.5075267"><ele>346.0</ele><time>2026-04-24T09:50:21.973Z</time></trkpt><trkpt lat="43.586158" lon="12.5075879"><ele>346.0</ele><time>2026-04-24T09:50:22.973Z</time></trkpt><trkpt lat="43.586243" lon="12.5076382"><ele>346.0</ele><time>2026-04-24T09:50:23.973Z</time></trkpt><trkpt lat="43.586307" lon="12.5076771"><ele>346.0</ele><time>2026-04-24T09:50:24.975Z</time></trkpt><trkpt lat="43.5863841" lon="12.507736"><ele>346.0</ele><time>2026-04-24T09:50:26.974Z</time></trkpt><trkpt lat="43.5864346" lon="12.5077956"><ele>346.0</ele><time>2026-04-24T09:50:28.973Z</time></trkpt><trkpt lat="43.5864784" lon="12.5078765"><ele>346.0</ele><time>2026-04-24T09:50:31.973Z</time></trkpt><trkpt lat="43.5865428" lon="12.5079057"><ele>345.0</ele><time>2026-04-24T09:54:44.972Z</time></trkpt><trkpt lat="43.5866186" lon="12.5079243"><ele>344.0</ele><time>2026-04-24T09:54:46.972Z</time></trkpt><trkpt lat="43.5866954" lon="12.5079181"><ele>343.0</ele><time>2026-04-24T09:54:48.972Z</time></trkpt><trkpt lat="43.5868387" lon="12.5079809"><ele>342.0</ele><time>2026-04-24T09:54:50.973Z</time></trkpt><trkpt lat="43.5869185" lon="12.5080305"><ele>341.0</ele><time>2026-04-24T09:54:51.973Z</time></trkpt><trkpt lat="43.5870122" lon="12.5080877"><ele>341.0</ele><time>2026-04-24T09:54:52.973Z</time></trkpt><trkpt lat="43.5871169" lon="12.5081508"><ele>341.0</ele><time>2026-04-24T09:54:53.972Z</time></trkpt><trkpt lat="43.587231" lon="12.5082189"><ele>341.0</ele><time>2026-04-24T09:54:54.973Z</time></trkpt><trkpt lat="43.5873499" lon="12.5082904"><ele>341.0</ele><time>2026-04-24T09:54:55.972Z</time></trkpt><trkpt lat="43.5874743" lon="12.5083666"><ele>341.0</ele><time>2026-04-24T09:54:56.972Z</time></trkpt><trkpt lat="43.5876037" lon="12.5084445"><ele>341.0</ele><time>2026-04-24T09:54:57.972Z</time></trkpt><trkpt lat="43.5877381" lon="12.5085247"><ele>341.0</ele><time>2026-04-24T09:54:58.973Z</time></trkpt><trkpt lat="43.5878769" lon="12.5086067"><ele>341.0</ele><time>2026-04-24T09:54:59.972Z</time></trkpt><trkpt lat="43.5880225" lon="12.5086905"><ele>340.0</ele><time>2026-04-24T09:55:00.972Z</time></trkpt><trkpt lat="43.5881652" lon="12.5087824"><ele>339.0</ele><time>2026-04-24T09:55:01.972Z</time></trkpt><trkpt lat="43.5883076" lon="12.5088696"><ele>338.0</ele><time>2026-04-24T09:55:02.972Z</time></trkpt><trkpt lat="43.5884448" lon="12.5089543"><ele>338.0</ele><time>2026-04-24T09:55:03.972Z</time></trkpt><trkpt lat="43.5885698" lon="12.5090285"><ele>338.0</ele><time>2026-04-24T09:55:04.972Z</time></trkpt><trkpt lat="43.5886881" lon="12.5091039"><ele>338.0</ele><time>2026-04-24T09:55:05.972Z</time></trkpt><trkpt lat="43.5887953" lon="12.5091725"><ele>338.0</ele><time>2026-04-24T09:55:06.973Z</time></trkpt><trkpt lat="43.5888988" lon="12.5092303"><ele>338.2</ele><time>2026-04-24T09:55:07.972Z</time></trkpt><trkpt lat="43.5889925" lon="12.5092842"><ele>338.4</ele><time>2026-04-24T09:55:08.972Z</time></trkpt><trkpt lat="43.5890832" lon="12.5093393"><ele>338.59999999999997</ele><time>2026-04-24T09:55:09.972Z</time></trkpt><trkpt lat="43.5891702" lon="12.5093929"><ele>338.79999999999995</ele><time>2026-04-24T09:55:10.972Z</time></trkpt><trkpt lat="43.5892442" lon="12.509453"><ele>339.0</ele><time>2026-04-24T09:55:11.972Z</time></trkpt><trkpt lat="43.5892931" lon="12.509536"><ele>338.2</ele><time>2026-04-24T09:55:12.972Z</time></trkpt><trkpt lat="43.5893167" lon="12.5096302"><ele>337.4</ele><time>2026-04-24T09:55:13.972Z</time></trkpt><trkpt lat="43.5893131" lon="12.5097394"><ele>336.6</ele><time>2026-04-24T09:55:14.972Z</time></trkpt><trkpt lat="43.5892783" lon="12.5098582"><ele>335.8</ele><time>2026-04-24T09:55:15.973Z</time></trkpt><trkpt lat="43.5892259" lon="12.5099872"><ele>335.0</ele><time>2026-04-24T09:55:16.972Z</time></trkpt><trkpt lat="43.5891666" lon="12.5101219"><ele>335.0</ele><time>2026-04-24T09:55:17.973Z</time></trkpt><trkpt lat="43.5891023" lon="12.5102662"><ele>335.0</ele><time>2026-04-24T09:55:18.972Z</time></trkpt><trkpt lat="43.5890306" lon="12.5104184"><ele>335.0</ele><time>2026-04-24T09:55:19.972Z</time></trkpt><trkpt lat="43.5889512" lon="12.5105695"><ele>335.0</ele><time>2026-04-24T09:55:20.973Z</time></trkpt><trkpt lat="43.5888621" lon="12.5107262"><ele>335.33333333333337</ele><time>2026-04-24T09:55:21.972Z</time></trkpt><trkpt lat="43.5887578" lon="12.5108757"><ele>335.6666666666667</ele><time>2026-04-24T09:55:22.972Z</time></trkpt><trkpt lat="43.5886435" lon="12.5110093"><ele>336.0</ele><time>2026-04-24T09:55:23.972Z</time></trkpt><trkpt lat="43.5885234" lon="12.5111338"><ele>337.25</ele><time>2026-04-24T09:55:24.972Z</time></trkpt><trkpt lat="43.5884002" lon="12.5112474"><ele>338.5</ele><time>2026-04-24T09:55:25.972Z</time></trkpt><trkpt lat="43.5882812" lon="12.5113605"><ele>339.75</ele><time>2026-04-24T09:55:26.972Z</time></trkpt><trkpt lat="43.5881688" lon="12.5114742"><ele>341.0</ele><time>2026-04-24T09:55:27.972Z</time></trkpt><trkpt lat="43.5880596" lon="12.511584"><ele>341.0</ele><time>2026-04-24T09:55:28.972Z</time></trkpt><trkpt lat="43.5879489" lon="12.5116895"><ele>341.0</ele><time>2026-04-24T09:55:29.973Z</time></trkpt><trkpt lat="43.5878409" lon="12.5117927"><ele>341.0</ele><time>2026-04-24T09:55:30.972Z</time></trkpt><trkpt lat="43.5877324" lon="12.5118967"><ele>341.0</ele><time>2026-04-24T09:55:31.973Z</time></trkpt><trkpt lat="43.5876263" lon="12.5119984"><ele>341.5</ele><time>2026-04-24T09:55:32.972Z</time></trkpt><trkpt lat="43.5875192" lon="12.5121005"><ele>342.0</ele><time>2026-04-24T09:55:33.972Z</time></trkpt><trkpt lat="43.5874125" lon="12.5122109"><ele>342.5</ele><time>2026-04-24T09:55:34.972Z</time></trkpt><trkpt lat="43.5873021" lon="12.5123261"><ele>343.0</ele><time>2026-04-24T09:55:35.972Z</time></trkpt><trkpt lat="43.5871909" lon="12.5124416"><ele>343.0</ele><time>2026-04-24T09:55:36.972Z</time></trkpt><trkpt lat="43.5870769" lon="12.5125635"><ele>343.0</ele><time>2026-04-24T09:55:37.972Z</time></trkpt><trkpt lat="43.5869606" lon="12.512681"><ele>343.0</ele><time>2026-04-24T09:55:38.972Z</time></trkpt><trkpt lat="43.5868417" lon="12.5127998"><ele>343.0</ele><time>2026-04-24T09:55:39.972Z</time></trkpt><trkpt lat="43.5867238" lon="12.5129216"><ele>342.5</ele><time>2026-04-24T09:55:40.972Z</time></trkpt><trkpt lat="43.5866055" lon="12.5130383"><ele>342.0</ele><time>2026-04-24T09:55:41.973Z</time></trkpt><trkpt lat="43.5864847" lon="12.5131592"><ele>341.5</ele><time>2026-04-24T09:55:42.973Z</time></trkpt><trkpt lat="43.5863612" lon="12.513282"><ele>341.0</ele><time>2026-04-24T09:55:43.973Z</time></trkpt><trkpt lat="43.5862364" lon="12.5134039"><ele>342.33333333333337</ele><time>2026-04-24T09:55:44.972Z</time></trkpt><trkpt lat="43.5861132" lon="12.5135296"><ele>343.6666666666667</ele><time>2026-04-24T09:55:45.973Z</time></trkpt><trkpt lat="43.5859872" lon="12.5136517"><ele>345.0</ele><time>2026-04-24T09:55:46.972Z</time></trkpt><trkpt lat="43.5858621" lon="12.5137764"><ele>345.0</ele><time>2026-04-24T09:55:47.972Z</time></trkpt><trkpt lat="43.5857398" lon="12.5139064"><ele>345.0</ele><time>2026-04-24T09:55:48.972Z</time></trkpt><trkpt lat="43.585618" lon="12.5140371"><ele>345.0</ele><time>2026-04-24T09:55:49.972Z</time></trkpt><trkpt lat="43.5854987" lon="12.5141719"><ele>345.0</ele><time>2026-04-24T09:55:50.972Z</time></trkpt><trkpt lat="43.5853857" lon="12.5143184"><ele>345.0</ele><time>2026-04-24T09:55:51.972Z</time></trkpt><trkpt lat="43.5852865" lon="12.5144821"><ele>345.0</ele><time>2026-04-24T09:55:52.973Z</time></trkpt><trkpt lat="43.585203" lon="12.5146598"><ele>346.3333333333333</ele><time>2026-04-24T09:55:53.972Z</time></trkpt><trkpt lat="43.5851347" lon="12.5148462"><ele>347.66666666666663</ele><time>2026-04-24T09:55:54.972Z</time></trkpt><trkpt lat="43.5850768" lon="12.5150395"><ele>349.0</ele><time>2026-04-24T09:55:55.973Z</time></trkpt><trkpt lat="43.5850323" lon="12.5152349"><ele>347.0</ele><time>2026-04-24T09:55:56.972Z</time></trkpt><trkpt lat="43.5850024" lon="12.5154332"><ele>345.0</ele><time>2026-04-24T09:55:57.972Z</time></trkpt><trkpt lat="43.5849835" lon="12.515636"><ele>343.0</ele><time>2026-04-24T09:55:58.972Z</time></trkpt><trkpt lat="43.5849773" lon="12.5158413"><ele>341.0</ele><time>2026-04-24T09:55:59.972Z</time></trkpt><trkpt lat="43.5849772" lon="12.5160498"><ele>342.33333333333337</ele><time>2026-04-24T09:56:00.972Z</time></trkpt><trkpt lat="43.5849765" lon="12.5162564"><ele>343.6666666666667</ele><time>2026-04-24T09:56:01.972Z</time></trkpt><trkpt lat="43.5849782" lon="12.5164623"><ele>345.0</ele><time>2026-04-24T09:56:02.973Z</time></trkpt><trkpt lat="43.5849813" lon="12.5166746"><ele>345.0</ele><time>2026-04-24T09:56:03.972Z</time></trkpt><trkpt lat="43.5849834" lon="12.5168872"><ele>345.0</ele><time>2026-04-24T09:56:04.972Z</time></trkpt><trkpt lat="43.5849768" lon="12.5171033"><ele>345.0</ele><time>2026-04-24T09:56:05.972Z</time></trkpt><trkpt lat="43.5849547" lon="12.5173177"><ele>345.6666666666667</ele><time>2026-04-24T09:56:06.972Z</time></trkpt><trkpt lat="43.5849101" lon="12.5175302"><ele>346.33333333333337</ele><time>2026-04-24T09:56:07.972Z</time></trkpt><trkpt lat="43.5848465" lon="12.5177352"><ele>347.0</ele><time>2026-04-24T09:56:08.972Z</time></trkpt><trkpt lat="43.5847708" lon="12.5179375"><ele>344.0</ele><time>2026-04-24T09:56:09.972Z</time></trkpt><trkpt lat="43.5846942" lon="12.5181468"><ele>341.0</ele><time>2026-04-24T09:56:10.972Z</time></trkpt><trkpt lat="43.5846158" lon="12.5183519"><ele>338.0</ele><time>2026-04-24T09:56:11.972Z</time></trkpt><trkpt lat="43.5845408" lon="12.5185596"><ele>344.33333333333337</ele><time>2026-04-24T09:56:12.973Z</time></trkpt><trkpt lat="43.5844646" lon="12.5187745"><ele>350.6666666666667</ele><time>2026-04-24T09:56:13.972Z</time></trkpt><trkpt lat="43.5843911" lon="12.5189941"><ele>357.0</ele><time>2026-04-24T09:56:14.972Z</time></trkpt><trkpt lat="43.5843199" lon="12.519219"><ele>357.0</ele><time>2026-04-24T09:56:15.972Z</time></trkpt><trkpt lat="43.5842445" lon="12.5194477"><ele>357.0</ele><time>2026-04-24T09:56:16.972Z</time></trkpt><trkpt lat="43.5841666" lon="12.5196759"><ele>357.0</ele><time>2026-04-24T09:56:17.972Z</time></trkpt><trkpt lat="43.5840939" lon="12.5199003"><ele>353.0</ele><time>2026-04-24T09:56:18.972Z</time></trkpt><trkpt lat="43.5840386" lon="12.5201208"><ele>349.0</ele><time>2026-04-24T09:56:19.972Z</time></trkpt><trkpt lat="43.5840046" lon="12.5203409"><ele>345.0</ele><time>2026-04-24T09:56:20.972Z</time></trkpt><trkpt lat="43.5839854" lon="12.5205547"><ele>344.5</ele><time>2026-04-24T09:56:21.972Z</time></trkpt><trkpt lat="43.5839737" lon="12.5207575"><ele>344.0</ele><time>2026-04-24T09:56:22.972Z</time></trkpt><trkpt lat="43.5839644" lon="12.5209651"><ele>343.5</ele><time>2026-04-24T09:56:23.972Z</time></trkpt><trkpt lat="43.5839534" lon="12.5211733"><ele>343.0</ele><time>2026-04-24T09:56:24.972Z</time></trkpt><trkpt lat="43.5839431" lon="12.5213813"><ele>342.66666666666663</ele><time>2026-04-24T09:56:25.972Z</time></trkpt><trkpt lat="43.5839328" lon="12.5215876"><ele>342.3333333333333</ele><time>2026-04-24T09:56:26.973Z</time></trkpt><trkpt lat="43.5839287" lon="12.5218027"><ele>342.0</ele><time>2026-04-24T09:56:27.973Z</time></trkpt><trkpt lat="43.5839458" lon="12.5220252"><ele>342.6666666666667</ele><time>2026-04-24T09:56:28.974Z</time></trkpt><trkpt lat="43.5840014" lon="12.5222586"><ele>343.33333333333337</ele><time>2026-04-24T09:56:29.972Z</time></trkpt><trkpt lat="43.5840776" lon="12.5225194"><ele>344.0</ele><time>2026-04-24T09:56:30.972Z</time></trkpt><trkpt lat="43.5841535" lon="12.5228066"><ele>347.5</ele><time>2026-04-24T09:56:31.972Z</time></trkpt><trkpt lat="43.5842166" lon="12.5231135"><ele>351.0</ele><time>2026-04-24T09:56:32.973Z</time></trkpt><trkpt lat="43.5842821" lon="12.5234102"><ele>351.0</ele><time>2026-04-24T09:56:33.973Z</time></trkpt><trkpt lat="43.5843604" lon="12.52369"><ele>351.0</ele><time>2026-04-24T09:56:34.972Z</time></trkpt><trkpt lat="43.5844628" lon="12.5239621"><ele>351.0</ele><time>2026-04-24T09:56:35.972Z</time></trkpt><trkpt lat="43.5845966" lon="12.5242097"><ele>347.5</ele><time>2026-04-24T09:56:36.972Z</time></trkpt><trkpt lat="43.5847623" lon="12.5244355"><ele>344.0</ele><time>2026-04-24T09:56:37.973Z</time></trkpt><trkpt lat="43.5849316" lon="12.5246616"><ele>344.0</ele><time>2026-04-24T09:56:38.972Z</time></trkpt><trkpt lat="43.5850936" lon="12.5249031"><ele>344.0</ele><time>2026-04-24T09:56:39.973Z</time></trkpt><trkpt lat="43.5852325" lon="12.5251661"><ele>352.0</ele><time>2026-04-24T09:56:40.973Z</time></trkpt><trkpt lat="43.5853391" lon="12.5254417"><ele>360.0</ele><time>2026-04-24T09:56:41.972Z</time></trkpt><trkpt lat="43.5854158" lon="12.5257336"><ele>345.0</ele><time>2026-04-24T09:56:42.972Z</time></trkpt><trkpt lat="43.5854655" lon="12.5260413"><ele>330.0</ele><time>2026-04-24T09:56:43.972Z</time></trkpt><trkpt lat="43.5855037" lon="12.5263568"><ele>330.0</ele><time>2026-04-24T09:56:44.972Z</time></trkpt><trkpt lat="43.5855352" lon="12.5266818"><ele>330.0</ele><time>2026-04-24T09:56:45.972Z</time></trkpt><trkpt lat="43.5855651" lon="12.5270097"><ele>329.5</ele><time>2026-04-24T09:56:46.972Z</time></trkpt><trkpt lat="43.5855954" lon="12.5273406"><ele>329.0</ele><time>2026-04-24T09:56:47.972Z</time></trkpt><trkpt lat="43.5856255" lon="12.5276732"><ele>328.0</ele><time>2026-04-24T09:56:48.972Z</time></trkpt><trkpt lat="43.5856575" lon="12.5279948"><ele>327.0</ele><time>2026-04-24T09:56:49.972Z</time></trkpt><trkpt lat="43.5857025" lon="12.5283054"><ele>327.0</ele><time>2026-04-24T09:56:50.972Z</time></trkpt><trkpt lat="43.5857655" lon="12.5286039"><ele>327.0</ele><time>2026-04-24T09:56:51.972Z</time></trkpt><trkpt lat="43.5858523" lon="12.5288867"><ele>327.0</ele><time>2026-04-24T09:56:52.972Z</time></trkpt><trkpt lat="43.5859678" lon="12.5291467"><ele>326.6666666666667</ele><time>2026-04-24T09:56:53.973Z</time></trkpt><trkpt lat="43.5861104" lon="12.5293804"><ele>326.33333333333337</ele><time>2026-04-24T09:56:54.973Z</time></trkpt><trkpt lat="43.5862828" lon="12.5295804"><ele>326.0</ele><time>2026-04-24T09:56:55.973Z</time></trkpt><trkpt lat="43.5864746" lon="12.5297498"><ele>325.33333333333337</ele><time>2026-04-24T09:56:56.972Z</time></trkpt><trkpt lat="43.586673" lon="12.5298904"><ele>324.6666666666667</ele><time>2026-04-24T09:56:57.972Z</time></trkpt><trkpt lat="43.5868645" lon="12.5300209"><ele>324.0</ele><time>2026-04-24T09:56:58.973Z</time></trkpt><trkpt lat="43.5870475" lon="12.5301461"><ele>323.3333333333333</ele><time>2026-04-24T09:56:59.972Z</time></trkpt><trkpt lat="43.5872247" lon="12.5302662"><ele>322.66666666666663</ele><time>2026-04-24T09:57:00.973Z</time></trkpt><trkpt lat="43.5873905" lon="12.5303828"><ele>322.0</ele><time>2026-04-24T09:57:01.973Z</time></trkpt><trkpt lat="43.5875422" lon="12.5305122"><ele>322.0</ele><time>2026-04-24T09:57:02.972Z</time></trkpt><trkpt lat="43.5876713" lon="12.5306663"><ele>322.0</ele><time>2026-04-24T09:57:03.972Z</time></trkpt><trkpt lat="43.587783" lon="12.5308288"><ele>322.0</ele><time>2026-04-24T09:57:04.972Z</time></trkpt><trkpt lat="43.5878896" lon="12.5309946"><ele>324.3333333333333</ele><time>2026-04-24T09:57:05.973Z</time></trkpt><trkpt lat="43.5879931" lon="12.5311653"><ele>326.6666666666667</ele><time>2026-04-24T09:57:06.972Z</time></trkpt><trkpt lat="43.5881018" lon="12.5313314"><ele>329.0</ele><time>2026-04-24T09:57:07.972Z</time></trkpt><trkpt lat="43.5882273" lon="12.5314822"><ele>330.6666666666667</ele><time>2026-04-24T09:57:08.972Z</time></trkpt><trkpt lat="43.5883722" lon="12.5316087"><ele>332.3333333333333</ele><time>2026-04-24T09:57:09.973Z</time></trkpt><trkpt lat="43.5885228" lon="12.5317131"><ele>334.0</ele><time>2026-04-24T09:57:10.972Z</time></trkpt><trkpt lat="43.5886803" lon="12.5317878"><ele>334.66666666666663</ele><time>2026-04-24T09:57:11.972Z</time></trkpt><trkpt lat="43.5888407" lon="12.5318438"><ele>335.3333333333333</ele><time>2026-04-24T09:57:12.972Z</time></trkpt><trkpt lat="43.5890004" lon="12.5319002"><ele>336.0</ele><time>2026-04-24T09:57:13.972Z</time></trkpt><trkpt lat="43.589159" lon="12.531962"><ele>336.0</ele><time>2026-04-24T09:57:14.972Z</time></trkpt><trkpt lat="43.5893261" lon="12.5320306"><ele>336.0</ele><time>2026-04-24T09:57:15.972Z</time></trkpt><trkpt lat="43.5894887" lon="12.5321272"><ele>336.0</ele><time>2026-04-24T09:57:16.972Z</time></trkpt><trkpt lat="43.589639" lon="12.5322341"><ele>330.6666666666667</ele><time>2026-04-24T09:57:17.972Z</time></trkpt><trkpt lat="43.589773" lon="12.5323864"><ele>325.33333333333337</ele><time>2026-04-24T09:57:18.972Z</time></trkpt><trkpt lat="43.5898947" lon="12.5325669"><ele>320.0</ele><time>2026-04-24T09:57:19.972Z</time></trkpt><trkpt lat="43.5899998" lon="12.5327724"><ele>324.33333333333337</ele><time>2026-04-24T09:57:20.973Z</time></trkpt><trkpt lat="43.5901008" lon="12.5330187"><ele>328.6666666666667</ele><time>2026-04-24T09:57:21.973Z</time></trkpt><trkpt lat="43.5901931" lon="12.5332967"><ele>333.0</ele><time>2026-04-24T09:57:22.972Z</time></trkpt><trkpt lat="43.5902861" lon="12.5335768"><ele>331.0</ele><time>2026-04-24T09:57:23.972Z</time></trkpt><trkpt lat="43.590404" lon="12.5338164"><ele>329.0</ele><time>2026-04-24T09:57:24.973Z</time></trkpt><trkpt lat="43.5905647" lon="12.5340314"><ele>327.0</ele><time>2026-04-24T09:57:25.973Z</time></trkpt><trkpt lat="43.5907647" lon="12.5342085"><ele>327.0</ele><time>2026-04-24T09:57:26.972Z</time></trkpt><trkpt lat="43.5909907" lon="12.5343341"><ele>327.0</ele><time>2026-04-24T09:57:27.973Z</time></trkpt><trkpt lat="43.5912242" lon="12.5344305"><ele>328.5</ele><time>2026-04-24T09:57:28.972Z</time></trkpt><trkpt lat="43.591448" lon="12.5345458"><ele>330.0</ele><time>2026-04-24T09:57:29.972Z</time></trkpt><trkpt lat="43.5916482" lon="12.5347039"><ele>330.0</ele><time>2026-04-24T09:57:30.972Z</time></trkpt><trkpt lat="43.5918314" lon="12.5349"><ele>330.0</ele><time>2026-04-24T09:57:31.972Z</time></trkpt><trkpt lat="43.5919949" lon="12.5351231"><ele>330.5</ele><time>2026-04-24T09:57:32.973Z</time></trkpt><trkpt lat="43.5921286" lon="12.5353749"><ele>331.0</ele><time>2026-04-24T09:57:33.972Z</time></trkpt><trkpt lat="43.5922267" lon="12.53566"><ele>327.5</ele><time>2026-04-24T09:57:34.973Z</time></trkpt><trkpt lat="43.5922891" lon="12.5359676"><ele>324.0</ele><time>2026-04-24T09:57:35.973Z</time></trkpt><trkpt lat="43.5923227" lon="12.5362892"><ele>324.0</ele><time>2026-04-24T09:57:36.972Z</time></trkpt><trkpt lat="43.5923432" lon="12.5366192"><ele>324.0</ele><time>2026-04-24T09:57:37.972Z</time></trkpt><trkpt lat="43.5923668" lon="12.5369453"><ele>322.0</ele><time>2026-04-24T09:57:38.972Z</time></trkpt><trkpt lat="43.5923858" lon="12.5372713"><ele>320.0</ele><time>2026-04-24T09:57:39.972Z</time></trkpt><trkpt lat="43.5924015" lon="12.5375791"><ele>320.0</ele><time>2026-04-24T09:57:40.972Z</time></trkpt><trkpt lat="43.5924086" lon="12.5378817"><ele>320.0</ele><time>2026-04-24T09:57:41.972Z</time></trkpt><trkpt lat="43.5924077" lon="12.5381829"><ele>320.0</ele><time>2026-04-24T09:57:42.973Z</time></trkpt><trkpt lat="43.5924022" lon="12.5384883"><ele>315.5</ele><time>2026-04-24T09:57:43.972Z</time></trkpt><trkpt lat="43.5923911" lon="12.5388011"><ele>311.0</ele><time>2026-04-24T09:57:44.973Z</time></trkpt><trkpt lat="43.5923784" lon="12.5391226"><ele>311.0</ele><time>2026-04-24T09:57:45.972Z</time></trkpt><trkpt lat="43.5923647" lon="12.5394573"><ele>311.0</ele><time>2026-04-24T09:57:46.972Z</time></trkpt><trkpt lat="43.592349" lon="12.5398031"><ele>313.5</ele><time>2026-04-24T09:57:47.972Z</time></trkpt><trkpt lat="43.5923328" lon="12.5401571"><ele>316.0</ele><time>2026-04-24T09:57:48.972Z</time></trkpt><trkpt lat="43.5923163" lon="12.5405153"><ele>316.0</ele><time>2026-04-24T09:57:49.972Z</time></trkpt><trkpt lat="43.5922983" lon="12.540879"><ele>316.0</ele><time>2026-04-24T09:57:50.972Z</time></trkpt><trkpt lat="43.5922826" lon="12.5412259"><ele>313.0</ele><time>2026-04-24T09:57:51.973Z</time></trkpt><trkpt lat="43.5922713" lon="12.5415582"><ele>310.0</ele><time>2026-04-24T09:57:52.972Z</time></trkpt><trkpt lat="43.5922813" lon="12.5418847"><ele>308.5</ele><time>2026-04-24T09:57:53.972Z</time></trkpt><trkpt lat="43.5923194" lon="12.5422191"><ele>307.0</ele><time>2026-04-24T09:57:54.972Z</time></trkpt><trkpt lat="43.5923751" lon="12.5425499"><ele>307.0</ele><time>2026-04-24T09:57:55.972Z</time></trkpt><trkpt lat="43.5924645" lon="12.5428681"><ele>307.0</ele><time>2026-04-24T09:57:56.973Z</time></trkpt><trkpt lat="43.5925898" lon="12.5431728"><ele>308.0</ele><time>2026-04-24T09:57:57.972Z</time></trkpt><trkpt lat="43.5927433" lon="12.5434606"><ele>309.0</ele><time>2026-04-24T09:57:58.973Z</time></trkpt><trkpt lat="43.5929161" lon="12.543741"><ele>309.0</ele><time>2026-04-24T09:57:59.973Z</time></trkpt><trkpt lat="43.5930977" lon="12.5440248"><ele>309.0</ele><time>2026-04-24T09:58:00.973Z</time></trkpt><trkpt lat="43.5932838" lon="12.5443124"><ele>318.5</ele><time>2026-04-24T09:58:01.972Z</time></trkpt><trkpt lat="43.5934728" lon="12.5446053"><ele>328.0</ele><time>2026-04-24T09:58:02.972Z</time></trkpt><trkpt lat="43.5936658" lon="12.5448993"><ele>319.0</ele><time>2026-04-24T09:58:03.972Z</time></trkpt><trkpt lat="43.5938597" lon="12.5451973"><ele>310.0</ele><time>2026-04-24T09:58:04.973Z</time></trkpt><trkpt lat="43.5940562" lon="12.5454962"><ele>310.0</ele><time>2026-04-24T09:58:05.972Z</time></trkpt><trkpt lat="43.5942534" lon="12.5457934"><ele>310.0</ele><time>2026-04-24T09:58:06.972Z</time></trkpt><trkpt lat="43.594439" lon="12.5460823"><ele>319.5</ele><time>2026-04-24T09:58:07.973Z</time></trkpt><trkpt lat="43.5946028" lon="12.5463802"><ele>329.0</ele><time>2026-04-24T09:58:08.972Z</time></trkpt><trkpt lat="43.5947427" lon="12.5467012"><ele>329.0</ele><time>2026-04-24T09:58:09.972Z</time></trkpt><trkpt lat="43.5948588" lon="12.5470433"><ele>329.0</ele><time>2026-04-24T09:58:10.972Z</time></trkpt><trkpt lat="43.5949641" lon="12.5473993"><ele>324.0</ele><time>2026-04-24T09:58:11.972Z</time></trkpt><trkpt lat="43.5950762" lon="12.5477562"><ele>319.0</ele><time>2026-04-24T09:58:12.972Z</time></trkpt><trkpt lat="43.5952023" lon="12.5481066"><ele>321.0</ele><time>2026-04-24T09:58:13.972Z</time></trkpt><trkpt lat="43.5953513" lon="12.548436"><ele>323.0</ele><time>2026-04-24T09:58:14.973Z</time></trkpt><trkpt lat="43.5955116" lon="12.548743"><ele>323.0</ele><time>2026-04-24T09:58:15.973Z</time></trkpt><trkpt lat="43.5956608" lon="12.5490365"><ele>323.0</ele><time>2026-04-24T09:58:16.973Z</time></trkpt><trkpt lat="43.5958123" lon="12.5493087"><ele>312.0</ele><time>2026-04-24T09:58:17.972Z</time></trkpt><trkpt lat="43.5959865" lon="12.5495544"><ele>301.0</ele><time>2026-04-24T09:58:18.973Z</time></trkpt><trkpt lat="43.5961652" lon="12.5497809"><ele>304.3333333333333</ele><time>2026-04-24T09:58:19.972Z</time></trkpt><trkpt lat="43.5963416" lon="12.5499803"><ele>307.6666666666667</ele><time>2026-04-24T09:58:20.972Z</time></trkpt><trkpt lat="43.5965239" lon="12.5501462"><ele>311.0</ele><time>2026-04-24T09:58:21.972Z</time></trkpt><trkpt lat="43.5967233" lon="12.5502596"><ele>311.0</ele><time>2026-04-24T09:58:22.972Z</time></trkpt><trkpt lat="43.5969421" lon="12.550308"><ele>311.0</ele><time>2026-04-24T09:58:23.972Z</time></trkpt><trkpt lat="43.5971726" lon="12.5502961"><ele>314.0</ele><time>2026-04-24T09:58:24.972Z</time></trkpt><trkpt lat="43.5974148" lon="12.550268"><ele>317.0</ele><time>2026-04-24T09:58:25.972Z</time></trkpt><trkpt lat="43.5976627" lon="12.5502823"><ele>322.5</ele><time>2026-04-24T09:58:26.972Z</time></trkpt><trkpt lat="43.5979062" lon="12.5503301"><ele>328.0</ele><time>2026-04-24T09:58:27.972Z</time></trkpt><trkpt lat="43.5981493" lon="12.5504021"><ele>314.0</ele><time>2026-04-24T09:58:28.973Z</time></trkpt><trkpt lat="43.5983853" lon="12.5505038"><ele>300.0</ele><time>2026-04-24T09:58:29.972Z</time></trkpt><trkpt lat="43.5985937" lon="12.5506494"><ele>313.0</ele><time>2026-04-24T09:58:30.972Z</time></trkpt><trkpt lat="43.5987729" lon="12.5508418"><ele>326.0</ele><time>2026-04-24T09:58:31.972Z</time></trkpt><trkpt lat="43.5989248" lon="12.5510896"><ele>318.5</ele><time>2026-04-24T09:58:32.972Z</time></trkpt><trkpt lat="43.5990558" lon="12.5513761"><ele>311.0</ele><time>2026-04-24T09:58:33.972Z</time></trkpt><trkpt lat="43.5991874" lon="12.5516771"><ele>311.0</ele><time>2026-04-24T09:58:34.973Z</time></trkpt><trkpt lat="43.5993164" lon="12.5519823"><ele>311.0</ele><time>2026-04-24T09:58:35.972Z</time></trkpt><trkpt lat="43.5994398" lon="12.5522909"><ele>316.5</ele><time>2026-04-24T09:58:36.973Z</time></trkpt><trkpt lat="43.5995664" lon="12.5525913"><ele>322.0</ele><time>2026-04-24T09:58:37.972Z</time></trkpt><trkpt lat="43.5996986" lon="12.5528774"><ele>311.0</ele><time>2026-04-24T09:58:38.972Z</time></trkpt><trkpt lat="43.5998478" lon="12.5531319"><ele>300.0</ele><time>2026-04-24T09:58:39.973Z</time></trkpt><trkpt lat="43.6000157" lon="12.5533606"><ele>300.0</ele><time>2026-04-24T09:58:40.973Z</time></trkpt><trkpt lat="43.6001964" lon="12.5535647"><ele>300.0</ele><time>2026-04-24T09:58:41.972Z</time></trkpt><trkpt lat="43.6003899" lon="12.5537556"><ele>295.0</ele><time>2026-04-24T09:58:42.973Z</time></trkpt><trkpt lat="43.6005902" lon="12.5539433"><ele>290.0</ele><time>2026-04-24T09:58:43.973Z</time></trkpt><trkpt lat="43.6007919" lon="12.5541335"><ele>290.0</ele><time>2026-04-24T09:58:44.972Z</time></trkpt><trkpt lat="43.6009963" lon="12.5543244"><ele>290.0</ele><time>2026-04-24T09:58:45.972Z</time></trkpt><trkpt lat="43.6011984" lon="12.5545183"><ele>288.5</ele><time>2026-04-24T09:58:46.971Z</time></trkpt><trkpt lat="43.6013966" lon="12.5547166"><ele>287.0</ele><time>2026-04-24T09:58:47.972Z</time></trkpt><trkpt lat="43.6015893" lon="12.5549172"><ele>287.0</ele><time>2026-04-24T09:58:48.972Z</time></trkpt><trkpt lat="43.6017796" lon="12.5551203"><ele>287.0</ele><time>2026-04-24T09:58:49.972Z</time></trkpt><trkpt lat="43.6019678" lon="12.5553244"><ele>288.0</ele><time>2026-04-24T09:58:50.972Z</time></trkpt><trkpt lat="43.6021532" lon="12.5555302"><ele>289.0</ele><time>2026-04-24T09:58:51.971Z</time></trkpt><trkpt lat="43.6023375" lon="12.5557387"><ele>289.0</ele><time>2026-04-24T09:58:52.971Z</time></trkpt><trkpt lat="43.602524" lon="12.5559476"><ele>289.0</ele><time>2026-04-24T09:58:53.972Z</time></trkpt><trkpt lat="43.6027123" lon="12.5561559"><ele>289.5</ele><time>2026-04-24T09:58:54.971Z</time></trkpt><trkpt lat="43.602903" lon="12.5563656"><ele>290.0</ele><time>2026-04-24T09:58:55.972Z</time></trkpt><trkpt lat="43.6030972" lon="12.5565714"><ele>290.0</ele><time>2026-04-24T09:58:56.971Z</time></trkpt><trkpt lat="43.6033028" lon="12.55676"><ele>290.0</ele><time>2026-04-24T09:58:57.971Z</time></trkpt><trkpt lat="43.6035222" lon="12.5569245"><ele>289.0</ele><time>2026-04-24T09:58:58.971Z</time></trkpt><trkpt lat="43.6037497" lon="12.5570587"><ele>288.0</ele><time>2026-04-24T09:58:59.971Z</time></trkpt><trkpt lat="43.6039743" lon="12.557171"><ele>288.0</ele><time>2026-04-24T09:59:00.972Z</time></trkpt><trkpt lat="43.6041928" lon="12.5572829"><ele>288.0</ele><time>2026-04-24T09:59:01.973Z</time></trkpt><trkpt lat="43.6044003" lon="12.5574132"><ele>290.0</ele><time>2026-04-24T09:59:02.971Z</time></trkpt><trkpt lat="43.6045982" lon="12.5575742"><ele>292.0</ele><time>2026-04-24T09:59:03.971Z</time></trkpt><trkpt lat="43.6047832" lon="12.5577767"><ele>285.5</ele><time>2026-04-24T09:59:04.971Z</time></trkpt><trkpt lat="43.6049506" lon="12.5580166"><ele>279.0</ele><time>2026-04-24T09:59:05.972Z</time></trkpt><trkpt lat="43.6051009" lon="12.5582858"><ele>279.0</ele><time>2026-04-24T09:59:06.971Z</time></trkpt><trkpt lat="43.6052439" lon="12.5585709"><ele>279.0</ele><time>2026-04-24T09:59:07.972Z</time></trkpt><trkpt lat="43.6053896" lon="12.5588584"><ele>283.5</ele><time>2026-04-24T09:59:08.971Z</time></trkpt><trkpt lat="43.6055376" lon="12.5591454"><ele>288.0</ele><time>2026-04-24T09:59:09.971Z</time></trkpt><trkpt lat="43.6056878" lon="12.5594291"><ele>289.5</ele><time>2026-04-24T09:59:10.971Z</time></trkpt><trkpt lat="43.6058336" lon="12.5597109"><ele>291.0</ele><time>2026-04-24T09:59:11.971Z</time></trkpt><trkpt lat="43.6059719" lon="12.5599958"><ele>291.0</ele><time>2026-04-24T09:59:12.973Z</time></trkpt><trkpt lat="43.6060982" lon="12.5602914"><ele>291.0</ele><time>2026-04-24T09:59:13.972Z</time></trkpt><trkpt lat="43.6062118" lon="12.5605998"><ele>290.5</ele><time>2026-04-24T09:59:14.971Z</time></trkpt><trkpt lat="43.606314" lon="12.5609203"><ele>290.0</ele><time>2026-04-24T09:59:15.971Z</time></trkpt><trkpt lat="43.606413" lon="12.5612452"><ele>290.0</ele><time>2026-04-24T09:59:16.971Z</time></trkpt><trkpt lat="43.6065139" lon="12.5615721"><ele>290.0</ele><time>2026-04-24T09:59:17.972Z</time></trkpt><trkpt lat="43.6066154" lon="12.5619025"><ele>291.5</ele><time>2026-04-24T09:59:18.971Z</time></trkpt><trkpt lat="43.6067166" lon="12.5622344"><ele>293.0</ele><time>2026-04-24T09:59:19.972Z</time></trkpt><trkpt lat="43.6068207" lon="12.5625678"><ele>295.0</ele><time>2026-04-24T09:59:20.971Z</time></trkpt><trkpt lat="43.6069279" lon="12.5629027"><ele>297.0</ele><time>2026-04-24T09:59:21.971Z</time></trkpt><trkpt lat="43.6070364" lon="12.5632397"><ele>293.0</ele><time>2026-04-24T09:59:22.971Z</time></trkpt><trkpt lat="43.6071444" lon="12.5635798"><ele>289.0</ele><time>2026-04-24T09:59:23.971Z</time></trkpt><trkpt lat="43.6072516" lon="12.5639243"><ele>289.0</ele><time>2026-04-24T09:59:24.971Z</time></trkpt><trkpt lat="43.6073568" lon="12.5642684"><ele>289.0</ele><time>2026-04-24T09:59:25.972Z</time></trkpt><trkpt lat="43.6074621" lon="12.5646091"><ele>291.0</ele><time>2026-04-24T09:59:26.972Z</time></trkpt><trkpt lat="43.6075644" lon="12.5649464"><ele>293.0</ele><time>2026-04-24T09:59:27.972Z</time></trkpt><trkpt lat="43.6076645" lon="12.5652817"><ele>294.0</ele><time>2026-04-24T09:59:28.972Z</time></trkpt><trkpt lat="43.6077673" lon="12.5656138"><ele>295.0</ele><time>2026-04-24T09:59:29.971Z</time></trkpt><trkpt lat="43.6078795" lon="12.565937"><ele>292.0</ele><time>2026-04-24T09:59:30.971Z</time></trkpt><trkpt lat="43.6080105" lon="12.5662438"><ele>289.0</ele><time>2026-04-24T09:59:31.971Z</time></trkpt><trkpt lat="43.6081605" lon="12.5665378"><ele>289.0</ele><time>2026-04-24T09:59:32.972Z</time></trkpt><trkpt lat="43.608321" lon="12.5668233"><ele>289.0</ele><time>2026-04-24T09:59:33.971Z</time></trkpt><trkpt lat="43.6084823" lon="12.5671119"><ele>290.5</ele><time>2026-04-24T09:59:34.971Z</time></trkpt><trkpt lat="43.608646" lon="12.5674023"><ele>292.0</ele><time>2026-04-24T09:59:35.971Z</time></trkpt><trkpt lat="43.6088094" lon="12.5676942"><ele>289.0</ele><time>2026-04-24T09:59:36.972Z</time></trkpt><trkpt lat="43.6089769" lon="12.5679845"><ele>286.0</ele><time>2026-04-24T09:59:37.971Z</time></trkpt><trkpt lat="43.6091447" lon="12.5682742"><ele>286.0</ele><time>2026-04-24T09:59:38.971Z</time></trkpt><trkpt lat="43.6093073" lon="12.5685577"><ele>286.0</ele><time>2026-04-24T09:59:39.971Z</time></trkpt><trkpt lat="43.6094607" lon="12.5688275"><ele>283.5</ele><time>2026-04-24T09:59:40.971Z</time></trkpt><trkpt lat="43.609605" lon="12.5690899"><ele>281.0</ele><time>2026-04-24T09:59:41.971Z</time></trkpt><trkpt lat="43.6097265" lon="12.5693497"><ele>281.33333333333337</ele><time>2026-04-24T09:59:42.971Z</time></trkpt><trkpt lat="43.6098068" lon="12.5696237"><ele>281.6666666666667</ele><time>2026-04-24T09:59:43.971Z</time></trkpt><trkpt lat="43.6098495" lon="12.5699279"><ele>282.0</ele><time>2026-04-24T09:59:44.971Z</time></trkpt><trkpt lat="43.6098754" lon="12.570242"><ele>281.5</ele><time>2026-04-24T09:59:45.971Z</time></trkpt><trkpt lat="43.6098979" lon="12.5705658"><ele>281.0</ele><time>2026-04-24T09:59:46.971Z</time></trkpt><trkpt lat="43.6099225" lon="12.5708972"><ele>282.5</ele><time>2026-04-24T09:59:47.971Z</time></trkpt><trkpt lat="43.6099481" lon="12.5712332"><ele>284.0</ele><time>2026-04-24T09:59:48.971Z</time></trkpt><trkpt lat="43.6099724" lon="12.5715713"><ele>284.0</ele><time>2026-04-24T09:59:49.971Z</time></trkpt><trkpt lat="43.6099973" lon="12.5719114"><ele>284.0</ele><time>2026-04-24T09:59:50.971Z</time></trkpt><trkpt lat="43.6100225" lon="12.5722519"><ele>282.5</ele><time>2026-04-24T09:59:51.971Z</time></trkpt><trkpt lat="43.6100463" lon="12.5725935"><ele>281.0</ele><time>2026-04-24T09:59:52.971Z</time></trkpt><trkpt lat="43.6100703" lon="12.5729369"><ele>281.0</ele><time>2026-04-24T09:59:53.971Z</time></trkpt><trkpt lat="43.610094" lon="12.573283"><ele>281.0</ele><time>2026-04-24T09:59:54.972Z</time></trkpt><trkpt lat="43.6101187" lon="12.5736311"><ele>283.0</ele><time>2026-04-24T09:59:55.971Z</time></trkpt><trkpt lat="43.6101449" lon="12.5739785"><ele>285.0</ele><time>2026-04-24T09:59:56.971Z</time></trkpt><trkpt lat="43.6101736" lon="12.5743231"><ele>285.0</ele><time>2026-04-24T09:59:57.973Z</time></trkpt><trkpt lat="43.6101984" lon="12.574665"><ele>285.0</ele><time>2026-04-24T09:59:58.971Z</time></trkpt><trkpt lat="43.6102189" lon="12.5749966"><ele>285.0</ele><time>2026-04-24T09:59:59.971Z</time></trkpt><trkpt lat="43.6102301" lon="12.5753257"><ele>285.0</ele><time>2026-04-24T10:00:00.971Z</time></trkpt><trkpt lat="43.6102249" lon="12.5756507"><ele>282.0</ele><time>2026-04-24T10:00:01.971Z</time></trkpt><trkpt lat="43.6101981" lon="12.5759704"><ele>279.0</ele><time>2026-04-24T10:00:02.971Z</time></trkpt><trkpt lat="43.610139" lon="12.5762765"><ele>278.0</ele><time>2026-04-24T10:00:03.971Z</time></trkpt><trkpt lat="43.610055" lon="12.5765701"><ele>277.0</ele><time>2026-04-24T10:00:04.971Z</time></trkpt><trkpt lat="43.6099629" lon="12.5768567"><ele>276.0</ele><time>2026-04-24T10:00:05.971Z</time></trkpt><trkpt lat="43.6098708" lon="12.577138"><ele>275.0</ele><time>2026-04-24T10:00:06.971Z</time></trkpt><trkpt lat="43.6097817" lon="12.577408"><ele>274.0</ele><time>2026-04-24T10:00:07.971Z</time></trkpt><trkpt lat="43.6096948" lon="12.5776681"><ele>274.3333333333333</ele><time>2026-04-24T10:00:08.971Z</time></trkpt><trkpt lat="43.6096067" lon="12.577918"><ele>274.6666666666667</ele><time>2026-04-24T10:00:09.972Z</time></trkpt><trkpt lat="43.609508" lon="12.5781523"><ele>275.0</ele><time>2026-04-24T10:00:10.971Z</time></trkpt><trkpt lat="43.6093945" lon="12.5783663"><ele>276.6666666666667</ele><time>2026-04-24T10:00:11.972Z</time></trkpt><trkpt lat="43.6092655" lon="12.578556"><ele>278.3333333333333</ele><time>2026-04-24T10:00:12.972Z</time></trkpt><trkpt lat="43.6091244" lon="12.5787291"><ele>280.0</ele><time>2026-04-24T10:00:13.971Z</time></trkpt><trkpt lat="43.6089616" lon="12.5788708"><ele>280.0</ele><time>2026-04-24T10:00:14.972Z</time></trkpt><trkpt lat="43.6087858" lon="12.5789878"><ele>280.0</ele><time>2026-04-24T10:00:15.971Z</time></trkpt><trkpt lat="43.6085935" lon="12.5790751"><ele>280.0</ele><time>2026-04-24T10:00:16.971Z</time></trkpt><trkpt lat="43.6083921" lon="12.5791381"><ele>278.3333333333333</ele><time>2026-04-24T10:00:17.971Z</time></trkpt><trkpt lat="43.6081807" lon="12.5791805"><ele>276.6666666666667</ele><time>2026-04-24T10:00:18.971Z</time></trkpt><trkpt lat="43.607963" lon="12.5792055"><ele>275.0</ele><time>2026-04-24T10:00:19.972Z</time></trkpt><trkpt lat="43.6077405" lon="12.5792273"><ele>274.0</ele><time>2026-04-24T10:00:20.971Z</time></trkpt><trkpt lat="43.6075143" lon="12.5792517"><ele>273.0</ele><time>2026-04-24T10:00:21.972Z</time></trkpt><trkpt lat="43.6072847" lon="12.5792766"><ele>273.0</ele><time>2026-04-24T10:00:22.971Z</time></trkpt><trkpt lat="43.6070528" lon="12.579304"><ele>273.0</ele><time>2026-04-24T10:00:23.971Z</time></trkpt><trkpt lat="43.6068196" lon="12.5793299"><ele>275.0</ele><time>2026-04-24T10:00:24.972Z</time></trkpt><trkpt lat="43.6065864" lon="12.579356"><ele>277.0</ele><time>2026-04-24T10:00:25.971Z</time></trkpt><trkpt lat="43.6063528" lon="12.5793787"><ele>276.5</ele><time>2026-04-24T10:00:26.971Z</time></trkpt><trkpt lat="43.6061188" lon="12.5794015"><ele>276.0</ele><time>2026-04-24T10:00:27.972Z</time></trkpt><trkpt lat="43.6058841" lon="12.5794253"><ele>276.0</ele><time>2026-04-24T10:00:28.971Z</time></trkpt><trkpt lat="43.6056498" lon="12.5794503"><ele>276.0</ele><time>2026-04-24T10:00:29.972Z</time></trkpt><trkpt lat="43.605418" lon="12.5794784"><ele>271.6666666666667</ele><time>2026-04-24T10:00:30.971Z</time></trkpt><trkpt lat="43.6051983" lon="12.5795185"><ele>267.33333333333337</ele><time>2026-04-24T10:00:31.971Z</time></trkpt><trkpt lat="43.605" lon="12.5795779"><ele>263.0</ele><time>2026-04-24T10:00:32.971Z</time></trkpt><trkpt lat="43.6048163" lon="12.5796732"><ele>263.0</ele><time>2026-04-24T10:00:33.971Z</time></trkpt><trkpt lat="43.6046393" lon="12.5797969"><ele>263.0</ele><time>2026-04-24T10:00:34.971Z</time></trkpt><trkpt lat="43.6044682" lon="12.5799376"><ele>263.0</ele><time>2026-04-24T10:00:35.972Z</time></trkpt><trkpt lat="43.6043076" lon="12.580105"><ele>264.0</ele><time>2026-04-24T10:00:36.971Z</time></trkpt><trkpt lat="43.6041572" lon="12.5802972"><ele>265.0</ele><time>2026-04-24T10:00:37.971Z</time></trkpt><trkpt lat="43.6040166" lon="12.5805038"><ele>266.0</ele><time>2026-04-24T10:00:38.972Z</time></trkpt><trkpt lat="43.6038805" lon="12.5807174"><ele>266.0</ele><time>2026-04-24T10:00:39.971Z</time></trkpt><trkpt lat="43.6037438" lon="12.5809343"><ele>266.0</ele><time>2026-04-24T10:00:40.972Z</time></trkpt><trkpt lat="43.6036081" lon="12.5811526"><ele>266.0</ele><time>2026-04-24T10:00:41.972Z</time></trkpt><trkpt lat="43.603471" lon="12.581366"><ele>266.6666666666667</ele><time>2026-04-24T10:00:42.971Z</time></trkpt><trkpt lat="43.6033338" lon="12.5815766"><ele>267.3333333333333</ele><time>2026-04-24T10:00:43.971Z</time></trkpt><trkpt lat="43.6032005" lon="12.5817926"><ele>268.0</ele><time>2026-04-24T10:00:44.971Z</time></trkpt><trkpt lat="43.6030773" lon="12.5820181"><ele>273.3333333333333</ele><time>2026-04-24T10:00:45.971Z</time></trkpt><trkpt lat="43.602964" lon="12.5822491"><ele>278.6666666666667</ele><time>2026-04-24T10:00:46.971Z</time></trkpt><trkpt lat="43.6028586" lon="12.5824969"><ele>284.0</ele><time>2026-04-24T10:00:47.971Z</time></trkpt><trkpt lat="43.6027552" lon="12.5827507"><ele>276.0</ele><time>2026-04-24T10:00:48.971Z</time></trkpt><trkpt lat="43.602648" lon="12.5830046"><ele>268.0</ele><time>2026-04-24T10:00:49.971Z</time></trkpt><trkpt lat="43.6025356" lon="12.5832636"><ele>260.0</ele><time>2026-04-24T10:00:50.972Z</time></trkpt><trkpt lat="43.6024192" lon="12.5835217"><ele>264.6666666666667</ele><time>2026-04-24T10:00:51.971Z</time></trkpt><trkpt lat="43.6022996" lon="12.5837825"><ele>269.3333333333333</ele><time>2026-04-24T10:00:52.971Z</time></trkpt><trkpt lat="43.6021812" lon="12.5840433"><ele>274.0</ele><time>2026-04-24T10:00:53.971Z</time></trkpt><trkpt lat="43.6020635" lon="12.5843055"><ele>268.0</ele><time>2026-04-24T10:00:54.972Z</time></trkpt><trkpt lat="43.6019515" lon="12.5845633"><ele>262.0</ele><time>2026-04-24T10:00:55.972Z</time></trkpt><trkpt lat="43.6018441" lon="12.584808"><ele>256.0</ele><time>2026-04-24T10:00:56.971Z</time></trkpt><trkpt lat="43.6017411" lon="12.5850398"><ele>256.0</ele><time>2026-04-24T10:00:57.972Z</time></trkpt><trkpt lat="43.6016454" lon="12.5852547"><ele>256.0</ele><time>2026-04-24T10:00:58.971Z</time></trkpt><trkpt lat="43.6015627" lon="12.585446"><ele>256.0</ele><time>2026-04-24T10:00:59.971Z</time></trkpt><trkpt lat="43.6014867" lon="12.5856267"><ele>256.75</ele><time>2026-04-24T10:01:00.971Z</time></trkpt><trkpt lat="43.6014385" lon="12.5857948"><ele>257.5</ele><time>2026-04-24T10:01:01.972Z</time></trkpt><trkpt lat="43.6014323" lon="12.5859566"><ele>258.25</ele><time>2026-04-24T10:01:02.972Z</time></trkpt><trkpt lat="43.60147" lon="12.5861043"><ele>259.0</ele><time>2026-04-24T10:01:03.972Z</time></trkpt><trkpt lat="43.6015391" lon="12.5862541"><ele>260.25</ele><time>2026-04-24T10:01:04.971Z</time></trkpt><trkpt lat="43.60162" lon="12.58641"><ele>261.5</ele><time>2026-04-24T10:01:05.971Z</time></trkpt><trkpt lat="43.6017074" lon="12.5865817"><ele>262.75</ele><time>2026-04-24T10:01:06.971Z</time></trkpt><trkpt lat="43.6017869" lon="12.5867662"><ele>264.0</ele><time>2026-04-24T10:01:07.971Z</time></trkpt><trkpt lat="43.6018491" lon="12.5869683"><ele>268.3333333333333</ele><time>2026-04-24T10:01:08.971Z</time></trkpt><trkpt lat="43.6018884" lon="12.5871853"><ele>272.66666666666663</ele><time>2026-04-24T10:01:09.971Z</time></trkpt><trkpt lat="43.6019099" lon="12.5874148"><ele>277.0</ele><time>2026-04-24T10:01:10.972Z</time></trkpt><trkpt lat="43.601923" lon="12.5876541"><ele>275.3333333333333</ele><time>2026-04-24T10:01:11.971Z</time></trkpt><trkpt lat="43.6019418" lon="12.5878999"><ele>273.6666666666667</ele><time>2026-04-24T10:01:12.972Z</time></trkpt><trkpt lat="43.6019896" lon="12.5881485"><ele>272.0</ele><time>2026-04-24T10:01:13.971Z</time></trkpt><trkpt lat="43.6020737" lon="12.588406"><ele>262.5</ele><time>2026-04-24T10:01:14.971Z</time></trkpt><trkpt lat="43.6021775" lon="12.5886779"><ele>253.0</ele><time>2026-04-24T10:01:15.971Z</time></trkpt><trkpt lat="43.6022892" lon="12.5889607"><ele>253.0</ele><time>2026-04-24T10:01:16.971Z</time></trkpt><trkpt lat="43.6024068" lon="12.5892508"><ele>253.0</ele><time>2026-04-24T10:01:17.971Z</time></trkpt><trkpt lat="43.6025253" lon="12.5895464"><ele>260.0</ele><time>2026-04-24T10:01:18.972Z</time></trkpt><trkpt lat="43.6026477" lon="12.5898466"><ele>267.0</ele><time>2026-04-24T10:01:19.971Z</time></trkpt><trkpt lat="43.6027708" lon="12.5901512"><ele>263.0</ele><time>2026-04-24T10:01:20.972Z</time></trkpt><trkpt lat="43.602894" lon="12.5904591"><ele>259.0</ele><time>2026-04-24T10:01:21.971Z</time></trkpt><trkpt lat="43.6030164" lon="12.5907677"><ele>259.0</ele><time>2026-04-24T10:01:22.971Z</time></trkpt><trkpt lat="43.6031392" lon="12.5910801"><ele>259.0</ele><time>2026-04-24T10:01:23.971Z</time></trkpt><trkpt lat="43.6032638" lon="12.5913969"><ele>262.0</ele><time>2026-04-24T10:01:24.971Z</time></trkpt><trkpt lat="43.6033932" lon="12.5917169"><ele>265.0</ele><time>2026-04-24T10:01:25.972Z</time></trkpt><trkpt lat="43.6035236" lon="12.5920401"><ele>265.0</ele><time>2026-04-24T10:01:26.971Z</time></trkpt><trkpt lat="43.6036569" lon="12.5923693"><ele>265.0</ele><time>2026-04-24T10:01:27.971Z</time></trkpt><trkpt lat="43.6037989" lon="12.5927058"><ele>265.0</ele><time>2026-04-24T10:01:28.971Z</time></trkpt><trkpt lat="43.6039475" lon="12.5930538"><ele>265.0</ele><time>2026-04-24T10:01:29.971Z</time></trkpt><trkpt lat="43.6040893" lon="12.5934155"><ele>263.5</ele><time>2026-04-24T10:01:30.971Z</time></trkpt><trkpt lat="43.604224" lon="12.5937857"><ele>262.0</ele><time>2026-04-24T10:01:31.971Z</time></trkpt><trkpt lat="43.604367" lon="12.5941519"><ele>260.5</ele><time>2026-04-24T10:01:32.971Z</time></trkpt><trkpt lat="43.6045126" lon="12.5945116"><ele>259.0</ele><time>2026-04-24T10:01:33.972Z</time></trkpt><trkpt lat="43.6046564" lon="12.5948694"><ele>259.0</ele><time>2026-04-24T10:01:34.972Z</time></trkpt><trkpt lat="43.6047979" lon="12.5952261"><ele>259.0</ele><time>2026-04-24T10:01:35.971Z</time></trkpt><trkpt lat="43.6049377" lon="12.5955832"><ele>259.5</ele><time>2026-04-24T10:01:36.971Z</time></trkpt><trkpt lat="43.6050796" lon="12.5959386"><ele>260.0</ele><time>2026-04-24T10:01:37.971Z</time></trkpt><trkpt lat="43.6052221" lon="12.5962925"><ele>260.0</ele><time>2026-04-24T10:01:38.971Z</time></trkpt><trkpt lat="43.605363" lon="12.5966472"><ele>260.0</ele><time>2026-04-24T10:01:39.971Z</time></trkpt><trkpt lat="43.6055035" lon="12.5970031"><ele>260.0</ele><time>2026-04-24T10:01:40.972Z</time></trkpt><trkpt lat="43.6056444" lon="12.5973595"><ele>260.0</ele><time>2026-04-24T10:01:41.971Z</time></trkpt><trkpt lat="43.6057867" lon="12.5977129"><ele>259.5</ele><time>2026-04-24T10:01:42.972Z</time></trkpt><trkpt lat="43.6059294" lon="12.5980668"><ele>259.0</ele><time>2026-04-24T10:01:43.971Z</time></trkpt><trkpt lat="43.606071" lon="12.5984192"><ele>257.5</ele><time>2026-04-24T10:01:44.971Z</time></trkpt><trkpt lat="43.6062083" lon="12.598764"><ele>256.0</ele><time>2026-04-24T10:01:45.971Z</time></trkpt><trkpt lat="43.6063435" lon="12.5991044"><ele>256.0</ele><time>2026-04-24T10:01:46.972Z</time></trkpt><trkpt lat="43.6064753" lon="12.5994339"><ele>256.0</ele><time>2026-04-24T10:01:47.971Z</time></trkpt><trkpt lat="43.6066023" lon="12.5997438"><ele>256.3333333333333</ele><time>2026-04-24T10:01:48.972Z</time></trkpt><trkpt lat="43.6067171" lon="12.6000221"><ele>256.6666666666667</ele><time>2026-04-24T10:01:49.971Z</time></trkpt><trkpt lat="43.6068227" lon="12.6002812"><ele>257.0</ele><time>2026-04-24T10:01:50.972Z</time></trkpt><trkpt lat="43.6069275" lon="12.6005429"><ele>252.5</ele><time>2026-04-24T10:01:51.971Z</time></trkpt><trkpt lat="43.6070312" lon="12.6008201"><ele>248.0</ele><time>2026-04-24T10:01:52.971Z</time></trkpt><trkpt lat="43.607126" lon="12.6011088"><ele>246.5</ele><time>2026-04-24T10:01:53.971Z</time></trkpt><trkpt lat="43.6072166" lon="12.6014085"><ele>245.0</ele><time>2026-04-24T10:01:54.971Z</time></trkpt><trkpt lat="43.6073113" lon="12.6017148"><ele>246.0</ele><time>2026-04-24T10:01:55.971Z</time></trkpt><trkpt lat="43.60741" lon="12.6020257"><ele>247.0</ele><time>2026-04-24T10:01:56.971Z</time></trkpt><trkpt lat="43.6075101" lon="12.6023418"><ele>247.0</ele><time>2026-04-24T10:01:57.971Z</time></trkpt><trkpt lat="43.6076143" lon="12.6026597"><ele>247.0</ele><time>2026-04-24T10:01:58.971Z</time></trkpt><trkpt lat="43.6077189" lon="12.6029777"><ele>247.5</ele><time>2026-04-24T10:01:59.971Z</time></trkpt><trkpt lat="43.6078227" lon="12.6032963"><ele>248.0</ele><time>2026-04-24T10:02:00.971Z</time></trkpt><trkpt lat="43.6079283" lon="12.6036137"><ele>240.5</ele><time>2026-04-24T10:02:01.971Z</time></trkpt><trkpt lat="43.6080329" lon="12.6039333"><ele>233.0</ele><time>2026-04-24T10:02:02.972Z</time></trkpt><trkpt lat="43.60814" lon="12.6042559"><ele>232.5</ele><time>2026-04-24T10:02:03.972Z</time></trkpt><trkpt lat="43.6082544" lon="12.6045791"><ele>232.0</ele><time>2026-04-24T10:02:04.971Z</time></trkpt><trkpt lat="43.6083764" lon="12.6049127"><ele>232.0</ele><time>2026-04-24T10:02:05.971Z</time></trkpt><trkpt lat="43.6084973" lon="12.6052646"><ele>232.0</ele><time>2026-04-24T10:02:06.971Z</time></trkpt><trkpt lat="43.6086091" lon="12.6056349"><ele>230.5</ele><time>2026-04-24T10:02:07.971Z</time></trkpt><trkpt lat="43.6087197" lon="12.6060191"><ele>229.0</ele><time>2026-04-24T10:02:08.971Z</time></trkpt><trkpt lat="43.6088474" lon="12.6064025"><ele>228.5</ele><time>2026-04-24T10:02:09.971Z</time></trkpt><trkpt lat="43.6089736" lon="12.6067811"><ele>228.0</ele><time>2026-04-24T10:02:10.971Z</time></trkpt><trkpt lat="43.6090977" lon="12.6071585"><ele>232.0</ele><time>2026-04-24T10:02:11.971Z</time></trkpt><trkpt lat="43.6092235" lon="12.6075324"><ele>236.0</ele><time>2026-04-24T10:02:12.971Z</time></trkpt><trkpt lat="43.6093482" lon="12.6079057"><ele>238.0</ele><time>2026-04-24T10:02:13.971Z</time></trkpt><trkpt lat="43.6094713" lon="12.6082762"><ele>240.0</ele><time>2026-04-24T10:02:14.972Z</time></trkpt><trkpt lat="43.6095921" lon="12.6086462"><ele>237.5</ele><time>2026-04-24T10:02:15.971Z</time></trkpt><trkpt lat="43.6097125" lon="12.6090129"><ele>235.0</ele><time>2026-04-24T10:02:16.971Z</time></trkpt><trkpt lat="43.6098324" lon="12.6093765"><ele>235.0</ele><time>2026-04-24T10:02:17.971Z</time></trkpt><trkpt lat="43.6099514" lon="12.6097372"><ele>235.0</ele><time>2026-04-24T10:02:18.972Z</time></trkpt><trkpt lat="43.6100687" lon="12.6100881"><ele>231.5</ele><time>2026-04-24T10:02:19.971Z</time></trkpt><trkpt lat="43.6101749" lon="12.6104319"><ele>228.0</ele><time>2026-04-24T10:02:20.971Z</time></trkpt><trkpt lat="43.6102628" lon="12.6107821"><ele>227.5</ele><time>2026-04-24T10:02:21.971Z</time></trkpt><trkpt lat="43.6103259" lon="12.6111405"><ele>227.0</ele><time>2026-04-24T10:02:22.971Z</time></trkpt><trkpt lat="43.610374" lon="12.6115029"><ele>225.5</ele><time>2026-04-24T10:02:23.971Z</time></trkpt><trkpt lat="43.6104252" lon="12.6118605"><ele>224.0</ele><time>2026-04-24T10:02:24.971Z</time></trkpt><trkpt lat="43.6104743" lon="12.6122059"><ele>223.5</ele><time>2026-04-24T10:02:25.972Z</time></trkpt><trkpt lat="43.6105186" lon="12.612534"><ele>223.0</ele><time>2026-04-24T10:02:26.971Z</time></trkpt><trkpt lat="43.6105498" lon="12.612841"><ele>224.66666666666666</ele><time>2026-04-24T10:02:27.971Z</time></trkpt><trkpt lat="43.6105605" lon="12.6131313"><ele>226.33333333333331</ele><time>2026-04-24T10:02:28.971Z</time></trkpt><trkpt lat="43.6105264" lon="12.6134255"><ele>228.0</ele><time>2026-04-24T10:02:29.972Z</time></trkpt><trkpt lat="43.6104493" lon="12.6137255"><ele>228.0</ele><time>2026-04-24T10:02:30.971Z</time></trkpt><trkpt lat="43.6103425" lon="12.6140184"><ele>228.0</ele><time>2026-04-24T10:02:31.972Z</time></trkpt><trkpt lat="43.6102198" lon="12.6143038"><ele>230.0</ele><time>2026-04-24T10:02:32.971Z</time></trkpt><trkpt lat="43.6100955" lon="12.6145859"><ele>232.0</ele><time>2026-04-24T10:02:33.971Z</time></trkpt><trkpt lat="43.6099782" lon="12.6148534"><ele>232.0</ele><time>2026-04-24T10:02:34.971Z</time></trkpt><trkpt lat="43.6098765" lon="12.6151012"><ele>232.0</ele><time>2026-04-24T10:02:35.971Z</time></trkpt><trkpt lat="43.6098053" lon="12.615317"><ele>232.0</ele><time>2026-04-24T10:02:36.971Z</time></trkpt><trkpt lat="43.609776" lon="12.6155084"><ele>231.5</ele><time>2026-04-24T10:02:37.972Z</time></trkpt><trkpt lat="43.6097919" lon="12.6156716"><ele>231.0</ele><time>2026-04-24T10:02:38.971Z</time></trkpt><trkpt lat="43.6098533" lon="12.6158104"><ele>230.5</ele><time>2026-04-24T10:02:39.972Z</time></trkpt><trkpt lat="43.6099581" lon="12.6159341"><ele>230.0</ele><time>2026-04-24T10:02:40.971Z</time></trkpt><trkpt lat="43.610091" lon="12.6160532"><ele>230.33333333333334</ele><time>2026-04-24T10:02:41.971Z</time></trkpt><trkpt lat="43.6102378" lon="12.6161857"><ele>230.66666666666669</ele><time>2026-04-24T10:02:42.971Z</time></trkpt><trkpt lat="43.6104012" lon="12.616334"><ele>231.0</ele><time>2026-04-24T10:02:43.971Z</time></trkpt><trkpt lat="43.6105811" lon="12.6164919"><ele>231.0</ele><time>2026-04-24T10:02:44.971Z</time></trkpt><trkpt lat="43.6107684" lon="12.6166692"><ele>231.0</ele><time>2026-04-24T10:02:45.971Z</time></trkpt><trkpt lat="43.6109386" lon="12.616897"><ele>231.0</ele><time>2026-04-24T10:02:46.971Z</time></trkpt><trkpt lat="43.6110873" lon="12.6171466"><ele>231.0</ele><time>2026-04-24T10:02:47.971Z</time></trkpt><trkpt lat="43.611234" lon="12.6174046"><ele>231.0</ele><time>2026-04-24T10:02:48.971Z</time></trkpt><trkpt lat="43.6113803" lon="12.6176656"><ele>231.0</ele><time>2026-04-24T10:02:49.971Z</time></trkpt><trkpt lat="43.6115204" lon="12.6179124"><ele>230.33333333333331</ele><time>2026-04-24T10:02:50.971Z</time></trkpt><trkpt lat="43.6116442" lon="12.6181572"><ele>229.66666666666666</ele><time>2026-04-24T10:02:51.971Z</time></trkpt><trkpt lat="43.6117507" lon="12.6184084"><ele>229.0</ele><time>2026-04-24T10:02:52.971Z</time></trkpt><trkpt lat="43.6118305" lon="12.6186715"><ele>228.0</ele><time>2026-04-24T10:02:53.971Z</time></trkpt><trkpt lat="43.6118977" lon="12.6189416"><ele>227.0</ele><time>2026-04-24T10:02:54.971Z</time></trkpt><trkpt lat="43.6119665" lon="12.6192118"><ele>226.0</ele><time>2026-04-24T10:02:55.972Z</time></trkpt><trkpt lat="43.6120363" lon="12.6194828"><ele>229.33333333333331</ele><time>2026-04-24T10:02:56.971Z</time></trkpt><trkpt lat="43.612108" lon="12.6197576"><ele>232.66666666666669</ele><time>2026-04-24T10:02:57.971Z</time></trkpt><trkpt lat="43.6121796" lon="12.6200289"><ele>236.0</ele><time>2026-04-24T10:02:58.971Z</time></trkpt><trkpt lat="43.6122414" lon="12.6203004"><ele>236.33333333333334</ele><time>2026-04-24T10:02:59.971Z</time></trkpt><trkpt lat="43.612282" lon="12.6205814"><ele>236.66666666666669</ele><time>2026-04-24T10:03:00.97Z</time></trkpt><trkpt lat="43.6122999" lon="12.6208698"><ele>237.0</ele><time>2026-04-24T10:03:01.97Z</time></trkpt><trkpt lat="43.612296" lon="12.6211587"><ele>237.33333333333331</ele><time>2026-04-24T10:03:02.97Z</time></trkpt><trkpt lat="43.6122772" lon="12.6214454"><ele>237.66666666666666</ele><time>2026-04-24T10:03:03.97Z</time></trkpt><trkpt lat="43.6122566" lon="12.6217221"><ele>238.0</ele><time>2026-04-24T10:03:04.97Z</time></trkpt><trkpt lat="43.6122372" lon="12.6219823"><ele>237.33333333333331</ele><time>2026-04-24T10:03:05.97Z</time></trkpt><trkpt lat="43.6122188" lon="12.6222302"><ele>236.66666666666669</ele><time>2026-04-24T10:03:06.97Z</time></trkpt><trkpt lat="43.6122025" lon="12.6224677"><ele>236.0</ele><time>2026-04-24T10:03:07.97Z</time></trkpt><trkpt lat="43.6121877" lon="12.6226909"><ele>235.66666666666669</ele><time>2026-04-24T10:03:08.971Z</time></trkpt><trkpt lat="43.6121749" lon="12.6228998"><ele>235.33333333333331</ele><time>2026-04-24T10:03:09.97Z</time></trkpt><trkpt lat="43.61216" lon="12.6231075"><ele>235.0</ele><time>2026-04-24T10:03:10.97Z</time></trkpt><trkpt lat="43.6121514" lon="12.6233134"><ele>235.0</ele><time>2026-04-24T10:03:11.97Z</time></trkpt><trkpt lat="43.6121537" lon="12.6235159"><ele>235.0</ele><time>2026-04-24T10:03:12.97Z</time></trkpt><trkpt lat="43.6121713" lon="12.6237105"><ele>235.0</ele><time>2026-04-24T10:03:13.97Z</time></trkpt><trkpt lat="43.6122101" lon="12.6239238"><ele>235.0</ele><time>2026-04-24T10:03:14.971Z</time></trkpt><trkpt lat="43.6122703" lon="12.6241471"><ele>235.0</ele><time>2026-04-24T10:03:15.97Z</time></trkpt><trkpt lat="43.6123535" lon="12.6243602"><ele>235.0</ele><time>2026-04-24T10:03:16.971Z</time></trkpt><trkpt lat="43.6124604" lon="12.6245586"><ele>235.0</ele><time>2026-04-24T10:03:17.971Z</time></trkpt><trkpt lat="43.6125899" lon="12.624754"><ele>233.0</ele><time>2026-04-24T10:03:18.971Z</time></trkpt><trkpt lat="43.6127417" lon="12.6249375"><ele>231.0</ele><time>2026-04-24T10:03:19.97Z</time></trkpt><trkpt lat="43.6128984" lon="12.625117"><ele>229.0</ele><time>2026-04-24T10:03:20.97Z</time></trkpt><trkpt lat="43.6130445" lon="12.6252864"><ele>228.0</ele><time>2026-04-24T10:03:21.97Z</time></trkpt><trkpt lat="43.6131861" lon="12.6254474"><ele>227.0</ele><time>2026-04-24T10:03:22.971Z</time></trkpt><trkpt lat="43.6133256" lon="12.6256012"><ele>226.0</ele><time>2026-04-24T10:03:23.971Z</time></trkpt><trkpt lat="43.6134543" lon="12.6257545"><ele>226.0</ele><time>2026-04-24T10:03:24.971Z</time></trkpt><trkpt lat="43.6135514" lon="12.625912"><ele>226.0</ele><time>2026-04-24T10:03:25.971Z</time></trkpt><trkpt lat="43.6136187" lon="12.6260842"><ele>226.0</ele><time>2026-04-24T10:03:26.97Z</time></trkpt><trkpt lat="43.613641" lon="12.6262693"><ele>226.0</ele><time>2026-04-24T10:03:27.97Z</time></trkpt><trkpt lat="43.6136123" lon="12.6264529"><ele>225.75</ele><time>2026-04-24T10:03:28.97Z</time></trkpt><trkpt lat="43.6135605" lon="12.6266278"><ele>225.5</ele><time>2026-04-24T10:03:29.97Z</time></trkpt><trkpt lat="43.613495" lon="12.6268173"><ele>225.25</ele><time>2026-04-24T10:03:30.97Z</time></trkpt><trkpt lat="43.6134357" lon="12.6270118"><ele>225.0</ele><time>2026-04-24T10:03:31.971Z</time></trkpt><trkpt lat="43.6133749" lon="12.6272088"><ele>226.75</ele><time>2026-04-24T10:03:32.97Z</time></trkpt><trkpt lat="43.6133138" lon="12.6274003"><ele>228.5</ele><time>2026-04-24T10:03:33.97Z</time></trkpt><trkpt lat="43.6132462" lon="12.6275851"><ele>230.25</ele><time>2026-04-24T10:03:34.97Z</time></trkpt><trkpt lat="43.6131621" lon="12.6277495"><ele>232.0</ele><time>2026-04-24T10:03:35.971Z</time></trkpt><trkpt lat="43.6130652" lon="12.6278934"><ele>231.75</ele><time>2026-04-24T10:03:36.971Z</time></trkpt><trkpt lat="43.6129672" lon="12.6280318"><ele>231.5</ele><time>2026-04-24T10:03:37.97Z</time></trkpt><trkpt lat="43.6128784" lon="12.6281751"><ele>231.25</ele><time>2026-04-24T10:03:38.97Z</time></trkpt><trkpt lat="43.6128113" lon="12.6283443"><ele>231.0</ele><time>2026-04-24T10:03:39.97Z</time></trkpt><trkpt lat="43.612774" lon="12.6285361"><ele>232.0</ele><time>2026-04-24T10:03:40.97Z</time></trkpt><trkpt lat="43.612768" lon="12.6287281"><ele>233.0</ele><time>2026-04-24T10:03:41.971Z</time></trkpt><trkpt lat="43.6127759" lon="12.6288823"><ele>234.0</ele><time>2026-04-24T10:03:42.97Z</time></trkpt><trkpt lat="43.6127892" lon="12.6290328"><ele>235.0</ele><time>2026-04-24T10:03:43.97Z</time></trkpt><trkpt lat="43.6128083" lon="12.6291937"><ele>235.75</ele><time>2026-04-24T10:03:44.97Z</time></trkpt><trkpt lat="43.6128285" lon="12.6293599"><ele>236.5</ele><time>2026-04-24T10:03:45.971Z</time></trkpt><trkpt lat="43.6128455" lon="12.6295145"><ele>237.25</ele><time>2026-04-24T10:03:46.971Z</time></trkpt><trkpt lat="43.6128613" lon="12.6296652"><ele>238.0</ele><time>2026-04-24T10:03:47.97Z</time></trkpt><trkpt lat="43.6128869" lon="12.6298464"><ele>238.33333333333331</ele><time>2026-04-24T10:03:48.971Z</time></trkpt><trkpt lat="43.6129222" lon="12.6300489"><ele>238.66666666666669</ele><time>2026-04-24T10:03:49.97Z</time></trkpt><trkpt lat="43.6129518" lon="12.6302681"><ele>239.0</ele><time>2026-04-24T10:03:50.97Z</time></trkpt><trkpt lat="43.6129825" lon="12.6305025"><ele>239.33333333333334</ele><time>2026-04-24T10:03:51.97Z</time></trkpt><trkpt lat="43.6130135" lon="12.6307453"><ele>239.66666666666669</ele><time>2026-04-24T10:03:52.97Z</time></trkpt><trkpt lat="43.6130426" lon="12.6309916"><ele>240.0</ele><time>2026-04-24T10:03:53.97Z</time></trkpt><trkpt lat="43.613073" lon="12.6312435"><ele>240.0</ele><time>2026-04-24T10:03:54.97Z</time></trkpt><trkpt lat="43.6131034" lon="12.6314995"><ele>240.0</ele><time>2026-04-24T10:03:55.97Z</time></trkpt><trkpt lat="43.6131328" lon="12.6317568"><ele>240.0</ele><time>2026-04-24T10:03:56.97Z</time></trkpt><trkpt lat="43.6131606" lon="12.6320122"><ele>239.66666666666669</ele><time>2026-04-24T10:03:57.97Z</time></trkpt><trkpt lat="43.6131877" lon="12.6322622"><ele>239.33333333333334</ele><time>2026-04-24T10:03:58.97Z</time></trkpt><trkpt lat="43.6132116" lon="12.6325138"><ele>239.0</ele><time>2026-04-24T10:03:59.97Z</time></trkpt><trkpt lat="43.6132348" lon="12.6327683"><ele>237.66666666666669</ele><time>2026-04-24T10:04:00.971Z</time></trkpt><trkpt lat="43.61326" lon="12.6330262"><ele>236.33333333333331</ele><time>2026-04-24T10:04:01.97Z</time></trkpt><trkpt lat="43.6132834" lon="12.6332834"><ele>235.0</ele><time>2026-04-24T10:04:02.97Z</time></trkpt><trkpt lat="43.6133059" lon="12.6335429"><ele>234.33333333333331</ele><time>2026-04-24T10:04:03.97Z</time></trkpt><trkpt lat="43.61333" lon="12.6338031"><ele>233.66666666666669</ele><time>2026-04-24T10:04:04.971Z</time></trkpt><trkpt lat="43.6133544" lon="12.6340664"><ele>233.0</ele><time>2026-04-24T10:04:05.97Z</time></trkpt><trkpt lat="43.6133769" lon="12.6343237"><ele>233.33333333333334</ele><time>2026-04-24T10:04:06.97Z</time></trkpt><trkpt lat="43.6134004" lon="12.6345784"><ele>233.66666666666669</ele><time>2026-04-24T10:04:07.97Z</time></trkpt><trkpt lat="43.6134253" lon="12.6348394"><ele>234.0</ele><time>2026-04-24T10:04:08.97Z</time></trkpt><trkpt lat="43.6134512" lon="12.635101"><ele>233.33333333333331</ele><time>2026-04-24T10:04:09.97Z</time></trkpt><trkpt lat="43.6134765" lon="12.6353627"><ele>232.66666666666666</ele><time>2026-04-24T10:04:10.97Z</time></trkpt><trkpt lat="43.6135" lon="12.6356258"><ele>232.0</ele><time>2026-04-24T10:04:11.97Z</time></trkpt><trkpt lat="43.6135242" lon="12.6358894"><ele>231.0</ele><time>2026-04-24T10:04:12.971Z</time></trkpt><trkpt lat="43.6135486" lon="12.6361505"><ele>230.0</ele><time>2026-04-24T10:04:13.97Z</time></trkpt><trkpt lat="43.6135743" lon="12.6364094"><ele>229.0</ele><time>2026-04-24T10:04:14.97Z</time></trkpt><trkpt lat="43.6135999" lon="12.6366668"><ele>229.0</ele><time>2026-04-24T10:04:15.971Z</time></trkpt><trkpt lat="43.6136241" lon="12.6369217"><ele>229.0</ele><time>2026-04-24T10:04:16.97Z</time></trkpt><trkpt lat="43.6136483" lon="12.637176"><ele>229.0</ele><time>2026-04-24T10:04:17.971Z</time></trkpt><trkpt lat="43.6136712" lon="12.6374281"><ele>229.66666666666666</ele><time>2026-04-24T10:04:18.97Z</time></trkpt><trkpt lat="43.6136921" lon="12.6376798"><ele>230.33333333333331</ele><time>2026-04-24T10:04:19.97Z</time></trkpt><trkpt lat="43.6137143" lon="12.6379273"><ele>231.0</ele><time>2026-04-24T10:04:20.97Z</time></trkpt><trkpt lat="43.6137353" lon="12.6381705"><ele>231.0</ele><time>2026-04-24T10:04:21.97Z</time></trkpt><trkpt lat="43.6137536" lon="12.6384074"><ele>231.0</ele><time>2026-04-24T10:04:22.97Z</time></trkpt><trkpt lat="43.6137712" lon="12.6386281"><ele>231.0</ele><time>2026-04-24T10:04:23.97Z</time></trkpt><trkpt lat="43.6137862" lon="12.6388339"><ele>231.0</ele><time>2026-04-24T10:04:24.97Z</time></trkpt><trkpt lat="43.6138013" lon="12.6390333"><ele>231.0</ele><time>2026-04-24T10:04:25.971Z</time></trkpt><trkpt lat="43.6138146" lon="12.6392406"><ele>231.0</ele><time>2026-04-24T10:04:26.97Z</time></trkpt><trkpt lat="43.6138237" lon="12.639459"><ele>231.66666666666669</ele><time>2026-04-24T10:04:27.97Z</time></trkpt><trkpt lat="43.6138136" lon="12.6396758"><ele>232.33333333333334</ele><time>2026-04-24T10:04:28.97Z</time></trkpt><trkpt lat="43.6137893" lon="12.6398855"><ele>233.0</ele><time>2026-04-24T10:04:29.97Z</time></trkpt><trkpt lat="43.6137506" lon="12.6400856"><ele>233.0</ele><time>2026-04-24T10:04:30.97Z</time></trkpt><trkpt lat="43.6136973" lon="12.6402721"><ele>233.0</ele><time>2026-04-24T10:04:31.97Z</time></trkpt><trkpt lat="43.6136358" lon="12.6404532"><ele>233.0</ele><time>2026-04-24T10:04:32.97Z</time></trkpt><trkpt lat="43.6135681" lon="12.6406299"><ele>233.0</ele><time>2026-04-24T10:04:33.97Z</time></trkpt><trkpt lat="43.6134939" lon="12.640799"><ele>232.5</ele><time>2026-04-24T10:04:34.971Z</time></trkpt><trkpt lat="43.6134139" lon="12.6409644"><ele>232.0</ele><time>2026-04-24T10:04:35.97Z</time></trkpt><trkpt lat="43.6133394" lon="12.6411225"><ele>231.5</ele><time>2026-04-24T10:04:36.97Z</time></trkpt><trkpt lat="43.6132676" lon="12.6412672"><ele>231.0</ele><time>2026-04-24T10:04:37.971Z</time></trkpt><trkpt lat="43.6131998" lon="12.6414042"><ele>231.0</ele><time>2026-04-24T10:04:38.971Z</time></trkpt><trkpt lat="43.6131346" lon="12.6415337"><ele>231.00000000000003</ele><time>2026-04-24T10:04:39.97Z</time></trkpt><trkpt lat="43.6130752" lon="12.6416599"><ele>231.00000000000003</ele><time>2026-04-24T10:04:40.971Z</time></trkpt><trkpt lat="43.6130169" lon="12.6417871"><ele>231.0</ele><time>2026-04-24T10:04:41.97Z</time></trkpt><trkpt lat="43.6129523" lon="12.6419132"><ele>231.0</ele><time>2026-04-24T10:04:42.971Z</time></trkpt><trkpt lat="43.612889" lon="12.6420443"><ele>233.0</ele><time>2026-04-24T10:04:43.97Z</time></trkpt><trkpt lat="43.6128275" lon="12.6421767"><ele>235.0</ele><time>2026-04-24T10:04:44.97Z</time></trkpt><trkpt lat="43.612768" lon="12.6423131"><ele>237.0</ele><time>2026-04-24T10:04:45.971Z</time></trkpt><trkpt lat="43.6127098" lon="12.6424523"><ele>239.0</ele><time>2026-04-24T10:04:46.97Z</time></trkpt><trkpt lat="43.6126489" lon="12.6425923"><ele>236.25</ele><time>2026-04-24T10:04:47.97Z</time></trkpt><trkpt lat="43.6125865" lon="12.6427301"><ele>233.5</ele><time>2026-04-24T10:04:48.97Z</time></trkpt><trkpt lat="43.6125227" lon="12.6428637"><ele>230.75</ele><time>2026-04-24T10:04:49.97Z</time></trkpt><trkpt lat="43.6124612" lon="12.6429934"><ele>228.0</ele><time>2026-04-24T10:04:50.972Z</time></trkpt><trkpt lat="43.6123984" lon="12.6431291"><ele>228.0</ele><time>2026-04-24T10:04:51.97Z</time></trkpt><trkpt lat="43.6123398" lon="12.6432785"><ele>228.0</ele><time>2026-04-24T10:04:52.97Z</time></trkpt><trkpt lat="43.612291" lon="12.6434425"><ele>228.0</ele><time>2026-04-24T10:04:53.97Z</time></trkpt><trkpt lat="43.612252" lon="12.6436186"><ele>228.0</ele><time>2026-04-24T10:04:54.971Z</time></trkpt><trkpt lat="43.6122349" lon="12.6437941"><ele>228.0</ele><time>2026-04-24T10:04:55.97Z</time></trkpt><trkpt lat="43.6122302" lon="12.6439657"><ele>228.0</ele><time>2026-04-24T10:04:56.971Z</time></trkpt><trkpt lat="43.6122374" lon="12.6441283"><ele>228.0</ele><time>2026-04-24T10:04:57.97Z</time></trkpt><trkpt lat="43.6122557" lon="12.6442968"><ele>228.0</ele><time>2026-04-24T10:04:58.971Z</time></trkpt><trkpt lat="43.6122978" lon="12.6444596"><ele>226.5</ele><time>2026-04-24T10:04:59.97Z</time></trkpt><trkpt lat="43.6123628" lon="12.6446028"><ele>225.0</ele><time>2026-04-24T10:05:00.97Z</time></trkpt><trkpt lat="43.6124443" lon="12.6447234"><ele>223.5</ele><time>2026-04-24T10:05:01.972Z</time></trkpt><trkpt lat="43.6125366" lon="12.6448307"><ele>222.0</ele><time>2026-04-24T10:05:02.971Z</time></trkpt><trkpt lat="43.6126262" lon="12.6449406"><ele>222.0</ele><time>2026-04-24T10:05:03.97Z</time></trkpt><trkpt lat="43.6127098" lon="12.6450583"><ele>222.0</ele><time>2026-04-24T10:05:04.97Z</time></trkpt><trkpt lat="43.6127856" lon="12.6451875"><ele>222.0</ele><time>2026-04-24T10:05:05.97Z</time></trkpt><trkpt lat="43.6128509" lon="12.6453242"><ele>222.0</ele><time>2026-04-24T10:05:06.97Z</time></trkpt><trkpt lat="43.6129095" lon="12.6454656"><ele>222.6</ele><time>2026-04-24T10:05:07.971Z</time></trkpt><trkpt lat="43.6129671" lon="12.6456049"><ele>223.2</ele><time>2026-04-24T10:05:08.97Z</time></trkpt><trkpt lat="43.6130218" lon="12.6457379"><ele>223.8</ele><time>2026-04-24T10:05:09.97Z</time></trkpt><trkpt lat="43.6130727" lon="12.6458645"><ele>224.4</ele><time>2026-04-24T10:05:10.97Z</time></trkpt><trkpt lat="43.6131202" lon="12.6459908"><ele>225.0</ele><time>2026-04-24T10:05:11.97Z</time></trkpt><trkpt lat="43.6131601" lon="12.6461227"><ele>224.0</ele><time>2026-04-24T10:05:12.97Z</time></trkpt><trkpt lat="43.6131941" lon="12.6462584"><ele>223.0</ele><time>2026-04-24T10:05:13.971Z</time></trkpt><trkpt lat="43.6132149" lon="12.6464018"><ele>222.0</ele><time>2026-04-24T10:05:14.97Z</time></trkpt><trkpt lat="43.6132173" lon="12.6465412"><ele>221.0</ele><time>2026-04-24T10:05:15.97Z</time></trkpt><trkpt lat="43.6132129" lon="12.6466785"><ele>220.0</ele><time>2026-04-24T10:05:16.97Z</time></trkpt><trkpt lat="43.613202" lon="12.6468104"><ele>220.0</ele><time>2026-04-24T10:05:17.97Z</time></trkpt><trkpt lat="43.6131881" lon="12.6469369"><ele>220.0</ele><time>2026-04-24T10:05:18.971Z</time></trkpt><trkpt lat="43.6131722" lon="12.6470569"><ele>220.0</ele><time>2026-04-24T10:05:19.971Z</time></trkpt><trkpt lat="43.6131539" lon="12.6471901"><ele>220.0</ele><time>2026-04-24T10:05:20.97Z</time></trkpt><trkpt lat="43.6131311" lon="12.6473418"><ele>220.0</ele><time>2026-04-24T10:05:21.97Z</time></trkpt><trkpt lat="43.6131105" lon="12.6475009"><ele>220.25</ele><time>2026-04-24T10:05:22.97Z</time></trkpt><trkpt lat="43.6130981" lon="12.6476681"><ele>220.5</ele><time>2026-04-24T10:05:23.97Z</time></trkpt><trkpt lat="43.6130946" lon="12.6478404"><ele>220.75</ele><time>2026-04-24T10:05:24.97Z</time></trkpt><trkpt lat="43.6131014" lon="12.6480154"><ele>221.0</ele><time>2026-04-24T10:05:25.97Z</time></trkpt><trkpt lat="43.613118" lon="12.6481832"><ele>221.25</ele><time>2026-04-24T10:05:26.97Z</time></trkpt><trkpt lat="43.613147" lon="12.648344"><ele>221.5</ele><time>2026-04-24T10:05:27.97Z</time></trkpt><trkpt lat="43.6131868" lon="12.648502"><ele>221.75</ele><time>2026-04-24T10:05:28.97Z</time></trkpt><trkpt lat="43.6132496" lon="12.6486631"><ele>222.0</ele><time>2026-04-24T10:05:29.97Z</time></trkpt><trkpt lat="43.6133411" lon="12.6488476"><ele>221.33333333333331</ele><time>2026-04-24T10:05:30.971Z</time></trkpt><trkpt lat="43.6134331" lon="12.6490539"><ele>220.66666666666666</ele><time>2026-04-24T10:05:31.971Z</time></trkpt><trkpt lat="43.6135257" lon="12.6492708"><ele>220.0</ele><time>2026-04-24T10:05:32.972Z</time></trkpt><trkpt lat="43.6136203" lon="12.649491"><ele>221.33333333333331</ele><time>2026-04-24T10:05:33.97Z</time></trkpt><trkpt lat="43.613715" lon="12.6496986"><ele>222.66666666666669</ele><time>2026-04-24T10:05:34.971Z</time></trkpt><trkpt lat="43.6138045" lon="12.6498918"><ele>224.0</ele><time>2026-04-24T10:05:35.97Z</time></trkpt><trkpt lat="43.6138889" lon="12.6500762"><ele>224.0</ele><time>2026-04-24T10:05:36.97Z</time></trkpt><trkpt lat="43.6139707" lon="12.6502535"><ele>224.0</ele><time>2026-04-24T10:05:37.971Z</time></trkpt><trkpt lat="43.6140459" lon="12.6504215"><ele>224.0</ele><time>2026-04-24T10:05:38.97Z</time></trkpt><trkpt lat="43.6141106" lon="12.6505819"><ele>224.0</ele><time>2026-04-24T10:05:39.971Z</time></trkpt><trkpt lat="43.6141686" lon="12.6507427"><ele>223.0</ele><time>2026-04-24T10:05:40.971Z</time></trkpt><trkpt lat="43.6142075" lon="12.6509186"><ele>222.0</ele><time>2026-04-24T10:05:41.971Z</time></trkpt><trkpt lat="43.6142306" lon="12.6510948"><ele>221.0</ele><time>2026-04-24T10:05:42.971Z</time></trkpt><trkpt lat="43.6142436" lon="12.6512574"><ele>220.0</ele><time>2026-04-24T10:05:43.97Z</time></trkpt><trkpt lat="43.6142509" lon="12.6514199"><ele>219.75</ele><time>2026-04-24T10:05:44.97Z</time></trkpt><trkpt lat="43.6142543" lon="12.651583"><ele>219.5</ele><time>2026-04-24T10:05:45.97Z</time></trkpt><trkpt lat="43.6142582" lon="12.6517581"><ele>219.25</ele><time>2026-04-24T10:05:46.97Z</time></trkpt><trkpt lat="43.6142627" lon="12.651962"><ele>219.0</ele><time>2026-04-24T10:05:47.97Z</time></trkpt><trkpt lat="43.6142672" lon="12.6522196"><ele>219.0</ele><time>2026-04-24T10:05:48.97Z</time></trkpt><trkpt lat="43.6142669" lon="12.6525277"><ele>219.0</ele><time>2026-04-24T10:05:49.97Z</time></trkpt><trkpt lat="43.6142631" lon="12.6528885"><ele>217.0</ele><time>2026-04-24T10:05:50.97Z</time></trkpt><trkpt lat="43.6142529" lon="12.6532894"><ele>215.0</ele><time>2026-04-24T10:05:51.97Z</time></trkpt><trkpt lat="43.6142409" lon="12.6537074"><ele>214.0</ele><time>2026-04-24T10:05:52.97Z</time></trkpt><trkpt lat="43.6142341" lon="12.6541059"><ele>213.0</ele><time>2026-04-24T10:05:53.97Z</time></trkpt><trkpt lat="43.6142338" lon="12.6544802"><ele>213.0</ele><time>2026-04-24T10:05:54.97Z</time></trkpt><trkpt lat="43.6142372" lon="12.6548322"><ele>213.0</ele><time>2026-04-24T10:05:55.971Z</time></trkpt><trkpt lat="43.6142415" lon="12.6551674"><ele>213.33333333333331</ele><time>2026-04-24T10:05:56.97Z</time></trkpt><trkpt lat="43.6142545" lon="12.6554745"><ele>213.66666666666666</ele><time>2026-04-24T10:05:57.971Z</time></trkpt><trkpt lat="43.6142765" lon="12.6557673"><ele>214.0</ele><time>2026-04-24T10:05:58.97Z</time></trkpt><trkpt lat="43.6143164" lon="12.6560397"><ele>213.66666666666666</ele><time>2026-04-24T10:05:59.971Z</time></trkpt><trkpt lat="43.6143885" lon="12.6562941"><ele>213.33333333333331</ele><time>2026-04-24T10:06:00.97Z</time></trkpt><trkpt lat="43.6144758" lon="12.6565361"><ele>213.0</ele><time>2026-04-24T10:06:01.97Z</time></trkpt><trkpt lat="43.6145618" lon="12.6567821"><ele>215.0</ele><time>2026-04-24T10:06:02.97Z</time></trkpt><trkpt lat="43.6146471" lon="12.6570299"><ele>217.0</ele><time>2026-04-24T10:06:03.971Z</time></trkpt><trkpt lat="43.6147316" lon="12.657278"><ele>219.0</ele><time>2026-04-24T10:06:04.97Z</time></trkpt><trkpt lat="43.614815" lon="12.6575257"><ele>219.0</ele><time>2026-04-24T10:06:05.97Z</time></trkpt><trkpt lat="43.6148924" lon="12.6577662"><ele>219.0</ele><time>2026-04-24T10:06:06.97Z</time></trkpt><trkpt lat="43.614953" lon="12.6579901"><ele>219.0</ele><time>2026-04-24T10:06:07.971Z</time></trkpt><trkpt lat="43.6149913" lon="12.6581883"><ele>218.79999999999998</ele><time>2026-04-24T10:06:08.97Z</time></trkpt><trkpt lat="43.6150095" lon="12.6583668"><ele>218.59999999999997</ele><time>2026-04-24T10:06:09.97Z</time></trkpt><trkpt lat="43.6150092" lon="12.6585278"><ele>218.4</ele><time>2026-04-24T10:06:10.97Z</time></trkpt><trkpt lat="43.6149883" lon="12.6586661"><ele>218.2</ele><time>2026-04-24T10:06:11.97Z</time></trkpt><trkpt lat="43.6149471" lon="12.6587885"><ele>218.0</ele><time>2026-04-24T10:06:12.971Z</time></trkpt><trkpt lat="43.6149034" lon="12.6589052"><ele>217.83333333333334</ele><time>2026-04-24T10:06:13.97Z</time></trkpt><trkpt lat="43.6148914" lon="12.65902"><ele>217.66666666666669</ele><time>2026-04-24T10:06:14.97Z</time></trkpt><trkpt lat="43.6149109" lon="12.6591358"><ele>217.5</ele><time>2026-04-24T10:06:15.97Z</time></trkpt><trkpt lat="43.6149425" lon="12.659248"><ele>217.33333333333331</ele><time>2026-04-24T10:06:16.971Z</time></trkpt><trkpt lat="43.6149683" lon="12.6593584"><ele>217.16666666666666</ele><time>2026-04-24T10:06:17.97Z</time></trkpt><trkpt lat="43.6149907" lon="12.6594671"><ele>217.0</ele><time>2026-04-24T10:06:18.97Z</time></trkpt><trkpt lat="43.6150032" lon="12.6595803"><ele>217.0</ele><time>2026-04-24T10:06:19.97Z</time></trkpt><trkpt lat="43.6150098" lon="12.6597024"><ele>217.0</ele><time>2026-04-24T10:06:20.97Z</time></trkpt><trkpt lat="43.615017" lon="12.6598317"><ele>217.0</ele><time>2026-04-24T10:06:21.97Z</time></trkpt><trkpt lat="43.6150303" lon="12.6599645"><ele>217.0</ele><time>2026-04-24T10:06:22.97Z</time></trkpt><trkpt lat="43.6150485" lon="12.6600994"><ele>217.0</ele><time>2026-04-24T10:06:23.971Z</time></trkpt><trkpt lat="43.6150693" lon="12.6602485"><ele>216.8</ele><time>2026-04-24T10:06:24.97Z</time></trkpt><trkpt lat="43.6150934" lon="12.6603901"><ele>216.6</ele><time>2026-04-24T10:06:25.97Z</time></trkpt><trkpt lat="43.6151178" lon="12.6605226"><ele>216.40000000000003</ele><time>2026-04-24T10:06:26.97Z</time></trkpt><trkpt lat="43.6151425" lon="12.6606588"><ele>216.20000000000002</ele><time>2026-04-24T10:06:27.971Z</time></trkpt><trkpt lat="43.6151681" lon="12.6607995"><ele>216.0</ele><time>2026-04-24T10:06:28.97Z</time></trkpt><trkpt lat="43.6151948" lon="12.6609463"><ele>216.0</ele><time>2026-04-24T10:06:29.97Z</time></trkpt><trkpt lat="43.6152254" lon="12.661097"><ele>216.0</ele><time>2026-04-24T10:06:30.971Z</time></trkpt><trkpt lat="43.6152535" lon="12.6612584"><ele>216.0</ele><time>2026-04-24T10:06:31.97Z</time></trkpt><trkpt lat="43.6152862" lon="12.6614315"><ele>216.0</ele><time>2026-04-24T10:06:32.97Z</time></trkpt><trkpt lat="43.6153148" lon="12.6616132"><ele>218.5</ele><time>2026-04-24T10:06:33.97Z</time></trkpt><trkpt lat="43.6153441" lon="12.661803"><ele>221.0</ele><time>2026-04-24T10:06:34.97Z</time></trkpt><trkpt lat="43.6153756" lon="12.6619954"><ele>223.5</ele><time>2026-04-24T10:06:35.97Z</time></trkpt><trkpt lat="43.6154112" lon="12.6621887"><ele>226.0</ele><time>2026-04-24T10:06:36.97Z</time></trkpt><trkpt lat="43.6154462" lon="12.6623774"><ele>226.0</ele><time>2026-04-24T10:06:37.97Z</time></trkpt><trkpt lat="43.6154795" lon="12.6625709"><ele>226.0</ele><time>2026-04-24T10:06:38.972Z</time></trkpt><trkpt lat="43.6155084" lon="12.662768"><ele>226.0</ele><time>2026-04-24T10:06:39.97Z</time></trkpt><trkpt lat="43.6155413" lon="12.662963"><ele>226.0</ele><time>2026-04-24T10:06:40.971Z</time></trkpt><trkpt lat="43.6155756" lon="12.6631563"><ele>226.0</ele><time>2026-04-24T10:06:41.97Z</time></trkpt><trkpt lat="43.6156094" lon="12.6633488"><ele>226.0</ele><time>2026-04-24T10:06:42.97Z</time></trkpt><trkpt lat="43.615644" lon="12.6635455"><ele>226.0</ele><time>2026-04-24T10:06:43.97Z</time></trkpt><trkpt lat="43.6156814" lon="12.6637446"><ele>226.0</ele><time>2026-04-24T10:06:44.97Z</time></trkpt><trkpt lat="43.6157179" lon="12.663946"><ele>226.0</ele><time>2026-04-24T10:06:45.972Z</time></trkpt><trkpt lat="43.6157548" lon="12.6641521"><ele>226.0</ele><time>2026-04-24T10:06:46.97Z</time></trkpt><trkpt lat="43.6157922" lon="12.6643583"><ele>226.0</ele><time>2026-04-24T10:06:47.97Z</time></trkpt><trkpt lat="43.6158303" lon="12.6645637"><ele>223.33333333333331</ele><time>2026-04-24T10:06:48.97Z</time></trkpt><trkpt lat="43.6158687" lon="12.6647724"><ele>220.66666666666669</ele><time>2026-04-24T10:06:49.97Z</time></trkpt><trkpt lat="43.6159026" lon="12.6649794"><ele>218.0</ele><time>2026-04-24T10:06:50.97Z</time></trkpt><trkpt lat="43.6159345" lon="12.6651875"><ele>214.33333333333334</ele><time>2026-04-24T10:06:51.971Z</time></trkpt><trkpt lat="43.6159592" lon="12.6653983"><ele>210.66666666666669</ele><time>2026-04-24T10:06:52.97Z</time></trkpt><trkpt lat="43.6159765" lon="12.6656128"><ele>207.0</ele><time>2026-04-24T10:06:53.97Z</time></trkpt><trkpt lat="43.6159859" lon="12.6658295"><ele>207.0</ele><time>2026-04-24T10:06:54.971Z</time></trkpt><trkpt lat="43.6159867" lon="12.6660468"><ele>207.0</ele><time>2026-04-24T10:06:55.97Z</time></trkpt><trkpt lat="43.6159851" lon="12.6662658"><ele>207.0</ele><time>2026-04-24T10:06:56.97Z</time></trkpt><trkpt lat="43.6159793" lon="12.6664865"><ele>205.66666666666669</ele><time>2026-04-24T10:06:57.97Z</time></trkpt><trkpt lat="43.6159687" lon="12.6667102"><ele>204.33333333333334</ele><time>2026-04-24T10:06:58.97Z</time></trkpt><trkpt lat="43.6159531" lon="12.666935"><ele>203.0</ele><time>2026-04-24T10:06:59.971Z</time></trkpt><trkpt lat="43.6159314" lon="12.6671643"><ele>203.0</ele><time>2026-04-24T10:07:00.971Z</time></trkpt><trkpt lat="43.6159029" lon="12.667396"><ele>203.0</ele><time>2026-04-24T10:07:01.971Z</time></trkpt><trkpt lat="43.6158645" lon="12.667631"><ele>203.0</ele><time>2026-04-24T10:07:02.971Z</time></trkpt><trkpt lat="43.6158199" lon="12.6678601"><ele>203.33333333333334</ele><time>2026-04-24T10:07:03.97Z</time></trkpt><trkpt lat="43.6157695" lon="12.6680812"><ele>203.66666666666669</ele><time>2026-04-24T10:07:04.969Z</time></trkpt><trkpt lat="43.6157146" lon="12.6683039"><ele>204.0</ele><time>2026-04-24T10:07:05.969Z</time></trkpt><trkpt lat="43.6156542" lon="12.6685295"><ele>203.33333333333331</ele><time>2026-04-24T10:07:06.969Z</time></trkpt><trkpt lat="43.6155897" lon="12.6687576"><ele>202.66666666666666</ele><time>2026-04-24T10:07:07.969Z</time></trkpt><trkpt lat="43.6155243" lon="12.6689886"><ele>202.0</ele><time>2026-04-24T10:07:08.97Z</time></trkpt><trkpt lat="43.6154585" lon="12.6692246"><ele>201.66666666666666</ele><time>2026-04-24T10:07:09.97Z</time></trkpt><trkpt lat="43.6153938" lon="12.6694658"><ele>201.33333333333331</ele><time>2026-04-24T10:07:10.969Z</time></trkpt><trkpt lat="43.6153293" lon="12.6697108"><ele>201.0</ele><time>2026-04-24T10:07:11.969Z</time></trkpt><trkpt lat="43.6152614" lon="12.6699549"><ele>202.33333333333331</ele><time>2026-04-24T10:07:12.97Z</time></trkpt><trkpt lat="43.6151932" lon="12.6702028"><ele>203.66666666666666</ele><time>2026-04-24T10:07:13.969Z</time></trkpt><trkpt lat="43.6151256" lon="12.6704518"><ele>205.0</ele><time>2026-04-24T10:07:14.969Z</time></trkpt><trkpt lat="43.6150582" lon="12.6706993"><ele>205.0</ele><time>2026-04-24T10:07:15.969Z</time></trkpt><trkpt lat="43.6149936" lon="12.6709474"><ele>205.0</ele><time>2026-04-24T10:07:16.969Z</time></trkpt><trkpt lat="43.6149278" lon="12.6711944"><ele>205.0</ele><time>2026-04-24T10:07:17.969Z</time></trkpt><trkpt lat="43.6148623" lon="12.6714358"><ele>204.66666666666666</ele><time>2026-04-24T10:07:18.969Z</time></trkpt><trkpt lat="43.6147983" lon="12.6716791"><ele>204.33333333333331</ele><time>2026-04-24T10:07:19.969Z</time></trkpt><trkpt lat="43.614731" lon="12.6719187"><ele>204.0</ele><time>2026-04-24T10:07:20.97Z</time></trkpt><trkpt lat="43.6146558" lon="12.6721508"><ele>203.33333333333331</ele><time>2026-04-24T10:07:21.969Z</time></trkpt><trkpt lat="43.6145716" lon="12.672376"><ele>202.66666666666666</ele><time>2026-04-24T10:07:22.969Z</time></trkpt><trkpt lat="43.6144764" lon="12.6725894"><ele>202.0</ele><time>2026-04-24T10:07:23.969Z</time></trkpt><trkpt lat="43.614376" lon="12.6727857"><ele>203.66666666666666</ele><time>2026-04-24T10:07:24.97Z</time></trkpt><trkpt lat="43.6142734" lon="12.6729655"><ele>205.33333333333331</ele><time>2026-04-24T10:07:25.97Z</time></trkpt><trkpt lat="43.6141667" lon="12.6731354"><ele>207.0</ele><time>2026-04-24T10:07:26.969Z</time></trkpt><trkpt lat="43.6140569" lon="12.6733014"><ele>207.0</ele><time>2026-04-24T10:07:27.969Z</time></trkpt><trkpt lat="43.6139581" lon="12.6734771"><ele>207.0</ele><time>2026-04-24T10:07:28.969Z</time></trkpt><trkpt lat="43.6138788" lon="12.673669"><ele>207.0</ele><time>2026-04-24T10:07:29.969Z</time></trkpt><trkpt lat="43.6138174" lon="12.6738585"><ele>206.75</ele><time>2026-04-24T10:07:30.969Z</time></trkpt><trkpt lat="43.6137729" lon="12.6740275"><ele>206.5</ele><time>2026-04-24T10:07:31.969Z</time></trkpt><trkpt lat="43.6137388" lon="12.6741933"><ele>206.25</ele><time>2026-04-24T10:07:32.97Z</time></trkpt><trkpt lat="43.6137163" lon="12.6743647"><ele>206.0</ele><time>2026-04-24T10:07:33.969Z</time></trkpt><trkpt lat="43.6137043" lon="12.6745562"><ele>205.66666666666669</ele><time>2026-04-24T10:07:34.969Z</time></trkpt><trkpt lat="43.6137021" lon="12.6747699"><ele>205.33333333333331</ele><time>2026-04-24T10:07:35.969Z</time></trkpt><trkpt lat="43.6137076" lon="12.6750072"><ele>205.0</ele><time>2026-04-24T10:07:36.969Z</time></trkpt><trkpt lat="43.6137192" lon="12.6752643"><ele>205.0</ele><time>2026-04-24T10:07:37.97Z</time></trkpt><trkpt lat="43.6137289" lon="12.6755216"><ele>205.0</ele><time>2026-04-24T10:07:38.97Z</time></trkpt><trkpt lat="43.613736" lon="12.6757625"><ele>205.0</ele><time>2026-04-24T10:07:39.97Z</time></trkpt><trkpt lat="43.6137415" lon="12.6759924"><ele>204.66666666666666</ele><time>2026-04-24T10:07:40.969Z</time></trkpt><trkpt lat="43.6137302" lon="12.676211"><ele>204.33333333333331</ele><time>2026-04-24T10:07:41.97Z</time></trkpt><trkpt lat="43.6136789" lon="12.6764089"><ele>204.0</ele><time>2026-04-24T10:07:42.969Z</time></trkpt><trkpt lat="43.6135922" lon="12.6765838"><ele>204.5</ele><time>2026-04-24T10:07:43.97Z</time></trkpt><trkpt lat="43.6134738" lon="12.6767168"><ele>205.0</ele><time>2026-04-24T10:07:44.97Z</time></trkpt><trkpt lat="43.6133384" lon="12.6767951"><ele>205.5</ele><time>2026-04-24T10:07:45.969Z</time></trkpt><trkpt lat="43.6131938" lon="12.6768136"><ele>206.0</ele><time>2026-04-24T10:07:46.969Z</time></trkpt><trkpt lat="43.6130518" lon="12.6767775"><ele>206.0</ele><time>2026-04-24T10:07:47.969Z</time></trkpt><trkpt lat="43.6129234" lon="12.6766797"><ele>206.0</ele><time>2026-04-24T10:07:48.969Z</time></trkpt><trkpt lat="43.6128174" lon="12.6765325"><ele>206.0</ele><time>2026-04-24T10:07:49.97Z</time></trkpt><trkpt lat="43.6127419" lon="12.6763655"><ele>206.0</ele><time>2026-04-24T10:07:50.969Z</time></trkpt><trkpt lat="43.612703" lon="12.6761935"><ele>205.75</ele><time>2026-04-24T10:07:51.969Z</time></trkpt><trkpt lat="43.6127056" lon="12.6760345"><ele>205.5</ele><time>2026-04-24T10:07:52.97Z</time></trkpt><trkpt lat="43.6127538" lon="12.6758815"><ele>205.25</ele><time>2026-04-24T10:07:53.969Z</time></trkpt><trkpt lat="43.6128454" lon="12.6757466"><ele>205.0</ele><time>2026-04-24T10:07:54.969Z</time></trkpt><trkpt lat="43.6129655" lon="12.6756382"><ele>205.0</ele><time>2026-04-24T10:07:55.969Z</time></trkpt><trkpt lat="43.6131062" lon="12.6755612"><ele>205.0</ele><time>2026-04-24T10:07:56.969Z</time></trkpt><trkpt lat="43.6132679" lon="12.6755277"><ele>205.0</ele><time>2026-04-24T10:07:57.969Z</time></trkpt><trkpt lat="43.6134466" lon="12.6755083"><ele>205.0</ele><time>2026-04-24T10:07:58.969Z</time></trkpt><trkpt lat="43.6136421" lon="12.6754897"><ele>205.0</ele><time>2026-04-24T10:07:59.97Z</time></trkpt><trkpt lat="43.6138417" lon="12.6754781"><ele>205.0</ele><time>2026-04-24T10:08:00.969Z</time></trkpt><trkpt lat="43.6140717" lon="12.675448"><ele>205.0</ele><time>2026-04-24T10:08:01.969Z</time></trkpt><trkpt lat="43.6142965" lon="12.6754306"><ele>205.0</ele><time>2026-04-24T10:08:02.969Z</time></trkpt><trkpt lat="43.6145293" lon="12.6754288"><ele>201.0</ele><time>2026-04-24T10:08:03.969Z</time></trkpt><trkpt lat="43.6147672" lon="12.6754367"><ele>197.0</ele><time>2026-04-24T10:08:04.969Z</time></trkpt><trkpt lat="43.6150091" lon="12.6754476"><ele>197.0</ele><time>2026-04-24T10:08:05.969Z</time></trkpt><trkpt lat="43.6152626" lon="12.675462"><ele>197.0</ele><time>2026-04-24T10:08:06.969Z</time></trkpt><trkpt lat="43.6155239" lon="12.6754824"><ele>195.5</ele><time>2026-04-24T10:08:07.969Z</time></trkpt><trkpt lat="43.6157909" lon="12.6755084"><ele>194.0</ele><time>2026-04-24T10:08:08.97Z</time></trkpt><trkpt lat="43.6160616" lon="12.6755461"><ele>194.0</ele><time>2026-04-24T10:08:09.97Z</time></trkpt><trkpt lat="43.6163302" lon="12.6755981"><ele>194.0</ele><time>2026-04-24T10:08:10.97Z</time></trkpt><trkpt lat="43.6165947" lon="12.6756558"><ele>194.0</ele><time>2026-04-24T10:08:11.969Z</time></trkpt><trkpt lat="43.6168492" lon="12.6757186"><ele>194.0</ele><time>2026-04-24T10:08:12.969Z</time></trkpt><trkpt lat="43.6170792" lon="12.675783"><ele>195.0</ele><time>2026-04-24T10:08:13.969Z</time></trkpt><trkpt lat="43.6172841" lon="12.6758425"><ele>196.0</ele><time>2026-04-24T10:08:14.969Z</time></trkpt><trkpt lat="43.6174511" lon="12.6758918"><ele>197.0</ele><time>2026-04-24T10:08:15.969Z</time></trkpt><trkpt lat="43.6175921" lon="12.6759318"><ele>197.0</ele><time>2026-04-24T10:08:16.969Z</time></trkpt><trkpt lat="43.6177359" lon="12.6759713"><ele>197.0</ele><time>2026-04-24T10:08:17.97Z</time></trkpt><trkpt lat="43.6178817" lon="12.6760119"><ele>197.0</ele><time>2026-04-24T10:08:18.969Z</time></trkpt><trkpt lat="43.6180403" lon="12.6760576"><ele>197.33333333333334</ele><time>2026-04-24T10:08:19.969Z</time></trkpt><trkpt lat="43.6182035" lon="12.6761081"><ele>197.66666666666669</ele><time>2026-04-24T10:08:20.97Z</time></trkpt><trkpt lat="43.6183639" lon="12.6761543"><ele>198.0</ele><time>2026-04-24T10:08:21.97Z</time></trkpt><trkpt lat="43.6185253" lon="12.6761864"><ele>197.33333333333331</ele><time>2026-04-24T10:08:22.969Z</time></trkpt><trkpt lat="43.6186974" lon="12.6762105"><ele>196.66666666666666</ele><time>2026-04-24T10:08:23.97Z</time></trkpt><trkpt lat="43.6188739" lon="12.6762503"><ele>196.0</ele><time>2026-04-24T10:08:24.969Z</time></trkpt><trkpt lat="43.6190554" lon="12.6763053"><ele>196.0</ele><time>2026-04-24T10:08:25.97Z</time></trkpt><trkpt lat="43.6192412" lon="12.6763688"><ele>196.0</ele><time>2026-04-24T10:08:26.969Z</time></trkpt><trkpt lat="43.6194285" lon="12.6764369"><ele>196.0</ele><time>2026-04-24T10:08:27.969Z</time></trkpt><trkpt lat="43.6196184" lon="12.6765093"><ele>195.33333333333331</ele><time>2026-04-24T10:08:28.969Z</time></trkpt><trkpt lat="43.6198082" lon="12.6765878"><ele>194.66666666666669</ele><time>2026-04-24T10:08:29.97Z</time></trkpt><trkpt lat="43.6199954" lon="12.6766657"><ele>194.0</ele><time>2026-04-24T10:08:30.97Z</time></trkpt><trkpt lat="43.6201755" lon="12.6767419"><ele>194.0</ele><time>2026-04-24T10:08:31.969Z</time></trkpt><trkpt lat="43.6203461" lon="12.6768174"><ele>194.0</ele><time>2026-04-24T10:08:32.97Z</time></trkpt><trkpt lat="43.6205103" lon="12.6768944"><ele>194.0</ele><time>2026-04-24T10:08:33.969Z</time></trkpt><trkpt lat="43.6206774" lon="12.6769734"><ele>194.0</ele><time>2026-04-24T10:08:34.969Z</time></trkpt><trkpt lat="43.6208446" lon="12.6770542"><ele>194.0</ele><time>2026-04-24T10:08:35.97Z</time></trkpt><trkpt lat="43.6210101" lon="12.6771385"><ele>194.0</ele><time>2026-04-24T10:08:36.969Z</time></trkpt><trkpt lat="43.6211746" lon="12.6772263"><ele>194.0</ele><time>2026-04-24T10:08:37.969Z</time></trkpt><trkpt lat="43.6213363" lon="12.6773138"><ele>194.0</ele><time>2026-04-24T10:08:38.969Z</time></trkpt><trkpt lat="43.6214939" lon="12.6774026"><ele>194.0</ele><time>2026-04-24T10:08:39.969Z</time></trkpt><trkpt lat="43.6216488" lon="12.6774891"><ele>194.0</ele><time>2026-04-24T10:08:40.97Z</time></trkpt><trkpt lat="43.6218019" lon="12.6775774"><ele>194.0</ele><time>2026-04-24T10:08:41.969Z</time></trkpt><trkpt lat="43.6219557" lon="12.6776622"><ele>194.0</ele><time>2026-04-24T10:08:42.969Z</time></trkpt><trkpt lat="43.6221103" lon="12.677756"><ele>193.66666666666669</ele><time>2026-04-24T10:08:43.969Z</time></trkpt><trkpt lat="43.6222671" lon="12.6778527"><ele>193.33333333333331</ele><time>2026-04-24T10:08:44.97Z</time></trkpt><trkpt lat="43.6224277" lon="12.6779534"><ele>193.0</ele><time>2026-04-24T10:08:45.969Z</time></trkpt><trkpt lat="43.6225865" lon="12.6780642"><ele>193.0</ele><time>2026-04-24T10:08:46.969Z</time></trkpt><trkpt lat="43.6227479" lon="12.6781739"><ele>193.0</ele><time>2026-04-24T10:08:47.97Z</time></trkpt><trkpt lat="43.6229088" lon="12.6782822"><ele>193.0</ele><time>2026-04-24T10:08:48.969Z</time></trkpt><trkpt lat="43.6230663" lon="12.6783934"><ele>192.33333333333331</ele><time>2026-04-24T10:08:49.969Z</time></trkpt><trkpt lat="43.6232245" lon="12.678505"><ele>191.66666666666666</ele><time>2026-04-24T10:08:50.97Z</time></trkpt><trkpt lat="43.623381" lon="12.6786158"><ele>191.0</ele><time>2026-04-24T10:08:51.969Z</time></trkpt><trkpt lat="43.6235363" lon="12.6787381"><ele>191.66666666666666</ele><time>2026-04-24T10:08:52.969Z</time></trkpt><trkpt lat="43.6236947" lon="12.6788632"><ele>192.33333333333331</ele><time>2026-04-24T10:08:53.969Z</time></trkpt><trkpt lat="43.6238491" lon="12.6789879"><ele>193.0</ele><time>2026-04-24T10:08:54.969Z</time></trkpt><trkpt lat="43.6239988" lon="12.6791096"><ele>193.0</ele><time>2026-04-24T10:08:55.97Z</time></trkpt><trkpt lat="43.624144" lon="12.6792325"><ele>193.0</ele><time>2026-04-24T10:08:56.969Z</time></trkpt><trkpt lat="43.6242825" lon="12.6793536"><ele>193.0</ele><time>2026-04-24T10:08:57.969Z</time></trkpt><trkpt lat="43.6244172" lon="12.6794755"><ele>193.0</ele><time>2026-04-24T10:08:58.969Z</time></trkpt><trkpt lat="43.6245465" lon="12.6795915"><ele>193.0</ele><time>2026-04-24T10:08:59.969Z</time></trkpt><trkpt lat="43.624663" lon="12.6797206"><ele>193.0</ele><time>2026-04-24T10:09:00.969Z</time></trkpt><trkpt lat="43.6247706" lon="12.6798697"><ele>193.0</ele><time>2026-04-24T10:09:01.969Z</time></trkpt><trkpt lat="43.6248881" lon="12.6800134"><ele>193.0</ele><time>2026-04-24T10:09:02.969Z</time></trkpt><trkpt lat="43.6250108" lon="12.6801534"><ele>193.0</ele><time>2026-04-24T10:09:03.969Z</time></trkpt><trkpt lat="43.6251398" lon="12.6802988"><ele>192.66666666666666</ele><time>2026-04-24T10:09:04.969Z</time></trkpt><trkpt lat="43.625272" lon="12.6804501"><ele>192.33333333333331</ele><time>2026-04-24T10:09:05.969Z</time></trkpt><trkpt lat="43.6254116" lon="12.6806026"><ele>192.0</ele><time>2026-04-24T10:09:06.969Z</time></trkpt><trkpt lat="43.6255579" lon="12.6807502"><ele>192.0</ele><time>2026-04-24T10:09:07.97Z</time></trkpt><trkpt lat="43.6257089" lon="12.6808964"><ele>192.0</ele><time>2026-04-24T10:09:08.97Z</time></trkpt><trkpt lat="43.6258594" lon="12.6810513"><ele>192.0</ele><time>2026-04-24T10:09:09.969Z</time></trkpt><trkpt lat="43.6260032" lon="12.6812196"><ele>192.0</ele><time>2026-04-24T10:09:10.97Z</time></trkpt><trkpt lat="43.6261346" lon="12.6813996"><ele>192.0</ele><time>2026-04-24T10:09:11.969Z</time></trkpt><trkpt lat="43.6262517" lon="12.6815969"><ele>192.0</ele><time>2026-04-24T10:09:12.969Z</time></trkpt><trkpt lat="43.6264512" lon="12.6820401"><ele>192.0</ele><time>2026-04-24T10:09:14.97Z</time></trkpt><trkpt lat="43.6265342" lon="12.6822709"><ele>192.0</ele><time>2026-04-24T10:09:15.97Z</time></trkpt><trkpt lat="43.6266027" lon="12.6824996"><ele>192.0</ele><time>2026-04-24T10:09:16.97Z</time></trkpt><trkpt lat="43.6266727" lon="12.682714"><ele>192.33333333333331</ele><time>2026-04-24T10:09:17.97Z</time></trkpt><trkpt lat="43.6267626" lon="12.6828942"><ele>192.66666666666666</ele><time>2026-04-24T10:09:18.97Z</time></trkpt><trkpt lat="43.626883" lon="12.6830428"><ele>193.0</ele><time>2026-04-24T10:09:19.969Z</time></trkpt><trkpt lat="43.6270296" lon="12.6831548"><ele>193.0</ele><time>2026-04-24T10:09:20.97Z</time></trkpt><trkpt lat="43.6271879" lon="12.6832488"><ele>193.0</ele><time>2026-04-24T10:09:21.969Z</time></trkpt><trkpt lat="43.6273513" lon="12.6833416"><ele>193.0</ele><time>2026-04-24T10:09:22.969Z</time></trkpt><trkpt lat="43.6275138" lon="12.6834441"><ele>193.0</ele><time>2026-04-24T10:09:23.969Z</time></trkpt><trkpt lat="43.6276698" lon="12.6835403"><ele>193.0</ele><time>2026-04-24T10:09:24.969Z</time></trkpt><trkpt lat="43.6278136" lon="12.6836277"><ele>193.0</ele><time>2026-04-24T10:09:25.97Z</time></trkpt><trkpt lat="43.6279396" lon="12.6837048"><ele>192.2</ele><time>2026-04-24T10:09:26.97Z</time></trkpt><trkpt lat="43.6280543" lon="12.6837783"><ele>191.4</ele><time>2026-04-24T10:09:27.97Z</time></trkpt><trkpt lat="43.6281503" lon="12.6838717"><ele>190.6</ele><time>2026-04-24T10:09:28.97Z</time></trkpt><trkpt lat="43.6282181" lon="12.6839817"><ele>189.79999999999998</ele><time>2026-04-24T10:09:29.969Z</time></trkpt><trkpt lat="43.6282559" lon="12.6840927"><ele>189.0</ele><time>2026-04-24T10:09:30.969Z</time></trkpt><trkpt lat="43.6282628" lon="12.6841946"><ele>189.0</ele><time>2026-04-24T10:09:31.97Z</time></trkpt><trkpt lat="43.628241" lon="12.6843098"><ele>189.0</ele><time>2026-04-24T10:09:32.97Z</time></trkpt><trkpt lat="43.6282072" lon="12.6844521"><ele>189.0</ele><time>2026-04-24T10:09:33.969Z</time></trkpt><trkpt lat="43.628167" lon="12.6846207"><ele>189.0</ele><time>2026-04-24T10:09:34.969Z</time></trkpt><trkpt lat="43.62812" lon="12.6848089"><ele>189.66666666666666</ele><time>2026-04-24T10:09:35.969Z</time></trkpt><trkpt lat="43.6280724" lon="12.6850097"><ele>190.33333333333331</ele><time>2026-04-24T10:09:36.97Z</time></trkpt><trkpt lat="43.6280201" lon="12.6852175"><ele>191.0</ele><time>2026-04-24T10:09:37.97Z</time></trkpt><trkpt lat="43.6279661" lon="12.6854243"><ele>191.5</ele><time>2026-04-24T10:09:38.969Z</time></trkpt><trkpt lat="43.6279142" lon="12.6856154"><ele>192.0</ele><time>2026-04-24T10:09:39.969Z</time></trkpt><trkpt lat="43.6278741" lon="12.685796"><ele>192.5</ele><time>2026-04-24T10:09:40.97Z</time></trkpt><trkpt lat="43.627853" lon="12.6859699"><ele>193.0</ele><time>2026-04-24T10:09:41.969Z</time></trkpt><trkpt lat="43.6278567" lon="12.6861475"><ele>193.0</ele><time>2026-04-24T10:09:42.969Z</time></trkpt><trkpt lat="43.6278823" lon="12.6863119"><ele>193.0</ele><time>2026-04-24T10:09:43.969Z</time></trkpt><trkpt lat="43.6279423" lon="12.6864559"><ele>193.0</ele><time>2026-04-24T10:09:44.969Z</time></trkpt><trkpt lat="43.6280274" lon="12.6865955"><ele>193.0</ele><time>2026-04-24T10:09:45.969Z</time></trkpt><trkpt lat="43.628132" lon="12.6867368"><ele>193.0</ele><time>2026-04-24T10:09:46.969Z</time></trkpt><trkpt lat="43.6282458" lon="12.686894"><ele>193.0</ele><time>2026-04-24T10:09:47.969Z</time></trkpt><trkpt lat="43.6283669" lon="12.6870621"><ele>193.0</ele><time>2026-04-24T10:09:48.969Z</time></trkpt><trkpt lat="43.6284974" lon="12.6872378"><ele>192.33333333333331</ele><time>2026-04-24T10:09:49.97Z</time></trkpt><trkpt lat="43.6286322" lon="12.6874175"><ele>191.66666666666666</ele><time>2026-04-24T10:09:50.97Z</time></trkpt><trkpt lat="43.628763" lon="12.6875973"><ele>191.0</ele><time>2026-04-24T10:09:51.969Z</time></trkpt><trkpt lat="43.628879" lon="12.6877894"><ele>194.33333333333331</ele><time>2026-04-24T10:09:52.97Z</time></trkpt><trkpt lat="43.6289778" lon="12.6879986"><ele>197.66666666666666</ele><time>2026-04-24T10:09:53.969Z</time></trkpt><trkpt lat="43.6290706" lon="12.6882194"><ele>201.0</ele><time>2026-04-24T10:09:54.969Z</time></trkpt><trkpt lat="43.6291576" lon="12.6884455"><ele>202.66666666666669</ele><time>2026-04-24T10:09:55.97Z</time></trkpt><trkpt lat="43.6292428" lon="12.688668"><ele>204.33333333333334</ele><time>2026-04-24T10:09:56.969Z</time></trkpt><trkpt lat="43.6293189" lon="12.68889"><ele>206.0</ele><time>2026-04-24T10:09:57.969Z</time></trkpt><trkpt lat="43.6293792" lon="12.6891192"><ele>206.0</ele><time>2026-04-24T10:09:58.969Z</time></trkpt><trkpt lat="43.6294234" lon="12.6893559"><ele>206.0</ele><time>2026-04-24T10:09:59.97Z</time></trkpt><trkpt lat="43.6294595" lon="12.689598"><ele>206.0</ele><time>2026-04-24T10:10:00.969Z</time></trkpt><trkpt lat="43.6295001" lon="12.6898443"><ele>203.33333333333334</ele><time>2026-04-24T10:10:01.969Z</time></trkpt><trkpt lat="43.6295534" lon="12.6900917"><ele>200.66666666666669</ele><time>2026-04-24T10:10:02.969Z</time></trkpt><trkpt lat="43.6296254" lon="12.6903387"><ele>198.0</ele><time>2026-04-24T10:10:03.969Z</time></trkpt><trkpt lat="43.6297094" lon="12.6905833"><ele>198.0</ele><time>2026-04-24T10:10:04.969Z</time></trkpt><trkpt lat="43.6297953" lon="12.6908293"><ele>198.0</ele><time>2026-04-24T10:10:05.969Z</time></trkpt><trkpt lat="43.6298835" lon="12.6910782"><ele>198.0</ele><time>2026-04-24T10:10:06.969Z</time></trkpt><trkpt lat="43.6299814" lon="12.6913237"><ele>198.0</ele><time>2026-04-24T10:10:07.969Z</time></trkpt><trkpt lat="43.6301047" lon="12.691549"><ele>198.0</ele><time>2026-04-24T10:10:08.969Z</time></trkpt><trkpt lat="43.6302387" lon="12.691761"><ele>198.0</ele><time>2026-04-24T10:10:09.969Z</time></trkpt><trkpt lat="43.6303745" lon="12.6919692"><ele>198.0</ele><time>2026-04-24T10:10:10.969Z</time></trkpt><trkpt lat="43.6304984" lon="12.6921839"><ele>198.0</ele><time>2026-04-24T10:10:11.969Z</time></trkpt><trkpt lat="43.6305992" lon="12.692403"><ele>198.0</ele><time>2026-04-24T10:10:12.969Z</time></trkpt><trkpt lat="43.6306742" lon="12.6926228"><ele>199.0</ele><time>2026-04-24T10:10:13.97Z</time></trkpt><trkpt lat="43.6307308" lon="12.6928502"><ele>200.0</ele><time>2026-04-24T10:10:14.969Z</time></trkpt><trkpt lat="43.6307641" lon="12.693048"><ele>201.0</ele><time>2026-04-24T10:10:15.969Z</time></trkpt><trkpt lat="43.6308088" lon="12.6932187"><ele>201.0</ele><time>2026-04-24T10:10:16.969Z</time></trkpt><trkpt lat="43.6308807" lon="12.6933946"><ele>201.0</ele><time>2026-04-24T10:10:17.969Z</time></trkpt><trkpt lat="43.6309786" lon="12.6935595"><ele>201.0</ele><time>2026-04-24T10:10:18.969Z</time></trkpt><trkpt lat="43.6311108" lon="12.6936957"><ele>200.0</ele><time>2026-04-24T10:10:19.969Z</time></trkpt><trkpt lat="43.6312643" lon="12.6937946"><ele>199.0</ele><time>2026-04-24T10:10:20.969Z</time></trkpt><trkpt lat="43.6314163" lon="12.6938813"><ele>198.0</ele><time>2026-04-24T10:10:21.969Z</time></trkpt><trkpt lat="43.6315505" lon="12.6939944"><ele>198.0</ele><time>2026-04-24T10:10:22.969Z</time></trkpt><trkpt lat="43.6316657" lon="12.69413"><ele>198.0</ele><time>2026-04-24T10:10:23.969Z</time></trkpt><trkpt lat="43.6317686" lon="12.6943032"><ele>198.0</ele><time>2026-04-24T10:10:24.969Z</time></trkpt><trkpt lat="43.6318618" lon="12.6944948"><ele>197.66666666666669</ele><time>2026-04-24T10:10:25.969Z</time></trkpt><trkpt lat="43.6319508" lon="12.6946914"><ele>197.33333333333334</ele><time>2026-04-24T10:10:26.969Z</time></trkpt><trkpt lat="43.6320467" lon="12.6948628"><ele>197.0</ele><time>2026-04-24T10:10:27.969Z</time></trkpt><trkpt lat="43.632154" lon="12.6950098"><ele>197.0</ele><time>2026-04-24T10:10:28.969Z</time></trkpt><trkpt lat="43.6322892" lon="12.695129"><ele>197.0</ele><time>2026-04-24T10:10:29.97Z</time></trkpt><trkpt lat="43.6324514" lon="12.6952004"><ele>197.0</ele><time>2026-04-24T10:10:30.968Z</time></trkpt><trkpt lat="43.6326118" lon="12.6952304"><ele>196.5</ele><time>2026-04-24T10:10:31.969Z</time></trkpt><trkpt lat="43.6327593" lon="12.6952603"><ele>196.0</ele><time>2026-04-24T10:10:32.968Z</time></trkpt><trkpt lat="43.6328841" lon="12.6953244"><ele>195.5</ele><time>2026-04-24T10:10:33.968Z</time></trkpt><trkpt lat="43.6329852" lon="12.6954342"><ele>195.0</ele><time>2026-04-24T10:10:34.968Z</time></trkpt><trkpt lat="43.6330673" lon="12.6955883"><ele>195.0</ele><time>2026-04-24T10:10:35.969Z</time></trkpt><trkpt lat="43.6331309" lon="12.6957786"><ele>195.0</ele><time>2026-04-24T10:10:36.969Z</time></trkpt><trkpt lat="43.6331734" lon="12.6959887"><ele>195.0</ele><time>2026-04-24T10:10:37.968Z</time></trkpt><trkpt lat="43.633186" lon="12.6962089"><ele>194.66666666666669</ele><time>2026-04-24T10:10:38.968Z</time></trkpt><trkpt lat="43.6331647" lon="12.6964372"><ele>194.33333333333334</ele><time>2026-04-24T10:10:39.969Z</time></trkpt><trkpt lat="43.6331353" lon="12.6966751"><ele>194.0</ele><time>2026-04-24T10:10:40.969Z</time></trkpt><trkpt lat="43.6331531" lon="12.6969189"><ele>195.0</ele><time>2026-04-24T10:10:41.968Z</time></trkpt><trkpt lat="43.6331961" lon="12.6971628"><ele>196.0</ele><time>2026-04-24T10:10:42.968Z</time></trkpt><trkpt lat="43.6332628" lon="12.6973992"><ele>197.0</ele><time>2026-04-24T10:10:43.968Z</time></trkpt><trkpt lat="43.6333688" lon="12.6976139"><ele>193.0</ele><time>2026-04-24T10:10:44.968Z</time></trkpt><trkpt lat="43.6335054" lon="12.6978035"><ele>189.0</ele><time>2026-04-24T10:10:45.968Z</time></trkpt><trkpt lat="43.6336408" lon="12.6979986"><ele>185.0</ele><time>2026-04-24T10:10:46.969Z</time></trkpt><trkpt lat="43.6337543" lon="12.698223"><ele>185.0</ele><time>2026-04-24T10:10:47.968Z</time></trkpt><trkpt lat="43.6338459" lon="12.6984538"><ele>185.0</ele><time>2026-04-24T10:10:48.969Z</time></trkpt><trkpt lat="43.6339202" lon="12.6986882"><ele>185.0</ele><time>2026-04-24T10:10:49.969Z</time></trkpt><trkpt lat="43.6339695" lon="12.6989256"><ele>186.0</ele><time>2026-04-24T10:10:50.968Z</time></trkpt><trkpt lat="43.6339846" lon="12.6991657"><ele>187.0</ele><time>2026-04-24T10:10:51.968Z</time></trkpt><trkpt lat="43.6339767" lon="12.6994024"><ele>188.0</ele><time>2026-04-24T10:10:52.968Z</time></trkpt><trkpt lat="43.6339464" lon="12.6996371"><ele>189.0</ele><time>2026-04-24T10:10:53.969Z</time></trkpt><trkpt lat="43.6339051" lon="12.6998854"><ele>190.0</ele><time>2026-04-24T10:10:54.969Z</time></trkpt><trkpt lat="43.6338634" lon="12.7001471"><ele>191.0</ele><time>2026-04-24T10:10:55.968Z</time></trkpt><trkpt lat="43.6338167" lon="12.7004104"><ele>191.0</ele><time>2026-04-24T10:10:56.968Z</time></trkpt><trkpt lat="43.6337589" lon="12.7006569"><ele>191.0</ele><time>2026-04-24T10:10:57.968Z</time></trkpt><trkpt lat="43.6336924" lon="12.7008778"><ele>191.0</ele><time>2026-04-24T10:10:58.969Z</time></trkpt><trkpt lat="43.6336385" lon="12.7010903"><ele>190.33333333333331</ele><time>2026-04-24T10:10:59.968Z</time></trkpt><trkpt lat="43.6336276" lon="12.7013198"><ele>189.66666666666666</ele><time>2026-04-24T10:11:00.969Z</time></trkpt><trkpt lat="43.6336545" lon="12.7015722"><ele>189.0</ele><time>2026-04-24T10:11:01.968Z</time></trkpt><trkpt lat="43.6337077" lon="12.7018497"><ele>189.0</ele><time>2026-04-24T10:11:02.968Z</time></trkpt><trkpt lat="43.633767" lon="12.7021501"><ele>189.0</ele><time>2026-04-24T10:11:03.968Z</time></trkpt><trkpt lat="43.6338231" lon="12.7024578"><ele>189.66666666666666</ele><time>2026-04-24T10:11:04.968Z</time></trkpt><trkpt lat="43.6338785" lon="12.7027604"><ele>190.33333333333331</ele><time>2026-04-24T10:11:05.968Z</time></trkpt><trkpt lat="43.6339324" lon="12.7030516"><ele>191.0</ele><time>2026-04-24T10:11:06.969Z</time></trkpt><trkpt lat="43.633985" lon="12.7033289"><ele>191.66666666666666</ele><time>2026-04-24T10:11:07.968Z</time></trkpt><trkpt lat="43.6340329" lon="12.703594"><ele>192.33333333333331</ele><time>2026-04-24T10:11:08.968Z</time></trkpt><trkpt lat="43.6340748" lon="12.7038471"><ele>193.0</ele><time>2026-04-24T10:11:09.968Z</time></trkpt><trkpt lat="43.6341018" lon="12.7040894"><ele>193.0</ele><time>2026-04-24T10:11:10.968Z</time></trkpt><trkpt lat="43.6341091" lon="12.7043293"><ele>193.0</ele><time>2026-04-24T10:11:11.969Z</time></trkpt><trkpt lat="43.6340903" lon="12.7045877"><ele>193.0</ele><time>2026-04-24T10:11:12.968Z</time></trkpt><trkpt lat="43.6340547" lon="12.7048638"><ele>192.33333333333331</ele><time>2026-04-24T10:11:13.969Z</time></trkpt><trkpt lat="43.6340076" lon="12.7051561"><ele>191.66666666666666</ele><time>2026-04-24T10:11:14.968Z</time></trkpt><trkpt lat="43.6339557" lon="12.7054612"><ele>191.0</ele><time>2026-04-24T10:11:15.969Z</time></trkpt><trkpt lat="43.6339026" lon="12.7057748"><ele>186.0</ele><time>2026-04-24T10:11:16.968Z</time></trkpt><trkpt lat="43.6338493" lon="12.7060861"><ele>181.0</ele><time>2026-04-24T10:11:17.97Z</time></trkpt><trkpt lat="43.6337948" lon="12.7063896"><ele>181.0</ele><time>2026-04-24T10:11:18.968Z</time></trkpt><trkpt lat="43.6337364" lon="12.706671"><ele>181.0</ele><time>2026-04-24T10:11:19.968Z</time></trkpt><trkpt lat="43.6336898" lon="12.706937"><ele>181.0</ele><time>2026-04-24T10:11:20.969Z</time></trkpt><trkpt lat="43.6336574" lon="12.7071914"><ele>180.0</ele><time>2026-04-24T10:11:21.968Z</time></trkpt><trkpt lat="43.6336599" lon="12.7074297"><ele>179.0</ele><time>2026-04-24T10:11:22.968Z</time></trkpt><trkpt lat="43.6336905" lon="12.7076666"><ele>178.0</ele><time>2026-04-24T10:11:23.968Z</time></trkpt><trkpt lat="43.6337753" lon="12.7079021"><ele>180.33333333333334</ele><time>2026-04-24T10:11:24.968Z</time></trkpt><trkpt lat="43.6338751" lon="12.708134"><ele>182.66666666666666</ele><time>2026-04-24T10:11:25.968Z</time></trkpt><trkpt lat="43.6339875" lon="12.7083696"><ele>185.0</ele><time>2026-04-24T10:11:26.968Z</time></trkpt><trkpt lat="43.6340873" lon="12.7086038"><ele>188.33333333333331</ele><time>2026-04-24T10:11:27.968Z</time></trkpt><trkpt lat="43.6341687" lon="12.708833"><ele>191.66666666666666</ele><time>2026-04-24T10:11:28.969Z</time></trkpt><trkpt lat="43.6342157" lon="12.7090615"><ele>195.0</ele><time>2026-04-24T10:11:29.968Z</time></trkpt><trkpt lat="43.6342368" lon="12.709317"><ele>196.66666666666669</ele><time>2026-04-24T10:11:30.969Z</time></trkpt><trkpt lat="43.6342348" lon="12.7095843"><ele>198.33333333333334</ele><time>2026-04-24T10:11:31.968Z</time></trkpt><trkpt lat="43.6342375" lon="12.7098666"><ele>200.0</ele><time>2026-04-24T10:11:32.969Z</time></trkpt><trkpt lat="43.6342533" lon="12.7101615"><ele>200.33333333333334</ele><time>2026-04-24T10:11:33.968Z</time></trkpt><trkpt lat="43.6342773" lon="12.7104599"><ele>200.66666666666669</ele><time>2026-04-24T10:11:34.968Z</time></trkpt><trkpt lat="43.6343033" lon="12.710757"><ele>201.0</ele><time>2026-04-24T10:11:35.969Z</time></trkpt><trkpt lat="43.6343285" lon="12.7110384"><ele>201.33333333333331</ele><time>2026-04-24T10:11:36.969Z</time></trkpt><trkpt lat="43.6343512" lon="12.7112995"><ele>201.66666666666666</ele><time>2026-04-24T10:11:37.968Z</time></trkpt><trkpt lat="43.6343632" lon="12.7115419"><ele>202.0</ele><time>2026-04-24T10:11:38.968Z</time></trkpt><trkpt lat="43.6343542" lon="12.7117858"><ele>200.66666666666666</ele><time>2026-04-24T10:11:39.968Z</time></trkpt><trkpt lat="43.6343173" lon="12.7120264"><ele>199.33333333333331</ele><time>2026-04-24T10:11:40.968Z</time></trkpt><trkpt lat="43.6342744" lon="12.7122699"><ele>198.0</ele><time>2026-04-24T10:11:41.968Z</time></trkpt><trkpt lat="43.6342261" lon="12.7125069"><ele>198.0</ele><time>2026-04-24T10:11:42.968Z</time></trkpt><trkpt lat="43.6341677" lon="12.7127221"><ele>198.0</ele><time>2026-04-24T10:11:43.968Z</time></trkpt><trkpt lat="43.6340928" lon="12.7129182"><ele>198.0</ele><time>2026-04-24T10:11:44.968Z</time></trkpt><trkpt lat="43.6340311" lon="12.7130487"><ele>198.0</ele><time>2026-04-24T10:11:45.969Z</time></trkpt><trkpt lat="43.6339725" lon="12.7131464"><ele>196.33333333333334</ele><time>2026-04-24T10:11:46.968Z</time></trkpt><trkpt lat="43.6339146" lon="12.7132191"><ele>194.66666666666666</ele><time>2026-04-24T10:11:47.968Z</time></trkpt><trkpt lat="43.6338397" lon="12.7132763"><ele>193.0</ele><time>2026-04-24T10:11:48.969Z</time></trkpt><trkpt lat="43.6337598" lon="12.7133238"><ele>191.33333333333331</ele><time>2026-04-24T10:11:49.968Z</time></trkpt><trkpt lat="43.6336772" lon="12.7133687"><ele>189.66666666666666</ele><time>2026-04-24T10:11:51.968Z</time></trkpt><trkpt lat="43.633674" lon="12.7134605"><ele>188.0</ele><time>2026-04-24T10:11:55.969Z</time></trkpt><trkpt lat="43.6337626" lon="12.7134403"><ele>188.0</ele><time>2026-04-24T10:11:58.968Z</time></trkpt><trkpt lat="43.6338833" lon="12.7133479"><ele>188.0</ele><time>2026-04-24T10:12:00.968Z</time></trkpt><trkpt lat="43.6339759" lon="12.7132581"><ele>188.0</ele><time>2026-04-24T10:12:01.969Z</time></trkpt><trkpt lat="43.6340527" lon="12.7131508"><ele>188.0</ele><time>2026-04-24T10:12:02.968Z</time></trkpt><trkpt lat="43.6341174" lon="12.7130425"><ele>188.0</ele><time>2026-04-24T10:12:03.968Z</time></trkpt><trkpt lat="43.634176" lon="12.7129441"><ele>188.0</ele><time>2026-04-24T10:12:04.968Z</time></trkpt><trkpt lat="43.634231" lon="12.7128488"><ele>188.0</ele><time>2026-04-24T10:12:05.968Z</time></trkpt><trkpt lat="43.6343038" lon="12.7127412"><ele>188.0</ele><time>2026-04-24T10:12:07.968Z</time></trkpt><trkpt lat="43.6344119" lon="12.7125953"><ele>188.0</ele><time>2026-04-24T10:12:09.968Z</time></trkpt><trkpt lat="43.634501" lon="12.7125035"><ele>186.5</ele><time>2026-04-24T10:12:10.968Z</time></trkpt><trkpt lat="43.634592" lon="12.712422"><ele>185.0</ele><time>2026-04-24T10:12:11.969Z</time></trkpt><trkpt lat="43.6346868" lon="12.7123295"><ele>183.5</ele><time>2026-04-24T10:12:12.968Z</time></trkpt><trkpt lat="43.6347737" lon="12.7122141"><ele>182.0</ele><time>2026-04-24T10:12:13.968Z</time></trkpt><trkpt lat="43.6348456" lon="12.7120827"><ele>182.0</ele><time>2026-04-24T10:12:14.968Z</time></trkpt><trkpt lat="43.6348946" lon="12.711947"><ele>182.0</ele><time>2026-04-24T10:12:15.968Z</time></trkpt><trkpt lat="43.6349456" lon="12.7118273"><ele>182.0</ele><time>2026-04-24T10:12:16.968Z</time></trkpt><trkpt lat="43.6349974" lon="12.7117357"><ele>182.0</ele><time>2026-04-24T10:12:17.968Z</time></trkpt><trkpt lat="43.6350615" lon="12.711666"><ele>182.0</ele><time>2026-04-24T10:12:18.968Z</time></trkpt><trkpt lat="43.6351425" lon="12.7116104"><ele>181.8</ele><time>2026-04-24T10:12:19.969Z</time></trkpt><trkpt lat="43.6352302" lon="12.7115711"><ele>181.6</ele><time>2026-04-24T10:12:20.968Z</time></trkpt><trkpt lat="43.6353324" lon="12.7115339"><ele>181.4</ele><time>2026-04-24T10:12:21.968Z</time></trkpt><trkpt lat="43.6354478" lon="12.7115093"><ele>181.20000000000002</ele><time>2026-04-24T10:12:22.968Z</time></trkpt><trkpt lat="43.6355713" lon="12.7114833"><ele>181.0</ele><time>2026-04-24T10:12:23.968Z</time></trkpt><trkpt lat="43.6356828" lon="12.7114525"><ele>180.8</ele><time>2026-04-24T10:12:24.968Z</time></trkpt><trkpt lat="43.6357866" lon="12.711429"><ele>180.60000000000002</ele><time>2026-04-24T10:12:25.969Z</time></trkpt><trkpt lat="43.6358913" lon="12.7114096"><ele>180.4</ele><time>2026-04-24T10:12:26.968Z</time></trkpt><trkpt lat="43.6359938" lon="12.7114006"><ele>180.2</ele><time>2026-04-24T10:12:27.968Z</time></trkpt><trkpt lat="43.6360914" lon="12.7113964"><ele>180.0</ele><time>2026-04-24T10:12:28.968Z</time></trkpt><trkpt lat="43.6361881" lon="12.7114281"><ele>181.16666666666666</ele><time>2026-04-24T10:12:29.968Z</time></trkpt><trkpt lat="43.6362626" lon="12.7114762"><ele>182.33333333333334</ele><time>2026-04-24T10:12:30.969Z</time></trkpt><trkpt lat="43.6363135" lon="12.7115548"><ele>183.5</ele><time>2026-04-24T10:12:31.968Z</time></trkpt><trkpt lat="43.6363488" lon="12.7116447"><ele>184.66666666666669</ele><time>2026-04-24T10:12:32.968Z</time></trkpt><trkpt lat="43.6363854" lon="12.7117324"><ele>185.83333333333334</ele><time>2026-04-24T10:12:33.968Z</time></trkpt><trkpt lat="43.6364617" lon="12.7118698"><ele>187.0</ele><time>2026-04-24T10:12:35.968Z</time></trkpt><trkpt lat="43.6365026" lon="12.7119762"><ele>187.0</ele><time>2026-04-24T10:12:36.969Z</time></trkpt><trkpt lat="43.6365553" lon="12.7121109"><ele>187.0</ele><time>2026-04-24T10:12:37.968Z</time></trkpt><trkpt lat="43.63664" lon="12.7122688"><ele>187.0</ele><time>2026-04-24T10:12:38.969Z</time></trkpt><trkpt lat="43.6367458" lon="12.7124347"><ele>187.0</ele><time>2026-04-24T10:12:39.968Z</time></trkpt><trkpt lat="43.6368641" lon="12.7125782"><ele>186.66666666666669</ele><time>2026-04-24T10:12:40.968Z</time></trkpt><trkpt lat="43.6369987" lon="12.7126982"><ele>186.33333333333334</ele><time>2026-04-24T10:12:41.968Z</time></trkpt><trkpt lat="43.6371513" lon="12.7128089"><ele>186.0</ele><time>2026-04-24T10:12:42.968Z</time></trkpt><trkpt lat="43.6373146" lon="12.7129"><ele>186.0</ele><time>2026-04-24T10:12:43.968Z</time></trkpt><trkpt lat="43.6374783" lon="12.7129894"><ele>186.0</ele><time>2026-04-24T10:12:44.968Z</time></trkpt><trkpt lat="43.6376448" lon="12.713072"><ele>186.0</ele><time>2026-04-24T10:12:45.968Z</time></trkpt><trkpt lat="43.6378068" lon="12.7131465"><ele>188.33333333333331</ele><time>2026-04-24T10:12:46.968Z</time></trkpt><trkpt lat="43.6379467" lon="12.7132123"><ele>190.66666666666666</ele><time>2026-04-24T10:12:47.968Z</time></trkpt><trkpt lat="43.6380885" lon="12.7132753"><ele>193.0</ele><time>2026-04-24T10:12:48.968Z</time></trkpt><trkpt lat="43.6382361" lon="12.7133416"><ele>193.0</ele><time>2026-04-24T10:12:49.968Z</time></trkpt><trkpt lat="43.638382" lon="12.7134295"><ele>193.0</ele><time>2026-04-24T10:12:50.968Z</time></trkpt><trkpt lat="43.6385243" lon="12.7135378"><ele>193.0</ele><time>2026-04-24T10:12:51.969Z</time></trkpt><trkpt lat="43.6386648" lon="12.7136578"><ele>193.0</ele><time>2026-04-24T10:12:52.968Z</time></trkpt><trkpt lat="43.638809" lon="12.7137854"><ele>193.0</ele><time>2026-04-24T10:12:53.969Z</time></trkpt><trkpt lat="43.6389518" lon="12.713919"><ele>193.0</ele><time>2026-04-24T10:12:54.968Z</time></trkpt><trkpt lat="43.6390943" lon="12.7140564"><ele>193.0</ele><time>2026-04-24T10:12:55.968Z</time></trkpt><trkpt lat="43.6392404" lon="12.7141959"><ele>193.0</ele><time>2026-04-24T10:12:56.968Z</time></trkpt><trkpt lat="43.6393833" lon="12.7143378"><ele>193.0</ele><time>2026-04-24T10:12:57.968Z</time></trkpt><trkpt lat="43.6395278" lon="12.7144859"><ele>192.0</ele><time>2026-04-24T10:12:58.968Z</time></trkpt><trkpt lat="43.6396728" lon="12.7146365"><ele>191.0</ele><time>2026-04-24T10:12:59.968Z</time></trkpt><trkpt lat="43.6398226" lon="12.7147871"><ele>190.0</ele><time>2026-04-24T10:13:00.968Z</time></trkpt><trkpt lat="43.6399703" lon="12.7149338"><ele>190.0</ele><time>2026-04-24T10:13:01.969Z</time></trkpt><trkpt lat="43.6401202" lon="12.7150687"><ele>190.0</ele><time>2026-04-24T10:13:02.968Z</time></trkpt><trkpt lat="43.6402726" lon="12.7151846"><ele>190.0</ele><time>2026-04-24T10:13:03.968Z</time></trkpt><trkpt lat="43.6404212" lon="12.7153105"><ele>189.66666666666669</ele><time>2026-04-24T10:13:04.968Z</time></trkpt><trkpt lat="43.6405572" lon="12.7154548"><ele>189.33333333333334</ele><time>2026-04-24T10:13:05.968Z</time></trkpt><trkpt lat="43.640676" lon="12.7156083"><ele>189.0</ele><time>2026-04-24T10:13:06.968Z</time></trkpt><trkpt lat="43.6407911" lon="12.7157673"><ele>189.0</ele><time>2026-04-24T10:13:07.969Z</time></trkpt><trkpt lat="43.6409263" lon="12.7159088"><ele>189.0</ele><time>2026-04-24T10:13:08.968Z</time></trkpt><trkpt lat="43.6410673" lon="12.7160478"><ele>189.0</ele><time>2026-04-24T10:13:09.968Z</time></trkpt><trkpt lat="43.6412139" lon="12.7161887"><ele>200.33333333333331</ele><time>2026-04-24T10:13:10.968Z</time></trkpt><trkpt lat="43.6413695" lon="12.7163195"><ele>211.66666666666666</ele><time>2026-04-24T10:13:11.969Z</time></trkpt><trkpt lat="43.6415213" lon="12.7164706"><ele>223.0</ele><time>2026-04-24T10:13:12.968Z</time></trkpt><trkpt lat="43.6416647" lon="12.7166497"><ele>223.0</ele><time>2026-04-24T10:13:13.968Z</time></trkpt><trkpt lat="43.6418064" lon="12.7168428"><ele>223.0</ele><time>2026-04-24T10:13:14.968Z</time></trkpt><trkpt lat="43.6419622" lon="12.7170414"><ele>223.0</ele><time>2026-04-24T10:13:15.969Z</time></trkpt><trkpt lat="43.6421301" lon="12.7172211"><ele>223.0</ele><time>2026-04-24T10:13:16.968Z</time></trkpt><trkpt lat="43.6423051" lon="12.7174079"><ele>223.0</ele><time>2026-04-24T10:13:17.968Z</time></trkpt><trkpt lat="43.6424811" lon="12.7175902"><ele>223.0</ele><time>2026-04-24T10:13:18.968Z</time></trkpt><trkpt lat="43.6426599" lon="12.7177707"><ele>223.0</ele><time>2026-04-24T10:13:19.968Z</time></trkpt><trkpt lat="43.6428474" lon="12.7179352"><ele>223.0</ele><time>2026-04-24T10:13:20.968Z</time></trkpt><trkpt lat="43.6430363" lon="12.7180801"><ele>223.0</ele><time>2026-04-24T10:13:21.968Z</time></trkpt><trkpt lat="43.6432132" lon="12.7182275"><ele>307.3333333333333</ele><time>2026-04-24T10:13:22.968Z</time></trkpt><trkpt lat="43.643376" lon="12.7183985"><ele>391.66666666666663</ele><time>2026-04-24T10:13:23.968Z</time></trkpt><trkpt lat="43.6435268" lon="12.7185883"><ele>476.0</ele><time>2026-04-24T10:13:24.969Z</time></trkpt><trkpt lat="43.6436745" lon="12.7187924"><ele>476.0</ele><time>2026-04-24T10:13:25.968Z</time></trkpt><trkpt lat="43.6438126" lon="12.7190052"><ele>476.0</ele><time>2026-04-24T10:13:26.968Z</time></trkpt><trkpt lat="43.6439425" lon="12.7192306"><ele>476.0</ele><time>2026-04-24T10:13:27.968Z</time></trkpt><trkpt lat="43.6440501" lon="12.7194811"><ele>465.66666666666663</ele><time>2026-04-24T10:13:28.969Z</time></trkpt><trkpt lat="43.644143" lon="12.7197477"><ele>455.33333333333337</ele><time>2026-04-24T10:13:29.968Z</time></trkpt><trkpt lat="43.644227" lon="12.7200036"><ele>445.0</ele><time>2026-04-24T10:13:30.968Z</time></trkpt><trkpt lat="43.6443083" lon="12.7202451"><ele>445.0</ele><time>2026-04-24T10:13:31.97Z</time></trkpt><trkpt lat="43.6443918" lon="12.720471"><ele>445.0</ele><time>2026-04-24T10:13:32.968Z</time></trkpt><trkpt lat="43.6444784" lon="12.7206798"><ele>445.0</ele><time>2026-04-24T10:13:33.968Z</time></trkpt><trkpt lat="43.6445895" lon="12.7208738"><ele>443.6666666666667</ele><time>2026-04-24T10:13:34.968Z</time></trkpt><trkpt lat="43.6447194" lon="12.7210516"><ele>442.33333333333337</ele><time>2026-04-24T10:13:35.968Z</time></trkpt><trkpt lat="43.6448565" lon="12.72123"><ele>441.0</ele><time>2026-04-24T10:13:36.968Z</time></trkpt><trkpt lat="43.6450086" lon="12.7213916"><ele>441.0</ele><time>2026-04-24T10:13:37.968Z</time></trkpt><trkpt lat="43.6451545" lon="12.7215454"><ele>441.0</ele><time>2026-04-24T10:13:38.968Z</time></trkpt><trkpt lat="43.6452928" lon="12.721696"><ele>441.0</ele><time>2026-04-24T10:13:39.969Z</time></trkpt><trkpt lat="43.6454264" lon="12.7218358"><ele>441.33333333333337</ele><time>2026-04-24T10:13:40.968Z</time></trkpt><trkpt lat="43.6455496" lon="12.7219831"><ele>441.6666666666667</ele><time>2026-04-24T10:13:41.968Z</time></trkpt><trkpt lat="43.6456682" lon="12.7221451"><ele>442.0</ele><time>2026-04-24T10:13:42.969Z</time></trkpt><trkpt lat="43.6457729" lon="12.7223315"><ele>442.0</ele><time>2026-04-24T10:13:43.968Z</time></trkpt><trkpt lat="43.6458773" lon="12.722524"><ele>442.0</ele><time>2026-04-24T10:13:44.968Z</time></trkpt><trkpt lat="43.6459772" lon="12.7227302"><ele>442.0</ele><time>2026-04-24T10:13:45.969Z</time></trkpt><trkpt lat="43.6460688" lon="12.7229355"><ele>446.6666666666667</ele><time>2026-04-24T10:13:46.968Z</time></trkpt><trkpt lat="43.6461511" lon="12.7231252"><ele>451.33333333333337</ele><time>2026-04-24T10:13:47.968Z</time></trkpt><trkpt lat="43.6462153" lon="12.7233277"><ele>456.0</ele><time>2026-04-24T10:13:48.969Z</time></trkpt><trkpt lat="43.6462794" lon="12.7235393"><ele>450.66666666666663</ele><time>2026-04-24T10:13:49.969Z</time></trkpt><trkpt lat="43.6462939" lon="12.7238022"><ele>445.3333333333333</ele><time>2026-04-24T10:13:50.969Z</time></trkpt><trkpt lat="43.6463356" lon="12.7240477"><ele>440.0</ele><time>2026-04-24T10:13:51.968Z</time></trkpt><trkpt lat="43.6463723" lon="12.7242915"><ele>446.0</ele><time>2026-04-24T10:13:52.968Z</time></trkpt><trkpt lat="43.646419" lon="12.7245311"><ele>452.0</ele><time>2026-04-24T10:13:53.968Z</time></trkpt><trkpt lat="43.6464764" lon="12.7247773"><ele>458.0</ele><time>2026-04-24T10:13:54.968Z</time></trkpt><trkpt lat="43.6465399" lon="12.7250202"><ele>461.3333333333333</ele><time>2026-04-24T10:13:55.968Z</time></trkpt><trkpt lat="43.6466045" lon="12.725268"><ele>464.66666666666663</ele><time>2026-04-24T10:13:56.968Z</time></trkpt><trkpt lat="43.64667" lon="12.7255099"><ele>468.0</ele><time>2026-04-24T10:13:57.969Z</time></trkpt><trkpt lat="43.6467335" lon="12.7257454"><ele>468.0</ele><time>2026-04-24T10:13:58.968Z</time></trkpt><trkpt lat="43.6468005" lon="12.7259745"><ele>468.0</ele><time>2026-04-24T10:13:59.968Z</time></trkpt><trkpt lat="43.6468756" lon="12.7261899"><ele>468.0</ele><time>2026-04-24T10:14:00.968Z</time></trkpt><trkpt lat="43.6469665" lon="12.7263738"><ele>458.33333333333337</ele><time>2026-04-24T10:14:01.968Z</time></trkpt><trkpt lat="43.6470848" lon="12.7265411"><ele>448.6666666666667</ele><time>2026-04-24T10:14:02.969Z</time></trkpt><trkpt lat="43.6472214" lon="12.7267027"><ele>439.0</ele><time>2026-04-24T10:14:03.968Z</time></trkpt><trkpt lat="43.6473721" lon="12.7268588"><ele>442.0</ele><time>2026-04-24T10:14:04.968Z</time></trkpt><trkpt lat="43.6475246" lon="12.7270146"><ele>445.0</ele><time>2026-04-24T10:14:05.969Z</time></trkpt><trkpt lat="43.6476791" lon="12.727152"><ele>448.0</ele><time>2026-04-24T10:14:06.968Z</time></trkpt><trkpt lat="43.6478323" lon="12.727272"><ele>455.33333333333337</ele><time>2026-04-24T10:14:07.969Z</time></trkpt><trkpt lat="43.6479799" lon="12.7273875"><ele>462.66666666666663</ele><time>2026-04-24T10:14:08.968Z</time></trkpt><trkpt lat="43.6481285" lon="12.727492"><ele>470.0</ele><time>2026-04-24T10:14:09.968Z</time></trkpt><trkpt lat="43.6482839" lon="12.7275739"><ele>470.0</ele><time>2026-04-24T10:14:10.968Z</time></trkpt><trkpt lat="43.648441" lon="12.7276491"><ele>470.0</ele><time>2026-04-24T10:14:11.968Z</time></trkpt><trkpt lat="43.6486248" lon="12.7276698"><ele>470.0</ele><time>2026-04-24T10:14:12.968Z</time></trkpt><trkpt lat="43.6488055" lon="12.7277299"><ele>474.3333333333333</ele><time>2026-04-24T10:14:13.968Z</time></trkpt><trkpt lat="43.6489863" lon="12.7277965"><ele>478.66666666666663</ele><time>2026-04-24T10:14:14.968Z</time></trkpt><trkpt lat="43.6491627" lon="12.7278773"><ele>483.0</ele><time>2026-04-24T10:14:15.968Z</time></trkpt><trkpt lat="43.6493269" lon="12.7279961"><ele>493.0</ele><time>2026-04-24T10:14:16.969Z</time></trkpt><trkpt lat="43.6494782" lon="12.7281551"><ele>503.0</ele><time>2026-04-24T10:14:17.968Z</time></trkpt><trkpt lat="43.6496308" lon="12.7283218"><ele>513.0</ele><time>2026-04-24T10:14:18.968Z</time></trkpt><trkpt lat="43.6497833" lon="12.7284868"><ele>500.33333333333337</ele><time>2026-04-24T10:14:19.968Z</time></trkpt><trkpt lat="43.6499323" lon="12.7286493"><ele>487.6666666666667</ele><time>2026-04-24T10:14:20.968Z</time></trkpt><trkpt lat="43.650079" lon="12.7288235"><ele>475.0</ele><time>2026-04-24T10:14:21.968Z</time></trkpt><trkpt lat="43.6502153" lon="12.7290052"><ele>468.33333333333337</ele><time>2026-04-24T10:14:22.968Z</time></trkpt><trkpt lat="43.6503477" lon="12.729181"><ele>461.66666666666663</ele><time>2026-04-24T10:14:23.968Z</time></trkpt><trkpt lat="43.6504708" lon="12.7293315"><ele>455.0</ele><time>2026-04-24T10:14:24.968Z</time></trkpt><trkpt lat="43.6505947" lon="12.729451"><ele>455.0</ele><time>2026-04-24T10:14:25.968Z</time></trkpt><trkpt lat="43.6507327" lon="12.72951"><ele>455.0</ele><time>2026-04-24T10:14:26.968Z</time></trkpt><trkpt lat="43.6508716" lon="12.7295444"><ele>455.0</ele><time>2026-04-24T10:14:27.968Z</time></trkpt><trkpt lat="43.6510019" lon="12.7295149"><ele>455.0</ele><time>2026-04-24T10:14:28.968Z</time></trkpt><trkpt lat="43.6511372" lon="12.7294665"><ele>461.0</ele><time>2026-04-24T10:14:29.969Z</time></trkpt><trkpt lat="43.6512743" lon="12.7294455"><ele>467.0</ele><time>2026-04-24T10:14:30.967Z</time></trkpt><trkpt lat="43.6514168" lon="12.7294691"><ele>473.0</ele><time>2026-04-24T10:14:31.968Z</time></trkpt><trkpt lat="43.6515564" lon="12.7295257"><ele>479.0</ele><time>2026-04-24T10:14:32.968Z</time></trkpt><trkpt lat="43.6517024" lon="12.7295843"><ele>479.0</ele><time>2026-04-24T10:14:33.968Z</time></trkpt><trkpt lat="43.6518492" lon="12.7296608"><ele>479.0</ele><time>2026-04-24T10:14:34.968Z</time></trkpt><trkpt lat="43.6519995" lon="12.7297451"><ele>479.0</ele><time>2026-04-24T10:14:35.968Z</time></trkpt><trkpt lat="43.6521538" lon="12.7298235"><ele>448.0</ele><time>2026-04-24T10:14:36.968Z</time></trkpt><trkpt lat="43.6523048" lon="12.729899"><ele>417.0</ele><time>2026-04-24T10:14:37.968Z</time></trkpt><trkpt lat="43.6524452" lon="12.7299692"><ele>386.0</ele><time>2026-04-24T10:14:38.968Z</time></trkpt><trkpt lat="43.652574" lon="12.7300337"><ele>355.0</ele><time>2026-04-24T10:14:39.968Z</time></trkpt><trkpt lat="43.6526931" lon="12.7300962"><ele>347.3333333333333</ele><time>2026-04-24T10:14:40.968Z</time></trkpt><trkpt lat="43.652803" lon="12.7301504"><ele>339.66666666666663</ele><time>2026-04-24T10:14:41.968Z</time></trkpt><trkpt lat="43.652894" lon="12.730198"><ele>332.0</ele><time>2026-04-24T10:14:42.968Z</time></trkpt><trkpt lat="43.6529709" lon="12.7302379"><ele>324.3333333333333</ele><time>2026-04-24T10:14:43.969Z</time></trkpt><trkpt lat="43.6530353" lon="12.7302772"><ele>316.6666666666667</ele><time>2026-04-24T10:14:44.968Z</time></trkpt><trkpt lat="43.653094" lon="12.7303317"><ele>309.0</ele><time>2026-04-24T10:14:45.968Z</time></trkpt><trkpt lat="43.6531413" lon="12.7303961"><ele>309.0</ele><time>2026-04-24T10:14:46.967Z</time></trkpt><trkpt lat="43.6531785" lon="12.7304786"><ele>309.0</ele><time>2026-04-24T10:14:47.967Z</time></trkpt><trkpt lat="43.653245" lon="12.7306121"><ele>309.0</ele><time>2026-04-24T10:14:49.967Z</time></trkpt><trkpt lat="43.6535133" lon="12.7311009"><ele>313.4</ele><time>2026-04-24T10:14:55.967Z</time></trkpt><trkpt lat="43.6535399" lon="12.7312134"><ele>317.79999999999995</ele><time>2026-04-24T10:14:56.967Z</time></trkpt><trkpt lat="43.6536205" lon="12.7312818"><ele>322.20000000000005</ele><time>2026-04-24T10:14:57.968Z</time></trkpt><trkpt lat="43.6537113" lon="12.7313362"><ele>326.6</ele><time>2026-04-24T10:14:58.967Z</time></trkpt><trkpt lat="43.6538106" lon="12.7313984"><ele>331.0</ele><time>2026-04-24T10:14:59.967Z</time></trkpt><trkpt lat="43.6539064" lon="12.7314667"><ele>307.6</ele><time>2026-04-24T10:15:00.967Z</time></trkpt><trkpt lat="43.6540029" lon="12.7315488"><ele>284.20000000000005</ele><time>2026-04-24T10:15:01.967Z</time></trkpt><trkpt lat="43.6540936" lon="12.7316216"><ele>260.79999999999995</ele><time>2026-04-24T10:15:02.967Z</time></trkpt><trkpt lat="43.6541716" lon="12.7316979"><ele>237.39999999999998</ele><time>2026-04-24T10:15:03.969Z</time></trkpt><trkpt lat="43.6542456" lon="12.7317747"><ele>214.0</ele><time>2026-04-24T10:15:04.967Z</time></trkpt><trkpt lat="43.6543087" lon="12.7318632"><ele>209.39999999999998</ele><time>2026-04-24T10:15:05.967Z</time></trkpt><trkpt lat="43.6543805" lon="12.7319482"><ele>204.79999999999998</ele><time>2026-04-24T10:15:06.967Z</time></trkpt><trkpt lat="43.6544573" lon="12.7320452"><ele>200.2</ele><time>2026-04-24T10:15:07.968Z</time></trkpt><trkpt lat="43.6545428" lon="12.7321314"><ele>195.60000000000002</ele><time>2026-04-24T10:15:08.967Z</time></trkpt><trkpt lat="43.6546352" lon="12.732204"><ele>191.0</ele><time>2026-04-24T10:15:09.967Z</time></trkpt><trkpt lat="43.6547303" lon="12.7322747"><ele>189.20000000000002</ele><time>2026-04-24T10:15:10.968Z</time></trkpt><trkpt lat="43.6548193" lon="12.7323505"><ele>187.4</ele><time>2026-04-24T10:15:11.969Z</time></trkpt><trkpt lat="43.6548857" lon="12.7324352"><ele>185.6</ele><time>2026-04-24T10:15:12.968Z</time></trkpt><trkpt lat="43.6549438" lon="12.732528"><ele>183.8</ele><time>2026-04-24T10:15:13.967Z</time></trkpt><trkpt lat="43.6550031" lon="12.732619"><ele>182.0</ele><time>2026-04-24T10:15:14.967Z</time></trkpt><trkpt lat="43.6550642" lon="12.7327167"><ele>182.25</ele><time>2026-04-24T10:15:15.967Z</time></trkpt><trkpt lat="43.6551339" lon="12.7328128"><ele>182.5</ele><time>2026-04-24T10:15:16.967Z</time></trkpt><trkpt lat="43.655216" lon="12.732914"><ele>182.75</ele><time>2026-04-24T10:15:17.967Z</time></trkpt><trkpt lat="43.6553106" lon="12.7330027"><ele>183.0</ele><time>2026-04-24T10:15:18.968Z</time></trkpt><trkpt lat="43.6554263" lon="12.7330811"><ele>183.0</ele><time>2026-04-24T10:15:19.967Z</time></trkpt><trkpt lat="43.655582" lon="12.7331388"><ele>183.0</ele><time>2026-04-24T10:15:20.967Z</time></trkpt><trkpt lat="43.6557402" lon="12.733215"><ele>183.0</ele><time>2026-04-24T10:15:21.967Z</time></trkpt><trkpt lat="43.6559354" lon="12.7333177"><ele>183.0</ele><time>2026-04-24T10:15:22.967Z</time></trkpt><trkpt lat="43.6561105" lon="12.7334288"><ele>183.0</ele><time>2026-04-24T10:15:23.967Z</time></trkpt><trkpt lat="43.6562874" lon="12.7335308"><ele>183.0</ele><time>2026-04-24T10:15:24.967Z</time></trkpt><trkpt lat="43.6564606" lon="12.7336279"><ele>175.33333333333334</ele><time>2026-04-24T10:15:25.967Z</time></trkpt><trkpt lat="43.6566275" lon="12.733725"><ele>167.66666666666669</ele><time>2026-04-24T10:15:26.967Z</time></trkpt><trkpt lat="43.6567905" lon="12.7338197"><ele>160.0</ele><time>2026-04-24T10:15:27.968Z</time></trkpt><trkpt lat="43.6569512" lon="12.7339085"><ele>163.66666666666669</ele><time>2026-04-24T10:15:28.967Z</time></trkpt><trkpt lat="43.6571088" lon="12.7339989"><ele>167.33333333333334</ele><time>2026-04-24T10:15:29.968Z</time></trkpt><trkpt lat="43.6572804" lon="12.7340755"><ele>171.0</ele><time>2026-04-24T10:15:30.967Z</time></trkpt><trkpt lat="43.6574626" lon="12.7341381"><ele>171.0</ele><time>2026-04-24T10:15:31.968Z</time></trkpt><trkpt lat="43.6576557" lon="12.7341818"><ele>171.0</ele><time>2026-04-24T10:15:32.968Z</time></trkpt><trkpt lat="43.6578527" lon="12.7342214"><ele>171.0</ele><time>2026-04-24T10:15:33.967Z</time></trkpt><trkpt lat="43.6580479" lon="12.7342626"><ele>172.0</ele><time>2026-04-24T10:15:34.967Z</time></trkpt><trkpt lat="43.6582438" lon="12.7343031"><ele>173.0</ele><time>2026-04-24T10:15:35.967Z</time></trkpt><trkpt lat="43.6584402" lon="12.7343437"><ele>174.0</ele><time>2026-04-24T10:15:36.967Z</time></trkpt><trkpt lat="43.6586383" lon="12.7343848"><ele>168.33333333333334</ele><time>2026-04-24T10:15:37.967Z</time></trkpt><trkpt lat="43.6588357" lon="12.7344237"><ele>162.66666666666669</ele><time>2026-04-24T10:15:38.967Z</time></trkpt><trkpt lat="43.6590303" lon="12.7344713"><ele>157.0</ele><time>2026-04-24T10:15:39.968Z</time></trkpt><trkpt lat="43.6592231" lon="12.7345342"><ele>157.0</ele><time>2026-04-24T10:15:40.967Z</time></trkpt><trkpt lat="43.6594163" lon="12.7346137"><ele>157.0</ele><time>2026-04-24T10:15:41.967Z</time></trkpt><trkpt lat="43.659605" lon="12.7347155"><ele>157.0</ele><time>2026-04-24T10:15:42.967Z</time></trkpt><trkpt lat="43.6597877" lon="12.7348421"><ele>155.66666666666669</ele><time>2026-04-24T10:15:43.967Z</time></trkpt><trkpt lat="43.6599571" lon="12.7349952"><ele>154.33333333333334</ele><time>2026-04-24T10:15:44.967Z</time></trkpt><trkpt lat="43.6601065" lon="12.7351679"><ele>153.0</ele><time>2026-04-24T10:15:45.967Z</time></trkpt><trkpt lat="43.6602435" lon="12.7353496"><ele>154.0</ele><time>2026-04-24T10:15:46.968Z</time></trkpt><trkpt lat="43.6603798" lon="12.7355235"><ele>155.0</ele><time>2026-04-24T10:15:47.968Z</time></trkpt><trkpt lat="43.6605253" lon="12.735674"><ele>156.0</ele><time>2026-04-24T10:15:48.967Z</time></trkpt><trkpt lat="43.6606797" lon="12.7357994"><ele>156.0</ele><time>2026-04-24T10:15:49.967Z</time></trkpt><trkpt lat="43.6608389" lon="12.7359018"><ele>156.0</ele><time>2026-04-24T10:15:50.968Z</time></trkpt><trkpt lat="43.6610172" lon="12.7359781"><ele>156.0</ele><time>2026-04-24T10:15:51.967Z</time></trkpt><trkpt lat="43.6612247" lon="12.7360359"><ele>152.0</ele><time>2026-04-24T10:15:52.967Z</time></trkpt><trkpt lat="43.6614499" lon="12.7361021"><ele>148.0</ele><time>2026-04-24T10:15:53.967Z</time></trkpt><trkpt lat="43.661686" lon="12.7361752"><ele>148.0</ele><time>2026-04-24T10:15:54.967Z</time></trkpt><trkpt lat="43.6619122" lon="12.7362471"><ele>148.0</ele><time>2026-04-24T10:15:55.968Z</time></trkpt><trkpt lat="43.6621257" lon="12.736312"><ele>150.33333333333334</ele><time>2026-04-24T10:15:56.967Z</time></trkpt><trkpt lat="43.6623272" lon="12.7363778"><ele>152.66666666666666</ele><time>2026-04-24T10:15:57.967Z</time></trkpt><trkpt lat="43.6625215" lon="12.736455"><ele>155.0</ele><time>2026-04-24T10:15:58.969Z</time></trkpt><trkpt lat="43.6627024" lon="12.7365741"><ele>157.0</ele><time>2026-04-24T10:15:59.967Z</time></trkpt><trkpt lat="43.6628724" lon="12.7367306"><ele>159.0</ele><time>2026-04-24T10:16:00.967Z</time></trkpt><trkpt lat="43.6630342" lon="12.7369023"><ele>161.0</ele><time>2026-04-24T10:16:01.967Z</time></trkpt><trkpt lat="43.6631734" lon="12.7370967"><ele>161.0</ele><time>2026-04-24T10:16:02.968Z</time></trkpt><trkpt lat="43.6632865" lon="12.7373189"><ele>161.0</ele><time>2026-04-24T10:16:03.967Z</time></trkpt><trkpt lat="43.6633882" lon="12.737548"><ele>161.0</ele><time>2026-04-24T10:16:04.967Z</time></trkpt><trkpt lat="43.6634784" lon="12.7377876"><ele>157.0</ele><time>2026-04-24T10:16:05.967Z</time></trkpt><trkpt lat="43.6635496" lon="12.7380363"><ele>153.0</ele><time>2026-04-24T10:16:06.968Z</time></trkpt><trkpt lat="43.6636054" lon="12.7382866"><ele>149.0</ele><time>2026-04-24T10:16:07.967Z</time></trkpt><trkpt lat="43.6636349" lon="12.7385258"><ele>149.66666666666666</ele><time>2026-04-24T10:16:08.967Z</time></trkpt><trkpt lat="43.6636326" lon="12.7387582"><ele>150.33333333333334</ele><time>2026-04-24T10:16:09.968Z</time></trkpt><trkpt lat="43.6635872" lon="12.7389958"><ele>151.0</ele><time>2026-04-24T10:16:10.967Z</time></trkpt><trkpt lat="43.6635312" lon="12.7392352"><ele>151.66666666666669</ele><time>2026-04-24T10:16:11.967Z</time></trkpt><trkpt lat="43.6634824" lon="12.7394829"><ele>152.33333333333334</ele><time>2026-04-24T10:16:12.967Z</time></trkpt><trkpt lat="43.6634492" lon="12.7397383"><ele>153.0</ele><time>2026-04-24T10:16:13.967Z</time></trkpt><trkpt lat="43.6634351" lon="12.7399929"><ele>152.66666666666666</ele><time>2026-04-24T10:16:14.967Z</time></trkpt><trkpt lat="43.663438" lon="12.7402326"><ele>152.33333333333331</ele><time>2026-04-24T10:16:15.967Z</time></trkpt><trkpt lat="43.663448" lon="12.7404591"><ele>152.0</ele><time>2026-04-24T10:16:16.967Z</time></trkpt><trkpt lat="43.663462" lon="12.7406741"><ele>152.0</ele><time>2026-04-24T10:16:17.967Z</time></trkpt><trkpt lat="43.6634767" lon="12.7408724"><ele>152.0</ele><time>2026-04-24T10:16:18.968Z</time></trkpt><trkpt lat="43.6634928" lon="12.741066"><ele>152.0</ele><time>2026-04-24T10:16:19.967Z</time></trkpt><trkpt lat="43.6635115" lon="12.7412556"><ele>152.0</ele><time>2026-04-24T10:16:20.967Z</time></trkpt><trkpt lat="43.6635315" lon="12.7414421"><ele>152.0</ele><time>2026-04-24T10:16:21.968Z</time></trkpt><trkpt lat="43.6635499" lon="12.7416335"><ele>152.0</ele><time>2026-04-24T10:16:22.967Z</time></trkpt><trkpt lat="43.663567" lon="12.7418271"><ele>152.0</ele><time>2026-04-24T10:16:23.967Z</time></trkpt><trkpt lat="43.663586" lon="12.7420257"><ele>152.0</ele><time>2026-04-24T10:16:24.967Z</time></trkpt><trkpt lat="43.663605" lon="12.742229"><ele>154.0</ele><time>2026-04-24T10:16:25.968Z</time></trkpt><trkpt lat="43.6636303" lon="12.7424375"><ele>156.0</ele><time>2026-04-24T10:16:26.968Z</time></trkpt><trkpt lat="43.663654" lon="12.7426395"><ele>158.0</ele><time>2026-04-24T10:16:27.967Z</time></trkpt><trkpt lat="43.6636721" lon="12.7428295"><ele>160.0</ele><time>2026-04-24T10:16:28.968Z</time></trkpt><trkpt lat="43.6636882" lon="12.7430118"><ele>160.0</ele><time>2026-04-24T10:16:29.968Z</time></trkpt><trkpt lat="43.6637091" lon="12.7432005"><ele>160.0</ele><time>2026-04-24T10:16:30.968Z</time></trkpt><trkpt lat="43.6637356" lon="12.7434008"><ele>160.0</ele><time>2026-04-24T10:16:31.967Z</time></trkpt><trkpt lat="43.6637683" lon="12.7436234"><ele>159.66666666666669</ele><time>2026-04-24T10:16:32.967Z</time></trkpt><trkpt lat="43.6637976" lon="12.7438682"><ele>159.33333333333334</ele><time>2026-04-24T10:16:33.968Z</time></trkpt><trkpt lat="43.6638179" lon="12.7441248"><ele>159.0</ele><time>2026-04-24T10:16:34.968Z</time></trkpt><trkpt lat="43.6638373" lon="12.7443946"><ele>159.0</ele><time>2026-04-24T10:16:35.967Z</time></trkpt><trkpt lat="43.6638598" lon="12.7446702"><ele>159.0</ele><time>2026-04-24T10:16:36.968Z</time></trkpt><trkpt lat="43.6638834" lon="12.7449523"><ele>159.0</ele><time>2026-04-24T10:16:37.967Z</time></trkpt><trkpt lat="43.6639031" lon="12.7452399"><ele>158.0</ele><time>2026-04-24T10:16:38.967Z</time></trkpt><trkpt lat="43.6639214" lon="12.745533"><ele>157.0</ele><time>2026-04-24T10:16:39.967Z</time></trkpt><trkpt lat="43.6639394" lon="12.745827"><ele>156.0</ele><time>2026-04-24T10:16:40.967Z</time></trkpt><trkpt lat="43.6639578" lon="12.7461264"><ele>156.33333333333334</ele><time>2026-04-24T10:16:41.968Z</time></trkpt><trkpt lat="43.6639751" lon="12.7464285"><ele>156.66666666666669</ele><time>2026-04-24T10:16:42.968Z</time></trkpt><trkpt lat="43.6639933" lon="12.7467337"><ele>157.0</ele><time>2026-04-24T10:16:43.967Z</time></trkpt><trkpt lat="43.6640104" lon="12.7470404"><ele>157.0</ele><time>2026-04-24T10:16:44.967Z</time></trkpt><trkpt lat="43.6640247" lon="12.7473475"><ele>157.0</ele><time>2026-04-24T10:16:45.968Z</time></trkpt><trkpt lat="43.6640394" lon="12.7476548"><ele>157.0</ele><time>2026-04-24T10:16:46.967Z</time></trkpt><trkpt lat="43.6640574" lon="12.7479615"><ele>156.0</ele><time>2026-04-24T10:16:47.967Z</time></trkpt><trkpt lat="43.6640767" lon="12.7482679"><ele>155.0</ele><time>2026-04-24T10:16:48.967Z</time></trkpt><trkpt lat="43.6640977" lon="12.7485644"><ele>154.0</ele><time>2026-04-24T10:16:49.967Z</time></trkpt><trkpt lat="43.6641189" lon="12.748842"><ele>153.66666666666669</ele><time>2026-04-24T10:16:50.967Z</time></trkpt><trkpt lat="43.6641401" lon="12.749107"><ele>153.33333333333334</ele><time>2026-04-24T10:16:51.967Z</time></trkpt><trkpt lat="43.6641599" lon="12.7493661"><ele>153.0</ele><time>2026-04-24T10:16:52.967Z</time></trkpt><trkpt lat="43.6641858" lon="12.7496261"><ele>151.33333333333334</ele><time>2026-04-24T10:16:53.967Z</time></trkpt><trkpt lat="43.6642441" lon="12.7498892"><ele>149.66666666666669</ele><time>2026-04-24T10:16:54.968Z</time></trkpt><trkpt lat="43.6643245" lon="12.7501428"><ele>148.0</ele><time>2026-04-24T10:16:55.967Z</time></trkpt><trkpt lat="43.6644084" lon="12.750386"><ele>152.33333333333334</ele><time>2026-04-24T10:16:56.967Z</time></trkpt><trkpt lat="43.6644859" lon="12.7506209"><ele>156.66666666666666</ele><time>2026-04-24T10:16:57.967Z</time></trkpt><trkpt lat="43.6645543" lon="12.7508491"><ele>161.0</ele><time>2026-04-24T10:16:58.967Z</time></trkpt><trkpt lat="43.6646191" lon="12.7510769"><ele>161.0</ele><time>2026-04-24T10:16:59.967Z</time></trkpt><trkpt lat="43.6646765" lon="12.7513007"><ele>161.0</ele><time>2026-04-24T10:17:00.967Z</time></trkpt><trkpt lat="43.6647235" lon="12.7515199"><ele>161.0</ele><time>2026-04-24T10:17:01.967Z</time></trkpt><trkpt lat="43.6647618" lon="12.7517444"><ele>158.66666666666666</ele><time>2026-04-24T10:17:02.967Z</time></trkpt><trkpt lat="43.6647927" lon="12.751983"><ele>156.33333333333334</ele><time>2026-04-24T10:17:03.967Z</time></trkpt><trkpt lat="43.6648152" lon="12.7522297"><ele>154.0</ele><time>2026-04-24T10:17:04.967Z</time></trkpt><trkpt lat="43.6648369" lon="12.7524776"><ele>152.0</ele><time>2026-04-24T10:17:05.967Z</time></trkpt><trkpt lat="43.6648612" lon="12.7527264"><ele>150.0</ele><time>2026-04-24T10:17:06.967Z</time></trkpt><trkpt lat="43.6648887" lon="12.7529771"><ele>148.0</ele><time>2026-04-24T10:17:07.968Z</time></trkpt><trkpt lat="43.6649276" lon="12.7532359"><ele>148.0</ele><time>2026-04-24T10:17:08.968Z</time></trkpt><trkpt lat="43.6649874" lon="12.7534954"><ele>148.0</ele><time>2026-04-24T10:17:09.967Z</time></trkpt><trkpt lat="43.6650768" lon="12.7537485"><ele>148.0</ele><time>2026-04-24T10:17:10.967Z</time></trkpt><trkpt lat="43.6651909" lon="12.7539818"><ele>149.0</ele><time>2026-04-24T10:17:11.967Z</time></trkpt><trkpt lat="43.665318" lon="12.7541879"><ele>150.0</ele><time>2026-04-24T10:17:12.967Z</time></trkpt><trkpt lat="43.6654494" lon="12.7543802"><ele>151.0</ele><time>2026-04-24T10:17:13.967Z</time></trkpt><trkpt lat="43.6655809" lon="12.7545626"><ele>147.0</ele><time>2026-04-24T10:17:14.967Z</time></trkpt><trkpt lat="43.6657075" lon="12.754741"><ele>143.0</ele><time>2026-04-24T10:17:15.967Z</time></trkpt><trkpt lat="43.6658292" lon="12.7549158"><ele>139.0</ele><time>2026-04-24T10:17:16.967Z</time></trkpt><trkpt lat="43.6659475" lon="12.7550862"><ele>138.33333333333334</ele><time>2026-04-24T10:17:17.967Z</time></trkpt><trkpt lat="43.6660703" lon="12.7552643"><ele>137.66666666666666</ele><time>2026-04-24T10:17:18.967Z</time></trkpt><trkpt lat="43.6661968" lon="12.7554464"><ele>137.0</ele><time>2026-04-24T10:17:19.967Z</time></trkpt><trkpt lat="43.6663256" lon="12.7556281"><ele>137.0</ele><time>2026-04-24T10:17:20.967Z</time></trkpt><trkpt lat="43.6664469" lon="12.7558052"><ele>137.0</ele><time>2026-04-24T10:17:21.967Z</time></trkpt><trkpt lat="43.6665506" lon="12.7559897"><ele>137.0</ele><time>2026-04-24T10:17:22.967Z</time></trkpt><trkpt lat="43.6666269" lon="12.7561872"><ele>136.0</ele><time>2026-04-24T10:17:23.968Z</time></trkpt><trkpt lat="43.6666783" lon="12.7564011"><ele>135.0</ele><time>2026-04-24T10:17:24.967Z</time></trkpt><trkpt lat="43.6667026" lon="12.7566261"><ele>134.0</ele><time>2026-04-24T10:17:25.968Z</time></trkpt><trkpt lat="43.6667004" lon="12.7568484"><ele>133.66666666666666</ele><time>2026-04-24T10:17:26.968Z</time></trkpt><trkpt lat="43.6666695" lon="12.757064"><ele>133.33333333333334</ele><time>2026-04-24T10:17:27.967Z</time></trkpt><trkpt lat="43.6666097" lon="12.7572691"><ele>133.0</ele><time>2026-04-24T10:17:28.967Z</time></trkpt><trkpt lat="43.6665236" lon="12.7574538"><ele>133.0</ele><time>2026-04-24T10:17:29.967Z</time></trkpt><trkpt lat="43.6664368" lon="12.7576422"><ele>133.0</ele><time>2026-04-24T10:17:30.967Z</time></trkpt><trkpt lat="43.6663342" lon="12.7578067"><ele>133.0</ele><time>2026-04-24T10:17:31.967Z</time></trkpt><trkpt lat="43.6661584" lon="12.7578984"><ele>131.66666666666669</ele><time>2026-04-24T10:17:32.968Z</time></trkpt><trkpt lat="43.666002" lon="12.7579893"><ele>130.33333333333334</ele><time>2026-04-24T10:17:33.967Z</time></trkpt><trkpt lat="43.6658324" lon="12.7580252"><ele>129.0</ele><time>2026-04-24T10:17:34.967Z</time></trkpt><trkpt lat="43.6656693" lon="12.7580059"><ele>129.0</ele><time>2026-04-24T10:17:35.967Z</time></trkpt><trkpt lat="43.6655071" lon="12.7579459"><ele>129.0</ele><time>2026-04-24T10:17:36.968Z</time></trkpt><trkpt lat="43.6653549" lon="12.7578455"><ele>129.0</ele><time>2026-04-24T10:17:37.967Z</time></trkpt><trkpt lat="43.6652223" lon="12.7577009"><ele>130.0</ele><time>2026-04-24T10:17:38.967Z</time></trkpt><trkpt lat="43.6651199" lon="12.757523"><ele>131.0</ele><time>2026-04-24T10:17:39.967Z</time></trkpt><trkpt lat="43.6650442" lon="12.7573218"><ele>132.0</ele><time>2026-04-24T10:17:40.968Z</time></trkpt><trkpt lat="43.6650096" lon="12.7571199"><ele>132.0</ele><time>2026-04-24T10:17:41.967Z</time></trkpt><trkpt lat="43.665021" lon="12.7569312"><ele>132.0</ele><time>2026-04-24T10:17:42.967Z</time></trkpt><trkpt lat="43.6650836" lon="12.7567558"><ele>132.0</ele><time>2026-04-24T10:17:43.967Z</time></trkpt><trkpt lat="43.6651759" lon="12.7566267"><ele>132.0</ele><time>2026-04-24T10:17:44.967Z</time></trkpt><trkpt lat="43.665289" lon="12.7565432"><ele>132.75</ele><time>2026-04-24T10:17:45.968Z</time></trkpt><trkpt lat="43.6654157" lon="12.7565113"><ele>133.5</ele><time>2026-04-24T10:17:46.967Z</time></trkpt><trkpt lat="43.6655467" lon="12.7565314"><ele>134.25</ele><time>2026-04-24T10:17:47.967Z</time></trkpt><trkpt lat="43.6656745" lon="12.7565995"><ele>135.0</ele><time>2026-04-24T10:17:48.967Z</time></trkpt><trkpt lat="43.6657794" lon="12.756742"><ele>134.33333333333334</ele><time>2026-04-24T10:17:49.968Z</time></trkpt><trkpt lat="43.6658875" lon="12.7569026"><ele>133.66666666666669</ele><time>2026-04-24T10:17:50.968Z</time></trkpt><trkpt lat="43.6660125" lon="12.7570839"><ele>133.0</ele><time>2026-04-24T10:17:51.967Z</time></trkpt><trkpt lat="43.6661537" lon="12.7572755"><ele>133.0</ele><time>2026-04-24T10:17:52.967Z</time></trkpt><trkpt lat="43.6663123" lon="12.7574746"><ele>133.0</ele><time>2026-04-24T10:17:53.968Z</time></trkpt><trkpt lat="43.6664827" lon="12.7576897"><ele>133.0</ele><time>2026-04-24T10:17:54.967Z</time></trkpt><trkpt lat="43.6666666" lon="12.7579143"><ele>132.5</ele><time>2026-04-24T10:17:55.967Z</time></trkpt><trkpt lat="43.666865" lon="12.7581427"><ele>132.0</ele><time>2026-04-24T10:17:56.967Z</time></trkpt><trkpt lat="43.6670795" lon="12.7583722"><ele>129.5</ele><time>2026-04-24T10:17:57.968Z</time></trkpt><trkpt lat="43.6673061" lon="12.7585973"><ele>127.0</ele><time>2026-04-24T10:17:58.967Z</time></trkpt><trkpt lat="43.6675431" lon="12.758814"><ele>125.5</ele><time>2026-04-24T10:17:59.968Z</time></trkpt><trkpt lat="43.6677902" lon="12.7590234"><ele>124.0</ele><time>2026-04-24T10:18:00.968Z</time></trkpt><trkpt lat="43.6680468" lon="12.7592202"><ele>123.5</ele><time>2026-04-24T10:18:01.968Z</time></trkpt><trkpt lat="43.6683141" lon="12.7594037"><ele>123.0</ele><time>2026-04-24T10:18:02.968Z</time></trkpt><trkpt lat="43.6685898" lon="12.7595617"><ele>121.5</ele><time>2026-04-24T10:18:03.967Z</time></trkpt><trkpt lat="43.6688674" lon="12.759713"><ele>120.0</ele><time>2026-04-24T10:18:04.967Z</time></trkpt><trkpt lat="43.6691478" lon="12.7598578"><ele>120.0</ele><time>2026-04-24T10:18:05.968Z</time></trkpt><trkpt lat="43.6694346" lon="12.7599938"><ele>120.0</ele><time>2026-04-24T10:18:06.968Z</time></trkpt><trkpt lat="43.6697257" lon="12.7601214"><ele>120.5</ele><time>2026-04-24T10:18:07.967Z</time></trkpt><trkpt lat="43.6700183" lon="12.7602433"><ele>121.0</ele><time>2026-04-24T10:18:08.967Z</time></trkpt><trkpt lat="43.6703039" lon="12.760365"><ele>123.0</ele><time>2026-04-24T10:18:09.967Z</time></trkpt><trkpt lat="43.6705832" lon="12.7604867"><ele>125.0</ele><time>2026-04-24T10:18:10.968Z</time></trkpt><trkpt lat="43.6708458" lon="12.7606039"><ele>125.0</ele><time>2026-04-24T10:18:11.968Z</time></trkpt><trkpt lat="43.6710961" lon="12.7607176"><ele>125.0</ele><time>2026-04-24T10:18:12.967Z</time></trkpt><trkpt lat="43.6713327" lon="12.7608311"><ele>124.5</ele><time>2026-04-24T10:18:13.968Z</time></trkpt><trkpt lat="43.6715566" lon="12.7609456"><ele>124.0</ele><time>2026-04-24T10:18:14.968Z</time></trkpt><trkpt lat="43.6717746" lon="12.7610663"><ele>127.5</ele><time>2026-04-24T10:18:15.967Z</time></trkpt><trkpt lat="43.67199" lon="12.761193"><ele>131.0</ele><time>2026-04-24T10:18:16.967Z</time></trkpt><trkpt lat="43.6722045" lon="12.7613231"><ele>131.0</ele><time>2026-04-24T10:18:17.967Z</time></trkpt><trkpt lat="43.6724152" lon="12.7614631"><ele>131.0</ele><time>2026-04-24T10:18:18.967Z</time></trkpt><trkpt lat="43.672622" lon="12.7616125"><ele>131.5</ele><time>2026-04-24T10:18:19.968Z</time></trkpt><trkpt lat="43.6728239" lon="12.7617688"><ele>132.0</ele><time>2026-04-24T10:18:20.967Z</time></trkpt><trkpt lat="43.6730218" lon="12.7619366"><ele>132.0</ele><time>2026-04-24T10:18:21.967Z</time></trkpt><trkpt lat="43.6732201" lon="12.762112"><ele>132.0</ele><time>2026-04-24T10:18:22.967Z</time></trkpt><trkpt lat="43.6734173" lon="12.7622937"><ele>131.5</ele><time>2026-04-24T10:18:23.967Z</time></trkpt><trkpt lat="43.6736129" lon="12.7624828"><ele>131.0</ele><time>2026-04-24T10:18:24.967Z</time></trkpt><trkpt lat="43.6738065" lon="12.7626835"><ele>131.5</ele><time>2026-04-24T10:18:25.968Z</time></trkpt><trkpt lat="43.6739972" lon="12.7628935"><ele>132.0</ele><time>2026-04-24T10:18:26.968Z</time></trkpt><trkpt lat="43.6741826" lon="12.7631128"><ele>132.0</ele><time>2026-04-24T10:18:27.968Z</time></trkpt><trkpt lat="43.6743639" lon="12.7633391"><ele>132.0</ele><time>2026-04-24T10:18:28.967Z</time></trkpt><trkpt lat="43.6745427" lon="12.7635711"><ele>133.0</ele><time>2026-04-24T10:18:29.967Z</time></trkpt><trkpt lat="43.6747199" lon="12.7638134"><ele>134.0</ele><time>2026-04-24T10:18:30.967Z</time></trkpt><trkpt lat="43.6748943" lon="12.7640628"><ele>134.0</ele><time>2026-04-24T10:18:31.967Z</time></trkpt><trkpt lat="43.6750641" lon="12.76432"><ele>134.0</ele><time>2026-04-24T10:18:32.967Z</time></trkpt><trkpt lat="43.6752291" lon="12.7645844"><ele>134.5</ele><time>2026-04-24T10:18:33.967Z</time></trkpt><trkpt lat="43.6753871" lon="12.7648422"><ele>135.0</ele><time>2026-04-24T10:18:34.968Z</time></trkpt><trkpt lat="43.6755369" lon="12.7650812"><ele>135.66666666666666</ele><time>2026-04-24T10:18:35.967Z</time></trkpt><trkpt lat="43.675681" lon="12.7652987"><ele>136.33333333333331</ele><time>2026-04-24T10:18:36.967Z</time></trkpt><trkpt lat="43.6758282" lon="12.7654879"><ele>137.0</ele><time>2026-04-24T10:18:37.967Z</time></trkpt><trkpt lat="43.6759913" lon="12.7656378"><ele>137.0</ele><time>2026-04-24T10:18:38.967Z</time></trkpt><trkpt lat="43.6761647" lon="12.7657474"><ele>137.0</ele><time>2026-04-24T10:18:39.967Z</time></trkpt><trkpt lat="43.676336" lon="12.7658011"><ele>137.0</ele><time>2026-04-24T10:18:40.967Z</time></trkpt><trkpt lat="43.6765136" lon="12.7658016"><ele>137.0</ele><time>2026-04-24T10:18:41.967Z</time></trkpt><trkpt lat="43.6766897" lon="12.765753"><ele>137.0</ele><time>2026-04-24T10:18:42.968Z</time></trkpt><trkpt lat="43.6768593" lon="12.7656657"><ele>137.0</ele><time>2026-04-24T10:18:43.967Z</time></trkpt><trkpt lat="43.6770238" lon="12.7655383"><ele>137.0</ele><time>2026-04-24T10:18:44.967Z</time></trkpt><trkpt lat="43.6771768" lon="12.7653793"><ele>137.0</ele><time>2026-04-24T10:18:45.967Z</time></trkpt><trkpt lat="43.6773128" lon="12.76519"><ele>137.0</ele><time>2026-04-24T10:18:46.968Z</time></trkpt><trkpt lat="43.67742" lon="12.7649849"><ele>137.0</ele><time>2026-04-24T10:18:47.967Z</time></trkpt><trkpt lat="43.6775022" lon="12.7647532"><ele>137.0</ele><time>2026-04-24T10:18:48.967Z</time></trkpt><trkpt lat="43.6775485" lon="12.7645115"><ele>137.0</ele><time>2026-04-24T10:18:49.968Z</time></trkpt><trkpt lat="43.6775582" lon="12.7642718"><ele>136.0</ele><time>2026-04-24T10:18:50.968Z</time></trkpt><trkpt lat="43.6775309" lon="12.7640292"><ele>135.0</ele><time>2026-04-24T10:18:51.967Z</time></trkpt><trkpt lat="43.6774677" lon="12.7637929"><ele>134.0</ele><time>2026-04-24T10:18:52.967Z</time></trkpt><trkpt lat="43.677371" lon="12.7635729"><ele>133.66666666666666</ele><time>2026-04-24T10:18:53.967Z</time></trkpt><trkpt lat="43.67724" lon="12.7633759"><ele>133.33333333333334</ele><time>2026-04-24T10:18:54.968Z</time></trkpt><trkpt lat="43.6770855" lon="12.7631903"><ele>133.0</ele><time>2026-04-24T10:18:55.967Z</time></trkpt><trkpt lat="43.6769225" lon="12.7629947"><ele>133.0</ele><time>2026-04-24T10:18:56.967Z</time></trkpt><trkpt lat="43.676756" lon="12.7627881"><ele>133.0</ele><time>2026-04-24T10:18:57.967Z</time></trkpt><trkpt lat="43.6765855" lon="12.762578"><ele>132.5</ele><time>2026-04-24T10:18:58.967Z</time></trkpt><trkpt lat="43.6764167" lon="12.7623575"><ele>132.0</ele><time>2026-04-24T10:18:59.968Z</time></trkpt><trkpt lat="43.6762566" lon="12.7621269"><ele>132.0</ele><time>2026-04-24T10:19:00.967Z</time></trkpt><trkpt lat="43.676115" lon="12.7618752"><ele>132.0</ele><time>2026-04-24T10:19:01.967Z</time></trkpt><trkpt lat="43.675998" lon="12.7616185"><ele>132.33333333333334</ele><time>2026-04-24T10:19:02.966Z</time></trkpt><trkpt lat="43.6759047" lon="12.7613503"><ele>132.66666666666669</ele><time>2026-04-24T10:19:03.967Z</time></trkpt><trkpt lat="43.6758368" lon="12.7610621"><ele>133.0</ele><time>2026-04-24T10:19:04.967Z</time></trkpt><trkpt lat="43.6757888" lon="12.7607591"><ele>133.0</ele><time>2026-04-24T10:19:05.966Z</time></trkpt><trkpt lat="43.6757425" lon="12.7604496"><ele>133.0</ele><time>2026-04-24T10:19:06.966Z</time></trkpt><trkpt lat="43.675693" lon="12.760129"><ele>130.0</ele><time>2026-04-24T10:19:07.966Z</time></trkpt><trkpt lat="43.6756436" lon="12.7598037"><ele>127.0</ele><time>2026-04-24T10:19:08.966Z</time></trkpt><trkpt lat="43.6756016" lon="12.7594727"><ele>126.0</ele><time>2026-04-24T10:19:09.967Z</time></trkpt><trkpt lat="43.6755598" lon="12.7591356"><ele>125.0</ele><time>2026-04-24T10:19:10.966Z</time></trkpt><trkpt lat="43.6755192" lon="12.7587924"><ele>127.5</ele><time>2026-04-24T10:19:11.967Z</time></trkpt><trkpt lat="43.6754797" lon="12.7584405"><ele>130.0</ele><time>2026-04-24T10:19:12.966Z</time></trkpt><trkpt lat="43.6754403" lon="12.7580825"><ele>130.0</ele><time>2026-04-24T10:19:13.967Z</time></trkpt><trkpt lat="43.6753997" lon="12.7577194"><ele>130.0</ele><time>2026-04-24T10:19:14.966Z</time></trkpt><trkpt lat="43.6753578" lon="12.7573516"><ele>130.5</ele><time>2026-04-24T10:19:15.966Z</time></trkpt><trkpt lat="43.6753146" lon="12.7569777"><ele>131.0</ele><time>2026-04-24T10:19:16.967Z</time></trkpt><trkpt lat="43.675272" lon="12.7566054"><ele>130.5</ele><time>2026-04-24T10:19:17.966Z</time></trkpt><trkpt lat="43.6752315" lon="12.7562386"><ele>130.0</ele><time>2026-04-24T10:19:18.966Z</time></trkpt><trkpt lat="43.675191" lon="12.7558801"><ele>129.5</ele><time>2026-04-24T10:19:19.966Z</time></trkpt><trkpt lat="43.6751505" lon="12.7555301"><ele>129.0</ele><time>2026-04-24T10:19:20.967Z</time></trkpt><trkpt lat="43.6751092" lon="12.7551818"><ele>129.0</ele><time>2026-04-24T10:19:21.966Z</time></trkpt><trkpt lat="43.6750667" lon="12.7548342"><ele>129.0</ele><time>2026-04-24T10:19:22.966Z</time></trkpt><trkpt lat="43.6750267" lon="12.7544829"><ele>126.5</ele><time>2026-04-24T10:19:23.966Z</time></trkpt><trkpt lat="43.6749878" lon="12.7541344"><ele>124.0</ele><time>2026-04-24T10:19:24.966Z</time></trkpt><trkpt lat="43.674951" lon="12.7537861"><ele>122.5</ele><time>2026-04-24T10:19:25.966Z</time></trkpt><trkpt lat="43.6749185" lon="12.7534404"><ele>121.0</ele><time>2026-04-24T10:19:26.966Z</time></trkpt><trkpt lat="43.6748878" lon="12.7530934"><ele>121.0</ele><time>2026-04-24T10:19:27.966Z</time></trkpt><trkpt lat="43.6748612" lon="12.7527463"><ele>121.0</ele><time>2026-04-24T10:19:28.966Z</time></trkpt><trkpt lat="43.674844" lon="12.7523991"><ele>122.5</ele><time>2026-04-24T10:19:29.966Z</time></trkpt><trkpt lat="43.6748395" lon="12.7520517"><ele>124.0</ele><time>2026-04-24T10:19:30.966Z</time></trkpt><trkpt lat="43.6748431" lon="12.7517028"><ele>124.0</ele><time>2026-04-24T10:19:31.967Z</time></trkpt><trkpt lat="43.6748561" lon="12.7513502"><ele>124.0</ele><time>2026-04-24T10:19:32.966Z</time></trkpt><trkpt lat="43.6748809" lon="12.750998"><ele>123.5</ele><time>2026-04-24T10:19:33.966Z</time></trkpt><trkpt lat="43.6749136" lon="12.7506427"><ele>123.0</ele><time>2026-04-24T10:19:34.966Z</time></trkpt><trkpt lat="43.6749588" lon="12.7502902"><ele>122.5</ele><time>2026-04-24T10:19:35.966Z</time></trkpt><trkpt lat="43.6750182" lon="12.7499416"><ele>122.0</ele><time>2026-04-24T10:19:36.967Z</time></trkpt><trkpt lat="43.675091" lon="12.7495976"><ele>123.0</ele><time>2026-04-24T10:19:37.966Z</time></trkpt><trkpt lat="43.6751765" lon="12.7492585"><ele>124.0</ele><time>2026-04-24T10:19:38.966Z</time></trkpt><trkpt lat="43.6752706" lon="12.7489229"><ele>125.0</ele><time>2026-04-24T10:19:39.966Z</time></trkpt><trkpt lat="43.6753697" lon="12.7485892"><ele>126.0</ele><time>2026-04-24T10:19:40.967Z</time></trkpt><trkpt lat="43.6754725" lon="12.7482569"><ele>126.0</ele><time>2026-04-24T10:19:41.966Z</time></trkpt><trkpt lat="43.6755781" lon="12.7479236"><ele>126.0</ele><time>2026-04-24T10:19:42.966Z</time></trkpt><trkpt lat="43.6756857" lon="12.7475921"><ele>125.5</ele><time>2026-04-24T10:19:43.966Z</time></trkpt><trkpt lat="43.6757913" lon="12.7472582"><ele>125.0</ele><time>2026-04-24T10:19:44.966Z</time></trkpt><trkpt lat="43.675898" lon="12.7469225"><ele>124.5</ele><time>2026-04-24T10:19:45.966Z</time></trkpt><trkpt lat="43.6760054" lon="12.746587"><ele>124.0</ele><time>2026-04-24T10:19:46.967Z</time></trkpt><trkpt lat="43.6761109" lon="12.7462504"><ele>127.0</ele><time>2026-04-24T10:19:47.966Z</time></trkpt><trkpt lat="43.6762202" lon="12.745912"><ele>130.0</ele><time>2026-04-24T10:19:48.966Z</time></trkpt><trkpt lat="43.6763291" lon="12.7455757"><ele>130.0</ele><time>2026-04-24T10:19:49.966Z</time></trkpt><trkpt lat="43.6764379" lon="12.7452392"><ele>130.0</ele><time>2026-04-24T10:19:50.966Z</time></trkpt><trkpt lat="43.6765454" lon="12.7449049"><ele>129.0</ele><time>2026-04-24T10:19:51.966Z</time></trkpt><trkpt lat="43.6766538" lon="12.7445715"><ele>128.0</ele><time>2026-04-24T10:19:52.966Z</time></trkpt><trkpt lat="43.6767619" lon="12.744239"><ele>127.5</ele><time>2026-04-24T10:19:53.966Z</time></trkpt><trkpt lat="43.6768693" lon="12.7439073"><ele>127.0</ele><time>2026-04-24T10:19:54.967Z</time></trkpt><trkpt lat="43.6769754" lon="12.7435752"><ele>129.0</ele><time>2026-04-24T10:19:55.966Z</time></trkpt><trkpt lat="43.6770837" lon="12.7432444"><ele>131.0</ele><time>2026-04-24T10:19:56.966Z</time></trkpt><trkpt lat="43.6771919" lon="12.7429135"><ele>131.5</ele><time>2026-04-24T10:19:57.966Z</time></trkpt><trkpt lat="43.6773004" lon="12.7425817"><ele>132.0</ele><time>2026-04-24T10:19:58.966Z</time></trkpt><trkpt lat="43.6774069" lon="12.7422452"><ele>132.0</ele><time>2026-04-24T10:19:59.966Z</time></trkpt><trkpt lat="43.677522" lon="12.7419181"><ele>132.0</ele><time>2026-04-24T10:20:00.966Z</time></trkpt><trkpt lat="43.6776368" lon="12.7415899"><ele>131.5</ele><time>2026-04-24T10:20:01.966Z</time></trkpt><trkpt lat="43.6777528" lon="12.7412636"><ele>131.0</ele><time>2026-04-24T10:20:02.966Z</time></trkpt><trkpt lat="43.6778716" lon="12.7409361"><ele>132.0</ele><time>2026-04-24T10:20:03.966Z</time></trkpt><trkpt lat="43.6779965" lon="12.7406112"><ele>133.0</ele><time>2026-04-24T10:20:04.966Z</time></trkpt><trkpt lat="43.6781261" lon="12.7402885"><ele>132.0</ele><time>2026-04-24T10:20:05.966Z</time></trkpt><trkpt lat="43.6782574" lon="12.7399687"><ele>131.0</ele><time>2026-04-24T10:20:06.966Z</time></trkpt><trkpt lat="43.6783917" lon="12.7396523"><ele>130.5</ele><time>2026-04-24T10:20:07.966Z</time></trkpt><trkpt lat="43.6785284" lon="12.739337"><ele>130.0</ele><time>2026-04-24T10:20:08.967Z</time></trkpt><trkpt lat="43.6786654" lon="12.7390211"><ele>129.0</ele><time>2026-04-24T10:20:09.967Z</time></trkpt><trkpt lat="43.678801" lon="12.7387023"><ele>128.0</ele><time>2026-04-24T10:20:10.966Z</time></trkpt><trkpt lat="43.6789364" lon="12.7383776"><ele>128.0</ele><time>2026-04-24T10:20:11.966Z</time></trkpt><trkpt lat="43.6790722" lon="12.7380521"><ele>128.0</ele><time>2026-04-24T10:20:12.967Z</time></trkpt><trkpt lat="43.6792098" lon="12.7377275"><ele>128.5</ele><time>2026-04-24T10:20:13.967Z</time></trkpt><trkpt lat="43.6793505" lon="12.7374033"><ele>129.0</ele><time>2026-04-24T10:20:14.966Z</time></trkpt><trkpt lat="43.6794913" lon="12.7370778"><ele>129.0</ele><time>2026-04-24T10:20:15.967Z</time></trkpt><trkpt lat="43.6796323" lon="12.7367565"><ele>129.0</ele><time>2026-04-24T10:20:16.966Z</time></trkpt><trkpt lat="43.679773" lon="12.7364349"><ele>129.0</ele><time>2026-04-24T10:20:17.966Z</time></trkpt><trkpt lat="43.6799137" lon="12.7361114"><ele>129.0</ele><time>2026-04-24T10:20:18.966Z</time></trkpt><trkpt lat="43.6800522" lon="12.735787"><ele>129.5</ele><time>2026-04-24T10:20:19.966Z</time></trkpt><trkpt lat="43.6801892" lon="12.7354626"><ele>130.0</ele><time>2026-04-24T10:20:20.967Z</time></trkpt><trkpt lat="43.6803242" lon="12.735136"><ele>132.0</ele><time>2026-04-24T10:20:21.966Z</time></trkpt><trkpt lat="43.680456" lon="12.7348081"><ele>134.0</ele><time>2026-04-24T10:20:22.967Z</time></trkpt><trkpt lat="43.6805891" lon="12.7344778"><ele>134.0</ele><time>2026-04-24T10:20:23.966Z</time></trkpt><trkpt lat="43.680716" lon="12.7341484"><ele>134.0</ele><time>2026-04-24T10:20:24.967Z</time></trkpt><trkpt lat="43.6808429" lon="12.7338139"><ele>134.0</ele><time>2026-04-24T10:20:25.967Z</time></trkpt><trkpt lat="43.6809658" lon="12.7334746"><ele>134.0</ele><time>2026-04-24T10:20:26.966Z</time></trkpt><trkpt lat="43.6810814" lon="12.7331296"><ele>134.5</ele><time>2026-04-24T10:20:27.966Z</time></trkpt><trkpt lat="43.6811922" lon="12.7327829"><ele>135.0</ele><time>2026-04-24T10:20:28.967Z</time></trkpt><trkpt lat="43.6813015" lon="12.732437"><ele>133.5</ele><time>2026-04-24T10:20:29.966Z</time></trkpt><trkpt lat="43.6814104" lon="12.7320903"><ele>132.0</ele><time>2026-04-24T10:20:30.966Z</time></trkpt><trkpt lat="43.6815151" lon="12.7317424"><ele>131.5</ele><time>2026-04-24T10:20:31.967Z</time></trkpt><trkpt lat="43.6816201" lon="12.7313957"><ele>131.0</ele><time>2026-04-24T10:20:32.966Z</time></trkpt><trkpt lat="43.6817271" lon="12.7310486"><ele>132.5</ele><time>2026-04-24T10:20:33.966Z</time></trkpt><trkpt lat="43.6818342" lon="12.7307019"><ele>134.0</ele><time>2026-04-24T10:20:34.967Z</time></trkpt><trkpt lat="43.6819414" lon="12.7303556"><ele>136.5</ele><time>2026-04-24T10:20:35.966Z</time></trkpt><trkpt lat="43.6820489" lon="12.7300097"><ele>139.0</ele><time>2026-04-24T10:20:36.967Z</time></trkpt><trkpt lat="43.6821569" lon="12.7296656"><ele>138.0</ele><time>2026-04-24T10:20:37.966Z</time></trkpt><trkpt lat="43.6822644" lon="12.7293224"><ele>137.0</ele><time>2026-04-24T10:20:38.966Z</time></trkpt><trkpt lat="43.6823716" lon="12.7289807"><ele>137.0</ele><time>2026-04-24T10:20:39.966Z</time></trkpt><trkpt lat="43.6824807" lon="12.728642"><ele>137.0</ele><time>2026-04-24T10:20:40.966Z</time></trkpt><trkpt lat="43.6825936" lon="12.7283079"><ele>137.0</ele><time>2026-04-24T10:20:41.967Z</time></trkpt><trkpt lat="43.6827128" lon="12.7279802"><ele>137.0</ele><time>2026-04-24T10:20:42.966Z</time></trkpt><trkpt lat="43.6828361" lon="12.7276573"><ele>137.0</ele><time>2026-04-24T10:20:43.967Z</time></trkpt><trkpt lat="43.6829653" lon="12.7273439"><ele>137.0</ele><time>2026-04-24T10:20:44.967Z</time></trkpt><trkpt lat="43.6831099" lon="12.7270342"><ele>137.5</ele><time>2026-04-24T10:20:45.966Z</time></trkpt><trkpt lat="43.6832564" lon="12.7267327"><ele>138.0</ele><time>2026-04-24T10:20:46.966Z</time></trkpt><trkpt lat="43.6834068" lon="12.7264385"><ele>138.0</ele><time>2026-04-24T10:20:47.966Z</time></trkpt><trkpt lat="43.6835643" lon="12.7261506"><ele>138.0</ele><time>2026-04-24T10:20:48.966Z</time></trkpt><trkpt lat="43.6837259" lon="12.7258709"><ele>139.5</ele><time>2026-04-24T10:20:49.966Z</time></trkpt><trkpt lat="43.6838922" lon="12.7255949"><ele>141.0</ele><time>2026-04-24T10:20:50.966Z</time></trkpt><trkpt lat="43.6840632" lon="12.7253228"><ele>140.0</ele><time>2026-04-24T10:20:51.966Z</time></trkpt><trkpt lat="43.6842337" lon="12.7250534"><ele>139.0</ele><time>2026-04-24T10:20:52.966Z</time></trkpt><trkpt lat="43.6844037" lon="12.7247842"><ele>140.5</ele><time>2026-04-24T10:20:53.966Z</time></trkpt><trkpt lat="43.684576" lon="12.724514"><ele>142.0</ele><time>2026-04-24T10:20:54.966Z</time></trkpt><trkpt lat="43.6847465" lon="12.7242444"><ele>142.0</ele><time>2026-04-24T10:20:55.967Z</time></trkpt><trkpt lat="43.6849144" lon="12.7239739"><ele>142.0</ele><time>2026-04-24T10:20:56.966Z</time></trkpt><trkpt lat="43.685084" lon="12.7237011"><ele>141.0</ele><time>2026-04-24T10:20:57.966Z</time></trkpt><trkpt lat="43.6852505" lon="12.723425"><ele>140.0</ele><time>2026-04-24T10:20:58.966Z</time></trkpt><trkpt lat="43.6854136" lon="12.7231423"><ele>142.0</ele><time>2026-04-24T10:20:59.966Z</time></trkpt><trkpt lat="43.68557" lon="12.7228518"><ele>144.0</ele><time>2026-04-24T10:21:00.966Z</time></trkpt><trkpt lat="43.6857224" lon="12.7225569"><ele>144.0</ele><time>2026-04-24T10:21:01.966Z</time></trkpt><trkpt lat="43.6858696" lon="12.7222548"><ele>144.0</ele><time>2026-04-24T10:21:02.966Z</time></trkpt><trkpt lat="43.6860135" lon="12.721949"><ele>144.0</ele><time>2026-04-24T10:21:03.967Z</time></trkpt><trkpt lat="43.6861476" lon="12.7216357"><ele>144.0</ele><time>2026-04-24T10:21:04.966Z</time></trkpt><trkpt lat="43.6862718" lon="12.7213123"><ele>143.5</ele><time>2026-04-24T10:21:05.966Z</time></trkpt><trkpt lat="43.6863814" lon="12.7209823"><ele>143.0</ele><time>2026-04-24T10:21:06.966Z</time></trkpt><trkpt lat="43.6864868" lon="12.7206492"><ele>143.0</ele><time>2026-04-24T10:21:07.966Z</time></trkpt><trkpt lat="43.6865876" lon="12.7203109"><ele>143.0</ele><time>2026-04-24T10:21:08.966Z</time></trkpt><trkpt lat="43.6866813" lon="12.7199663"><ele>143.5</ele><time>2026-04-24T10:21:09.966Z</time></trkpt><trkpt lat="43.6867682" lon="12.7196183"><ele>144.0</ele><time>2026-04-24T10:21:10.966Z</time></trkpt><trkpt lat="43.6868517" lon="12.7192681"><ele>144.0</ele><time>2026-04-24T10:21:11.966Z</time></trkpt><trkpt lat="43.6869315" lon="12.7189179"><ele>144.0</ele><time>2026-04-24T10:21:12.966Z</time></trkpt><trkpt lat="43.6870084" lon="12.7185665"><ele>144.5</ele><time>2026-04-24T10:21:13.967Z</time></trkpt><trkpt lat="43.6870817" lon="12.7182148"><ele>145.0</ele><time>2026-04-24T10:21:14.968Z</time></trkpt><trkpt lat="43.687151" lon="12.7178643"><ele>144.0</ele><time>2026-04-24T10:21:15.966Z</time></trkpt><trkpt lat="43.6872162" lon="12.7175173"><ele>143.0</ele><time>2026-04-24T10:21:16.966Z</time></trkpt><trkpt lat="43.6872774" lon="12.7171788"><ele>143.0</ele><time>2026-04-24T10:21:17.966Z</time></trkpt><trkpt lat="43.6873346" lon="12.7168578"><ele>143.0</ele><time>2026-04-24T10:21:18.966Z</time></trkpt><trkpt lat="43.6873936" lon="12.7165446"><ele>143.0</ele><time>2026-04-24T10:21:19.966Z</time></trkpt><trkpt lat="43.6874533" lon="12.7162393"><ele>143.0</ele><time>2026-04-24T10:21:20.966Z</time></trkpt><trkpt lat="43.6875095" lon="12.7159431"><ele>143.66666666666666</ele><time>2026-04-24T10:21:21.966Z</time></trkpt><trkpt lat="43.6875591" lon="12.7156664"><ele>144.33333333333334</ele><time>2026-04-24T10:21:22.966Z</time></trkpt><trkpt lat="43.6876061" lon="12.715397"><ele>145.0</ele><time>2026-04-24T10:21:23.966Z</time></trkpt><trkpt lat="43.6876513" lon="12.715133"><ele>145.0</ele><time>2026-04-24T10:21:24.966Z</time></trkpt><trkpt lat="43.6877201" lon="12.7148768"><ele>145.0</ele><time>2026-04-24T10:21:25.966Z</time></trkpt><trkpt lat="43.6877802" lon="12.7146256"><ele>145.0</ele><time>2026-04-24T10:21:26.967Z</time></trkpt><trkpt lat="43.6878423" lon="12.7143883"><ele>144.66666666666669</ele><time>2026-04-24T10:21:27.966Z</time></trkpt><trkpt lat="43.6879074" lon="12.7141572"><ele>144.33333333333334</ele><time>2026-04-24T10:21:28.966Z</time></trkpt><trkpt lat="43.6879753" lon="12.713934"><ele>144.0</ele><time>2026-04-24T10:21:29.966Z</time></trkpt><trkpt lat="43.6880509" lon="12.7137239"><ele>144.33333333333334</ele><time>2026-04-24T10:21:30.966Z</time></trkpt><trkpt lat="43.6881442" lon="12.7135257"><ele>144.66666666666669</ele><time>2026-04-24T10:21:31.966Z</time></trkpt><trkpt lat="43.6882588" lon="12.71333"><ele>145.0</ele><time>2026-04-24T10:21:32.966Z</time></trkpt><trkpt lat="43.6883849" lon="12.713129"><ele>145.0</ele><time>2026-04-24T10:21:33.966Z</time></trkpt><trkpt lat="43.6885278" lon="12.7129397"><ele>145.0</ele><time>2026-04-24T10:21:34.966Z</time></trkpt><trkpt lat="43.6886822" lon="12.7127525"><ele>145.0</ele><time>2026-04-24T10:21:35.966Z</time></trkpt><trkpt lat="43.6888418" lon="12.7125664"><ele>146.33333333333334</ele><time>2026-04-24T10:21:36.966Z</time></trkpt><trkpt lat="43.6890028" lon="12.7123724"><ele>147.66666666666666</ele><time>2026-04-24T10:21:37.966Z</time></trkpt><trkpt lat="43.6891609" lon="12.7121721"><ele>149.0</ele><time>2026-04-24T10:21:38.966Z</time></trkpt><trkpt lat="43.6893147" lon="12.7119679"><ele>151.66666666666666</ele><time>2026-04-24T10:21:39.966Z</time></trkpt><trkpt lat="43.689462" lon="12.7117551"><ele>154.33333333333334</ele><time>2026-04-24T10:21:40.968Z</time></trkpt><trkpt lat="43.6896041" lon="12.7115385"><ele>157.0</ele><time>2026-04-24T10:21:41.967Z</time></trkpt><trkpt lat="43.6897406" lon="12.7113171"><ele>157.0</ele><time>2026-04-24T10:21:42.966Z</time></trkpt><trkpt lat="43.6898724" lon="12.7110947"><ele>157.0</ele><time>2026-04-24T10:21:43.966Z</time></trkpt><trkpt lat="43.690002" lon="12.7108761"><ele>157.0</ele><time>2026-04-24T10:21:44.967Z</time></trkpt><trkpt lat="43.6901288" lon="12.7106598"><ele>156.0</ele><time>2026-04-24T10:21:45.966Z</time></trkpt><trkpt lat="43.6902528" lon="12.7104514"><ele>155.0</ele><time>2026-04-24T10:21:46.966Z</time></trkpt><trkpt lat="43.6903698" lon="12.7102562"><ele>154.0</ele><time>2026-04-24T10:21:47.967Z</time></trkpt><trkpt lat="43.6904812" lon="12.7100724"><ele>154.0</ele><time>2026-04-24T10:21:48.967Z</time></trkpt><trkpt lat="43.6905871" lon="12.7098979"><ele>154.0</ele><time>2026-04-24T10:21:49.966Z</time></trkpt><trkpt lat="43.6906854" lon="12.709731"><ele>154.0</ele><time>2026-04-24T10:21:50.966Z</time></trkpt><trkpt lat="43.6907751" lon="12.7095784"><ele>154.0</ele><time>2026-04-24T10:21:51.966Z</time></trkpt><trkpt lat="43.6908589" lon="12.7094366"><ele>154.0</ele><time>2026-04-24T10:21:52.966Z</time></trkpt><trkpt lat="43.6909377" lon="12.7093129"><ele>154.0</ele><time>2026-04-24T10:21:53.967Z</time></trkpt><trkpt lat="43.6910082" lon="12.7092191"><ele>154.0</ele><time>2026-04-24T10:21:54.966Z</time></trkpt><trkpt lat="43.6910775" lon="12.709155"><ele>154.0</ele><time>2026-04-24T10:21:55.966Z</time></trkpt><trkpt lat="43.6911474" lon="12.7091089"><ele>154.83333333333334</ele><time>2026-04-24T10:21:56.966Z</time></trkpt><trkpt lat="43.6912047" lon="12.7090665"><ele>155.66666666666669</ele><time>2026-04-24T10:21:57.966Z</time></trkpt><trkpt lat="43.6912822" lon="12.7089363"><ele>156.5</ele><time>2026-04-24T10:21:59.966Z</time></trkpt><trkpt lat="43.691307" lon="12.7088456"><ele>157.33333333333334</ele><time>2026-04-24T10:22:00.966Z</time></trkpt><trkpt lat="43.6913369" lon="12.7087429"><ele>158.16666666666666</ele><time>2026-04-24T10:22:01.967Z</time></trkpt><trkpt lat="43.6913714" lon="12.7086276"><ele>159.0</ele><time>2026-04-24T10:22:02.966Z</time></trkpt><trkpt lat="43.6914167" lon="12.7085139"><ele>159.0</ele><time>2026-04-24T10:22:03.967Z</time></trkpt><trkpt lat="43.6914695" lon="12.7084018"><ele>159.0</ele><time>2026-04-24T10:22:04.966Z</time></trkpt><trkpt lat="43.6915314" lon="12.708298"><ele>159.0</ele><time>2026-04-24T10:22:05.966Z</time></trkpt><trkpt lat="43.6915956" lon="12.7081917"><ele>159.0</ele><time>2026-04-24T10:22:06.966Z</time></trkpt><trkpt lat="43.6916568" lon="12.7080918"><ele>159.0</ele><time>2026-04-24T10:22:07.966Z</time></trkpt><trkpt lat="43.6917065" lon="12.7079741"><ele>159.0</ele><time>2026-04-24T10:22:08.966Z</time></trkpt><trkpt lat="43.6917493" lon="12.7078141"><ele>159.0</ele><time>2026-04-24T10:22:09.966Z</time></trkpt><trkpt lat="43.6917826" lon="12.7076003"><ele>159.0</ele><time>2026-04-24T10:22:10.966Z</time></trkpt><trkpt lat="43.6918099" lon="12.7073437"><ele>159.33333333333334</ele><time>2026-04-24T10:22:11.967Z</time></trkpt><trkpt lat="43.6918401" lon="12.7070676"><ele>159.66666666666669</ele><time>2026-04-24T10:22:12.966Z</time></trkpt><trkpt lat="43.6918822" lon="12.7067881"><ele>160.0</ele><time>2026-04-24T10:22:13.966Z</time></trkpt><trkpt lat="43.6919385" lon="12.7065217"><ele>160.33333333333334</ele><time>2026-04-24T10:22:14.966Z</time></trkpt><trkpt lat="43.6920145" lon="12.7062662"><ele>160.66666666666666</ele><time>2026-04-24T10:22:15.966Z</time></trkpt><trkpt lat="43.6920999" lon="12.7060192"><ele>161.0</ele><time>2026-04-24T10:22:16.966Z</time></trkpt><trkpt lat="43.6921892" lon="12.7057779"><ele>161.33333333333331</ele><time>2026-04-24T10:22:17.966Z</time></trkpt><trkpt lat="43.6922745" lon="12.7055449"><ele>161.66666666666666</ele><time>2026-04-24T10:22:18.967Z</time></trkpt><trkpt lat="43.6923556" lon="12.7053128"><ele>162.0</ele><time>2026-04-24T10:22:19.966Z</time></trkpt><trkpt lat="43.6924332" lon="12.7050859"><ele>163.0</ele><time>2026-04-24T10:22:20.967Z</time></trkpt><trkpt lat="43.6925076" lon="12.7048644"><ele>164.0</ele><time>2026-04-24T10:22:21.967Z</time></trkpt><trkpt lat="43.692584" lon="12.704648"><ele>165.0</ele><time>2026-04-24T10:22:22.966Z</time></trkpt><trkpt lat="43.6926599" lon="12.7044354"><ele>165.0</ele><time>2026-04-24T10:22:23.966Z</time></trkpt><trkpt lat="43.6927361" lon="12.7042303"><ele>165.0</ele><time>2026-04-24T10:22:24.967Z</time></trkpt><trkpt lat="43.6928091" lon="12.7040325"><ele>165.0</ele><time>2026-04-24T10:22:25.966Z</time></trkpt><trkpt lat="43.6928791" lon="12.7038448"><ele>165.5</ele><time>2026-04-24T10:22:26.966Z</time></trkpt><trkpt lat="43.6929462" lon="12.7036627"><ele>166.0</ele><time>2026-04-24T10:22:27.966Z</time></trkpt><trkpt lat="43.6930145" lon="12.7034831"><ele>166.5</ele><time>2026-04-24T10:22:28.967Z</time></trkpt><trkpt lat="43.6930812" lon="12.7033086"><ele>167.0</ele><time>2026-04-24T10:22:29.966Z</time></trkpt><trkpt lat="43.6931451" lon="12.7031263"><ele>167.0</ele><time>2026-04-24T10:22:30.966Z</time></trkpt><trkpt lat="43.6932104" lon="12.7029453"><ele>167.0</ele><time>2026-04-24T10:22:31.966Z</time></trkpt><trkpt lat="43.693278" lon="12.7027619"><ele>167.0</ele><time>2026-04-24T10:22:32.966Z</time></trkpt><trkpt lat="43.6933398" lon="12.7025943"><ele>167.0</ele><time>2026-04-24T10:22:33.966Z</time></trkpt><trkpt lat="43.6933984" lon="12.7024372"><ele>167.5</ele><time>2026-04-24T10:22:34.966Z</time></trkpt><trkpt lat="43.6934532" lon="12.7022922"><ele>168.0</ele><time>2026-04-24T10:22:35.966Z</time></trkpt><trkpt lat="43.6935049" lon="12.702153"><ele>168.5</ele><time>2026-04-24T10:22:36.966Z</time></trkpt><trkpt lat="43.6935556" lon="12.7020116"><ele>169.0</ele><time>2026-04-24T10:22:37.967Z</time></trkpt><trkpt lat="43.693609" lon="12.7018671"><ele>170.0</ele><time>2026-04-24T10:22:38.966Z</time></trkpt><trkpt lat="43.6936634" lon="12.7017109"><ele>171.0</ele><time>2026-04-24T10:22:39.966Z</time></trkpt><trkpt lat="43.69372" lon="12.7015484"><ele>172.0</ele><time>2026-04-24T10:22:40.966Z</time></trkpt><trkpt lat="43.693779" lon="12.701381"><ele>173.0</ele><time>2026-04-24T10:22:41.966Z</time></trkpt><trkpt lat="43.693836" lon="12.7012034"><ele>173.0</ele><time>2026-04-24T10:22:42.966Z</time></trkpt><trkpt lat="43.6938903" lon="12.7010191"><ele>173.0</ele><time>2026-04-24T10:22:43.967Z</time></trkpt><trkpt lat="43.6939453" lon="12.7008338"><ele>173.0</ele><time>2026-04-24T10:22:44.966Z</time></trkpt><trkpt lat="43.6939967" lon="12.7006539"><ele>173.0</ele><time>2026-04-24T10:22:45.967Z</time></trkpt><trkpt lat="43.6940457" lon="12.7004818"><ele>173.0</ele><time>2026-04-24T10:22:46.967Z</time></trkpt><trkpt lat="43.6940906" lon="12.7003177"><ele>173.0</ele><time>2026-04-24T10:22:47.966Z</time></trkpt><trkpt lat="43.694139" lon="12.7001689"><ele>173.0</ele><time>2026-04-24T10:22:48.966Z</time></trkpt><trkpt lat="43.6941868" lon="12.7000212"><ele>173.0</ele><time>2026-04-24T10:22:49.966Z</time></trkpt><trkpt lat="43.6942346" lon="12.699875"><ele>173.0</ele><time>2026-04-24T10:22:50.966Z</time></trkpt><trkpt lat="43.694287" lon="12.699719"><ele>173.0</ele><time>2026-04-24T10:22:51.966Z</time></trkpt><trkpt lat="43.6943449" lon="12.699553"><ele>173.0</ele><time>2026-04-24T10:22:52.965Z</time></trkpt><trkpt lat="43.6944071" lon="12.6993781"><ele>173.0</ele><time>2026-04-24T10:22:53.965Z</time></trkpt><trkpt lat="43.6944761" lon="12.6991957"><ele>172.66666666666666</ele><time>2026-04-24T10:22:54.965Z</time></trkpt><trkpt lat="43.6945472" lon="12.6990069"><ele>172.33333333333334</ele><time>2026-04-24T10:22:55.965Z</time></trkpt><trkpt lat="43.6946235" lon="12.6988184"><ele>172.0</ele><time>2026-04-24T10:22:56.965Z</time></trkpt><trkpt lat="43.6947104" lon="12.6986358"><ele>171.5</ele><time>2026-04-24T10:22:57.965Z</time></trkpt><trkpt lat="43.6947945" lon="12.6984613"><ele>171.0</ele><time>2026-04-24T10:22:58.965Z</time></trkpt><trkpt lat="43.6948708" lon="12.6982941"><ele>170.5</ele><time>2026-04-24T10:22:59.965Z</time></trkpt><trkpt lat="43.6949376" lon="12.6981429"><ele>170.0</ele><time>2026-04-24T10:23:00.965Z</time></trkpt><trkpt lat="43.6949988" lon="12.6979986"><ele>170.0</ele><time>2026-04-24T10:23:01.966Z</time></trkpt><trkpt lat="43.6950569" lon="12.6978632"><ele>170.0</ele><time>2026-04-24T10:23:02.965Z</time></trkpt><trkpt lat="43.6951143" lon="12.6977334"><ele>170.0</ele><time>2026-04-24T10:23:03.966Z</time></trkpt><trkpt lat="43.6951688" lon="12.6976115"><ele>170.0</ele><time>2026-04-24T10:23:04.965Z</time></trkpt><trkpt lat="43.6952205" lon="12.697491"><ele>170.0</ele><time>2026-04-24T10:23:05.965Z</time></trkpt><trkpt lat="43.6952718" lon="12.6973667"><ele>170.0</ele><time>2026-04-24T10:23:06.965Z</time></trkpt><trkpt lat="43.6953244" lon="12.6972481"><ele>170.0</ele><time>2026-04-24T10:23:07.965Z</time></trkpt><trkpt lat="43.6953746" lon="12.6971355"><ele>170.0</ele><time>2026-04-24T10:23:08.965Z</time></trkpt><trkpt lat="43.6954204" lon="12.6970288"><ele>170.0</ele><time>2026-04-24T10:23:09.965Z</time></trkpt><trkpt lat="43.69546" lon="12.6969264"><ele>170.0</ele><time>2026-04-24T10:23:10.965Z</time></trkpt><trkpt lat="43.695507" lon="12.6968118"><ele>169.75</ele><time>2026-04-24T10:23:11.965Z</time></trkpt><trkpt lat="43.6955697" lon="12.6966843"><ele>169.5</ele><time>2026-04-24T10:23:12.965Z</time></trkpt><trkpt lat="43.6956406" lon="12.6965455"><ele>169.25</ele><time>2026-04-24T10:23:13.965Z</time></trkpt><trkpt lat="43.6957136" lon="12.6963832"><ele>169.0</ele><time>2026-04-24T10:23:14.966Z</time></trkpt><trkpt lat="43.6957898" lon="12.6962072"><ele>168.0</ele><time>2026-04-24T10:23:15.965Z</time></trkpt><trkpt lat="43.6958736" lon="12.6960198"><ele>167.0</ele><time>2026-04-24T10:23:16.965Z</time></trkpt><trkpt lat="43.6959608" lon="12.6958248"><ele>166.0</ele><time>2026-04-24T10:23:17.965Z</time></trkpt><trkpt lat="43.6960528" lon="12.6956186"><ele>166.0</ele><time>2026-04-24T10:23:18.966Z</time></trkpt><trkpt lat="43.6961495" lon="12.6954033"><ele>166.0</ele><time>2026-04-24T10:23:19.965Z</time></trkpt><trkpt lat="43.6962481" lon="12.6951813"><ele>166.0</ele><time>2026-04-24T10:23:20.965Z</time></trkpt><trkpt lat="43.6963496" lon="12.6949549"><ele>165.66666666666669</ele><time>2026-04-24T10:23:21.965Z</time></trkpt><trkpt lat="43.6964539" lon="12.6947227"><ele>165.33333333333334</ele><time>2026-04-24T10:23:22.965Z</time></trkpt><trkpt lat="43.6965577" lon="12.6944853"><ele>165.0</ele><time>2026-04-24T10:23:23.966Z</time></trkpt><trkpt lat="43.6966633" lon="12.6942398"><ele>164.33333333333334</ele><time>2026-04-24T10:23:24.965Z</time></trkpt><trkpt lat="43.6967725" lon="12.693994"><ele>163.66666666666669</ele><time>2026-04-24T10:23:25.967Z</time></trkpt><trkpt lat="43.6968816" lon="12.6937454"><ele>163.0</ele><time>2026-04-24T10:23:26.965Z</time></trkpt><trkpt lat="43.6969874" lon="12.6934954"><ele>164.33333333333334</ele><time>2026-04-24T10:23:27.965Z</time></trkpt><trkpt lat="43.6970909" lon="12.6932504"><ele>165.66666666666666</ele><time>2026-04-24T10:23:28.966Z</time></trkpt><trkpt lat="43.6971957" lon="12.6930084"><ele>167.0</ele><time>2026-04-24T10:23:29.966Z</time></trkpt><trkpt lat="43.6973001" lon="12.6927756"><ele>166.0</ele><time>2026-04-24T10:23:30.966Z</time></trkpt><trkpt lat="43.6974029" lon="12.6925427"><ele>165.0</ele><time>2026-04-24T10:23:31.965Z</time></trkpt><trkpt lat="43.6975009" lon="12.6923185"><ele>164.0</ele><time>2026-04-24T10:23:32.967Z</time></trkpt><trkpt lat="43.6975958" lon="12.6920991"><ele>164.0</ele><time>2026-04-24T10:23:33.965Z</time></trkpt><trkpt lat="43.6976856" lon="12.6918733"><ele>164.0</ele><time>2026-04-24T10:23:34.966Z</time></trkpt><trkpt lat="43.6977685" lon="12.6916317"><ele>164.0</ele><time>2026-04-24T10:23:35.966Z</time></trkpt><trkpt lat="43.6978542" lon="12.6913784"><ele>166.0</ele><time>2026-04-24T10:23:36.965Z</time></trkpt><trkpt lat="43.6979442" lon="12.6911184"><ele>168.0</ele><time>2026-04-24T10:23:37.965Z</time></trkpt><trkpt lat="43.6980363" lon="12.6908506"><ele>170.0</ele><time>2026-04-24T10:23:38.966Z</time></trkpt><trkpt lat="43.698128" lon="12.6905781"><ele>170.0</ele><time>2026-04-24T10:23:39.965Z</time></trkpt><trkpt lat="43.6982155" lon="12.6903012"><ele>170.0</ele><time>2026-04-24T10:23:40.965Z</time></trkpt><trkpt lat="43.6983014" lon="12.6900235"><ele>170.0</ele><time>2026-04-24T10:23:41.965Z</time></trkpt><trkpt lat="43.6983856" lon="12.6897464"><ele>169.66666666666666</ele><time>2026-04-24T10:23:42.966Z</time></trkpt><trkpt lat="43.6984697" lon="12.6894702"><ele>169.33333333333334</ele><time>2026-04-24T10:23:43.966Z</time></trkpt><trkpt lat="43.6985555" lon="12.6891935"><ele>169.0</ele><time>2026-04-24T10:23:44.965Z</time></trkpt><trkpt lat="43.6986425" lon="12.6889188"><ele>170.66666666666669</ele><time>2026-04-24T10:23:45.965Z</time></trkpt><trkpt lat="43.6987284" lon="12.6886453"><ele>172.33333333333334</ele><time>2026-04-24T10:23:46.965Z</time></trkpt><trkpt lat="43.6988131" lon="12.688372"><ele>174.0</ele><time>2026-04-24T10:23:47.965Z</time></trkpt><trkpt lat="43.6988963" lon="12.6881001"><ele>174.33333333333334</ele><time>2026-04-24T10:23:48.965Z</time></trkpt><trkpt lat="43.6989794" lon="12.6878306"><ele>174.66666666666669</ele><time>2026-04-24T10:23:49.966Z</time></trkpt><trkpt lat="43.6990641" lon="12.6875619"><ele>175.0</ele><time>2026-04-24T10:23:50.966Z</time></trkpt><trkpt lat="43.6991484" lon="12.6872939"><ele>175.66666666666669</ele><time>2026-04-24T10:23:51.965Z</time></trkpt><trkpt lat="43.6992329" lon="12.6870266"><ele>176.33333333333334</ele><time>2026-04-24T10:23:52.965Z</time></trkpt><trkpt lat="43.6993183" lon="12.6867595"><ele>177.0</ele><time>2026-04-24T10:23:53.966Z</time></trkpt><trkpt lat="43.699404" lon="12.6864969"><ele>178.66666666666666</ele><time>2026-04-24T10:23:54.965Z</time></trkpt><trkpt lat="43.6994831" lon="12.6862482"><ele>180.33333333333331</ele><time>2026-04-24T10:23:55.966Z</time></trkpt><trkpt lat="43.6995574" lon="12.6860147"><ele>182.0</ele><time>2026-04-24T10:23:56.965Z</time></trkpt><trkpt lat="43.6996259" lon="12.6857962"><ele>182.0</ele><time>2026-04-24T10:23:57.965Z</time></trkpt><trkpt lat="43.6996872" lon="12.6856067"><ele>182.0</ele><time>2026-04-24T10:23:58.965Z</time></trkpt><trkpt lat="43.6997528" lon="12.6854511"><ele>182.0</ele><time>2026-04-24T10:23:59.965Z</time></trkpt><trkpt lat="43.6998335" lon="12.6853299"><ele>182.0</ele><time>2026-04-24T10:24:00.965Z</time></trkpt><trkpt lat="43.6999324" lon="12.6852547"><ele>183.0</ele><time>2026-04-24T10:24:01.965Z</time></trkpt><trkpt lat="43.700045" lon="12.6852341"><ele>184.0</ele><time>2026-04-24T10:24:02.965Z</time></trkpt><trkpt lat="43.7001587" lon="12.6852616"><ele>185.0</ele><time>2026-04-24T10:24:03.965Z</time></trkpt><trkpt lat="43.7002741" lon="12.6853019"><ele>186.0</ele><time>2026-04-24T10:24:04.966Z</time></trkpt><trkpt lat="43.7003975" lon="12.6853389"><ele>186.0</ele><time>2026-04-24T10:24:05.965Z</time></trkpt><trkpt lat="43.7005229" lon="12.6853458"><ele>186.0</ele><time>2026-04-24T10:24:06.965Z</time></trkpt><trkpt lat="43.7006551" lon="12.6853139"><ele>186.0</ele><time>2026-04-24T10:24:07.965Z</time></trkpt><trkpt lat="43.7007895" lon="12.6852442"><ele>186.0</ele><time>2026-04-24T10:24:08.965Z</time></trkpt><trkpt lat="43.7009113" lon="12.6851437"><ele>182.33333333333334</ele><time>2026-04-24T10:24:09.966Z</time></trkpt><trkpt lat="43.7010254" lon="12.6850113"><ele>178.66666666666669</ele><time>2026-04-24T10:24:10.965Z</time></trkpt><trkpt lat="43.7011228" lon="12.6848296"><ele>175.0</ele><time>2026-04-24T10:24:11.965Z</time></trkpt><trkpt lat="43.7012093" lon="12.6846141"><ele>172.0</ele><time>2026-04-24T10:24:12.965Z</time></trkpt><trkpt lat="43.7013067" lon="12.6843551"><ele>169.0</ele><time>2026-04-24T10:24:13.966Z</time></trkpt><trkpt lat="43.7016505" lon="12.6836084"><ele>165.0</ele><time>2026-04-24T10:24:16.964Z</time></trkpt><trkpt lat="43.7017616" lon="12.6829204"><ele>165.0</ele><time>2026-04-24T10:24:19.965Z</time></trkpt><trkpt lat="43.7017184" lon="12.6826618"><ele>165.0</ele><time>2026-04-24T10:24:20.965Z</time></trkpt><trkpt lat="43.7016574" lon="12.6823839"><ele>165.0</ele><time>2026-04-24T10:24:21.966Z</time></trkpt><trkpt lat="43.7016015" lon="12.6820989"><ele>166.0</ele><time>2026-04-24T10:24:22.965Z</time></trkpt><trkpt lat="43.7015456" lon="12.6818048"><ele>167.0</ele><time>2026-04-24T10:24:23.966Z</time></trkpt><trkpt lat="43.7014954" lon="12.6815236"><ele>168.0</ele><time>2026-04-24T10:24:24.966Z</time></trkpt><trkpt lat="43.7014493" lon="12.681256"><ele>169.0</ele><time>2026-04-24T10:24:25.965Z</time></trkpt><trkpt lat="43.7014071" lon="12.6810102"><ele>170.0</ele><time>2026-04-24T10:24:26.965Z</time></trkpt><trkpt lat="43.7013648" lon="12.6807963"><ele>171.0</ele><time>2026-04-24T10:24:27.965Z</time></trkpt><trkpt lat="43.7013192" lon="12.6806055"><ele>171.0</ele><time>2026-04-24T10:24:28.965Z</time></trkpt><trkpt lat="43.7012386" lon="12.6804472"><ele>171.0</ele><time>2026-04-24T10:24:29.965Z</time></trkpt><trkpt lat="43.7011256" lon="12.6803205"><ele>171.0</ele><time>2026-04-24T10:24:30.965Z</time></trkpt><trkpt lat="43.700981" lon="12.6802316"><ele>171.0</ele><time>2026-04-24T10:24:31.966Z</time></trkpt><trkpt lat="43.7008164" lon="12.6801377"><ele>169.0</ele><time>2026-04-24T10:24:32.965Z</time></trkpt><trkpt lat="43.7006538" lon="12.6800135"><ele>167.0</ele><time>2026-04-24T10:24:33.965Z</time></trkpt><trkpt lat="43.7005143" lon="12.679863"><ele>165.0</ele><time>2026-04-24T10:24:34.966Z</time></trkpt><trkpt lat="43.7003951" lon="12.6796697"><ele>165.0</ele><time>2026-04-24T10:24:35.966Z</time></trkpt><trkpt lat="43.7002935" lon="12.67945"><ele>165.0</ele><time>2026-04-24T10:24:36.966Z</time></trkpt><trkpt lat="43.7001818" lon="12.6792236"><ele>165.0</ele><time>2026-04-24T10:24:37.965Z</time></trkpt><trkpt lat="43.7000425" lon="12.6790015"><ele>166.0</ele><time>2026-04-24T10:24:38.965Z</time></trkpt><trkpt lat="43.6998814" lon="12.67881"><ele>167.0</ele><time>2026-04-24T10:24:39.965Z</time></trkpt><trkpt lat="43.6997092" lon="12.6786494"><ele>168.0</ele><time>2026-04-24T10:24:40.965Z</time></trkpt><trkpt lat="43.6995331" lon="12.6784934"><ele>169.33333333333334</ele><time>2026-04-24T10:24:41.965Z</time></trkpt><trkpt lat="43.6993444" lon="12.6783707"><ele>170.66666666666669</ele><time>2026-04-24T10:24:42.965Z</time></trkpt><trkpt lat="43.6991427" lon="12.6782747"><ele>172.0</ele><time>2026-04-24T10:24:43.966Z</time></trkpt><trkpt lat="43.6989376" lon="12.6781852"><ele>172.0</ele><time>2026-04-24T10:24:44.966Z</time></trkpt><trkpt lat="43.6987293" lon="12.6780977"><ele>172.0</ele><time>2026-04-24T10:24:45.965Z</time></trkpt><trkpt lat="43.6985216" lon="12.6780094"><ele>172.0</ele><time>2026-04-24T10:24:46.966Z</time></trkpt><trkpt lat="43.6983195" lon="12.6779204"><ele>174.66666666666669</ele><time>2026-04-24T10:24:47.966Z</time></trkpt><trkpt lat="43.6981265" lon="12.6778358"><ele>177.33333333333334</ele><time>2026-04-24T10:24:48.965Z</time></trkpt><trkpt lat="43.6979466" lon="12.6777456"><ele>180.0</ele><time>2026-04-24T10:24:49.965Z</time></trkpt><trkpt lat="43.6977805" lon="12.6776458"><ele>175.0</ele><time>2026-04-24T10:24:50.966Z</time></trkpt><trkpt lat="43.6976416" lon="12.6775168"><ele>170.0</ele><time>2026-04-24T10:24:51.965Z</time></trkpt><trkpt lat="43.6975324" lon="12.6773376"><ele>165.0</ele><time>2026-04-24T10:24:52.965Z</time></trkpt><trkpt lat="43.6974587" lon="12.6771093"><ele>166.33333333333334</ele><time>2026-04-24T10:24:53.965Z</time></trkpt><trkpt lat="43.6974101" lon="12.6768475"><ele>167.66666666666669</ele><time>2026-04-24T10:24:54.965Z</time></trkpt><trkpt lat="43.6973616" lon="12.6765712"><ele>169.0</ele><time>2026-04-24T10:24:55.965Z</time></trkpt><trkpt lat="43.6973126" lon="12.6762937"><ele>171.0</ele><time>2026-04-24T10:24:56.966Z</time></trkpt><trkpt lat="43.6972769" lon="12.6760223"><ele>173.0</ele><time>2026-04-24T10:24:57.966Z</time></trkpt><trkpt lat="43.6972679" lon="12.6757556"><ele>175.0</ele><time>2026-04-24T10:24:58.965Z</time></trkpt><trkpt lat="43.6973012" lon="12.6754957"><ele>175.66666666666669</ele><time>2026-04-24T10:24:59.966Z</time></trkpt><trkpt lat="43.6973661" lon="12.6752417"><ele>176.33333333333334</ele><time>2026-04-24T10:25:00.965Z</time></trkpt><trkpt lat="43.6974339" lon="12.6749779"><ele>177.0</ele><time>2026-04-24T10:25:01.966Z</time></trkpt><trkpt lat="43.6974846" lon="12.6746921"><ele>176.66666666666666</ele><time>2026-04-24T10:25:02.965Z</time></trkpt><trkpt lat="43.6975151" lon="12.6743947"><ele>176.33333333333331</ele><time>2026-04-24T10:25:03.965Z</time></trkpt><trkpt lat="43.697535" lon="12.6741098"><ele>176.0</ele><time>2026-04-24T10:25:04.965Z</time></trkpt><trkpt lat="43.6975421" lon="12.6738459"><ele>176.0</ele><time>2026-04-24T10:25:05.965Z</time></trkpt><trkpt lat="43.6975211" lon="12.6736125"><ele>176.0</ele><time>2026-04-24T10:25:06.966Z</time></trkpt><trkpt lat="43.6974741" lon="12.6733823"><ele>176.0</ele><time>2026-04-24T10:25:07.965Z</time></trkpt><trkpt lat="43.6973927" lon="12.6731606"><ele>181.0</ele><time>2026-04-24T10:25:08.966Z</time></trkpt><trkpt lat="43.6972828" lon="12.6729432"><ele>186.0</ele><time>2026-04-24T10:25:09.964Z</time></trkpt><trkpt lat="43.6971632" lon="12.6727227"><ele>191.0</ele><time>2026-04-24T10:25:10.965Z</time></trkpt><trkpt lat="43.6970396" lon="12.6724958"><ele>187.33333333333331</ele><time>2026-04-24T10:25:11.964Z</time></trkpt><trkpt lat="43.6969163" lon="12.672263"><ele>183.66666666666666</ele><time>2026-04-24T10:25:12.964Z</time></trkpt><trkpt lat="43.6967768" lon="12.6720447"><ele>180.0</ele><time>2026-04-24T10:25:13.964Z</time></trkpt><trkpt lat="43.6966225" lon="12.6718431"><ele>180.0</ele><time>2026-04-24T10:25:14.964Z</time></trkpt><trkpt lat="43.6964629" lon="12.6716474"><ele>180.0</ele><time>2026-04-24T10:25:15.964Z</time></trkpt><trkpt lat="43.6963025" lon="12.6714579"><ele>180.0</ele><time>2026-04-24T10:25:16.964Z</time></trkpt><trkpt lat="43.6961483" lon="12.6712754"><ele>178.0</ele><time>2026-04-24T10:25:17.964Z</time></trkpt><trkpt lat="43.6960047" lon="12.6710988"><ele>176.0</ele><time>2026-04-24T10:25:18.964Z</time></trkpt><trkpt lat="43.695868" lon="12.6709351"><ele>174.0</ele><time>2026-04-24T10:25:19.964Z</time></trkpt><trkpt lat="43.6957407" lon="12.6707783"><ele>174.0</ele><time>2026-04-24T10:25:20.964Z</time></trkpt><trkpt lat="43.6956186" lon="12.6706296"><ele>174.0</ele><time>2026-04-24T10:25:21.964Z</time></trkpt><trkpt lat="43.6955039" lon="12.6704914"><ele>174.0</ele><time>2026-04-24T10:25:22.964Z</time></trkpt><trkpt lat="43.6953933" lon="12.6703592"><ele>173.79999999999998</ele><time>2026-04-24T10:25:23.964Z</time></trkpt><trkpt lat="43.6952993" lon="12.6702246"><ele>173.6</ele><time>2026-04-24T10:25:24.964Z</time></trkpt><trkpt lat="43.6952359" lon="12.6700878"><ele>173.4</ele><time>2026-04-24T10:25:25.964Z</time></trkpt><trkpt lat="43.6952051" lon="12.6699543"><ele>173.2</ele><time>2026-04-24T10:25:26.964Z</time></trkpt><trkpt lat="43.695198" lon="12.6698297"><ele>173.0</ele><time>2026-04-24T10:25:27.964Z</time></trkpt><trkpt lat="43.6952046" lon="12.6697042"><ele>173.4</ele><time>2026-04-24T10:25:28.964Z</time></trkpt><trkpt lat="43.695223" lon="12.6695688"><ele>173.8</ele><time>2026-04-24T10:25:29.964Z</time></trkpt><trkpt lat="43.6952503" lon="12.6694255"><ele>174.2</ele><time>2026-04-24T10:25:30.964Z</time></trkpt><trkpt lat="43.6952838" lon="12.6692747"><ele>174.6</ele><time>2026-04-24T10:25:31.964Z</time></trkpt><trkpt lat="43.695323" lon="12.669123"><ele>175.0</ele><time>2026-04-24T10:25:32.964Z</time></trkpt><trkpt lat="43.6953621" lon="12.6689609"><ele>175.25</ele><time>2026-04-24T10:25:33.965Z</time></trkpt><trkpt lat="43.6954041" lon="12.6687962"><ele>175.5</ele><time>2026-04-24T10:25:34.964Z</time></trkpt><trkpt lat="43.6954602" lon="12.6686371"><ele>175.75</ele><time>2026-04-24T10:25:35.965Z</time></trkpt><trkpt lat="43.6955371" lon="12.6684797"><ele>176.0</ele><time>2026-04-24T10:25:36.965Z</time></trkpt><trkpt lat="43.6956263" lon="12.668319"><ele>178.0</ele><time>2026-04-24T10:25:37.964Z</time></trkpt><trkpt lat="43.6957226" lon="12.6681533"><ele>180.0</ele><time>2026-04-24T10:25:38.964Z</time></trkpt><trkpt lat="43.6958206" lon="12.6679936"><ele>182.0</ele><time>2026-04-24T10:25:39.964Z</time></trkpt><trkpt lat="43.6959222" lon="12.6678325"><ele>182.33333333333331</ele><time>2026-04-24T10:25:40.965Z</time></trkpt><trkpt lat="43.6960235" lon="12.6676768"><ele>182.66666666666666</ele><time>2026-04-24T10:25:41.964Z</time></trkpt><trkpt lat="43.6961309" lon="12.6675279"><ele>183.0</ele><time>2026-04-24T10:25:42.964Z</time></trkpt><trkpt lat="43.6962442" lon="12.6673915"><ele>183.5</ele><time>2026-04-24T10:25:43.964Z</time></trkpt><trkpt lat="43.6963558" lon="12.6672637"><ele>184.0</ele><time>2026-04-24T10:25:44.965Z</time></trkpt><trkpt lat="43.696461" lon="12.6671359"><ele>184.5</ele><time>2026-04-24T10:25:45.964Z</time></trkpt><trkpt lat="43.6965709" lon="12.6670063"><ele>185.0</ele><time>2026-04-24T10:25:46.964Z</time></trkpt><trkpt lat="43.6966801" lon="12.6668758"><ele>185.5</ele><time>2026-04-24T10:25:47.964Z</time></trkpt><trkpt lat="43.6967884" lon="12.6667432"><ele>186.0</ele><time>2026-04-24T10:25:48.964Z</time></trkpt><trkpt lat="43.6968997" lon="12.6666109"><ele>186.5</ele><time>2026-04-24T10:25:49.964Z</time></trkpt><trkpt lat="43.6970128" lon="12.6664768"><ele>187.0</ele><time>2026-04-24T10:25:50.965Z</time></trkpt><trkpt lat="43.6971233" lon="12.6663445"><ele>187.0</ele><time>2026-04-24T10:25:51.965Z</time></trkpt><trkpt lat="43.6972308" lon="12.6662165"><ele>187.0</ele><time>2026-04-24T10:25:52.964Z</time></trkpt><trkpt lat="43.6973326" lon="12.6660927"><ele>187.0</ele><time>2026-04-24T10:25:53.964Z</time></trkpt><trkpt lat="43.6974305" lon="12.6659748"><ele>187.0</ele><time>2026-04-24T10:25:54.965Z</time></trkpt><trkpt lat="43.69752" lon="12.6658724"><ele>187.25</ele><time>2026-04-24T10:25:55.964Z</time></trkpt><trkpt lat="43.6976065" lon="12.6657724"><ele>187.5</ele><time>2026-04-24T10:25:56.964Z</time></trkpt><trkpt lat="43.6976947" lon="12.6656613"><ele>187.75</ele><time>2026-04-24T10:25:57.964Z</time></trkpt><trkpt lat="43.6977865" lon="12.6655451"><ele>188.0</ele><time>2026-04-24T10:25:58.965Z</time></trkpt><trkpt lat="43.6978866" lon="12.6654193"><ele>188.0</ele><time>2026-04-24T10:25:59.964Z</time></trkpt><trkpt lat="43.6979906" lon="12.6652893"><ele>188.0</ele><time>2026-04-24T10:26:00.964Z</time></trkpt><trkpt lat="43.6980998" lon="12.6651584"><ele>188.0</ele><time>2026-04-24T10:26:01.964Z</time></trkpt><trkpt lat="43.6982157" lon="12.6650209"><ele>188.0</ele><time>2026-04-24T10:26:02.964Z</time></trkpt><trkpt lat="43.6983339" lon="12.6648817"><ele>188.0</ele><time>2026-04-24T10:26:03.965Z</time></trkpt><trkpt lat="43.6984528" lon="12.664739"><ele>188.0</ele><time>2026-04-24T10:26:04.964Z</time></trkpt><trkpt lat="43.6985732" lon="12.6645918"><ele>188.0</ele><time>2026-04-24T10:26:05.964Z</time></trkpt><trkpt lat="43.6986924" lon="12.6644418"><ele>189.33333333333331</ele><time>2026-04-24T10:26:06.965Z</time></trkpt><trkpt lat="43.698814" lon="12.6642903"><ele>190.66666666666666</ele><time>2026-04-24T10:26:07.964Z</time></trkpt><trkpt lat="43.6989305" lon="12.6641428"><ele>192.0</ele><time>2026-04-24T10:26:08.965Z</time></trkpt><trkpt lat="43.6990392" lon="12.6640147"><ele>192.0</ele><time>2026-04-24T10:26:09.964Z</time></trkpt><trkpt lat="43.6991379" lon="12.6639069"><ele>192.0</ele><time>2026-04-24T10:26:10.964Z</time></trkpt><trkpt lat="43.6992319" lon="12.663811"><ele>192.0</ele><time>2026-04-24T10:26:11.965Z</time></trkpt><trkpt lat="43.6993219" lon="12.6637262"><ele>192.0</ele><time>2026-04-24T10:26:12.964Z</time></trkpt><trkpt lat="43.6994079" lon="12.6636549"><ele>191.66666666666666</ele><time>2026-04-24T10:26:13.964Z</time></trkpt><trkpt lat="43.6994904" lon="12.6635928"><ele>191.33333333333334</ele><time>2026-04-24T10:26:14.964Z</time></trkpt><trkpt lat="43.6995689" lon="12.663556"><ele>191.0</ele><time>2026-04-24T10:26:15.964Z</time></trkpt><trkpt lat="43.6996368" lon="12.6635517"><ele>190.66666666666669</ele><time>2026-04-24T10:26:16.964Z</time></trkpt><trkpt lat="43.6997035" lon="12.6635784"><ele>190.33333333333334</ele><time>2026-04-24T10:26:17.965Z</time></trkpt><trkpt lat="43.699772" lon="12.6636191"><ele>190.0</ele><time>2026-04-24T10:26:18.965Z</time></trkpt><trkpt lat="43.6998489" lon="12.6636494"><ele>190.0</ele><time>2026-04-24T10:26:19.964Z</time></trkpt><trkpt lat="43.6999295" lon="12.663646"><ele>190.0</ele><time>2026-04-24T10:26:20.964Z</time></trkpt><trkpt lat="43.7000009" lon="12.6636063"><ele>190.0</ele><time>2026-04-24T10:26:21.964Z</time></trkpt><trkpt lat="43.7000582" lon="12.6635469"><ele>190.0</ele><time>2026-04-24T10:26:22.965Z</time></trkpt><trkpt lat="43.7001009" lon="12.6634714"><ele>190.0</ele><time>2026-04-24T10:26:23.964Z</time></trkpt><trkpt lat="43.7001201" lon="12.6633849"><ele>190.0</ele><time>2026-04-24T10:26:24.964Z</time></trkpt><trkpt lat="43.7001137" lon="12.6632882"><ele>190.0</ele><time>2026-04-24T10:26:25.964Z</time></trkpt><trkpt lat="43.7000833" lon="12.6631925"><ele>190.0</ele><time>2026-04-24T10:26:26.964Z</time></trkpt><trkpt lat="43.7000301" lon="12.6631086"><ele>190.0</ele><time>2026-04-24T10:26:27.964Z</time></trkpt><trkpt lat="43.6999541" lon="12.6630532"><ele>190.0</ele><time>2026-04-24T10:26:28.965Z</time></trkpt><trkpt lat="43.6998704" lon="12.6630431"><ele>190.0</ele><time>2026-04-24T10:26:29.964Z</time></trkpt><trkpt lat="43.6997976" lon="12.6630822"><ele>190.0</ele><time>2026-04-24T10:26:30.964Z</time></trkpt><trkpt lat="43.6997419" lon="12.6631562"><ele>190.0</ele><time>2026-04-24T10:26:31.964Z</time></trkpt><trkpt lat="43.6997097" lon="12.663265"><ele>190.0</ele><time>2026-04-24T10:26:32.964Z</time></trkpt><trkpt lat="43.6997052" lon="12.6633863"><ele>190.0</ele><time>2026-04-24T10:26:33.964Z</time></trkpt><trkpt lat="43.6997396" lon="12.6634967"><ele>190.0</ele><time>2026-04-24T10:26:34.964Z</time></trkpt><trkpt lat="43.6998107" lon="12.6635766"><ele>190.0</ele><time>2026-04-24T10:26:35.965Z</time></trkpt><trkpt lat="43.6999024" lon="12.66361"><ele>190.0</ele><time>2026-04-24T10:26:36.966Z</time></trkpt><trkpt lat="43.6999955" lon="12.6635831"><ele>190.0</ele><time>2026-04-24T10:26:37.964Z</time></trkpt><trkpt lat="43.7000786" lon="12.6635037"><ele>190.0</ele><time>2026-04-24T10:26:38.964Z</time></trkpt><trkpt lat="43.7001468" lon="12.6633895"><ele>190.0</ele><time>2026-04-24T10:26:39.964Z</time></trkpt><trkpt lat="43.7002321" lon="12.6632687"><ele>190.0</ele><time>2026-04-24T10:26:40.964Z</time></trkpt><trkpt lat="43.7003454" lon="12.6631941"><ele>191.75</ele><time>2026-04-24T10:26:41.964Z</time></trkpt><trkpt lat="43.7004704" lon="12.6631736"><ele>193.5</ele><time>2026-04-24T10:26:42.964Z</time></trkpt><trkpt lat="43.7005993" lon="12.663212"><ele>195.25</ele><time>2026-04-24T10:26:43.964Z</time></trkpt><trkpt lat="43.7007288" lon="12.6632994"><ele>197.0</ele><time>2026-04-24T10:26:44.964Z</time></trkpt><trkpt lat="43.7008643" lon="12.6634136"><ele>197.0</ele><time>2026-04-24T10:26:45.965Z</time></trkpt><trkpt lat="43.7010115" lon="12.6635346"><ele>197.0</ele><time>2026-04-24T10:26:46.965Z</time></trkpt><trkpt lat="43.7011678" lon="12.6636586"><ele>197.0</ele><time>2026-04-24T10:26:47.964Z</time></trkpt><trkpt lat="43.7013388" lon="12.6637549"><ele>196.0</ele><time>2026-04-24T10:26:48.964Z</time></trkpt><trkpt lat="43.7015309" lon="12.6638114"><ele>195.0</ele><time>2026-04-24T10:26:49.965Z</time></trkpt><trkpt lat="43.7017311" lon="12.6638452"><ele>194.0</ele><time>2026-04-24T10:26:50.964Z</time></trkpt><trkpt lat="43.7019231" lon="12.6638574"><ele>194.0</ele><time>2026-04-24T10:26:51.964Z</time></trkpt><trkpt lat="43.7021055" lon="12.6638297"><ele>194.0</ele><time>2026-04-24T10:26:52.965Z</time></trkpt><trkpt lat="43.7022846" lon="12.6637418"><ele>194.0</ele><time>2026-04-24T10:26:53.964Z</time></trkpt><trkpt lat="43.7024544" lon="12.6636032"><ele>194.0</ele><time>2026-04-24T10:26:54.965Z</time></trkpt><trkpt lat="43.7026219" lon="12.6634349"><ele>194.0</ele><time>2026-04-24T10:26:55.965Z</time></trkpt><trkpt lat="43.7027929" lon="12.6632635"><ele>194.0</ele><time>2026-04-24T10:26:56.964Z</time></trkpt><trkpt lat="43.7029636" lon="12.6630903"><ele>196.0</ele><time>2026-04-24T10:26:57.965Z</time></trkpt><trkpt lat="43.7031347" lon="12.6629313"><ele>198.0</ele><time>2026-04-24T10:26:58.965Z</time></trkpt><trkpt lat="43.7033038" lon="12.6627875"><ele>200.0</ele><time>2026-04-24T10:26:59.964Z</time></trkpt><trkpt lat="43.7034681" lon="12.6626545"><ele>204.33333333333334</ele><time>2026-04-24T10:27:00.965Z</time></trkpt><trkpt lat="43.7036254" lon="12.6625288"><ele>208.66666666666669</ele><time>2026-04-24T10:27:01.964Z</time></trkpt><trkpt lat="43.7037705" lon="12.6623929"><ele>213.0</ele><time>2026-04-24T10:27:02.964Z</time></trkpt><trkpt lat="43.7039012" lon="12.6622278"><ele>213.0</ele><time>2026-04-24T10:27:03.964Z</time></trkpt><trkpt lat="43.7040133" lon="12.662044"><ele>213.0</ele><time>2026-04-24T10:27:04.964Z</time></trkpt><trkpt lat="43.7040976" lon="12.6618323"><ele>213.0</ele><time>2026-04-24T10:27:05.964Z</time></trkpt><trkpt lat="43.7041477" lon="12.6616067"><ele>212.66666666666669</ele><time>2026-04-24T10:27:06.964Z</time></trkpt><trkpt lat="43.7041895" lon="12.6613839"><ele>212.33333333333334</ele><time>2026-04-24T10:27:07.965Z</time></trkpt><trkpt lat="43.7042185" lon="12.6611644"><ele>212.0</ele><time>2026-04-24T10:27:08.964Z</time></trkpt><trkpt lat="43.7042446" lon="12.6609569"><ele>211.25</ele><time>2026-04-24T10:27:09.965Z</time></trkpt><trkpt lat="43.7042747" lon="12.6607625"><ele>210.5</ele><time>2026-04-24T10:27:10.965Z</time></trkpt><trkpt lat="43.7043083" lon="12.6605679"><ele>209.75</ele><time>2026-04-24T10:27:11.964Z</time></trkpt><trkpt lat="43.7043496" lon="12.6603771"><ele>209.0</ele><time>2026-04-24T10:27:12.964Z</time></trkpt><trkpt lat="43.7044028" lon="12.6601866"><ele>211.66666666666669</ele><time>2026-04-24T10:27:13.964Z</time></trkpt><trkpt lat="43.7044772" lon="12.6599967"><ele>214.33333333333331</ele><time>2026-04-24T10:27:14.964Z</time></trkpt><trkpt lat="43.7045743" lon="12.6598143"><ele>217.0</ele><time>2026-04-24T10:27:15.964Z</time></trkpt><trkpt lat="43.7046839" lon="12.6596171"><ele>213.0</ele><time>2026-04-24T10:27:16.965Z</time></trkpt><trkpt lat="43.7048068" lon="12.659397"><ele>209.0</ele><time>2026-04-24T10:27:17.964Z</time></trkpt><trkpt lat="43.704943" lon="12.6591684"><ele>205.0</ele><time>2026-04-24T10:27:18.964Z</time></trkpt><trkpt lat="43.7050908" lon="12.6589241"><ele>207.5</ele><time>2026-04-24T10:27:19.964Z</time></trkpt><trkpt lat="43.7052466" lon="12.658667"><ele>210.0</ele><time>2026-04-24T10:27:20.964Z</time></trkpt><trkpt lat="43.7054105" lon="12.6584017"><ele>210.0</ele><time>2026-04-24T10:27:21.965Z</time></trkpt><trkpt lat="43.7055712" lon="12.6581272"><ele>210.0</ele><time>2026-04-24T10:27:22.964Z</time></trkpt><trkpt lat="43.705728" lon="12.6578392"><ele>207.5</ele><time>2026-04-24T10:27:23.965Z</time></trkpt><trkpt lat="43.7058817" lon="12.6575372"><ele>205.0</ele><time>2026-04-24T10:27:24.965Z</time></trkpt><trkpt lat="43.7060299" lon="12.6572182"><ele>207.5</ele><time>2026-04-24T10:27:25.964Z</time></trkpt><trkpt lat="43.706167" lon="12.6568822"><ele>210.0</ele><time>2026-04-24T10:27:26.965Z</time></trkpt><trkpt lat="43.7062924" lon="12.6565305"><ele>210.0</ele><time>2026-04-24T10:27:27.964Z</time></trkpt><trkpt lat="43.7064057" lon="12.6561626"><ele>210.0</ele><time>2026-04-24T10:27:28.965Z</time></trkpt><trkpt lat="43.7065063" lon="12.6557805"><ele>208.5</ele><time>2026-04-24T10:27:29.964Z</time></trkpt><trkpt lat="43.7065904" lon="12.6553878"><ele>207.0</ele><time>2026-04-24T10:27:30.964Z</time></trkpt><trkpt lat="43.7066566" lon="12.6549852"><ele>206.5</ele><time>2026-04-24T10:27:31.965Z</time></trkpt><trkpt lat="43.7067019" lon="12.6545763"><ele>206.0</ele><time>2026-04-24T10:27:32.964Z</time></trkpt><trkpt lat="43.7067269" lon="12.6541603"><ele>206.0</ele><time>2026-04-24T10:27:33.965Z</time></trkpt><trkpt lat="43.7067311" lon="12.6537408"><ele>206.0</ele><time>2026-04-24T10:27:34.964Z</time></trkpt><trkpt lat="43.7067148" lon="12.6533202"><ele>206.5</ele><time>2026-04-24T10:27:35.964Z</time></trkpt><trkpt lat="43.7066814" lon="12.6529015"><ele>207.0</ele><time>2026-04-24T10:27:36.964Z</time></trkpt><trkpt lat="43.7066297" lon="12.6524852"><ele>208.0</ele><time>2026-04-24T10:27:37.966Z</time></trkpt><trkpt lat="43.7065629" lon="12.65207"><ele>209.0</ele><time>2026-04-24T10:27:38.965Z</time></trkpt><trkpt lat="43.7064854" lon="12.6516569"><ele>211.0</ele><time>2026-04-24T10:27:39.965Z</time></trkpt><trkpt lat="43.7064025" lon="12.6512434"><ele>213.0</ele><time>2026-04-24T10:27:40.964Z</time></trkpt><trkpt lat="43.706317" lon="12.650832"><ele>214.5</ele><time>2026-04-24T10:27:41.964Z</time></trkpt><trkpt lat="43.70623" lon="12.6504235"><ele>216.0</ele><time>2026-04-24T10:27:42.964Z</time></trkpt><trkpt lat="43.7061426" lon="12.650017"><ele>215.5</ele><time>2026-04-24T10:27:43.964Z</time></trkpt><trkpt lat="43.7060562" lon="12.6496146"><ele>215.0</ele><time>2026-04-24T10:27:44.964Z</time></trkpt><trkpt lat="43.7059731" lon="12.6492165"><ele>215.0</ele><time>2026-04-24T10:27:45.964Z</time></trkpt><trkpt lat="43.7058909" lon="12.6488228"><ele>215.0</ele><time>2026-04-24T10:27:46.964Z</time></trkpt><trkpt lat="43.7058088" lon="12.6484379"><ele>215.0</ele><time>2026-04-24T10:27:47.965Z</time></trkpt><trkpt lat="43.7057312" lon="12.6480784"><ele>215.0</ele><time>2026-04-24T10:27:48.964Z</time></trkpt><trkpt lat="43.7056623" lon="12.6477386"><ele>218.5</ele><time>2026-04-24T10:27:49.964Z</time></trkpt><trkpt lat="43.7056072" lon="12.6474104"><ele>222.0</ele><time>2026-04-24T10:27:50.965Z</time></trkpt><trkpt lat="43.7055699" lon="12.6470967"><ele>225.0</ele><time>2026-04-24T10:27:51.964Z</time></trkpt><trkpt lat="43.7055482" lon="12.6467986"><ele>228.0</ele><time>2026-04-24T10:27:52.964Z</time></trkpt><trkpt lat="43.7055367" lon="12.6465042"><ele>231.0</ele><time>2026-04-24T10:27:53.965Z</time></trkpt><trkpt lat="43.7055374" lon="12.6462066"><ele>230.66666666666669</ele><time>2026-04-24T10:27:54.964Z</time></trkpt><trkpt lat="43.7055502" lon="12.6459063"><ele>230.33333333333334</ele><time>2026-04-24T10:27:55.964Z</time></trkpt><trkpt lat="43.7055746" lon="12.6456085"><ele>230.0</ele><time>2026-04-24T10:27:56.964Z</time></trkpt><trkpt lat="43.7056106" lon="12.6453125"><ele>230.66666666666669</ele><time>2026-04-24T10:27:57.964Z</time></trkpt><trkpt lat="43.7056587" lon="12.6450199"><ele>231.33333333333331</ele><time>2026-04-24T10:27:58.964Z</time></trkpt><trkpt lat="43.7057194" lon="12.6447322"><ele>232.0</ele><time>2026-04-24T10:27:59.964Z</time></trkpt><trkpt lat="43.7057909" lon="12.6444514"><ele>232.66666666666666</ele><time>2026-04-24T10:28:00.965Z</time></trkpt><trkpt lat="43.7058722" lon="12.6441785"><ele>233.33333333333331</ele><time>2026-04-24T10:28:01.964Z</time></trkpt><trkpt lat="43.7059642" lon="12.6439122"><ele>234.0</ele><time>2026-04-24T10:28:02.964Z</time></trkpt><trkpt lat="43.7060662" lon="12.6436553"><ele>230.33333333333331</ele><time>2026-04-24T10:28:03.964Z</time></trkpt><trkpt lat="43.7061762" lon="12.6434096"><ele>226.66666666666666</ele><time>2026-04-24T10:28:04.964Z</time></trkpt><trkpt lat="43.7062931" lon="12.643173"><ele>223.0</ele><time>2026-04-24T10:28:05.965Z</time></trkpt><trkpt lat="43.7064168" lon="12.6429423"><ele>223.33333333333331</ele><time>2026-04-24T10:28:06.965Z</time></trkpt><trkpt lat="43.7065511" lon="12.6427157"><ele>223.66666666666669</ele><time>2026-04-24T10:28:07.964Z</time></trkpt><trkpt lat="43.706694" lon="12.6424945"><ele>224.0</ele><time>2026-04-24T10:28:08.964Z</time></trkpt><trkpt lat="43.7068448" lon="12.6422787"><ele>228.0</ele><time>2026-04-24T10:28:09.965Z</time></trkpt><trkpt lat="43.7070019" lon="12.6420709"><ele>232.0</ele><time>2026-04-24T10:28:10.964Z</time></trkpt><trkpt lat="43.7071616" lon="12.6418767"><ele>236.0</ele><time>2026-04-24T10:28:11.964Z</time></trkpt><trkpt lat="43.7073276" lon="12.641691"><ele>236.66666666666669</ele><time>2026-04-24T10:28:12.964Z</time></trkpt><trkpt lat="43.7074957" lon="12.6415199"><ele>237.33333333333331</ele><time>2026-04-24T10:28:13.964Z</time></trkpt><trkpt lat="43.707656" lon="12.6413687"><ele>238.0</ele><time>2026-04-24T10:28:14.964Z</time></trkpt><trkpt lat="43.707812" lon="12.6412337"><ele>248.33333333333331</ele><time>2026-04-24T10:28:15.965Z</time></trkpt><trkpt lat="43.7079619" lon="12.6411112"><ele>258.6666666666667</ele><time>2026-04-24T10:28:16.964Z</time></trkpt><trkpt lat="43.7081077" lon="12.6409981"><ele>269.0</ele><time>2026-04-24T10:28:17.964Z</time></trkpt><trkpt lat="43.7082463" lon="12.6408978"><ele>269.0</ele><time>2026-04-24T10:28:18.964Z</time></trkpt><trkpt lat="43.7083805" lon="12.6407923"><ele>269.0</ele><time>2026-04-24T10:28:19.964Z</time></trkpt><trkpt lat="43.7085172" lon="12.6406944"><ele>269.0</ele><time>2026-04-24T10:28:20.965Z</time></trkpt><trkpt lat="43.7086521" lon="12.6405952"><ele>300.0</ele><time>2026-04-24T10:28:21.964Z</time></trkpt><trkpt lat="43.7160314" lon="12.640746"><ele>297.6666666666667</ele><time>2026-04-24T10:29:05.963Z</time></trkpt><trkpt lat="43.7161622" lon="12.6406886"><ele>295.33333333333337</ele><time>2026-04-24T10:29:06.965Z</time></trkpt><trkpt lat="43.7163226" lon="12.6407197"><ele>293.0</ele><time>2026-04-24T10:29:07.963Z</time></trkpt><trkpt lat="43.7164829" lon="12.6407463"><ele>293.0</ele><time>2026-04-24T10:29:08.963Z</time></trkpt><trkpt lat="43.7166403" lon="12.6407759"><ele>293.0</ele><time>2026-04-24T10:29:09.963Z</time></trkpt><trkpt lat="43.7167878" lon="12.6408105"><ele>293.0</ele><time>2026-04-24T10:29:10.964Z</time></trkpt><trkpt lat="43.7169214" lon="12.6408448"><ele>293.0</ele><time>2026-04-24T10:29:11.963Z</time></trkpt><trkpt lat="43.7170441" lon="12.640881"><ele>295.0</ele><time>2026-04-24T10:29:12.963Z</time></trkpt><trkpt lat="43.7171482" lon="12.6409183"><ele>297.0</ele><time>2026-04-24T10:29:13.963Z</time></trkpt><trkpt lat="43.7172425" lon="12.640962"><ele>299.0</ele><time>2026-04-24T10:29:14.964Z</time></trkpt><trkpt lat="43.7173224" lon="12.6410213"><ele>301.0</ele><time>2026-04-24T10:29:15.964Z</time></trkpt><trkpt lat="43.7173876" lon="12.6411091"><ele>303.0</ele><time>2026-04-24T10:29:16.963Z</time></trkpt><trkpt lat="43.7174506" lon="12.6411995"><ele>304.0</ele><time>2026-04-24T10:29:17.964Z</time></trkpt><trkpt lat="43.7175271" lon="12.6412446"><ele>305.0</ele><time>2026-04-24T10:29:18.963Z</time></trkpt><trkpt lat="43.7176073" lon="12.6412448"><ele>306.0</ele><time>2026-04-24T10:29:19.963Z</time></trkpt><trkpt lat="43.7176817" lon="12.6411895"><ele>307.0</ele><time>2026-04-24T10:29:20.964Z</time></trkpt><trkpt lat="43.7177518" lon="12.6410782"><ele>308.0</ele><time>2026-04-24T10:29:21.963Z</time></trkpt><trkpt lat="43.7178294" lon="12.640971"><ele>310.5</ele><time>2026-04-24T10:29:22.963Z</time></trkpt><trkpt lat="43.717937" lon="12.6408969"><ele>313.0</ele><time>2026-04-24T10:29:23.963Z</time></trkpt><trkpt lat="43.7180521" lon="12.6408209"><ele>315.5</ele><time>2026-04-24T10:29:24.963Z</time></trkpt><trkpt lat="43.718166" lon="12.6407518"><ele>318.0</ele><time>2026-04-24T10:29:25.964Z</time></trkpt><trkpt lat="43.7182883" lon="12.6406711"><ele>318.0</ele><time>2026-04-24T10:29:26.963Z</time></trkpt><trkpt lat="43.7184163" lon="12.6405871"><ele>318.0</ele><time>2026-04-24T10:29:27.963Z</time></trkpt><trkpt lat="43.718551" lon="12.6405345"><ele>318.0</ele><time>2026-04-24T10:29:28.963Z</time></trkpt><trkpt lat="43.7187003" lon="12.6405086"><ele>318.0</ele><time>2026-04-24T10:29:29.963Z</time></trkpt><trkpt lat="43.7188566" lon="12.6404896"><ele>320.3333333333333</ele><time>2026-04-24T10:29:30.963Z</time></trkpt><trkpt lat="43.7190209" lon="12.6404726"><ele>322.66666666666663</ele><time>2026-04-24T10:29:31.963Z</time></trkpt><trkpt lat="43.7191923" lon="12.6404595"><ele>325.0</ele><time>2026-04-24T10:29:32.963Z</time></trkpt><trkpt lat="43.7193734" lon="12.6404653"><ele>324.66666666666663</ele><time>2026-04-24T10:29:33.964Z</time></trkpt><trkpt lat="43.7195609" lon="12.6405219"><ele>324.3333333333333</ele><time>2026-04-24T10:29:34.963Z</time></trkpt><trkpt lat="43.719748" lon="12.6406344"><ele>324.0</ele><time>2026-04-24T10:29:35.963Z</time></trkpt><trkpt lat="43.7199186" lon="12.6407876"><ele>324.0</ele><time>2026-04-24T10:29:36.963Z</time></trkpt><trkpt lat="43.7200616" lon="12.6409567"><ele>324.0</ele><time>2026-04-24T10:29:37.963Z</time></trkpt><trkpt lat="43.7201794" lon="12.6411398"><ele>324.0</ele><time>2026-04-24T10:29:38.964Z</time></trkpt><trkpt lat="43.7202581" lon="12.6413533"><ele>324.0</ele><time>2026-04-24T10:29:39.963Z</time></trkpt><trkpt lat="43.7203109" lon="12.6415692"><ele>324.0</ele><time>2026-04-24T10:29:40.964Z</time></trkpt><trkpt lat="43.7203766" lon="12.6417721"><ele>324.0</ele><time>2026-04-24T10:29:41.964Z</time></trkpt><trkpt lat="43.720468" lon="12.6419657"><ele>324.0</ele><time>2026-04-24T10:29:42.964Z</time></trkpt><trkpt lat="43.7205783" lon="12.6421457"><ele>324.0</ele><time>2026-04-24T10:29:43.963Z</time></trkpt><trkpt lat="43.7206981" lon="12.6423224"><ele>324.0</ele><time>2026-04-24T10:29:44.963Z</time></trkpt><trkpt lat="43.7208268" lon="12.6424926"><ele>324.0</ele><time>2026-04-24T10:29:45.963Z</time></trkpt><trkpt lat="43.7209687" lon="12.6426445"><ele>324.0</ele><time>2026-04-24T10:29:46.964Z</time></trkpt><trkpt lat="43.7211233" lon="12.6427747"><ele>324.0</ele><time>2026-04-24T10:29:47.963Z</time></trkpt><trkpt lat="43.7212763" lon="12.6428914"><ele>326.3333333333333</ele><time>2026-04-24T10:29:48.964Z</time></trkpt><trkpt lat="43.7214126" lon="12.6430274"><ele>328.66666666666663</ele><time>2026-04-24T10:29:49.964Z</time></trkpt><trkpt lat="43.7215226" lon="12.6432071"><ele>331.0</ele><time>2026-04-24T10:29:50.963Z</time></trkpt><trkpt lat="43.7216206" lon="12.6434063"><ele>331.0</ele><time>2026-04-24T10:29:51.963Z</time></trkpt><trkpt lat="43.7217327" lon="12.6435896"><ele>331.0</ele><time>2026-04-24T10:29:52.963Z</time></trkpt><trkpt lat="43.721862" lon="12.6437393"><ele>331.0</ele><time>2026-04-24T10:29:53.964Z</time></trkpt><trkpt lat="43.7220109" lon="12.6438542"><ele>334.3333333333333</ele><time>2026-04-24T10:29:54.963Z</time></trkpt><trkpt lat="43.7221646" lon="12.643964"><ele>337.6666666666667</ele><time>2026-04-24T10:29:55.963Z</time></trkpt><trkpt lat="43.7223072" lon="12.6440983"><ele>341.0</ele><time>2026-04-24T10:29:56.963Z</time></trkpt><trkpt lat="43.7224394" lon="12.6442491"><ele>341.0</ele><time>2026-04-24T10:29:57.964Z</time></trkpt><trkpt lat="43.7225687" lon="12.6444086"><ele>341.0</ele><time>2026-04-24T10:29:58.963Z</time></trkpt><trkpt lat="43.7226972" lon="12.64457"><ele>341.0</ele><time>2026-04-24T10:29:59.963Z</time></trkpt><trkpt lat="43.7228292" lon="12.6447282"><ele>342.0</ele><time>2026-04-24T10:30:00.963Z</time></trkpt><trkpt lat="43.7229657" lon="12.6448781"><ele>343.0</ele><time>2026-04-24T10:30:01.963Z</time></trkpt><trkpt lat="43.7231046" lon="12.6450241"><ele>344.0</ele><time>2026-04-24T10:30:02.963Z</time></trkpt><trkpt lat="43.7232272" lon="12.6451728"><ele>347.6666666666667</ele><time>2026-04-24T10:30:03.963Z</time></trkpt><trkpt lat="43.7233313" lon="12.6453292"><ele>351.3333333333333</ele><time>2026-04-24T10:30:04.963Z</time></trkpt><trkpt lat="43.7234163" lon="12.6455084"><ele>355.0</ele><time>2026-04-24T10:30:05.963Z</time></trkpt><trkpt lat="43.7234888" lon="12.6456969"><ele>355.0</ele><time>2026-04-24T10:30:06.963Z</time></trkpt><trkpt lat="43.7235487" lon="12.6458756"><ele>355.0</ele><time>2026-04-24T10:30:07.963Z</time></trkpt><trkpt lat="43.7236047" lon="12.646044"><ele>355.0</ele><time>2026-04-24T10:30:08.963Z</time></trkpt><trkpt lat="43.7236708" lon="12.6461976"><ele>355.0</ele><time>2026-04-24T10:30:09.964Z</time></trkpt><trkpt lat="43.7237664" lon="12.6463275"><ele>356.25</ele><time>2026-04-24T10:30:10.963Z</time></trkpt><trkpt lat="43.723883" lon="12.6464276"><ele>357.5</ele><time>2026-04-24T10:30:11.963Z</time></trkpt><trkpt lat="43.7240166" lon="12.6464881"><ele>358.75</ele><time>2026-04-24T10:30:12.963Z</time></trkpt><trkpt lat="43.7241599" lon="12.6465187"><ele>360.0</ele><time>2026-04-24T10:30:13.963Z</time></trkpt><trkpt lat="43.7243036" lon="12.6465278"><ele>361.75</ele><time>2026-04-24T10:30:14.964Z</time></trkpt><trkpt lat="43.7244414" lon="12.6465115"><ele>363.5</ele><time>2026-04-24T10:30:15.963Z</time></trkpt><trkpt lat="43.7245622" lon="12.6464456"><ele>365.25</ele><time>2026-04-24T10:30:16.963Z</time></trkpt><trkpt lat="43.724666" lon="12.6463321"><ele>367.0</ele><time>2026-04-24T10:30:17.963Z</time></trkpt><trkpt lat="43.7247463" lon="12.6461839"><ele>366.75</ele><time>2026-04-24T10:30:18.964Z</time></trkpt><trkpt lat="43.7248067" lon="12.646025"><ele>366.5</ele><time>2026-04-24T10:30:19.963Z</time></trkpt><trkpt lat="43.7248706" lon="12.6458666"><ele>366.25</ele><time>2026-04-24T10:30:20.963Z</time></trkpt><trkpt lat="43.7249294" lon="12.6457208"><ele>366.0</ele><time>2026-04-24T10:30:21.963Z</time></trkpt><trkpt lat="43.7249943" lon="12.6455806"><ele>366.0</ele><time>2026-04-24T10:30:22.964Z</time></trkpt><trkpt lat="43.725063" lon="12.645452"><ele>366.0</ele><time>2026-04-24T10:30:23.964Z</time></trkpt><trkpt lat="43.7251343" lon="12.6453369"><ele>366.0</ele><time>2026-04-24T10:30:24.963Z</time></trkpt><trkpt lat="43.7252075" lon="12.6452353"><ele>366.0</ele><time>2026-04-24T10:30:25.963Z</time></trkpt><trkpt lat="43.7252757" lon="12.645144"><ele>366.0</ele><time>2026-04-24T10:30:26.964Z</time></trkpt><trkpt lat="43.7253388" lon="12.6450591"><ele>367.5</ele><time>2026-04-24T10:30:27.963Z</time></trkpt><trkpt lat="43.7253947" lon="12.6449724"><ele>369.0</ele><time>2026-04-24T10:30:28.963Z</time></trkpt><trkpt lat="43.7254439" lon="12.6448776"><ele>370.5</ele><time>2026-04-24T10:30:29.964Z</time></trkpt><trkpt lat="43.7254821" lon="12.6447771"><ele>372.0</ele><time>2026-04-24T10:30:30.963Z</time></trkpt><trkpt lat="43.7255061" lon="12.6446731"><ele>373.5</ele><time>2026-04-24T10:30:31.963Z</time></trkpt><trkpt lat="43.7255207" lon="12.644559"><ele>375.0</ele><time>2026-04-24T10:30:32.963Z</time></trkpt><trkpt lat="43.7255178" lon="12.6444448"><ele>375.3333333333333</ele><time>2026-04-24T10:30:33.963Z</time></trkpt><trkpt lat="43.7254978" lon="12.6443409"><ele>375.6666666666667</ele><time>2026-04-24T10:30:34.963Z</time></trkpt><trkpt lat="43.7254635" lon="12.6442441"><ele>376.0</ele><time>2026-04-24T10:30:35.963Z</time></trkpt><trkpt lat="43.7254177" lon="12.6441483"><ele>376.33333333333337</ele><time>2026-04-24T10:30:36.963Z</time></trkpt><trkpt lat="43.7253622" lon="12.6440567"><ele>376.6666666666667</ele><time>2026-04-24T10:30:37.963Z</time></trkpt><trkpt lat="43.7253026" lon="12.6439541"><ele>377.0</ele><time>2026-04-24T10:30:38.963Z</time></trkpt><trkpt lat="43.7252423" lon="12.6438504"><ele>376.40000000000003</ele><time>2026-04-24T10:30:39.963Z</time></trkpt><trkpt lat="43.7251832" lon="12.6437471"><ele>375.8</ele><time>2026-04-24T10:30:40.964Z</time></trkpt><trkpt lat="43.7251217" lon="12.6436393"><ele>375.2</ele><time>2026-04-24T10:30:41.963Z</time></trkpt><trkpt lat="43.7250649" lon="12.643527"><ele>374.6</ele><time>2026-04-24T10:30:42.964Z</time></trkpt><trkpt lat="43.7250169" lon="12.643402"><ele>374.0</ele><time>2026-04-24T10:30:43.963Z</time></trkpt><trkpt lat="43.7249854" lon="12.6432741"><ele>374.0</ele><time>2026-04-24T10:30:44.963Z</time></trkpt><trkpt lat="43.7249688" lon="12.6431465"><ele>374.0</ele><time>2026-04-24T10:30:45.963Z</time></trkpt><trkpt lat="43.7249689" lon="12.6430266"><ele>374.0</ele><time>2026-04-24T10:30:46.964Z</time></trkpt><trkpt lat="43.7249923" lon="12.6429052"><ele>374.0</ele><time>2026-04-24T10:30:47.963Z</time></trkpt><trkpt lat="43.725033" lon="12.6427881"><ele>374.0</ele><time>2026-04-24T10:30:48.963Z</time></trkpt><trkpt lat="43.7250803" lon="12.6426714"><ele>374.33333333333337</ele><time>2026-04-24T10:30:49.964Z</time></trkpt><trkpt lat="43.7251303" lon="12.6425517"><ele>374.6666666666667</ele><time>2026-04-24T10:30:50.964Z</time></trkpt><trkpt lat="43.7251764" lon="12.642435"><ele>375.0</ele><time>2026-04-24T10:30:51.963Z</time></trkpt><trkpt lat="43.7252217" lon="12.6423304"><ele>375.3333333333333</ele><time>2026-04-24T10:30:52.963Z</time></trkpt><trkpt lat="43.7252632" lon="12.6422378"><ele>375.66666666666663</ele><time>2026-04-24T10:30:53.963Z</time></trkpt><trkpt lat="43.7253031" lon="12.6421536"><ele>376.0</ele><time>2026-04-24T10:30:54.963Z</time></trkpt><trkpt lat="43.7253389" lon="12.6420751"><ele>377.4</ele><time>2026-04-24T10:30:55.963Z</time></trkpt><trkpt lat="43.7253702" lon="12.6419989"><ele>378.8</ele><time>2026-04-24T10:30:56.964Z</time></trkpt><trkpt lat="43.7254214" lon="12.6418718"><ele>380.2</ele><time>2026-04-24T10:30:58.964Z</time></trkpt><trkpt lat="43.7254637" lon="12.6417603"><ele>381.59999999999997</ele><time>2026-04-24T10:31:00.964Z</time></trkpt><trkpt lat="43.7255219" lon="12.6416504"><ele>383.0</ele><time>2026-04-24T10:31:02.963Z</time></trkpt><trkpt lat="43.725594" lon="12.6415184"><ele>383.0</ele><time>2026-04-24T10:31:04.964Z</time></trkpt><trkpt lat="43.7256674" lon="12.6414607"><ele>383.0</ele><time>2026-04-24T10:31:06.963Z</time></trkpt><trkpt lat="43.7257465" lon="12.6414532"><ele>383.0</ele><time>2026-04-24T10:31:09.963Z</time></trkpt><trkpt lat="43.7258321" lon="12.6414581"><ele>383.0</ele><time>2026-04-24T10:31:10.963Z</time></trkpt><trkpt lat="43.7258993" lon="12.6414162"><ele>383.0</ele><time>2026-04-24T10:31:11.963Z</time></trkpt><trkpt lat="43.7259617" lon="12.6413404"><ele>383.0</ele><time>2026-04-24T10:31:12.963Z</time></trkpt><trkpt lat="43.726002" lon="12.6412348"><ele>382.4</ele><time>2026-04-24T10:31:13.963Z</time></trkpt><trkpt lat="43.7260176" lon="12.6411196"><ele>381.79999999999995</ele><time>2026-04-24T10:31:14.963Z</time></trkpt><trkpt lat="43.726018" lon="12.640996"><ele>381.2</ele><time>2026-04-24T10:31:15.963Z</time></trkpt><trkpt lat="43.7260347" lon="12.6408711"><ele>380.6</ele><time>2026-04-24T10:31:16.964Z</time></trkpt><trkpt lat="43.7260742" lon="12.6407677"><ele>380.0</ele><time>2026-04-24T10:31:17.963Z</time></trkpt><trkpt lat="43.7261388" lon="12.6406614"><ele>380.2</ele><time>2026-04-24T10:31:18.963Z</time></trkpt><trkpt lat="43.7262119" lon="12.6405566"><ele>380.4</ele><time>2026-04-24T10:31:19.963Z</time></trkpt><trkpt lat="43.7262859" lon="12.6404608"><ele>380.6</ele><time>2026-04-24T10:31:20.963Z</time></trkpt><trkpt lat="43.726358" lon="12.640382"><ele>380.8</ele><time>2026-04-24T10:31:21.964Z</time></trkpt><trkpt lat="43.7264234" lon="12.6403109"><ele>381.0</ele><time>2026-04-24T10:31:22.963Z</time></trkpt><trkpt lat="43.7264812" lon="12.6402437"><ele>381.0</ele><time>2026-04-24T10:31:23.963Z</time></trkpt><trkpt lat="43.7265288" lon="12.6401723"><ele>381.0</ele><time>2026-04-24T10:31:24.963Z</time></trkpt><trkpt lat="43.7265662" lon="12.640095"><ele>381.0</ele><time>2026-04-24T10:31:25.963Z</time></trkpt><trkpt lat="43.7265965" lon="12.6400124"><ele>381.0</ele><time>2026-04-24T10:31:26.963Z</time></trkpt><trkpt lat="43.7266245" lon="12.6399231"><ele>381.0</ele><time>2026-04-24T10:31:27.963Z</time></trkpt><trkpt lat="43.7266519" lon="12.6398277"><ele>381.0</ele><time>2026-04-24T10:31:28.963Z</time></trkpt><trkpt lat="43.7266765" lon="12.6397352"><ele>381.0</ele><time>2026-04-24T10:31:29.963Z</time></trkpt><trkpt lat="43.726685" lon="12.6396435"><ele>381.0</ele><time>2026-04-24T10:31:30.963Z</time></trkpt><trkpt lat="43.7266287" lon="12.6395003"><ele>381.0</ele><time>2026-04-24T10:31:32.963Z</time></trkpt><trkpt lat="43.7264972" lon="12.6394858"><ele>381.0</ele><time>2026-04-24T10:31:34.963Z</time></trkpt><trkpt lat="43.7264002" lon="12.6395225"><ele>381.0</ele><time>2026-04-24T10:31:35.963Z</time></trkpt><trkpt lat="43.726287" lon="12.6395786"><ele>381.0</ele><time>2026-04-24T10:31:36.963Z</time></trkpt><trkpt lat="43.7261619" lon="12.6396446"><ele>381.0</ele><time>2026-04-24T10:31:37.964Z</time></trkpt><trkpt lat="43.7260364" lon="12.6397017"><ele>381.0</ele><time>2026-04-24T10:31:38.964Z</time></trkpt><trkpt lat="43.725914" lon="12.6397548"><ele>381.0</ele><time>2026-04-24T10:31:39.963Z</time></trkpt><trkpt lat="43.7257942" lon="12.6397988"><ele>383.25</ele><time>2026-04-24T10:31:40.963Z</time></trkpt><trkpt lat="43.7256713" lon="12.6398126"><ele>385.5</ele><time>2026-04-24T10:31:41.964Z</time></trkpt><trkpt lat="43.7255458" lon="12.6397928"><ele>387.75</ele><time>2026-04-24T10:31:42.964Z</time></trkpt><trkpt lat="43.7254179" lon="12.639736"><ele>390.0</ele><time>2026-04-24T10:31:43.963Z</time></trkpt><trkpt lat="43.7252806" lon="12.6396415"><ele>389.0</ele><time>2026-04-24T10:31:44.964Z</time></trkpt><trkpt lat="43.725128" lon="12.6395368"><ele>388.0</ele><time>2026-04-24T10:31:45.964Z</time></trkpt><trkpt lat="43.7249629" lon="12.6394459"><ele>387.0</ele><time>2026-04-24T10:31:46.963Z</time></trkpt><trkpt lat="43.7247917" lon="12.6393781"><ele>395.33333333333337</ele><time>2026-04-24T10:31:47.964Z</time></trkpt><trkpt lat="43.7246032" lon="12.639344"><ele>403.6666666666667</ele><time>2026-04-24T10:31:48.964Z</time></trkpt><trkpt lat="43.7244164" lon="12.6392996"><ele>412.0</ele><time>2026-04-24T10:31:49.964Z</time></trkpt><trkpt lat="43.724231" lon="12.6392567"><ele>412.0</ele><time>2026-04-24T10:31:50.964Z</time></trkpt><trkpt lat="43.7240454" lon="12.6392192"><ele>412.0</ele><time>2026-04-24T10:31:51.963Z</time></trkpt><trkpt lat="43.7238597" lon="12.6391844"><ele>412.0</ele><time>2026-04-24T10:31:52.964Z</time></trkpt><trkpt lat="43.7236768" lon="12.6391618"><ele>411.6666666666667</ele><time>2026-04-24T10:31:53.964Z</time></trkpt><trkpt lat="43.7235028" lon="12.6391723"><ele>411.33333333333337</ele><time>2026-04-24T10:31:54.964Z</time></trkpt><trkpt lat="43.7233465" lon="12.639215"><ele>411.0</ele><time>2026-04-24T10:31:55.963Z</time></trkpt><trkpt lat="43.7232025" lon="12.639247"><ele>411.0</ele><time>2026-04-24T10:31:56.963Z</time></trkpt><trkpt lat="43.7230688" lon="12.6392343"><ele>411.0</ele><time>2026-04-24T10:31:57.963Z</time></trkpt><trkpt lat="43.7229475" lon="12.6391855"><ele>411.0</ele><time>2026-04-24T10:31:58.964Z</time></trkpt><trkpt lat="43.7228381" lon="12.6391019"><ele>411.0</ele><time>2026-04-24T10:31:59.963Z</time></trkpt><trkpt lat="43.7227331" lon="12.63901"><ele>409.0</ele><time>2026-04-24T10:32:00.963Z</time></trkpt><trkpt lat="43.7226251" lon="12.6389166"><ele>407.0</ele><time>2026-04-24T10:32:01.963Z</time></trkpt><trkpt lat="43.7225177" lon="12.6388209"><ele>405.0</ele><time>2026-04-24T10:32:02.963Z</time></trkpt><trkpt lat="43.7224127" lon="12.638734"><ele>403.0</ele><time>2026-04-24T10:32:03.963Z</time></trkpt><trkpt lat="43.7223091" lon="12.6386459"><ele>410.5</ele><time>2026-04-24T10:32:04.963Z</time></trkpt><trkpt lat="43.7222087" lon="12.6385696"><ele>418.0</ele><time>2026-04-24T10:32:05.964Z</time></trkpt><trkpt lat="43.7221051" lon="12.6385055"><ele>425.5</ele><time>2026-04-24T10:32:06.963Z</time></trkpt><trkpt lat="43.7219999" lon="12.6384393"><ele>433.0</ele><time>2026-04-24T10:32:07.963Z</time></trkpt><trkpt lat="43.7219003" lon="12.6383625"><ele>428.5</ele><time>2026-04-24T10:32:08.963Z</time></trkpt><trkpt lat="43.7218007" lon="12.6382794"><ele>424.0</ele><time>2026-04-24T10:32:09.963Z</time></trkpt><trkpt lat="43.7216993" lon="12.6381862"><ele>419.5</ele><time>2026-04-24T10:32:10.963Z</time></trkpt><trkpt lat="43.7215887" lon="12.6380885"><ele>415.0</ele><time>2026-04-24T10:32:11.964Z</time></trkpt><trkpt lat="43.721477" lon="12.6379875"><ele>415.0</ele><time>2026-04-24T10:32:12.963Z</time></trkpt><trkpt lat="43.7213679" lon="12.6378709"><ele>415.0</ele><time>2026-04-24T10:32:13.964Z</time></trkpt><trkpt lat="43.721273" lon="12.6377314"><ele>415.0</ele><time>2026-04-24T10:32:14.964Z</time></trkpt><trkpt lat="43.7211913" lon="12.6375743"><ele>415.0</ele><time>2026-04-24T10:32:15.964Z</time></trkpt><trkpt lat="43.7211109" lon="12.6374159"><ele>414.75</ele><time>2026-04-24T10:32:16.963Z</time></trkpt><trkpt lat="43.7210309" lon="12.6372617"><ele>414.5</ele><time>2026-04-24T10:32:17.963Z</time></trkpt><trkpt lat="43.7209583" lon="12.6371152"><ele>414.25</ele><time>2026-04-24T10:32:18.964Z</time></trkpt><trkpt lat="43.7208881" lon="12.6369791"><ele>414.0</ele><time>2026-04-24T10:32:19.963Z</time></trkpt><trkpt lat="43.7208267" lon="12.6368617"><ele>414.0</ele><time>2026-04-24T10:32:20.963Z</time></trkpt><trkpt lat="43.7207783" lon="12.6367623"><ele>414.0</ele><time>2026-04-24T10:32:21.963Z</time></trkpt><trkpt lat="43.720739" lon="12.6366636"><ele>414.0</ele><time>2026-04-24T10:32:22.963Z</time></trkpt><trkpt lat="43.7207158" lon="12.6365602"><ele>414.0</ele><time>2026-04-24T10:32:23.964Z</time></trkpt><trkpt lat="43.7207192" lon="12.6364556"><ele>414.0</ele><time>2026-04-24T10:32:24.963Z</time></trkpt><trkpt lat="43.7207508" lon="12.6363568"><ele>414.0</ele><time>2026-04-24T10:32:25.964Z</time></trkpt><trkpt lat="43.7208075" lon="12.6362812"><ele>414.0</ele><time>2026-04-24T10:32:26.965Z</time></trkpt><trkpt lat="43.7208804" lon="12.6362211"><ele>414.0</ele><time>2026-04-24T10:32:27.963Z</time></trkpt><trkpt lat="43.7209567" lon="12.6361698"><ele>414.0</ele><time>2026-04-24T10:32:28.963Z</time></trkpt><trkpt lat="43.7210456" lon="12.6360919"><ele>414.0</ele><time>2026-04-24T10:32:29.964Z</time></trkpt><trkpt lat="43.7211511" lon="12.6359938"><ele>414.0</ele><time>2026-04-24T10:32:30.964Z</time></trkpt><trkpt lat="43.7212739" lon="12.6358983"><ele>417.33333333333337</ele><time>2026-04-24T10:32:31.964Z</time></trkpt><trkpt lat="43.7214084" lon="12.6358005"><ele>420.6666666666667</ele><time>2026-04-24T10:32:32.963Z</time></trkpt><trkpt lat="43.72155" lon="12.6356998"><ele>424.0</ele><time>2026-04-24T10:32:33.963Z</time></trkpt><trkpt lat="43.721691" lon="12.6356087"><ele>424.0</ele><time>2026-04-24T10:32:34.964Z</time></trkpt><trkpt lat="43.7218259" lon="12.6355472"><ele>424.0</ele><time>2026-04-24T10:32:35.964Z</time></trkpt><trkpt lat="43.721959" lon="12.635527"><ele>424.0</ele><time>2026-04-24T10:32:36.963Z</time></trkpt><trkpt lat="43.7220917" lon="12.6355177"><ele>424.0</ele><time>2026-04-24T10:32:37.963Z</time></trkpt><trkpt lat="43.7222211" lon="12.6354883"><ele>427.5</ele><time>2026-04-24T10:32:38.964Z</time></trkpt><trkpt lat="43.7223474" lon="12.6354265"><ele>431.0</ele><time>2026-04-24T10:32:39.963Z</time></trkpt><trkpt lat="43.7224676" lon="12.635358"><ele>434.5</ele><time>2026-04-24T10:32:40.963Z</time></trkpt><trkpt lat="43.7225835" lon="12.6352935"><ele>438.0</ele><time>2026-04-24T10:32:41.963Z</time></trkpt><trkpt lat="43.7226971" lon="12.6352384"><ele>432.4</ele><time>2026-04-24T10:32:42.963Z</time></trkpt><trkpt lat="43.7228068" lon="12.6351907"><ele>426.79999999999995</ele><time>2026-04-24T10:32:43.964Z</time></trkpt><trkpt lat="43.7229054" lon="12.635155"><ele>421.2</ele><time>2026-04-24T10:32:44.962Z</time></trkpt><trkpt lat="43.72299" lon="12.6351359"><ele>415.6</ele><time>2026-04-24T10:32:45.963Z</time></trkpt><trkpt lat="43.723067" lon="12.6351316"><ele>410.0</ele><time>2026-04-24T10:32:46.962Z</time></trkpt><trkpt lat="43.7231776" lon="12.6351502"><ele>410.0</ele><time>2026-04-24T10:32:48.962Z</time></trkpt><trkpt lat="43.723264" lon="12.6351763"><ele>410.0</ele><time>2026-04-24T10:32:50.962Z</time></trkpt><trkpt lat="43.7233426" lon="12.6351945"><ele>410.0</ele><time>2026-04-24T10:32:52.963Z</time></trkpt><trkpt lat="43.7234297" lon="12.6352347"><ele>410.0</ele><time>2026-04-24T10:32:55.962Z</time></trkpt><trkpt lat="43.7235126" lon="12.6352607"><ele>410.0</ele><time>2026-04-24T10:32:57.963Z</time></trkpt><trkpt lat="43.7236223" lon="12.6352738"><ele>410.8333333333333</ele><time>2026-04-24T10:32:59.962Z</time></trkpt><trkpt lat="43.7237322" lon="12.6352753"><ele>411.66666666666663</ele><time>2026-04-24T10:33:01.962Z</time></trkpt><trkpt lat="43.7238266" lon="12.6352726"><ele>412.5</ele><time>2026-04-24T10:33:03.962Z</time></trkpt><trkpt lat="43.7239131" lon="12.6352675"><ele>413.33333333333337</ele><time>2026-04-24T10:33:05.962Z</time></trkpt><trkpt lat="43.7239755" lon="12.635211"><ele>414.1666666666667</ele><time>2026-04-24T10:33:08.963Z</time></trkpt><trkpt lat="43.7240007" lon="12.6351265"><ele>415.0</ele><time>2026-04-24T10:33:10.963Z</time></trkpt><trkpt lat="43.724039" lon="12.6349785"><ele>415.0</ele><time>2026-04-24T10:33:12.963Z</time></trkpt><trkpt lat="43.7240601" lon="12.6348941"><ele>415.0</ele><time>2026-04-24T10:33:13.962Z</time></trkpt><trkpt lat="43.724082" lon="12.6348091"><ele>415.0</ele><time>2026-04-24T10:33:14.962Z</time></trkpt><trkpt lat="43.7241097" lon="12.6346891"><ele>415.0</ele><time>2026-04-24T10:33:16.963Z</time></trkpt><trkpt lat="43.7241241" lon="12.6345861"><ele>415.0</ele><time>2026-04-24T10:33:19.962Z</time></trkpt><trkpt lat="43.7240701" lon="12.6345268"><ele>415.0</ele><time>2026-04-24T10:33:23.962Z</time></trkpt></trkseg><trkseg><trkpt lat="43.7240643" lon="12.6344398"><ele>417.0</ele><time>2026-04-24T11:34:22.949Z</time></trkpt><trkpt lat="43.7240485" lon="12.6343451"><ele>417.0</ele><time>2026-04-24T11:34:25.949Z</time></trkpt><trkpt lat="43.7240387" lon="12.6342582"><ele>417.0</ele><time>2026-04-24T11:34:28.948Z</time></trkpt><trkpt lat="43.724007" lon="12.6341688"><ele>417.0</ele><time>2026-04-24T11:34:30.949Z</time></trkpt><trkpt lat="43.7239358" lon="12.6340993"><ele>417.0</ele><time>2026-04-24T11:34:32.948Z</time></trkpt><trkpt lat="43.7238538" lon="12.6340611"><ele>417.0</ele><time>2026-04-24T11:34:34.948Z</time></trkpt><trkpt lat="43.7237621" lon="12.6340178"><ele>417.0</ele><time>2026-04-24T11:34:36.948Z</time></trkpt><trkpt lat="43.7236692" lon="12.6339517"><ele>417.0</ele><time>2026-04-24T11:34:38.949Z</time></trkpt><trkpt lat="43.7235622" lon="12.6338365"><ele>417.0</ele><time>2026-04-24T11:34:40.949Z</time></trkpt><trkpt lat="43.723514" lon="12.6337594"><ele>417.0</ele><time>2026-04-24T11:34:41.948Z</time></trkpt><trkpt lat="43.7234593" lon="12.6336681"><ele>417.0</ele><time>2026-04-24T11:34:42.95Z</time></trkpt><trkpt lat="43.7234102" lon="12.6335549"><ele>415.8</ele><time>2026-04-24T11:34:43.949Z</time></trkpt><trkpt lat="43.7233686" lon="12.6334282"><ele>414.6</ele><time>2026-04-24T11:34:44.948Z</time></trkpt><trkpt lat="43.7233366" lon="12.633287"><ele>413.40000000000003</ele><time>2026-04-24T11:34:45.95Z</time></trkpt><trkpt lat="43.7233092" lon="12.6331519"><ele>412.20000000000005</ele><time>2026-04-24T11:34:46.949Z</time></trkpt><trkpt lat="43.7232847" lon="12.6330103"><ele>411.0</ele><time>2026-04-24T11:34:47.948Z</time></trkpt><trkpt lat="43.7232593" lon="12.6328708"><ele>414.0</ele><time>2026-04-24T11:34:48.948Z</time></trkpt><trkpt lat="43.7232279" lon="12.6327447"><ele>417.0</ele><time>2026-04-24T11:34:49.948Z</time></trkpt><trkpt lat="43.7231941" lon="12.6326225"><ele>420.0</ele><time>2026-04-24T11:34:50.95Z</time></trkpt><trkpt lat="43.7231464" lon="12.632514"><ele>423.0</ele><time>2026-04-24T11:34:51.949Z</time></trkpt><trkpt lat="43.7230708" lon="12.6324209"><ele>426.0</ele><time>2026-04-24T11:34:52.948Z</time></trkpt><trkpt lat="43.7229777" lon="12.6323516"><ele>426.0</ele><time>2026-04-24T11:34:53.949Z</time></trkpt><trkpt lat="43.7228627" lon="12.6323188"><ele>426.0</ele><time>2026-04-24T11:34:54.95Z</time></trkpt><trkpt lat="43.7227382" lon="12.6323029"><ele>426.0</ele><time>2026-04-24T11:34:55.95Z</time></trkpt><trkpt lat="43.7226075" lon="12.6322895"><ele>426.0</ele><time>2026-04-24T11:34:56.948Z</time></trkpt><trkpt lat="43.722476" lon="12.6322709"><ele>429.75</ele><time>2026-04-24T11:34:57.949Z</time></trkpt><trkpt lat="43.7223444" lon="12.6322268"><ele>433.5</ele><time>2026-04-24T11:34:58.949Z</time></trkpt><trkpt lat="43.7222193" lon="12.6321537"><ele>437.25</ele><time>2026-04-24T11:34:59.948Z</time></trkpt><trkpt lat="43.7221084" lon="12.6320541"><ele>441.0</ele><time>2026-04-24T11:35:00.949Z</time></trkpt><trkpt lat="43.7220145" lon="12.6319443"><ele>441.0</ele><time>2026-04-24T11:35:01.949Z</time></trkpt><trkpt lat="43.7219367" lon="12.6318164"><ele>441.0</ele><time>2026-04-24T11:35:02.948Z</time></trkpt><trkpt lat="43.7218532" lon="12.6316922"><ele>441.0</ele><time>2026-04-24T11:35:03.949Z</time></trkpt><trkpt lat="43.7217901" lon="12.6315731"><ele>441.0</ele><time>2026-04-24T11:35:04.948Z</time></trkpt><trkpt lat="43.7217298" lon="12.6314534"><ele>438.4</ele><time>2026-04-24T11:35:05.948Z</time></trkpt><trkpt lat="43.7216693" lon="12.6313318"><ele>435.8</ele><time>2026-04-24T11:35:06.948Z</time></trkpt><trkpt lat="43.7216094" lon="12.6312009"><ele>433.19999999999993</ele><time>2026-04-24T11:35:07.948Z</time></trkpt><trkpt lat="43.7215582" lon="12.6310694"><ele>430.59999999999997</ele><time>2026-04-24T11:35:08.948Z</time></trkpt><trkpt lat="43.7215102" lon="12.6309244"><ele>428.0</ele><time>2026-04-24T11:35:09.948Z</time></trkpt><trkpt lat="43.7214744" lon="12.6307803"><ele>428.0</ele><time>2026-04-24T11:35:10.948Z</time></trkpt><trkpt lat="43.7214417" lon="12.6306428"><ele>427.99999999999994</ele><time>2026-04-24T11:35:11.948Z</time></trkpt><trkpt lat="43.7214172" lon="12.6305143"><ele>427.99999999999994</ele><time>2026-04-24T11:35:12.948Z</time></trkpt><trkpt lat="43.7213932" lon="12.630391"><ele>428.0</ele><time>2026-04-24T11:35:13.951Z</time></trkpt><trkpt lat="43.7213703" lon="12.6302775"><ele>428.0</ele><time>2026-04-24T11:35:14.948Z</time></trkpt><trkpt lat="43.7213458" lon="12.6301598"><ele>428.59999999999997</ele><time>2026-04-24T11:35:15.948Z</time></trkpt><trkpt lat="43.7213142" lon="12.6300325"><ele>429.19999999999993</ele><time>2026-04-24T11:35:16.949Z</time></trkpt><trkpt lat="43.7212704" lon="12.6298969"><ele>429.8</ele><time>2026-04-24T11:35:17.948Z</time></trkpt><trkpt lat="43.7212209" lon="12.6297584"><ele>430.4</ele><time>2026-04-24T11:35:18.949Z</time></trkpt><trkpt lat="43.7211726" lon="12.6296148"><ele>431.0</ele><time>2026-04-24T11:35:19.949Z</time></trkpt><trkpt lat="43.7211208" lon="12.6294805"><ele>428.6</ele><time>2026-04-24T11:35:20.95Z</time></trkpt><trkpt lat="43.7210617" lon="12.6293589"><ele>426.20000000000005</ele><time>2026-04-24T11:35:21.949Z</time></trkpt><trkpt lat="43.7209865" lon="12.6292509"><ele>423.79999999999995</ele><time>2026-04-24T11:35:22.948Z</time></trkpt><trkpt lat="43.7208959" lon="12.6291683"><ele>421.4</ele><time>2026-04-24T11:35:23.948Z</time></trkpt><trkpt lat="43.7207922" lon="12.6290873"><ele>419.0</ele><time>2026-04-24T11:35:24.948Z</time></trkpt><trkpt lat="43.7206873" lon="12.6290083"><ele>419.0</ele><time>2026-04-24T11:35:25.948Z</time></trkpt><trkpt lat="43.7205606" lon="12.6289176"><ele>419.0</ele><time>2026-04-24T11:35:26.949Z</time></trkpt><trkpt lat="43.7204272" lon="12.6288087"><ele>419.0</ele><time>2026-04-24T11:35:27.949Z</time></trkpt><trkpt lat="43.7202871" lon="12.6286924"><ele>423.0</ele><time>2026-04-24T11:35:28.948Z</time></trkpt><trkpt lat="43.7201328" lon="12.6285925"><ele>427.0</ele><time>2026-04-24T11:35:29.949Z</time></trkpt><trkpt lat="43.7199785" lon="12.6285105"><ele>431.0</ele><time>2026-04-24T11:35:30.948Z</time></trkpt><trkpt lat="43.7198273" lon="12.6284347"><ele>431.0</ele><time>2026-04-24T11:35:31.95Z</time></trkpt><trkpt lat="43.7196878" lon="12.6283713"><ele>431.0</ele><time>2026-04-24T11:35:32.948Z</time></trkpt><trkpt lat="43.7195633" lon="12.628318"><ele>431.0</ele><time>2026-04-24T11:35:33.949Z</time></trkpt><trkpt lat="43.719438" lon="12.6282885"><ele>431.0</ele><time>2026-04-24T11:35:34.948Z</time></trkpt><trkpt lat="43.7193166" lon="12.6282927"><ele>432.25</ele><time>2026-04-24T11:35:35.948Z</time></trkpt><trkpt lat="43.7191983" lon="12.6283353"><ele>433.5</ele><time>2026-04-24T11:35:36.949Z</time></trkpt><trkpt lat="43.7190789" lon="12.6283908"><ele>434.75</ele><time>2026-04-24T11:35:37.948Z</time></trkpt><trkpt lat="43.7189583" lon="12.628443"><ele>436.0</ele><time>2026-04-24T11:35:38.949Z</time></trkpt><trkpt lat="43.7188261" lon="12.6284622"><ele>436.0</ele><time>2026-04-24T11:35:39.949Z</time></trkpt><trkpt lat="43.7186935" lon="12.6284373"><ele>436.0</ele><time>2026-04-24T11:35:40.949Z</time></trkpt><trkpt lat="43.718571" lon="12.6283924"><ele>436.0</ele><time>2026-04-24T11:35:41.948Z</time></trkpt><trkpt lat="43.7184622" lon="12.6283451"><ele>436.0</ele><time>2026-04-24T11:35:42.949Z</time></trkpt><trkpt lat="43.718356" lon="12.6282841"><ele>435.0</ele><time>2026-04-24T11:35:43.949Z</time></trkpt><trkpt lat="43.7182832" lon="12.6282293"><ele>434.0</ele><time>2026-04-24T11:35:44.948Z</time></trkpt><trkpt lat="43.7181919" lon="12.6281506"><ele>433.0</ele><time>2026-04-24T11:35:45.948Z</time></trkpt><trkpt lat="43.7180953" lon="12.6280642"><ele>432.0</ele><time>2026-04-24T11:35:46.948Z</time></trkpt><trkpt lat="43.7180001" lon="12.6279642"><ele>431.0</ele><time>2026-04-24T11:35:47.948Z</time></trkpt><trkpt lat="43.7179156" lon="12.627832"><ele>429.0</ele><time>2026-04-24T11:35:48.949Z</time></trkpt><trkpt lat="43.7178149" lon="12.6276793"><ele>427.0</ele><time>2026-04-24T11:35:49.949Z</time></trkpt><trkpt lat="43.7177144" lon="12.6275153"><ele>425.0</ele><time>2026-04-24T11:35:50.949Z</time></trkpt><trkpt lat="43.7176154" lon="12.6273145"><ele>425.0</ele><time>2026-04-24T11:35:51.948Z</time></trkpt><trkpt lat="43.717509" lon="12.6271388"><ele>425.0</ele><time>2026-04-24T11:35:52.948Z</time></trkpt><trkpt lat="43.7173979" lon="12.6269856"><ele>425.0</ele><time>2026-04-24T11:35:53.949Z</time></trkpt><trkpt lat="43.7172568" lon="12.626892"><ele>428.66666666666663</ele><time>2026-04-24T11:35:54.948Z</time></trkpt><trkpt lat="43.717129" lon="12.6267906"><ele>432.33333333333337</ele><time>2026-04-24T11:35:55.948Z</time></trkpt><trkpt lat="43.717005" lon="12.6266716"><ele>436.0</ele><time>2026-04-24T11:35:56.949Z</time></trkpt><trkpt lat="43.7168892" lon="12.6265324"><ele>432.0</ele><time>2026-04-24T11:35:57.948Z</time></trkpt><trkpt lat="43.7168088" lon="12.6263416"><ele>428.0</ele><time>2026-04-24T11:35:58.948Z</time></trkpt><trkpt lat="43.71674" lon="12.6261684"><ele>424.0</ele><time>2026-04-24T11:35:59.949Z</time></trkpt><trkpt lat="43.7166725" lon="12.6259929"><ele>420.0</ele><time>2026-04-24T11:36:00.948Z</time></trkpt><trkpt lat="43.7166084" lon="12.6258391"><ele>420.0</ele><time>2026-04-24T11:36:01.948Z</time></trkpt><trkpt lat="43.7165317" lon="12.625701"><ele>420.0</ele><time>2026-04-24T11:36:02.949Z</time></trkpt><trkpt lat="43.7164308" lon="12.6255841"><ele>420.0</ele><time>2026-04-24T11:36:03.948Z</time></trkpt><trkpt lat="43.7163068" lon="12.6254958"><ele>420.0</ele><time>2026-04-24T11:36:04.95Z</time></trkpt><trkpt lat="43.7161752" lon="12.625446"><ele>417.0</ele><time>2026-04-24T11:36:05.949Z</time></trkpt><trkpt lat="43.716033" lon="12.62541"><ele>414.0</ele><time>2026-04-24T11:36:06.949Z</time></trkpt><trkpt lat="43.7158782" lon="12.6253927"><ele>411.0</ele><time>2026-04-24T11:36:07.948Z</time></trkpt><trkpt lat="43.7157268" lon="12.6253816"><ele>411.0</ele><time>2026-04-24T11:36:08.949Z</time></trkpt><trkpt lat="43.7155838" lon="12.6254092"><ele>411.0</ele><time>2026-04-24T11:36:09.949Z</time></trkpt><trkpt lat="43.7154559" lon="12.6254789"><ele>411.0</ele><time>2026-04-24T11:36:10.948Z</time></trkpt><trkpt lat="43.7153388" lon="12.6255387"><ele>411.0</ele><time>2026-04-24T11:36:11.949Z</time></trkpt><trkpt lat="43.7152242" lon="12.625566"><ele>412.0</ele><time>2026-04-24T11:36:12.948Z</time></trkpt><trkpt lat="43.7151068" lon="12.6255473"><ele>413.0</ele><time>2026-04-24T11:36:13.948Z</time></trkpt><trkpt lat="43.714991" lon="12.625476"><ele>414.0</ele><time>2026-04-24T11:36:14.948Z</time></trkpt><trkpt lat="43.7148621" lon="12.6253731"><ele>415.0</ele><time>2026-04-24T11:36:15.949Z</time></trkpt><trkpt lat="43.7147228" lon="12.6252633"><ele>415.6666666666667</ele><time>2026-04-24T11:36:16.949Z</time></trkpt><trkpt lat="43.7145737" lon="12.6251406"><ele>416.33333333333337</ele><time>2026-04-24T11:36:17.949Z</time></trkpt><trkpt lat="43.7144262" lon="12.6250195"><ele>417.0</ele><time>2026-04-24T11:36:18.948Z</time></trkpt><trkpt lat="43.7142838" lon="12.6249016"><ele>417.0</ele><time>2026-04-24T11:36:19.948Z</time></trkpt><trkpt lat="43.7141475" lon="12.6247603"><ele>417.0</ele><time>2026-04-24T11:36:20.948Z</time></trkpt><trkpt lat="43.7140149" lon="12.6246065"><ele>417.0</ele><time>2026-04-24T11:36:21.948Z</time></trkpt><trkpt lat="43.7138846" lon="12.6244385"><ele>417.0</ele><time>2026-04-24T11:36:22.948Z</time></trkpt><trkpt lat="43.7137623" lon="12.6242703"><ele>417.0</ele><time>2026-04-24T11:36:23.948Z</time></trkpt><trkpt lat="43.7136453" lon="12.6241026"><ele>417.0</ele><time>2026-04-24T11:36:24.949Z</time></trkpt><trkpt lat="43.7135355" lon="12.6239419"><ele>417.0</ele><time>2026-04-24T11:36:25.949Z</time></trkpt><trkpt lat="43.7134514" lon="12.6237746"><ele>417.0</ele><time>2026-04-24T11:36:26.948Z</time></trkpt><trkpt lat="43.7134023" lon="12.6235905"><ele>417.0</ele><time>2026-04-24T11:36:27.948Z</time></trkpt><trkpt lat="43.7133945" lon="12.6233939"><ele>417.0</ele><time>2026-04-24T11:36:28.95Z</time></trkpt><trkpt lat="43.7134133" lon="12.6232089"><ele>416.66666666666663</ele><time>2026-04-24T11:36:29.949Z</time></trkpt><trkpt lat="43.7134683" lon="12.623001"><ele>416.3333333333333</ele><time>2026-04-24T11:36:30.948Z</time></trkpt><trkpt lat="43.7135224" lon="12.6227932"><ele>416.0</ele><time>2026-04-24T11:36:31.948Z</time></trkpt><trkpt lat="43.7135934" lon="12.6225761"><ele>420.0</ele><time>2026-04-24T11:36:32.948Z</time></trkpt><trkpt lat="43.713687" lon="12.6223677"><ele>424.0</ele><time>2026-04-24T11:36:33.949Z</time></trkpt><trkpt lat="43.7137855" lon="12.6221599"><ele>428.0</ele><time>2026-04-24T11:36:34.948Z</time></trkpt><trkpt lat="43.7138859" lon="12.6219576"><ele>428.0</ele><time>2026-04-24T11:36:35.948Z</time></trkpt><trkpt lat="43.7139701" lon="12.6217795"><ele>428.0</ele><time>2026-04-24T11:36:36.949Z</time></trkpt><trkpt lat="43.7140444" lon="12.6216122"><ele>428.0</ele><time>2026-04-24T11:36:37.95Z</time></trkpt><trkpt lat="43.7140903" lon="12.6214522"><ele>428.0</ele><time>2026-04-24T11:36:38.948Z</time></trkpt><trkpt lat="43.7140991" lon="12.6213127"><ele>428.0</ele><time>2026-04-24T11:36:39.948Z</time></trkpt><trkpt lat="43.7140526" lon="12.6211844"><ele>428.0</ele><time>2026-04-24T11:36:40.948Z</time></trkpt><trkpt lat="43.7139674" lon="12.6210882"><ele>428.0</ele><time>2026-04-24T11:36:41.948Z</time></trkpt><trkpt lat="43.7138434" lon="12.6210114"><ele>428.0</ele><time>2026-04-24T11:36:42.948Z</time></trkpt><trkpt lat="43.7137093" lon="12.6209375"><ele>428.5</ele><time>2026-04-24T11:36:43.947Z</time></trkpt><trkpt lat="43.713597" lon="12.6208435"><ele>429.0</ele><time>2026-04-24T11:36:44.947Z</time></trkpt><trkpt lat="43.7135097" lon="12.6207127"><ele>429.5</ele><time>2026-04-24T11:36:45.947Z</time></trkpt><trkpt lat="43.713462" lon="12.6205379"><ele>430.0</ele><time>2026-04-24T11:36:46.948Z</time></trkpt><trkpt lat="43.7134244" lon="12.6203429"><ele>430.0</ele><time>2026-04-24T11:36:47.949Z</time></trkpt><trkpt lat="43.7133506" lon="12.6201454"><ele>430.0</ele><time>2026-04-24T11:36:48.948Z</time></trkpt><trkpt lat="43.7132432" lon="12.6199658"><ele>430.0</ele><time>2026-04-24T11:36:49.948Z</time></trkpt><trkpt lat="43.7131161" lon="12.6198104"><ele>430.0</ele><time>2026-04-24T11:36:50.948Z</time></trkpt><trkpt lat="43.7129899" lon="12.6196516"><ele>430.0</ele><time>2026-04-24T11:36:51.948Z</time></trkpt><trkpt lat="43.7128818" lon="12.6194634"><ele>430.0</ele><time>2026-04-24T11:36:52.948Z</time></trkpt><trkpt lat="43.7127983" lon="12.619259"><ele>431.5</ele><time>2026-04-24T11:36:53.949Z</time></trkpt><trkpt lat="43.7127294" lon="12.6190616"><ele>433.0</ele><time>2026-04-24T11:36:54.948Z</time></trkpt><trkpt lat="43.7127362" lon="12.61889"><ele>434.5</ele><time>2026-04-24T11:36:55.948Z</time></trkpt><trkpt lat="43.7127578" lon="12.6187168"><ele>436.0</ele><time>2026-04-24T11:36:56.949Z</time></trkpt><trkpt lat="43.7128084" lon="12.6185436"><ele>436.0</ele><time>2026-04-24T11:36:57.948Z</time></trkpt><trkpt lat="43.7128644" lon="12.6183627"><ele>436.0</ele><time>2026-04-24T11:36:58.947Z</time></trkpt><trkpt lat="43.7129234" lon="12.6181712"><ele>436.0</ele><time>2026-04-24T11:36:59.948Z</time></trkpt><trkpt lat="43.7129756" lon="12.617967"><ele>436.0</ele><time>2026-04-24T11:37:00.947Z</time></trkpt><trkpt lat="43.7130121" lon="12.6177519"><ele>434.33333333333337</ele><time>2026-04-24T11:37:01.949Z</time></trkpt><trkpt lat="43.7129886" lon="12.617508"><ele>432.66666666666663</ele><time>2026-04-24T11:37:02.948Z</time></trkpt><trkpt lat="43.7129482" lon="12.6172722"><ele>431.0</ele><time>2026-04-24T11:37:03.949Z</time></trkpt><trkpt lat="43.7128948" lon="12.6170313"><ele>430.0</ele><time>2026-04-24T11:37:04.948Z</time></trkpt><trkpt lat="43.7128512" lon="12.6167949"><ele>429.0</ele><time>2026-04-24T11:37:05.948Z</time></trkpt><trkpt lat="43.7128244" lon="12.6165677"><ele>428.0</ele><time>2026-04-24T11:37:06.949Z</time></trkpt><trkpt lat="43.712801" lon="12.6163397"><ele>427.25</ele><time>2026-04-24T11:37:07.947Z</time></trkpt><trkpt lat="43.7127798" lon="12.6161284"><ele>426.5</ele><time>2026-04-24T11:37:08.948Z</time></trkpt><trkpt lat="43.7127501" lon="12.6159315"><ele>425.75</ele><time>2026-04-24T11:37:09.947Z</time></trkpt><trkpt lat="43.7126929" lon="12.6157593"><ele>425.0</ele><time>2026-04-24T11:37:10.947Z</time></trkpt><trkpt lat="43.7125955" lon="12.615612"><ele>424.0</ele><time>2026-04-24T11:37:11.949Z</time></trkpt><trkpt lat="43.7124704" lon="12.6154958"><ele>423.0</ele><time>2026-04-24T11:37:12.948Z</time></trkpt><trkpt lat="43.7123398" lon="12.6153915"><ele>422.0</ele><time>2026-04-24T11:37:13.948Z</time></trkpt><trkpt lat="43.712207" lon="12.6152866"><ele>422.0</ele><time>2026-04-24T11:37:14.948Z</time></trkpt><trkpt lat="43.7120684" lon="12.6151784"><ele>422.0</ele><time>2026-04-24T11:37:15.947Z</time></trkpt><trkpt lat="43.7119398" lon="12.6150516"><ele>422.0</ele><time>2026-04-24T11:37:16.95Z</time></trkpt><trkpt lat="43.7118183" lon="12.614887"><ele>421.3333333333333</ele><time>2026-04-24T11:37:17.948Z</time></trkpt><trkpt lat="43.7117358" lon="12.6146917"><ele>420.66666666666663</ele><time>2026-04-24T11:37:18.949Z</time></trkpt><trkpt lat="43.7116657" lon="12.614484"><ele>420.0</ele><time>2026-04-24T11:37:19.947Z</time></trkpt><trkpt lat="43.71157" lon="12.6143089"><ele>420.0</ele><time>2026-04-24T11:37:20.947Z</time></trkpt><trkpt lat="43.7114488" lon="12.6141848"><ele>420.0</ele><time>2026-04-24T11:37:21.947Z</time></trkpt><trkpt lat="43.7113002" lon="12.6141041"><ele>420.0</ele><time>2026-04-24T11:37:22.947Z</time></trkpt><trkpt lat="43.711143" lon="12.614042"><ele>419.33333333333337</ele><time>2026-04-24T11:37:23.948Z</time></trkpt><trkpt lat="43.7109777" lon="12.6140353"><ele>418.6666666666667</ele><time>2026-04-24T11:37:24.948Z</time></trkpt><trkpt lat="43.7108195" lon="12.6140688"><ele>418.0</ele><time>2026-04-24T11:37:25.948Z</time></trkpt><trkpt lat="43.7106815" lon="12.6140824"><ele>418.0</ele><time>2026-04-24T11:37:26.948Z</time></trkpt><trkpt lat="43.7105573" lon="12.6140538"><ele>418.0</ele><time>2026-04-24T11:37:27.948Z</time></trkpt><trkpt lat="43.7104594" lon="12.6139783"><ele>418.0</ele><time>2026-04-24T11:37:28.948Z</time></trkpt><trkpt lat="43.7104111" lon="12.6138534"><ele>418.0</ele><time>2026-04-24T11:37:29.948Z</time></trkpt><trkpt lat="43.7104207" lon="12.6137114"><ele>418.0</ele><time>2026-04-24T11:37:30.948Z</time></trkpt><trkpt lat="43.710479" lon="12.6135818"><ele>418.75</ele><time>2026-04-24T11:37:31.947Z</time></trkpt><trkpt lat="43.7105614" lon="12.6134665"><ele>419.5</ele><time>2026-04-24T11:37:32.948Z</time></trkpt><trkpt lat="43.7107067" lon="12.6133728"><ele>420.25</ele><time>2026-04-24T11:37:33.947Z</time></trkpt><trkpt lat="43.7108215" lon="12.6132199"><ele>421.0</ele><time>2026-04-24T11:37:34.948Z</time></trkpt><trkpt lat="43.7109141" lon="12.6130219"><ele>419.33333333333337</ele><time>2026-04-24T11:37:35.948Z</time></trkpt><trkpt lat="43.7109674" lon="12.6127863"><ele>417.66666666666663</ele><time>2026-04-24T11:37:36.948Z</time></trkpt><trkpt lat="43.7109736" lon="12.6125334"><ele>416.0</ele><time>2026-04-24T11:37:37.947Z</time></trkpt><trkpt lat="43.7109574" lon="12.6122801"><ele>416.0</ele><time>2026-04-24T11:37:38.947Z</time></trkpt><trkpt lat="43.7108765" lon="12.6120747"><ele>416.0</ele><time>2026-04-24T11:37:39.948Z</time></trkpt><trkpt lat="43.7107665" lon="12.6118932"><ele>416.0</ele><time>2026-04-24T11:37:40.948Z</time></trkpt><trkpt lat="43.7106384" lon="12.6117507"><ele>414.5</ele><time>2026-04-24T11:37:41.948Z</time></trkpt><trkpt lat="43.7105118" lon="12.6116334"><ele>413.0</ele><time>2026-04-24T11:37:42.947Z</time></trkpt><trkpt lat="43.7103923" lon="12.6115132"><ele>411.5</ele><time>2026-04-24T11:37:43.948Z</time></trkpt><trkpt lat="43.7102893" lon="12.6113729"><ele>410.0</ele><time>2026-04-24T11:37:44.947Z</time></trkpt><trkpt lat="43.7102122" lon="12.6112121"><ele>410.25</ele><time>2026-04-24T11:37:45.949Z</time></trkpt><trkpt lat="43.7101458" lon="12.6110544"><ele>410.5</ele><time>2026-04-24T11:37:46.948Z</time></trkpt><trkpt lat="43.7100835" lon="12.6108976"><ele>410.75</ele><time>2026-04-24T11:37:47.949Z</time></trkpt><trkpt lat="43.7100273" lon="12.6107607"><ele>411.0</ele><time>2026-04-24T11:37:48.949Z</time></trkpt><trkpt lat="43.7099683" lon="12.6106322"><ele>411.0</ele><time>2026-04-24T11:37:49.948Z</time></trkpt><trkpt lat="43.7098935" lon="12.6105248"><ele>411.0</ele><time>2026-04-24T11:37:50.947Z</time></trkpt><trkpt lat="43.7098088" lon="12.6104199"><ele>411.0</ele><time>2026-04-24T11:37:51.948Z</time></trkpt><trkpt lat="43.7097144" lon="12.6103135"><ele>411.0</ele><time>2026-04-24T11:37:52.948Z</time></trkpt><trkpt lat="43.7096198" lon="12.6102047"><ele>410.5</ele><time>2026-04-24T11:37:53.948Z</time></trkpt><trkpt lat="43.7095218" lon="12.6100861"><ele>410.0</ele><time>2026-04-24T11:37:54.948Z</time></trkpt><trkpt lat="43.7094372" lon="12.6099441"><ele>409.5</ele><time>2026-04-24T11:37:55.947Z</time></trkpt><trkpt lat="43.7093561" lon="12.6097984"><ele>409.0</ele><time>2026-04-24T11:37:56.947Z</time></trkpt><trkpt lat="43.7093346" lon="12.6096319"><ele>411.75</ele><time>2026-04-24T11:37:57.948Z</time></trkpt><trkpt lat="43.7093082" lon="12.609464"><ele>414.5</ele><time>2026-04-24T11:37:58.947Z</time></trkpt><trkpt lat="43.709271" lon="12.6093104"><ele>417.25</ele><time>2026-04-24T11:37:59.947Z</time></trkpt><trkpt lat="43.7092099" lon="12.609185"><ele>420.0</ele><time>2026-04-24T11:38:00.947Z</time></trkpt><trkpt lat="43.7091099" lon="12.6091248"><ele>420.0</ele><time>2026-04-24T11:38:01.947Z</time></trkpt><trkpt lat="43.7090022" lon="12.609119"><ele>420.0</ele><time>2026-04-24T11:38:02.948Z</time></trkpt><trkpt lat="43.7088881" lon="12.6091797"><ele>420.0</ele><time>2026-04-24T11:38:03.948Z</time></trkpt><trkpt lat="43.7087623" lon="12.60927"><ele>420.0</ele><time>2026-04-24T11:38:04.948Z</time></trkpt><trkpt lat="43.7086367" lon="12.6093471"><ele>423.33333333333337</ele><time>2026-04-24T11:38:05.947Z</time></trkpt><trkpt lat="43.7084901" lon="12.6093823"><ele>426.6666666666667</ele><time>2026-04-24T11:38:06.949Z</time></trkpt><trkpt lat="43.7083366" lon="12.609383"><ele>430.0</ele><time>2026-04-24T11:38:07.948Z</time></trkpt><trkpt lat="43.708183" lon="12.6093635"><ele>430.0</ele><time>2026-04-24T11:38:08.947Z</time></trkpt><trkpt lat="43.7080303" lon="12.6093437"><ele>430.0</ele><time>2026-04-24T11:38:09.947Z</time></trkpt><trkpt lat="43.7078853" lon="12.6093238"><ele>430.0</ele><time>2026-04-24T11:38:10.947Z</time></trkpt><trkpt lat="43.7077381" lon="12.6092931"><ele>430.0</ele><time>2026-04-24T11:38:11.948Z</time></trkpt><trkpt lat="43.7076252" lon="12.6092076"><ele>429.25</ele><time>2026-04-24T11:38:12.948Z</time></trkpt><trkpt lat="43.7075205" lon="12.6090919"><ele>428.5</ele><time>2026-04-24T11:38:13.948Z</time></trkpt><trkpt lat="43.7074193" lon="12.6089492"><ele>427.75</ele><time>2026-04-24T11:38:14.947Z</time></trkpt><trkpt lat="43.7073257" lon="12.6087824"><ele>427.0</ele><time>2026-04-24T11:38:15.947Z</time></trkpt><trkpt lat="43.7072293" lon="12.6086056"><ele>432.33333333333337</ele><time>2026-04-24T11:38:16.948Z</time></trkpt><trkpt lat="43.7071355" lon="12.6084268"><ele>437.66666666666663</ele><time>2026-04-24T11:38:17.95Z</time></trkpt><trkpt lat="43.7070487" lon="12.6082315"><ele>443.0</ele><time>2026-04-24T11:38:18.949Z</time></trkpt><trkpt lat="43.7069458" lon="12.6080445"><ele>439.3333333333333</ele><time>2026-04-24T11:38:19.948Z</time></trkpt><trkpt lat="43.7068284" lon="12.6078724"><ele>435.66666666666663</ele><time>2026-04-24T11:38:20.948Z</time></trkpt><trkpt lat="43.7066715" lon="12.6077474"><ele>432.0</ele><time>2026-04-24T11:38:21.947Z</time></trkpt><trkpt lat="43.7065368" lon="12.6075887"><ele>432.0</ele><time>2026-04-24T11:38:22.947Z</time></trkpt><trkpt lat="43.7064151" lon="12.6074169"><ele>432.0</ele><time>2026-04-24T11:38:23.948Z</time></trkpt><trkpt lat="43.7062872" lon="12.6072479"><ele>432.0</ele><time>2026-04-24T11:38:24.947Z</time></trkpt><trkpt lat="43.7061585" lon="12.6070909"><ele>430.66666666666663</ele><time>2026-04-24T11:38:25.947Z</time></trkpt><trkpt lat="43.7060193" lon="12.6069604"><ele>429.3333333333333</ele><time>2026-04-24T11:38:26.947Z</time></trkpt><trkpt lat="43.7058821" lon="12.6068397"><ele>428.0</ele><time>2026-04-24T11:38:27.948Z</time></trkpt><trkpt lat="43.7057442" lon="12.6067115"><ele>428.0</ele><time>2026-04-24T11:38:28.947Z</time></trkpt><trkpt lat="43.7056372" lon="12.6065551"><ele>428.0</ele><time>2026-04-24T11:38:29.948Z</time></trkpt><trkpt lat="43.7055521" lon="12.6063727"><ele>428.0</ele><time>2026-04-24T11:38:30.947Z</time></trkpt><trkpt lat="43.705488" lon="12.6061764"><ele>426.66666666666663</ele><time>2026-04-24T11:38:31.948Z</time></trkpt><trkpt lat="43.7054397" lon="12.605973"><ele>425.33333333333337</ele><time>2026-04-24T11:38:32.947Z</time></trkpt><trkpt lat="43.7053847" lon="12.6057655"><ele>424.0</ele><time>2026-04-24T11:38:33.948Z</time></trkpt><trkpt lat="43.7053204" lon="12.605568"><ele>424.0</ele><time>2026-04-24T11:38:34.948Z</time></trkpt><trkpt lat="43.7052542" lon="12.6053882"><ele>424.0</ele><time>2026-04-24T11:38:35.948Z</time></trkpt><trkpt lat="43.7051938" lon="12.6052129"><ele>424.0</ele><time>2026-04-24T11:38:36.948Z</time></trkpt><trkpt lat="43.7051208" lon="12.6050429"><ele>424.0</ele><time>2026-04-24T11:38:37.948Z</time></trkpt><trkpt lat="43.705021" lon="12.6048854"><ele>424.6666666666667</ele><time>2026-04-24T11:38:38.947Z</time></trkpt><trkpt lat="43.7049103" lon="12.6047428"><ele>425.33333333333337</ele><time>2026-04-24T11:38:39.947Z</time></trkpt><trkpt lat="43.7047597" lon="12.6046107"><ele>426.0</ele><time>2026-04-24T11:38:40.947Z</time></trkpt><trkpt lat="43.7046207" lon="12.6044924"><ele>426.66666666666663</ele><time>2026-04-24T11:38:41.947Z</time></trkpt><trkpt lat="43.7044696" lon="12.6044085"><ele>427.3333333333333</ele><time>2026-04-24T11:38:42.947Z</time></trkpt><trkpt lat="43.7043086" lon="12.6043774"><ele>428.0</ele><time>2026-04-24T11:38:43.947Z</time></trkpt><trkpt lat="43.7041528" lon="12.6043868"><ele>428.0</ele><time>2026-04-24T11:38:44.947Z</time></trkpt><trkpt lat="43.7040019" lon="12.6043593"><ele>428.0</ele><time>2026-04-24T11:38:45.947Z</time></trkpt><trkpt lat="43.7038601" lon="12.6043058"><ele>428.0</ele><time>2026-04-24T11:38:46.947Z</time></trkpt><trkpt lat="43.703744" lon="12.6041556"><ele>428.0</ele><time>2026-04-24T11:38:47.947Z</time></trkpt><trkpt lat="43.7036279" lon="12.6039971"><ele>428.0</ele><time>2026-04-24T11:38:48.948Z</time></trkpt><trkpt lat="43.703524" lon="12.6038204"><ele>428.0</ele><time>2026-04-24T11:38:49.948Z</time></trkpt><trkpt lat="43.7034262" lon="12.603664"><ele>429.66666666666663</ele><time>2026-04-24T11:38:50.947Z</time></trkpt><trkpt lat="43.7033103" lon="12.6035582"><ele>431.33333333333337</ele><time>2026-04-24T11:38:51.948Z</time></trkpt><trkpt lat="43.7031762" lon="12.6034678"><ele>433.0</ele><time>2026-04-24T11:38:52.947Z</time></trkpt><trkpt lat="43.7030364" lon="12.603355"><ele>433.0</ele><time>2026-04-24T11:38:53.948Z</time></trkpt><trkpt lat="43.7029285" lon="12.6031987"><ele>433.0</ele><time>2026-04-24T11:38:54.947Z</time></trkpt><trkpt lat="43.70285" lon="12.6030125"><ele>433.0</ele><time>2026-04-24T11:38:55.949Z</time></trkpt><trkpt lat="43.7028114" lon="12.6027932"><ele>430.33333333333337</ele><time>2026-04-24T11:38:56.949Z</time></trkpt><trkpt lat="43.7027557" lon="12.6025647"><ele>427.66666666666663</ele><time>2026-04-24T11:38:57.948Z</time></trkpt><trkpt lat="43.7027015" lon="12.6023346"><ele>425.0</ele><time>2026-04-24T11:38:58.948Z</time></trkpt><trkpt lat="43.7026557" lon="12.6020843"><ele>435.3333333333333</ele><time>2026-04-24T11:38:59.947Z</time></trkpt><trkpt lat="43.7026406" lon="12.6018093"><ele>445.66666666666663</ele><time>2026-04-24T11:39:00.948Z</time></trkpt><trkpt lat="43.7025953" lon="12.6015445"><ele>456.0</ele><time>2026-04-24T11:39:01.947Z</time></trkpt><trkpt lat="43.702566" lon="12.6012778"><ele>458.0</ele><time>2026-04-24T11:39:02.947Z</time></trkpt><trkpt lat="43.7025775" lon="12.6010163"><ele>460.0</ele><time>2026-04-24T11:39:03.947Z</time></trkpt><trkpt lat="43.7026265" lon="12.6007925"><ele>462.0</ele><time>2026-04-24T11:39:04.947Z</time></trkpt><trkpt lat="43.7027223" lon="12.6006131"><ele>457.0</ele><time>2026-04-24T11:39:05.947Z</time></trkpt><trkpt lat="43.7028365" lon="12.6004594"><ele>452.0</ele><time>2026-04-24T11:39:06.948Z</time></trkpt><trkpt lat="43.7029942" lon="12.6003854"><ele>447.0</ele><time>2026-04-24T11:39:07.947Z</time></trkpt><trkpt lat="43.7031462" lon="12.6003463"><ele>447.0</ele><time>2026-04-24T11:39:08.947Z</time></trkpt><trkpt lat="43.7033006" lon="12.600348"><ele>447.0</ele><time>2026-04-24T11:39:09.947Z</time></trkpt><trkpt lat="43.7034741" lon="12.600331"><ele>447.0</ele><time>2026-04-24T11:39:10.947Z</time></trkpt><trkpt lat="43.7036553" lon="12.6003581"><ele>448.66666666666663</ele><time>2026-04-24T11:39:11.947Z</time></trkpt><trkpt lat="43.7038284" lon="12.6004368"><ele>450.3333333333333</ele><time>2026-04-24T11:39:12.947Z</time></trkpt><trkpt lat="43.7039955" lon="12.6005514"><ele>452.0</ele><time>2026-04-24T11:39:13.948Z</time></trkpt><trkpt lat="43.7041509" lon="12.6006539"><ele>452.0</ele><time>2026-04-24T11:39:14.947Z</time></trkpt><trkpt lat="43.7043051" lon="12.600745"><ele>452.0</ele><time>2026-04-24T11:39:15.948Z</time></trkpt><trkpt lat="43.7044407" lon="12.6007969"><ele>452.0</ele><time>2026-04-24T11:39:16.947Z</time></trkpt><trkpt lat="43.7045552" lon="12.6007948"><ele>452.0</ele><time>2026-04-24T11:39:17.948Z</time></trkpt><trkpt lat="43.7046493" lon="12.6007529"><ele>454.0</ele><time>2026-04-24T11:39:18.947Z</time></trkpt><trkpt lat="43.704691" lon="12.6006417"><ele>456.0</ele><time>2026-04-24T11:39:19.948Z</time></trkpt><trkpt lat="43.7046554" lon="12.6005001"><ele>458.0</ele><time>2026-04-24T11:39:20.947Z</time></trkpt><trkpt lat="43.7046155" lon="12.6003458"><ele>460.0</ele><time>2026-04-24T11:39:21.947Z</time></trkpt><trkpt lat="43.7045825" lon="12.6001635"><ele>460.0</ele><time>2026-04-24T11:39:22.948Z</time></trkpt><trkpt lat="43.7045947" lon="12.5999691"><ele>460.0</ele><time>2026-04-24T11:39:23.948Z</time></trkpt><trkpt lat="43.7046297" lon="12.5997846"><ele>460.0</ele><time>2026-04-24T11:39:24.947Z</time></trkpt><trkpt lat="43.7047777" lon="12.5996532"><ele>460.0</ele><time>2026-04-24T11:39:25.948Z</time></trkpt><trkpt lat="43.7049197" lon="12.5995468"><ele>460.0</ele><time>2026-04-24T11:39:26.948Z</time></trkpt><trkpt lat="43.705071" lon="12.5994999"><ele>460.0</ele><time>2026-04-24T11:39:27.947Z</time></trkpt><trkpt lat="43.7052101" lon="12.5994806"><ele>460.2</ele><time>2026-04-24T11:39:28.948Z</time></trkpt><trkpt lat="43.7053314" lon="12.5994447"><ele>460.4</ele><time>2026-04-24T11:39:29.947Z</time></trkpt><trkpt lat="43.705421" lon="12.5993938"><ele>460.6</ele><time>2026-04-24T11:39:30.948Z</time></trkpt><trkpt lat="43.7054658" lon="12.5992919"><ele>460.8</ele><time>2026-04-24T11:39:31.947Z</time></trkpt><trkpt lat="43.7054798" lon="12.5991814"><ele>461.0</ele><time>2026-04-24T11:39:32.947Z</time></trkpt><trkpt lat="43.7053933" lon="12.5990396"><ele>461.0</ele><time>2026-04-24T11:39:33.948Z</time></trkpt><trkpt lat="43.7053117" lon="12.5989067"><ele>461.0</ele><time>2026-04-24T11:39:34.947Z</time></trkpt><trkpt lat="43.7052006" lon="12.5987459"><ele>461.0</ele><time>2026-04-24T11:39:35.947Z</time></trkpt><trkpt lat="43.7050884" lon="12.5985835"><ele>461.0</ele><time>2026-04-24T11:39:36.947Z</time></trkpt><trkpt lat="43.7049651" lon="12.598432"><ele>461.75</ele><time>2026-04-24T11:39:37.948Z</time></trkpt><trkpt lat="43.704837" lon="12.598321"><ele>462.5</ele><time>2026-04-24T11:39:38.947Z</time></trkpt><trkpt lat="43.7047186" lon="12.5982363"><ele>463.25</ele><time>2026-04-24T11:39:39.947Z</time></trkpt><trkpt lat="43.7046098" lon="12.5981726"><ele>464.0</ele><time>2026-04-24T11:39:40.948Z</time></trkpt><trkpt lat="43.7045056" lon="12.598134"><ele>466.6</ele><time>2026-04-24T11:39:41.947Z</time></trkpt><trkpt lat="43.7044088" lon="12.5981287"><ele>469.2</ele><time>2026-04-24T11:39:42.947Z</time></trkpt><trkpt lat="43.7043211" lon="12.5981165"><ele>471.80000000000007</ele><time>2026-04-24T11:39:43.946Z</time></trkpt><trkpt lat="43.7042363" lon="12.5980765"><ele>474.40000000000003</ele><time>2026-04-24T11:39:44.947Z</time></trkpt><trkpt lat="43.7041334" lon="12.5980328"><ele>477.0</ele><time>2026-04-24T11:39:45.947Z</time></trkpt><trkpt lat="43.7040428" lon="12.597942"><ele>477.0</ele><time>2026-04-24T11:39:46.947Z</time></trkpt><trkpt lat="43.7039668" lon="12.5978413"><ele>477.0</ele><time>2026-04-24T11:39:47.947Z</time></trkpt><trkpt lat="43.7039071" lon="12.5977063"><ele>477.0</ele><time>2026-04-24T11:39:48.947Z</time></trkpt><trkpt lat="43.7038344" lon="12.5975724"><ele>477.0</ele><time>2026-04-24T11:39:49.947Z</time></trkpt><trkpt lat="43.70376" lon="12.5974309"><ele>477.0</ele><time>2026-04-24T11:39:50.947Z</time></trkpt><trkpt lat="43.7037082" lon="12.5972826"><ele>477.00000000000006</ele><time>2026-04-24T11:39:51.947Z</time></trkpt><trkpt lat="43.7036596" lon="12.5971564"><ele>477.00000000000006</ele><time>2026-04-24T11:39:52.947Z</time></trkpt><trkpt lat="43.7036233" lon="12.5970265"><ele>477.0</ele><time>2026-04-24T11:39:53.948Z</time></trkpt><trkpt lat="43.7035873" lon="12.5968997"><ele>477.0</ele><time>2026-04-24T11:39:54.947Z</time></trkpt><trkpt lat="43.7035438" lon="12.5967758"><ele>477.0</ele><time>2026-04-24T11:39:55.947Z</time></trkpt><trkpt lat="43.7034784" lon="12.5966648"><ele>477.00000000000006</ele><time>2026-04-24T11:39:56.948Z</time></trkpt><trkpt lat="43.7034001" lon="12.5965504"><ele>477.00000000000006</ele><time>2026-04-24T11:39:57.947Z</time></trkpt><trkpt lat="43.7033231" lon="12.5964404"><ele>477.0</ele><time>2026-04-24T11:39:58.948Z</time></trkpt><trkpt lat="43.7032464" lon="12.5963478"><ele>477.0</ele><time>2026-04-24T11:39:59.946Z</time></trkpt><trkpt lat="43.7031844" lon="12.5962359"><ele>474.40000000000003</ele><time>2026-04-24T11:40:00.948Z</time></trkpt><trkpt lat="43.7031418" lon="12.5961029"><ele>471.80000000000007</ele><time>2026-04-24T11:40:01.947Z</time></trkpt><trkpt lat="43.7031156" lon="12.595953"><ele>469.2</ele><time>2026-04-24T11:40:02.947Z</time></trkpt><trkpt lat="43.7031015" lon="12.595794"><ele>466.6</ele><time>2026-04-24T11:40:03.947Z</time></trkpt><trkpt lat="43.7030992" lon="12.5956355"><ele>464.0</ele><time>2026-04-24T11:40:04.949Z</time></trkpt><trkpt lat="43.7031241" lon="12.5954762"><ele>464.75</ele><time>2026-04-24T11:40:05.947Z</time></trkpt><trkpt lat="43.7031643" lon="12.5953234"><ele>465.5</ele><time>2026-04-24T11:40:06.946Z</time></trkpt><trkpt lat="43.7032096" lon="12.5951734"><ele>466.25</ele><time>2026-04-24T11:40:07.946Z</time></trkpt><trkpt lat="43.7032387" lon="12.5950032"><ele>467.0</ele><time>2026-04-24T11:40:08.947Z</time></trkpt><trkpt lat="43.7032487" lon="12.5948346"><ele>467.0</ele><time>2026-04-24T11:40:09.947Z</time></trkpt><trkpt lat="43.7032372" lon="12.5946708"><ele>467.0</ele><time>2026-04-24T11:40:10.947Z</time></trkpt><trkpt lat="43.7032249" lon="12.5945071"><ele>467.0</ele><time>2026-04-24T11:40:11.947Z</time></trkpt><trkpt lat="43.7032276" lon="12.59435"><ele>467.0</ele><time>2026-04-24T11:40:12.946Z</time></trkpt><trkpt lat="43.7032454" lon="12.5941981"><ele>469.0</ele><time>2026-04-24T11:40:13.949Z</time></trkpt><trkpt lat="43.7032867" lon="12.5940632"><ele>471.0</ele><time>2026-04-24T11:40:14.947Z</time></trkpt><trkpt lat="43.7033512" lon="12.593949"><ele>473.0</ele><time>2026-04-24T11:40:15.946Z</time></trkpt><trkpt lat="43.7034328" lon="12.5938324"><ele>475.0</ele><time>2026-04-24T11:40:16.947Z</time></trkpt><trkpt lat="43.7035454" lon="12.593702"><ele>475.6666666666667</ele><time>2026-04-24T11:40:17.946Z</time></trkpt><trkpt lat="43.7036906" lon="12.5935732"><ele>476.33333333333337</ele><time>2026-04-24T11:40:18.946Z</time></trkpt><trkpt lat="43.7038635" lon="12.5934364"><ele>477.0</ele><time>2026-04-24T11:40:19.947Z</time></trkpt><trkpt lat="43.7040534" lon="12.5932852"><ele>477.0</ele><time>2026-04-24T11:40:20.947Z</time></trkpt><trkpt lat="43.7042448" lon="12.5931198"><ele>477.0</ele><time>2026-04-24T11:40:21.947Z</time></trkpt><trkpt lat="43.7044318" lon="12.5929524"><ele>477.0</ele><time>2026-04-24T11:40:22.947Z</time></trkpt><trkpt lat="43.7046027" lon="12.5927889"><ele>473.66666666666663</ele><time>2026-04-24T11:40:23.947Z</time></trkpt><trkpt lat="43.7047546" lon="12.5926257"><ele>470.3333333333333</ele><time>2026-04-24T11:40:24.947Z</time></trkpt><trkpt lat="43.7048522" lon="12.5924533"><ele>467.0</ele><time>2026-04-24T11:40:25.947Z</time></trkpt><trkpt lat="43.7049177" lon="12.5922658"><ele>467.0</ele><time>2026-04-24T11:40:26.946Z</time></trkpt><trkpt lat="43.7049372" lon="12.5920746"><ele>467.0</ele><time>2026-04-24T11:40:27.948Z</time></trkpt><trkpt lat="43.7049061" lon="12.5918799"><ele>467.0</ele><time>2026-04-24T11:40:28.947Z</time></trkpt><trkpt lat="43.7048362" lon="12.591668"><ele>469.0</ele><time>2026-04-24T11:40:29.947Z</time></trkpt><trkpt lat="43.7047685" lon="12.5914365"><ele>471.0</ele><time>2026-04-24T11:40:30.948Z</time></trkpt><trkpt lat="43.7047361" lon="12.5912067"><ele>473.0</ele><time>2026-04-24T11:40:31.947Z</time></trkpt><trkpt lat="43.7047355" lon="12.5909775"><ele>473.3333333333333</ele><time>2026-04-24T11:40:32.947Z</time></trkpt><trkpt lat="43.7047819" lon="12.5907652"><ele>473.66666666666663</ele><time>2026-04-24T11:40:33.947Z</time></trkpt><trkpt lat="43.704872" lon="12.5905723"><ele>474.0</ele><time>2026-04-24T11:40:34.948Z</time></trkpt><trkpt lat="43.7049856" lon="12.5904097"><ele>473.0</ele><time>2026-04-24T11:40:35.946Z</time></trkpt><trkpt lat="43.7051537" lon="12.5903197"><ele>472.0</ele><time>2026-04-24T11:40:36.947Z</time></trkpt><trkpt lat="43.7053077" lon="12.5902346"><ele>471.0</ele><time>2026-04-24T11:40:37.947Z</time></trkpt><trkpt lat="43.7054457" lon="12.5901387"><ele>471.0</ele><time>2026-04-24T11:40:38.947Z</time></trkpt><trkpt lat="43.7055685" lon="12.5900168"><ele>471.0</ele><time>2026-04-24T11:40:39.948Z</time></trkpt><trkpt lat="43.7056747" lon="12.5898605"><ele>471.0</ele><time>2026-04-24T11:40:40.948Z</time></trkpt><trkpt lat="43.7057745" lon="12.5896688"><ele>474.0</ele><time>2026-04-24T11:40:41.948Z</time></trkpt><trkpt lat="43.705867" lon="12.589497"><ele>477.0</ele><time>2026-04-24T11:40:42.947Z</time></trkpt><trkpt lat="43.7059465" lon="12.5893142"><ele>480.0</ele><time>2026-04-24T11:40:43.947Z</time></trkpt><trkpt lat="43.7059903" lon="12.5891137"><ele>480.0</ele><time>2026-04-24T11:40:44.947Z</time></trkpt><trkpt lat="43.7059765" lon="12.588885"><ele>480.0</ele><time>2026-04-24T11:40:45.946Z</time></trkpt><trkpt lat="43.7059318" lon="12.5886331"><ele>480.0</ele><time>2026-04-24T11:40:46.947Z</time></trkpt><trkpt lat="43.7058991" lon="12.5883799"><ele>480.0</ele><time>2026-04-24T11:40:47.948Z</time></trkpt><trkpt lat="43.7058879" lon="12.5881291"><ele>480.0</ele><time>2026-04-24T11:40:48.948Z</time></trkpt><trkpt lat="43.7058701" lon="12.5878724"><ele>480.0</ele><time>2026-04-24T11:40:49.946Z</time></trkpt><trkpt lat="43.7058365" lon="12.5876395"><ele>480.0</ele><time>2026-04-24T11:40:50.948Z</time></trkpt><trkpt lat="43.7057789" lon="12.5874251"><ele>480.0</ele><time>2026-04-24T11:40:51.946Z</time></trkpt><trkpt lat="43.7056471" lon="12.5872844"><ele>480.0</ele><time>2026-04-24T11:40:52.947Z</time></trkpt><trkpt lat="43.7055157" lon="12.5871585"><ele>476.0</ele><time>2026-04-24T11:40:53.947Z</time></trkpt><trkpt lat="43.705397" lon="12.5870078"><ele>472.0</ele><time>2026-04-24T11:40:54.947Z</time></trkpt><trkpt lat="43.7053062" lon="12.586815"><ele>468.0</ele><time>2026-04-24T11:40:55.946Z</time></trkpt><trkpt lat="43.7052394" lon="12.5865934"><ele>474.33333333333337</ele><time>2026-04-24T11:40:56.948Z</time></trkpt><trkpt lat="43.7051692" lon="12.586364"><ele>480.6666666666667</ele><time>2026-04-24T11:40:57.948Z</time></trkpt><trkpt lat="43.705106" lon="12.5861076"><ele>487.0</ele><time>2026-04-24T11:40:58.948Z</time></trkpt><trkpt lat="43.7050426" lon="12.5858567"><ele>487.0</ele><time>2026-04-24T11:40:59.946Z</time></trkpt><trkpt lat="43.7049987" lon="12.5856115"><ele>487.0</ele><time>2026-04-24T11:41:00.948Z</time></trkpt><trkpt lat="43.7049706" lon="12.5853624"><ele>487.0</ele><time>2026-04-24T11:41:01.947Z</time></trkpt><trkpt lat="43.7049886" lon="12.5851354"><ele>487.0</ele><time>2026-04-24T11:41:02.948Z</time></trkpt><trkpt lat="43.7050002" lon="12.5848969"><ele>487.0</ele><time>2026-04-24T11:41:03.946Z</time></trkpt><trkpt lat="43.7049659" lon="12.5846532"><ele>487.0</ele><time>2026-04-24T11:41:04.947Z</time></trkpt><trkpt lat="43.7048887" lon="12.5844435"><ele>486.0</ele><time>2026-04-24T11:41:05.947Z</time></trkpt><trkpt lat="43.704822" lon="12.5842323"><ele>485.0</ele><time>2026-04-24T11:41:06.946Z</time></trkpt><trkpt lat="43.7047801" lon="12.5839982"><ele>484.0</ele><time>2026-04-24T11:41:07.948Z</time></trkpt><trkpt lat="43.7048153" lon="12.5837807"><ele>486.0</ele><time>2026-04-24T11:41:08.947Z</time></trkpt><trkpt lat="43.7048691" lon="12.5835743"><ele>488.0</ele><time>2026-04-24T11:41:09.948Z</time></trkpt><trkpt lat="43.7049436" lon="12.5833775"><ele>490.0</ele><time>2026-04-24T11:41:10.946Z</time></trkpt><trkpt lat="43.7050375" lon="12.5831827"><ele>490.0</ele><time>2026-04-24T11:41:11.947Z</time></trkpt><trkpt lat="43.7051261" lon="12.5829752"><ele>490.0</ele><time>2026-04-24T11:41:12.947Z</time></trkpt><trkpt lat="43.7051973" lon="12.5827329"><ele>490.0</ele><time>2026-04-24T11:41:13.946Z</time></trkpt><trkpt lat="43.705241" lon="12.5824822"><ele>492.0</ele><time>2026-04-24T11:41:14.947Z</time></trkpt><trkpt lat="43.7052504" lon="12.5822229"><ele>494.0</ele><time>2026-04-24T11:41:15.947Z</time></trkpt><trkpt lat="43.7052393" lon="12.5819758"><ele>496.0</ele><time>2026-04-24T11:41:16.946Z</time></trkpt><trkpt lat="43.7052019" lon="12.5817223"><ele>496.0</ele><time>2026-04-24T11:41:17.947Z</time></trkpt><trkpt lat="43.705132" lon="12.5814671"><ele>496.0</ele><time>2026-04-24T11:41:18.946Z</time></trkpt><trkpt lat="43.7050665" lon="12.5812113"><ele>496.0</ele><time>2026-04-24T11:41:19.946Z</time></trkpt><trkpt lat="43.7050355" lon="12.5809491"><ele>494.0</ele><time>2026-04-24T11:41:20.947Z</time></trkpt><trkpt lat="43.7050214" lon="12.5807125"><ele>492.0</ele><time>2026-04-24T11:41:21.946Z</time></trkpt><trkpt lat="43.7050221" lon="12.5805079"><ele>490.0</ele><time>2026-04-24T11:41:22.947Z</time></trkpt><trkpt lat="43.7050319" lon="12.580318"><ele>490.0</ele><time>2026-04-24T11:41:23.947Z</time></trkpt><trkpt lat="43.7050444" lon="12.580162"><ele>490.0</ele><time>2026-04-24T11:41:24.947Z</time></trkpt><trkpt lat="43.7050556" lon="12.5799993"><ele>490.0</ele><time>2026-04-24T11:41:25.947Z</time></trkpt><trkpt lat="43.7050649" lon="12.5798159"><ele>490.0</ele><time>2026-04-24T11:41:26.948Z</time></trkpt><trkpt lat="43.7050752" lon="12.5796226"><ele>489.0</ele><time>2026-04-24T11:41:27.947Z</time></trkpt><trkpt lat="43.7050655" lon="12.5794062"><ele>488.0</ele><time>2026-04-24T11:41:28.947Z</time></trkpt><trkpt lat="43.7050192" lon="12.5791747"><ele>487.0</ele><time>2026-04-24T11:41:29.947Z</time></trkpt><trkpt lat="43.7049596" lon="12.5789599"><ele>487.0</ele><time>2026-04-24T11:41:30.947Z</time></trkpt><trkpt lat="43.7048984" lon="12.5787493"><ele>487.0</ele><time>2026-04-24T11:41:31.946Z</time></trkpt><trkpt lat="43.704809" lon="12.5785783"><ele>487.0</ele><time>2026-04-24T11:41:32.946Z</time></trkpt><trkpt lat="43.7047071" lon="12.578471"><ele>487.0</ele><time>2026-04-24T11:41:33.948Z</time></trkpt><trkpt lat="43.7045825" lon="12.5784051"><ele>485.33333333333337</ele><time>2026-04-24T11:41:34.947Z</time></trkpt><trkpt lat="43.7044433" lon="12.5784104"><ele>483.66666666666663</ele><time>2026-04-24T11:41:35.946Z</time></trkpt><trkpt lat="43.7042968" lon="12.57849"><ele>482.0</ele><time>2026-04-24T11:41:36.946Z</time></trkpt><trkpt lat="43.7041456" lon="12.5785788"><ele>487.3333333333333</ele><time>2026-04-24T11:41:37.947Z</time></trkpt><trkpt lat="43.7039887" lon="12.578659"><ele>492.66666666666663</ele><time>2026-04-24T11:41:38.949Z</time></trkpt><trkpt lat="43.7038226" lon="12.5786935"><ele>498.0</ele><time>2026-04-24T11:41:39.946Z</time></trkpt><trkpt lat="43.7036349" lon="12.5786672"><ele>497.66666666666663</ele><time>2026-04-24T11:41:40.948Z</time></trkpt><trkpt lat="43.7034611" lon="12.578633"><ele>497.3333333333333</ele><time>2026-04-24T11:41:41.946Z</time></trkpt><trkpt lat="43.7032815" lon="12.5785925"><ele>497.0</ele><time>2026-04-24T11:41:42.946Z</time></trkpt><trkpt lat="43.7031032" lon="12.5785308"><ele>497.0</ele><time>2026-04-24T11:41:43.946Z</time></trkpt><trkpt lat="43.7029355" lon="12.5784349"><ele>497.0</ele><time>2026-04-24T11:41:44.947Z</time></trkpt><trkpt lat="43.7027659" lon="12.5783599"><ele>497.0</ele><time>2026-04-24T11:41:45.947Z</time></trkpt><trkpt lat="43.7025966" lon="12.5783363"><ele>494.0</ele><time>2026-04-24T11:41:46.946Z</time></trkpt><trkpt lat="43.7024385" lon="12.5783483"><ele>491.0</ele><time>2026-04-24T11:41:47.946Z</time></trkpt><trkpt lat="43.7022831" lon="12.5783593"><ele>488.0</ele><time>2026-04-24T11:41:48.947Z</time></trkpt><trkpt lat="43.7021406" lon="12.5783864"><ele>488.0</ele><time>2026-04-24T11:41:49.948Z</time></trkpt><trkpt lat="43.7020275" lon="12.5783534"><ele>487.99999999999994</ele><time>2026-04-24T11:41:50.946Z</time></trkpt><trkpt lat="43.7019282" lon="12.578298"><ele>487.99999999999994</ele><time>2026-04-24T11:41:51.946Z</time></trkpt><trkpt lat="43.70187" lon="12.5781911"><ele>488.0</ele><time>2026-04-24T11:41:52.946Z</time></trkpt><trkpt lat="43.701839" lon="12.578051"><ele>488.0</ele><time>2026-04-24T11:41:53.947Z</time></trkpt><trkpt lat="43.7019053" lon="12.577869"><ele>492.3333333333333</ele><time>2026-04-24T11:41:54.946Z</time></trkpt><trkpt lat="43.7019682" lon="12.5776659"><ele>496.66666666666663</ele><time>2026-04-24T11:41:55.948Z</time></trkpt><trkpt lat="43.7020159" lon="12.5774376"><ele>501.0</ele><time>2026-04-24T11:41:56.946Z</time></trkpt><trkpt lat="43.7020512" lon="12.5772093"><ele>500.0</ele><time>2026-04-24T11:41:57.946Z</time></trkpt><trkpt lat="43.7020894" lon="12.5769905"><ele>499.0</ele><time>2026-04-24T11:41:58.946Z</time></trkpt><trkpt lat="43.7021467" lon="12.5767891"><ele>498.0</ele><time>2026-04-24T11:41:59.946Z</time></trkpt><trkpt lat="43.7022154" lon="12.5765846"><ele>498.0</ele><time>2026-04-24T11:42:00.947Z</time></trkpt><trkpt lat="43.7022786" lon="12.5763964"><ele>498.0</ele><time>2026-04-24T11:42:01.946Z</time></trkpt><trkpt lat="43.7023336" lon="12.5762335"><ele>498.0</ele><time>2026-04-24T11:42:02.946Z</time></trkpt><trkpt lat="43.7023936" lon="12.5760489"><ele>498.0</ele><time>2026-04-24T11:42:03.947Z</time></trkpt><trkpt lat="43.7024614" lon="12.5758486"><ele>492.33333333333337</ele><time>2026-04-24T11:42:04.946Z</time></trkpt><trkpt lat="43.7025575" lon="12.5756501"><ele>486.6666666666667</ele><time>2026-04-24T11:42:05.948Z</time></trkpt><trkpt lat="43.7026536" lon="12.5754926"><ele>481.0</ele><time>2026-04-24T11:42:06.947Z</time></trkpt><trkpt lat="43.7027355" lon="12.5753475"><ele>470.0</ele><time>2026-04-24T11:42:07.947Z</time></trkpt><trkpt lat="43.7013334" lon="12.572845"><ele>470.0</ele><time>2026-04-24T11:42:39.864Z</time></trkpt><trkpt lat="43.701188" lon="12.5726998"><ele>470.0</ele><time>2026-04-24T11:42:40.947Z</time></trkpt><trkpt lat="43.7010475" lon="12.572602"><ele>470.0</ele><time>2026-04-24T11:42:41.948Z</time></trkpt><trkpt lat="43.7008787" lon="12.5724744"><ele>471.3333333333333</ele><time>2026-04-24T11:42:42.947Z</time></trkpt><trkpt lat="43.7007056" lon="12.5723367"><ele>472.66666666666663</ele><time>2026-04-24T11:42:43.948Z</time></trkpt><trkpt lat="43.7005405" lon="12.5721571"><ele>474.0</ele><time>2026-04-24T11:42:44.947Z</time></trkpt><trkpt lat="43.7004061" lon="12.5719301"><ele>474.66666666666663</ele><time>2026-04-24T11:42:45.948Z</time></trkpt><trkpt lat="43.7003019" lon="12.5716705"><ele>475.3333333333333</ele><time>2026-04-24T11:42:46.947Z</time></trkpt><trkpt lat="43.7002029" lon="12.5713918"><ele>476.0</ele><time>2026-04-24T11:42:47.948Z</time></trkpt><trkpt lat="43.7001024" lon="12.5711066"><ele>473.66666666666663</ele><time>2026-04-24T11:42:48.948Z</time></trkpt><trkpt lat="43.700002" lon="12.5708338"><ele>471.33333333333337</ele><time>2026-04-24T11:42:49.947Z</time></trkpt><trkpt lat="43.6999092" lon="12.5705732"><ele>469.0</ele><time>2026-04-24T11:42:50.947Z</time></trkpt><trkpt lat="43.6998213" lon="12.5703047"><ele>465.33333333333337</ele><time>2026-04-24T11:42:51.947Z</time></trkpt><trkpt lat="43.6997359" lon="12.5700265"><ele>461.66666666666663</ele><time>2026-04-24T11:42:52.947Z</time></trkpt><trkpt lat="43.6996555" lon="12.5697388"><ele>458.0</ele><time>2026-04-24T11:42:53.948Z</time></trkpt><trkpt lat="43.6995653" lon="12.5694469"><ele>452.0</ele><time>2026-04-24T11:42:54.947Z</time></trkpt><trkpt lat="43.6994465" lon="12.5691686"><ele>446.0</ele><time>2026-04-24T11:42:55.947Z</time></trkpt><trkpt lat="43.6993226" lon="12.5688916"><ele>451.0</ele><time>2026-04-24T11:42:56.947Z</time></trkpt><trkpt lat="43.6992025" lon="12.5686208"><ele>456.0</ele><time>2026-04-24T11:42:57.948Z</time></trkpt><trkpt lat="43.6990872" lon="12.568358"><ele>456.0</ele><time>2026-04-24T11:42:58.947Z</time></trkpt><trkpt lat="43.6989822" lon="12.5680999"><ele>456.0</ele><time>2026-04-24T11:42:59.947Z</time></trkpt><trkpt lat="43.698884" lon="12.5678467"><ele>456.0</ele><time>2026-04-24T11:43:00.947Z</time></trkpt><trkpt lat="43.6988015" lon="12.5675884"><ele>451.66666666666663</ele><time>2026-04-24T11:43:01.948Z</time></trkpt><trkpt lat="43.6987516" lon="12.5673162"><ele>447.3333333333333</ele><time>2026-04-24T11:43:02.948Z</time></trkpt><trkpt lat="43.6987292" lon="12.5670353"><ele>443.0</ele><time>2026-04-24T11:43:03.947Z</time></trkpt><trkpt lat="43.698741" lon="12.5667534"><ele>441.0</ele><time>2026-04-24T11:43:04.947Z</time></trkpt><trkpt lat="43.6987669" lon="12.5664779"><ele>439.0</ele><time>2026-04-24T11:43:05.947Z</time></trkpt><trkpt lat="43.6987867" lon="12.5662157"><ele>437.0</ele><time>2026-04-24T11:43:06.948Z</time></trkpt><trkpt lat="43.6987953" lon="12.5659644"><ele>435.0</ele><time>2026-04-24T11:43:07.948Z</time></trkpt><trkpt lat="43.6987866" lon="12.5657409"><ele>433.0</ele><time>2026-04-24T11:43:08.947Z</time></trkpt><trkpt lat="43.6987513" lon="12.5655294"><ele>431.0</ele><time>2026-04-24T11:43:09.947Z</time></trkpt><trkpt lat="43.6986553" lon="12.5653636"><ele>432.75</ele><time>2026-04-24T11:43:10.946Z</time></trkpt><trkpt lat="43.6985564" lon="12.5652369"><ele>434.5</ele><time>2026-04-24T11:43:11.947Z</time></trkpt><trkpt lat="43.6984815" lon="12.5651168"><ele>436.25</ele><time>2026-04-24T11:43:12.946Z</time></trkpt><trkpt lat="43.6984487" lon="12.5649655"><ele>438.0</ele><time>2026-04-24T11:43:13.946Z</time></trkpt><trkpt lat="43.6984806" lon="12.5647955"><ele>438.0</ele><time>2026-04-24T11:43:14.946Z</time></trkpt><trkpt lat="43.6985501" lon="12.5646166"><ele>438.0</ele><time>2026-04-24T11:43:15.947Z</time></trkpt><trkpt lat="43.6986346" lon="12.5644237"><ele>438.0</ele><time>2026-04-24T11:43:16.947Z</time></trkpt><trkpt lat="43.6987155" lon="12.564214"><ele>440.0</ele><time>2026-04-24T11:43:17.946Z</time></trkpt><trkpt lat="43.69878" lon="12.5639938"><ele>442.0</ele><time>2026-04-24T11:43:18.947Z</time></trkpt><trkpt lat="43.6988116" lon="12.5637635"><ele>444.0</ele><time>2026-04-24T11:43:19.946Z</time></trkpt><trkpt lat="43.6988011" lon="12.5635399"><ele>444.0</ele><time>2026-04-24T11:43:20.946Z</time></trkpt><trkpt lat="43.6987415" lon="12.5633463"><ele>444.0</ele><time>2026-04-24T11:43:21.946Z</time></trkpt><trkpt lat="43.6986362" lon="12.5631958"><ele>444.0</ele><time>2026-04-24T11:43:22.947Z</time></trkpt><trkpt lat="43.6985073" lon="12.563066"><ele>443.0</ele><time>2026-04-24T11:43:23.946Z</time></trkpt><trkpt lat="43.6983786" lon="12.5629128"><ele>442.0</ele><time>2026-04-24T11:43:24.947Z</time></trkpt><trkpt lat="43.6982604" lon="12.5627235"><ele>441.0</ele><time>2026-04-24T11:43:25.946Z</time></trkpt><trkpt lat="43.6981674" lon="12.5625104"><ele>441.0</ele><time>2026-04-24T11:43:26.946Z</time></trkpt><trkpt lat="43.6981131" lon="12.5622961"><ele>441.0</ele><time>2026-04-24T11:43:27.946Z</time></trkpt><trkpt lat="43.6980974" lon="12.5620757"><ele>441.0</ele><time>2026-04-24T11:43:28.946Z</time></trkpt><trkpt lat="43.6980678" lon="12.5618491"><ele>442.0</ele><time>2026-04-24T11:43:29.946Z</time></trkpt><trkpt lat="43.6979983" lon="12.5616195"><ele>443.0</ele><time>2026-04-24T11:43:30.946Z</time></trkpt><trkpt lat="43.6979029" lon="12.5613998"><ele>444.0</ele><time>2026-04-24T11:43:31.946Z</time></trkpt><trkpt lat="43.6977706" lon="12.561211"><ele>448.33333333333337</ele><time>2026-04-24T11:43:32.946Z</time></trkpt><trkpt lat="43.6976107" lon="12.5610385"><ele>452.6666666666667</ele><time>2026-04-24T11:43:33.946Z</time></trkpt><trkpt lat="43.6974498" lon="12.5608781"><ele>457.0</ele><time>2026-04-24T11:43:34.946Z</time></trkpt><trkpt lat="43.6972903" lon="12.5607481"><ele>457.0</ele><time>2026-04-24T11:43:35.947Z</time></trkpt><trkpt lat="43.69712" lon="12.5606585"><ele>457.0</ele><time>2026-04-24T11:43:36.946Z</time></trkpt><trkpt lat="43.6969406" lon="12.5606335"><ele>457.0</ele><time>2026-04-24T11:43:37.946Z</time></trkpt><trkpt lat="43.6967547" lon="12.5606067"><ele>455.0</ele><time>2026-04-24T11:43:38.946Z</time></trkpt><trkpt lat="43.6966189" lon="12.5607238"><ele>453.0</ele><time>2026-04-24T11:43:39.946Z</time></trkpt><trkpt lat="43.6964693" lon="12.5607691"><ele>451.0</ele><time>2026-04-24T11:43:40.946Z</time></trkpt><trkpt lat="43.6963351" lon="12.5607492"><ele>449.0</ele><time>2026-04-24T11:43:41.946Z</time></trkpt><trkpt lat="43.6962441" lon="12.5605908"><ele>449.0</ele><time>2026-04-24T11:43:42.946Z</time></trkpt><trkpt lat="43.6961493" lon="12.5604151"><ele>449.0</ele><time>2026-04-24T11:43:43.946Z</time></trkpt><trkpt lat="43.6960683" lon="12.5602092"><ele>449.0</ele><time>2026-04-24T11:43:44.946Z</time></trkpt><trkpt lat="43.6959742" lon="12.5599951"><ele>452.3333333333333</ele><time>2026-04-24T11:43:45.946Z</time></trkpt><trkpt lat="43.6958595" lon="12.5597991"><ele>455.66666666666663</ele><time>2026-04-24T11:43:46.945Z</time></trkpt><trkpt lat="43.6957392" lon="12.5596328"><ele>459.0</ele><time>2026-04-24T11:43:47.947Z</time></trkpt><trkpt lat="43.6956091" lon="12.5595072"><ele>459.75</ele><time>2026-04-24T11:43:48.946Z</time></trkpt><trkpt lat="43.6954781" lon="12.5594336"><ele>460.5</ele><time>2026-04-24T11:43:49.947Z</time></trkpt><trkpt lat="43.6953308" lon="12.5594311"><ele>461.25</ele><time>2026-04-24T11:43:50.945Z</time></trkpt><trkpt lat="43.6951791" lon="12.5594894"><ele>462.0</ele><time>2026-04-24T11:43:51.946Z</time></trkpt><trkpt lat="43.6950246" lon="12.5595588"><ele>460.0</ele><time>2026-04-24T11:43:52.947Z</time></trkpt><trkpt lat="43.6948798" lon="12.5596243"><ele>458.0</ele><time>2026-04-24T11:43:53.946Z</time></trkpt><trkpt lat="43.6947667" lon="12.5596566"><ele>456.0</ele><time>2026-04-24T11:43:54.945Z</time></trkpt><trkpt lat="43.6946881" lon="12.5596305"><ele>454.0</ele><time>2026-04-24T11:43:55.947Z</time></trkpt><trkpt lat="43.6946682" lon="12.5594931"><ele>451.5</ele><time>2026-04-24T11:43:57.945Z</time></trkpt><trkpt lat="43.6947401" lon="12.5594394"><ele>449.0</ele><time>2026-04-24T11:43:58.946Z</time></trkpt><trkpt lat="43.6948425" lon="12.5593873"><ele>446.5</ele><time>2026-04-24T11:43:59.945Z</time></trkpt><trkpt lat="43.6949776" lon="12.5593345"><ele>444.0</ele><time>2026-04-24T11:44:00.947Z</time></trkpt><trkpt lat="43.6951318" lon="12.5592595"><ele>450.0</ele><time>2026-04-24T11:44:01.946Z</time></trkpt><trkpt lat="43.6953027" lon="12.5591538"><ele>456.0</ele><time>2026-04-24T11:44:02.948Z</time></trkpt><trkpt lat="43.6954777" lon="12.5590275"><ele>462.0</ele><time>2026-04-24T11:44:03.946Z</time></trkpt><trkpt lat="43.6956475" lon="12.5588983"><ele>462.0</ele><time>2026-04-24T11:44:04.946Z</time></trkpt><trkpt lat="43.6958092" lon="12.5587567"><ele>462.0</ele><time>2026-04-24T11:44:05.947Z</time></trkpt><trkpt lat="43.6959392" lon="12.5585928"><ele>462.0</ele><time>2026-04-24T11:44:06.947Z</time></trkpt><trkpt lat="43.6959977" lon="12.5583927"><ele>455.0</ele><time>2026-04-24T11:44:07.946Z</time></trkpt><trkpt lat="43.6960438" lon="12.5581796"><ele>448.0</ele><time>2026-04-24T11:44:08.945Z</time></trkpt><trkpt lat="43.6959961" lon="12.5579482"><ele>441.0</ele><time>2026-04-24T11:44:09.947Z</time></trkpt><trkpt lat="43.6959238" lon="12.5577263"><ele>439.0</ele><time>2026-04-24T11:44:10.945Z</time></trkpt><trkpt lat="43.6958257" lon="12.5574977"><ele>437.0</ele><time>2026-04-24T11:44:11.947Z</time></trkpt><trkpt lat="43.6957391" lon="12.5572411"><ele>435.0</ele><time>2026-04-24T11:44:12.945Z</time></trkpt><trkpt lat="43.6956878" lon="12.5569658"><ele>434.66666666666663</ele><time>2026-04-24T11:44:13.945Z</time></trkpt><trkpt lat="43.6956611" lon="12.5566765"><ele>434.3333333333333</ele><time>2026-04-24T11:44:14.945Z</time></trkpt><trkpt lat="43.6956645" lon="12.5563858"><ele>434.0</ele><time>2026-04-24T11:44:15.946Z</time></trkpt><trkpt lat="43.695659" lon="12.5560848"><ele>432.66666666666663</ele><time>2026-04-24T11:44:16.946Z</time></trkpt><trkpt lat="43.6956511" lon="12.5557898"><ele>431.33333333333337</ele><time>2026-04-24T11:44:17.945Z</time></trkpt><trkpt lat="43.6956119" lon="12.5555038"><ele>430.0</ele><time>2026-04-24T11:44:18.946Z</time></trkpt><trkpt lat="43.6955701" lon="12.5552409"><ele>429.33333333333337</ele><time>2026-04-24T11:44:19.946Z</time></trkpt><trkpt lat="43.695497" lon="12.5550126"><ele>428.66666666666663</ele><time>2026-04-24T11:44:20.946Z</time></trkpt><trkpt lat="43.695405" lon="12.5547972"><ele>428.0</ele><time>2026-04-24T11:44:21.945Z</time></trkpt><trkpt lat="43.6953477" lon="12.5545661"><ele>433.3333333333333</ele><time>2026-04-24T11:44:22.946Z</time></trkpt><trkpt lat="43.6953122" lon="12.5543171"><ele>438.66666666666663</ele><time>2026-04-24T11:44:23.946Z</time></trkpt><trkpt lat="43.6953005" lon="12.5540681"><ele>444.0</ele><time>2026-04-24T11:44:24.945Z</time></trkpt><trkpt lat="43.6953657" lon="12.5538269"><ele>443.66666666666663</ele><time>2026-04-24T11:44:25.945Z</time></trkpt><trkpt lat="43.6954344" lon="12.5535842"><ele>443.3333333333333</ele><time>2026-04-24T11:44:26.946Z</time></trkpt><trkpt lat="43.6955184" lon="12.5533418"><ele>443.0</ele><time>2026-04-24T11:44:27.945Z</time></trkpt><trkpt lat="43.6956037" lon="12.5531039"><ele>443.0</ele><time>2026-04-24T11:44:28.947Z</time></trkpt><trkpt lat="43.695696" lon="12.5528844"><ele>443.0</ele><time>2026-04-24T11:44:29.947Z</time></trkpt><trkpt lat="43.6957976" lon="12.5526889"><ele>443.0</ele><time>2026-04-24T11:44:30.947Z</time></trkpt><trkpt lat="43.6959065" lon="12.552518"><ele>438.66666666666663</ele><time>2026-04-24T11:44:31.946Z</time></trkpt><trkpt lat="43.6960122" lon="12.5523447"><ele>434.33333333333337</ele><time>2026-04-24T11:44:32.945Z</time></trkpt><trkpt lat="43.6961009" lon="12.5521521"><ele>430.0</ele><time>2026-04-24T11:44:33.946Z</time></trkpt><trkpt lat="43.6961716" lon="12.5519486"><ele>430.0</ele><time>2026-04-24T11:44:34.946Z</time></trkpt><trkpt lat="43.6961855" lon="12.5517115"><ele>430.0</ele><time>2026-04-24T11:44:35.946Z</time></trkpt><trkpt lat="43.6961644" lon="12.551473"><ele>430.0</ele><time>2026-04-24T11:44:36.946Z</time></trkpt><trkpt lat="43.6960917" lon="12.5512492"><ele>428.6666666666667</ele><time>2026-04-24T11:44:37.945Z</time></trkpt><trkpt lat="43.6959858" lon="12.5510527"><ele>427.33333333333337</ele><time>2026-04-24T11:44:38.946Z</time></trkpt><trkpt lat="43.6958629" lon="12.5508846"><ele>426.0</ele><time>2026-04-24T11:44:39.947Z</time></trkpt><trkpt lat="43.695748" lon="12.5507163"><ele>426.0</ele><time>2026-04-24T11:44:40.946Z</time></trkpt><trkpt lat="43.6956773" lon="12.5505098"><ele>426.0</ele><time>2026-04-24T11:44:41.946Z</time></trkpt><trkpt lat="43.6956062" lon="12.5502947"><ele>426.0</ele><time>2026-04-24T11:44:42.947Z</time></trkpt><trkpt lat="43.6955441" lon="12.5500668"><ele>424.66666666666663</ele><time>2026-04-24T11:44:43.946Z</time></trkpt><trkpt lat="43.6954429" lon="12.5498355"><ele>423.3333333333333</ele><time>2026-04-24T11:44:44.947Z</time></trkpt><trkpt lat="43.6953282" lon="12.5496068"><ele>422.0</ele><time>2026-04-24T11:44:45.946Z</time></trkpt><trkpt lat="43.6952075" lon="12.5493946"><ele>422.0</ele><time>2026-04-24T11:44:46.946Z</time></trkpt><trkpt lat="43.6950815" lon="12.5492005"><ele>422.0</ele><time>2026-04-24T11:44:47.946Z</time></trkpt><trkpt lat="43.6949304" lon="12.5490139"><ele>422.0</ele><time>2026-04-24T11:44:48.946Z</time></trkpt><trkpt lat="43.6947482" lon="12.5488754"><ele>422.0</ele><time>2026-04-24T11:44:49.946Z</time></trkpt><trkpt lat="43.6945836" lon="12.5487423"><ele>422.0</ele><time>2026-04-24T11:44:50.946Z</time></trkpt><trkpt lat="43.6944164" lon="12.5486532"><ele>422.0</ele><time>2026-04-24T11:44:51.947Z</time></trkpt><trkpt lat="43.6942403" lon="12.5486117"><ele>420.3333333333333</ele><time>2026-04-24T11:44:52.947Z</time></trkpt><trkpt lat="43.6940572" lon="12.54863"><ele>418.66666666666663</ele><time>2026-04-24T11:44:53.947Z</time></trkpt><trkpt lat="43.6938674" lon="12.5486796"><ele>417.0</ele><time>2026-04-24T11:44:54.947Z</time></trkpt><trkpt lat="43.6936793" lon="12.5487486"><ele>420.33333333333337</ele><time>2026-04-24T11:44:55.946Z</time></trkpt><trkpt lat="43.6934927" lon="12.5488234"><ele>423.6666666666667</ele><time>2026-04-24T11:44:56.946Z</time></trkpt><trkpt lat="43.6933026" lon="12.5489021"><ele>427.0</ele><time>2026-04-24T11:44:57.946Z</time></trkpt><trkpt lat="43.6931122" lon="12.5489867"><ele>427.0</ele><time>2026-04-24T11:44:58.945Z</time></trkpt><trkpt lat="43.6929231" lon="12.5490718"><ele>427.0</ele><time>2026-04-24T11:44:59.945Z</time></trkpt><trkpt lat="43.6927352" lon="12.5491615"><ele>427.0</ele><time>2026-04-24T11:45:00.946Z</time></trkpt><trkpt lat="43.6925588" lon="12.5492688"><ele>431.6666666666667</ele><time>2026-04-24T11:45:01.946Z</time></trkpt><trkpt lat="43.6923864" lon="12.5493745"><ele>436.33333333333337</ele><time>2026-04-24T11:45:02.947Z</time></trkpt><trkpt lat="43.6921996" lon="12.5494488"><ele>441.0</ele><time>2026-04-24T11:45:03.946Z</time></trkpt><trkpt lat="43.6920128" lon="12.549493"><ele>443.66666666666663</ele><time>2026-04-24T11:45:04.945Z</time></trkpt><trkpt lat="43.6918235" lon="12.5495206"><ele>446.3333333333333</ele><time>2026-04-24T11:45:05.947Z</time></trkpt><trkpt lat="43.691622" lon="12.549523"><ele>449.0</ele><time>2026-04-24T11:45:06.946Z</time></trkpt><trkpt lat="43.6914217" lon="12.5495156"><ele>449.0</ele><time>2026-04-24T11:45:07.946Z</time></trkpt><trkpt lat="43.6912198" lon="12.5495011"><ele>449.0</ele><time>2026-04-24T11:45:08.945Z</time></trkpt><trkpt lat="43.6910221" lon="12.5494699"><ele>449.0</ele><time>2026-04-24T11:45:09.946Z</time></trkpt><trkpt lat="43.6908412" lon="12.5494397"><ele>448.0</ele><time>2026-04-24T11:45:10.945Z</time></trkpt><trkpt lat="43.6906701" lon="12.5494028"><ele>447.0</ele><time>2026-04-24T11:45:11.946Z</time></trkpt><trkpt lat="43.6905138" lon="12.5493634"><ele>446.0</ele><time>2026-04-24T11:45:12.945Z</time></trkpt><trkpt lat="43.6903825" lon="12.5493001"><ele>446.0</ele><time>2026-04-24T11:45:13.946Z</time></trkpt><trkpt lat="43.6902937" lon="12.5491972"><ele>446.0</ele><time>2026-04-24T11:45:14.946Z</time></trkpt><trkpt lat="43.6902561" lon="12.5490564"><ele>446.0</ele><time>2026-04-24T11:45:15.945Z</time></trkpt><trkpt lat="43.6902454" lon="12.5488951"><ele>446.0</ele><time>2026-04-24T11:45:16.945Z</time></trkpt><trkpt lat="43.6903068" lon="12.5487089"><ele>444.0</ele><time>2026-04-24T11:45:17.945Z</time></trkpt><trkpt lat="43.6904065" lon="12.5485082"><ele>442.0</ele><time>2026-04-24T11:45:18.947Z</time></trkpt><trkpt lat="43.6905306" lon="12.5483259"><ele>440.0</ele><time>2026-04-24T11:45:19.945Z</time></trkpt><trkpt lat="43.6906702" lon="12.5481686"><ele>440.0</ele><time>2026-04-24T11:45:20.945Z</time></trkpt><trkpt lat="43.6908211" lon="12.5480761"><ele>440.0</ele><time>2026-04-24T11:45:21.945Z</time></trkpt><trkpt lat="43.6909605" lon="12.5479672"><ele>440.0</ele><time>2026-04-24T11:45:22.946Z</time></trkpt><trkpt lat="43.6910785" lon="12.5478356"><ele>444.0</ele><time>2026-04-24T11:45:23.945Z</time></trkpt><trkpt lat="43.6911596" lon="12.5476688"><ele>448.0</ele><time>2026-04-24T11:45:24.946Z</time></trkpt><trkpt lat="43.6911963" lon="12.547492"><ele>452.0</ele><time>2026-04-24T11:45:25.946Z</time></trkpt><trkpt lat="43.6911991" lon="12.547301"><ele>456.0</ele><time>2026-04-24T11:45:26.946Z</time></trkpt><trkpt lat="43.6911098" lon="12.5470997"><ele>448.66666666666663</ele><time>2026-04-24T11:45:27.946Z</time></trkpt><trkpt lat="43.6910427" lon="12.5468786"><ele>441.3333333333333</ele><time>2026-04-24T11:45:28.946Z</time></trkpt><trkpt lat="43.6909936" lon="12.5466457"><ele>434.0</ele><time>2026-04-24T11:45:29.946Z</time></trkpt><trkpt lat="43.690929" lon="12.5464003"><ele>437.3333333333333</ele><time>2026-04-24T11:45:30.946Z</time></trkpt><trkpt lat="43.6908208" lon="12.5462045"><ele>440.66666666666663</ele><time>2026-04-24T11:45:31.946Z</time></trkpt><trkpt lat="43.6907138" lon="12.5460206"><ele>444.0</ele><time>2026-04-24T11:45:32.946Z</time></trkpt><trkpt lat="43.6906333" lon="12.5457965"><ele>444.0</ele><time>2026-04-24T11:45:33.945Z</time></trkpt><trkpt lat="43.690581" lon="12.5455442"><ele>444.0</ele><time>2026-04-24T11:45:34.946Z</time></trkpt><trkpt lat="43.6905476" lon="12.5452805"><ele>444.0</ele><time>2026-04-24T11:45:35.945Z</time></trkpt><trkpt lat="43.6905045" lon="12.5450145"><ele>442.33333333333337</ele><time>2026-04-24T11:45:36.947Z</time></trkpt><trkpt lat="43.6904447" lon="12.5447565"><ele>440.6666666666667</ele><time>2026-04-24T11:45:37.946Z</time></trkpt><trkpt lat="43.6903347" lon="12.5445007"><ele>439.0</ele><time>2026-04-24T11:45:38.945Z</time></trkpt><trkpt lat="43.6902122" lon="12.5442483"><ele>434.0</ele><time>2026-04-24T11:45:39.946Z</time></trkpt><trkpt lat="43.6900672" lon="12.5440087"><ele>429.0</ele><time>2026-04-24T11:45:40.946Z</time></trkpt><trkpt lat="43.6899046" lon="12.5437797"><ele>425.5</ele><time>2026-04-24T11:45:41.946Z</time></trkpt><trkpt lat="43.6897367" lon="12.5435683"><ele>422.0</ele><time>2026-04-24T11:45:42.946Z</time></trkpt><trkpt lat="43.6895524" lon="12.5433911"><ele>423.3333333333333</ele><time>2026-04-24T11:45:43.946Z</time></trkpt><trkpt lat="43.6893557" lon="12.5432582"><ele>424.66666666666663</ele><time>2026-04-24T11:45:44.945Z</time></trkpt><trkpt lat="43.6891482" lon="12.5431485"><ele>426.0</ele><time>2026-04-24T11:45:45.946Z</time></trkpt><trkpt lat="43.6889415" lon="12.5430488"><ele>426.0</ele><time>2026-04-24T11:45:46.946Z</time></trkpt><trkpt lat="43.6887359" lon="12.5429527"><ele>426.0</ele><time>2026-04-24T11:45:47.945Z</time></trkpt><trkpt lat="43.6885324" lon="12.5428552"><ele>426.0</ele><time>2026-04-24T11:45:48.946Z</time></trkpt><trkpt lat="43.6883419" lon="12.5427605"><ele>430.0</ele><time>2026-04-24T11:45:49.947Z</time></trkpt><trkpt lat="43.6881602" lon="12.542676"><ele>434.0</ele><time>2026-04-24T11:45:50.945Z</time></trkpt><trkpt lat="43.6879758" lon="12.5426382"><ele>438.0</ele><time>2026-04-24T11:45:51.946Z</time></trkpt><trkpt lat="43.687791" lon="12.5426729"><ele>440.66666666666663</ele><time>2026-04-24T11:45:52.946Z</time></trkpt><trkpt lat="43.6876185" lon="12.5427445"><ele>443.3333333333333</ele><time>2026-04-24T11:45:53.945Z</time></trkpt><trkpt lat="43.6874548" lon="12.5428231"><ele>446.0</ele><time>2026-04-24T11:45:54.945Z</time></trkpt><trkpt lat="43.6872992" lon="12.5428692"><ele>446.0</ele><time>2026-04-24T11:45:55.945Z</time></trkpt><trkpt lat="43.6871473" lon="12.5428775"><ele>446.0</ele><time>2026-04-24T11:45:56.945Z</time></trkpt><trkpt lat="43.6870046" lon="12.5427819"><ele>446.0</ele><time>2026-04-24T11:45:57.946Z</time></trkpt><trkpt lat="43.6868666" lon="12.5426652"><ele>445.66666666666663</ele><time>2026-04-24T11:45:58.946Z</time></trkpt><trkpt lat="43.6867281" lon="12.5425209"><ele>445.33333333333337</ele><time>2026-04-24T11:45:59.946Z</time></trkpt><trkpt lat="43.68659" lon="12.5423644"><ele>445.0</ele><time>2026-04-24T11:46:00.946Z</time></trkpt><trkpt lat="43.6864541" lon="12.5422024"><ele>445.33333333333337</ele><time>2026-04-24T11:46:01.945Z</time></trkpt><trkpt lat="43.6863079" lon="12.5420439"><ele>445.66666666666663</ele><time>2026-04-24T11:46:02.946Z</time></trkpt><trkpt lat="43.6861412" lon="12.5419255"><ele>446.0</ele><time>2026-04-24T11:46:03.946Z</time></trkpt><trkpt lat="43.6859526" lon="12.5418388"><ele>445.0</ele><time>2026-04-24T11:46:04.946Z</time></trkpt><trkpt lat="43.6857552" lon="12.5417666"><ele>444.0</ele><time>2026-04-24T11:46:05.945Z</time></trkpt><trkpt lat="43.6855534" lon="12.5416961"><ele>443.0</ele><time>2026-04-24T11:46:06.945Z</time></trkpt><trkpt lat="43.6853553" lon="12.5416183"><ele>443.3333333333333</ele><time>2026-04-24T11:46:07.946Z</time></trkpt><trkpt lat="43.6851664" lon="12.541527"><ele>443.66666666666663</ele><time>2026-04-24T11:46:08.945Z</time></trkpt><trkpt lat="43.6849895" lon="12.5414018"><ele>444.0</ele><time>2026-04-24T11:46:09.945Z</time></trkpt><trkpt lat="43.6848323" lon="12.5412439"><ele>445.33333333333337</ele><time>2026-04-24T11:46:10.947Z</time></trkpt><trkpt lat="43.6846834" lon="12.5410702"><ele>446.6666666666667</ele><time>2026-04-24T11:46:11.945Z</time></trkpt><trkpt lat="43.6845373" lon="12.5408866"><ele>448.0</ele><time>2026-04-24T11:46:12.945Z</time></trkpt><trkpt lat="43.6844053" lon="12.5406848"><ele>448.0</ele><time>2026-04-24T11:46:13.946Z</time></trkpt><trkpt lat="43.6843074" lon="12.5404489"><ele>448.0</ele><time>2026-04-24T11:46:14.945Z</time></trkpt><trkpt lat="43.6842236" lon="12.5402118"><ele>448.0</ele><time>2026-04-24T11:46:15.945Z</time></trkpt><trkpt lat="43.6841732" lon="12.5399728"><ele>445.33333333333337</ele><time>2026-04-24T11:46:16.946Z</time></trkpt><trkpt lat="43.6841248" lon="12.539758"><ele>442.66666666666663</ele><time>2026-04-24T11:46:17.946Z</time></trkpt><trkpt lat="43.6840725" lon="12.539556"><ele>440.0</ele><time>2026-04-24T11:46:18.945Z</time></trkpt><trkpt lat="43.6839996" lon="12.5393788"><ele>441.0</ele><time>2026-04-24T11:46:19.945Z</time></trkpt><trkpt lat="43.6838853" lon="12.5392437"><ele>442.0</ele><time>2026-04-24T11:46:20.945Z</time></trkpt><trkpt lat="43.6837427" lon="12.5391411"><ele>443.0</ele><time>2026-04-24T11:46:21.946Z</time></trkpt><trkpt lat="43.6835952" lon="12.5390437"><ele>443.0</ele><time>2026-04-24T11:46:22.946Z</time></trkpt><trkpt lat="43.683469" lon="12.5389112"><ele>443.0</ele><time>2026-04-24T11:46:23.945Z</time></trkpt><trkpt lat="43.6833931" lon="12.5387438"><ele>443.0</ele><time>2026-04-24T11:46:24.946Z</time></trkpt><trkpt lat="43.6833424" lon="12.5385558"><ele>443.0</ele><time>2026-04-24T11:46:25.946Z</time></trkpt><trkpt lat="43.6833249" lon="12.538323"><ele>441.0</ele><time>2026-04-24T11:46:26.945Z</time></trkpt><trkpt lat="43.6832743" lon="12.5380848"><ele>439.0</ele><time>2026-04-24T11:46:27.945Z</time></trkpt><trkpt lat="43.6832162" lon="12.5378462"><ele>437.0</ele><time>2026-04-24T11:46:28.946Z</time></trkpt><trkpt lat="43.6831365" lon="12.5376082"><ele>433.66666666666663</ele><time>2026-04-24T11:46:29.946Z</time></trkpt><trkpt lat="43.6830454" lon="12.53738"><ele>430.33333333333337</ele><time>2026-04-24T11:46:30.945Z</time></trkpt><trkpt lat="43.6829423" lon="12.5371657"><ele>427.0</ele><time>2026-04-24T11:46:31.945Z</time></trkpt><trkpt lat="43.6828364" lon="12.5369801"><ele>428.33333333333337</ele><time>2026-04-24T11:46:32.946Z</time></trkpt><trkpt lat="43.6827167" lon="12.5368172"><ele>429.66666666666663</ele><time>2026-04-24T11:46:33.945Z</time></trkpt><trkpt lat="43.68257" lon="12.5367047"><ele>431.0</ele><time>2026-04-24T11:46:34.945Z</time></trkpt><trkpt lat="43.682409" lon="12.5366435"><ele>431.0</ele><time>2026-04-24T11:46:35.946Z</time></trkpt><trkpt lat="43.682253" lon="12.5366003"><ele>431.0</ele><time>2026-04-24T11:46:36.946Z</time></trkpt><trkpt lat="43.6821289" lon="12.5365624"><ele>431.0</ele><time>2026-04-24T11:46:37.947Z</time></trkpt><trkpt lat="43.6820386" lon="12.5365277"><ele>431.0</ele><time>2026-04-24T11:46:38.945Z</time></trkpt><trkpt lat="43.6819781" lon="12.5364564"><ele>431.0</ele><time>2026-04-24T11:46:39.945Z</time></trkpt><trkpt lat="43.6819753" lon="12.5363659"><ele>431.0</ele><time>2026-04-24T11:46:40.945Z</time></trkpt><trkpt lat="43.6820338" lon="12.5362728"><ele>431.0</ele><time>2026-04-24T11:46:41.945Z</time></trkpt><trkpt lat="43.6821301" lon="12.5361856"><ele>431.0</ele><time>2026-04-24T11:46:42.945Z</time></trkpt><trkpt lat="43.6822258" lon="12.5360539"><ele>431.0</ele><time>2026-04-24T11:46:43.946Z</time></trkpt><trkpt lat="43.6823012" lon="12.5359021"><ele>428.25</ele><time>2026-04-24T11:46:44.946Z</time></trkpt><trkpt lat="43.6823511" lon="12.5357414"><ele>425.5</ele><time>2026-04-24T11:46:45.945Z</time></trkpt><trkpt lat="43.6823302" lon="12.5355857"><ele>422.75</ele><time>2026-04-24T11:46:46.946Z</time></trkpt><trkpt lat="43.6822626" lon="12.5354482"><ele>420.0</ele><time>2026-04-24T11:46:47.946Z</time></trkpt><trkpt lat="43.6821478" lon="12.5353537"><ele>418.5</ele><time>2026-04-24T11:46:48.947Z</time></trkpt><trkpt lat="43.6820062" lon="12.535289"><ele>417.0</ele><time>2026-04-24T11:46:49.945Z</time></trkpt><trkpt lat="43.6818673" lon="12.5352342"><ele>415.5</ele><time>2026-04-24T11:46:50.945Z</time></trkpt><trkpt lat="43.6817575" lon="12.5351793"><ele>414.0</ele><time>2026-04-24T11:46:51.945Z</time></trkpt><trkpt lat="43.681674" lon="12.5351089"><ele>414.0</ele><time>2026-04-24T11:46:52.945Z</time></trkpt><trkpt lat="43.681667" lon="12.5350139"><ele>414.0</ele><time>2026-04-24T11:46:53.945Z</time></trkpt><trkpt lat="43.6817088" lon="12.5349465"><ele>414.0</ele><time>2026-04-24T11:46:54.945Z</time></trkpt><trkpt lat="43.6817695" lon="12.5349223"><ele>414.0</ele><time>2026-04-24T11:46:55.946Z</time></trkpt><trkpt lat="43.6819161" lon="12.5349596"><ele>414.0</ele><time>2026-04-24T11:46:56.947Z</time></trkpt><trkpt lat="43.6820691" lon="12.5349751"><ele>412.5</ele><time>2026-04-24T11:46:57.946Z</time></trkpt><trkpt lat="43.6822251" lon="12.5349772"><ele>411.0</ele><time>2026-04-24T11:46:58.946Z</time></trkpt><trkpt lat="43.6823784" lon="12.5349808"><ele>409.5</ele><time>2026-04-24T11:46:59.945Z</time></trkpt><trkpt lat="43.6825176" lon="12.5349789"><ele>408.0</ele><time>2026-04-24T11:47:00.947Z</time></trkpt><trkpt lat="43.6826378" lon="12.534916"><ele>408.0</ele><time>2026-04-24T11:47:01.945Z</time></trkpt><trkpt lat="43.6827339" lon="12.5347862"><ele>408.0</ele><time>2026-04-24T11:47:02.945Z</time></trkpt><trkpt lat="43.6828114" lon="12.5346236"><ele>408.0</ele><time>2026-04-24T11:47:03.946Z</time></trkpt><trkpt lat="43.6828236" lon="12.5344179"><ele>408.0</ele><time>2026-04-24T11:47:04.945Z</time></trkpt><trkpt lat="43.6828016" lon="12.5342245"><ele>407.33333333333337</ele><time>2026-04-24T11:47:05.945Z</time></trkpt><trkpt lat="43.6827269" lon="12.5340478"><ele>406.6666666666667</ele><time>2026-04-24T11:47:06.946Z</time></trkpt><trkpt lat="43.682625" lon="12.5338889"><ele>406.0</ele><time>2026-04-24T11:47:07.945Z</time></trkpt><trkpt lat="43.6824666" lon="12.5338129"><ele>406.0</ele><time>2026-04-24T11:47:08.945Z</time></trkpt><trkpt lat="43.6823295" lon="12.5337362"><ele>406.0</ele><time>2026-04-24T11:47:09.946Z</time></trkpt><trkpt lat="43.6822105" lon="12.5336389"><ele>406.0</ele><time>2026-04-24T11:47:10.945Z</time></trkpt><trkpt lat="43.682155" lon="12.5334783"><ele>406.0</ele><time>2026-04-24T11:47:11.945Z</time></trkpt><trkpt lat="43.6821423" lon="12.5332773"><ele>409.0</ele><time>2026-04-24T11:47:12.945Z</time></trkpt><trkpt lat="43.6821465" lon="12.5330562"><ele>412.0</ele><time>2026-04-24T11:47:13.945Z</time></trkpt><trkpt lat="43.682165" lon="12.5327904"><ele>415.0</ele><time>2026-04-24T11:47:14.946Z</time></trkpt><trkpt lat="43.6821685" lon="12.5325411"><ele>416.33333333333337</ele><time>2026-04-24T11:47:15.946Z</time></trkpt><trkpt lat="43.6821085" lon="12.5323166"><ele>417.66666666666663</ele><time>2026-04-24T11:47:16.945Z</time></trkpt><trkpt lat="43.6820551" lon="12.5320934"><ele>419.0</ele><time>2026-04-24T11:47:17.945Z</time></trkpt><trkpt lat="43.6820361" lon="12.5318796"><ele>415.0</ele><time>2026-04-24T11:47:18.947Z</time></trkpt><trkpt lat="43.6820694" lon="12.5316758"><ele>411.0</ele><time>2026-04-24T11:47:19.945Z</time></trkpt><trkpt lat="43.6821197" lon="12.5314601"><ele>407.0</ele><time>2026-04-24T11:47:20.945Z</time></trkpt><trkpt lat="43.6821927" lon="12.5312476"><ele>401.3333333333333</ele><time>2026-04-24T11:47:21.945Z</time></trkpt><trkpt lat="43.6822847" lon="12.5310449"><ele>395.66666666666663</ele><time>2026-04-24T11:47:22.945Z</time></trkpt><trkpt lat="43.6823989" lon="12.5308707"><ele>390.0</ele><time>2026-04-24T11:47:23.946Z</time></trkpt><trkpt lat="43.6825256" lon="12.5307383"><ele>390.0</ele><time>2026-04-24T11:47:24.946Z</time></trkpt><trkpt lat="43.6826633" lon="12.5306385"><ele>390.0</ele><time>2026-04-24T11:47:25.945Z</time></trkpt><trkpt lat="43.6828053" lon="12.5305606"><ele>390.0</ele><time>2026-04-24T11:47:26.945Z</time></trkpt><trkpt lat="43.6829262" lon="12.5304547"><ele>393.5</ele><time>2026-04-24T11:47:27.945Z</time></trkpt><trkpt lat="43.6830052" lon="12.5303005"><ele>397.0</ele><time>2026-04-24T11:47:28.945Z</time></trkpt><trkpt lat="43.6830598" lon="12.5301372"><ele>400.5</ele><time>2026-04-24T11:47:29.945Z</time></trkpt><trkpt lat="43.6830633" lon="12.529961"><ele>404.0</ele><time>2026-04-24T11:47:30.946Z</time></trkpt><trkpt lat="43.6829799" lon="12.5297932"><ele>404.0</ele><time>2026-04-24T11:47:31.945Z</time></trkpt><trkpt lat="43.6828843" lon="12.5296207"><ele>404.0</ele><time>2026-04-24T11:47:32.945Z</time></trkpt><trkpt lat="43.6828155" lon="12.5294275"><ele>404.0</ele><time>2026-04-24T11:47:33.945Z</time></trkpt><trkpt lat="43.6827476" lon="12.5292263"><ele>397.3333333333333</ele><time>2026-04-24T11:47:34.945Z</time></trkpt><trkpt lat="43.6826563" lon="12.5290394"><ele>390.66666666666663</ele><time>2026-04-24T11:47:35.945Z</time></trkpt><trkpt lat="43.6825294" lon="12.5289024"><ele>384.0</ele><time>2026-04-24T11:47:36.945Z</time></trkpt><trkpt lat="43.6824162" lon="12.528755"><ele>384.0</ele><time>2026-04-24T11:47:37.945Z</time></trkpt><trkpt lat="43.6823165" lon="12.5287213"><ele>384.0</ele><time>2026-04-24T11:47:38.946Z</time></trkpt><trkpt lat="43.6822358" lon="12.5286982"><ele>384.0</ele><time>2026-04-24T11:47:39.946Z</time></trkpt><trkpt lat="43.6821742" lon="12.5287611"><ele>384.0</ele><time>2026-04-24T11:47:40.945Z</time></trkpt><trkpt lat="43.682148" lon="12.5288616"><ele>384.0</ele><time>2026-04-24T11:47:41.945Z</time></trkpt><trkpt lat="43.6821792" lon="12.5289867"><ele>384.0</ele><time>2026-04-24T11:47:42.945Z</time></trkpt><trkpt lat="43.6822682" lon="12.5290722"><ele>384.0</ele><time>2026-04-24T11:47:43.945Z</time></trkpt><trkpt lat="43.6823801" lon="12.529153"><ele>384.0</ele><time>2026-04-24T11:47:44.946Z</time></trkpt><trkpt lat="43.6824883" lon="12.5292424"><ele>384.0</ele><time>2026-04-24T11:47:45.945Z</time></trkpt><trkpt lat="43.6825515" lon="12.52939"><ele>384.0</ele><time>2026-04-24T11:47:46.946Z</time></trkpt><trkpt lat="43.6825909" lon="12.5295666"><ele>383.1666666666667</ele><time>2026-04-24T11:47:47.945Z</time></trkpt><trkpt lat="43.682614" lon="12.5297365"><ele>382.3333333333333</ele><time>2026-04-24T11:47:48.946Z</time></trkpt><trkpt lat="43.682601" lon="12.5298665"><ele>381.5</ele><time>2026-04-24T11:47:49.945Z</time></trkpt><trkpt lat="43.6825579" lon="12.5299425"><ele>380.66666666666663</ele><time>2026-04-24T11:47:50.945Z</time></trkpt><trkpt lat="43.6824928" lon="12.5299423"><ele>379.8333333333333</ele><time>2026-04-24T11:47:51.945Z</time></trkpt><trkpt lat="43.6824427" lon="12.5298616"><ele>379.0</ele><time>2026-04-24T11:47:52.945Z</time></trkpt><trkpt lat="43.6824249" lon="12.5297222"><ele>380.25</ele><time>2026-04-24T11:47:53.945Z</time></trkpt><trkpt lat="43.6824058" lon="12.5295509"><ele>381.5</ele><time>2026-04-24T11:47:54.945Z</time></trkpt><trkpt lat="43.6823592" lon="12.5293914"><ele>382.75</ele><time>2026-04-24T11:47:55.945Z</time></trkpt><trkpt lat="43.6822112" lon="12.5292947"><ele>384.0</ele><time>2026-04-24T11:47:56.945Z</time></trkpt><trkpt lat="43.6820723" lon="12.5292073"><ele>382.3333333333333</ele><time>2026-04-24T11:47:57.947Z</time></trkpt><trkpt lat="43.6818707" lon="12.5292469"><ele>380.66666666666663</ele><time>2026-04-24T11:47:58.945Z</time></trkpt><trkpt lat="43.6816753" lon="12.5293144"><ele>379.0</ele><time>2026-04-24T11:47:59.945Z</time></trkpt><trkpt lat="43.6814864" lon="12.5294107"><ele>379.0</ele><time>2026-04-24T11:48:00.945Z</time></trkpt><trkpt lat="43.6812996" lon="12.5295173"><ele>379.0</ele><time>2026-04-24T11:48:01.945Z</time></trkpt><trkpt lat="43.6811187" lon="12.5296034"><ele>379.0</ele><time>2026-04-24T11:48:02.945Z</time></trkpt><trkpt lat="43.680957" lon="12.5296729"><ele>376.25</ele><time>2026-04-24T11:48:03.945Z</time></trkpt><trkpt lat="43.6808077" lon="12.5296669"><ele>373.5</ele><time>2026-04-24T11:48:04.945Z</time></trkpt><trkpt lat="43.6806919" lon="12.5295836"><ele>370.75</ele><time>2026-04-24T11:48:05.945Z</time></trkpt><trkpt lat="43.680618" lon="12.5293954"><ele>368.0</ele><time>2026-04-24T11:48:06.945Z</time></trkpt><trkpt lat="43.680533" lon="12.5292138"><ele>368.0</ele><time>2026-04-24T11:48:07.945Z</time></trkpt><trkpt lat="43.6804473" lon="12.5290048"><ele>368.0</ele><time>2026-04-24T11:48:08.945Z</time></trkpt><trkpt lat="43.6803683" lon="12.5288058"><ele>368.0</ele><time>2026-04-24T11:48:09.945Z</time></trkpt><trkpt lat="43.6802996" lon="12.5286481"><ele>364.59999999999997</ele><time>2026-04-24T11:48:10.944Z</time></trkpt><trkpt lat="43.6802274" lon="12.5285259"><ele>361.2</ele><time>2026-04-24T11:48:11.946Z</time></trkpt><trkpt lat="43.6801371" lon="12.5284613"><ele>357.8</ele><time>2026-04-24T11:48:12.945Z</time></trkpt><trkpt lat="43.6800413" lon="12.5284726"><ele>354.4</ele><time>2026-04-24T11:48:13.947Z</time></trkpt><trkpt lat="43.6799851" lon="12.5285562"><ele>351.0</ele><time>2026-04-24T11:48:14.945Z</time></trkpt><trkpt lat="43.6799513" lon="12.5286789"><ele>349.3333333333333</ele><time>2026-04-24T11:48:15.945Z</time></trkpt><trkpt lat="43.6800447" lon="12.5288359"><ele>347.66666666666663</ele><time>2026-04-24T11:48:16.945Z</time></trkpt><trkpt lat="43.6801297" lon="12.5290035"><ele>346.0</ele><time>2026-04-24T11:48:17.945Z</time></trkpt><trkpt lat="43.6802298" lon="12.5291976"><ele>348.66666666666663</ele><time>2026-04-24T11:48:18.945Z</time></trkpt><trkpt lat="43.6803141" lon="12.529452"><ele>351.3333333333333</ele><time>2026-04-24T11:48:19.945Z</time></trkpt><trkpt lat="43.6803849" lon="12.529721"><ele>354.0</ele><time>2026-04-24T11:48:20.945Z</time></trkpt><trkpt lat="43.6804346" lon="12.5299873"><ele>354.0</ele><time>2026-04-24T11:48:21.946Z</time></trkpt><trkpt lat="43.6804655" lon="12.5302483"><ele>354.0</ele><time>2026-04-24T11:48:22.944Z</time></trkpt><trkpt lat="43.6804813" lon="12.530474"><ele>354.0</ele><time>2026-04-24T11:48:23.946Z</time></trkpt><trkpt lat="43.6804689" lon="12.5306583"><ele>353.25</ele><time>2026-04-24T11:48:24.946Z</time></trkpt><trkpt lat="43.6804146" lon="12.5308129"><ele>352.5</ele><time>2026-04-24T11:48:25.946Z</time></trkpt><trkpt lat="43.6803176" lon="12.5309113"><ele>351.75</ele><time>2026-04-24T11:48:26.944Z</time></trkpt><trkpt lat="43.6802026" lon="12.5309285"><ele>351.0</ele><time>2026-04-24T11:48:27.944Z</time></trkpt><trkpt lat="43.6801025" lon="12.5308585"><ele>347.75</ele><time>2026-04-24T11:48:28.946Z</time></trkpt><trkpt lat="43.6800445" lon="12.5307157"><ele>344.5</ele><time>2026-04-24T11:48:29.946Z</time></trkpt><trkpt lat="43.6800342" lon="12.5305272"><ele>341.25</ele><time>2026-04-24T11:48:30.944Z</time></trkpt><trkpt lat="43.679999" lon="12.530312"><ele>338.0</ele><time>2026-04-24T11:48:31.946Z</time></trkpt><trkpt lat="43.6799111" lon="12.5300963"><ele>337.6666666666667</ele><time>2026-04-24T11:48:32.945Z</time></trkpt><trkpt lat="43.6797837" lon="12.5298974"><ele>337.3333333333333</ele><time>2026-04-24T11:48:33.945Z</time></trkpt><trkpt lat="43.6796207" lon="12.5297257"><ele>337.0</ele><time>2026-04-24T11:48:34.945Z</time></trkpt><trkpt lat="43.6794329" lon="12.5295784"><ele>335.66666666666663</ele><time>2026-04-24T11:48:35.945Z</time></trkpt><trkpt lat="43.6792409" lon="12.529425"><ele>334.3333333333333</ele><time>2026-04-24T11:48:36.946Z</time></trkpt><trkpt lat="43.6790574" lon="12.5292573"><ele>333.0</ele><time>2026-04-24T11:48:37.946Z</time></trkpt><trkpt lat="43.6788885" lon="12.5290732"><ele>333.0</ele><time>2026-04-24T11:48:38.944Z</time></trkpt><trkpt lat="43.6787331" lon="12.5288725"><ele>333.0</ele><time>2026-04-24T11:48:39.945Z</time></trkpt><trkpt lat="43.678589" lon="12.5286613"><ele>333.0</ele><time>2026-04-24T11:48:40.946Z</time></trkpt><trkpt lat="43.6784614" lon="12.5284316"><ele>330.0</ele><time>2026-04-24T11:48:41.945Z</time></trkpt><trkpt lat="43.6783546" lon="12.5281964"><ele>327.0</ele><time>2026-04-24T11:48:42.944Z</time></trkpt><trkpt lat="43.6782653" lon="12.5279595"><ele>324.0</ele><time>2026-04-24T11:48:43.946Z</time></trkpt><trkpt lat="43.6781903" lon="12.5277256"><ele>324.0</ele><time>2026-04-24T11:48:44.945Z</time></trkpt><trkpt lat="43.6781318" lon="12.5274956"><ele>324.0</ele><time>2026-04-24T11:48:45.946Z</time></trkpt><trkpt lat="43.6780748" lon="12.5272731"><ele>324.0</ele><time>2026-04-24T11:48:46.946Z</time></trkpt><trkpt lat="43.678021" lon="12.5270593"><ele>324.0</ele><time>2026-04-24T11:48:47.946Z</time></trkpt><trkpt lat="43.6779742" lon="12.526881"><ele>324.0</ele><time>2026-04-24T11:48:48.945Z</time></trkpt><trkpt lat="43.6779156" lon="12.5267406"><ele>324.0</ele><time>2026-04-24T11:48:49.945Z</time></trkpt><trkpt lat="43.677842" lon="12.526682"><ele>324.0</ele><time>2026-04-24T11:48:50.946Z</time></trkpt><trkpt lat="43.677747" lon="12.5266862"><ele>324.0</ele><time>2026-04-24T11:48:51.946Z</time></trkpt><trkpt lat="43.6776259" lon="12.5267176"><ele>321.0</ele><time>2026-04-24T11:48:52.944Z</time></trkpt><trkpt lat="43.6774908" lon="12.5267015"><ele>318.0</ele><time>2026-04-24T11:48:53.946Z</time></trkpt><trkpt lat="43.6773624" lon="12.5265934"><ele>315.0</ele><time>2026-04-24T11:48:54.946Z</time></trkpt><trkpt lat="43.6772634" lon="12.5264278"><ele>312.0</ele><time>2026-04-24T11:48:55.944Z</time></trkpt><trkpt lat="43.6771827" lon="12.5262241"><ele>310.3333333333333</ele><time>2026-04-24T11:48:56.945Z</time></trkpt><trkpt lat="43.6771295" lon="12.5260183"><ele>308.66666666666663</ele><time>2026-04-24T11:48:57.946Z</time></trkpt><trkpt lat="43.6771174" lon="12.5258042"><ele>307.0</ele><time>2026-04-24T11:48:58.945Z</time></trkpt><trkpt lat="43.6771464" lon="12.5256158"><ele>307.0</ele><time>2026-04-24T11:48:59.947Z</time></trkpt><trkpt lat="43.6771822" lon="12.5254486"><ele>307.0</ele><time>2026-04-24T11:49:00.946Z</time></trkpt><trkpt lat="43.6771938" lon="12.5253142"><ele>307.0</ele><time>2026-04-24T11:49:01.946Z</time></trkpt><trkpt lat="43.6771559" lon="12.5252122"><ele>307.0</ele><time>2026-04-24T11:49:02.944Z</time></trkpt><trkpt lat="43.6770824" lon="12.5251794"><ele>307.0</ele><time>2026-04-24T11:49:03.945Z</time></trkpt><trkpt lat="43.6769835" lon="12.5252292"><ele>305.0</ele><time>2026-04-24T11:49:04.945Z</time></trkpt><trkpt lat="43.6768634" lon="12.5253087"><ele>303.0</ele><time>2026-04-24T11:49:05.944Z</time></trkpt><trkpt lat="43.6767251" lon="12.5253152"><ele>301.0</ele><time>2026-04-24T11:49:06.945Z</time></trkpt><trkpt lat="43.6765795" lon="12.5252353"><ele>299.0</ele><time>2026-04-24T11:49:07.947Z</time></trkpt><trkpt lat="43.6764336" lon="12.5251086"><ele>299.0</ele><time>2026-04-24T11:49:08.945Z</time></trkpt><trkpt lat="43.6762835" lon="12.5249691"><ele>299.0</ele><time>2026-04-24T11:49:09.945Z</time></trkpt><trkpt lat="43.6761402" lon="12.5248324"><ele>299.0</ele><time>2026-04-24T11:49:10.945Z</time></trkpt><trkpt lat="43.6760019" lon="12.5247057"><ele>299.5</ele><time>2026-04-24T11:49:11.944Z</time></trkpt><trkpt lat="43.6758631" lon="12.5245866"><ele>300.0</ele><time>2026-04-24T11:49:12.946Z</time></trkpt><trkpt lat="43.6757354" lon="12.5244876"><ele>300.5</ele><time>2026-04-24T11:49:13.944Z</time></trkpt><trkpt lat="43.6756237" lon="12.5243974"><ele>301.0</ele><time>2026-04-24T11:49:14.945Z</time></trkpt><trkpt lat="43.6755251" lon="12.5242883"><ele>298.6</ele><time>2026-04-24T11:49:15.945Z</time></trkpt><trkpt lat="43.6754529" lon="12.5241698"><ele>296.20000000000005</ele><time>2026-04-24T11:49:16.944Z</time></trkpt><trkpt lat="43.675379" lon="12.5240604"><ele>293.79999999999995</ele><time>2026-04-24T11:49:17.945Z</time></trkpt><trkpt lat="43.6752917" lon="12.523995"><ele>291.4</ele><time>2026-04-24T11:49:18.944Z</time></trkpt><trkpt lat="43.6752005" lon="12.5239881"><ele>289.0</ele><time>2026-04-24T11:49:19.946Z</time></trkpt><trkpt lat="43.6751163" lon="12.5240421"><ele>288.0</ele><time>2026-04-24T11:49:20.946Z</time></trkpt><trkpt lat="43.6750225" lon="12.5241151"><ele>287.0</ele><time>2026-04-24T11:49:21.945Z</time></trkpt><trkpt lat="43.6748952" lon="12.5241504"><ele>286.0</ele><time>2026-04-24T11:49:22.946Z</time></trkpt><trkpt lat="43.674759" lon="12.5241346"><ele>285.0</ele><time>2026-04-24T11:49:23.944Z</time></trkpt><trkpt lat="43.6746104" lon="12.5240841"><ele>285.0</ele><time>2026-04-24T11:49:24.946Z</time></trkpt><trkpt lat="43.674447" lon="12.5240269"><ele>285.0</ele><time>2026-04-24T11:49:25.946Z</time></trkpt><trkpt lat="43.6742755" lon="12.5239582"><ele>285.0</ele><time>2026-04-24T11:49:26.944Z</time></trkpt><trkpt lat="43.6741" lon="12.5238746"><ele>284.6666666666667</ele><time>2026-04-24T11:49:27.944Z</time></trkpt><trkpt lat="43.67392" lon="12.5237855"><ele>284.33333333333337</ele><time>2026-04-24T11:49:28.945Z</time></trkpt><trkpt lat="43.6737381" lon="12.5236961"><ele>284.0</ele><time>2026-04-24T11:49:29.944Z</time></trkpt><trkpt lat="43.6735504" lon="12.523608"><ele>282.33333333333337</ele><time>2026-04-24T11:49:30.944Z</time></trkpt><trkpt lat="43.673365" lon="12.5235252"><ele>280.6666666666667</ele><time>2026-04-24T11:49:31.944Z</time></trkpt><trkpt lat="43.6731819" lon="12.5234391"><ele>279.0</ele><time>2026-04-24T11:49:32.945Z</time></trkpt><trkpt lat="43.6730097" lon="12.5233574"><ele>279.0</ele><time>2026-04-24T11:49:33.945Z</time></trkpt><trkpt lat="43.6728451" lon="12.5232821"><ele>279.0</ele><time>2026-04-24T11:49:34.945Z</time></trkpt><trkpt lat="43.6726962" lon="12.5232111"><ele>279.0</ele><time>2026-04-24T11:49:35.944Z</time></trkpt><trkpt lat="43.6725569" lon="12.5231386"><ele>278.8</ele><time>2026-04-24T11:49:36.945Z</time></trkpt><trkpt lat="43.6724371" lon="12.5230812"><ele>278.59999999999997</ele><time>2026-04-24T11:49:37.944Z</time></trkpt><trkpt lat="43.6723344" lon="12.5230261"><ele>278.4</ele><time>2026-04-24T11:49:38.944Z</time></trkpt><trkpt lat="43.6722403" lon="12.5229652"><ele>278.2</ele><time>2026-04-24T11:49:39.945Z</time></trkpt><trkpt lat="43.6721899" lon="12.5228759"><ele>278.0</ele><time>2026-04-24T11:49:40.945Z</time></trkpt><trkpt lat="43.6721569" lon="12.5227777"><ele>278.0</ele><time>2026-04-24T11:49:41.945Z</time></trkpt><trkpt lat="43.6721244" lon="12.5226869"><ele>278.0</ele><time>2026-04-24T11:49:42.945Z</time></trkpt><trkpt lat="43.6720638" lon="12.5226044"><ele>278.0</ele><time>2026-04-24T11:49:43.945Z</time></trkpt><trkpt lat="43.6719851" lon="12.522534"><ele>278.0</ele><time>2026-04-24T11:49:44.944Z</time></trkpt><trkpt lat="43.6718777" lon="12.5224773"><ele>278.0</ele><time>2026-04-24T11:49:45.944Z</time></trkpt><trkpt lat="43.6717603" lon="12.5224029"><ele>277.75</ele><time>2026-04-24T11:49:46.946Z</time></trkpt><trkpt lat="43.6716418" lon="12.5222965"><ele>277.5</ele><time>2026-04-24T11:49:47.945Z</time></trkpt><trkpt lat="43.6715398" lon="12.5221425"><ele>277.25</ele><time>2026-04-24T11:49:48.945Z</time></trkpt><trkpt lat="43.6714548" lon="12.5219755"><ele>277.0</ele><time>2026-04-24T11:49:49.947Z</time></trkpt><trkpt lat="43.6713854" lon="12.5218008"><ele>276.75</ele><time>2026-04-24T11:49:50.945Z</time></trkpt><trkpt lat="43.6713273" lon="12.5216219"><ele>276.5</ele><time>2026-04-24T11:49:51.944Z</time></trkpt><trkpt lat="43.6712777" lon="12.5214372"><ele>276.25</ele><time>2026-04-24T11:49:52.944Z</time></trkpt><trkpt lat="43.6712344" lon="12.5212496"><ele>276.0</ele><time>2026-04-24T11:49:53.944Z</time></trkpt><trkpt lat="43.6712154" lon="12.5210475"><ele>275.5</ele><time>2026-04-24T11:49:54.946Z</time></trkpt><trkpt lat="43.671199" lon="12.5208493"><ele>275.0</ele><time>2026-04-24T11:49:55.944Z</time></trkpt><trkpt lat="43.6711913" lon="12.5206521"><ele>274.5</ele><time>2026-04-24T11:49:56.946Z</time></trkpt><trkpt lat="43.6711983" lon="12.5204565"><ele>274.0</ele><time>2026-04-24T11:49:57.946Z</time></trkpt><trkpt lat="43.6712089" lon="12.5202622"><ele>272.5</ele><time>2026-04-24T11:49:58.946Z</time></trkpt><trkpt lat="43.6712292" lon="12.5200704"><ele>271.0</ele><time>2026-04-24T11:49:59.944Z</time></trkpt><trkpt lat="43.6712506" lon="12.5198774"><ele>269.5</ele><time>2026-04-24T11:50:00.945Z</time></trkpt><trkpt lat="43.6712692" lon="12.5196798"><ele>268.0</ele><time>2026-04-24T11:50:01.944Z</time></trkpt><trkpt lat="43.6712886" lon="12.5194896"><ele>268.0</ele><time>2026-04-24T11:50:02.945Z</time></trkpt><trkpt lat="43.6713016" lon="12.5192971"><ele>268.0</ele><time>2026-04-24T11:50:03.944Z</time></trkpt><trkpt lat="43.6713132" lon="12.5191193"><ele>268.0</ele><time>2026-04-24T11:50:04.944Z</time></trkpt><trkpt lat="43.6713266" lon="12.518958"><ele>268.0</ele><time>2026-04-24T11:50:05.946Z</time></trkpt><trkpt lat="43.6713398" lon="12.5188076"><ele>270.0</ele><time>2026-04-24T11:50:06.944Z</time></trkpt><trkpt lat="43.6713484" lon="12.5186739"><ele>272.0</ele><time>2026-04-24T11:50:07.945Z</time></trkpt><trkpt lat="43.6713599" lon="12.5185518"><ele>274.0</ele><time>2026-04-24T11:50:08.944Z</time></trkpt><trkpt lat="43.6713747" lon="12.5184283"><ele>276.0</ele><time>2026-04-24T11:50:09.945Z</time></trkpt><trkpt lat="43.6714013" lon="12.5183086"><ele>278.0</ele><time>2026-04-24T11:50:10.944Z</time></trkpt><trkpt lat="43.6714252" lon="12.5181925"><ele>278.0</ele><time>2026-04-24T11:50:11.944Z</time></trkpt><trkpt lat="43.6714485" lon="12.5180791"><ele>278.0</ele><time>2026-04-24T11:50:12.945Z</time></trkpt><trkpt lat="43.6714743" lon="12.5179684"><ele>278.0</ele><time>2026-04-24T11:50:13.945Z</time></trkpt><trkpt lat="43.6715071" lon="12.5178531"><ele>278.0</ele><time>2026-04-24T11:50:14.944Z</time></trkpt><trkpt lat="43.6715492" lon="12.5177276"><ele>278.0</ele><time>2026-04-24T11:50:15.945Z</time></trkpt><trkpt lat="43.6716029" lon="12.5175907"><ele>278.75</ele><time>2026-04-24T11:50:16.945Z</time></trkpt><trkpt lat="43.6716732" lon="12.5174457"><ele>279.5</ele><time>2026-04-24T11:50:17.946Z</time></trkpt><trkpt lat="43.6717542" lon="12.5172987"><ele>280.25</ele><time>2026-04-24T11:50:18.946Z</time></trkpt><trkpt lat="43.6718519" lon="12.5171455"><ele>281.0</ele><time>2026-04-24T11:50:19.944Z</time></trkpt><trkpt lat="43.6719621" lon="12.5170013"><ele>282.33333333333337</ele><time>2026-04-24T11:50:20.944Z</time></trkpt><trkpt lat="43.6720826" lon="12.5168552"><ele>283.6666666666667</ele><time>2026-04-24T11:50:21.945Z</time></trkpt><trkpt lat="43.6722009" lon="12.5167127"><ele>285.0</ele><time>2026-04-24T11:50:22.944Z</time></trkpt><trkpt lat="43.6723222" lon="12.5165685"><ele>285.0</ele><time>2026-04-24T11:50:23.945Z</time></trkpt><trkpt lat="43.6724504" lon="12.5164244"><ele>285.0</ele><time>2026-04-24T11:50:24.946Z</time></trkpt><trkpt lat="43.6725833" lon="12.5162776"><ele>285.0</ele><time>2026-04-24T11:50:25.945Z</time></trkpt><trkpt lat="43.6727134" lon="12.5161249"><ele>286.6666666666667</ele><time>2026-04-24T11:50:26.945Z</time></trkpt><trkpt lat="43.6728426" lon="12.5159703"><ele>288.33333333333337</ele><time>2026-04-24T11:50:27.946Z</time></trkpt><trkpt lat="43.6729685" lon="12.5158254"><ele>290.0</ele><time>2026-04-24T11:50:28.944Z</time></trkpt><trkpt lat="43.6731012" lon="12.5156738"><ele>290.0</ele><time>2026-04-24T11:50:29.944Z</time></trkpt><trkpt lat="43.6732256" lon="12.5155317"><ele>290.0</ele><time>2026-04-24T11:50:30.945Z</time></trkpt><trkpt lat="43.6733605" lon="12.5153846"><ele>290.0</ele><time>2026-04-24T11:50:31.944Z</time></trkpt><trkpt lat="43.6734999" lon="12.5152408"><ele>290.6666666666667</ele><time>2026-04-24T11:50:32.944Z</time></trkpt><trkpt lat="43.6736427" lon="12.5150879"><ele>291.3333333333333</ele><time>2026-04-24T11:50:33.944Z</time></trkpt><trkpt lat="43.6737912" lon="12.5149376"><ele>292.0</ele><time>2026-04-24T11:50:34.944Z</time></trkpt><trkpt lat="43.6739577" lon="12.5147719"><ele>292.0</ele><time>2026-04-24T11:50:35.946Z</time></trkpt><trkpt lat="43.6741336" lon="12.5146115"><ele>292.0</ele><time>2026-04-24T11:50:36.944Z</time></trkpt><trkpt lat="43.6743154" lon="12.5144518"><ele>292.0</ele><time>2026-04-24T11:50:37.946Z</time></trkpt><trkpt lat="43.6744932" lon="12.5142937"><ele>292.0</ele><time>2026-04-24T11:50:38.945Z</time></trkpt><trkpt lat="43.6746662" lon="12.5141266"><ele>292.0</ele><time>2026-04-24T11:50:39.944Z</time></trkpt><trkpt lat="43.6748409" lon="12.5139627"><ele>292.0</ele><time>2026-04-24T11:50:40.944Z</time></trkpt><trkpt lat="43.6750139" lon="12.513797"><ele>292.0</ele><time>2026-04-24T11:50:41.944Z</time></trkpt><trkpt lat="43.6751745" lon="12.5136374"><ele>292.0</ele><time>2026-04-24T11:50:42.944Z</time></trkpt><trkpt lat="43.67532" lon="12.5134808"><ele>292.0</ele><time>2026-04-24T11:50:43.944Z</time></trkpt><trkpt lat="43.6754618" lon="12.5133349"><ele>291.0</ele><time>2026-04-24T11:50:44.945Z</time></trkpt><trkpt lat="43.6756033" lon="12.5132007"><ele>290.0</ele><time>2026-04-24T11:50:45.945Z</time></trkpt><trkpt lat="43.6757487" lon="12.513082"><ele>289.0</ele><time>2026-04-24T11:50:46.945Z</time></trkpt><trkpt lat="43.6759124" lon="12.512984"><ele>289.0</ele><time>2026-04-24T11:50:47.945Z</time></trkpt><trkpt lat="43.6760877" lon="12.5129332"><ele>289.0</ele><time>2026-04-24T11:50:48.945Z</time></trkpt><trkpt lat="43.6762652" lon="12.5129131"><ele>289.0</ele><time>2026-04-24T11:50:49.946Z</time></trkpt><trkpt lat="43.6764458" lon="12.5129394"><ele>287.0</ele><time>2026-04-24T11:50:50.944Z</time></trkpt><trkpt lat="43.6766176" lon="12.5129498"><ele>285.0</ele><time>2026-04-24T11:50:51.944Z</time></trkpt><trkpt lat="43.6767853" lon="12.5129458"><ele>283.0</ele><time>2026-04-24T11:50:52.945Z</time></trkpt><trkpt lat="43.6769317" lon="12.5128914"><ele>285.3333333333333</ele><time>2026-04-24T11:50:53.945Z</time></trkpt><trkpt lat="43.6770765" lon="12.5127951"><ele>287.6666666666667</ele><time>2026-04-24T11:50:54.944Z</time></trkpt><trkpt lat="43.6771714" lon="12.5126252"><ele>290.0</ele><time>2026-04-24T11:50:55.944Z</time></trkpt><trkpt lat="43.6772503" lon="12.5124255"><ele>290.0</ele><time>2026-04-24T11:50:56.944Z</time></trkpt><trkpt lat="43.6773053" lon="12.5122058"><ele>290.0</ele><time>2026-04-24T11:50:57.945Z</time></trkpt><trkpt lat="43.6773489" lon="12.5119719"><ele>290.0</ele><time>2026-04-24T11:50:58.944Z</time></trkpt><trkpt lat="43.6773898" lon="12.5117311"><ele>290.33333333333337</ele><time>2026-04-24T11:50:59.946Z</time></trkpt><trkpt lat="43.6774212" lon="12.5114753"><ele>290.6666666666667</ele><time>2026-04-24T11:51:00.944Z</time></trkpt><trkpt lat="43.677432" lon="12.5112099"><ele>291.0</ele><time>2026-04-24T11:51:01.944Z</time></trkpt><trkpt lat="43.6774314" lon="12.5109397"><ele>291.0</ele><time>2026-04-24T11:51:02.947Z</time></trkpt><trkpt lat="43.6773986" lon="12.5106658"><ele>291.0</ele><time>2026-04-24T11:51:03.945Z</time></trkpt><trkpt lat="43.6773431" lon="12.5103919"><ele>291.0</ele><time>2026-04-24T11:51:04.945Z</time></trkpt><trkpt lat="43.6772712" lon="12.5101278"><ele>291.6666666666667</ele><time>2026-04-24T11:51:05.944Z</time></trkpt><trkpt lat="43.6771808" lon="12.5098695"><ele>292.33333333333337</ele><time>2026-04-24T11:51:06.944Z</time></trkpt><trkpt lat="43.6770772" lon="12.5096123"><ele>293.0</ele><time>2026-04-24T11:51:07.944Z</time></trkpt><trkpt lat="43.6769687" lon="12.5093479"><ele>293.6666666666667</ele><time>2026-04-24T11:51:08.944Z</time></trkpt><trkpt lat="43.6768631" lon="12.5090795"><ele>294.3333333333333</ele><time>2026-04-24T11:51:09.944Z</time></trkpt><trkpt lat="43.6767615" lon="12.5088013"><ele>295.0</ele><time>2026-04-24T11:51:10.944Z</time></trkpt><trkpt lat="43.6766732" lon="12.508511"><ele>296.5</ele><time>2026-04-24T11:51:11.944Z</time></trkpt><trkpt lat="43.6766089" lon="12.5082036"><ele>298.0</ele><time>2026-04-24T11:51:12.944Z</time></trkpt><trkpt lat="43.6765664" lon="12.5078898"><ele>298.0</ele><time>2026-04-24T11:51:13.946Z</time></trkpt><trkpt lat="43.6765494" lon="12.5075732"><ele>298.0</ele><time>2026-04-24T11:51:14.944Z</time></trkpt><trkpt lat="43.6765563" lon="12.507253"><ele>298.5</ele><time>2026-04-24T11:51:15.945Z</time></trkpt><trkpt lat="43.6765744" lon="12.5069353"><ele>299.0</ele><time>2026-04-24T11:51:16.944Z</time></trkpt><trkpt lat="43.6765981" lon="12.5066084"><ele>299.0</ele><time>2026-04-24T11:51:17.945Z</time></trkpt><trkpt lat="43.6766197" lon="12.5062799"><ele>299.0</ele><time>2026-04-24T11:51:18.944Z</time></trkpt><trkpt lat="43.6766378" lon="12.505952"><ele>300.0</ele><time>2026-04-24T11:51:19.944Z</time></trkpt><trkpt lat="43.6766555" lon="12.5056242"><ele>301.0</ele><time>2026-04-24T11:51:20.944Z</time></trkpt><trkpt lat="43.6766643" lon="12.5052927"><ele>303.0</ele><time>2026-04-24T11:51:21.944Z</time></trkpt><trkpt lat="43.6766559" lon="12.504963"><ele>305.0</ele><time>2026-04-24T11:51:22.944Z</time></trkpt><trkpt lat="43.6766208" lon="12.5046327"><ele>305.5</ele><time>2026-04-24T11:51:23.945Z</time></trkpt><trkpt lat="43.6765698" lon="12.5043112"><ele>306.0</ele><time>2026-04-24T11:51:24.945Z</time></trkpt><trkpt lat="43.6765091" lon="12.5039914"><ele>302.5</ele><time>2026-04-24T11:51:25.945Z</time></trkpt><trkpt lat="43.6764508" lon="12.5036752"><ele>299.0</ele><time>2026-04-24T11:51:26.944Z</time></trkpt><trkpt lat="43.6763982" lon="12.5033548"><ele>299.0</ele><time>2026-04-24T11:51:27.944Z</time></trkpt><trkpt lat="43.6763552" lon="12.5030339"><ele>299.0</ele><time>2026-04-24T11:51:28.945Z</time></trkpt><trkpt lat="43.6763215" lon="12.5027068"><ele>298.0</ele><time>2026-04-24T11:51:29.945Z</time></trkpt><trkpt lat="43.6762995" lon="12.502378"><ele>297.0</ele><time>2026-04-24T11:51:30.945Z</time></trkpt><trkpt lat="43.6763221" lon="12.5020445"><ele>297.0</ele><time>2026-04-24T11:51:31.943Z</time></trkpt><trkpt lat="43.6763478" lon="12.5017117"><ele>297.0</ele><time>2026-04-24T11:51:32.944Z</time></trkpt><trkpt lat="43.6763765" lon="12.5013789"><ele>299.5</ele><time>2026-04-24T11:51:33.946Z</time></trkpt><trkpt lat="43.6764125" lon="12.5010558"><ele>302.0</ele><time>2026-04-24T11:51:34.944Z</time></trkpt><trkpt lat="43.6764679" lon="12.5007429"><ele>302.0</ele><time>2026-04-24T11:51:35.944Z</time></trkpt><trkpt lat="43.6765573" lon="12.5004454"><ele>302.0</ele><time>2026-04-24T11:51:36.945Z</time></trkpt><trkpt lat="43.6766504" lon="12.5001744"><ele>299.5</ele><time>2026-04-24T11:51:37.944Z</time></trkpt><trkpt lat="43.6768162" lon="12.4999463"><ele>297.0</ele><time>2026-04-24T11:51:38.945Z</time></trkpt><trkpt lat="43.6769662" lon="12.4997111"><ele>302.5</ele><time>2026-04-24T11:51:39.945Z</time></trkpt><trkpt lat="43.6771142" lon="12.4994703"><ele>308.0</ele><time>2026-04-24T11:51:40.944Z</time></trkpt><trkpt lat="43.677261" lon="12.4992233"><ele>308.0</ele><time>2026-04-24T11:51:41.945Z</time></trkpt><trkpt lat="43.6773989" lon="12.498967"><ele>308.0</ele><time>2026-04-24T11:51:42.944Z</time></trkpt><trkpt lat="43.6775134" lon="12.4986871"><ele>308.5</ele><time>2026-04-24T11:51:43.945Z</time></trkpt><trkpt lat="43.6775972" lon="12.4983826"><ele>309.0</ele><time>2026-04-24T11:51:44.944Z</time></trkpt><trkpt lat="43.677655" lon="12.4980625"><ele>309.5</ele><time>2026-04-24T11:51:45.945Z</time></trkpt><trkpt lat="43.6777085" lon="12.4977391"><ele>310.0</ele><time>2026-04-24T11:51:46.944Z</time></trkpt><trkpt lat="43.6777509" lon="12.4974088"><ele>307.5</ele><time>2026-04-24T11:51:47.944Z</time></trkpt><trkpt lat="43.6777914" lon="12.497083"><ele>305.0</ele><time>2026-04-24T11:51:48.944Z</time></trkpt><trkpt lat="43.6778367" lon="12.4967585"><ele>305.0</ele><time>2026-04-24T11:51:49.944Z</time></trkpt><trkpt lat="43.6778821" lon="12.4964313"><ele>305.0</ele><time>2026-04-24T11:51:50.944Z</time></trkpt><trkpt lat="43.6779245" lon="12.4961003"><ele>305.0</ele><time>2026-04-24T11:51:51.945Z</time></trkpt><trkpt lat="43.6779651" lon="12.4957654"><ele>305.0</ele><time>2026-04-24T11:51:52.944Z</time></trkpt><trkpt lat="43.6780046" lon="12.4954274"><ele>306.0</ele><time>2026-04-24T11:51:53.944Z</time></trkpt><trkpt lat="43.6780439" lon="12.4950819"><ele>307.0</ele><time>2026-04-24T11:51:54.944Z</time></trkpt><trkpt lat="43.6780846" lon="12.4947338"><ele>306.0</ele><time>2026-04-24T11:51:55.943Z</time></trkpt><trkpt lat="43.6781226" lon="12.4943879"><ele>305.0</ele><time>2026-04-24T11:51:56.943Z</time></trkpt><trkpt lat="43.6781612" lon="12.4940454"><ele>304.0</ele><time>2026-04-24T11:51:57.945Z</time></trkpt><trkpt lat="43.6782009" lon="12.4937076"><ele>303.0</ele><time>2026-04-24T11:51:58.944Z</time></trkpt><trkpt lat="43.6782417" lon="12.4933696"><ele>303.0</ele><time>2026-04-24T11:51:59.944Z</time></trkpt><trkpt lat="43.6782822" lon="12.4930413"><ele>303.0</ele><time>2026-04-24T11:52:00.944Z</time></trkpt><trkpt lat="43.678315" lon="12.4927515"><ele>303.3333333333333</ele><time>2026-04-24T11:52:01.945Z</time></trkpt><trkpt lat="43.6783474" lon="12.4924757"><ele>303.66666666666663</ele><time>2026-04-24T11:52:02.944Z</time></trkpt><trkpt lat="43.6783783" lon="12.4921915"><ele>304.0</ele><time>2026-04-24T11:52:03.944Z</time></trkpt><trkpt lat="43.678409" lon="12.4919011"><ele>304.3333333333333</ele><time>2026-04-24T11:52:04.944Z</time></trkpt><trkpt lat="43.678442" lon="12.4916008"><ele>304.6666666666667</ele><time>2026-04-24T11:52:05.945Z</time></trkpt><trkpt lat="43.6784754" lon="12.491294"><ele>305.0</ele><time>2026-04-24T11:52:06.944Z</time></trkpt><trkpt lat="43.6785144" lon="12.4909778"><ele>303.0</ele><time>2026-04-24T11:52:07.944Z</time></trkpt><trkpt lat="43.6785514" lon="12.490658"><ele>301.0</ele><time>2026-04-24T11:52:08.946Z</time></trkpt><trkpt lat="43.6785886" lon="12.4903354"><ele>299.5</ele><time>2026-04-24T11:52:09.944Z</time></trkpt><trkpt lat="43.6786232" lon="12.4900107"><ele>298.0</ele><time>2026-04-24T11:52:10.944Z</time></trkpt><trkpt lat="43.6786622" lon="12.4896802"><ele>299.5</ele><time>2026-04-24T11:52:11.944Z</time></trkpt><trkpt lat="43.6787013" lon="12.4893525"><ele>301.0</ele><time>2026-04-24T11:52:12.944Z</time></trkpt><trkpt lat="43.6787381" lon="12.4890238"><ele>303.0</ele><time>2026-04-24T11:52:13.944Z</time></trkpt><trkpt lat="43.6787764" lon="12.4886929"><ele>305.0</ele><time>2026-04-24T11:52:14.945Z</time></trkpt><trkpt lat="43.6788146" lon="12.4883687"><ele>305.0</ele><time>2026-04-24T11:52:15.944Z</time></trkpt><trkpt lat="43.6788525" lon="12.4880497"><ele>305.0</ele><time>2026-04-24T11:52:16.944Z</time></trkpt><trkpt lat="43.6788871" lon="12.4877377"><ele>305.5</ele><time>2026-04-24T11:52:17.944Z</time></trkpt><trkpt lat="43.6789259" lon="12.4874275"><ele>306.0</ele><time>2026-04-24T11:52:18.944Z</time></trkpt><trkpt lat="43.6789608" lon="12.487118"><ele>305.6666666666667</ele><time>2026-04-24T11:52:19.944Z</time></trkpt><trkpt lat="43.678995" lon="12.4868162"><ele>305.33333333333337</ele><time>2026-04-24T11:52:20.946Z</time></trkpt><trkpt lat="43.6790298" lon="12.486522"><ele>305.0</ele><time>2026-04-24T11:52:21.944Z</time></trkpt><trkpt lat="43.6790583" lon="12.4862285"><ele>304.6666666666667</ele><time>2026-04-24T11:52:22.944Z</time></trkpt><trkpt lat="43.6790732" lon="12.4859304"><ele>304.3333333333333</ele><time>2026-04-24T11:52:23.945Z</time></trkpt><trkpt lat="43.6790667" lon="12.4856396"><ele>304.0</ele><time>2026-04-24T11:52:24.944Z</time></trkpt><trkpt lat="43.6790472" lon="12.4853561"><ele>304.66666666666663</ele><time>2026-04-24T11:52:25.944Z</time></trkpt><trkpt lat="43.6790067" lon="12.4850765"><ele>305.3333333333333</ele><time>2026-04-24T11:52:26.943Z</time></trkpt><trkpt lat="43.6789374" lon="12.4847921"><ele>306.0</ele><time>2026-04-24T11:52:27.944Z</time></trkpt><trkpt lat="43.6788585" lon="12.4844963"><ele>306.0</ele><time>2026-04-24T11:52:28.944Z</time></trkpt><trkpt lat="43.6787714" lon="12.4841909"><ele>306.0</ele><time>2026-04-24T11:52:29.944Z</time></trkpt><trkpt lat="43.6786839" lon="12.4838834"><ele>306.0</ele><time>2026-04-24T11:52:30.945Z</time></trkpt><trkpt lat="43.6785984" lon="12.4835753"><ele>306.0</ele><time>2026-04-24T11:52:31.944Z</time></trkpt><trkpt lat="43.678511" lon="12.4832711"><ele>306.0</ele><time>2026-04-24T11:52:32.944Z</time></trkpt><trkpt lat="43.6784238" lon="12.4829735"><ele>306.0</ele><time>2026-04-24T11:52:33.943Z</time></trkpt><trkpt lat="43.6783363" lon="12.4826879"><ele>306.6666666666667</ele><time>2026-04-24T11:52:34.944Z</time></trkpt><trkpt lat="43.6782472" lon="12.4824035"><ele>307.33333333333337</ele><time>2026-04-24T11:52:35.945Z</time></trkpt><trkpt lat="43.6781644" lon="12.4821204"><ele>308.0</ele><time>2026-04-24T11:52:36.944Z</time></trkpt><trkpt lat="43.6780833" lon="12.4818382"><ele>308.0</ele><time>2026-04-24T11:52:37.943Z</time></trkpt><trkpt lat="43.6780077" lon="12.481557"><ele>308.0</ele><time>2026-04-24T11:52:38.943Z</time></trkpt><trkpt lat="43.6779453" lon="12.4812777"><ele>308.0</ele><time>2026-04-24T11:52:39.945Z</time></trkpt><trkpt lat="43.6779054" lon="12.4809973"><ele>308.0</ele><time>2026-04-24T11:52:40.944Z</time></trkpt><trkpt lat="43.6778845" lon="12.4807332"><ele>308.0</ele><time>2026-04-24T11:52:41.944Z</time></trkpt><trkpt lat="43.6778761" lon="12.4804977"><ele>308.0</ele><time>2026-04-24T11:52:42.944Z</time></trkpt><trkpt lat="43.6778716" lon="12.4802734"><ele>307.6666666666667</ele><time>2026-04-24T11:52:43.944Z</time></trkpt><trkpt lat="43.6778689" lon="12.4800593"><ele>307.3333333333333</ele><time>2026-04-24T11:52:44.944Z</time></trkpt><trkpt lat="43.6778629" lon="12.4798456"><ele>307.0</ele><time>2026-04-24T11:52:45.945Z</time></trkpt><trkpt lat="43.6778578" lon="12.479643"><ele>306.66666666666663</ele><time>2026-04-24T11:52:46.944Z</time></trkpt><trkpt lat="43.6778531" lon="12.4794347"><ele>306.3333333333333</ele><time>2026-04-24T11:52:47.944Z</time></trkpt><trkpt lat="43.6778486" lon="12.4792201"><ele>306.0</ele><time>2026-04-24T11:52:48.944Z</time></trkpt><trkpt lat="43.6778434" lon="12.4790005"><ele>306.0</ele><time>2026-04-24T11:52:49.944Z</time></trkpt><trkpt lat="43.6778386" lon="12.4787771"><ele>306.0</ele><time>2026-04-24T11:52:50.945Z</time></trkpt><trkpt lat="43.677836" lon="12.4785512"><ele>306.0</ele><time>2026-04-24T11:52:51.943Z</time></trkpt><trkpt lat="43.6778307" lon="12.4783242"><ele>305.3333333333333</ele><time>2026-04-24T11:52:52.945Z</time></trkpt><trkpt lat="43.677826" lon="12.478096"><ele>304.66666666666663</ele><time>2026-04-24T11:52:53.943Z</time></trkpt><trkpt lat="43.6778182" lon="12.4778651"><ele>304.0</ele><time>2026-04-24T11:52:54.944Z</time></trkpt><trkpt lat="43.6778088" lon="12.4776203"><ele>304.0</ele><time>2026-04-24T11:52:55.944Z</time></trkpt><trkpt lat="43.6778006" lon="12.4773686"><ele>304.0</ele><time>2026-04-24T11:52:56.945Z</time></trkpt><trkpt lat="43.6777969" lon="12.4771185"><ele>304.0</ele><time>2026-04-24T11:52:57.945Z</time></trkpt><trkpt lat="43.6777883" lon="12.476864"><ele>304.0</ele><time>2026-04-24T11:52:58.944Z</time></trkpt><trkpt lat="43.6777807" lon="12.4766061"><ele>304.0</ele><time>2026-04-24T11:52:59.944Z</time></trkpt><trkpt lat="43.6777752" lon="12.4763466"><ele>304.0</ele><time>2026-04-24T11:53:00.944Z</time></trkpt><trkpt lat="43.6777707" lon="12.4760875"><ele>306.0</ele><time>2026-04-24T11:53:01.944Z</time></trkpt><trkpt lat="43.6777609" lon="12.4758283"><ele>308.0</ele><time>2026-04-24T11:53:02.944Z</time></trkpt><trkpt lat="43.6777566" lon="12.4755653"><ele>310.0</ele><time>2026-04-24T11:53:03.943Z</time></trkpt><trkpt lat="43.677752" lon="12.4752998"><ele>310.3333333333333</ele><time>2026-04-24T11:53:04.944Z</time></trkpt><trkpt lat="43.6777484" lon="12.4750308"><ele>310.6666666666667</ele><time>2026-04-24T11:53:05.945Z</time></trkpt><trkpt lat="43.6777428" lon="12.4747581"><ele>311.0</ele><time>2026-04-24T11:53:06.944Z</time></trkpt><trkpt lat="43.6777403" lon="12.474483"><ele>311.0</ele><time>2026-04-24T11:53:07.944Z</time></trkpt><trkpt lat="43.6777317" lon="12.4742031"><ele>311.0</ele><time>2026-04-24T11:53:08.944Z</time></trkpt><trkpt lat="43.6777291" lon="12.4739238"><ele>311.0</ele><time>2026-04-24T11:53:09.944Z</time></trkpt><trkpt lat="43.6777199" lon="12.4736535"><ele>311.0</ele><time>2026-04-24T11:53:10.944Z</time></trkpt><trkpt lat="43.6777139" lon="12.4733842"><ele>311.0</ele><time>2026-04-24T11:53:11.944Z</time></trkpt><trkpt lat="43.6777073" lon="12.4731221"><ele>311.0</ele><time>2026-04-24T11:53:12.944Z</time></trkpt><trkpt lat="43.6777023" lon="12.472872"><ele>311.0</ele><time>2026-04-24T11:53:13.943Z</time></trkpt><trkpt lat="43.6776964" lon="12.4726376"><ele>311.0</ele><time>2026-04-24T11:53:14.943Z</time></trkpt><trkpt lat="43.6776893" lon="12.472412"><ele>311.0</ele><time>2026-04-24T11:53:15.945Z</time></trkpt><trkpt lat="43.6776834" lon="12.4721838"><ele>310.6666666666667</ele><time>2026-04-24T11:53:16.943Z</time></trkpt><trkpt lat="43.6776802" lon="12.4719555"><ele>310.3333333333333</ele><time>2026-04-24T11:53:17.943Z</time></trkpt><trkpt lat="43.6776765" lon="12.4717204"><ele>310.0</ele><time>2026-04-24T11:53:18.944Z</time></trkpt><trkpt lat="43.6776686" lon="12.4714832"><ele>309.3333333333333</ele><time>2026-04-24T11:53:19.943Z</time></trkpt><trkpt lat="43.6776628" lon="12.4712367"><ele>308.6666666666667</ele><time>2026-04-24T11:53:20.943Z</time></trkpt><trkpt lat="43.6776573" lon="12.4709943"><ele>308.0</ele><time>2026-04-24T11:53:21.944Z</time></trkpt><trkpt lat="43.6776572" lon="12.4707512"><ele>308.0</ele><time>2026-04-24T11:53:22.945Z</time></trkpt><trkpt lat="43.6776643" lon="12.4705128"><ele>308.0</ele><time>2026-04-24T11:53:23.943Z</time></trkpt><trkpt lat="43.6776922" lon="12.4702769"><ele>308.0</ele><time>2026-04-24T11:53:24.943Z</time></trkpt><trkpt lat="43.6777432" lon="12.4700489"><ele>306.0</ele><time>2026-04-24T11:53:25.944Z</time></trkpt><trkpt lat="43.677802" lon="12.4698311"><ele>304.0</ele><time>2026-04-24T11:53:26.945Z</time></trkpt><trkpt lat="43.6778638" lon="12.4696097"><ele>302.0</ele><time>2026-04-24T11:53:27.944Z</time></trkpt><trkpt lat="43.6779279" lon="12.4693885"><ele>302.0</ele><time>2026-04-24T11:53:28.943Z</time></trkpt><trkpt lat="43.6779907" lon="12.4691679"><ele>302.0</ele><time>2026-04-24T11:53:29.944Z</time></trkpt><trkpt lat="43.6780525" lon="12.4689478"><ele>302.0</ele><time>2026-04-24T11:53:30.943Z</time></trkpt><trkpt lat="43.6781009" lon="12.4687256"><ele>304.6666666666667</ele><time>2026-04-24T11:53:31.943Z</time></trkpt><trkpt lat="43.6781381" lon="12.4684949"><ele>307.3333333333333</ele><time>2026-04-24T11:53:32.944Z</time></trkpt><trkpt lat="43.6781697" lon="12.468265"><ele>310.0</ele><time>2026-04-24T11:53:33.944Z</time></trkpt><trkpt lat="43.678175" lon="12.4680406"><ele>311.0</ele><time>2026-04-24T11:53:34.945Z</time></trkpt><trkpt lat="43.678178" lon="12.4678165"><ele>312.0</ele><time>2026-04-24T11:53:35.943Z</time></trkpt><trkpt lat="43.6781614" lon="12.4675917"><ele>313.0</ele><time>2026-04-24T11:53:36.943Z</time></trkpt><trkpt lat="43.6781425" lon="12.4673646"><ele>313.0</ele><time>2026-04-24T11:53:37.944Z</time></trkpt><trkpt lat="43.6780988" lon="12.467136"><ele>313.0</ele><time>2026-04-24T11:53:38.944Z</time></trkpt><trkpt lat="43.6780412" lon="12.4669018"><ele>313.0</ele><time>2026-04-24T11:53:39.945Z</time></trkpt><trkpt lat="43.677967" lon="12.4666628"><ele>313.66666666666663</ele><time>2026-04-24T11:53:40.943Z</time></trkpt><trkpt lat="43.6778852" lon="12.4664261"><ele>314.3333333333333</ele><time>2026-04-24T11:53:41.944Z</time></trkpt><trkpt lat="43.6778131" lon="12.4661948"><ele>315.0</ele><time>2026-04-24T11:53:42.944Z</time></trkpt><trkpt lat="43.6777381" lon="12.465972"><ele>316.0</ele><time>2026-04-24T11:53:43.944Z</time></trkpt><trkpt lat="43.6776644" lon="12.4657556"><ele>317.0</ele><time>2026-04-24T11:53:44.943Z</time></trkpt><trkpt lat="43.6775906" lon="12.4655514"><ele>318.0</ele><time>2026-04-24T11:53:45.944Z</time></trkpt><trkpt lat="43.6775222" lon="12.465347"><ele>318.6666666666667</ele><time>2026-04-24T11:53:46.944Z</time></trkpt><trkpt lat="43.6774515" lon="12.4651421"><ele>319.33333333333337</ele><time>2026-04-24T11:53:47.945Z</time></trkpt><trkpt lat="43.6773793" lon="12.4649345"><ele>320.0</ele><time>2026-04-24T11:53:48.943Z</time></trkpt><trkpt lat="43.6773043" lon="12.4647226"><ele>319.6666666666667</ele><time>2026-04-24T11:53:49.944Z</time></trkpt><trkpt lat="43.6772293" lon="12.4645111"><ele>319.3333333333333</ele><time>2026-04-24T11:53:50.943Z</time></trkpt><trkpt lat="43.677154" lon="12.4643006"><ele>319.0</ele><time>2026-04-24T11:53:51.945Z</time></trkpt><trkpt lat="43.6770822" lon="12.4640883"><ele>319.0</ele><time>2026-04-24T11:53:52.944Z</time></trkpt><trkpt lat="43.6770128" lon="12.4638802"><ele>319.0</ele><time>2026-04-24T11:53:53.943Z</time></trkpt><trkpt lat="43.6769406" lon="12.4636686"><ele>319.0</ele><time>2026-04-24T11:53:54.943Z</time></trkpt><trkpt lat="43.6768685" lon="12.463458"><ele>319.3333333333333</ele><time>2026-04-24T11:53:55.943Z</time></trkpt><trkpt lat="43.6767948" lon="12.4632474"><ele>319.6666666666667</ele><time>2026-04-24T11:53:56.943Z</time></trkpt><trkpt lat="43.6767193" lon="12.4630288"><ele>320.0</ele><time>2026-04-24T11:53:57.944Z</time></trkpt><trkpt lat="43.6766412" lon="12.4628071"><ele>320.33333333333337</ele><time>2026-04-24T11:53:58.944Z</time></trkpt><trkpt lat="43.676561" lon="12.4625813"><ele>320.6666666666667</ele><time>2026-04-24T11:53:59.943Z</time></trkpt><trkpt lat="43.6764799" lon="12.4623487"><ele>321.0</ele><time>2026-04-24T11:54:00.945Z</time></trkpt><trkpt lat="43.6764027" lon="12.462098"><ele>321.3333333333333</ele><time>2026-04-24T11:54:01.943Z</time></trkpt><trkpt lat="43.6763368" lon="12.4618321"><ele>321.66666666666663</ele><time>2026-04-24T11:54:02.944Z</time></trkpt><trkpt lat="43.6762875" lon="12.4615613"><ele>322.0</ele><time>2026-04-24T11:54:03.944Z</time></trkpt><trkpt lat="43.6762445" lon="12.4612919"><ele>323.0</ele><time>2026-04-24T11:54:04.943Z</time></trkpt><trkpt lat="43.6762039" lon="12.4610274"><ele>324.0</ele><time>2026-04-24T11:54:05.943Z</time></trkpt><trkpt lat="43.6761633" lon="12.4607553"><ele>325.0</ele><time>2026-04-24T11:54:06.945Z</time></trkpt><trkpt lat="43.6761192" lon="12.4604858"><ele>324.0</ele><time>2026-04-24T11:54:07.943Z</time></trkpt><trkpt lat="43.6760665" lon="12.4602108"><ele>323.0</ele><time>2026-04-24T11:54:08.944Z</time></trkpt><trkpt lat="43.6759928" lon="12.4599387"><ele>322.0</ele><time>2026-04-24T11:54:09.944Z</time></trkpt><trkpt lat="43.6759013" lon="12.4596603"><ele>322.5</ele><time>2026-04-24T11:54:10.943Z</time></trkpt><trkpt lat="43.6758048" lon="12.4593772"><ele>323.0</ele><time>2026-04-24T11:54:11.943Z</time></trkpt><trkpt lat="43.6757069" lon="12.4590842"><ele>323.0</ele><time>2026-04-24T11:54:12.944Z</time></trkpt><trkpt lat="43.6756108" lon="12.4587819"><ele>323.0</ele><time>2026-04-24T11:54:13.944Z</time></trkpt><trkpt lat="43.6755163" lon="12.4584747"><ele>323.0</ele><time>2026-04-24T11:54:14.944Z</time></trkpt><trkpt lat="43.675421" lon="12.458168"><ele>323.0</ele><time>2026-04-24T11:54:15.943Z</time></trkpt><trkpt lat="43.675323" lon="12.4578556"><ele>323.5</ele><time>2026-04-24T11:54:16.944Z</time></trkpt><trkpt lat="43.6752167" lon="12.4575402"><ele>324.0</ele><time>2026-04-24T11:54:17.944Z</time></trkpt><trkpt lat="43.6751092" lon="12.457224"><ele>324.0</ele><time>2026-04-24T11:54:18.943Z</time></trkpt><trkpt lat="43.6750096" lon="12.4569052"><ele>324.0</ele><time>2026-04-24T11:54:19.943Z</time></trkpt><trkpt lat="43.674916" lon="12.4565817"><ele>325.5</ele><time>2026-04-24T11:54:20.944Z</time></trkpt><trkpt lat="43.6748166" lon="12.4562586"><ele>327.0</ele><time>2026-04-24T11:54:21.943Z</time></trkpt><trkpt lat="43.6747142" lon="12.4559408"><ele>327.0</ele><time>2026-04-24T11:54:22.944Z</time></trkpt><trkpt lat="43.674612" lon="12.4556259"><ele>327.0</ele><time>2026-04-24T11:54:23.944Z</time></trkpt><trkpt lat="43.6745112" lon="12.4553117"><ele>326.5</ele><time>2026-04-24T11:54:24.943Z</time></trkpt><trkpt lat="43.6744099" lon="12.4549986"><ele>326.0</ele><time>2026-04-24T11:54:25.945Z</time></trkpt><trkpt lat="43.6743096" lon="12.4546858"><ele>327.0</ele><time>2026-04-24T11:54:26.944Z</time></trkpt><trkpt lat="43.674213" lon="12.4543809"><ele>328.0</ele><time>2026-04-24T11:54:27.943Z</time></trkpt><trkpt lat="43.6741142" lon="12.4540804"><ele>330.0</ele><time>2026-04-24T11:54:28.943Z</time></trkpt><trkpt lat="43.6740144" lon="12.4537802"><ele>332.0</ele><time>2026-04-24T11:54:29.944Z</time></trkpt><trkpt lat="43.6739168" lon="12.4534809"><ele>332.0</ele><time>2026-04-24T11:54:30.944Z</time></trkpt><trkpt lat="43.6738292" lon="12.4531811"><ele>332.0</ele><time>2026-04-24T11:54:31.944Z</time></trkpt><trkpt lat="43.6737516" lon="12.452875"><ele>335.0</ele><time>2026-04-24T11:54:32.943Z</time></trkpt><trkpt lat="43.673691" lon="12.4525642"><ele>338.0</ele><time>2026-04-24T11:54:33.945Z</time></trkpt><trkpt lat="43.6736429" lon="12.4522537"><ele>337.0</ele><time>2026-04-24T11:54:34.943Z</time></trkpt><trkpt lat="43.6736084" lon="12.4519479"><ele>336.0</ele><time>2026-04-24T11:54:35.944Z</time></trkpt><trkpt lat="43.673584" lon="12.451642"><ele>335.0</ele><time>2026-04-24T11:54:36.943Z</time></trkpt><trkpt lat="43.6735629" lon="12.4513331"><ele>335.33333333333337</ele><time>2026-04-24T11:54:37.943Z</time></trkpt><trkpt lat="43.6735725" lon="12.4510317"><ele>335.6666666666667</ele><time>2026-04-24T11:54:38.943Z</time></trkpt><trkpt lat="43.6736066" lon="12.4507354"><ele>336.0</ele><time>2026-04-24T11:54:39.944Z</time></trkpt><trkpt lat="43.6736561" lon="12.4504301"><ele>340.6666666666667</ele><time>2026-04-24T11:54:40.944Z</time></trkpt><trkpt lat="43.6737026" lon="12.4501287"><ele>345.33333333333337</ele><time>2026-04-24T11:54:41.944Z</time></trkpt><trkpt lat="43.6737436" lon="12.4498226"><ele>350.0</ele><time>2026-04-24T11:54:42.943Z</time></trkpt><trkpt lat="43.6737694" lon="12.4495012"><ele>351.0</ele><time>2026-04-24T11:54:43.943Z</time></trkpt><trkpt lat="43.6737791" lon="12.4491826"><ele>352.0</ele><time>2026-04-24T11:54:44.943Z</time></trkpt><trkpt lat="43.6737628" lon="12.4488353"><ele>356.5</ele><time>2026-04-24T11:54:45.943Z</time></trkpt><trkpt lat="43.6737154" lon="12.4484805"><ele>361.0</ele><time>2026-04-24T11:54:46.943Z</time></trkpt><trkpt lat="43.6736746" lon="12.4481162"><ele>363.0</ele><time>2026-04-24T11:54:47.943Z</time></trkpt><trkpt lat="43.6736277" lon="12.447736"><ele>365.0</ele><time>2026-04-24T11:54:48.943Z</time></trkpt><trkpt lat="43.673583" lon="12.4473488"><ele>353.0</ele><time>2026-04-24T11:54:49.943Z</time></trkpt><trkpt lat="43.6735456" lon="12.4469617"><ele>341.0</ele><time>2026-04-24T11:54:50.944Z</time></trkpt><trkpt lat="43.6735066" lon="12.4465694"><ele>341.0</ele><time>2026-04-24T11:54:51.945Z</time></trkpt><trkpt lat="43.6734715" lon="12.446184"><ele>341.0</ele><time>2026-04-24T11:54:52.943Z</time></trkpt><trkpt lat="43.6734452" lon="12.4458061"><ele>342.0</ele><time>2026-04-24T11:54:53.944Z</time></trkpt><trkpt lat="43.6734165" lon="12.4454297"><ele>343.0</ele><time>2026-04-24T11:54:54.943Z</time></trkpt><trkpt lat="43.6733914" lon="12.4450607"><ele>343.0</ele><time>2026-04-24T11:54:55.943Z</time></trkpt><trkpt lat="43.6733729" lon="12.444692"><ele>343.0</ele><time>2026-04-24T11:54:56.943Z</time></trkpt><trkpt lat="43.67336" lon="12.4443303"><ele>343.0</ele><time>2026-04-24T11:54:57.943Z</time></trkpt><trkpt lat="43.6733499" lon="12.4439622"><ele>343.0</ele><time>2026-04-24T11:54:58.943Z</time></trkpt><trkpt lat="43.6733339" lon="12.4436048"><ele>341.5</ele><time>2026-04-24T11:54:59.943Z</time></trkpt><trkpt lat="43.673327" lon="12.4432441"><ele>340.0</ele><time>2026-04-24T11:55:00.944Z</time></trkpt><trkpt lat="43.6733166" lon="12.4428851"><ele>339.0</ele><time>2026-04-24T11:55:01.944Z</time></trkpt><trkpt lat="43.6733224" lon="12.4425271"><ele>338.0</ele><time>2026-04-24T11:55:02.945Z</time></trkpt><trkpt lat="43.6733249" lon="12.442177"><ele>339.5</ele><time>2026-04-24T11:55:03.944Z</time></trkpt><trkpt lat="43.6733244" lon="12.4418308"><ele>341.0</ele><time>2026-04-24T11:55:04.943Z</time></trkpt><trkpt lat="43.6733038" lon="12.441486"><ele>344.5</ele><time>2026-04-24T11:55:05.944Z</time></trkpt><trkpt lat="43.6732889" lon="12.4411351"><ele>348.0</ele><time>2026-04-24T11:55:06.944Z</time></trkpt><trkpt lat="43.6732577" lon="12.4407973"><ele>350.5</ele><time>2026-04-24T11:55:07.943Z</time></trkpt><trkpt lat="43.6732309" lon="12.4404573"><ele>353.0</ele><time>2026-04-24T11:55:08.944Z</time></trkpt><trkpt lat="43.6731959" lon="12.4401172"><ele>353.0</ele><time>2026-04-24T11:55:09.943Z</time></trkpt><trkpt lat="43.6731657" lon="12.4397787"><ele>353.0</ele><time>2026-04-24T11:55:10.944Z</time></trkpt><trkpt lat="43.6731184" lon="12.4394387"><ele>350.5</ele><time>2026-04-24T11:55:11.944Z</time></trkpt><trkpt lat="43.6730608" lon="12.4391057"><ele>348.0</ele><time>2026-04-24T11:55:12.943Z</time></trkpt><trkpt lat="43.6729817" lon="12.4387806"><ele>344.0</ele><time>2026-04-24T11:55:13.945Z</time></trkpt><trkpt lat="43.6728842" lon="12.4384722"><ele>340.0</ele><time>2026-04-24T11:55:14.943Z</time></trkpt><trkpt lat="43.6727588" lon="12.438178"><ele>340.5</ele><time>2026-04-24T11:55:15.943Z</time></trkpt><trkpt lat="43.6726206" lon="12.4379009"><ele>341.0</ele><time>2026-04-24T11:55:16.944Z</time></trkpt><trkpt lat="43.672471" lon="12.4376366"><ele>341.0</ele><time>2026-04-24T11:55:17.943Z</time></trkpt><trkpt lat="43.6723136" lon="12.4373806"><ele>341.0</ele><time>2026-04-24T11:55:18.944Z</time></trkpt><trkpt lat="43.6721552" lon="12.437128"><ele>340.0</ele><time>2026-04-24T11:55:19.943Z</time></trkpt><trkpt lat="43.6719937" lon="12.4368808"><ele>339.0</ele><time>2026-04-24T11:55:20.943Z</time></trkpt><trkpt lat="43.671836" lon="12.4366313"><ele>339.0</ele><time>2026-04-24T11:55:21.944Z</time></trkpt><trkpt lat="43.6716848" lon="12.4363735"><ele>339.0</ele><time>2026-04-24T11:55:22.943Z</time></trkpt><trkpt lat="43.6715367" lon="12.4361123"><ele>339.0</ele><time>2026-04-24T11:55:23.943Z</time></trkpt><trkpt lat="43.6714231" lon="12.4358265"><ele>339.0</ele><time>2026-04-24T11:55:24.944Z</time></trkpt><trkpt lat="43.6713282" lon="12.4355365"><ele>339.5</ele><time>2026-04-24T11:55:25.943Z</time></trkpt><trkpt lat="43.6712478" lon="12.4352325"><ele>340.0</ele><time>2026-04-24T11:55:26.943Z</time></trkpt><trkpt lat="43.6711817" lon="12.4349267"><ele>340.5</ele><time>2026-04-24T11:55:27.943Z</time></trkpt><trkpt lat="43.6711244" lon="12.4346173"><ele>341.0</ele><time>2026-04-24T11:55:28.943Z</time></trkpt><trkpt lat="43.6710743" lon="12.4343066"><ele>341.0</ele><time>2026-04-24T11:55:29.944Z</time></trkpt><trkpt lat="43.6710233" lon="12.4340046"><ele>341.0</ele><time>2026-04-24T11:55:30.943Z</time></trkpt><trkpt lat="43.6709761" lon="12.4337211"><ele>341.0</ele><time>2026-04-24T11:55:31.944Z</time></trkpt><trkpt lat="43.6709335" lon="12.433456"><ele>341.0</ele><time>2026-04-24T11:55:32.944Z</time></trkpt><trkpt lat="43.6708969" lon="12.4332043"><ele>341.0</ele><time>2026-04-24T11:55:33.944Z</time></trkpt><trkpt lat="43.670866" lon="12.4329741"><ele>341.0</ele><time>2026-04-24T11:55:34.943Z</time></trkpt><trkpt lat="43.6708326" lon="12.4327768"><ele>341.25</ele><time>2026-04-24T11:55:35.943Z</time></trkpt><trkpt lat="43.6708067" lon="12.4326075"><ele>341.5</ele><time>2026-04-24T11:55:36.943Z</time></trkpt><trkpt lat="43.6707805" lon="12.4324509"><ele>341.75</ele><time>2026-04-24T11:55:37.943Z</time></trkpt><trkpt lat="43.6707566" lon="12.4323059"><ele>342.0</ele><time>2026-04-24T11:55:38.944Z</time></trkpt><trkpt lat="43.6707343" lon="12.432156"><ele>342.20000000000005</ele><time>2026-04-24T11:55:39.943Z</time></trkpt><trkpt lat="43.6707075" lon="12.4320053"><ele>342.4</ele><time>2026-04-24T11:55:40.944Z</time></trkpt><trkpt lat="43.670686" lon="12.4318557"><ele>342.6</ele><time>2026-04-24T11:55:41.943Z</time></trkpt><trkpt lat="43.6706719" lon="12.4317339"><ele>342.79999999999995</ele><time>2026-04-24T11:55:42.944Z</time></trkpt><trkpt lat="43.6706521" lon="12.4316085"><ele>343.0</ele><time>2026-04-24T11:55:43.943Z</time></trkpt><trkpt lat="43.6706352" lon="12.4314979"><ele>343.0</ele><time>2026-04-24T11:55:44.943Z</time></trkpt><trkpt lat="43.6706181" lon="12.4313944"><ele>343.0</ele><time>2026-04-24T11:55:45.944Z</time></trkpt><trkpt lat="43.6705976" lon="12.431293"><ele>343.0</ele><time>2026-04-24T11:55:46.943Z</time></trkpt><trkpt lat="43.670583" lon="12.4311996"><ele>343.0</ele><time>2026-04-24T11:55:47.943Z</time></trkpt><trkpt lat="43.670568" lon="12.4311147"><ele>343.0</ele><time>2026-04-24T11:55:48.943Z</time></trkpt><trkpt lat="43.670545" lon="12.430939"><ele>343.0</ele><time>2026-04-24T11:55:50.943Z</time></trkpt><trkpt lat="43.6705262" lon="12.4308276"><ele>343.0</ele><time>2026-04-24T11:55:51.943Z</time></trkpt><trkpt lat="43.6705064" lon="12.4307034"><ele>343.0</ele><time>2026-04-24T11:55:52.943Z</time></trkpt><trkpt lat="43.6704833" lon="12.4305506"><ele>343.0</ele><time>2026-04-24T11:55:53.943Z</time></trkpt><trkpt lat="43.6704528" lon="12.4303651"><ele>343.0</ele><time>2026-04-24T11:55:54.943Z</time></trkpt><trkpt lat="43.670425" lon="12.4301676"><ele>343.66666666666663</ele><time>2026-04-24T11:55:55.944Z</time></trkpt><trkpt lat="43.6703939" lon="12.429948"><ele>344.3333333333333</ele><time>2026-04-24T11:55:56.943Z</time></trkpt><trkpt lat="43.670359" lon="12.4297149"><ele>345.0</ele><time>2026-04-24T11:55:57.944Z</time></trkpt><trkpt lat="43.6703205" lon="12.4294757"><ele>345.0</ele><time>2026-04-24T11:55:58.943Z</time></trkpt><trkpt lat="43.6702751" lon="12.429212"><ele>345.0</ele><time>2026-04-24T11:55:59.944Z</time></trkpt><trkpt lat="43.6702315" lon="12.4289485"><ele>345.0</ele><time>2026-04-24T11:56:00.943Z</time></trkpt><trkpt lat="43.670183" lon="12.4286742"><ele>346.0</ele><time>2026-04-24T11:56:01.943Z</time></trkpt><trkpt lat="43.6701372" lon="12.4284086"><ele>347.0</ele><time>2026-04-24T11:56:02.944Z</time></trkpt><trkpt lat="43.6700898" lon="12.4281342"><ele>348.0</ele><time>2026-04-24T11:56:03.943Z</time></trkpt><trkpt lat="43.6700441" lon="12.4278598"><ele>348.0</ele><time>2026-04-24T11:56:04.943Z</time></trkpt><trkpt lat="43.6699885" lon="12.4275768"><ele>348.0</ele><time>2026-04-24T11:56:05.944Z</time></trkpt><trkpt lat="43.6699345" lon="12.4272902"><ele>348.0</ele><time>2026-04-24T11:56:06.943Z</time></trkpt><trkpt lat="43.669875" lon="12.4269976"><ele>348.6666666666667</ele><time>2026-04-24T11:56:07.943Z</time></trkpt><trkpt lat="43.6698172" lon="12.426708"><ele>349.33333333333337</ele><time>2026-04-24T11:56:08.943Z</time></trkpt><trkpt lat="43.6697574" lon="12.4264187"><ele>350.0</ele><time>2026-04-24T11:56:09.945Z</time></trkpt><trkpt lat="43.6696998" lon="12.4261271"><ele>350.0</ele><time>2026-04-24T11:56:10.943Z</time></trkpt><trkpt lat="43.6696419" lon="12.4258374"><ele>350.0</ele><time>2026-04-24T11:56:11.943Z</time></trkpt><trkpt lat="43.6695868" lon="12.4255475"><ele>350.0</ele><time>2026-04-24T11:56:12.943Z</time></trkpt><trkpt lat="43.6695408" lon="12.4252516"><ele>350.0</ele><time>2026-04-24T11:56:13.943Z</time></trkpt><trkpt lat="43.6695066" lon="12.4249558"><ele>350.0</ele><time>2026-04-24T11:56:14.943Z</time></trkpt><trkpt lat="43.6694985" lon="12.4246584"><ele>350.0</ele><time>2026-04-24T11:56:15.943Z</time></trkpt><trkpt lat="43.6695046" lon="12.4243607"><ele>350.0</ele><time>2026-04-24T11:56:16.943Z</time></trkpt><trkpt lat="43.6695171" lon="12.424065"><ele>350.0</ele><time>2026-04-24T11:56:17.943Z</time></trkpt><trkpt lat="43.669527" lon="12.423767"><ele>350.0</ele><time>2026-04-24T11:56:18.942Z</time></trkpt><trkpt lat="43.669537" lon="12.4234726"><ele>351.0</ele><time>2026-04-24T11:56:19.944Z</time></trkpt><trkpt lat="43.6695444" lon="12.4231764"><ele>352.0</ele><time>2026-04-24T11:56:20.943Z</time></trkpt><trkpt lat="43.6695471" lon="12.4228806"><ele>353.0</ele><time>2026-04-24T11:56:21.943Z</time></trkpt><trkpt lat="43.6695364" lon="12.4225829"><ele>354.0</ele><time>2026-04-24T11:56:22.942Z</time></trkpt><trkpt lat="43.6695162" lon="12.4222843"><ele>355.0</ele><time>2026-04-24T11:56:23.944Z</time></trkpt><trkpt lat="43.6694891" lon="12.4219862"><ele>356.0</ele><time>2026-04-24T11:56:24.943Z</time></trkpt><trkpt lat="43.6694587" lon="12.4216881"><ele>355.0</ele><time>2026-04-24T11:56:25.943Z</time></trkpt><trkpt lat="43.6694253" lon="12.4213928"><ele>354.0</ele><time>2026-04-24T11:56:26.944Z</time></trkpt><trkpt lat="43.6693942" lon="12.4210938"><ele>353.0</ele><time>2026-04-24T11:56:27.942Z</time></trkpt><trkpt lat="43.6693638" lon="12.4207941"><ele>353.0</ele><time>2026-04-24T11:56:28.945Z</time></trkpt><trkpt lat="43.6693355" lon="12.4204927"><ele>353.0</ele><time>2026-04-24T11:56:29.943Z</time></trkpt><trkpt lat="43.6693045" lon="12.4201941"><ele>353.0</ele><time>2026-04-24T11:56:30.944Z</time></trkpt><trkpt lat="43.6692732" lon="12.4199048"><ele>353.0</ele><time>2026-04-24T11:56:31.944Z</time></trkpt><trkpt lat="43.6692296" lon="12.4196285"><ele>353.0</ele><time>2026-04-24T11:56:32.944Z</time></trkpt><trkpt lat="43.6691551" lon="12.4193811"><ele>353.0</ele><time>2026-04-24T11:56:33.944Z</time></trkpt><trkpt lat="43.6690439" lon="12.4191462"><ele>353.0</ele><time>2026-04-24T11:56:34.944Z</time></trkpt><trkpt lat="43.668907" lon="12.4189212"><ele>353.0</ele><time>2026-04-24T11:56:35.943Z</time></trkpt><trkpt lat="43.6687656" lon="12.4186933"><ele>353.0</ele><time>2026-04-24T11:56:36.943Z</time></trkpt><trkpt lat="43.6686277" lon="12.418457"><ele>353.0</ele><time>2026-04-24T11:56:37.943Z</time></trkpt><trkpt lat="43.6684916" lon="12.4182143"><ele>353.0</ele><time>2026-04-24T11:56:38.943Z</time></trkpt><trkpt lat="43.6683705" lon="12.4179665"><ele>353.0</ele><time>2026-04-24T11:56:39.943Z</time></trkpt><trkpt lat="43.6682615" lon="12.4177195"><ele>355.0</ele><time>2026-04-24T11:56:40.942Z</time></trkpt><trkpt lat="43.6681602" lon="12.4174689"><ele>357.0</ele><time>2026-04-24T11:56:41.943Z</time></trkpt><trkpt lat="43.6680624" lon="12.417214"><ele>359.0</ele><time>2026-04-24T11:56:42.943Z</time></trkpt><trkpt lat="43.667967" lon="12.4169619"><ele>358.6666666666667</ele><time>2026-04-24T11:56:43.943Z</time></trkpt><trkpt lat="43.6678718" lon="12.4167168"><ele>358.3333333333333</ele><time>2026-04-24T11:56:44.943Z</time></trkpt><trkpt lat="43.6677812" lon="12.4164832"><ele>358.0</ele><time>2026-04-24T11:56:45.942Z</time></trkpt><trkpt lat="43.6676894" lon="12.4162492"><ele>358.0</ele><time>2026-04-24T11:56:46.944Z</time></trkpt><trkpt lat="43.6676037" lon="12.4160398"><ele>358.0</ele><time>2026-04-24T11:56:47.944Z</time></trkpt><trkpt lat="43.6675308" lon="12.4158284"><ele>358.0</ele><time>2026-04-24T11:56:48.943Z</time></trkpt><trkpt lat="43.6674699" lon="12.4156162"><ele>357.66666666666663</ele><time>2026-04-24T11:56:49.944Z</time></trkpt><trkpt lat="43.6674216" lon="12.4154044"><ele>357.3333333333333</ele><time>2026-04-24T11:56:50.943Z</time></trkpt><trkpt lat="43.6673717" lon="12.4151925"><ele>357.0</ele><time>2026-04-24T11:56:51.943Z</time></trkpt><trkpt lat="43.6673224" lon="12.414977"><ele>357.0</ele><time>2026-04-24T11:56:52.943Z</time></trkpt><trkpt lat="43.6672757" lon="12.41478"><ele>357.0</ele><time>2026-04-24T11:56:53.943Z</time></trkpt><trkpt lat="43.6672406" lon="12.4145877"><ele>357.0</ele><time>2026-04-24T11:56:54.942Z</time></trkpt><trkpt lat="43.6672181" lon="12.4143956"><ele>357.0</ele><time>2026-04-24T11:56:55.942Z</time></trkpt><trkpt lat="43.6672045" lon="12.4142145"><ele>356.75</ele><time>2026-04-24T11:56:56.942Z</time></trkpt><trkpt lat="43.6671875" lon="12.4140401"><ele>356.5</ele><time>2026-04-24T11:56:57.943Z</time></trkpt><trkpt lat="43.6671698" lon="12.4138754"><ele>356.25</ele><time>2026-04-24T11:56:58.943Z</time></trkpt><trkpt lat="43.6671498" lon="12.4137158"><ele>356.0</ele><time>2026-04-24T11:56:59.943Z</time></trkpt><trkpt lat="43.6671342" lon="12.4135608"><ele>356.5</ele><time>2026-04-24T11:57:00.943Z</time></trkpt><trkpt lat="43.6671183" lon="12.4134064"><ele>357.0</ele><time>2026-04-24T11:57:01.943Z</time></trkpt><trkpt lat="43.6671055" lon="12.4132465"><ele>357.5</ele><time>2026-04-24T11:57:02.943Z</time></trkpt><trkpt lat="43.6670927" lon="12.4130823"><ele>358.0</ele><time>2026-04-24T11:57:03.943Z</time></trkpt><trkpt lat="43.6670793" lon="12.4129075"><ele>358.5</ele><time>2026-04-24T11:57:04.943Z</time></trkpt><trkpt lat="43.6670569" lon="12.4127323"><ele>359.0</ele><time>2026-04-24T11:57:05.943Z</time></trkpt><trkpt lat="43.6670384" lon="12.412557"><ele>359.5</ele><time>2026-04-24T11:57:06.943Z</time></trkpt><trkpt lat="43.6670219" lon="12.4123977"><ele>360.0</ele><time>2026-04-24T11:57:07.943Z</time></trkpt><trkpt lat="43.6670081" lon="12.4122499"><ele>360.6666666666667</ele><time>2026-04-24T11:57:08.943Z</time></trkpt><trkpt lat="43.6669946" lon="12.4121174"><ele>361.3333333333333</ele><time>2026-04-24T11:57:09.943Z</time></trkpt><trkpt lat="43.6669839" lon="12.4120041"><ele>362.0</ele><time>2026-04-24T11:57:10.942Z</time></trkpt><trkpt lat="43.6669644" lon="12.4118979"><ele>362.66666666666663</ele><time>2026-04-24T11:57:11.943Z</time></trkpt><trkpt lat="43.6669398" lon="12.4118066"><ele>363.3333333333333</ele><time>2026-04-24T11:57:12.942Z</time></trkpt><trkpt lat="43.6669134" lon="12.4117242"><ele>364.0</ele><time>2026-04-24T11:57:13.942Z</time></trkpt><trkpt lat="43.6669022" lon="12.4116343"><ele>362.4</ele><time>2026-04-24T11:57:14.943Z</time></trkpt><trkpt lat="43.6669028" lon="12.4115164"><ele>360.79999999999995</ele><time>2026-04-24T11:57:15.943Z</time></trkpt><trkpt lat="43.6669012" lon="12.4113802"><ele>359.20000000000005</ele><time>2026-04-24T11:57:16.942Z</time></trkpt><trkpt lat="43.666904" lon="12.4112292"><ele>357.6</ele><time>2026-04-24T11:57:17.943Z</time></trkpt><trkpt lat="43.6668969" lon="12.4110577"><ele>356.0</ele><time>2026-04-24T11:57:18.943Z</time></trkpt><trkpt lat="43.6668827" lon="12.4108762"><ele>356.0</ele><time>2026-04-24T11:57:19.943Z</time></trkpt><trkpt lat="43.6668621" lon="12.4106822"><ele>356.0</ele><time>2026-04-24T11:57:20.944Z</time></trkpt><trkpt lat="43.6668464" lon="12.4104957"><ele>356.0</ele><time>2026-04-24T11:57:21.943Z</time></trkpt><trkpt lat="43.666833" lon="12.4103191"><ele>356.0</ele><time>2026-04-24T11:57:22.943Z</time></trkpt><trkpt lat="43.66682" lon="12.4101427"><ele>355.5</ele><time>2026-04-24T11:57:23.943Z</time></trkpt><trkpt lat="43.6668069" lon="12.4099564"><ele>355.0</ele><time>2026-04-24T11:57:24.944Z</time></trkpt><trkpt lat="43.6667923" lon="12.4097677"><ele>354.5</ele><time>2026-04-24T11:57:25.943Z</time></trkpt><trkpt lat="43.6667788" lon="12.4095753"><ele>354.0</ele><time>2026-04-24T11:57:26.945Z</time></trkpt><trkpt lat="43.6667665" lon="12.4093867"><ele>354.0</ele><time>2026-04-24T11:57:27.943Z</time></trkpt><trkpt lat="43.6667517" lon="12.4091975"><ele>354.0</ele><time>2026-04-24T11:57:28.943Z</time></trkpt><trkpt lat="43.6667292" lon="12.4090217"><ele>354.0</ele><time>2026-04-24T11:57:29.942Z</time></trkpt><trkpt lat="43.6666928" lon="12.4088556"><ele>354.0</ele><time>2026-04-24T11:57:30.944Z</time></trkpt><trkpt lat="43.6666466" lon="12.4087014"><ele>354.0</ele><time>2026-04-24T11:57:31.943Z</time></trkpt><trkpt lat="43.6665531" lon="12.4085632"><ele>354.0</ele><time>2026-04-24T11:57:32.944Z</time></trkpt><trkpt lat="43.6664603" lon="12.4084448"><ele>354.0</ele><time>2026-04-24T11:57:33.943Z</time></trkpt><trkpt lat="43.6663371" lon="12.4083537"><ele>354.0</ele><time>2026-04-24T11:57:34.944Z</time></trkpt><trkpt lat="43.6662126" lon="12.4082707"><ele>356.0</ele><time>2026-04-24T11:57:35.943Z</time></trkpt><trkpt lat="43.6660936" lon="12.4081935"><ele>358.0</ele><time>2026-04-24T11:57:36.943Z</time></trkpt><trkpt lat="43.6653658" lon="12.4077359"><ele>359.0</ele><time>2026-04-24T11:57:42.944Z</time></trkpt><trkpt lat="43.6652935" lon="12.4076606"><ele>360.0</ele><time>2026-04-24T11:57:44.072Z</time></trkpt><trkpt lat="43.6650148" lon="12.4074654"><ele>361.0</ele><time>2026-04-24T11:57:45.942Z</time></trkpt><trkpt lat="43.6649012" lon="12.4073862"><ele>361.0</ele><time>2026-04-24T11:57:46.942Z</time></trkpt><trkpt lat="43.6647879" lon="12.4073077"><ele>361.0</ele><time>2026-04-24T11:57:47.942Z</time></trkpt><trkpt lat="43.6646729" lon="12.4072288"><ele>361.0</ele><time>2026-04-24T11:57:48.942Z</time></trkpt><trkpt lat="43.6645594" lon="12.4071506"><ele>361.0</ele><time>2026-04-24T11:57:49.942Z</time></trkpt><trkpt lat="43.6644431" lon="12.4070707"><ele>361.5</ele><time>2026-04-24T11:57:50.942Z</time></trkpt><trkpt lat="43.66433" lon="12.4069946"><ele>362.0</ele><time>2026-04-24T11:57:51.942Z</time></trkpt><trkpt lat="43.6642114" lon="12.4069189"><ele>362.5</ele><time>2026-04-24T11:57:52.943Z</time></trkpt><trkpt lat="43.6641014" lon="12.4068478"><ele>363.0</ele><time>2026-04-24T11:57:53.942Z</time></trkpt><trkpt lat="43.6639999" lon="12.4067818"><ele>363.0</ele><time>2026-04-24T11:57:54.942Z</time></trkpt><trkpt lat="43.6639174" lon="12.406732"><ele>363.0</ele><time>2026-04-24T11:57:55.942Z</time></trkpt><trkpt lat="43.6638501" lon="12.4066954"><ele>363.0</ele><time>2026-04-24T11:57:56.942Z</time></trkpt><trkpt lat="43.6637706" lon="12.4066562"><ele>363.0</ele><time>2026-04-24T11:57:58.943Z</time></trkpt><trkpt lat="43.663697" lon="12.4066073"><ele>363.0</ele><time>2026-04-24T11:58:00.942Z</time></trkpt><trkpt lat="43.6636376" lon="12.4065568"><ele>363.0</ele><time>2026-04-24T11:58:01.942Z</time></trkpt><trkpt lat="43.6635718" lon="12.4064957"><ele>363.2</ele><time>2026-04-24T11:58:02.942Z</time></trkpt><trkpt lat="43.663509" lon="12.406436"><ele>363.4</ele><time>2026-04-24T11:58:03.942Z</time></trkpt><trkpt lat="43.6634446" lon="12.4063513"><ele>363.59999999999997</ele><time>2026-04-24T11:58:04.942Z</time></trkpt><trkpt lat="43.66339" lon="12.4062495"><ele>363.79999999999995</ele><time>2026-04-24T11:58:05.943Z</time></trkpt><trkpt lat="43.6633361" lon="12.4061288"><ele>364.0</ele><time>2026-04-24T11:58:06.942Z</time></trkpt><trkpt lat="43.6632765" lon="12.4059839"><ele>364.0</ele><time>2026-04-24T11:58:07.942Z</time></trkpt><trkpt lat="43.663216" lon="12.4058301"><ele>364.0</ele><time>2026-04-24T11:58:08.942Z</time></trkpt><trkpt lat="43.66316" lon="12.4056823"><ele>364.0</ele><time>2026-04-24T11:58:09.943Z</time></trkpt><trkpt lat="43.6631053" lon="12.4055443"><ele>364.0</ele><time>2026-04-24T11:58:10.942Z</time></trkpt><trkpt lat="43.6630535" lon="12.4054106"><ele>364.0</ele><time>2026-04-24T11:58:11.942Z</time></trkpt><trkpt lat="43.6629967" lon="12.4052653"><ele>364.0</ele><time>2026-04-24T11:58:12.942Z</time></trkpt><trkpt lat="43.662937" lon="12.4051135"><ele>364.0</ele><time>2026-04-24T11:58:13.943Z</time></trkpt><trkpt lat="43.6628775" lon="12.4049546"><ele>364.0</ele><time>2026-04-24T11:58:14.942Z</time></trkpt><trkpt lat="43.6628153" lon="12.4047897"><ele>364.5</ele><time>2026-04-24T11:58:15.942Z</time></trkpt><trkpt lat="43.6627502" lon="12.404622"><ele>365.0</ele><time>2026-04-24T11:58:16.943Z</time></trkpt><trkpt lat="43.6626816" lon="12.4044498"><ele>365.5</ele><time>2026-04-24T11:58:17.943Z</time></trkpt><trkpt lat="43.6626057" lon="12.404272"><ele>366.0</ele><time>2026-04-24T11:58:18.942Z</time></trkpt><trkpt lat="43.6625223" lon="12.4040816"><ele>366.0</ele><time>2026-04-24T11:58:19.942Z</time></trkpt><trkpt lat="43.6624357" lon="12.4038709"><ele>366.0</ele><time>2026-04-24T11:58:20.942Z</time></trkpt><trkpt lat="43.6623487" lon="12.4036408"><ele>366.0</ele><time>2026-04-24T11:58:21.942Z</time></trkpt><trkpt lat="43.6622594" lon="12.4033973"><ele>366.0</ele><time>2026-04-24T11:58:22.942Z</time></trkpt><trkpt lat="43.6621697" lon="12.4031501"><ele>366.0</ele><time>2026-04-24T11:58:23.943Z</time></trkpt><trkpt lat="43.662075" lon="12.4028972"><ele>366.0</ele><time>2026-04-24T11:58:24.942Z</time></trkpt><trkpt lat="43.6619786" lon="12.4026408"><ele>366.3333333333333</ele><time>2026-04-24T11:58:25.943Z</time></trkpt><trkpt lat="43.6618817" lon="12.4023779"><ele>366.66666666666663</ele><time>2026-04-24T11:58:26.942Z</time></trkpt><trkpt lat="43.6617871" lon="12.4021083"><ele>367.0</ele><time>2026-04-24T11:58:27.942Z</time></trkpt><trkpt lat="43.6616981" lon="12.401833"><ele>367.0</ele><time>2026-04-24T11:58:28.942Z</time></trkpt><trkpt lat="43.6616111" lon="12.4015531"><ele>367.0</ele><time>2026-04-24T11:58:29.942Z</time></trkpt><trkpt lat="43.6615222" lon="12.4012719"><ele>367.0</ele><time>2026-04-24T11:58:30.942Z</time></trkpt><trkpt lat="43.661433" lon="12.4009872"><ele>366.5</ele><time>2026-04-24T11:58:31.942Z</time></trkpt><trkpt lat="43.6613412" lon="12.4007015"><ele>366.0</ele><time>2026-04-24T11:58:32.944Z</time></trkpt><trkpt lat="43.6612472" lon="12.4004145"><ele>365.0</ele><time>2026-04-24T11:58:33.943Z</time></trkpt><trkpt lat="43.6611544" lon="12.4001226"><ele>364.0</ele><time>2026-04-24T11:58:34.942Z</time></trkpt><trkpt lat="43.6610626" lon="12.399826"><ele>367.5</ele><time>2026-04-24T11:58:35.943Z</time></trkpt><trkpt lat="43.6609699" lon="12.3995277"><ele>371.0</ele><time>2026-04-24T11:58:36.942Z</time></trkpt><trkpt lat="43.6608777" lon="12.3992303"><ele>371.0</ele><time>2026-04-24T11:58:37.943Z</time></trkpt><trkpt lat="43.6607848" lon="12.3989368"><ele>371.0</ele><time>2026-04-24T11:58:38.942Z</time></trkpt><trkpt lat="43.6606928" lon="12.3986429"><ele>370.5</ele><time>2026-04-24T11:58:39.942Z</time></trkpt><trkpt lat="43.6606015" lon="12.3983472"><ele>370.0</ele><time>2026-04-24T11:58:40.942Z</time></trkpt><trkpt lat="43.6605092" lon="12.3980489"><ele>369.5</ele><time>2026-04-24T11:58:41.942Z</time></trkpt><trkpt lat="43.6604168" lon="12.3977457"><ele>369.0</ele><time>2026-04-24T11:58:42.942Z</time></trkpt><trkpt lat="43.6603234" lon="12.3974371"><ele>370.0</ele><time>2026-04-24T11:58:43.942Z</time></trkpt><trkpt lat="43.6602295" lon="12.3971267"><ele>371.0</ele><time>2026-04-24T11:58:44.942Z</time></trkpt><trkpt lat="43.6601339" lon="12.3968154"><ele>371.0</ele><time>2026-04-24T11:58:45.942Z</time></trkpt><trkpt lat="43.6600398" lon="12.3965005"><ele>371.0</ele><time>2026-04-24T11:58:46.944Z</time></trkpt><trkpt lat="43.659941" lon="12.3961819"><ele>371.5</ele><time>2026-04-24T11:58:47.942Z</time></trkpt><trkpt lat="43.6598413" lon="12.3958602"><ele>372.0</ele><time>2026-04-24T11:58:48.943Z</time></trkpt><trkpt lat="43.659746" lon="12.3955372"><ele>372.5</ele><time>2026-04-24T11:58:49.943Z</time></trkpt><trkpt lat="43.6596467" lon="12.395214"><ele>373.0</ele><time>2026-04-24T11:58:50.942Z</time></trkpt><trkpt lat="43.6595542" lon="12.3948901"><ele>373.5</ele><time>2026-04-24T11:58:51.942Z</time></trkpt><trkpt lat="43.6594554" lon="12.3945677"><ele>374.0</ele><time>2026-04-24T11:58:52.943Z</time></trkpt><trkpt lat="43.6593546" lon="12.3942472"><ele>375.0</ele><time>2026-04-24T11:58:53.943Z</time></trkpt><trkpt lat="43.6592548" lon="12.3939245"><ele>376.0</ele><time>2026-04-24T11:58:54.943Z</time></trkpt><trkpt lat="43.6591595" lon="12.3936033"><ele>376.0</ele><time>2026-04-24T11:58:55.942Z</time></trkpt><trkpt lat="43.6590579" lon="12.3932816"><ele>376.0</ele><time>2026-04-24T11:58:56.942Z</time></trkpt><trkpt lat="43.6589607" lon="12.3929598"><ele>375.5</ele><time>2026-04-24T11:58:57.942Z</time></trkpt><trkpt lat="43.6588644" lon="12.3926362"><ele>375.0</ele><time>2026-04-24T11:58:58.942Z</time></trkpt><trkpt lat="43.6587685" lon="12.3923181"><ele>375.0</ele><time>2026-04-24T11:58:59.942Z</time></trkpt><trkpt lat="43.6586697" lon="12.391997"><ele>375.0</ele><time>2026-04-24T11:59:00.944Z</time></trkpt><trkpt lat="43.658575" lon="12.3916792"><ele>375.5</ele><time>2026-04-24T11:59:01.943Z</time></trkpt><trkpt lat="43.6584825" lon="12.3913767"><ele>376.0</ele><time>2026-04-24T11:59:02.942Z</time></trkpt><trkpt lat="43.6583962" lon="12.3910931"><ele>376.0</ele><time>2026-04-24T11:59:03.944Z</time></trkpt><trkpt lat="43.65831" lon="12.3908221"><ele>376.0</ele><time>2026-04-24T11:59:04.943Z</time></trkpt><trkpt lat="43.6582028" lon="12.3905809"><ele>376.0</ele><time>2026-04-24T11:59:05.942Z</time></trkpt><trkpt lat="43.6580616" lon="12.3903694"><ele>376.3333333333333</ele><time>2026-04-24T11:59:06.942Z</time></trkpt><trkpt lat="43.6578608" lon="12.3902321"><ele>376.6666666666667</ele><time>2026-04-24T11:59:07.942Z</time></trkpt><trkpt lat="43.6576587" lon="12.390113"><ele>377.0</ele><time>2026-04-24T11:59:08.942Z</time></trkpt><trkpt lat="43.6574684" lon="12.3899961"><ele>379.0</ele><time>2026-04-24T11:59:09.943Z</time></trkpt><trkpt lat="43.6572972" lon="12.389861"><ele>381.0</ele><time>2026-04-24T11:59:10.942Z</time></trkpt><trkpt lat="43.657149" lon="12.3896844"><ele>383.0</ele><time>2026-04-24T11:59:11.942Z</time></trkpt><trkpt lat="43.6570411" lon="12.3894604"><ele>385.0</ele><time>2026-04-24T11:59:12.942Z</time></trkpt><trkpt lat="43.6569471" lon="12.3892111"><ele>387.0</ele><time>2026-04-24T11:59:13.943Z</time></trkpt><trkpt lat="43.6568598" lon="12.3889501"><ele>389.0</ele><time>2026-04-24T11:59:14.943Z</time></trkpt><trkpt lat="43.6567727" lon="12.388671"><ele>389.0</ele><time>2026-04-24T11:59:15.942Z</time></trkpt><trkpt lat="43.6566817" lon="12.3883888"><ele>389.0</ele><time>2026-04-24T11:59:16.942Z</time></trkpt><trkpt lat="43.6565872" lon="12.388101"><ele>388.5</ele><time>2026-04-24T11:59:17.943Z</time></trkpt><trkpt lat="43.6564897" lon="12.3878059"><ele>388.0</ele><time>2026-04-24T11:59:18.943Z</time></trkpt><trkpt lat="43.6563939" lon="12.3875076"><ele>388.0</ele><time>2026-04-24T11:59:19.942Z</time></trkpt><trkpt lat="43.6562979" lon="12.3872072"><ele>388.0</ele><time>2026-04-24T11:59:20.942Z</time></trkpt><trkpt lat="43.6561979" lon="12.3869048"><ele>388.5</ele><time>2026-04-24T11:59:21.942Z</time></trkpt><trkpt lat="43.6560985" lon="12.3865968"><ele>389.0</ele><time>2026-04-24T11:59:22.942Z</time></trkpt><trkpt lat="43.6560005" lon="12.3862876"><ele>389.0</ele><time>2026-04-24T11:59:23.942Z</time></trkpt><trkpt lat="43.6559009" lon="12.3859753"><ele>389.0</ele><time>2026-04-24T11:59:24.943Z</time></trkpt><trkpt lat="43.6557959" lon="12.3856568"><ele>388.0</ele><time>2026-04-24T11:59:25.942Z</time></trkpt><trkpt lat="43.655691" lon="12.3853364"><ele>387.0</ele><time>2026-04-24T11:59:26.942Z</time></trkpt><trkpt lat="43.6555858" lon="12.3850119"><ele>387.0</ele><time>2026-04-24T11:59:27.942Z</time></trkpt><trkpt lat="43.6554817" lon="12.3846869"><ele>387.0</ele><time>2026-04-24T11:59:28.942Z</time></trkpt><trkpt lat="43.6553748" lon="12.3843613"><ele>387.5</ele><time>2026-04-24T11:59:29.942Z</time></trkpt><trkpt lat="43.6552665" lon="12.3840305"><ele>388.0</ele><time>2026-04-24T11:59:30.942Z</time></trkpt><trkpt lat="43.6551596" lon="12.3836995"><ele>387.0</ele><time>2026-04-24T11:59:31.942Z</time></trkpt><trkpt lat="43.655054" lon="12.3833664"><ele>386.0</ele><time>2026-04-24T11:59:32.942Z</time></trkpt><trkpt lat="43.6549465" lon="12.3830311"><ele>386.0</ele><time>2026-04-24T11:59:33.943Z</time></trkpt><trkpt lat="43.6548355" lon="12.3826955"><ele>386.0</ele><time>2026-04-24T11:59:34.943Z</time></trkpt><trkpt lat="43.6547287" lon="12.382356"><ele>385.0</ele><time>2026-04-24T11:59:35.943Z</time></trkpt><trkpt lat="43.654621" lon="12.3820174"><ele>384.0</ele><time>2026-04-24T11:59:36.942Z</time></trkpt><trkpt lat="43.6545085" lon="12.3816779"><ele>385.0</ele><time>2026-04-24T11:59:37.943Z</time></trkpt><trkpt lat="43.6543986" lon="12.3813383"><ele>386.0</ele><time>2026-04-24T11:59:38.942Z</time></trkpt><trkpt lat="43.6542892" lon="12.3810013"><ele>386.0</ele><time>2026-04-24T11:59:39.942Z</time></trkpt><trkpt lat="43.6541775" lon="12.3806612"><ele>386.0</ele><time>2026-04-24T11:59:40.942Z</time></trkpt><trkpt lat="43.6540683" lon="12.3803205"><ele>386.0</ele><time>2026-04-24T11:59:41.943Z</time></trkpt><trkpt lat="43.6539626" lon="12.3799857"><ele>386.0</ele><time>2026-04-24T11:59:42.942Z</time></trkpt><trkpt lat="43.6538535" lon="12.3796523"><ele>384.0</ele><time>2026-04-24T11:59:43.942Z</time></trkpt><trkpt lat="43.6537441" lon="12.3793156"><ele>382.0</ele><time>2026-04-24T11:59:44.942Z</time></trkpt><trkpt lat="43.6536368" lon="12.3789803"><ele>386.5</ele><time>2026-04-24T11:59:45.942Z</time></trkpt><trkpt lat="43.6535359" lon="12.3786378"><ele>391.0</ele><time>2026-04-24T11:59:46.943Z</time></trkpt><trkpt lat="43.6534548" lon="12.3783083"><ele>390.5</ele><time>2026-04-24T11:59:47.942Z</time></trkpt><trkpt lat="43.6533922" lon="12.3779907"><ele>390.0</ele><time>2026-04-24T11:59:48.942Z</time></trkpt><trkpt lat="43.6533166" lon="12.3776763"><ele>390.0</ele><time>2026-04-24T11:59:49.942Z</time></trkpt><trkpt lat="43.6532242" lon="12.3773646"><ele>390.0</ele><time>2026-04-24T11:59:50.943Z</time></trkpt><trkpt lat="43.6531154" lon="12.3770587"><ele>385.5</ele><time>2026-04-24T11:59:51.942Z</time></trkpt><trkpt lat="43.6530005" lon="12.3767604"><ele>381.0</ele><time>2026-04-24T11:59:52.942Z</time></trkpt><trkpt lat="43.6528833" lon="12.3764665"><ele>383.0</ele><time>2026-04-24T11:59:53.942Z</time></trkpt><trkpt lat="43.6527686" lon="12.3761741"><ele>385.0</ele><time>2026-04-24T11:59:54.942Z</time></trkpt><trkpt lat="43.6526595" lon="12.3758849"><ele>385.0</ele><time>2026-04-24T11:59:55.942Z</time></trkpt><trkpt lat="43.652565" lon="12.3755952"><ele>385.0</ele><time>2026-04-24T11:59:56.942Z</time></trkpt><trkpt lat="43.6524952" lon="12.3752939"><ele>385.0</ele><time>2026-04-24T11:59:57.943Z</time></trkpt><trkpt lat="43.6524631" lon="12.3749862"><ele>385.0</ele><time>2026-04-24T11:59:58.942Z</time></trkpt><trkpt lat="43.6524461" lon="12.3746731"><ele>385.0</ele><time>2026-04-24T11:59:59.942Z</time></trkpt><trkpt lat="43.6524279" lon="12.3743564"><ele>385.0</ele><time>2026-04-24T12:00:00.943Z</time></trkpt><trkpt lat="43.6524118" lon="12.3740399"><ele>386.0</ele><time>2026-04-24T12:00:01.943Z</time></trkpt><trkpt lat="43.6523926" lon="12.3737215"><ele>387.0</ele><time>2026-04-24T12:00:02.942Z</time></trkpt><trkpt lat="43.6523743" lon="12.3734042"><ele>387.0</ele><time>2026-04-24T12:00:03.942Z</time></trkpt><trkpt lat="43.6523469" lon="12.3730884"><ele>387.0</ele><time>2026-04-24T12:00:04.943Z</time></trkpt><trkpt lat="43.6522952" lon="12.3727737"><ele>388.0</ele><time>2026-04-24T12:00:05.941Z</time></trkpt><trkpt lat="43.6522238" lon="12.3724669"><ele>389.0</ele><time>2026-04-24T12:00:06.942Z</time></trkpt><trkpt lat="43.6521424" lon="12.3721599"><ele>389.0</ele><time>2026-04-24T12:00:07.941Z</time></trkpt><trkpt lat="43.652053" lon="12.3718547"><ele>389.0</ele><time>2026-04-24T12:00:08.943Z</time></trkpt><trkpt lat="43.6519691" lon="12.3715442"><ele>391.5</ele><time>2026-04-24T12:00:09.942Z</time></trkpt><trkpt lat="43.6518872" lon="12.3712344"><ele>394.0</ele><time>2026-04-24T12:00:10.942Z</time></trkpt><trkpt lat="43.651801" lon="12.370921"><ele>394.0</ele><time>2026-04-24T12:00:11.943Z</time></trkpt><trkpt lat="43.6517147" lon="12.3706023"><ele>394.0</ele><time>2026-04-24T12:00:12.942Z</time></trkpt><trkpt lat="43.6516294" lon="12.3702798"><ele>393.0</ele><time>2026-04-24T12:00:13.943Z</time></trkpt><trkpt lat="43.6515404" lon="12.3699564"><ele>392.0</ele><time>2026-04-24T12:00:14.942Z</time></trkpt><trkpt lat="43.6514462" lon="12.3696362"><ele>392.0</ele><time>2026-04-24T12:00:15.942Z</time></trkpt><trkpt lat="43.6513437" lon="12.3693188"><ele>392.0</ele><time>2026-04-24T12:00:16.943Z</time></trkpt><trkpt lat="43.6512295" lon="12.3690048"><ele>393.0</ele><time>2026-04-24T12:00:17.942Z</time></trkpt><trkpt lat="43.6511074" lon="12.3686924"><ele>394.0</ele><time>2026-04-24T12:00:18.943Z</time></trkpt><trkpt lat="43.6509803" lon="12.3683821"><ele>394.0</ele><time>2026-04-24T12:00:19.943Z</time></trkpt><trkpt lat="43.6508529" lon="12.3680736"><ele>394.0</ele><time>2026-04-24T12:00:20.943Z</time></trkpt><trkpt lat="43.650726" lon="12.3677631"><ele>393.5</ele><time>2026-04-24T12:00:21.942Z</time></trkpt><trkpt lat="43.6505982" lon="12.3674491"><ele>393.0</ele><time>2026-04-24T12:00:22.942Z</time></trkpt><trkpt lat="43.650477" lon="12.3671423"><ele>392.0</ele><time>2026-04-24T12:00:23.942Z</time></trkpt><trkpt lat="43.6503519" lon="12.3668246"><ele>391.0</ele><time>2026-04-24T12:00:24.943Z</time></trkpt><trkpt lat="43.6502324" lon="12.3665131"><ele>392.5</ele><time>2026-04-24T12:00:25.942Z</time></trkpt><trkpt lat="43.6501224" lon="12.3661901"><ele>394.0</ele><time>2026-04-24T12:00:26.944Z</time></trkpt><trkpt lat="43.6500283" lon="12.3658626"><ele>391.5</ele><time>2026-04-24T12:00:27.942Z</time></trkpt><trkpt lat="43.6499404" lon="12.3655276"><ele>389.0</ele><time>2026-04-24T12:00:28.942Z</time></trkpt><trkpt lat="43.6498554" lon="12.3651856"><ele>389.0</ele><time>2026-04-24T12:00:29.942Z</time></trkpt><trkpt lat="43.6497685" lon="12.3648466"><ele>389.0</ele><time>2026-04-24T12:00:30.941Z</time></trkpt><trkpt lat="43.6496845" lon="12.3645102"><ele>389.5</ele><time>2026-04-24T12:00:31.943Z</time></trkpt><trkpt lat="43.6496002" lon="12.3641686"><ele>390.0</ele><time>2026-04-24T12:00:32.941Z</time></trkpt><trkpt lat="43.6495161" lon="12.3638301"><ele>393.5</ele><time>2026-04-24T12:00:33.942Z</time></trkpt><trkpt lat="43.6494296" lon="12.3634894"><ele>397.0</ele><time>2026-04-24T12:00:34.943Z</time></trkpt><trkpt lat="43.6493428" lon="12.3631466"><ele>396.5</ele><time>2026-04-24T12:00:35.942Z</time></trkpt><trkpt lat="43.6492553" lon="12.3628076"><ele>396.0</ele><time>2026-04-24T12:00:36.942Z</time></trkpt><trkpt lat="43.6491662" lon="12.3624709"><ele>395.5</ele><time>2026-04-24T12:00:37.943Z</time></trkpt><trkpt lat="43.6490727" lon="12.3621358"><ele>395.0</ele><time>2026-04-24T12:00:38.942Z</time></trkpt><trkpt lat="43.6489608" lon="12.3618099"><ele>395.0</ele><time>2026-04-24T12:00:39.942Z</time></trkpt><trkpt lat="43.6488351" lon="12.3614963"><ele>395.0</ele><time>2026-04-24T12:00:40.943Z</time></trkpt><trkpt lat="43.6487252" lon="12.361197"><ele>394.0</ele><time>2026-04-24T12:00:41.943Z</time></trkpt><trkpt lat="43.6486556" lon="12.3608831"><ele>393.0</ele><time>2026-04-24T12:00:42.942Z</time></trkpt><trkpt lat="43.6486204" lon="12.360562"><ele>394.5</ele><time>2026-04-24T12:00:43.942Z</time></trkpt><trkpt lat="43.64859" lon="12.3602341"><ele>396.0</ele><time>2026-04-24T12:00:44.942Z</time></trkpt><trkpt lat="43.6485557" lon="12.35991"><ele>396.0</ele><time>2026-04-24T12:00:45.942Z</time></trkpt><trkpt lat="43.6485042" lon="12.3595896"><ele>396.0</ele><time>2026-04-24T12:00:46.942Z</time></trkpt><trkpt lat="43.648456" lon="12.3592675"><ele>396.0</ele><time>2026-04-24T12:00:47.942Z</time></trkpt><trkpt lat="43.6484056" lon="12.3589457"><ele>396.0</ele><time>2026-04-24T12:00:48.941Z</time></trkpt><trkpt lat="43.6483555" lon="12.3586264"><ele>396.5</ele><time>2026-04-24T12:00:49.943Z</time></trkpt><trkpt lat="43.6482978" lon="12.3583073"><ele>397.0</ele><time>2026-04-24T12:00:50.942Z</time></trkpt><trkpt lat="43.6482432" lon="12.3579876"><ele>398.0</ele><time>2026-04-24T12:00:51.942Z</time></trkpt><trkpt lat="43.6481903" lon="12.3576673"><ele>399.0</ele><time>2026-04-24T12:00:52.943Z</time></trkpt><trkpt lat="43.6481375" lon="12.3573457"><ele>399.0</ele><time>2026-04-24T12:00:53.942Z</time></trkpt><trkpt lat="43.6480849" lon="12.357024"><ele>399.0</ele><time>2026-04-24T12:00:54.942Z</time></trkpt><trkpt lat="43.6480375" lon="12.3567061"><ele>399.0</ele><time>2026-04-24T12:00:55.941Z</time></trkpt><trkpt lat="43.6479829" lon="12.3563823"><ele>399.0</ele><time>2026-04-24T12:00:56.941Z</time></trkpt><trkpt lat="43.6479278" lon="12.3560639"><ele>399.5</ele><time>2026-04-24T12:00:57.941Z</time></trkpt><trkpt lat="43.6478737" lon="12.3557405"><ele>400.0</ele><time>2026-04-24T12:00:58.942Z</time></trkpt><trkpt lat="43.6478244" lon="12.3554196"><ele>401.0</ele><time>2026-04-24T12:00:59.942Z</time></trkpt><trkpt lat="43.6477754" lon="12.3550947"><ele>402.0</ele><time>2026-04-24T12:01:00.942Z</time></trkpt><trkpt lat="43.6477314" lon="12.3547704"><ele>403.0</ele><time>2026-04-24T12:01:01.941Z</time></trkpt><trkpt lat="43.6476996" lon="12.3544398"><ele>404.0</ele><time>2026-04-24T12:01:02.942Z</time></trkpt><trkpt lat="43.6476756" lon="12.3541023"><ele>405.0</ele><time>2026-04-24T12:01:03.942Z</time></trkpt><trkpt lat="43.6476537" lon="12.3537682"><ele>406.0</ele><time>2026-04-24T12:01:04.941Z</time></trkpt><trkpt lat="43.6476341" lon="12.3534318"><ele>406.0</ele><time>2026-04-24T12:01:05.942Z</time></trkpt><trkpt lat="43.6476127" lon="12.3530953"><ele>406.0</ele><time>2026-04-24T12:01:06.943Z</time></trkpt><trkpt lat="43.6475882" lon="12.3527613"><ele>405.0</ele><time>2026-04-24T12:01:07.941Z</time></trkpt><trkpt lat="43.6475642" lon="12.3524281"><ele>404.0</ele><time>2026-04-24T12:01:08.942Z</time></trkpt><trkpt lat="43.6475377" lon="12.3520932"><ele>403.0</ele><time>2026-04-24T12:01:09.942Z</time></trkpt><trkpt lat="43.6475156" lon="12.3517508"><ele>402.0</ele><time>2026-04-24T12:01:10.942Z</time></trkpt><trkpt lat="43.6474922" lon="12.3514226"><ele>403.0</ele><time>2026-04-24T12:01:11.942Z</time></trkpt><trkpt lat="43.6474712" lon="12.3510944"><ele>404.0</ele><time>2026-04-24T12:01:12.942Z</time></trkpt><trkpt lat="43.6474404" lon="12.3507725"><ele>403.0</ele><time>2026-04-24T12:01:13.941Z</time></trkpt><trkpt lat="43.6473849" lon="12.3504698"><ele>402.0</ele><time>2026-04-24T12:01:14.941Z</time></trkpt><trkpt lat="43.6473111" lon="12.3501734"><ele>402.0</ele><time>2026-04-24T12:01:15.942Z</time></trkpt><trkpt lat="43.6472227" lon="12.3498781"><ele>402.0</ele><time>2026-04-24T12:01:16.942Z</time></trkpt><trkpt lat="43.647121" lon="12.3495832"><ele>401.5</ele><time>2026-04-24T12:01:17.942Z</time></trkpt><trkpt lat="43.6470142" lon="12.3492911"><ele>401.0</ele><time>2026-04-24T12:01:18.942Z</time></trkpt><trkpt lat="43.6469135" lon="12.3489924"><ele>404.0</ele><time>2026-04-24T12:01:19.941Z</time></trkpt><trkpt lat="43.6468328" lon="12.3486791"><ele>407.0</ele><time>2026-04-24T12:01:20.943Z</time></trkpt><trkpt lat="43.6467649" lon="12.3483636"><ele>407.0</ele><time>2026-04-24T12:01:21.942Z</time></trkpt><trkpt lat="43.6467175" lon="12.3480316"><ele>407.0</ele><time>2026-04-24T12:01:22.941Z</time></trkpt><trkpt lat="43.6467331" lon="12.347709"><ele>407.0</ele><time>2026-04-24T12:01:23.943Z</time></trkpt><trkpt lat="43.6467214" lon="12.3473803"><ele>407.0</ele><time>2026-04-24T12:01:24.941Z</time></trkpt><trkpt lat="43.6467136" lon="12.3470485"><ele>406.0</ele><time>2026-04-24T12:01:25.941Z</time></trkpt><trkpt lat="43.6467055" lon="12.3467254"><ele>405.0</ele><time>2026-04-24T12:01:26.942Z</time></trkpt><trkpt lat="43.6466954" lon="12.3464127"><ele>404.66666666666663</ele><time>2026-04-24T12:01:27.942Z</time></trkpt><trkpt lat="43.646699" lon="12.3461247"><ele>404.3333333333333</ele><time>2026-04-24T12:01:28.942Z</time></trkpt><trkpt lat="43.6467425" lon="12.3458488"><ele>404.0</ele><time>2026-04-24T12:01:29.943Z</time></trkpt><trkpt lat="43.6468338" lon="12.3455999"><ele>405.0</ele><time>2026-04-24T12:01:30.943Z</time></trkpt><trkpt lat="43.646942" lon="12.3453581"><ele>406.0</ele><time>2026-04-24T12:01:31.942Z</time></trkpt><trkpt lat="43.6470623" lon="12.3451151"><ele>407.0</ele><time>2026-04-24T12:01:32.941Z</time></trkpt><trkpt lat="43.6471844" lon="12.3448752"><ele>408.3333333333333</ele><time>2026-04-24T12:01:33.941Z</time></trkpt><trkpt lat="43.6473043" lon="12.3446359"><ele>409.66666666666663</ele><time>2026-04-24T12:01:34.942Z</time></trkpt><trkpt lat="43.6474224" lon="12.3443967"><ele>411.0</ele><time>2026-04-24T12:01:35.942Z</time></trkpt><trkpt lat="43.6475307" lon="12.3441698"><ele>411.0</ele><time>2026-04-24T12:01:36.942Z</time></trkpt><trkpt lat="43.6476308" lon="12.3439466"><ele>411.0</ele><time>2026-04-24T12:01:37.942Z</time></trkpt><trkpt lat="43.6477115" lon="12.3437142"><ele>411.0</ele><time>2026-04-24T12:01:38.942Z</time></trkpt><trkpt lat="43.6477681" lon="12.3434626"><ele>410.66666666666663</ele><time>2026-04-24T12:01:39.942Z</time></trkpt><trkpt lat="43.6477933" lon="12.3431941"><ele>410.3333333333333</ele><time>2026-04-24T12:01:40.942Z</time></trkpt><trkpt lat="43.6477953" lon="12.34292"><ele>410.0</ele><time>2026-04-24T12:01:41.941Z</time></trkpt><trkpt lat="43.6477873" lon="12.3426426"><ele>410.0</ele><time>2026-04-24T12:01:42.941Z</time></trkpt><trkpt lat="43.6477787" lon="12.3423553"><ele>410.0</ele><time>2026-04-24T12:01:43.941Z</time></trkpt><trkpt lat="43.6477694" lon="12.3420652"><ele>410.0</ele><time>2026-04-24T12:01:44.941Z</time></trkpt><trkpt lat="43.6477593" lon="12.3417775"><ele>409.0</ele><time>2026-04-24T12:01:45.942Z</time></trkpt><trkpt lat="43.6477488" lon="12.3414882"><ele>408.0</ele><time>2026-04-24T12:01:46.941Z</time></trkpt><trkpt lat="43.6477416" lon="12.3412007"><ele>407.0</ele><time>2026-04-24T12:01:47.942Z</time></trkpt><trkpt lat="43.6477309" lon="12.3409106"><ele>407.0</ele><time>2026-04-24T12:01:48.943Z</time></trkpt><trkpt lat="43.6477227" lon="12.3406226"><ele>407.0</ele><time>2026-04-24T12:01:49.942Z</time></trkpt><trkpt lat="43.6477116" lon="12.3403332"><ele>407.0</ele><time>2026-04-24T12:01:50.942Z</time></trkpt><trkpt lat="43.6476913" lon="12.3400455"><ele>408.0</ele><time>2026-04-24T12:01:51.943Z</time></trkpt><trkpt lat="43.6476553" lon="12.3397698"><ele>409.0</ele><time>2026-04-24T12:01:52.941Z</time></trkpt><trkpt lat="43.6476028" lon="12.3395004"><ele>410.0</ele><time>2026-04-24T12:01:53.942Z</time></trkpt><trkpt lat="43.6475363" lon="12.3392444"><ele>411.3333333333333</ele><time>2026-04-24T12:01:54.943Z</time></trkpt><trkpt lat="43.6474497" lon="12.3389988"><ele>412.66666666666663</ele><time>2026-04-24T12:01:55.942Z</time></trkpt><trkpt lat="43.6473485" lon="12.3387647"><ele>414.0</ele><time>2026-04-24T12:01:56.942Z</time></trkpt><trkpt lat="43.6472331" lon="12.3385453"><ele>415.33333333333337</ele><time>2026-04-24T12:01:57.942Z</time></trkpt><trkpt lat="43.6471174" lon="12.3383431"><ele>416.6666666666667</ele><time>2026-04-24T12:01:58.941Z</time></trkpt><trkpt lat="43.646985" lon="12.3381773"><ele>418.0</ele><time>2026-04-24T12:01:59.944Z</time></trkpt><trkpt lat="43.646864" lon="12.3380449"><ele>419.33333333333337</ele><time>2026-04-24T12:02:00.941Z</time></trkpt><trkpt lat="43.6467606" lon="12.3379478"><ele>420.6666666666667</ele><time>2026-04-24T12:02:01.942Z</time></trkpt><trkpt lat="43.6466743" lon="12.3378801"><ele>422.0</ele><time>2026-04-24T12:02:02.941Z</time></trkpt><trkpt lat="43.6466113" lon="12.3378387"><ele>423.33333333333337</ele><time>2026-04-24T12:02:03.941Z</time></trkpt><trkpt lat="43.6465588" lon="12.3377889"><ele>424.6666666666667</ele><time>2026-04-24T12:02:17.941Z</time></trkpt><trkpt lat="43.6464906" lon="12.3377371"><ele>426.0</ele><time>2026-04-24T12:02:19.942Z</time></trkpt><trkpt lat="43.6463879" lon="12.3376579"><ele>426.0</ele><time>2026-04-24T12:02:21.942Z</time></trkpt><trkpt lat="43.6462929" lon="12.3375803"><ele>426.0</ele><time>2026-04-24T12:02:23.941Z</time></trkpt><trkpt lat="43.6461888" lon="12.3374997"><ele>426.0</ele><time>2026-04-24T12:02:25.943Z</time></trkpt><trkpt lat="43.6461015" lon="12.3374466"><ele>426.0</ele><time>2026-04-24T12:02:26.943Z</time></trkpt><trkpt lat="43.6460026" lon="12.3373703"><ele>426.0</ele><time>2026-04-24T12:02:27.941Z</time></trkpt><trkpt lat="43.6459095" lon="12.3372651"><ele>425.8333333333333</ele><time>2026-04-24T12:02:28.941Z</time></trkpt><trkpt lat="43.6458266" lon="12.3371479"><ele>425.66666666666663</ele><time>2026-04-24T12:02:29.942Z</time></trkpt><trkpt lat="43.6457819" lon="12.3370477"><ele>425.5</ele><time>2026-04-24T12:02:30.941Z</time></trkpt><trkpt lat="43.6457501" lon="12.3369646"><ele>425.3333333333333</ele><time>2026-04-24T12:02:31.943Z</time></trkpt><trkpt lat="43.6457218" lon="12.3368778"><ele>425.16666666666663</ele><time>2026-04-24T12:02:33.942Z</time></trkpt><trkpt lat="43.645701" lon="12.3367864"><ele>425.0</ele><time>2026-04-24T12:03:28.942Z</time></trkpt><trkpt lat="43.6456849" lon="12.3366408"><ele>425.0</ele><time>2026-04-24T12:03:30.941Z</time></trkpt><trkpt lat="43.6456652" lon="12.3364661"><ele>425.0</ele><time>2026-04-24T12:03:32.943Z</time></trkpt><trkpt lat="43.6456521" lon="12.3363601"><ele>425.0</ele><time>2026-04-24T12:03:33.942Z</time></trkpt><trkpt lat="43.6456507" lon="12.3362418"><ele>425.0</ele><time>2026-04-24T12:03:34.941Z</time></trkpt><trkpt lat="43.6456439" lon="12.3361178"><ele>425.0</ele><time>2026-04-24T12:03:35.941Z</time></trkpt><trkpt lat="43.6456495" lon="12.336005"><ele>425.6</ele><time>2026-04-24T12:03:36.941Z</time></trkpt><trkpt lat="43.6456576" lon="12.3358791"><ele>426.2</ele><time>2026-04-24T12:03:37.941Z</time></trkpt><trkpt lat="43.6456734" lon="12.3357406"><ele>426.79999999999995</ele><time>2026-04-24T12:03:38.943Z</time></trkpt><trkpt lat="43.6456981" lon="12.335605"><ele>427.4</ele><time>2026-04-24T12:03:39.941Z</time></trkpt><trkpt lat="43.6457365" lon="12.335457"><ele>428.0</ele><time>2026-04-24T12:03:40.943Z</time></trkpt><trkpt lat="43.6457832" lon="12.3353184"><ele>428.16666666666663</ele><time>2026-04-24T12:03:41.941Z</time></trkpt><trkpt lat="43.6458294" lon="12.3352023"><ele>428.3333333333333</ele><time>2026-04-24T12:03:42.942Z</time></trkpt><trkpt lat="43.645878" lon="12.3350985"><ele>428.5</ele><time>2026-04-24T12:03:43.941Z</time></trkpt><trkpt lat="43.645924" lon="12.3350096"><ele>428.66666666666663</ele><time>2026-04-24T12:03:44.942Z</time></trkpt><trkpt lat="43.6459734" lon="12.33494"><ele>428.8333333333333</ele><time>2026-04-24T12:03:45.941Z</time></trkpt><trkpt lat="43.6460289" lon="12.3348596"><ele>429.0</ele><time>2026-04-24T12:03:46.942Z</time></trkpt><trkpt lat="43.6460877" lon="12.3347735"><ele>429.25</ele><time>2026-04-24T12:03:47.941Z</time></trkpt><trkpt lat="43.646164" lon="12.3346715"><ele>429.5</ele><time>2026-04-24T12:03:48.941Z</time></trkpt><trkpt lat="43.6462468" lon="12.3345662"><ele>429.75</ele><time>2026-04-24T12:03:49.941Z</time></trkpt><trkpt lat="43.6463434" lon="12.3344554"><ele>430.0</ele><time>2026-04-24T12:03:50.942Z</time></trkpt><trkpt lat="43.6464465" lon="12.3343259"><ele>430.0</ele><time>2026-04-24T12:03:51.941Z</time></trkpt><trkpt lat="43.6465458" lon="12.3341995"><ele>430.0</ele><time>2026-04-24T12:03:52.942Z</time></trkpt><trkpt lat="43.6466413" lon="12.3340812"><ele>430.0</ele><time>2026-04-24T12:03:53.941Z</time></trkpt><trkpt lat="43.6467369" lon="12.3339607"><ele>430.0</ele><time>2026-04-24T12:03:54.941Z</time></trkpt><trkpt lat="43.6468379" lon="12.3338357"><ele>430.5</ele><time>2026-04-24T12:03:55.941Z</time></trkpt><trkpt lat="43.6469434" lon="12.3337124"><ele>431.0</ele><time>2026-04-24T12:03:56.941Z</time></trkpt><trkpt lat="43.6470431" lon="12.3335861"><ele>431.5</ele><time>2026-04-24T12:03:57.942Z</time></trkpt><trkpt lat="43.647145" lon="12.3334556"><ele>432.0</ele><time>2026-04-24T12:03:58.941Z</time></trkpt><trkpt lat="43.6472411" lon="12.3333346"><ele>432.20000000000005</ele><time>2026-04-24T12:03:59.941Z</time></trkpt><trkpt lat="43.6473311" lon="12.3332222"><ele>432.40000000000003</ele><time>2026-04-24T12:04:00.943Z</time></trkpt><trkpt lat="43.6474122" lon="12.33312"><ele>432.59999999999997</ele><time>2026-04-24T12:04:01.941Z</time></trkpt><trkpt lat="43.647488" lon="12.3330259"><ele>432.79999999999995</ele><time>2026-04-24T12:04:02.942Z</time></trkpt><trkpt lat="43.6475603" lon="12.3329333"><ele>433.0</ele><time>2026-04-24T12:04:03.942Z</time></trkpt><trkpt lat="43.6476315" lon="12.33284"><ele>433.00000000000006</ele><time>2026-04-24T12:04:04.941Z</time></trkpt><trkpt lat="43.6477114" lon="12.3327484"><ele>433.0</ele><time>2026-04-24T12:04:05.941Z</time></trkpt><trkpt lat="43.6477792" lon="12.3326585"><ele>433.0</ele><time>2026-04-24T12:04:06.941Z</time></trkpt><trkpt lat="43.6478452" lon="12.332572"><ele>433.0</ele><time>2026-04-24T12:04:07.942Z</time></trkpt><trkpt lat="43.6479081" lon="12.3324962"><ele>433.00000000000006</ele><time>2026-04-24T12:04:08.941Z</time></trkpt><trkpt lat="43.6479624" lon="12.3324214"><ele>433.0</ele><time>2026-04-24T12:04:09.941Z</time></trkpt><trkpt lat="43.6480099" lon="12.3323532"><ele>433.00000000000006</ele><time>2026-04-24T12:04:10.941Z</time></trkpt><trkpt lat="43.6480585" lon="12.3322904"><ele>433.0</ele><time>2026-04-24T12:04:11.941Z</time></trkpt><trkpt lat="43.648109" lon="12.3322171"><ele>433.0</ele><time>2026-04-24T12:04:12.941Z</time></trkpt><trkpt lat="43.648169" lon="12.3321512"><ele>433.0</ele><time>2026-04-24T12:04:13.942Z</time></trkpt><trkpt lat="43.6482449" lon="12.3320789"><ele>433.00000000000006</ele><time>2026-04-24T12:04:14.942Z</time></trkpt><trkpt lat="43.6483411" lon="12.3319759"><ele>433.0</ele><time>2026-04-24T12:04:15.941Z</time></trkpt><trkpt lat="43.6484425" lon="12.3318619"><ele>433.0</ele><time>2026-04-24T12:04:16.941Z</time></trkpt><trkpt lat="43.6485492" lon="12.3317254"><ele>433.0</ele><time>2026-04-24T12:04:17.941Z</time></trkpt><trkpt lat="43.6486559" lon="12.3315743"><ele>433.0</ele><time>2026-04-24T12:04:18.941Z</time></trkpt><trkpt lat="43.6487803" lon="12.3314149"><ele>434.0</ele><time>2026-04-24T12:04:19.941Z</time></trkpt><trkpt lat="43.6488984" lon="12.3312543"><ele>435.0</ele><time>2026-04-24T12:04:20.94Z</time></trkpt><trkpt lat="43.6490445" lon="12.3310889"><ele>436.0</ele><time>2026-04-24T12:04:21.941Z</time></trkpt><trkpt lat="43.6491856" lon="12.3309193"><ele>436.0</ele><time>2026-04-24T12:04:22.941Z</time></trkpt><trkpt lat="43.6493278" lon="12.3307445"><ele>436.0</ele><time>2026-04-24T12:04:23.942Z</time></trkpt><trkpt lat="43.6494886" lon="12.3305655"><ele>436.0</ele><time>2026-04-24T12:04:24.941Z</time></trkpt><trkpt lat="43.6496392" lon="12.3303769"><ele>434.6666666666667</ele><time>2026-04-24T12:04:25.941Z</time></trkpt><trkpt lat="43.6497868" lon="12.3301753"><ele>433.33333333333337</ele><time>2026-04-24T12:04:26.942Z</time></trkpt><trkpt lat="43.6499395" lon="12.3299831"><ele>432.0</ele><time>2026-04-24T12:04:27.942Z</time></trkpt><trkpt lat="43.6500936" lon="12.3297914"><ele>432.33333333333337</ele><time>2026-04-24T12:04:28.94Z</time></trkpt><trkpt lat="43.6502476" lon="12.3295965"><ele>432.6666666666667</ele><time>2026-04-24T12:04:29.941Z</time></trkpt><trkpt lat="43.6504053" lon="12.3294051"><ele>433.0</ele><time>2026-04-24T12:04:30.941Z</time></trkpt><trkpt lat="43.65056" lon="12.3292052"><ele>433.0</ele><time>2026-04-24T12:04:31.941Z</time></trkpt><trkpt lat="43.6507093" lon="12.3289867"><ele>433.0</ele><time>2026-04-24T12:04:32.941Z</time></trkpt><trkpt lat="43.6508433" lon="12.3287616"><ele>433.0</ele><time>2026-04-24T12:04:33.941Z</time></trkpt><trkpt lat="43.6509565" lon="12.3285081"><ele>433.0</ele><time>2026-04-24T12:04:34.941Z</time></trkpt><trkpt lat="43.6510697" lon="12.3282494"><ele>433.0</ele><time>2026-04-24T12:04:35.941Z</time></trkpt><trkpt lat="43.6511822" lon="12.3279809"><ele>433.0</ele><time>2026-04-24T12:04:36.942Z</time></trkpt><trkpt lat="43.6512963" lon="12.3277208"><ele>432.6666666666667</ele><time>2026-04-24T12:04:37.941Z</time></trkpt><trkpt lat="43.6514075" lon="12.3274638"><ele>432.33333333333337</ele><time>2026-04-24T12:04:38.941Z</time></trkpt><trkpt lat="43.6515169" lon="12.3272063"><ele>432.0</ele><time>2026-04-24T12:04:39.942Z</time></trkpt><trkpt lat="43.6516243" lon="12.3269461"><ele>432.66666666666663</ele><time>2026-04-24T12:04:40.941Z</time></trkpt><trkpt lat="43.6517311" lon="12.3266843"><ele>433.3333333333333</ele><time>2026-04-24T12:04:41.941Z</time></trkpt><trkpt lat="43.6518392" lon="12.3264249"><ele>434.0</ele><time>2026-04-24T12:04:42.942Z</time></trkpt><trkpt lat="43.6519435" lon="12.3261642"><ele>434.66666666666663</ele><time>2026-04-24T12:04:43.941Z</time></trkpt><trkpt lat="43.6520549" lon="12.3259084"><ele>435.33333333333337</ele><time>2026-04-24T12:04:44.943Z</time></trkpt><trkpt lat="43.6521574" lon="12.3256532"><ele>436.0</ele><time>2026-04-24T12:04:45.941Z</time></trkpt><trkpt lat="43.6522694" lon="12.3253897"><ele>436.0</ele><time>2026-04-24T12:04:46.94Z</time></trkpt><trkpt lat="43.652377" lon="12.3251312"><ele>436.0</ele><time>2026-04-24T12:04:47.942Z</time></trkpt><trkpt lat="43.6524856" lon="12.3248765"><ele>436.0</ele><time>2026-04-24T12:04:48.942Z</time></trkpt><trkpt lat="43.6525935" lon="12.3246149"><ele>436.33333333333337</ele><time>2026-04-24T12:04:49.941Z</time></trkpt><trkpt lat="43.6527084" lon="12.3243584"><ele>436.66666666666663</ele><time>2026-04-24T12:04:50.941Z</time></trkpt><trkpt lat="43.652819" lon="12.3241003"><ele>437.0</ele><time>2026-04-24T12:04:51.942Z</time></trkpt><trkpt lat="43.6529332" lon="12.3238359"><ele>437.0</ele><time>2026-04-24T12:04:52.942Z</time></trkpt><trkpt lat="43.6530312" lon="12.3235572"><ele>437.0</ele><time>2026-04-24T12:04:53.942Z</time></trkpt><trkpt lat="43.6531204" lon="12.3232696"><ele>440.0</ele><time>2026-04-24T12:04:54.941Z</time></trkpt><trkpt lat="43.6531944" lon="12.3229755"><ele>443.0</ele><time>2026-04-24T12:04:55.941Z</time></trkpt><trkpt lat="43.6532645" lon="12.3226815"><ele>446.0</ele><time>2026-04-24T12:04:56.941Z</time></trkpt><trkpt lat="43.6533407" lon="12.3223858"><ele>449.3333333333333</ele><time>2026-04-24T12:04:57.942Z</time></trkpt><trkpt lat="43.6534317" lon="12.3221039"><ele>452.66666666666663</ele><time>2026-04-24T12:04:58.941Z</time></trkpt><trkpt lat="43.6535523" lon="12.3218443"><ele>456.0</ele><time>2026-04-24T12:04:59.941Z</time></trkpt><trkpt lat="43.6536877" lon="12.3215909"><ele>448.5</ele><time>2026-04-24T12:05:00.94Z</time></trkpt><trkpt lat="43.6538241" lon="12.3213359"><ele>441.0</ele><time>2026-04-24T12:05:01.94Z</time></trkpt><trkpt lat="43.6539503" lon="12.3210691"><ele>441.0</ele><time>2026-04-24T12:05:02.941Z</time></trkpt><trkpt lat="43.6540735" lon="12.3207936"><ele>441.0</ele><time>2026-04-24T12:05:03.941Z</time></trkpt><trkpt lat="43.6541968" lon="12.3205184"><ele>444.0</ele><time>2026-04-24T12:05:04.94Z</time></trkpt><trkpt lat="43.6543177" lon="12.3202429"><ele>447.0</ele><time>2026-04-24T12:05:05.941Z</time></trkpt><trkpt lat="43.6544405" lon="12.3199684"><ele>446.5</ele><time>2026-04-24T12:05:06.941Z</time></trkpt><trkpt lat="43.6545602" lon="12.3196901"><ele>446.0</ele><time>2026-04-24T12:05:07.941Z</time></trkpt><trkpt lat="43.6546798" lon="12.3194155"><ele>446.0</ele><time>2026-04-24T12:05:08.941Z</time></trkpt><trkpt lat="43.6548002" lon="12.3191454"><ele>446.0</ele><time>2026-04-24T12:05:09.941Z</time></trkpt><trkpt lat="43.6549165" lon="12.3188843"><ele>447.3333333333333</ele><time>2026-04-24T12:05:10.941Z</time></trkpt><trkpt lat="43.6550331" lon="12.3186259"><ele>448.66666666666663</ele><time>2026-04-24T12:05:11.941Z</time></trkpt><trkpt lat="43.6551459" lon="12.318364"><ele>450.0</ele><time>2026-04-24T12:05:12.941Z</time></trkpt><trkpt lat="43.6552543" lon="12.3181156"><ele>449.66666666666663</ele><time>2026-04-24T12:05:13.94Z</time></trkpt><trkpt lat="43.6553639" lon="12.3178718"><ele>449.3333333333333</ele><time>2026-04-24T12:05:14.94Z</time></trkpt><trkpt lat="43.6554697" lon="12.3176312"><ele>449.0</ele><time>2026-04-24T12:05:15.941Z</time></trkpt><trkpt lat="43.6555717" lon="12.3174004"><ele>451.3333333333333</ele><time>2026-04-24T12:05:16.94Z</time></trkpt><trkpt lat="43.6556723" lon="12.3171695"><ele>453.66666666666663</ele><time>2026-04-24T12:05:17.941Z</time></trkpt><trkpt lat="43.655776" lon="12.3169415"><ele>456.0</ele><time>2026-04-24T12:05:18.941Z</time></trkpt><trkpt lat="43.6558798" lon="12.3167128"><ele>456.0</ele><time>2026-04-24T12:05:19.942Z</time></trkpt><trkpt lat="43.6559775" lon="12.3164795"><ele>456.0</ele><time>2026-04-24T12:05:20.941Z</time></trkpt><trkpt lat="43.6560585" lon="12.3162311"><ele>456.0</ele><time>2026-04-24T12:05:21.941Z</time></trkpt><trkpt lat="43.6561224" lon="12.315957"><ele>456.0</ele><time>2026-04-24T12:05:22.94Z</time></trkpt><trkpt lat="43.6561394" lon="12.3156562"><ele>456.0</ele><time>2026-04-24T12:05:23.942Z</time></trkpt><trkpt lat="43.6561568" lon="12.3153457"><ele>456.0</ele><time>2026-04-24T12:05:24.943Z</time></trkpt><trkpt lat="43.65618" lon="12.3150308"><ele>455.5</ele><time>2026-04-24T12:05:25.941Z</time></trkpt><trkpt lat="43.6562046" lon="12.3147045"><ele>455.0</ele><time>2026-04-24T12:05:26.942Z</time></trkpt><trkpt lat="43.6562356" lon="12.3143747"><ele>455.0</ele><time>2026-04-24T12:05:27.94Z</time></trkpt><trkpt lat="43.6562754" lon="12.3140391"><ele>455.0</ele><time>2026-04-24T12:05:28.941Z</time></trkpt><trkpt lat="43.656313" lon="12.3137065"><ele>454.5</ele><time>2026-04-24T12:05:29.941Z</time></trkpt><trkpt lat="43.6563442" lon="12.313364"><ele>454.0</ele><time>2026-04-24T12:05:30.941Z</time></trkpt><trkpt lat="43.6563767" lon="12.3130153"><ele>453.5</ele><time>2026-04-24T12:05:31.941Z</time></trkpt><trkpt lat="43.6564085" lon="12.3126657"><ele>453.0</ele><time>2026-04-24T12:05:32.941Z</time></trkpt><trkpt lat="43.656438" lon="12.3123134"><ele>454.5</ele><time>2026-04-24T12:05:33.941Z</time></trkpt><trkpt lat="43.6564664" lon="12.3119613"><ele>456.0</ele><time>2026-04-24T12:05:34.942Z</time></trkpt><trkpt lat="43.6564986" lon="12.3116099"><ele>460.5</ele><time>2026-04-24T12:05:35.942Z</time></trkpt><trkpt lat="43.6565297" lon="12.3112601"><ele>465.0</ele><time>2026-04-24T12:05:36.942Z</time></trkpt><trkpt lat="43.6565677" lon="12.3109086"><ele>468.5</ele><time>2026-04-24T12:05:37.941Z</time></trkpt><trkpt lat="43.6566204" lon="12.3105661"><ele>472.0</ele><time>2026-04-24T12:05:38.942Z</time></trkpt><trkpt lat="43.6566939" lon="12.3102294"><ele>472.0</ele><time>2026-04-24T12:05:39.94Z</time></trkpt><trkpt lat="43.656785" lon="12.3099043"><ele>472.0</ele><time>2026-04-24T12:05:40.941Z</time></trkpt><trkpt lat="43.656882" lon="12.3095886"><ele>459.5</ele><time>2026-04-24T12:05:41.941Z</time></trkpt><trkpt lat="43.6569744" lon="12.3092642"><ele>447.0</ele><time>2026-04-24T12:05:42.941Z</time></trkpt><trkpt lat="43.6570648" lon="12.3089448"><ele>451.5</ele><time>2026-04-24T12:05:43.941Z</time></trkpt><trkpt lat="43.6571576" lon="12.308624"><ele>456.0</ele><time>2026-04-24T12:05:44.941Z</time></trkpt><trkpt lat="43.6572477" lon="12.3083009"><ele>458.5</ele><time>2026-04-24T12:05:45.941Z</time></trkpt><trkpt lat="43.6573372" lon="12.3079811"><ele>461.0</ele><time>2026-04-24T12:05:46.94Z</time></trkpt><trkpt lat="43.6574336" lon="12.3076678"><ele>461.0</ele><time>2026-04-24T12:05:47.941Z</time></trkpt><trkpt lat="43.6575293" lon="12.3073551"><ele>461.0</ele><time>2026-04-24T12:05:48.941Z</time></trkpt><trkpt lat="43.657622" lon="12.3070471"><ele>463.5</ele><time>2026-04-24T12:05:49.942Z</time></trkpt><trkpt lat="43.6577057" lon="12.3067505"><ele>466.0</ele><time>2026-04-24T12:05:50.941Z</time></trkpt><trkpt lat="43.657769" lon="12.3064596"><ele>463.33333333333337</ele><time>2026-04-24T12:05:51.942Z</time></trkpt><trkpt lat="43.6577929" lon="12.3061589"><ele>460.66666666666663</ele><time>2026-04-24T12:05:52.94Z</time></trkpt><trkpt lat="43.657798" lon="12.3058494"><ele>458.0</ele><time>2026-04-24T12:05:53.94Z</time></trkpt><trkpt lat="43.6577942" lon="12.3055359"><ele>456.5</ele><time>2026-04-24T12:05:54.941Z</time></trkpt><trkpt lat="43.6577902" lon="12.3052213"><ele>455.0</ele><time>2026-04-24T12:05:55.941Z</time></trkpt><trkpt lat="43.6577846" lon="12.3048953"><ele>465.0</ele><time>2026-04-24T12:05:56.941Z</time></trkpt><trkpt lat="43.6577751" lon="12.3045659"><ele>475.0</ele><time>2026-04-24T12:05:57.941Z</time></trkpt><trkpt lat="43.6577655" lon="12.30424"><ele>475.0</ele><time>2026-04-24T12:05:58.94Z</time></trkpt><trkpt lat="43.6577545" lon="12.3039138"><ele>475.0</ele><time>2026-04-24T12:05:59.94Z</time></trkpt><trkpt lat="43.6577429" lon="12.3035866"><ele>477.0</ele><time>2026-04-24T12:06:00.941Z</time></trkpt><trkpt lat="43.6577327" lon="12.3032528"><ele>479.0</ele><time>2026-04-24T12:06:01.941Z</time></trkpt><trkpt lat="43.6577241" lon="12.3029261"><ele>479.0</ele><time>2026-04-24T12:06:02.94Z</time></trkpt><trkpt lat="43.657716" lon="12.302596"><ele>479.0</ele><time>2026-04-24T12:06:03.942Z</time></trkpt><trkpt lat="43.657704" lon="12.3022709"><ele>475.5</ele><time>2026-04-24T12:06:04.94Z</time></trkpt><trkpt lat="43.6576909" lon="12.3019371"><ele>472.0</ele><time>2026-04-24T12:06:05.941Z</time></trkpt><trkpt lat="43.6576833" lon="12.3016149"><ele>472.5</ele><time>2026-04-24T12:06:06.94Z</time></trkpt><trkpt lat="43.657678" lon="12.3012859"><ele>473.0</ele><time>2026-04-24T12:06:07.94Z</time></trkpt><trkpt lat="43.6576726" lon="12.3009543"><ele>473.0</ele><time>2026-04-24T12:06:08.941Z</time></trkpt><trkpt lat="43.6576713" lon="12.3006281"><ele>473.0</ele><time>2026-04-24T12:06:09.94Z</time></trkpt><trkpt lat="43.6576812" lon="12.3002997"><ele>474.0</ele><time>2026-04-24T12:06:10.942Z</time></trkpt><trkpt lat="43.6577026" lon="12.2999702"><ele>475.0</ele><time>2026-04-24T12:06:11.942Z</time></trkpt><trkpt lat="43.6577198" lon="12.2996463"><ele>475.0</ele><time>2026-04-24T12:06:12.94Z</time></trkpt><trkpt lat="43.6577401" lon="12.2993225"><ele>475.0</ele><time>2026-04-24T12:06:13.94Z</time></trkpt><trkpt lat="43.6577652" lon="12.2989955"><ele>470.0</ele><time>2026-04-24T12:06:14.941Z</time></trkpt><trkpt lat="43.6577879" lon="12.2986748"><ele>465.0</ele><time>2026-04-24T12:06:15.94Z</time></trkpt><trkpt lat="43.6578056" lon="12.2983554"><ele>465.0</ele><time>2026-04-24T12:06:16.941Z</time></trkpt><trkpt lat="43.6578025" lon="12.2980314"><ele>465.0</ele><time>2026-04-24T12:06:17.942Z</time></trkpt><trkpt lat="43.6577591" lon="12.2977153"><ele>468.0</ele><time>2026-04-24T12:06:18.94Z</time></trkpt><trkpt lat="43.6576967" lon="12.2974064"><ele>471.0</ele><time>2026-04-24T12:06:19.94Z</time></trkpt><trkpt lat="43.6576247" lon="12.2971038"><ele>471.0</ele><time>2026-04-24T12:06:20.941Z</time></trkpt><trkpt lat="43.6575521" lon="12.2968074"><ele>471.0</ele><time>2026-04-24T12:06:21.941Z</time></trkpt><trkpt lat="43.6574836" lon="12.2965096"><ele>470.33333333333337</ele><time>2026-04-24T12:06:22.942Z</time></trkpt><trkpt lat="43.6574132" lon="12.2962122"><ele>469.6666666666667</ele><time>2026-04-24T12:06:23.941Z</time></trkpt><trkpt lat="43.6573447" lon="12.2959269"><ele>469.0</ele><time>2026-04-24T12:06:24.94Z</time></trkpt><trkpt lat="43.6572338" lon="12.2956715"><ele>469.33333333333337</ele><time>2026-04-24T12:06:25.94Z</time></trkpt><trkpt lat="43.6571144" lon="12.2954256"><ele>469.66666666666663</ele><time>2026-04-24T12:06:26.941Z</time></trkpt><trkpt lat="43.6569878" lon="12.2951875"><ele>470.0</ele><time>2026-04-24T12:06:27.941Z</time></trkpt><trkpt lat="43.656854" lon="12.2949533"><ele>471.66666666666663</ele><time>2026-04-24T12:06:28.941Z</time></trkpt><trkpt lat="43.6567259" lon="12.2947157"><ele>473.33333333333337</ele><time>2026-04-24T12:06:29.94Z</time></trkpt><trkpt lat="43.6565998" lon="12.2944724"><ele>475.0</ele><time>2026-04-24T12:06:30.941Z</time></trkpt><trkpt lat="43.6564717" lon="12.2942276"><ele>475.0</ele><time>2026-04-24T12:06:31.94Z</time></trkpt><trkpt lat="43.6563295" lon="12.294"><ele>475.0</ele><time>2026-04-24T12:06:32.94Z</time></trkpt><trkpt lat="43.6561809" lon="12.2937819"><ele>475.0</ele><time>2026-04-24T12:06:33.941Z</time></trkpt><trkpt lat="43.6560204" lon="12.2935813"><ele>475.33333333333337</ele><time>2026-04-24T12:06:34.94Z</time></trkpt><trkpt lat="43.6558494" lon="12.2933827"><ele>475.66666666666663</ele><time>2026-04-24T12:06:35.941Z</time></trkpt><trkpt lat="43.6556811" lon="12.2931831"><ele>476.0</ele><time>2026-04-24T12:06:36.941Z</time></trkpt><trkpt lat="43.6555137" lon="12.2929891"><ele>476.0</ele><time>2026-04-24T12:06:37.941Z</time></trkpt><trkpt lat="43.6553379" lon="12.292807"><ele>476.0</ele><time>2026-04-24T12:06:38.942Z</time></trkpt><trkpt lat="43.6551558" lon="12.2926367"><ele>476.0</ele><time>2026-04-24T12:06:39.941Z</time></trkpt><trkpt lat="43.6549714" lon="12.2924794"><ele>475.66666666666663</ele><time>2026-04-24T12:06:40.941Z</time></trkpt><trkpt lat="43.6547865" lon="12.2923241"><ele>475.33333333333337</ele><time>2026-04-24T12:06:41.942Z</time></trkpt><trkpt lat="43.6545986" lon="12.2921763"><ele>475.0</ele><time>2026-04-24T12:06:42.94Z</time></trkpt><trkpt lat="43.6544079" lon="12.2920208"><ele>476.33333333333337</ele><time>2026-04-24T12:06:43.94Z</time></trkpt><trkpt lat="43.6542196" lon="12.2918714"><ele>477.66666666666663</ele><time>2026-04-24T12:06:44.94Z</time></trkpt><trkpt lat="43.6540338" lon="12.2917139"><ele>479.0</ele><time>2026-04-24T12:06:45.941Z</time></trkpt><trkpt lat="43.653844" lon="12.2915511"><ele>478.66666666666663</ele><time>2026-04-24T12:06:46.94Z</time></trkpt><trkpt lat="43.6536585" lon="12.2913884"><ele>478.33333333333337</ele><time>2026-04-24T12:06:47.94Z</time></trkpt><trkpt lat="43.6534716" lon="12.2912123"><ele>478.0</ele><time>2026-04-24T12:06:48.94Z</time></trkpt><trkpt lat="43.6532897" lon="12.2910384"><ele>478.0</ele><time>2026-04-24T12:06:49.941Z</time></trkpt><trkpt lat="43.6531057" lon="12.2908571"><ele>478.0</ele><time>2026-04-24T12:06:50.941Z</time></trkpt><trkpt lat="43.6529214" lon="12.2906809"><ele>480.5</ele><time>2026-04-24T12:06:51.942Z</time></trkpt><trkpt lat="43.6527388" lon="12.2905002"><ele>483.0</ele><time>2026-04-24T12:06:52.94Z</time></trkpt><trkpt lat="43.6525523" lon="12.2903227"><ele>483.0</ele><time>2026-04-24T12:06:53.942Z</time></trkpt><trkpt lat="43.6523688" lon="12.2901463"><ele>483.0</ele><time>2026-04-24T12:06:54.94Z</time></trkpt><trkpt lat="43.6521864" lon="12.2899661"><ele>483.0</ele><time>2026-04-24T12:06:55.94Z</time></trkpt><trkpt lat="43.6520069" lon="12.2897906"><ele>484.0</ele><time>2026-04-24T12:06:56.94Z</time></trkpt><trkpt lat="43.6518266" lon="12.2896103"><ele>485.0</ele><time>2026-04-24T12:06:57.941Z</time></trkpt><trkpt lat="43.6516457" lon="12.2894307"><ele>486.0</ele><time>2026-04-24T12:06:58.94Z</time></trkpt><trkpt lat="43.6514689" lon="12.2892591"><ele>486.0</ele><time>2026-04-24T12:06:59.94Z</time></trkpt><trkpt lat="43.6513008" lon="12.2890944"><ele>486.0</ele><time>2026-04-24T12:07:00.941Z</time></trkpt><trkpt lat="43.651129" lon="12.2889404"><ele>486.0</ele><time>2026-04-24T12:07:01.941Z</time></trkpt><trkpt lat="43.6509439" lon="12.288827"><ele>485.33333333333337</ele><time>2026-04-24T12:07:02.94Z</time></trkpt><trkpt lat="43.6507635" lon="12.2887406"><ele>484.6666666666667</ele><time>2026-04-24T12:07:03.941Z</time></trkpt><trkpt lat="43.6505887" lon="12.2886715"><ele>484.0</ele><time>2026-04-24T12:07:04.942Z</time></trkpt><trkpt lat="43.650444" lon="12.2885726"><ele>484.0</ele><time>2026-04-24T12:07:05.941Z</time></trkpt><trkpt lat="43.6503361" lon="12.288439"><ele>484.0</ele><time>2026-04-24T12:07:06.941Z</time></trkpt><trkpt lat="43.6502809" lon="12.2882651"><ele>484.0</ele><time>2026-04-24T12:07:07.941Z</time></trkpt><trkpt lat="43.6502665" lon="12.2880633"><ele>484.0</ele><time>2026-04-24T12:07:08.94Z</time></trkpt><trkpt lat="43.6502577" lon="12.2878369"><ele>484.6666666666667</ele><time>2026-04-24T12:07:09.941Z</time></trkpt><trkpt lat="43.6502341" lon="12.2876026"><ele>485.33333333333337</ele><time>2026-04-24T12:07:10.94Z</time></trkpt><trkpt lat="43.6501848" lon="12.2873588"><ele>486.0</ele><time>2026-04-24T12:07:11.941Z</time></trkpt><trkpt lat="43.6500998" lon="12.2871205"><ele>489.33333333333337</ele><time>2026-04-24T12:07:12.94Z</time></trkpt><trkpt lat="43.6499914" lon="12.2868872"><ele>492.6666666666667</ele><time>2026-04-24T12:07:13.94Z</time></trkpt><trkpt lat="43.6498762" lon="12.2866513"><ele>496.0</ele><time>2026-04-24T12:07:14.941Z</time></trkpt><trkpt lat="43.6497569" lon="12.2864164"><ele>495.6666666666667</ele><time>2026-04-24T12:07:15.94Z</time></trkpt><trkpt lat="43.6496075" lon="12.2862038"><ele>495.33333333333337</ele><time>2026-04-24T12:07:16.94Z</time></trkpt><trkpt lat="43.6494285" lon="12.2860314"><ele>495.0</ele><time>2026-04-24T12:07:17.94Z</time></trkpt><trkpt lat="43.6492317" lon="12.2858917"><ele>495.0</ele><time>2026-04-24T12:07:18.94Z</time></trkpt><trkpt lat="43.6490241" lon="12.2857655"><ele>495.0</ele><time>2026-04-24T12:07:19.943Z</time></trkpt><trkpt lat="43.6488108" lon="12.28564"><ele>500.0</ele><time>2026-04-24T12:07:20.94Z</time></trkpt><trkpt lat="43.6485962" lon="12.2855093"><ele>505.0</ele><time>2026-04-24T12:07:21.941Z</time></trkpt><trkpt lat="43.6483791" lon="12.2853806"><ele>505.0</ele><time>2026-04-24T12:07:22.94Z</time></trkpt><trkpt lat="43.6481596" lon="12.2852479"><ele>505.0</ele><time>2026-04-24T12:07:23.94Z</time></trkpt><trkpt lat="43.6479458" lon="12.285118"><ele>503.0</ele><time>2026-04-24T12:07:24.94Z</time></trkpt><trkpt lat="43.6477275" lon="12.2849852"><ele>501.0</ele><time>2026-04-24T12:07:25.941Z</time></trkpt><trkpt lat="43.6475086" lon="12.2848505"><ele>510.0</ele><time>2026-04-24T12:07:26.941Z</time></trkpt><trkpt lat="43.6472902" lon="12.2847136"><ele>519.0</ele><time>2026-04-24T12:07:27.941Z</time></trkpt><trkpt lat="43.6470706" lon="12.2845748"><ele>516.5</ele><time>2026-04-24T12:07:28.94Z</time></trkpt><trkpt lat="43.6468484" lon="12.2844368"><ele>514.0</ele><time>2026-04-24T12:07:29.94Z</time></trkpt><trkpt lat="43.6466225" lon="12.284299"><ele>514.0</ele><time>2026-04-24T12:07:30.94Z</time></trkpt><trkpt lat="43.6463998" lon="12.2841662"><ele>514.0</ele><time>2026-04-24T12:07:31.941Z</time></trkpt><trkpt lat="43.6461738" lon="12.284028"><ele>516.0</ele><time>2026-04-24T12:07:32.94Z</time></trkpt><trkpt lat="43.6459483" lon="12.2838943"><ele>518.0</ele><time>2026-04-24T12:07:33.941Z</time></trkpt><trkpt lat="43.6457275" lon="12.2837574"><ele>518.0</ele><time>2026-04-24T12:07:34.94Z</time></trkpt><trkpt lat="43.6455053" lon="12.2836234"><ele>518.0</ele><time>2026-04-24T12:07:35.941Z</time></trkpt><trkpt lat="43.6452851" lon="12.2834851"><ele>513.0</ele><time>2026-04-24T12:07:36.941Z</time></trkpt><trkpt lat="43.6450651" lon="12.2833508"><ele>508.0</ele><time>2026-04-24T12:07:37.941Z</time></trkpt><trkpt lat="43.6448406" lon="12.2832133"><ele>513.0</ele><time>2026-04-24T12:07:38.94Z</time></trkpt><trkpt lat="43.6446211" lon="12.2830822"><ele>518.0</ele><time>2026-04-24T12:07:39.941Z</time></trkpt><trkpt lat="43.6444024" lon="12.2829475"><ele>518.0</ele><time>2026-04-24T12:07:40.94Z</time></trkpt><trkpt lat="43.6441869" lon="12.28281"><ele>518.0</ele><time>2026-04-24T12:07:41.94Z</time></trkpt><trkpt lat="43.6439707" lon="12.2826787"><ele>518.0</ele><time>2026-04-24T12:07:42.94Z</time></trkpt><trkpt lat="43.6437637" lon="12.2825563"><ele>518.0</ele><time>2026-04-24T12:07:43.94Z</time></trkpt><trkpt lat="43.6435697" lon="12.282437"><ele>518.0</ele><time>2026-04-24T12:07:44.94Z</time></trkpt><trkpt lat="43.6433882" lon="12.2823245"><ele>521.0</ele><time>2026-04-24T12:07:45.94Z</time></trkpt><trkpt lat="43.6432234" lon="12.2821925"><ele>524.0</ele><time>2026-04-24T12:07:46.941Z</time></trkpt><trkpt lat="43.6430765" lon="12.2820182"><ele>527.0</ele><time>2026-04-24T12:07:47.94Z</time></trkpt><trkpt lat="43.6429399" lon="12.2818196"><ele>527.0</ele><time>2026-04-24T12:07:48.94Z</time></trkpt><trkpt lat="43.6428226" lon="12.2815977"><ele>527.0</ele><time>2026-04-24T12:07:49.941Z</time></trkpt><trkpt lat="43.6426929" lon="12.2813909"><ele>527.0</ele><time>2026-04-24T12:07:50.941Z</time></trkpt><trkpt lat="43.642532" lon="12.2812131"><ele>527.6666666666666</ele><time>2026-04-24T12:07:51.942Z</time></trkpt><trkpt lat="43.6423434" lon="12.2810729"><ele>528.3333333333334</ele><time>2026-04-24T12:07:52.94Z</time></trkpt><trkpt lat="43.6421337" lon="12.2809522"><ele>529.0</ele><time>2026-04-24T12:07:53.941Z</time></trkpt><trkpt lat="43.6419158" lon="12.2808294"><ele>530.0</ele><time>2026-04-24T12:07:54.94Z</time></trkpt><trkpt lat="43.641693" lon="12.2807048"><ele>531.0</ele><time>2026-04-24T12:07:55.94Z</time></trkpt><trkpt lat="43.6414665" lon="12.2805747"><ele>531.0</ele><time>2026-04-24T12:07:56.94Z</time></trkpt><trkpt lat="43.641238" lon="12.2804521"><ele>531.0</ele><time>2026-04-24T12:07:57.94Z</time></trkpt><trkpt lat="43.6410149" lon="12.2803248"><ele>528.5</ele><time>2026-04-24T12:07:58.94Z</time></trkpt><trkpt lat="43.6407905" lon="12.2802023"><ele>526.0</ele><time>2026-04-24T12:07:59.941Z</time></trkpt><trkpt lat="43.6405616" lon="12.2800735"><ele>526.0</ele><time>2026-04-24T12:08:00.94Z</time></trkpt><trkpt lat="43.6403361" lon="12.2799393"><ele>526.0</ele><time>2026-04-24T12:08:01.94Z</time></trkpt><trkpt lat="43.64011" lon="12.2798076"><ele>529.5</ele><time>2026-04-24T12:08:02.941Z</time></trkpt><trkpt lat="43.6398905" lon="12.2796821"><ele>533.0</ele><time>2026-04-24T12:08:03.941Z</time></trkpt><trkpt lat="43.6396685" lon="12.2795589"><ele>526.5</ele><time>2026-04-24T12:08:04.941Z</time></trkpt><trkpt lat="43.6394507" lon="12.279445"><ele>520.0</ele><time>2026-04-24T12:08:05.94Z</time></trkpt><trkpt lat="43.6392352" lon="12.2793284"><ele>520.0</ele><time>2026-04-24T12:08:06.94Z</time></trkpt><trkpt lat="43.6390239" lon="12.2792078"><ele>520.0</ele><time>2026-04-24T12:08:07.939Z</time></trkpt><trkpt lat="43.6388121" lon="12.2790915"><ele>519.0</ele><time>2026-04-24T12:08:08.941Z</time></trkpt><trkpt lat="43.6386011" lon="12.278976"><ele>518.0</ele><time>2026-04-24T12:08:09.939Z</time></trkpt><trkpt lat="43.6383924" lon="12.2788583"><ele>520.0</ele><time>2026-04-24T12:08:10.94Z</time></trkpt><trkpt lat="43.638189" lon="12.2787391"><ele>522.0</ele><time>2026-04-24T12:08:11.94Z</time></trkpt><trkpt lat="43.6379816" lon="12.2786228"><ele>524.0</ele><time>2026-04-24T12:08:12.94Z</time></trkpt><trkpt lat="43.6377734" lon="12.2785075"><ele>524.0</ele><time>2026-04-24T12:08:13.94Z</time></trkpt><trkpt lat="43.6375639" lon="12.2783896"><ele>524.0</ele><time>2026-04-24T12:08:14.941Z</time></trkpt><trkpt lat="43.6373556" lon="12.2782712"><ele>524.0</ele><time>2026-04-24T12:08:15.94Z</time></trkpt><trkpt lat="43.6371515" lon="12.2781586"><ele>524.0</ele><time>2026-04-24T12:08:16.94Z</time></trkpt><trkpt lat="43.6369498" lon="12.278048"><ele>524.0</ele><time>2026-04-24T12:08:17.941Z</time></trkpt><trkpt lat="43.6367628" lon="12.2779474"><ele>526.6666666666666</ele><time>2026-04-24T12:08:18.94Z</time></trkpt><trkpt lat="43.6365916" lon="12.2778407"><ele>529.3333333333334</ele><time>2026-04-24T12:08:19.94Z</time></trkpt><trkpt lat="43.6364476" lon="12.2777116"><ele>532.0</ele><time>2026-04-24T12:08:20.94Z</time></trkpt><trkpt lat="43.6363486" lon="12.2775452"><ele>532.0</ele><time>2026-04-24T12:08:21.941Z</time></trkpt><trkpt lat="43.6362952" lon="12.277328"><ele>532.0</ele><time>2026-04-24T12:08:22.94Z</time></trkpt><trkpt lat="43.6362622" lon="12.2770904"><ele>532.0</ele><time>2026-04-24T12:08:23.94Z</time></trkpt><trkpt lat="43.6362356" lon="12.2768345"><ele>532.0</ele><time>2026-04-24T12:08:24.94Z</time></trkpt><trkpt lat="43.6361952" lon="12.276573"><ele>532.0</ele><time>2026-04-24T12:08:25.941Z</time></trkpt><trkpt lat="43.636117" lon="12.2763202"><ele>532.0</ele><time>2026-04-24T12:08:26.941Z</time></trkpt><trkpt lat="43.636005" lon="12.276084"><ele>532.0</ele><time>2026-04-24T12:08:27.939Z</time></trkpt><trkpt lat="43.6358598" lon="12.2758842"><ele>532.0</ele><time>2026-04-24T12:08:28.94Z</time></trkpt><trkpt lat="43.6356828" lon="12.2757049"><ele>532.0</ele><time>2026-04-24T12:08:29.941Z</time></trkpt><trkpt lat="43.6354931" lon="12.2755417"><ele>533.5</ele><time>2026-04-24T12:08:30.94Z</time></trkpt><trkpt lat="43.6353015" lon="12.2753811"><ele>535.0</ele><time>2026-04-24T12:08:31.94Z</time></trkpt><trkpt lat="43.6351093" lon="12.2752118"><ele>535.0</ele><time>2026-04-24T12:08:32.94Z</time></trkpt><trkpt lat="43.6349175" lon="12.2750406"><ele>535.0</ele><time>2026-04-24T12:08:33.94Z</time></trkpt><trkpt lat="43.6347236" lon="12.2748711"><ele>537.5</ele><time>2026-04-24T12:08:34.94Z</time></trkpt><trkpt lat="43.634532" lon="12.2747028"><ele>540.0</ele><time>2026-04-24T12:08:35.941Z</time></trkpt><trkpt lat="43.6343463" lon="12.2745286"><ele>540.0</ele><time>2026-04-24T12:08:36.94Z</time></trkpt><trkpt lat="43.6341854" lon="12.2743278"><ele>540.0</ele><time>2026-04-24T12:08:37.941Z</time></trkpt><trkpt lat="43.6340317" lon="12.2741026"><ele>540.0</ele><time>2026-04-24T12:08:38.94Z</time></trkpt><trkpt lat="43.6338841" lon="12.2738697"><ele>537.5</ele><time>2026-04-24T12:08:39.94Z</time></trkpt><trkpt lat="43.6337381" lon="12.2736307"><ele>535.0</ele><time>2026-04-24T12:08:40.94Z</time></trkpt><trkpt lat="43.6335953" lon="12.2733915"><ele>535.0</ele><time>2026-04-24T12:08:41.94Z</time></trkpt><trkpt lat="43.6334484" lon="12.2731559"><ele>535.0</ele><time>2026-04-24T12:08:42.94Z</time></trkpt><trkpt lat="43.6333029" lon="12.2729111"><ele>539.0</ele><time>2026-04-24T12:08:43.94Z</time></trkpt><trkpt lat="43.6331543" lon="12.2726658"><ele>543.0</ele><time>2026-04-24T12:08:44.94Z</time></trkpt><trkpt lat="43.6330052" lon="12.27242"><ele>542.5</ele><time>2026-04-24T12:08:45.94Z</time></trkpt><trkpt lat="43.6328543" lon="12.2721754"><ele>542.0</ele><time>2026-04-24T12:08:46.94Z</time></trkpt><trkpt lat="43.6326965" lon="12.2719324"><ele>542.0</ele><time>2026-04-24T12:08:47.941Z</time></trkpt><trkpt lat="43.6325347" lon="12.2716993"><ele>542.0</ele><time>2026-04-24T12:08:48.94Z</time></trkpt><trkpt lat="43.6323617" lon="12.2714771"><ele>549.0</ele><time>2026-04-24T12:08:49.94Z</time></trkpt><trkpt lat="43.6321852" lon="12.2712602"><ele>556.0</ele><time>2026-04-24T12:08:50.939Z</time></trkpt><trkpt lat="43.6320071" lon="12.2710474"><ele>551.5</ele><time>2026-04-24T12:08:51.941Z</time></trkpt><trkpt lat="43.6318293" lon="12.2708289"><ele>547.0</ele><time>2026-04-24T12:08:52.94Z</time></trkpt><trkpt lat="43.6316552" lon="12.2706165"><ele>553.0</ele><time>2026-04-24T12:08:53.94Z</time></trkpt><trkpt lat="43.6314877" lon="12.2704131"><ele>559.0</ele><time>2026-04-24T12:08:54.941Z</time></trkpt><trkpt lat="43.6313335" lon="12.270218"><ele>565.0</ele><time>2026-04-24T12:08:55.94Z</time></trkpt><trkpt lat="43.6311989" lon="12.2700178"><ele>560.0</ele><time>2026-04-24T12:08:56.94Z</time></trkpt><trkpt lat="43.6310939" lon="12.2697821"><ele>555.0</ele><time>2026-04-24T12:08:57.94Z</time></trkpt><trkpt lat="43.631019" lon="12.2695237"><ele>550.0</ele><time>2026-04-24T12:08:58.939Z</time></trkpt><trkpt lat="43.6309745" lon="12.2692499"><ele>550.0</ele><time>2026-04-24T12:08:59.939Z</time></trkpt><trkpt lat="43.6309741" lon="12.2689645"><ele>550.0</ele><time>2026-04-24T12:09:00.94Z</time></trkpt><trkpt lat="43.6309875" lon="12.2686758"><ele>550.0</ele><time>2026-04-24T12:09:01.939Z</time></trkpt><trkpt lat="43.6309866" lon="12.2683909"><ele>552.3333333333334</ele><time>2026-04-24T12:09:02.94Z</time></trkpt><trkpt lat="43.6309176" lon="12.2681063"><ele>554.6666666666666</ele><time>2026-04-24T12:09:03.94Z</time></trkpt><trkpt lat="43.6308392" lon="12.2678369"><ele>557.0</ele><time>2026-04-24T12:09:04.94Z</time></trkpt><trkpt lat="43.6307293" lon="12.2676008"><ele>557.0</ele><time>2026-04-24T12:09:05.94Z</time></trkpt><trkpt lat="43.630593" lon="12.2674147"><ele>557.0</ele><time>2026-04-24T12:09:06.94Z</time></trkpt><trkpt lat="43.6304222" lon="12.2672974"><ele>557.0</ele><time>2026-04-24T12:09:07.94Z</time></trkpt><trkpt lat="43.6302442" lon="12.2672003"><ele>562.0</ele><time>2026-04-24T12:09:08.94Z</time></trkpt><trkpt lat="43.6300372" lon="12.2671475"><ele>567.0</ele><time>2026-04-24T12:09:09.94Z</time></trkpt><trkpt lat="43.6298402" lon="12.2670404"><ele>572.0</ele><time>2026-04-24T12:09:10.94Z</time></trkpt><trkpt lat="43.6296465" lon="12.2669307"><ele>567.6666666666666</ele><time>2026-04-24T12:09:11.939Z</time></trkpt><trkpt lat="43.6294703" lon="12.266821"><ele>563.3333333333334</ele><time>2026-04-24T12:09:12.94Z</time></trkpt><trkpt lat="43.6293122" lon="12.2667068"><ele>559.0</ele><time>2026-04-24T12:09:13.94Z</time></trkpt><trkpt lat="43.6291782" lon="12.2666131"><ele>559.0</ele><time>2026-04-24T12:09:14.939Z</time></trkpt><trkpt lat="43.6290716" lon="12.2665207"><ele>559.0</ele><time>2026-04-24T12:09:15.94Z</time></trkpt><trkpt lat="43.6290134" lon="12.2664055"><ele>559.0</ele><time>2026-04-24T12:09:16.94Z</time></trkpt><trkpt lat="43.6289792" lon="12.2662989"><ele>559.0</ele><time>2026-04-24T12:09:17.94Z</time></trkpt><trkpt lat="43.6290827" lon="12.2661838"><ele>559.0</ele><time>2026-04-24T12:09:18.941Z</time></trkpt><trkpt lat="43.6291876" lon="12.2660854"><ele>560.0</ele><time>2026-04-24T12:09:19.94Z</time></trkpt><trkpt lat="43.6292918" lon="12.2659315"><ele>561.0</ele><time>2026-04-24T12:09:20.939Z</time></trkpt><trkpt lat="43.629383" lon="12.2657529"><ele>562.0</ele><time>2026-04-24T12:09:21.939Z</time></trkpt><trkpt lat="43.629363" lon="12.2655134"><ele>564.3333333333334</ele><time>2026-04-24T12:09:22.939Z</time></trkpt><trkpt lat="43.62931" lon="12.2653031"><ele>566.6666666666666</ele><time>2026-04-24T12:09:23.94Z</time></trkpt><trkpt lat="43.6291946" lon="12.2651098"><ele>569.0</ele><time>2026-04-24T12:09:24.941Z</time></trkpt><trkpt lat="43.6290444" lon="12.2649404"><ele>568.3333333333333</ele><time>2026-04-24T12:09:25.94Z</time></trkpt><trkpt lat="43.6288739" lon="12.2647762"><ele>567.6666666666666</ele><time>2026-04-24T12:09:26.94Z</time></trkpt><trkpt lat="43.6286935" lon="12.2646118"><ele>567.0</ele><time>2026-04-24T12:09:27.94Z</time></trkpt><trkpt lat="43.6285131" lon="12.2644455"><ele>567.0</ele><time>2026-04-24T12:09:28.939Z</time></trkpt><trkpt lat="43.628335" lon="12.2642671"><ele>567.0</ele><time>2026-04-24T12:09:29.941Z</time></trkpt><trkpt lat="43.6281616" lon="12.264071"><ele>567.0</ele><time>2026-04-24T12:09:30.939Z</time></trkpt><trkpt lat="43.6280043" lon="12.2638517"><ele>568.0</ele><time>2026-04-24T12:09:31.94Z</time></trkpt><trkpt lat="43.6278556" lon="12.2636264"><ele>569.0</ele><time>2026-04-24T12:09:32.94Z</time></trkpt><trkpt lat="43.6277049" lon="12.2633941"><ele>570.0</ele><time>2026-04-24T12:09:33.94Z</time></trkpt><trkpt lat="43.6275539" lon="12.263154"><ele>573.5</ele><time>2026-04-24T12:09:34.94Z</time></trkpt><trkpt lat="43.6274046" lon="12.2629168"><ele>577.0</ele><time>2026-04-24T12:09:35.939Z</time></trkpt><trkpt lat="43.627257" lon="12.2626817"><ele>577.0</ele><time>2026-04-24T12:09:36.939Z</time></trkpt><trkpt lat="43.6271226" lon="12.2624497"><ele>577.0</ele><time>2026-04-24T12:09:37.94Z</time></trkpt><trkpt lat="43.6270101" lon="12.2622048"><ele>577.0</ele><time>2026-04-24T12:09:38.94Z</time></trkpt><trkpt lat="43.6269128" lon="12.2619391"><ele>577.0</ele><time>2026-04-24T12:09:39.94Z</time></trkpt><trkpt lat="43.626828" lon="12.261673"><ele>577.0</ele><time>2026-04-24T12:09:40.94Z</time></trkpt><trkpt lat="43.6267435" lon="12.2614002"><ele>577.0</ele><time>2026-04-24T12:09:41.94Z</time></trkpt><trkpt lat="43.6266595" lon="12.2611216"><ele>577.0</ele><time>2026-04-24T12:09:42.94Z</time></trkpt><trkpt lat="43.626578" lon="12.260845"><ele>577.0</ele><time>2026-04-24T12:09:43.941Z</time></trkpt><trkpt lat="43.6264963" lon="12.2605674"><ele>577.0</ele><time>2026-04-24T12:09:44.94Z</time></trkpt><trkpt lat="43.6264208" lon="12.2602811"><ele>581.0</ele><time>2026-04-24T12:09:45.94Z</time></trkpt><trkpt lat="43.6263625" lon="12.2599913"><ele>585.0</ele><time>2026-04-24T12:09:46.94Z</time></trkpt><trkpt lat="43.6263146" lon="12.2597146"><ele>589.0</ele><time>2026-04-24T12:09:47.939Z</time></trkpt><trkpt lat="43.6262457" lon="12.2594576"><ele>590.6666666666667</ele><time>2026-04-24T12:09:48.94Z</time></trkpt><trkpt lat="43.6261472" lon="12.2592263"><ele>592.3333333333334</ele><time>2026-04-24T12:09:49.939Z</time></trkpt><trkpt lat="43.6260257" lon="12.2590462"><ele>594.0</ele><time>2026-04-24T12:09:50.939Z</time></trkpt><trkpt lat="43.6258752" lon="12.2589182"><ele>595.6666666666666</ele><time>2026-04-24T12:09:51.939Z</time></trkpt><trkpt lat="43.6257194" lon="12.258825"><ele>597.3333333333333</ele><time>2026-04-24T12:09:52.94Z</time></trkpt><trkpt lat="43.6255358" lon="12.2588362"><ele>599.0</ele><time>2026-04-24T12:09:53.94Z</time></trkpt><trkpt lat="43.6253761" lon="12.2588027"><ele>593.5</ele><time>2026-04-24T12:09:54.939Z</time></trkpt><trkpt lat="43.6252369" lon="12.2587279"><ele>588.0</ele><time>2026-04-24T12:09:55.939Z</time></trkpt><trkpt lat="43.625148" lon="12.2585999"><ele>582.5</ele><time>2026-04-24T12:09:56.94Z</time></trkpt><trkpt lat="43.6251203" lon="12.2584191"><ele>577.0</ele><time>2026-04-24T12:09:57.94Z</time></trkpt><trkpt lat="43.6251261" lon="12.2582151"><ele>578.6666666666667</ele><time>2026-04-24T12:09:58.941Z</time></trkpt><trkpt lat="43.6251397" lon="12.2579954"><ele>580.3333333333334</ele><time>2026-04-24T12:09:59.939Z</time></trkpt><trkpt lat="43.6251501" lon="12.2577591"><ele>582.0</ele><time>2026-04-24T12:10:00.94Z</time></trkpt><trkpt lat="43.6251242" lon="12.2575149"><ele>585.0</ele><time>2026-04-24T12:10:01.94Z</time></trkpt><trkpt lat="43.6250798" lon="12.2572732"><ele>588.0</ele><time>2026-04-24T12:10:02.941Z</time></trkpt><trkpt lat="43.6250328" lon="12.257052"><ele>591.0</ele><time>2026-04-24T12:10:03.94Z</time></trkpt><trkpt lat="43.624978" lon="12.2568586"><ele>591.0</ele><time>2026-04-24T12:10:04.939Z</time></trkpt><trkpt lat="43.6249155" lon="12.2567057"><ele>591.0</ele><time>2026-04-24T12:10:05.942Z</time></trkpt><trkpt lat="43.6248413" lon="12.2565952"><ele>591.0</ele><time>2026-04-24T12:10:06.939Z</time></trkpt><trkpt lat="43.6247622" lon="12.2565341"><ele>591.0</ele><time>2026-04-24T12:10:07.939Z</time></trkpt><trkpt lat="43.6247" lon="12.256497"><ele>591.0</ele><time>2026-04-24T12:10:08.94Z</time></trkpt><trkpt lat="43.6246296" lon="12.2564614"><ele>591.6666666666666</ele><time>2026-04-24T12:10:10.94Z</time></trkpt><trkpt lat="43.6245391" lon="12.2564528"><ele>592.3333333333334</ele><time>2026-04-24T12:10:53.939Z</time></trkpt><trkpt lat="43.6244752" lon="12.2564408"><ele>593.0</ele><time>2026-04-24T12:10:54.94Z</time></trkpt><trkpt lat="43.6243956" lon="12.256431"><ele>593.6666666666667</ele><time>2026-04-24T12:10:55.939Z</time></trkpt><trkpt lat="43.6243145" lon="12.2564143"><ele>594.3333333333334</ele><time>2026-04-24T12:10:56.94Z</time></trkpt><trkpt lat="43.624198" lon="12.256395"><ele>595.0</ele><time>2026-04-24T12:10:57.939Z</time></trkpt><trkpt lat="43.6240888" lon="12.256364"><ele>595.0</ele><time>2026-04-24T12:10:58.941Z</time></trkpt><trkpt lat="43.623964" lon="12.2563083"><ele>595.0</ele><time>2026-04-24T12:10:59.939Z</time></trkpt><trkpt lat="43.6238411" lon="12.2562316"><ele>595.0</ele><time>2026-04-24T12:11:00.94Z</time></trkpt><trkpt lat="43.6237279" lon="12.2561314"><ele>595.0</ele><time>2026-04-24T12:11:01.939Z</time></trkpt><trkpt lat="43.6236229" lon="12.2560036"><ele>594.5</ele><time>2026-04-24T12:11:02.94Z</time></trkpt><trkpt lat="43.6235325" lon="12.2558505"><ele>594.0</ele><time>2026-04-24T12:11:03.94Z</time></trkpt><trkpt lat="43.62344" lon="12.2556806"><ele>593.5</ele><time>2026-04-24T12:11:04.941Z</time></trkpt><trkpt lat="43.6233548" lon="12.2555099"><ele>593.0</ele><time>2026-04-24T12:11:05.939Z</time></trkpt><trkpt lat="43.6232548" lon="12.2553317"><ele>593.0</ele><time>2026-04-24T12:11:06.94Z</time></trkpt><trkpt lat="43.6231556" lon="12.2551608"><ele>593.0</ele><time>2026-04-24T12:11:07.939Z</time></trkpt><trkpt lat="43.6230606" lon="12.2549862"><ele>593.0</ele><time>2026-04-24T12:11:08.939Z</time></trkpt><trkpt lat="43.6229668" lon="12.254817"><ele>593.75</ele><time>2026-04-24T12:11:09.94Z</time></trkpt><trkpt lat="43.6228742" lon="12.2546589"><ele>594.5</ele><time>2026-04-24T12:11:10.94Z</time></trkpt><trkpt lat="43.6227971" lon="12.2545247"><ele>595.25</ele><time>2026-04-24T12:11:11.939Z</time></trkpt><trkpt lat="43.622714" lon="12.2544135"><ele>596.0</ele><time>2026-04-24T12:11:12.939Z</time></trkpt><trkpt lat="43.6226333" lon="12.2543295"><ele>596.0</ele><time>2026-04-24T12:11:13.939Z</time></trkpt><trkpt lat="43.6225065" lon="12.2543614"><ele>596.0</ele><time>2026-04-24T12:11:14.939Z</time></trkpt><trkpt lat="43.6223904" lon="12.2544069"><ele>596.0</ele><time>2026-04-24T12:11:15.939Z</time></trkpt><trkpt lat="43.6222648" lon="12.254472"><ele>596.0</ele><time>2026-04-24T12:11:16.939Z</time></trkpt><trkpt lat="43.6221316" lon="12.254544"><ele>596.0</ele><time>2026-04-24T12:11:17.941Z</time></trkpt><trkpt lat="43.6219853" lon="12.2546121"><ele>596.0</ele><time>2026-04-24T12:11:18.939Z</time></trkpt><trkpt lat="43.6218355" lon="12.2546666"><ele>596.0</ele><time>2026-04-24T12:11:19.939Z</time></trkpt><trkpt lat="43.6217074" lon="12.2547096"><ele>596.0</ele><time>2026-04-24T12:11:20.939Z</time></trkpt><trkpt lat="43.6215642" lon="12.2547223"><ele>599.0</ele><time>2026-04-24T12:11:21.94Z</time></trkpt><trkpt lat="43.6214262" lon="12.2546481"><ele>602.0</ele><time>2026-04-24T12:11:22.94Z</time></trkpt><trkpt lat="43.6212967" lon="12.2545542"><ele>605.0</ele><time>2026-04-24T12:11:23.939Z</time></trkpt><trkpt lat="43.621167" lon="12.2544247"><ele>604.6666666666666</ele><time>2026-04-24T12:11:24.939Z</time></trkpt><trkpt lat="43.6210202" lon="12.2542615"><ele>604.3333333333334</ele><time>2026-04-24T12:11:25.939Z</time></trkpt><trkpt lat="43.6208675" lon="12.2541015"><ele>604.0</ele><time>2026-04-24T12:11:26.939Z</time></trkpt><trkpt lat="43.6207044" lon="12.2539505"><ele>610.6666666666667</ele><time>2026-04-24T12:11:27.939Z</time></trkpt><trkpt lat="43.6205295" lon="12.2538121"><ele>617.3333333333334</ele><time>2026-04-24T12:11:28.941Z</time></trkpt><trkpt lat="43.6203372" lon="12.2537149"><ele>624.0</ele><time>2026-04-24T12:11:29.94Z</time></trkpt><trkpt lat="43.6201446" lon="12.2536798"><ele>624.0</ele><time>2026-04-24T12:11:30.94Z</time></trkpt><trkpt lat="43.6199479" lon="12.253706"><ele>624.0</ele><time>2026-04-24T12:11:31.94Z</time></trkpt><trkpt lat="43.6197519" lon="12.2537929"><ele>624.0</ele><time>2026-04-24T12:11:32.94Z</time></trkpt><trkpt lat="43.6195549" lon="12.2539112"><ele>619.6666666666666</ele><time>2026-04-24T12:11:33.94Z</time></trkpt><trkpt lat="43.6193625" lon="12.2540345"><ele>615.3333333333333</ele><time>2026-04-24T12:11:34.939Z</time></trkpt><trkpt lat="43.6191781" lon="12.2541557"><ele>611.0</ele><time>2026-04-24T12:11:35.94Z</time></trkpt><trkpt lat="43.6190121" lon="12.2542609"><ele>611.0</ele><time>2026-04-24T12:11:36.939Z</time></trkpt><trkpt lat="43.6188624" lon="12.2543436"><ele>611.0</ele><time>2026-04-24T12:11:37.939Z</time></trkpt><trkpt lat="43.6187197" lon="12.2544147"><ele>611.0</ele><time>2026-04-24T12:11:38.94Z</time></trkpt><trkpt lat="43.6185975" lon="12.2543714"><ele>611.0</ele><time>2026-04-24T12:11:39.939Z</time></trkpt><trkpt lat="43.6184821" lon="12.2542747"><ele>611.3333333333333</ele><time>2026-04-24T12:11:40.94Z</time></trkpt><trkpt lat="43.6183773" lon="12.2541189"><ele>611.6666666666666</ele><time>2026-04-24T12:11:41.939Z</time></trkpt><trkpt lat="43.6182701" lon="12.2539398"><ele>612.0</ele><time>2026-04-24T12:11:42.939Z</time></trkpt><trkpt lat="43.618155" lon="12.2537378"><ele>613.6666666666666</ele><time>2026-04-24T12:11:43.939Z</time></trkpt><trkpt lat="43.6180336" lon="12.2535252"><ele>615.3333333333333</ele><time>2026-04-24T12:11:44.939Z</time></trkpt><trkpt lat="43.6178817" lon="12.2533334"><ele>617.0</ele><time>2026-04-24T12:11:45.939Z</time></trkpt><trkpt lat="43.61772" lon="12.2531624"><ele>623.0</ele><time>2026-04-24T12:11:46.94Z</time></trkpt><trkpt lat="43.6175078" lon="12.2530707"><ele>629.0</ele><time>2026-04-24T12:11:47.939Z</time></trkpt><trkpt lat="43.617327" lon="12.2529299"><ele>635.0</ele><time>2026-04-24T12:11:48.939Z</time></trkpt><trkpt lat="43.6171664" lon="12.2527532"><ele>635.0</ele><time>2026-04-24T12:11:49.939Z</time></trkpt><trkpt lat="43.6170028" lon="12.2525646"><ele>635.0</ele><time>2026-04-24T12:11:50.939Z</time></trkpt><trkpt lat="43.6168402" lon="12.2524039"><ele>635.0</ele><time>2026-04-24T12:11:51.94Z</time></trkpt><trkpt lat="43.6166809" lon="12.2522716"><ele>635.3333333333333</ele><time>2026-04-24T12:11:52.94Z</time></trkpt><trkpt lat="43.616547" lon="12.252141"><ele>635.6666666666666</ele><time>2026-04-24T12:11:53.94Z</time></trkpt><trkpt lat="43.6164264" lon="12.2519982"><ele>636.0</ele><time>2026-04-24T12:11:54.94Z</time></trkpt><trkpt lat="43.6164288" lon="12.2518208"><ele>636.0</ele><time>2026-04-24T12:11:55.941Z</time></trkpt><trkpt lat="43.61641" lon="12.2516495"><ele>636.0</ele><time>2026-04-24T12:11:56.94Z</time></trkpt><trkpt lat="43.6164173" lon="12.2514314"><ele>636.0</ele><time>2026-04-24T12:11:57.939Z</time></trkpt><trkpt lat="43.616364" lon="12.2512059"><ele>639.0</ele><time>2026-04-24T12:11:58.939Z</time></trkpt><trkpt lat="43.6163011" lon="12.2509695"><ele>642.0</ele><time>2026-04-24T12:11:59.939Z</time></trkpt><trkpt lat="43.6161442" lon="12.2507624"><ele>645.0</ele><time>2026-04-24T12:12:00.939Z</time></trkpt><trkpt lat="43.6159896" lon="12.2505663"><ele>646.3333333333334</ele><time>2026-04-24T12:12:01.939Z</time></trkpt><trkpt lat="43.6158337" lon="12.2503823"><ele>647.6666666666667</ele><time>2026-04-24T12:12:02.939Z</time></trkpt><trkpt lat="43.615648" lon="12.2503229"><ele>649.0</ele><time>2026-04-24T12:12:03.939Z</time></trkpt><trkpt lat="43.6154912" lon="12.25022"><ele>649.0</ele><time>2026-04-24T12:12:04.939Z</time></trkpt><trkpt lat="43.6153568" lon="12.2500828"><ele>649.0</ele><time>2026-04-24T12:12:05.939Z</time></trkpt><trkpt lat="43.6152356" lon="12.2499306"><ele>649.0</ele><time>2026-04-24T12:12:06.939Z</time></trkpt><trkpt lat="43.615237" lon="12.2497349"><ele>647.75</ele><time>2026-04-24T12:12:07.94Z</time></trkpt><trkpt lat="43.6152697" lon="12.2495868"><ele>646.5</ele><time>2026-04-24T12:12:08.94Z</time></trkpt><trkpt lat="43.6153576" lon="12.2494777"><ele>645.25</ele><time>2026-04-24T12:12:09.94Z</time></trkpt><trkpt lat="43.6154731" lon="12.249377"><ele>644.0</ele><time>2026-04-24T12:12:10.939Z</time></trkpt><trkpt lat="43.6155933" lon="12.2492264"><ele>647.6666666666666</ele><time>2026-04-24T12:12:11.941Z</time></trkpt><trkpt lat="43.6156915" lon="12.2490428"><ele>651.3333333333334</ele><time>2026-04-24T12:12:12.939Z</time></trkpt><trkpt lat="43.6157487" lon="12.2488358"><ele>655.0</ele><time>2026-04-24T12:12:13.939Z</time></trkpt><trkpt lat="43.6157519" lon="12.2486111"><ele>656.3333333333334</ele><time>2026-04-24T12:12:14.94Z</time></trkpt><trkpt lat="43.6157" lon="12.2484101"><ele>657.6666666666666</ele><time>2026-04-24T12:12:15.94Z</time></trkpt><trkpt lat="43.6155991" lon="12.2482409"><ele>659.0</ele><time>2026-04-24T12:12:16.939Z</time></trkpt><trkpt lat="43.6154855" lon="12.2481014"><ele>659.75</ele><time>2026-04-24T12:12:17.939Z</time></trkpt><trkpt lat="43.6153947" lon="12.2479651"><ele>660.5</ele><time>2026-04-24T12:12:18.939Z</time></trkpt><trkpt lat="43.6153595" lon="12.2478309"><ele>661.25</ele><time>2026-04-24T12:12:19.939Z</time></trkpt><trkpt lat="43.6154105" lon="12.2477003"><ele>662.0</ele><time>2026-04-24T12:12:20.939Z</time></trkpt><trkpt lat="43.615513" lon="12.2476097"><ele>662.0</ele><time>2026-04-24T12:12:21.939Z</time></trkpt><trkpt lat="43.6156493" lon="12.2475243"><ele>662.0</ele><time>2026-04-24T12:12:22.939Z</time></trkpt><trkpt lat="43.6157872" lon="12.2473982"><ele>662.0</ele><time>2026-04-24T12:12:23.939Z</time></trkpt><trkpt lat="43.615896" lon="12.2472232"><ele>661.0</ele><time>2026-04-24T12:12:24.94Z</time></trkpt><trkpt lat="43.6159485" lon="12.2470211"><ele>660.0</ele><time>2026-04-24T12:12:25.939Z</time></trkpt><trkpt lat="43.6159489" lon="12.2468006"><ele>659.0</ele><time>2026-04-24T12:12:26.94Z</time></trkpt><trkpt lat="43.6158947" lon="12.2465762"><ele>661.0</ele><time>2026-04-24T12:12:27.939Z</time></trkpt><trkpt lat="43.6158169" lon="12.2463423"><ele>663.0</ele><time>2026-04-24T12:12:28.939Z</time></trkpt><trkpt lat="43.6157463" lon="12.2460859"><ele>665.0</ele><time>2026-04-24T12:12:29.939Z</time></trkpt><trkpt lat="43.6156786" lon="12.2458051"><ele>675.0</ele><time>2026-04-24T12:12:30.939Z</time></trkpt><trkpt lat="43.6156072" lon="12.245515"><ele>685.0</ele><time>2026-04-24T12:12:31.939Z</time></trkpt><trkpt lat="43.6155208" lon="12.2452069"><ele>685.0</ele><time>2026-04-24T12:12:32.939Z</time></trkpt><trkpt lat="43.6154293" lon="12.2448817"><ele>685.0</ele><time>2026-04-24T12:12:33.939Z</time></trkpt><trkpt lat="43.6153334" lon="12.2445471"><ele>678.5</ele><time>2026-04-24T12:12:34.939Z</time></trkpt><trkpt lat="43.6152493" lon="12.2442433"><ele>672.0</ele><time>2026-04-24T12:12:35.939Z</time></trkpt><trkpt lat="43.6151725" lon="12.2439658"><ele>677.0</ele><time>2026-04-24T12:12:36.939Z</time></trkpt><trkpt lat="43.6150941" lon="12.2437252"><ele>682.0</ele><time>2026-04-24T12:12:37.939Z</time></trkpt><trkpt lat="43.6150027" lon="12.2435287"><ele>687.0</ele><time>2026-04-24T12:12:38.939Z</time></trkpt><trkpt lat="43.6148803" lon="12.2433969"><ele>687.0</ele><time>2026-04-24T12:12:39.939Z</time></trkpt><trkpt lat="43.6147354" lon="12.2433348"><ele>687.0</ele><time>2026-04-24T12:12:40.939Z</time></trkpt><trkpt lat="43.6145885" lon="12.2433247"><ele>687.0</ele><time>2026-04-24T12:12:41.939Z</time></trkpt><trkpt lat="43.6144509" lon="12.2432721"><ele>687.0</ele><time>2026-04-24T12:12:43.611Z</time></trkpt><trkpt lat="43.6143549" lon="12.2430263"><ele>687.0</ele><time>2026-04-24T12:12:45.86Z</time></trkpt><trkpt lat="43.614389" lon="12.2427437"><ele>687.0</ele><time>2026-04-24T12:12:46.939Z</time></trkpt><trkpt lat="43.6143916" lon="12.2425201"><ele>687.0</ele><time>2026-04-24T12:12:47.94Z</time></trkpt><trkpt lat="43.6143607" lon="12.242277"><ele>689.6666666666666</ele><time>2026-04-24T12:12:48.939Z</time></trkpt><trkpt lat="43.6143036" lon="12.242072"><ele>692.3333333333333</ele><time>2026-04-24T12:12:49.939Z</time></trkpt><trkpt lat="43.6142018" lon="12.2419133"><ele>695.0</ele><time>2026-04-24T12:12:50.939Z</time></trkpt><trkpt lat="43.6140601" lon="12.2418181"><ele>695.0</ele><time>2026-04-24T12:12:51.94Z</time></trkpt><trkpt lat="43.6138925" lon="12.2417876"><ele>695.0</ele><time>2026-04-24T12:12:52.94Z</time></trkpt><trkpt lat="43.6137121" lon="12.2417777"><ele>695.0</ele><time>2026-04-24T12:12:53.939Z</time></trkpt><trkpt lat="43.61354" lon="12.2416884"><ele>695.3333333333333</ele><time>2026-04-24T12:12:54.939Z</time></trkpt><trkpt lat="43.6133781" lon="12.2415536"><ele>695.6666666666666</ele><time>2026-04-24T12:12:55.939Z</time></trkpt><trkpt lat="43.6132298" lon="12.2414476"><ele>696.0</ele><time>2026-04-24T12:12:56.939Z</time></trkpt><trkpt lat="43.6131103" lon="12.2413435"><ele>701.0</ele><time>2026-04-24T12:12:57.939Z</time></trkpt><trkpt lat="43.6130502" lon="12.2411859"><ele>706.0</ele><time>2026-04-24T12:12:58.94Z</time></trkpt><trkpt lat="43.6130451" lon="12.2409917"><ele>711.0</ele><time>2026-04-24T12:12:59.94Z</time></trkpt><trkpt lat="43.6130277" lon="12.240767"><ele>716.0</ele><time>2026-04-24T12:13:00.939Z</time></trkpt><trkpt lat="43.6129617" lon="12.2405478"><ele>716.0</ele><time>2026-04-24T12:13:01.94Z</time></trkpt><trkpt lat="43.6128541" lon="12.2403673"><ele>716.0</ele><time>2026-04-24T12:13:02.939Z</time></trkpt><trkpt lat="43.6126946" lon="12.2402138"><ele>716.0</ele><time>2026-04-24T12:13:03.939Z</time></trkpt><trkpt lat="43.6125158" lon="12.2400949"><ele>716.0</ele><time>2026-04-24T12:13:04.939Z</time></trkpt><trkpt lat="43.6123202" lon="12.2399701"><ele>716.0</ele><time>2026-04-24T12:13:05.939Z</time></trkpt><trkpt lat="43.6121352" lon="12.2398548"><ele>716.0</ele><time>2026-04-24T12:13:06.939Z</time></trkpt><trkpt lat="43.6119754" lon="12.2397354"><ele>716.6666666666666</ele><time>2026-04-24T12:13:07.939Z</time></trkpt><trkpt lat="43.6118528" lon="12.2395775"><ele>717.3333333333334</ele><time>2026-04-24T12:13:08.939Z</time></trkpt><trkpt lat="43.6117667" lon="12.2393737"><ele>718.0</ele><time>2026-04-24T12:13:09.939Z</time></trkpt><trkpt lat="43.6117071" lon="12.2391392"><ele>720.0</ele><time>2026-04-24T12:13:10.939Z</time></trkpt><trkpt lat="43.6116701" lon="12.2388838"><ele>722.0</ele><time>2026-04-24T12:13:11.939Z</time></trkpt><trkpt lat="43.6116835" lon="12.238647"><ele>724.0</ele><time>2026-04-24T12:13:12.939Z</time></trkpt><trkpt lat="43.611745" lon="12.2384059"><ele>724.0</ele><time>2026-04-24T12:13:13.939Z</time></trkpt><trkpt lat="43.6118159" lon="12.2381738"><ele>724.0</ele><time>2026-04-24T12:13:14.939Z</time></trkpt><trkpt lat="43.6118413" lon="12.2379319"><ele>724.0</ele><time>2026-04-24T12:13:15.939Z</time></trkpt><trkpt lat="43.6118161" lon="12.2376842"><ele>724.75</ele><time>2026-04-24T12:13:16.939Z</time></trkpt><trkpt lat="43.6117352" lon="12.2374788"><ele>725.5</ele><time>2026-04-24T12:13:17.939Z</time></trkpt><trkpt lat="43.6116303" lon="12.2373342"><ele>726.25</ele><time>2026-04-24T12:13:18.939Z</time></trkpt><trkpt lat="43.6115568" lon="12.2371998"><ele>727.0</ele><time>2026-04-24T12:13:19.939Z</time></trkpt><trkpt lat="43.6115518" lon="12.2370239"><ele>730.3333333333334</ele><time>2026-04-24T12:13:20.939Z</time></trkpt><trkpt lat="43.6115694" lon="12.2368189"><ele>733.6666666666666</ele><time>2026-04-24T12:13:21.939Z</time></trkpt><trkpt lat="43.6115539" lon="12.2365748"><ele>737.0</ele><time>2026-04-24T12:13:22.939Z</time></trkpt><trkpt lat="43.611509" lon="12.2363047"><ele>737.3333333333333</ele><time>2026-04-24T12:13:23.94Z</time></trkpt><trkpt lat="43.6114865" lon="12.2360586"><ele>737.6666666666666</ele><time>2026-04-24T12:13:24.94Z</time></trkpt><trkpt lat="43.6115146" lon="12.2358447"><ele>738.0</ele><time>2026-04-24T12:13:25.94Z</time></trkpt><trkpt lat="43.6115983" lon="12.2356722"><ele>736.6666666666666</ele><time>2026-04-24T12:13:26.94Z</time></trkpt><trkpt lat="43.6117115" lon="12.2355033"><ele>735.3333333333333</ele><time>2026-04-24T12:13:27.939Z</time></trkpt><trkpt lat="43.6118291" lon="12.2353087"><ele>734.0</ele><time>2026-04-24T12:13:28.939Z</time></trkpt><trkpt lat="43.6119269" lon="12.2350727"><ele>736.3333333333333</ele><time>2026-04-24T12:13:29.939Z</time></trkpt><trkpt lat="43.6119682" lon="12.2348018"><ele>738.6666666666666</ele><time>2026-04-24T12:13:30.939Z</time></trkpt><trkpt lat="43.6119599" lon="12.2345457"><ele>741.0</ele><time>2026-04-24T12:13:31.94Z</time></trkpt><trkpt lat="43.611949" lon="12.2343037"><ele>751.6666666666667</ele><time>2026-04-24T12:13:32.939Z</time></trkpt><trkpt lat="43.6119981" lon="12.2340749"><ele>762.3333333333334</ele><time>2026-04-24T12:13:33.941Z</time></trkpt><trkpt lat="43.612064" lon="12.2338898"><ele>773.0</ele><time>2026-04-24T12:13:34.939Z</time></trkpt><trkpt lat="43.612107" lon="12.2337044"><ele>773.0</ele><time>2026-04-24T12:13:35.94Z</time></trkpt><trkpt lat="43.6120991" lon="12.233526"><ele>773.0</ele><time>2026-04-24T12:13:36.94Z</time></trkpt><trkpt lat="43.6120449" lon="12.2333885"><ele>773.0</ele><time>2026-04-24T12:13:37.94Z</time></trkpt><trkpt lat="43.6119538" lon="12.2333314"><ele>773.0</ele><time>2026-04-24T12:13:38.941Z</time></trkpt><trkpt lat="43.6118746" lon="12.2333449"><ele>773.0</ele><time>2026-04-24T12:13:39.939Z</time></trkpt><trkpt lat="43.6117814" lon="12.2334587"><ele>769.5999999999999</ele><time>2026-04-24T12:13:40.94Z</time></trkpt><trkpt lat="43.6116883" lon="12.2335689"><ele>766.1999999999999</ele><time>2026-04-24T12:13:41.938Z</time></trkpt><trkpt lat="43.6115881" lon="12.2335963"><ele>762.8</ele><time>2026-04-24T12:13:42.939Z</time></trkpt><trkpt lat="43.6114966" lon="12.2335293"><ele>759.4</ele><time>2026-04-24T12:13:43.94Z</time></trkpt><trkpt lat="43.6114177" lon="12.2334113"><ele>756.0</ele><time>2026-04-24T12:13:44.938Z</time></trkpt><trkpt lat="43.6114575" lon="12.2331963"><ele>762.6666666666667</ele><time>2026-04-24T12:13:45.939Z</time></trkpt><trkpt lat="43.6114493" lon="12.232966"><ele>769.3333333333334</ele><time>2026-04-24T12:13:46.938Z</time></trkpt><trkpt lat="43.6113982" lon="12.2327103"><ele>776.0</ele><time>2026-04-24T12:13:47.939Z</time></trkpt><trkpt lat="43.611326" lon="12.2324523"><ele>771.0</ele><time>2026-04-24T12:13:48.939Z</time></trkpt><trkpt lat="43.611168" lon="12.2321984"><ele>766.0</ele><time>2026-04-24T12:13:49.94Z</time></trkpt><trkpt lat="43.6110196" lon="12.23194"><ele>766.0</ele><time>2026-04-24T12:13:50.938Z</time></trkpt><trkpt lat="43.6107957" lon="12.2317412"><ele>766.0</ele><time>2026-04-24T12:13:51.938Z</time></trkpt><trkpt lat="43.6105604" lon="12.2315494"><ele>771.5</ele><time>2026-04-24T12:13:52.939Z</time></trkpt><trkpt lat="43.6103425" lon="12.2313721"><ele>777.0</ele><time>2026-04-24T12:13:53.938Z</time></trkpt><trkpt lat="43.6101471" lon="12.2311847"><ele>777.0</ele><time>2026-04-24T12:13:54.938Z</time></trkpt><trkpt lat="43.6099553" lon="12.2310047"><ele>777.0</ele><time>2026-04-24T12:13:55.938Z</time></trkpt><trkpt lat="43.6098227" lon="12.2308539"><ele>777.0</ele><time>2026-04-24T12:13:56.939Z</time></trkpt><trkpt lat="43.6097151" lon="12.2307142"><ele>781.2</ele><time>2026-04-24T12:13:57.939Z</time></trkpt><trkpt lat="43.6096277" lon="12.230586"><ele>785.4000000000001</ele><time>2026-04-24T12:13:58.94Z</time></trkpt><trkpt lat="43.6096849" lon="12.2304497"><ele>789.5999999999999</ele><time>2026-04-24T12:13:59.939Z</time></trkpt><trkpt lat="43.6097646" lon="12.2303967"><ele>793.8</ele><time>2026-04-24T12:14:00.939Z</time></trkpt><trkpt lat="43.6098782" lon="12.2304206"><ele>798.0</ele><time>2026-04-24T12:14:01.939Z</time></trkpt><trkpt lat="43.6099879" lon="12.2305299"><ele>791.0</ele><time>2026-04-24T12:14:02.94Z</time></trkpt><trkpt lat="43.610087" lon="12.2306994"><ele>784.0</ele><time>2026-04-24T12:14:03.938Z</time></trkpt><trkpt lat="43.6101966" lon="12.2308741"><ele>777.0</ele><time>2026-04-24T12:14:04.941Z</time></trkpt><trkpt lat="43.6103116" lon="12.2310187"><ele>779.0</ele><time>2026-04-24T12:14:05.939Z</time></trkpt><trkpt lat="43.6104826" lon="12.2310498"><ele>781.0</ele><time>2026-04-24T12:14:06.939Z</time></trkpt><trkpt lat="43.6106684" lon="12.2310214"><ele>783.0</ele><time>2026-04-24T12:14:07.939Z</time></trkpt><trkpt lat="43.6108685" lon="12.2309618"><ele>783.0</ele><time>2026-04-24T12:14:08.939Z</time></trkpt><trkpt lat="43.6110477" lon="12.2309117"><ele>783.0</ele><time>2026-04-24T12:14:09.938Z</time></trkpt><trkpt lat="43.6111957" lon="12.2308548"><ele>783.0</ele><time>2026-04-24T12:14:10.939Z</time></trkpt><trkpt lat="43.6112941" lon="12.2307684"><ele>787.25</ele><time>2026-04-24T12:14:11.938Z</time></trkpt><trkpt lat="43.6113439" lon="12.2306404"><ele>791.5</ele><time>2026-04-24T12:14:12.939Z</time></trkpt><trkpt lat="43.6113519" lon="12.2305031"><ele>795.75</ele><time>2026-04-24T12:14:13.939Z</time></trkpt><trkpt lat="43.611276" lon="12.2303498"><ele>800.0</ele><time>2026-04-24T12:14:14.939Z</time></trkpt><trkpt lat="43.6111539" lon="12.2301792"><ele>800.0</ele><time>2026-04-24T12:14:15.939Z</time></trkpt><trkpt lat="43.6110552" lon="12.2300304"><ele>800.0</ele><time>2026-04-24T12:14:16.94Z</time></trkpt><trkpt lat="43.6109337" lon="12.2299391"><ele>800.0</ele><time>2026-04-24T12:14:17.939Z</time></trkpt><trkpt lat="43.610814" lon="12.2298892"><ele>800.0</ele><time>2026-04-24T12:14:18.939Z</time></trkpt><trkpt lat="43.6107041" lon="12.2300218"><ele>800.0</ele><time>2026-04-24T12:14:19.939Z</time></trkpt><trkpt lat="43.6106484" lon="12.2301589"><ele>800.0</ele><time>2026-04-24T12:14:20.939Z</time></trkpt><trkpt lat="43.6105968" lon="12.2303136"><ele>800.0</ele><time>2026-04-24T12:14:21.939Z</time></trkpt><trkpt lat="43.6105224" lon="12.2304165"><ele>800.0</ele><time>2026-04-24T12:14:22.94Z</time></trkpt><trkpt lat="43.6104503" lon="12.2304849"><ele>800.0</ele><time>2026-04-24T12:14:23.939Z</time></trkpt><trkpt lat="43.610366" lon="12.2303848"><ele>799.5</ele><time>2026-04-24T12:14:24.939Z</time></trkpt><trkpt lat="43.6103145" lon="12.2302443"><ele>799.0</ele><time>2026-04-24T12:14:25.939Z</time></trkpt><trkpt lat="43.610263" lon="12.2300598"><ele>798.5</ele><time>2026-04-24T12:14:26.94Z</time></trkpt><trkpt lat="43.6102067" lon="12.2298405"><ele>798.0</ele><time>2026-04-24T12:14:27.938Z</time></trkpt><trkpt lat="43.6100894" lon="12.2296216"><ele>805.0</ele><time>2026-04-24T12:14:28.939Z</time></trkpt><trkpt lat="43.6099453" lon="12.2294188"><ele>812.0</ele><time>2026-04-24T12:14:29.94Z</time></trkpt><trkpt lat="43.6098102" lon="12.2291983"><ele>819.0</ele><time>2026-04-24T12:14:30.938Z</time></trkpt><trkpt lat="43.6096871" lon="12.2289507"><ele>817.0</ele><time>2026-04-24T12:14:31.938Z</time></trkpt><trkpt lat="43.6096063" lon="12.2287065"><ele>815.0</ele><time>2026-04-24T12:14:32.939Z</time></trkpt><trkpt lat="43.6095034" lon="12.2284945"><ele>813.0</ele><time>2026-04-24T12:14:33.938Z</time></trkpt><trkpt lat="43.609367" lon="12.2283092"><ele>813.0</ele><time>2026-04-24T12:14:34.938Z</time></trkpt><trkpt lat="43.6091965" lon="12.228184"><ele>813.0</ele><time>2026-04-24T12:14:35.939Z</time></trkpt><trkpt lat="43.6090301" lon="12.2280908"><ele>813.0</ele><time>2026-04-24T12:14:36.939Z</time></trkpt><trkpt lat="43.608877" lon="12.2280247"><ele>813.25</ele><time>2026-04-24T12:14:37.939Z</time></trkpt><trkpt lat="43.6087363" lon="12.2279259"><ele>813.5</ele><time>2026-04-24T12:14:38.939Z</time></trkpt><trkpt lat="43.6086376" lon="12.2277947"><ele>813.75</ele><time>2026-04-24T12:14:39.939Z</time></trkpt><trkpt lat="43.6086975" lon="12.2276186"><ele>814.0</ele><time>2026-04-24T12:14:40.939Z</time></trkpt><trkpt lat="43.6087677" lon="12.2274663"><ele>816.75</ele><time>2026-04-24T12:14:41.94Z</time></trkpt><trkpt lat="43.6088642" lon="12.2273136"><ele>819.5</ele><time>2026-04-24T12:14:42.939Z</time></trkpt><trkpt lat="43.6089191" lon="12.2271336"><ele>822.25</ele><time>2026-04-24T12:14:43.939Z</time></trkpt><trkpt lat="43.6089213" lon="12.226956"><ele>825.0</ele><time>2026-04-24T12:14:44.939Z</time></trkpt><trkpt lat="43.608854" lon="12.2267843"><ele>825.6666666666667</ele><time>2026-04-24T12:14:45.938Z</time></trkpt><trkpt lat="43.6087375" lon="12.2266335"><ele>826.3333333333334</ele><time>2026-04-24T12:14:46.938Z</time></trkpt><trkpt lat="43.6085971" lon="12.2264708"><ele>827.0</ele><time>2026-04-24T12:14:47.938Z</time></trkpt><trkpt lat="43.6084571" lon="12.2263063"><ele>828.0</ele><time>2026-04-24T12:14:48.939Z</time></trkpt><trkpt lat="43.6083242" lon="12.2261533"><ele>829.0</ele><time>2026-04-24T12:14:49.938Z</time></trkpt><trkpt lat="43.6081922" lon="12.2260249"><ele>830.0</ele><time>2026-04-24T12:14:50.94Z</time></trkpt><trkpt lat="43.6080659" lon="12.2259445"><ele>830.0</ele><time>2026-04-24T12:14:51.939Z</time></trkpt><trkpt lat="43.6079302" lon="12.2259922"><ele>830.0</ele><time>2026-04-24T12:14:52.939Z</time></trkpt><trkpt lat="43.6078032" lon="12.2260976"><ele>830.0</ele><time>2026-04-24T12:14:53.939Z</time></trkpt><trkpt lat="43.6076843" lon="12.2262797"><ele>833.3333333333334</ele><time>2026-04-24T12:14:54.938Z</time></trkpt><trkpt lat="43.6075749" lon="12.2265131"><ele>836.6666666666667</ele><time>2026-04-24T12:14:55.938Z</time></trkpt><trkpt lat="43.6074671" lon="12.2267772"><ele>840.0</ele><time>2026-04-24T12:14:56.94Z</time></trkpt><trkpt lat="43.6073506" lon="12.2270434"><ele>840.0</ele><time>2026-04-24T12:14:57.939Z</time></trkpt><trkpt lat="43.6072359" lon="12.2272757"><ele>840.0</ele><time>2026-04-24T12:14:58.94Z</time></trkpt><trkpt lat="43.6071264" lon="12.2274891"><ele>840.0</ele><time>2026-04-24T12:14:59.938Z</time></trkpt><trkpt lat="43.6070099" lon="12.2276692"><ele>846.0</ele><time>2026-04-24T12:15:00.939Z</time></trkpt><trkpt lat="43.6068659" lon="12.2277909"><ele>852.0</ele><time>2026-04-24T12:15:01.938Z</time></trkpt><trkpt lat="43.6066877" lon="12.2278441"><ele>858.0</ele><time>2026-04-24T12:15:02.938Z</time></trkpt><trkpt lat="43.606483" lon="12.2278423"><ele>858.0</ele><time>2026-04-24T12:15:03.94Z</time></trkpt><trkpt lat="43.6062629" lon="12.2278204"><ele>858.0</ele><time>2026-04-24T12:15:04.938Z</time></trkpt><trkpt lat="43.6060444" lon="12.227787"><ele>858.0</ele><time>2026-04-24T12:15:05.939Z</time></trkpt><trkpt lat="43.6058372" lon="12.227759"><ele>861.6666666666667</ele><time>2026-04-24T12:15:06.939Z</time></trkpt><trkpt lat="43.6056536" lon="12.2277771"><ele>865.3333333333334</ele><time>2026-04-24T12:15:07.939Z</time></trkpt><trkpt lat="43.6054846" lon="12.2278665"><ele>869.0</ele><time>2026-04-24T12:15:08.939Z</time></trkpt><trkpt lat="43.605314" lon="12.2279533"><ele>873.0</ele><time>2026-04-24T12:15:09.939Z</time></trkpt><trkpt lat="43.6051323" lon="12.2280089"><ele>877.0</ele><time>2026-04-24T12:15:10.939Z</time></trkpt><trkpt lat="43.6049327" lon="12.227942"><ele>881.0</ele><time>2026-04-24T12:15:11.939Z</time></trkpt><trkpt lat="43.6047262" lon="12.2278821"><ele>881.0</ele><time>2026-04-24T12:15:12.939Z</time></trkpt><trkpt lat="43.6045137" lon="12.2277928"><ele>881.0</ele><time>2026-04-24T12:15:13.939Z</time></trkpt><trkpt lat="43.6042911" lon="12.227678"><ele>873.0</ele><time>2026-04-24T12:15:14.939Z</time></trkpt><trkpt lat="43.604071" lon="12.2275553"><ele>865.0</ele><time>2026-04-24T12:15:15.94Z</time></trkpt><trkpt lat="43.6038595" lon="12.2274191"><ele>867.6666666666666</ele><time>2026-04-24T12:15:16.938Z</time></trkpt><trkpt lat="43.6036743" lon="12.2272596"><ele>870.3333333333333</ele><time>2026-04-24T12:15:17.939Z</time></trkpt><trkpt lat="43.6035216" lon="12.2270835"><ele>873.0</ele><time>2026-04-24T12:15:18.939Z</time></trkpt><trkpt lat="43.6034134" lon="12.2268726"><ele>873.0</ele><time>2026-04-24T12:15:19.938Z</time></trkpt><trkpt lat="43.603337" lon="12.2266472"><ele>873.0</ele><time>2026-04-24T12:15:20.939Z</time></trkpt><trkpt lat="43.6032489" lon="12.2264357"><ele>873.0</ele><time>2026-04-24T12:15:21.939Z</time></trkpt><trkpt lat="43.6031367" lon="12.226271"><ele>876.75</ele><time>2026-04-24T12:15:22.938Z</time></trkpt><trkpt lat="43.6030177" lon="12.2261677"><ele>880.5</ele><time>2026-04-24T12:15:23.938Z</time></trkpt><trkpt lat="43.602892" lon="12.2261516"><ele>884.25</ele><time>2026-04-24T12:15:24.939Z</time></trkpt><trkpt lat="43.6027684" lon="12.2262261"><ele>888.0</ele><time>2026-04-24T12:15:25.939Z</time></trkpt><trkpt lat="43.6026655" lon="12.2263891"><ele>887.6666666666667</ele><time>2026-04-24T12:15:26.938Z</time></trkpt><trkpt lat="43.6025925" lon="12.2266252"><ele>887.3333333333334</ele><time>2026-04-24T12:15:27.939Z</time></trkpt><trkpt lat="43.6025234" lon="12.2269071"><ele>887.0</ele><time>2026-04-24T12:15:28.939Z</time></trkpt><trkpt lat="43.6024816" lon="12.2272"><ele>885.0</ele><time>2026-04-24T12:15:29.939Z</time></trkpt><trkpt lat="43.6024694" lon="12.2274755"><ele>883.0</ele><time>2026-04-24T12:15:30.939Z</time></trkpt><trkpt lat="43.6024664" lon="12.227713"><ele>881.0</ele><time>2026-04-24T12:15:31.938Z</time></trkpt><trkpt lat="43.6024439" lon="12.2279001"><ele>881.0</ele><time>2026-04-24T12:15:32.939Z</time></trkpt><trkpt lat="43.6024059" lon="12.2280527"><ele>881.0</ele><time>2026-04-24T12:15:33.94Z</time></trkpt><trkpt lat="43.6022527" lon="12.2281008"><ele>881.0</ele><time>2026-04-24T12:15:34.939Z</time></trkpt><trkpt lat="43.6020962" lon="12.2281384"><ele>881.0</ele><time>2026-04-24T12:15:35.938Z</time></trkpt><trkpt lat="43.6019259" lon="12.2281627"><ele>893.3333333333334</ele><time>2026-04-24T12:15:36.939Z</time></trkpt><trkpt lat="43.6017555" lon="12.2280874"><ele>905.6666666666667</ele><time>2026-04-24T12:15:37.939Z</time></trkpt><trkpt lat="43.6015958" lon="12.2280481"><ele>918.0</ele><time>2026-04-24T12:15:38.938Z</time></trkpt><trkpt lat="43.6014343" lon="12.2280915"><ele>911.0</ele><time>2026-04-24T12:15:39.938Z</time></trkpt><trkpt lat="43.6012719" lon="12.228171"><ele>904.0</ele><time>2026-04-24T12:15:40.939Z</time></trkpt><trkpt lat="43.601089" lon="12.2282757"><ele>897.0</ele><time>2026-04-24T12:15:41.938Z</time></trkpt><trkpt lat="43.6008881" lon="12.2282919"><ele>897.0</ele><time>2026-04-24T12:15:42.938Z</time></trkpt><trkpt lat="43.6006812" lon="12.2282463"><ele>897.0</ele><time>2026-04-24T12:15:43.938Z</time></trkpt><trkpt lat="43.6004971" lon="12.2281677"><ele>897.0</ele><time>2026-04-24T12:15:44.938Z</time></trkpt><trkpt lat="43.6003409" lon="12.2280732"><ele>898.0</ele><time>2026-04-24T12:15:45.94Z</time></trkpt><trkpt lat="43.6001917" lon="12.2280098"><ele>899.0</ele><time>2026-04-24T12:15:46.939Z</time></trkpt><trkpt lat="43.600047" lon="12.2280075"><ele>900.0</ele><time>2026-04-24T12:15:47.939Z</time></trkpt><trkpt lat="43.5999232" lon="12.2280778"><ele>901.0</ele><time>2026-04-24T12:15:48.938Z</time></trkpt><trkpt lat="43.5998393" lon="12.2282176"><ele>901.0</ele><time>2026-04-24T12:15:49.938Z</time></trkpt><trkpt lat="43.5997907" lon="12.228402"><ele>901.0</ele><time>2026-04-24T12:15:50.94Z</time></trkpt><trkpt lat="43.5997814" lon="12.2285967"><ele>901.0</ele><time>2026-04-24T12:15:51.939Z</time></trkpt><trkpt lat="43.5997464" lon="12.2287546"><ele>901.0</ele><time>2026-04-24T12:15:52.939Z</time></trkpt><trkpt lat="43.5996745" lon="12.2288416"><ele>901.0</ele><time>2026-04-24T12:15:53.938Z</time></trkpt><trkpt lat="43.5995647" lon="12.2288732"><ele>901.0</ele><time>2026-04-24T12:15:54.939Z</time></trkpt><trkpt lat="43.5994282" lon="12.2289107"><ele>901.0</ele><time>2026-04-24T12:15:55.939Z</time></trkpt><trkpt lat="43.5992791" lon="12.2290088"><ele>901.0</ele><time>2026-04-24T12:15:56.939Z</time></trkpt><trkpt lat="43.5991232" lon="12.2291204"><ele>908.0</ele><time>2026-04-24T12:15:57.938Z</time></trkpt><trkpt lat="43.5989396" lon="12.2293078"><ele>915.0</ele><time>2026-04-24T12:15:58.939Z</time></trkpt><trkpt lat="43.5987751" lon="12.2294435"><ele>922.0</ele><time>2026-04-24T12:15:59.94Z</time></trkpt><trkpt lat="43.5986301" lon="12.2295704"><ele>924.3333333333333</ele><time>2026-04-24T12:16:00.939Z</time></trkpt><trkpt lat="43.5985226" lon="12.2297131"><ele>926.6666666666667</ele><time>2026-04-24T12:16:01.938Z</time></trkpt><trkpt lat="43.5984558" lon="12.2299006"><ele>929.0</ele><time>2026-04-24T12:16:02.939Z</time></trkpt><trkpt lat="43.5984326" lon="12.2301042"><ele>929.0</ele><time>2026-04-24T12:16:03.938Z</time></trkpt><trkpt lat="43.5984753" lon="12.2302812"><ele>929.0</ele><time>2026-04-24T12:16:04.939Z</time></trkpt><trkpt lat="43.5985764" lon="12.230413"><ele>929.0</ele><time>2026-04-24T12:16:05.941Z</time></trkpt><trkpt lat="43.5987125" lon="12.2305188"><ele>929.0</ele><time>2026-04-24T12:16:06.938Z</time></trkpt><trkpt lat="43.5988521" lon="12.2306323"><ele>925.25</ele><time>2026-04-24T12:16:07.938Z</time></trkpt><trkpt lat="43.5989575" lon="12.2307591"><ele>921.5</ele><time>2026-04-24T12:16:08.939Z</time></trkpt><trkpt lat="43.5990112" lon="12.2309011"><ele>917.75</ele><time>2026-04-24T12:16:09.94Z</time></trkpt><trkpt lat="43.5990081" lon="12.2310639"><ele>914.0</ele><time>2026-04-24T12:16:10.938Z</time></trkpt><trkpt lat="43.5989867" lon="12.2312559"><ele>915.3333333333334</ele><time>2026-04-24T12:16:11.939Z</time></trkpt><trkpt lat="43.5989929" lon="12.2314829"><ele>916.6666666666667</ele><time>2026-04-24T12:16:12.938Z</time></trkpt><trkpt lat="43.5989925" lon="12.2317409"><ele>918.0</ele><time>2026-04-24T12:16:13.938Z</time></trkpt><trkpt lat="43.5989546" lon="12.2320173"><ele>918.0</ele><time>2026-04-24T12:16:14.94Z</time></trkpt><trkpt lat="43.5989004" lon="12.2322694"><ele>918.0</ele><time>2026-04-24T12:16:15.938Z</time></trkpt><trkpt lat="43.5988503" lon="12.2324986"><ele>918.0</ele><time>2026-04-24T12:16:16.94Z</time></trkpt><trkpt lat="43.5988356" lon="12.232707"><ele>919.3333333333333</ele><time>2026-04-24T12:16:17.939Z</time></trkpt><trkpt lat="43.5988655" lon="12.2329044"><ele>920.6666666666666</ele><time>2026-04-24T12:16:18.938Z</time></trkpt><trkpt lat="43.5989447" lon="12.233088"><ele>922.0</ele><time>2026-04-24T12:16:19.939Z</time></trkpt><trkpt lat="43.5990579" lon="12.233243"><ele>926.3333333333333</ele><time>2026-04-24T12:16:20.938Z</time></trkpt><trkpt lat="43.5992054" lon="12.2333208"><ele>930.6666666666667</ele><time>2026-04-24T12:16:21.938Z</time></trkpt><trkpt lat="43.5993768" lon="12.2333212"><ele>935.0</ele><time>2026-04-24T12:16:22.938Z</time></trkpt><trkpt lat="43.5995566" lon="12.2332242"><ele>932.3333333333334</ele><time>2026-04-24T12:16:23.938Z</time></trkpt><trkpt lat="43.5997374" lon="12.2330799"><ele>929.6666666666667</ele><time>2026-04-24T12:16:24.939Z</time></trkpt><trkpt lat="43.5999155" lon="12.2329672"><ele>927.0</ele><time>2026-04-24T12:16:25.939Z</time></trkpt><trkpt lat="43.6000817" lon="12.2329017"><ele>927.0</ele><time>2026-04-24T12:16:26.939Z</time></trkpt><trkpt lat="43.6002509" lon="12.2329074"><ele>927.0</ele><time>2026-04-24T12:16:27.939Z</time></trkpt><trkpt lat="43.6004299" lon="12.2329844"><ele>927.0</ele><time>2026-04-24T12:16:28.938Z</time></trkpt><trkpt lat="43.6006119" lon="12.2330924"><ele>935.0</ele><time>2026-04-24T12:16:29.939Z</time></trkpt><trkpt lat="43.6008037" lon="12.2331579"><ele>943.0</ele><time>2026-04-24T12:16:30.938Z</time></trkpt><trkpt lat="43.6009945" lon="12.2332143"><ele>951.0</ele><time>2026-04-24T12:16:31.939Z</time></trkpt><trkpt lat="43.6011483" lon="12.233206"><ele>948.3333333333333</ele><time>2026-04-24T12:16:32.938Z</time></trkpt><trkpt lat="43.6012918" lon="12.2330991"><ele>945.6666666666666</ele><time>2026-04-24T12:16:33.938Z</time></trkpt><trkpt lat="43.6013885" lon="12.2329315"><ele>943.0</ele><time>2026-04-24T12:16:34.939Z</time></trkpt><trkpt lat="43.6015052" lon="12.232845"><ele>943.0</ele><time>2026-04-24T12:16:35.939Z</time></trkpt><trkpt lat="43.6016084" lon="12.2328413"><ele>943.0</ele><time>2026-04-24T12:16:36.939Z</time></trkpt><trkpt lat="43.6016801" lon="12.2329112"><ele>943.0</ele><time>2026-04-24T12:16:37.939Z</time></trkpt><trkpt lat="43.6016863" lon="12.2330312"><ele>943.0</ele><time>2026-04-24T12:16:38.94Z</time></trkpt><trkpt lat="43.6016136" lon="12.2331491"><ele>943.0</ele><time>2026-04-24T12:16:39.938Z</time></trkpt><trkpt lat="43.601511" lon="12.2332464"><ele>945.6666666666666</ele><time>2026-04-24T12:16:40.938Z</time></trkpt><trkpt lat="43.6013474" lon="12.2333485"><ele>948.3333333333333</ele><time>2026-04-24T12:16:41.939Z</time></trkpt><trkpt lat="43.6011823" lon="12.2334792"><ele>951.0</ele><time>2026-04-24T12:16:42.939Z</time></trkpt><trkpt lat="43.6009978" lon="12.2336347"><ele>951.0</ele><time>2026-04-24T12:16:43.938Z</time></trkpt><trkpt lat="43.6008164" lon="12.2338125"><ele>951.0</ele><time>2026-04-24T12:16:44.939Z</time></trkpt><trkpt lat="43.6006298" lon="12.2339793"><ele>951.0</ele><time>2026-04-24T12:16:45.938Z</time></trkpt><trkpt lat="43.6004278" lon="12.2341045"><ele>955.3333333333333</ele><time>2026-04-24T12:16:46.939Z</time></trkpt><trkpt lat="43.6002217" lon="12.2341753"><ele>959.6666666666666</ele><time>2026-04-24T12:16:47.938Z</time></trkpt><trkpt lat="43.6000197" lon="12.2341938"><ele>964.0</ele><time>2026-04-24T12:16:48.938Z</time></trkpt><trkpt lat="43.5998394" lon="12.2342"><ele>964.0</ele><time>2026-04-24T12:16:49.938Z</time></trkpt><trkpt lat="43.5996627" lon="12.2342242"><ele>964.0</ele><time>2026-04-24T12:16:50.938Z</time></trkpt><trkpt lat="43.5995597" lon="12.2343231"><ele>964.0</ele><time>2026-04-24T12:16:51.938Z</time></trkpt><trkpt lat="43.59947" lon="12.2344665"><ele>964.0</ele><time>2026-04-24T12:16:52.938Z</time></trkpt><trkpt lat="43.5993879" lon="12.2346378"><ele>965.6666666666666</ele><time>2026-04-24T12:16:53.938Z</time></trkpt><trkpt lat="43.5993461" lon="12.234882"><ele>967.3333333333333</ele><time>2026-04-24T12:16:54.938Z</time></trkpt><trkpt lat="43.5992722" lon="12.2351189"><ele>969.0</ele><time>2026-04-24T12:16:55.938Z</time></trkpt><trkpt lat="43.5991786" lon="12.235347"><ele>969.0</ele><time>2026-04-24T12:16:56.94Z</time></trkpt><trkpt lat="43.5990689" lon="12.2355453"><ele>969.0</ele><time>2026-04-24T12:16:57.938Z</time></trkpt><trkpt lat="43.5989604" lon="12.235724"><ele>969.0</ele><time>2026-04-24T12:16:58.939Z</time></trkpt><trkpt lat="43.5988726" lon="12.2358752"><ele>970.4000000000001</ele><time>2026-04-24T12:16:59.938Z</time></trkpt><trkpt lat="43.5988225" lon="12.2360141"><ele>971.8000000000001</ele><time>2026-04-24T12:17:00.938Z</time></trkpt><trkpt lat="43.5988336" lon="12.2361425"><ele>973.1999999999999</ele><time>2026-04-24T12:17:01.938Z</time></trkpt><trkpt lat="43.598903" lon="12.2362204"><ele>974.5999999999999</ele><time>2026-04-24T12:17:02.938Z</time></trkpt><trkpt lat="43.5990095" lon="12.2362119"><ele>976.0</ele><time>2026-04-24T12:17:03.938Z</time></trkpt><trkpt lat="43.5991175" lon="12.2361078"><ele>976.0</ele><time>2026-04-24T12:17:04.939Z</time></trkpt><trkpt lat="43.5992295" lon="12.2359366"><ele>976.0</ele><time>2026-04-24T12:17:05.939Z</time></trkpt><trkpt lat="43.5993433" lon="12.2357235"><ele>976.0</ele><time>2026-04-24T12:17:06.939Z</time></trkpt><trkpt lat="43.5994396" lon="12.2354659"><ele>979.0</ele><time>2026-04-24T12:17:07.939Z</time></trkpt><trkpt lat="43.5995283" lon="12.2352312"><ele>982.0</ele><time>2026-04-24T12:17:08.938Z</time></trkpt><trkpt lat="43.5996254" lon="12.2350089"><ele>985.0</ele><time>2026-04-24T12:17:09.938Z</time></trkpt><trkpt lat="43.5997978" lon="12.2348689"><ele>978.0</ele><time>2026-04-24T12:17:10.939Z</time></trkpt><trkpt lat="43.5999498" lon="12.2347442"><ele>971.0</ele><time>2026-04-24T12:17:11.938Z</time></trkpt><trkpt lat="43.6001251" lon="12.234722"><ele>964.0</ele><time>2026-04-24T12:17:12.939Z</time></trkpt><trkpt lat="43.6002989" lon="12.2347867"><ele>970.4000000000001</ele><time>2026-04-24T12:17:13.939Z</time></trkpt><trkpt lat="43.6004255" lon="12.2348728"><ele>976.8000000000001</ele><time>2026-04-24T12:17:14.939Z</time></trkpt><trkpt lat="43.6005182" lon="12.2349548"><ele>983.1999999999999</ele><time>2026-04-24T12:17:15.938Z</time></trkpt><trkpt lat="43.6005537" lon="12.2350587"><ele>989.5999999999999</ele><time>2026-04-24T12:17:16.939Z</time></trkpt><trkpt lat="43.6005156" lon="12.2351435"><ele>996.0</ele><time>2026-04-24T12:17:17.938Z</time></trkpt><trkpt lat="43.6004182" lon="12.2351569"><ele>993.25</ele><time>2026-04-24T12:17:18.938Z</time></trkpt><trkpt lat="43.6003124" lon="12.2351269"><ele>990.5</ele><time>2026-04-24T12:17:19.939Z</time></trkpt><trkpt lat="43.6001642" lon="12.2350676"><ele>987.75</ele><time>2026-04-24T12:17:20.938Z</time></trkpt><trkpt lat="43.6000259" lon="12.2350454"><ele>985.0</ele><time>2026-04-24T12:17:21.938Z</time></trkpt><trkpt lat="43.5999252" lon="12.235124"><ele>985.0</ele><time>2026-04-24T12:17:22.938Z</time></trkpt><trkpt lat="43.5998669" lon="12.2352486"><ele>985.0</ele><time>2026-04-24T12:17:23.938Z</time></trkpt><trkpt lat="43.5998321" lon="12.2353986"><ele>985.0</ele><time>2026-04-24T12:17:24.938Z</time></trkpt><trkpt lat="43.5999172" lon="12.2355979"><ele>985.0</ele><time>2026-04-24T12:17:25.939Z</time></trkpt><trkpt lat="43.5999924" lon="12.235805"><ele>987.5</ele><time>2026-04-24T12:17:26.938Z</time></trkpt><trkpt lat="43.6000458" lon="12.2360161"><ele>990.0</ele><time>2026-04-24T12:17:27.938Z</time></trkpt><trkpt lat="43.6000615" lon="12.2362164"><ele>992.5</ele><time>2026-04-24T12:17:28.938Z</time></trkpt><trkpt lat="43.6000271" lon="12.2363892"><ele>995.0</ele><time>2026-04-24T12:17:29.939Z</time></trkpt><trkpt lat="43.5999293" lon="12.2365526"><ele>997.0</ele><time>2026-04-24T12:17:30.939Z</time></trkpt><trkpt lat="43.5997952" lon="12.2367177"><ele>999.0</ele><time>2026-04-24T12:17:31.938Z</time></trkpt><trkpt lat="43.599645" lon="12.2368987"><ele>1001.0</ele><time>2026-04-24T12:17:32.938Z</time></trkpt><trkpt lat="43.599503" lon="12.2371074"><ele>1002.0</ele><time>2026-04-24T12:17:33.94Z</time></trkpt><trkpt lat="43.5993773" lon="12.2373362"><ele>1003.0</ele><time>2026-04-24T12:17:34.938Z</time></trkpt><trkpt lat="43.5992817" lon="12.2376002"><ele>1004.0</ele><time>2026-04-24T12:17:35.938Z</time></trkpt><trkpt lat="43.5992065" lon="12.2379012"><ele>1010.5</ele><time>2026-04-24T12:17:36.938Z</time></trkpt><trkpt lat="43.5991502" lon="12.2382119"><ele>1017.0</ele><time>2026-04-24T12:17:37.939Z</time></trkpt><trkpt lat="43.5990877" lon="12.2385023"><ele>1017.0</ele><time>2026-04-24T12:17:38.938Z</time></trkpt><trkpt lat="43.5990103" lon="12.2387592"><ele>1017.0</ele><time>2026-04-24T12:17:39.938Z</time></trkpt><trkpt lat="43.5989093" lon="12.2389796"><ele>1017.0</ele><time>2026-04-24T12:17:40.94Z</time></trkpt><trkpt lat="43.5987939" lon="12.2391579"><ele>1018.25</ele><time>2026-04-24T12:17:41.939Z</time></trkpt><trkpt lat="43.5986661" lon="12.2392811"><ele>1019.5</ele><time>2026-04-24T12:17:42.938Z</time></trkpt><trkpt lat="43.5985641" lon="12.2393367"><ele>1020.75</ele><time>2026-04-24T12:17:43.938Z</time></trkpt><trkpt lat="43.5984656" lon="12.2393231"><ele>1022.0</ele><time>2026-04-24T12:17:44.938Z</time></trkpt><trkpt lat="43.5983879" lon="12.239233"><ele>1022.0</ele><time>2026-04-24T12:17:45.938Z</time></trkpt><trkpt lat="43.5983432" lon="12.2390746"><ele>1022.0</ele><time>2026-04-24T12:17:46.938Z</time></trkpt><trkpt lat="43.5983281" lon="12.2388993"><ele>1022.0</ele><time>2026-04-24T12:17:47.938Z</time></trkpt><trkpt lat="43.5983171" lon="12.2387372"><ele>1022.0</ele><time>2026-04-24T12:17:48.939Z</time></trkpt><trkpt lat="43.5983091" lon="12.2385643"><ele>1021.5</ele><time>2026-04-24T12:17:49.938Z</time></trkpt><trkpt lat="43.5983016" lon="12.2383968"><ele>1021.0</ele><time>2026-04-24T12:17:50.938Z</time></trkpt><trkpt lat="43.5982895" lon="12.2382417"><ele>1020.5</ele><time>2026-04-24T12:17:51.938Z</time></trkpt><trkpt lat="43.598269" lon="12.2380909"><ele>1020.0</ele><time>2026-04-24T12:17:52.938Z</time></trkpt><trkpt lat="43.598218" lon="12.2379457"><ele>1016.0</ele><time>2026-04-24T12:17:53.938Z</time></trkpt><trkpt lat="43.5981271" lon="12.2378019"><ele>1012.0</ele><time>2026-04-24T12:17:54.938Z</time></trkpt><trkpt lat="43.5979943" lon="12.2376617"><ele>1008.0</ele><time>2026-04-24T12:17:55.938Z</time></trkpt><trkpt lat="43.5978764" lon="12.2375169"><ele>1014.0</ele><time>2026-04-24T12:17:56.938Z</time></trkpt><trkpt lat="43.5978024" lon="12.2373388"><ele>1020.0</ele><time>2026-04-24T12:17:57.938Z</time></trkpt><trkpt lat="43.5977711" lon="12.2371444"><ele>1026.0</ele><time>2026-04-24T12:17:58.939Z</time></trkpt><trkpt lat="43.5977567" lon="12.2369466"><ele>1032.0</ele><time>2026-04-24T12:17:59.938Z</time></trkpt><trkpt lat="43.5977363" lon="12.2367647"><ele>1032.0</ele><time>2026-04-24T12:18:00.938Z</time></trkpt><trkpt lat="43.5976793" lon="12.2366088"><ele>1032.0</ele><time>2026-04-24T12:18:01.937Z</time></trkpt><trkpt lat="43.5975649" lon="12.2365005"><ele>1032.0</ele><time>2026-04-24T12:18:02.939Z</time></trkpt><trkpt lat="43.5974243" lon="12.2364752"><ele>1032.0</ele><time>2026-04-24T12:18:03.938Z</time></trkpt><trkpt lat="43.5972592" lon="12.2364876"><ele>1032.0</ele><time>2026-04-24T12:18:04.938Z</time></trkpt><trkpt lat="43.5970932" lon="12.2365185"><ele>1032.0</ele><time>2026-04-24T12:18:05.938Z</time></trkpt><trkpt lat="43.5969425" lon="12.2365171"><ele>1032.0</ele><time>2026-04-24T12:18:06.938Z</time></trkpt><trkpt lat="43.5968166" lon="12.2364694"><ele>1032.0</ele><time>2026-04-24T12:18:07.938Z</time></trkpt><trkpt lat="43.5967324" lon="12.2363827"><ele>1031.0</ele><time>2026-04-24T12:18:08.938Z</time></trkpt><trkpt lat="43.5966968" lon="12.2362659"><ele>1030.0</ele><time>2026-04-24T12:18:09.938Z</time></trkpt><trkpt lat="43.5967112" lon="12.2361299"><ele>1029.0</ele><time>2026-04-24T12:18:10.939Z</time></trkpt><trkpt lat="43.5967347" lon="12.235965"><ele>1028.0</ele><time>2026-04-24T12:18:11.938Z</time></trkpt><trkpt lat="43.596739" lon="12.2357821"><ele>1027.0</ele><time>2026-04-24T12:18:12.938Z</time></trkpt><trkpt lat="43.5966101" lon="12.2356126"><ele>1027.0</ele><time>2026-04-24T12:18:13.939Z</time></trkpt><trkpt lat="43.596501" lon="12.2354774"><ele>1027.0</ele><time>2026-04-24T12:18:14.939Z</time></trkpt><trkpt lat="43.5963569" lon="12.235435"><ele>1027.0</ele><time>2026-04-24T12:18:15.939Z</time></trkpt><trkpt lat="43.5961962" lon="12.23542"><ele>1032.0</ele><time>2026-04-24T12:18:16.938Z</time></trkpt><trkpt lat="43.595992" lon="12.2355118"><ele>1037.0</ele><time>2026-04-24T12:18:17.938Z</time></trkpt><trkpt lat="43.5957844" lon="12.2355501"><ele>1042.0</ele><time>2026-04-24T12:18:18.939Z</time></trkpt><trkpt lat="43.5955887" lon="12.2355638"><ele>1042.0</ele><time>2026-04-24T12:18:19.938Z</time></trkpt><trkpt lat="43.5954066" lon="12.2355568"><ele>1042.0</ele><time>2026-04-24T12:18:20.938Z</time></trkpt><trkpt lat="43.5952285" lon="12.2355387"><ele>1042.0</ele><time>2026-04-24T12:18:21.938Z</time></trkpt><trkpt lat="43.5950486" lon="12.2355081"><ele>1046.0</ele><time>2026-04-24T12:18:22.938Z</time></trkpt><trkpt lat="43.594853" lon="12.2354759"><ele>1050.0</ele><time>2026-04-24T12:18:23.939Z</time></trkpt><trkpt lat="43.5946387" lon="12.2354357"><ele>1054.0</ele><time>2026-04-24T12:18:24.937Z</time></trkpt><trkpt lat="43.5944196" lon="12.2353779"><ele>1054.5</ele><time>2026-04-24T12:18:25.939Z</time></trkpt><trkpt lat="43.5941972" lon="12.2352863"><ele>1055.0</ele><time>2026-04-24T12:18:26.939Z</time></trkpt><trkpt lat="43.5939896" lon="12.2351487"><ele>1055.0</ele><time>2026-04-24T12:18:27.938Z</time></trkpt><trkpt lat="43.5937884" lon="12.2349811"><ele>1055.0</ele><time>2026-04-24T12:18:28.938Z</time></trkpt><trkpt lat="43.5935951" lon="12.2347885"><ele>1056.0</ele><time>2026-04-24T12:18:29.937Z</time></trkpt><trkpt lat="43.5934265" lon="12.2345682"><ele>1057.0</ele><time>2026-04-24T12:18:30.939Z</time></trkpt><trkpt lat="43.5932665" lon="12.234344"><ele>1057.0</ele><time>2026-04-24T12:18:31.938Z</time></trkpt><trkpt lat="43.5930972" lon="12.2341658"><ele>1057.0</ele><time>2026-04-24T12:18:32.938Z</time></trkpt><trkpt lat="43.5929193" lon="12.2340339"><ele>1057.0</ele><time>2026-04-24T12:18:33.938Z</time></trkpt><trkpt lat="43.5927546" lon="12.2339022"><ele>1052.0</ele><time>2026-04-24T12:18:34.937Z</time></trkpt><trkpt lat="43.5925945" lon="12.2337156"><ele>1047.0</ele><time>2026-04-24T12:18:35.939Z</time></trkpt><trkpt lat="43.5924578" lon="12.2335046"><ele>1042.0</ele><time>2026-04-24T12:18:36.938Z</time></trkpt><trkpt lat="43.592352" lon="12.2332778"><ele>1042.6666666666665</ele><time>2026-04-24T12:18:37.938Z</time></trkpt><trkpt lat="43.5922894" lon="12.2330125"><ele>1043.3333333333333</ele><time>2026-04-24T12:18:38.938Z</time></trkpt><trkpt lat="43.5922335" lon="12.2327404"><ele>1044.0</ele><time>2026-04-24T12:18:39.937Z</time></trkpt><trkpt lat="43.592189" lon="12.2324702"><ele>1040.6666666666667</ele><time>2026-04-24T12:18:40.938Z</time></trkpt><trkpt lat="43.5921838" lon="12.2321791"><ele>1037.3333333333335</ele><time>2026-04-24T12:18:41.938Z</time></trkpt><trkpt lat="43.5922114" lon="12.2318896"><ele>1034.0</ele><time>2026-04-24T12:18:42.939Z</time></trkpt><trkpt lat="43.5922657" lon="12.23163"><ele>1029.0</ele><time>2026-04-24T12:18:43.938Z</time></trkpt><trkpt lat="43.5923381" lon="12.2313807"><ele>1024.0</ele><time>2026-04-24T12:18:44.938Z</time></trkpt><trkpt lat="43.5924431" lon="12.2311689"><ele>1019.0</ele><time>2026-04-24T12:18:45.938Z</time></trkpt><trkpt lat="43.5925122" lon="12.2309349"><ele>1019.0</ele><time>2026-04-24T12:18:46.938Z</time></trkpt><trkpt lat="43.5925614" lon="12.2307316"><ele>1019.0</ele><time>2026-04-24T12:18:47.938Z</time></trkpt><trkpt lat="43.5925832" lon="12.2305765"><ele>1019.0</ele><time>2026-04-24T12:18:48.938Z</time></trkpt><trkpt lat="43.5925887" lon="12.2304433"><ele>1019.0</ele><time>2026-04-24T12:18:49.938Z</time></trkpt><trkpt lat="43.5925074" lon="12.2304132"><ele>1019.0</ele><time>2026-04-24T12:18:50.939Z</time></trkpt><trkpt lat="43.5924398" lon="12.2304415"><ele>1019.0</ele><time>2026-04-24T12:18:51.938Z</time></trkpt><trkpt lat="43.5923886" lon="12.2305588"><ele>1019.0</ele><time>2026-04-24T12:18:52.938Z</time></trkpt><trkpt lat="43.5923464" lon="12.2307414"><ele>1019.0</ele><time>2026-04-24T12:18:53.938Z</time></trkpt><trkpt lat="43.5922891" lon="12.2309552"><ele>1019.0</ele><time>2026-04-24T12:18:54.938Z</time></trkpt><trkpt lat="43.5921986" lon="12.2311493"><ele>1019.0</ele><time>2026-04-24T12:18:55.938Z</time></trkpt><trkpt lat="43.5920683" lon="12.2312991"><ele>1019.0</ele><time>2026-04-24T12:18:56.938Z</time></trkpt><trkpt lat="43.5919442" lon="12.2314471"><ele>1010.0</ele><time>2026-04-24T12:18:57.938Z</time></trkpt><trkpt lat="43.5918245" lon="12.2316267"><ele>1001.0</ele><time>2026-04-24T12:18:58.94Z</time></trkpt><trkpt lat="43.5917464" lon="12.2318307"><ele>992.0</ele><time>2026-04-24T12:18:59.938Z</time></trkpt><trkpt lat="43.5916964" lon="12.2320563"><ele>992.0</ele><time>2026-04-24T12:19:00.938Z</time></trkpt><trkpt lat="43.591682" lon="12.2322965"><ele>992.0</ele><time>2026-04-24T12:19:01.938Z</time></trkpt><trkpt lat="43.5916667" lon="12.2324969"><ele>992.0</ele><time>2026-04-24T12:19:02.937Z</time></trkpt><trkpt lat="43.5916413" lon="12.232651"><ele>992.0</ele><time>2026-04-24T12:19:03.938Z</time></trkpt><trkpt lat="43.5915931" lon="12.2327455"><ele>992.0</ele><time>2026-04-24T12:19:04.939Z</time></trkpt><trkpt lat="43.5915278" lon="12.2327591"><ele>992.0</ele><time>2026-04-24T12:19:05.937Z</time></trkpt><trkpt lat="43.5914602" lon="12.2327448"><ele>992.0</ele><time>2026-04-24T12:19:06.938Z</time></trkpt><trkpt lat="43.5914839" lon="12.2325321"><ele>992.0</ele><time>2026-04-24T12:19:07.939Z</time></trkpt><trkpt lat="43.5914777" lon="12.232336"><ele>992.0</ele><time>2026-04-24T12:19:08.939Z</time></trkpt><trkpt lat="43.5914806" lon="12.2320835"><ele>992.0</ele><time>2026-04-24T12:19:09.939Z</time></trkpt><trkpt lat="43.5915012" lon="12.2318182"><ele>992.0</ele><time>2026-04-24T12:19:10.938Z</time></trkpt><trkpt lat="43.5915652" lon="12.2315729"><ele>992.0</ele><time>2026-04-24T12:19:11.938Z</time></trkpt><trkpt lat="43.5916773" lon="12.2313291"><ele>987.0</ele><time>2026-04-24T12:19:12.938Z</time></trkpt><trkpt lat="43.5918061" lon="12.2311285"><ele>982.0</ele><time>2026-04-24T12:19:13.938Z</time></trkpt><trkpt lat="43.5919258" lon="12.2309241"><ele>977.0</ele><time>2026-04-24T12:19:14.938Z</time></trkpt><trkpt lat="43.5919886" lon="12.2306651"><ele>977.6666666666667</ele><time>2026-04-24T12:19:15.938Z</time></trkpt><trkpt lat="43.5920237" lon="12.2303786"><ele>978.3333333333333</ele><time>2026-04-24T12:19:16.939Z</time></trkpt><trkpt lat="43.5920077" lon="12.2300734"><ele>979.0</ele><time>2026-04-24T12:19:17.937Z</time></trkpt><trkpt lat="43.591937" lon="12.2297604"><ele>979.0</ele><time>2026-04-24T12:19:18.938Z</time></trkpt><trkpt lat="43.5918566" lon="12.2294543"><ele>979.0</ele><time>2026-04-24T12:19:19.938Z</time></trkpt><trkpt lat="43.5918102" lon="12.229154"><ele>983.0</ele><time>2026-04-24T12:19:20.938Z</time></trkpt><trkpt lat="43.5917613" lon="12.2288718"><ele>987.0</ele><time>2026-04-24T12:19:21.938Z</time></trkpt><trkpt lat="43.5916704" lon="12.2286196"><ele>991.0</ele><time>2026-04-24T12:19:22.937Z</time></trkpt><trkpt lat="43.5915533" lon="12.2283788"><ele>991.0</ele><time>2026-04-24T12:19:23.937Z</time></trkpt><trkpt lat="43.5914389" lon="12.2281641"><ele>991.0</ele><time>2026-04-24T12:19:24.937Z</time></trkpt><trkpt lat="43.5913387" lon="12.228027"><ele>991.0</ele><time>2026-04-24T12:19:25.938Z</time></trkpt><trkpt lat="43.5912471" lon="12.2279205"><ele>991.0</ele><time>2026-04-24T12:19:26.938Z</time></trkpt><trkpt lat="43.591164" lon="12.2278891"><ele>990.9999999999999</ele><time>2026-04-24T12:19:27.939Z</time></trkpt><trkpt lat="43.5910918" lon="12.2279403"><ele>990.9999999999999</ele><time>2026-04-24T12:19:28.938Z</time></trkpt><trkpt lat="43.5910739" lon="12.2280531"><ele>991.0</ele><time>2026-04-24T12:19:29.938Z</time></trkpt><trkpt lat="43.5911132" lon="12.2282167"><ele>991.0</ele><time>2026-04-24T12:19:30.938Z</time></trkpt><trkpt lat="43.5912156" lon="12.2284177"><ele>991.0</ele><time>2026-04-24T12:19:31.937Z</time></trkpt><trkpt lat="43.5913291" lon="12.2286472"><ele>991.0</ele><time>2026-04-24T12:19:32.938Z</time></trkpt><trkpt lat="43.5914105" lon="12.2288837"><ele>991.0</ele><time>2026-04-24T12:19:33.938Z</time></trkpt><trkpt lat="43.5914723" lon="12.229146"><ele>987.0</ele><time>2026-04-24T12:19:34.937Z</time></trkpt><trkpt lat="43.5914546" lon="12.2294593"><ele>983.0</ele><time>2026-04-24T12:19:35.937Z</time></trkpt><trkpt lat="43.5914748" lon="12.2297277"><ele>979.0</ele><time>2026-04-24T12:19:36.937Z</time></trkpt><trkpt lat="43.5914844" lon="12.2299899"><ele>978.3333333333333</ele><time>2026-04-24T12:19:37.938Z</time></trkpt><trkpt lat="43.5914348" lon="12.2302182"><ele>977.6666666666667</ele><time>2026-04-24T12:19:38.938Z</time></trkpt><trkpt lat="43.5913441" lon="12.2304636"><ele>977.0</ele><time>2026-04-24T12:19:39.937Z</time></trkpt><trkpt lat="43.5912091" lon="12.2307309"><ele>961.0</ele><time>2026-04-24T12:19:40.939Z</time></trkpt><trkpt lat="43.5910627" lon="12.2310071"><ele>945.0</ele><time>2026-04-24T12:19:41.937Z</time></trkpt><trkpt lat="43.5909224" lon="12.2312596"><ele>949.0</ele><time>2026-04-24T12:19:42.937Z</time></trkpt><trkpt lat="43.5907952" lon="12.2314763"><ele>953.0</ele><time>2026-04-24T12:19:43.938Z</time></trkpt><trkpt lat="43.5906831" lon="12.2316465"><ele>957.0</ele><time>2026-04-24T12:19:44.938Z</time></trkpt><trkpt lat="43.5905883" lon="12.2317603"><ele>957.0</ele><time>2026-04-24T12:19:45.938Z</time></trkpt><trkpt lat="43.590504" lon="12.2318019"><ele>957.0</ele><time>2026-04-24T12:19:46.938Z</time></trkpt><trkpt lat="43.5904384" lon="12.2317659"><ele>957.0</ele><time>2026-04-24T12:19:47.938Z</time></trkpt><trkpt lat="43.59042" lon="12.2316624"><ele>957.0</ele><time>2026-04-24T12:19:48.937Z</time></trkpt><trkpt lat="43.5904815" lon="12.2315203"><ele>957.0</ele><time>2026-04-24T12:19:49.938Z</time></trkpt><trkpt lat="43.590602" lon="12.2313659"><ele>953.0</ele><time>2026-04-24T12:19:50.938Z</time></trkpt><trkpt lat="43.5907379" lon="12.2311843"><ele>949.0</ele><time>2026-04-24T12:19:51.938Z</time></trkpt><trkpt lat="43.590855" lon="12.2309565"><ele>945.0</ele><time>2026-04-24T12:19:52.938Z</time></trkpt><trkpt lat="43.5909458" lon="12.2306901"><ele>941.6666666666667</ele><time>2026-04-24T12:19:53.938Z</time></trkpt><trkpt lat="43.5909957" lon="12.2304172"><ele>938.3333333333334</ele><time>2026-04-24T12:19:54.937Z</time></trkpt><trkpt lat="43.5909955" lon="12.2301222"><ele>935.0</ele><time>2026-04-24T12:19:55.938Z</time></trkpt><trkpt lat="43.5909715" lon="12.2298243"><ele>938.0</ele><time>2026-04-24T12:19:56.939Z</time></trkpt><trkpt lat="43.5908361" lon="12.2294766"><ele>941.0</ele><time>2026-04-24T12:19:57.938Z</time></trkpt><trkpt lat="43.5906921" lon="12.2291357"><ele>948.5</ele><time>2026-04-24T12:19:58.938Z</time></trkpt><trkpt lat="43.5905406" lon="12.2288208"><ele>956.0</ele><time>2026-04-24T12:19:59.938Z</time></trkpt><trkpt lat="43.5904011" lon="12.2285273"><ele>956.0</ele><time>2026-04-24T12:20:00.938Z</time></trkpt><trkpt lat="43.590264" lon="12.2282769"><ele>956.0</ele><time>2026-04-24T12:20:01.937Z</time></trkpt><trkpt lat="43.590114" lon="12.2280831"><ele>956.0</ele><time>2026-04-24T12:20:02.939Z</time></trkpt><trkpt lat="43.5899584" lon="12.227932"><ele>956.0</ele><time>2026-04-24T12:20:03.937Z</time></trkpt><trkpt lat="43.5898006" lon="12.2278293"><ele>956.0</ele><time>2026-04-24T12:20:04.937Z</time></trkpt><trkpt lat="43.5896611" lon="12.2277651"><ele>956.0</ele><time>2026-04-24T12:20:05.937Z</time></trkpt><trkpt lat="43.5895487" lon="12.2277445"><ele>956.0</ele><time>2026-04-24T12:20:06.937Z</time></trkpt><trkpt lat="43.5894692" lon="12.2277689"><ele>956.0</ele><time>2026-04-24T12:20:07.938Z</time></trkpt><trkpt lat="43.5894293" lon="12.2278584"><ele>955.9999999999999</ele><time>2026-04-24T12:20:08.937Z</time></trkpt><trkpt lat="43.5894441" lon="12.2279603"><ele>955.9999999999999</ele><time>2026-04-24T12:20:09.938Z</time></trkpt><trkpt lat="43.589527" lon="12.2280463"><ele>956.0</ele><time>2026-04-24T12:20:10.938Z</time></trkpt><trkpt lat="43.5896834" lon="12.2281058"><ele>956.0</ele><time>2026-04-24T12:20:11.938Z</time></trkpt><trkpt lat="43.5898542" lon="12.2281765"><ele>945.3333333333334</ele><time>2026-04-24T12:20:12.937Z</time></trkpt><trkpt lat="43.5899998" lon="12.2283158"><ele>934.6666666666667</ele><time>2026-04-24T12:20:13.938Z</time></trkpt><trkpt lat="43.5901282" lon="12.2285325"><ele>924.0</ele><time>2026-04-24T12:20:14.937Z</time></trkpt><trkpt lat="43.5902271" lon="12.2288318"><ele>932.5</ele><time>2026-04-24T12:20:15.938Z</time></trkpt><trkpt lat="43.5902995" lon="12.2291481"><ele>941.0</ele><time>2026-04-24T12:20:16.938Z</time></trkpt><trkpt lat="43.5903451" lon="12.2294552"><ele>941.0</ele><time>2026-04-24T12:20:17.937Z</time></trkpt><trkpt lat="43.5903587" lon="12.2297237"><ele>941.0</ele><time>2026-04-24T12:20:18.937Z</time></trkpt><trkpt lat="43.5903385" lon="12.229931"><ele>941.0</ele><time>2026-04-24T12:20:19.938Z</time></trkpt><trkpt lat="43.5902915" lon="12.2301208"><ele>927.6666666666667</ele><time>2026-04-24T12:20:20.939Z</time></trkpt><trkpt lat="43.5901141" lon="12.2302352"><ele>914.3333333333333</ele><time>2026-04-24T12:20:21.938Z</time></trkpt><trkpt lat="43.5899351" lon="12.2303379"><ele>901.0</ele><time>2026-04-24T12:20:22.938Z</time></trkpt><trkpt lat="43.589743" lon="12.2304912"><ele>898.6666666666666</ele><time>2026-04-24T12:20:23.938Z</time></trkpt><trkpt lat="43.5895773" lon="12.2306803"><ele>896.3333333333333</ele><time>2026-04-24T12:20:24.939Z</time></trkpt><trkpt lat="43.5894377" lon="12.2308488"><ele>894.0</ele><time>2026-04-24T12:20:25.939Z</time></trkpt><trkpt lat="43.5893247" lon="12.2309786"><ele>894.0</ele><time>2026-04-24T12:20:26.937Z</time></trkpt><trkpt lat="43.5892281" lon="12.2310551"><ele>894.0000000000001</ele><time>2026-04-24T12:20:27.938Z</time></trkpt><trkpt lat="43.589136" lon="12.2310545"><ele>894.0000000000001</ele><time>2026-04-24T12:20:28.938Z</time></trkpt><trkpt lat="43.5890702" lon="12.2309812"><ele>894.0</ele><time>2026-04-24T12:20:29.937Z</time></trkpt><trkpt lat="43.5890685" lon="12.230863"><ele>894.0</ele><time>2026-04-24T12:20:30.938Z</time></trkpt><trkpt lat="43.5891419" lon="12.230727"><ele>896.3333333333333</ele><time>2026-04-24T12:20:31.939Z</time></trkpt><trkpt lat="43.5892729" lon="12.2305701"><ele>898.6666666666666</ele><time>2026-04-24T12:20:32.939Z</time></trkpt><trkpt lat="43.5894234" lon="12.2303959"><ele>901.0</ele><time>2026-04-24T12:20:33.937Z</time></trkpt><trkpt lat="43.5895692" lon="12.2301949"><ele>901.0</ele><time>2026-04-24T12:20:34.937Z</time></trkpt><trkpt lat="43.5896812" lon="12.2300061"><ele>901.0</ele><time>2026-04-24T12:20:35.938Z</time></trkpt><trkpt lat="43.5897534" lon="12.2298178"><ele>901.0</ele><time>2026-04-24T12:20:36.939Z</time></trkpt><trkpt lat="43.5897726" lon="12.2296175"><ele>902.6666666666666</ele><time>2026-04-24T12:20:37.938Z</time></trkpt><trkpt lat="43.5897258" lon="12.2294007"><ele>904.3333333333333</ele><time>2026-04-24T12:20:38.937Z</time></trkpt><trkpt lat="43.5896358" lon="12.2291921"><ele>906.0</ele><time>2026-04-24T12:20:39.937Z</time></trkpt><trkpt lat="43.5895145" lon="12.2290298"><ele>906.6666666666667</ele><time>2026-04-24T12:20:40.939Z</time></trkpt><trkpt lat="43.5893613" lon="12.2289358"><ele>907.3333333333334</ele><time>2026-04-24T12:20:41.938Z</time></trkpt><trkpt lat="43.5892021" lon="12.2288752"><ele>908.0</ele><time>2026-04-24T12:20:42.938Z</time></trkpt><trkpt lat="43.5890436" lon="12.2288341"><ele>908.0</ele><time>2026-04-24T12:20:43.937Z</time></trkpt><trkpt lat="43.5888985" lon="12.2287323"><ele>908.0</ele><time>2026-04-24T12:20:44.939Z</time></trkpt><trkpt lat="43.5887829" lon="12.228568"><ele>908.0</ele><time>2026-04-24T12:20:45.938Z</time></trkpt><trkpt lat="43.5886951" lon="12.2283407"><ele>910.0</ele><time>2026-04-24T12:20:46.94Z</time></trkpt><trkpt lat="43.5885707" lon="12.2281608"><ele>912.0</ele><time>2026-04-24T12:20:47.938Z</time></trkpt><trkpt lat="43.5884264" lon="12.2280441"><ele>914.0</ele><time>2026-04-24T12:20:48.938Z</time></trkpt><trkpt lat="43.5882633" lon="12.2280059"><ele>914.0</ele><time>2026-04-24T12:20:49.938Z</time></trkpt><trkpt lat="43.5881057" lon="12.2280145"><ele>914.0</ele><time>2026-04-24T12:20:50.937Z</time></trkpt><trkpt lat="43.5879413" lon="12.2279902"><ele>914.0</ele><time>2026-04-24T12:20:51.938Z</time></trkpt><trkpt lat="43.5877504" lon="12.227865"><ele>908.6666666666667</ele><time>2026-04-24T12:20:52.938Z</time></trkpt><trkpt lat="43.5875435" lon="12.2278177"><ele>903.3333333333333</ele><time>2026-04-24T12:20:53.938Z</time></trkpt><trkpt lat="43.5873505" lon="12.2278014"><ele>898.0</ele><time>2026-04-24T12:20:54.939Z</time></trkpt><trkpt lat="43.5871898" lon="12.2277863"><ele>898.0</ele><time>2026-04-24T12:20:55.938Z</time></trkpt><trkpt lat="43.5870577" lon="12.2277511"><ele>898.0</ele><time>2026-04-24T12:20:56.938Z</time></trkpt><trkpt lat="43.5869568" lon="12.2276181"><ele>898.0</ele><time>2026-04-24T12:20:57.938Z</time></trkpt><trkpt lat="43.5868876" lon="12.2273963"><ele>898.0</ele><time>2026-04-24T12:20:58.938Z</time></trkpt><trkpt lat="43.5868404" lon="12.2271149"><ele>891.0</ele><time>2026-04-24T12:20:59.937Z</time></trkpt><trkpt lat="43.586816" lon="12.2268435"><ele>884.0</ele><time>2026-04-24T12:21:00.938Z</time></trkpt><trkpt lat="43.5868309" lon="12.2265839"><ele>877.0</ele><time>2026-04-24T12:21:01.938Z</time></trkpt><trkpt lat="43.5868543" lon="12.2263313"><ele>877.0</ele><time>2026-04-24T12:21:02.938Z</time></trkpt><trkpt lat="43.5869103" lon="12.2261257"><ele>877.0</ele><time>2026-04-24T12:21:03.938Z</time></trkpt><trkpt lat="43.5869117" lon="12.2259181"><ele>877.0</ele><time>2026-04-24T12:21:04.938Z</time></trkpt><trkpt lat="43.5868418" lon="12.2257223"><ele>883.6666666666666</ele><time>2026-04-24T12:21:05.937Z</time></trkpt><trkpt lat="43.5867152" lon="12.2255462"><ele>890.3333333333333</ele><time>2026-04-24T12:21:06.937Z</time></trkpt><trkpt lat="43.5865522" lon="12.2254082"><ele>897.0</ele><time>2026-04-24T12:21:07.938Z</time></trkpt><trkpt lat="43.5863543" lon="12.2253341"><ele>895.6666666666667</ele><time>2026-04-24T12:21:08.938Z</time></trkpt><trkpt lat="43.5861504" lon="12.2253226"><ele>894.3333333333334</ele><time>2026-04-24T12:21:09.938Z</time></trkpt><trkpt lat="43.5859534" lon="12.225359"><ele>893.0</ele><time>2026-04-24T12:21:10.937Z</time></trkpt><trkpt lat="43.5857827" lon="12.2254166"><ele>893.0</ele><time>2026-04-24T12:21:11.938Z</time></trkpt><trkpt lat="43.5856287" lon="12.2254701"><ele>893.0</ele><time>2026-04-24T12:21:12.939Z</time></trkpt><trkpt lat="43.5854874" lon="12.2255223"><ele>893.0</ele><time>2026-04-24T12:21:13.937Z</time></trkpt><trkpt lat="43.5853558" lon="12.225574"><ele>893.0</ele><time>2026-04-24T12:21:14.937Z</time></trkpt><trkpt lat="43.5852291" lon="12.2256171"><ele>891.75</ele><time>2026-04-24T12:21:15.937Z</time></trkpt><trkpt lat="43.5851034" lon="12.2256275"><ele>890.5</ele><time>2026-04-24T12:21:16.937Z</time></trkpt><trkpt lat="43.5849714" lon="12.2255873"><ele>889.25</ele><time>2026-04-24T12:21:17.937Z</time></trkpt><trkpt lat="43.5848219" lon="12.2254806"><ele>888.0</ele><time>2026-04-24T12:21:18.937Z</time></trkpt><trkpt lat="43.5846543" lon="12.2253252"><ele>878.0</ele><time>2026-04-24T12:21:19.937Z</time></trkpt><trkpt lat="43.5844682" lon="12.2251805"><ele>868.0</ele><time>2026-04-24T12:21:20.937Z</time></trkpt><trkpt lat="43.5842812" lon="12.2250791"><ele>858.0</ele><time>2026-04-24T12:21:21.939Z</time></trkpt><trkpt lat="43.5841244" lon="12.2249854"><ele>858.0</ele><time>2026-04-24T12:21:22.937Z</time></trkpt><trkpt lat="43.5840188" lon="12.2248821"><ele>858.0</ele><time>2026-04-24T12:21:23.937Z</time></trkpt><trkpt lat="43.5839708" lon="12.2247349"><ele>858.0</ele><time>2026-04-24T12:21:24.937Z</time></trkpt><trkpt lat="43.5839446" lon="12.2245886"><ele>858.0</ele><time>2026-04-24T12:21:25.937Z</time></trkpt><trkpt lat="43.5840588" lon="12.2244124"><ele>857.0</ele><time>2026-04-24T12:21:26.937Z</time></trkpt><trkpt lat="43.5841486" lon="12.2241912"><ele>856.0</ele><time>2026-04-24T12:21:27.937Z</time></trkpt><trkpt lat="43.5842318" lon="12.2239568"><ele>855.0</ele><time>2026-04-24T12:21:28.937Z</time></trkpt><trkpt lat="43.5843065" lon="12.2237174"><ele>855.6666666666667</ele><time>2026-04-24T12:21:29.938Z</time></trkpt><trkpt lat="43.5843617" lon="12.2235017"><ele>856.3333333333334</ele><time>2026-04-24T12:21:30.937Z</time></trkpt><trkpt lat="43.584393" lon="12.2232902"><ele>857.0</ele><time>2026-04-24T12:21:31.938Z</time></trkpt><trkpt lat="43.5843716" lon="12.2230883"><ele>857.0</ele><time>2026-04-24T12:21:32.938Z</time></trkpt><trkpt lat="43.5842914" lon="12.2228687"><ele>857.0</ele><time>2026-04-24T12:21:33.937Z</time></trkpt><trkpt lat="43.5842122" lon="12.2226171"><ele>857.0</ele><time>2026-04-24T12:21:34.937Z</time></trkpt><trkpt lat="43.5841621" lon="12.2223483"><ele>864.0</ele><time>2026-04-24T12:21:35.937Z</time></trkpt><trkpt lat="43.5841519" lon="12.2220941"><ele>871.0</ele><time>2026-04-24T12:21:36.937Z</time></trkpt><trkpt lat="43.5841163" lon="12.2218526"><ele>878.0</ele><time>2026-04-24T12:21:37.937Z</time></trkpt><trkpt lat="43.5840726" lon="12.2216172"><ele>878.0</ele><time>2026-04-24T12:21:38.938Z</time></trkpt><trkpt lat="43.5839728" lon="12.2214935"><ele>878.0</ele><time>2026-04-24T12:21:39.937Z</time></trkpt><trkpt lat="43.5838862" lon="12.2213734"><ele>878.0</ele><time>2026-04-24T12:21:40.938Z</time></trkpt><trkpt lat="43.5837872" lon="12.2212787"><ele>878.0</ele><time>2026-04-24T12:21:41.937Z</time></trkpt><trkpt lat="43.5836578" lon="12.2212593"><ele>883.0</ele><time>2026-04-24T12:21:42.938Z</time></trkpt><trkpt lat="43.5834836" lon="12.2213501"><ele>888.0</ele><time>2026-04-24T12:21:43.937Z</time></trkpt><trkpt lat="43.5833011" lon="12.2213577"><ele>893.0</ele><time>2026-04-24T12:21:44.937Z</time></trkpt><trkpt lat="43.5831201" lon="12.2213366"><ele>893.0</ele><time>2026-04-24T12:21:45.937Z</time></trkpt><trkpt lat="43.5829354" lon="12.2213827"><ele>893.0</ele><time>2026-04-24T12:21:46.937Z</time></trkpt><trkpt lat="43.582761" lon="12.2214631"><ele>893.0</ele><time>2026-04-24T12:21:47.938Z</time></trkpt><trkpt lat="43.5825984" lon="12.2215406"><ele>886.0</ele><time>2026-04-24T12:21:48.937Z</time></trkpt><trkpt lat="43.5824546" lon="12.2215957"><ele>879.0</ele><time>2026-04-24T12:21:49.938Z</time></trkpt><trkpt lat="43.5823317" lon="12.2216272"><ele>872.0</ele><time>2026-04-24T12:21:50.937Z</time></trkpt><trkpt lat="43.5822629" lon="12.2215685"><ele>865.0</ele><time>2026-04-24T12:21:51.938Z</time></trkpt><trkpt lat="43.5821935" lon="12.221479"><ele>865.0</ele><time>2026-04-24T12:21:52.938Z</time></trkpt><trkpt lat="43.5821619" lon="12.221297"><ele>865.0</ele><time>2026-04-24T12:21:53.937Z</time></trkpt><trkpt lat="43.5821176" lon="12.2210947"><ele>865.0</ele><time>2026-04-24T12:21:54.937Z</time></trkpt><trkpt lat="43.5820838" lon="12.2208605"><ele>868.0</ele><time>2026-04-24T12:21:55.937Z</time></trkpt><trkpt lat="43.5820654" lon="12.2206115"><ele>871.0</ele><time>2026-04-24T12:21:56.937Z</time></trkpt><trkpt lat="43.5820579" lon="12.2203357"><ele>874.0</ele><time>2026-04-24T12:21:57.938Z</time></trkpt><trkpt lat="43.5820553" lon="12.2200821"><ele>874.0</ele><time>2026-04-24T12:21:58.938Z</time></trkpt><trkpt lat="43.5820687" lon="12.2198766"><ele>874.0</ele><time>2026-04-24T12:21:59.937Z</time></trkpt><trkpt lat="43.5820415" lon="12.2197351"><ele>874.0</ele><time>2026-04-24T12:22:00.938Z</time></trkpt><trkpt lat="43.5819704" lon="12.2196215"><ele>874.0</ele><time>2026-04-24T12:22:01.938Z</time></trkpt><trkpt lat="43.5818533" lon="12.2195608"><ele>876.3333333333333</ele><time>2026-04-24T12:22:02.938Z</time></trkpt><trkpt lat="43.5817091" lon="12.2195396"><ele>878.6666666666667</ele><time>2026-04-24T12:22:03.937Z</time></trkpt><trkpt lat="43.581535" lon="12.2195728"><ele>881.0</ele><time>2026-04-24T12:22:04.938Z</time></trkpt><trkpt lat="43.5813512" lon="12.2196649"><ele>876.6666666666667</ele><time>2026-04-24T12:22:05.938Z</time></trkpt><trkpt lat="43.581173" lon="12.2197724"><ele>872.3333333333333</ele><time>2026-04-24T12:22:06.937Z</time></trkpt><trkpt lat="43.5810064" lon="12.2198665"><ele>868.0</ele><time>2026-04-24T12:22:07.937Z</time></trkpt><trkpt lat="43.5808554" lon="12.2199392"><ele>868.0</ele><time>2026-04-24T12:22:08.937Z</time></trkpt><trkpt lat="43.5807347" lon="12.2199733"><ele>868.0</ele><time>2026-04-24T12:22:09.937Z</time></trkpt><trkpt lat="43.5806411" lon="12.2199213"><ele>868.0</ele><time>2026-04-24T12:22:10.937Z</time></trkpt><trkpt lat="43.5805638" lon="12.2198012"><ele>868.0</ele><time>2026-04-24T12:22:11.938Z</time></trkpt><trkpt lat="43.5804979" lon="12.2196058"><ele>868.0</ele><time>2026-04-24T12:22:12.937Z</time></trkpt><trkpt lat="43.5804271" lon="12.219399"><ele>868.0</ele><time>2026-04-24T12:22:13.938Z</time></trkpt><trkpt lat="43.5803374" lon="12.2191487"><ele>868.0</ele><time>2026-04-24T12:22:14.937Z</time></trkpt><trkpt lat="43.5802442" lon="12.2189046"><ele>864.3333333333333</ele><time>2026-04-24T12:22:15.938Z</time></trkpt><trkpt lat="43.5801413" lon="12.2186782"><ele>860.6666666666667</ele><time>2026-04-24T12:22:16.937Z</time></trkpt><trkpt lat="43.580045" lon="12.2184594"><ele>857.0</ele><time>2026-04-24T12:22:17.938Z</time></trkpt><trkpt lat="43.5799407" lon="12.2182861"><ele>857.0</ele><time>2026-04-24T12:22:18.937Z</time></trkpt><trkpt lat="43.5798314" lon="12.21818"><ele>857.0</ele><time>2026-04-24T12:22:19.939Z</time></trkpt><trkpt lat="43.5797077" lon="12.2181409"><ele>857.0</ele><time>2026-04-24T12:22:20.937Z</time></trkpt><trkpt lat="43.5795712" lon="12.2182005"><ele>857.0</ele><time>2026-04-24T12:22:21.937Z</time></trkpt><trkpt lat="43.5794282" lon="12.2182981"><ele>852.6666666666667</ele><time>2026-04-24T12:22:22.937Z</time></trkpt><trkpt lat="43.5792864" lon="12.2184012"><ele>848.3333333333333</ele><time>2026-04-24T12:22:23.937Z</time></trkpt><trkpt lat="43.5791394" lon="12.2184639"><ele>844.0</ele><time>2026-04-24T12:22:24.937Z</time></trkpt><trkpt lat="43.579" lon="12.2184897"><ele>844.0</ele><time>2026-04-24T12:22:25.937Z</time></trkpt><trkpt lat="43.5788643" lon="12.2184284"><ele>844.0</ele><time>2026-04-24T12:22:26.937Z</time></trkpt><trkpt lat="43.5787297" lon="12.218306"><ele>844.0</ele><time>2026-04-24T12:22:27.937Z</time></trkpt><trkpt lat="43.5786075" lon="12.2181172"><ele>846.6666666666666</ele><time>2026-04-24T12:22:28.937Z</time></trkpt><trkpt lat="43.5784715" lon="12.2179992"><ele>849.3333333333333</ele><time>2026-04-24T12:22:29.938Z</time></trkpt><trkpt lat="43.5783289" lon="12.2179308"><ele>852.0</ele><time>2026-04-24T12:22:30.939Z</time></trkpt><trkpt lat="43.5781702" lon="12.2179067"><ele>852.0</ele><time>2026-04-24T12:22:31.938Z</time></trkpt><trkpt lat="43.577999" lon="12.2180037"><ele>852.0</ele><time>2026-04-24T12:22:32.937Z</time></trkpt><trkpt lat="43.5778448" lon="12.2180607"><ele>852.0</ele><time>2026-04-24T12:22:33.937Z</time></trkpt><trkpt lat="43.5777134" lon="12.2180855"><ele>845.4000000000001</ele><time>2026-04-24T12:22:34.937Z</time></trkpt><trkpt lat="43.5776158" lon="12.2180498"><ele>838.8000000000001</ele><time>2026-04-24T12:22:35.938Z</time></trkpt><trkpt lat="43.5775573" lon="12.2179556"><ele>832.2</ele><time>2026-04-24T12:22:36.937Z</time></trkpt><trkpt lat="43.5775505" lon="12.2178071"><ele>825.6</ele><time>2026-04-24T12:22:37.938Z</time></trkpt><trkpt lat="43.5775744" lon="12.2176234"><ele>819.0</ele><time>2026-04-24T12:22:38.938Z</time></trkpt><trkpt lat="43.5775992" lon="12.2174162"><ele>825.0</ele><time>2026-04-24T12:22:39.937Z</time></trkpt><trkpt lat="43.5775994" lon="12.2171839"><ele>831.0</ele><time>2026-04-24T12:22:40.938Z</time></trkpt><trkpt lat="43.5775434" lon="12.2169606"><ele>837.0</ele><time>2026-04-24T12:22:41.937Z</time></trkpt><trkpt lat="43.5774197" lon="12.2167823"><ele>837.0</ele><time>2026-04-24T12:22:42.938Z</time></trkpt><trkpt lat="43.5772569" lon="12.2166418"><ele>837.0</ele><time>2026-04-24T12:22:43.937Z</time></trkpt><trkpt lat="43.5770897" lon="12.2164907"><ele>837.0</ele><time>2026-04-24T12:22:44.937Z</time></trkpt><trkpt lat="43.5769375" lon="12.2163023"><ele>835.6666666666667</ele><time>2026-04-24T12:22:45.937Z</time></trkpt><trkpt lat="43.5768102" lon="12.2160764"><ele>834.3333333333334</ele><time>2026-04-24T12:22:46.938Z</time></trkpt><trkpt lat="43.5767253" lon="12.2158319"><ele>833.0</ele><time>2026-04-24T12:22:47.937Z</time></trkpt><trkpt lat="43.5766905" lon="12.2155916"><ele>833.0</ele><time>2026-04-24T12:22:48.937Z</time></trkpt><trkpt lat="43.5766658" lon="12.2153685"><ele>833.0</ele><time>2026-04-24T12:22:49.937Z</time></trkpt><trkpt lat="43.5765997" lon="12.2151773"><ele>833.0</ele><time>2026-04-24T12:22:50.937Z</time></trkpt><trkpt lat="43.5764843" lon="12.2150231"><ele>833.0</ele><time>2026-04-24T12:22:51.939Z</time></trkpt><trkpt lat="43.5763111" lon="12.2149197"><ele>833.0</ele><time>2026-04-24T12:22:52.938Z</time></trkpt><trkpt lat="43.5761159" lon="12.2148211"><ele>833.0</ele><time>2026-04-24T12:22:53.937Z</time></trkpt><trkpt lat="43.5759042" lon="12.2147162"><ele>834.5</ele><time>2026-04-24T12:22:54.937Z</time></trkpt><trkpt lat="43.575688" lon="12.2146076"><ele>836.0</ele><time>2026-04-24T12:22:55.938Z</time></trkpt><trkpt lat="43.5754779" lon="12.2144975"><ele>831.6666666666667</ele><time>2026-04-24T12:22:56.937Z</time></trkpt><trkpt lat="43.57528" lon="12.2144"><ele>827.3333333333333</ele><time>2026-04-24T12:22:57.938Z</time></trkpt><trkpt lat="43.5750844" lon="12.2143356"><ele>823.0</ele><time>2026-04-24T12:22:58.938Z</time></trkpt><trkpt lat="43.5748778" lon="12.2143372"><ele>823.0</ele><time>2026-04-24T12:22:59.937Z</time></trkpt><trkpt lat="43.5746709" lon="12.2144016"><ele>823.0</ele><time>2026-04-24T12:23:00.937Z</time></trkpt><trkpt lat="43.5744773" lon="12.2144878"><ele>823.0</ele><time>2026-04-24T12:23:01.938Z</time></trkpt><trkpt lat="43.5742942" lon="12.2145623"><ele>819.6666666666666</ele><time>2026-04-24T12:23:02.937Z</time></trkpt><trkpt lat="43.5741238" lon="12.2146002"><ele>816.3333333333333</ele><time>2026-04-24T12:23:03.937Z</time></trkpt><trkpt lat="43.5739573" lon="12.2145577"><ele>813.0</ele><time>2026-04-24T12:23:04.937Z</time></trkpt><trkpt lat="43.5737992" lon="12.2144385"><ele>808.0</ele><time>2026-04-24T12:23:05.937Z</time></trkpt><trkpt lat="43.5736606" lon="12.2142744"><ele>803.0</ele><time>2026-04-24T12:23:06.937Z</time></trkpt><trkpt lat="43.5735696" lon="12.2140534"><ele>798.0</ele><time>2026-04-24T12:23:07.939Z</time></trkpt><trkpt lat="43.573536" lon="12.2137912"><ele>798.3333333333333</ele><time>2026-04-24T12:23:08.938Z</time></trkpt><trkpt lat="43.5735291" lon="12.2134973"><ele>798.6666666666666</ele><time>2026-04-24T12:23:09.938Z</time></trkpt><trkpt lat="43.5735226" lon="12.2131954"><ele>799.0</ele><time>2026-04-24T12:23:10.937Z</time></trkpt><trkpt lat="43.5734923" lon="12.212888"><ele>799.0</ele><time>2026-04-24T12:23:11.937Z</time></trkpt><trkpt lat="43.5734322" lon="12.2125813"><ele>799.0</ele><time>2026-04-24T12:23:12.937Z</time></trkpt><trkpt lat="43.5733269" lon="12.2122803"><ele>805.0</ele><time>2026-04-24T12:23:13.938Z</time></trkpt><trkpt lat="43.5731749" lon="12.2119994"><ele>811.0</ele><time>2026-04-24T12:23:14.937Z</time></trkpt><trkpt lat="43.5730047" lon="12.2117373"><ele>804.0</ele><time>2026-04-24T12:23:15.938Z</time></trkpt><trkpt lat="43.5728441" lon="12.2114865"><ele>797.0</ele><time>2026-04-24T12:23:16.937Z</time></trkpt><trkpt lat="43.5726996" lon="12.2112466"><ele>797.0</ele><time>2026-04-24T12:23:17.938Z</time></trkpt><trkpt lat="43.5725683" lon="12.2110164"><ele>797.0</ele><time>2026-04-24T12:23:18.937Z</time></trkpt><trkpt lat="43.5724702" lon="12.2108173"><ele>797.0</ele><time>2026-04-24T12:23:19.937Z</time></trkpt><trkpt lat="43.5723408" lon="12.2106572"><ele>800.6666666666667</ele><time>2026-04-24T12:23:20.938Z</time></trkpt><trkpt lat="43.5721723" lon="12.2105505"><ele>804.3333333333333</ele><time>2026-04-24T12:23:21.938Z</time></trkpt><trkpt lat="43.5719814" lon="12.2104873"><ele>808.0</ele><time>2026-04-24T12:23:22.938Z</time></trkpt><trkpt lat="43.5717796" lon="12.2104364"><ele>808.0</ele><time>2026-04-24T12:23:23.937Z</time></trkpt><trkpt lat="43.5715723" lon="12.2104144"><ele>808.0</ele><time>2026-04-24T12:23:24.938Z</time></trkpt><trkpt lat="43.5713631" lon="12.2104472"><ele>808.0</ele><time>2026-04-24T12:23:25.937Z</time></trkpt><trkpt lat="43.5711585" lon="12.2105218"><ele>808.0</ele><time>2026-04-24T12:23:26.937Z</time></trkpt><trkpt lat="43.5709471" lon="12.2105768"><ele>808.0</ele><time>2026-04-24T12:23:27.937Z</time></trkpt><trkpt lat="43.5707223" lon="12.210594"><ele>808.0</ele><time>2026-04-24T12:23:28.937Z</time></trkpt><trkpt lat="43.570494" lon="12.2105661"><ele>806.6666666666666</ele><time>2026-04-24T12:23:29.937Z</time></trkpt><trkpt lat="43.5702702" lon="12.2105208"><ele>805.3333333333333</ele><time>2026-04-24T12:23:30.938Z</time></trkpt><trkpt lat="43.5700627" lon="12.2104962"><ele>804.0</ele><time>2026-04-24T12:23:31.937Z</time></trkpt><trkpt lat="43.5698682" lon="12.2105146"><ele>804.0</ele><time>2026-04-24T12:23:32.937Z</time></trkpt><trkpt lat="43.5696906" lon="12.2106009"><ele>804.0</ele><time>2026-04-24T12:23:33.937Z</time></trkpt><trkpt lat="43.5695238" lon="12.2107144"><ele>804.0</ele><time>2026-04-24T12:23:34.937Z</time></trkpt><trkpt lat="43.5693816" lon="12.2108718"><ele>794.6666666666667</ele><time>2026-04-24T12:23:35.938Z</time></trkpt><trkpt lat="43.5692367" lon="12.2110009"><ele>785.3333333333334</ele><time>2026-04-24T12:23:36.937Z</time></trkpt><trkpt lat="43.569076" lon="12.2110839"><ele>776.0</ele><time>2026-04-24T12:23:37.937Z</time></trkpt><trkpt lat="43.568898" lon="12.2111181"><ele>776.0</ele><time>2026-04-24T12:23:38.937Z</time></trkpt><trkpt lat="43.5687053" lon="12.2110839"><ele>776.0</ele><time>2026-04-24T12:23:39.937Z</time></trkpt><trkpt lat="43.5685195" lon="12.2109863"><ele>776.0</ele><time>2026-04-24T12:23:40.938Z</time></trkpt><trkpt lat="43.5683334" lon="12.2108384"><ele>779.0</ele><time>2026-04-24T12:23:41.936Z</time></trkpt><trkpt lat="43.5681457" lon="12.210658"><ele>782.0</ele><time>2026-04-24T12:23:42.937Z</time></trkpt><trkpt lat="43.5679673" lon="12.21047"><ele>773.6666666666667</ele><time>2026-04-24T12:23:43.937Z</time></trkpt><trkpt lat="43.5677941" lon="12.2102787"><ele>765.3333333333334</ele><time>2026-04-24T12:23:44.938Z</time></trkpt><trkpt lat="43.5676641" lon="12.2100875"><ele>757.0</ele><time>2026-04-24T12:23:45.937Z</time></trkpt><trkpt lat="43.5675616" lon="12.2099031"><ele>760.0</ele><time>2026-04-24T12:23:46.937Z</time></trkpt><trkpt lat="43.5675058" lon="12.2096833"><ele>763.0</ele><time>2026-04-24T12:23:47.937Z</time></trkpt><trkpt lat="43.5674862" lon="12.2094739"><ele>766.0</ele><time>2026-04-24T12:23:48.938Z</time></trkpt><trkpt lat="43.5674416" lon="12.2092913"><ele>766.0</ele><time>2026-04-24T12:23:49.937Z</time></trkpt><trkpt lat="43.5673621" lon="12.2091439"><ele>766.0</ele><time>2026-04-24T12:23:50.937Z</time></trkpt><trkpt lat="43.5672279" lon="12.2090418"><ele>766.0</ele><time>2026-04-24T12:23:51.937Z</time></trkpt><trkpt lat="43.5670549" lon="12.2089536"><ele>763.3333333333334</ele><time>2026-04-24T12:23:52.937Z</time></trkpt><trkpt lat="43.5668664" lon="12.2088623"><ele>760.6666666666666</ele><time>2026-04-24T12:23:53.937Z</time></trkpt><trkpt lat="43.5666683" lon="12.2087676"><ele>758.0</ele><time>2026-04-24T12:23:54.937Z</time></trkpt><trkpt lat="43.5664797" lon="12.2086787"><ele>758.0</ele><time>2026-04-24T12:23:55.938Z</time></trkpt><trkpt lat="43.566306" lon="12.2085987"><ele>758.0</ele><time>2026-04-24T12:23:56.937Z</time></trkpt><trkpt lat="43.5661533" lon="12.2085313"><ele>758.0</ele><time>2026-04-24T12:23:57.938Z</time></trkpt><trkpt lat="43.566012" lon="12.2085256"><ele>756.0</ele><time>2026-04-24T12:23:58.937Z</time></trkpt><trkpt lat="43.5658724" lon="12.2086084"><ele>754.0</ele><time>2026-04-24T12:23:59.938Z</time></trkpt><trkpt lat="43.5657414" lon="12.2087623"><ele>752.0</ele><time>2026-04-24T12:24:00.937Z</time></trkpt><trkpt lat="43.5655988" lon="12.2089366"><ele>753.0</ele><time>2026-04-24T12:24:01.937Z</time></trkpt><trkpt lat="43.5654351" lon="12.2091188"><ele>754.0</ele><time>2026-04-24T12:24:02.937Z</time></trkpt><trkpt lat="43.5652519" lon="12.2092887"><ele>755.0</ele><time>2026-04-24T12:24:03.937Z</time></trkpt><trkpt lat="43.5650491" lon="12.209435"><ele>755.0</ele><time>2026-04-24T12:24:04.937Z</time></trkpt><trkpt lat="43.5648384" lon="12.209571"><ele>755.0</ele><time>2026-04-24T12:24:05.937Z</time></trkpt><trkpt lat="43.5646261" lon="12.2097081"><ele>749.5</ele><time>2026-04-24T12:24:06.937Z</time></trkpt><trkpt lat="43.5644179" lon="12.209878"><ele>744.0</ele><time>2026-04-24T12:24:07.937Z</time></trkpt><trkpt lat="43.5642258" lon="12.210071"><ele>744.0</ele><time>2026-04-24T12:24:08.938Z</time></trkpt><trkpt lat="43.5640321" lon="12.2102467"><ele>744.0</ele><time>2026-04-24T12:24:09.937Z</time></trkpt><trkpt lat="43.5638371" lon="12.2103867"><ele>743.6666666666666</ele><time>2026-04-24T12:24:10.937Z</time></trkpt><trkpt lat="43.5636473" lon="12.2104938"><ele>743.3333333333333</ele><time>2026-04-24T12:24:11.939Z</time></trkpt><trkpt lat="43.5634706" lon="12.2105718"><ele>743.0</ele><time>2026-04-24T12:24:12.938Z</time></trkpt><trkpt lat="43.5633075" lon="12.2106103"><ele>743.0</ele><time>2026-04-24T12:24:13.938Z</time></trkpt><trkpt lat="43.5631475" lon="12.210572"><ele>743.0</ele><time>2026-04-24T12:24:14.937Z</time></trkpt><trkpt lat="43.5629994" lon="12.2104508"><ele>743.0</ele><time>2026-04-24T12:24:15.937Z</time></trkpt><trkpt lat="43.5628573" lon="12.2102666"><ele>736.3333333333333</ele><time>2026-04-24T12:24:16.938Z</time></trkpt><trkpt lat="43.562742" lon="12.2100369"><ele>729.6666666666666</ele><time>2026-04-24T12:24:17.937Z</time></trkpt><trkpt lat="43.5626599" lon="12.2097645"><ele>723.0</ele><time>2026-04-24T12:24:18.937Z</time></trkpt><trkpt lat="43.562588" lon="12.2094731"><ele>723.0</ele><time>2026-04-24T12:24:19.938Z</time></trkpt><trkpt lat="43.5625176" lon="12.2091681"><ele>723.0</ele><time>2026-04-24T12:24:20.938Z</time></trkpt><trkpt lat="43.5624449" lon="12.2088559"><ele>725.5</ele><time>2026-04-24T12:24:21.937Z</time></trkpt><trkpt lat="43.5623751" lon="12.2085325"><ele>728.0</ele><time>2026-04-24T12:24:22.938Z</time></trkpt><trkpt lat="43.5623017" lon="12.2082044"><ele>728.5</ele><time>2026-04-24T12:24:23.937Z</time></trkpt><trkpt lat="43.5622255" lon="12.2078705"><ele>729.0</ele><time>2026-04-24T12:24:24.938Z</time></trkpt><trkpt lat="43.5621484" lon="12.207535"><ele>726.0</ele><time>2026-04-24T12:24:25.937Z</time></trkpt><trkpt lat="43.5620841" lon="12.2072011"><ele>723.0</ele><time>2026-04-24T12:24:26.938Z</time></trkpt><trkpt lat="43.5620354" lon="12.2068659"><ele>713.0</ele><time>2026-04-24T12:24:27.937Z</time></trkpt><trkpt lat="43.5619982" lon="12.2065228"><ele>703.0</ele><time>2026-04-24T12:24:28.937Z</time></trkpt><trkpt lat="43.5619809" lon="12.2061847"><ele>703.0</ele><time>2026-04-24T12:24:29.936Z</time></trkpt><trkpt lat="43.5619691" lon="12.205839"><ele>703.0</ele><time>2026-04-24T12:24:30.937Z</time></trkpt><trkpt lat="43.5619547" lon="12.2055032"><ele>703.0</ele><time>2026-04-24T12:24:31.937Z</time></trkpt><trkpt lat="43.5619396" lon="12.2051787"><ele>703.0</ele><time>2026-04-24T12:24:32.937Z</time></trkpt><trkpt lat="43.5619306" lon="12.2048824"><ele>701.3333333333334</ele><time>2026-04-24T12:24:33.937Z</time></trkpt><trkpt lat="43.5619197" lon="12.2046058"><ele>699.6666666666666</ele><time>2026-04-24T12:24:34.936Z</time></trkpt><trkpt lat="43.5619097" lon="12.2043579"><ele>698.0</ele><time>2026-04-24T12:24:35.937Z</time></trkpt><trkpt lat="43.5618979" lon="12.2041632"><ele>696.5</ele><time>2026-04-24T12:24:36.937Z</time></trkpt><trkpt lat="43.5618554" lon="12.2039766"><ele>695.0</ele><time>2026-04-24T12:24:37.937Z</time></trkpt><trkpt lat="43.5617592" lon="12.2038294"><ele>693.5</ele><time>2026-04-24T12:24:38.936Z</time></trkpt><trkpt lat="43.5616177" lon="12.2037161"><ele>692.0</ele><time>2026-04-24T12:24:39.937Z</time></trkpt><trkpt lat="43.5614545" lon="12.2036217"><ele>692.0</ele><time>2026-04-24T12:24:40.937Z</time></trkpt><trkpt lat="43.5612702" lon="12.2035206"><ele>692.0</ele><time>2026-04-24T12:24:41.937Z</time></trkpt><trkpt lat="43.5610728" lon="12.2034131"><ele>692.0</ele><time>2026-04-24T12:24:42.937Z</time></trkpt><trkpt lat="43.5608675" lon="12.2033019"><ele>691.3333333333333</ele><time>2026-04-24T12:24:43.937Z</time></trkpt><trkpt lat="43.5606575" lon="12.2031978"><ele>690.6666666666666</ele><time>2026-04-24T12:24:44.938Z</time></trkpt><trkpt lat="43.5604432" lon="12.203121"><ele>690.0</ele><time>2026-04-24T12:24:45.938Z</time></trkpt><trkpt lat="43.560217" lon="12.2030928"><ele>692.5</ele><time>2026-04-24T12:24:46.937Z</time></trkpt><trkpt lat="43.5599903" lon="12.2031048"><ele>695.0</ele><time>2026-04-24T12:24:47.937Z</time></trkpt><trkpt lat="43.5597606" lon="12.2031417"><ele>692.6666666666666</ele><time>2026-04-24T12:24:48.937Z</time></trkpt><trkpt lat="43.5595386" lon="12.20318"><ele>690.3333333333334</ele><time>2026-04-24T12:24:49.937Z</time></trkpt><trkpt lat="43.559324" lon="12.2032141"><ele>688.0</ele><time>2026-04-24T12:24:50.937Z</time></trkpt><trkpt lat="43.5591454" lon="12.2032284"><ele>686.3333333333334</ele><time>2026-04-24T12:24:51.938Z</time></trkpt><trkpt lat="43.5589767" lon="12.2032101"><ele>684.6666666666666</ele><time>2026-04-24T12:24:52.937Z</time></trkpt><trkpt lat="43.5588313" lon="12.2031381"><ele>683.0</ele><time>2026-04-24T12:24:53.937Z</time></trkpt><trkpt lat="43.5587117" lon="12.2030202"><ele>680.0</ele><time>2026-04-24T12:24:54.937Z</time></trkpt><trkpt lat="43.5586294" lon="12.2028388"><ele>677.0</ele><time>2026-04-24T12:24:55.938Z</time></trkpt><trkpt lat="43.5586515" lon="12.202534"><ele>674.0</ele><time>2026-04-24T12:24:56.937Z</time></trkpt><trkpt lat="43.5586436" lon="12.2022406"><ele>674.0</ele><time>2026-04-24T12:24:57.937Z</time></trkpt><trkpt lat="43.5586278" lon="12.2019502"><ele>674.0</ele><time>2026-04-24T12:24:58.938Z</time></trkpt><trkpt lat="43.5585899" lon="12.2016782"><ele>674.0</ele><time>2026-04-24T12:24:59.937Z</time></trkpt><trkpt lat="43.5585157" lon="12.2014254"><ele>677.0</ele><time>2026-04-24T12:25:00.937Z</time></trkpt><trkpt lat="43.5584008" lon="12.2011975"><ele>680.0</ele><time>2026-04-24T12:25:01.937Z</time></trkpt><trkpt lat="43.5582647" lon="12.2009864"><ele>683.0</ele><time>2026-04-24T12:25:02.936Z</time></trkpt><trkpt lat="43.5580494" lon="12.2008334"><ele>677.5</ele><time>2026-04-24T12:25:03.937Z</time></trkpt><trkpt lat="43.5578609" lon="12.2006338"><ele>672.0</ele><time>2026-04-24T12:25:04.937Z</time></trkpt><trkpt lat="43.5576929" lon="12.2004299"><ele>672.0</ele><time>2026-04-24T12:25:05.936Z</time></trkpt><trkpt lat="43.5575103" lon="12.2002418"><ele>672.0</ele><time>2026-04-24T12:25:06.937Z</time></trkpt><trkpt lat="43.5573025" lon="12.2000836"><ele>672.0</ele><time>2026-04-24T12:25:07.937Z</time></trkpt><trkpt lat="43.5570653" lon="12.1999618"><ele>672.0</ele><time>2026-04-24T12:25:08.938Z</time></trkpt><trkpt lat="43.5568132" lon="12.1998795"><ele>677.5</ele><time>2026-04-24T12:25:09.937Z</time></trkpt><trkpt lat="43.5565473" lon="12.1998201"><ele>683.0</ele><time>2026-04-24T12:25:10.937Z</time></trkpt><trkpt lat="43.5562672" lon="12.1997679"><ele>684.5</ele><time>2026-04-24T12:25:11.937Z</time></trkpt><trkpt lat="43.5559883" lon="12.1997157"><ele>686.0</ele><time>2026-04-24T12:25:12.937Z</time></trkpt><trkpt lat="43.5557123" lon="12.1996552"><ele>686.0</ele><time>2026-04-24T12:25:13.938Z</time></trkpt><trkpt lat="43.5554477" lon="12.1995989"><ele>686.0</ele><time>2026-04-24T12:25:14.938Z</time></trkpt><trkpt lat="43.5551866" lon="12.1995771"><ele>683.0</ele><time>2026-04-24T12:25:15.936Z</time></trkpt><trkpt lat="43.5549192" lon="12.1995847"><ele>680.0</ele><time>2026-04-24T12:25:16.938Z</time></trkpt><trkpt lat="43.5546539" lon="12.1995965"><ele>675.5</ele><time>2026-04-24T12:25:17.937Z</time></trkpt><trkpt lat="43.5543997" lon="12.1995885"><ele>671.0</ele><time>2026-04-24T12:25:18.938Z</time></trkpt><trkpt lat="43.554157" lon="12.1995639"><ele>671.0</ele><time>2026-04-24T12:25:19.937Z</time></trkpt><trkpt lat="43.5539185" lon="12.199543"><ele>671.0</ele><time>2026-04-24T12:25:20.936Z</time></trkpt><trkpt lat="43.5536881" lon="12.199537"><ele>666.0</ele><time>2026-04-24T12:25:21.938Z</time></trkpt><trkpt lat="43.5534683" lon="12.1995342"><ele>661.0</ele><time>2026-04-24T12:25:22.937Z</time></trkpt><trkpt lat="43.5532714" lon="12.1995232"><ele>656.0</ele><time>2026-04-24T12:25:23.936Z</time></trkpt><trkpt lat="43.5530957" lon="12.1994836"><ele>656.0</ele><time>2026-04-24T12:25:24.937Z</time></trkpt><trkpt lat="43.5529416" lon="12.1993611"><ele>656.0</ele><time>2026-04-24T12:25:25.938Z</time></trkpt><trkpt lat="43.5528265" lon="12.199181"><ele>656.0</ele><time>2026-04-24T12:25:26.937Z</time></trkpt><trkpt lat="43.5527601" lon="12.1989481"><ele>644.3333333333333</ele><time>2026-04-24T12:25:27.937Z</time></trkpt><trkpt lat="43.5527466" lon="12.1986817"><ele>632.6666666666666</ele><time>2026-04-24T12:25:28.936Z</time></trkpt><trkpt lat="43.5527586" lon="12.1984003"><ele>621.0</ele><time>2026-04-24T12:25:29.938Z</time></trkpt><trkpt lat="43.5527873" lon="12.1981248"><ele>617.3333333333334</ele><time>2026-04-24T12:25:30.938Z</time></trkpt><trkpt lat="43.5528431" lon="12.1978853"><ele>613.6666666666667</ele><time>2026-04-24T12:25:31.937Z</time></trkpt><trkpt lat="43.5529383" lon="12.197672"><ele>610.0</ele><time>2026-04-24T12:25:32.936Z</time></trkpt><trkpt lat="43.5530781" lon="12.1974955"><ele>611.5</ele><time>2026-04-24T12:25:33.938Z</time></trkpt><trkpt lat="43.5533153" lon="12.1973973"><ele>613.0</ele><time>2026-04-24T12:25:34.937Z</time></trkpt><trkpt lat="43.55351" lon="12.1972246"><ele>613.0</ele><time>2026-04-24T12:25:35.937Z</time></trkpt><trkpt lat="43.5536956" lon="12.1970163"><ele>613.0</ele><time>2026-04-24T12:25:36.937Z</time></trkpt><trkpt lat="43.5538568" lon="12.1967939"><ele>612.0</ele><time>2026-04-24T12:25:37.937Z</time></trkpt><trkpt lat="43.5540107" lon="12.19657"><ele>611.0</ele><time>2026-04-24T12:25:38.937Z</time></trkpt><trkpt lat="43.5541838" lon="12.1963703"><ele>610.0</ele><time>2026-04-24T12:25:39.937Z</time></trkpt><trkpt lat="43.5543689" lon="12.1961884"><ele>617.0</ele><time>2026-04-24T12:25:40.937Z</time></trkpt><trkpt lat="43.5545784" lon="12.1960165"><ele>624.0</ele><time>2026-04-24T12:25:41.937Z</time></trkpt><trkpt lat="43.5547957" lon="12.1958421"><ele>624.0</ele><time>2026-04-24T12:25:42.937Z</time></trkpt><trkpt lat="43.5550209" lon="12.1956708"><ele>624.0</ele><time>2026-04-24T12:25:43.936Z</time></trkpt><trkpt lat="43.5552399" lon="12.1955071"><ele>617.0</ele><time>2026-04-24T12:25:44.937Z</time></trkpt><trkpt lat="43.5554709" lon="12.1953722"><ele>610.0</ele><time>2026-04-24T12:25:45.937Z</time></trkpt><trkpt lat="43.5556993" lon="12.1952386"><ele>610.0</ele><time>2026-04-24T12:25:46.937Z</time></trkpt><trkpt lat="43.5559284" lon="12.1951289"><ele>610.0</ele><time>2026-04-24T12:25:47.937Z</time></trkpt><trkpt lat="43.5561548" lon="12.1950247"><ele>611.5</ele><time>2026-04-24T12:25:48.937Z</time></trkpt><trkpt lat="43.5563778" lon="12.1949272"><ele>613.0</ele><time>2026-04-24T12:25:49.937Z</time></trkpt><trkpt lat="43.5565948" lon="12.1948472"><ele>604.6666666666667</ele><time>2026-04-24T12:25:50.937Z</time></trkpt><trkpt lat="43.556811" lon="12.1948229"><ele>596.3333333333334</ele><time>2026-04-24T12:25:51.937Z</time></trkpt><trkpt lat="43.5570289" lon="12.194813"><ele>588.0</ele><time>2026-04-24T12:25:52.938Z</time></trkpt><trkpt lat="43.5572294" lon="12.194822"><ele>595.0</ele><time>2026-04-24T12:25:53.937Z</time></trkpt><trkpt lat="43.5574203" lon="12.1948397"><ele>602.0</ele><time>2026-04-24T12:25:54.937Z</time></trkpt><trkpt lat="43.5575874" lon="12.1948724"><ele>609.0</ele><time>2026-04-24T12:25:55.937Z</time></trkpt><trkpt lat="43.557719" lon="12.1948913"><ele>609.0</ele><time>2026-04-24T12:25:56.937Z</time></trkpt><trkpt lat="43.5578269" lon="12.1948794"><ele>609.0</ele><time>2026-04-24T12:25:57.937Z</time></trkpt><trkpt lat="43.5579142" lon="12.1948246"><ele>609.0</ele><time>2026-04-24T12:25:58.937Z</time></trkpt><trkpt lat="43.5579346" lon="12.1947086"><ele>609.0</ele><time>2026-04-24T12:25:59.938Z</time></trkpt><trkpt lat="43.5579072" lon="12.194597"><ele>609.0</ele><time>2026-04-24T12:26:00.938Z</time></trkpt><trkpt lat="43.5578163" lon="12.1945125"><ele>602.0</ele><time>2026-04-24T12:26:01.937Z</time></trkpt><trkpt lat="43.557669" lon="12.1944674"><ele>595.0</ele><time>2026-04-24T12:26:02.936Z</time></trkpt><trkpt lat="43.5574899" lon="12.1944351"><ele>588.0</ele><time>2026-04-24T12:26:03.937Z</time></trkpt><trkpt lat="43.5572879" lon="12.194405"><ele>588.0</ele><time>2026-04-24T12:26:04.938Z</time></trkpt><trkpt lat="43.557062" lon="12.1943844"><ele>588.0</ele><time>2026-04-24T12:26:05.937Z</time></trkpt><trkpt lat="43.5568331" lon="12.1943663"><ele>587.5</ele><time>2026-04-24T12:26:06.937Z</time></trkpt><trkpt lat="43.5565782" lon="12.194351"><ele>587.0</ele><time>2026-04-24T12:26:07.937Z</time></trkpt><trkpt lat="43.5563333" lon="12.1943441"><ele>582.5</ele><time>2026-04-24T12:26:08.937Z</time></trkpt><trkpt lat="43.5560705" lon="12.1943588"><ele>578.0</ele><time>2026-04-24T12:26:09.937Z</time></trkpt><trkpt lat="43.5558206" lon="12.1943867"><ele>578.0</ele><time>2026-04-24T12:26:10.938Z</time></trkpt><trkpt lat="43.555575" lon="12.1944039"><ele>578.0</ele><time>2026-04-24T12:26:11.938Z</time></trkpt><trkpt lat="43.5553374" lon="12.1944217"><ele>575.0</ele><time>2026-04-24T12:26:12.937Z</time></trkpt><trkpt lat="43.5551013" lon="12.1944516"><ele>572.0</ele><time>2026-04-24T12:26:13.936Z</time></trkpt><trkpt lat="43.5548696" lon="12.1945044"><ele>572.0</ele><time>2026-04-24T12:26:14.937Z</time></trkpt><trkpt lat="43.5546513" lon="12.1945925"><ele>572.0</ele><time>2026-04-24T12:26:15.937Z</time></trkpt><trkpt lat="43.5544342" lon="12.1947132"><ele>577.0</ele><time>2026-04-24T12:26:16.937Z</time></trkpt><trkpt lat="43.5542073" lon="12.1948086"><ele>582.0</ele><time>2026-04-24T12:26:17.938Z</time></trkpt><trkpt lat="43.5539762" lon="12.1948908"><ele>582.0</ele><time>2026-04-24T12:26:18.938Z</time></trkpt><trkpt lat="43.5537474" lon="12.1949624"><ele>582.0</ele><time>2026-04-24T12:26:19.936Z</time></trkpt><trkpt lat="43.5535192" lon="12.1950177"><ele>577.0</ele><time>2026-04-24T12:26:20.937Z</time></trkpt><trkpt lat="43.553306" lon="12.1950601"><ele>572.0</ele><time>2026-04-24T12:26:21.936Z</time></trkpt><trkpt lat="43.5530898" lon="12.1951121"><ele>567.0</ele><time>2026-04-24T12:26:22.937Z</time></trkpt><trkpt lat="43.5528769" lon="12.1952031"><ele>560.5</ele><time>2026-04-24T12:26:23.936Z</time></trkpt><trkpt lat="43.5526727" lon="12.1953481"><ele>554.0</ele><time>2026-04-24T12:26:24.937Z</time></trkpt><trkpt lat="43.552465" lon="12.1954892"><ele>554.0</ele><time>2026-04-24T12:26:25.936Z</time></trkpt><trkpt lat="43.55225" lon="12.1956338"><ele>554.0</ele><time>2026-04-24T12:26:26.936Z</time></trkpt><trkpt lat="43.5520413" lon="12.1957757"><ele>553.3333333333333</ele><time>2026-04-24T12:26:27.936Z</time></trkpt><trkpt lat="43.55184" lon="12.1959211"><ele>552.6666666666666</ele><time>2026-04-24T12:26:28.936Z</time></trkpt><trkpt lat="43.5516581" lon="12.1960846"><ele>552.0</ele><time>2026-04-24T12:26:29.936Z</time></trkpt><trkpt lat="43.5514913" lon="12.1962664"><ele>552.0</ele><time>2026-04-24T12:26:30.937Z</time></trkpt><trkpt lat="43.5513559" lon="12.1964546"><ele>552.0</ele><time>2026-04-24T12:26:31.937Z</time></trkpt><trkpt lat="43.5512518" lon="12.1966715"><ele>552.0</ele><time>2026-04-24T12:26:32.937Z</time></trkpt><trkpt lat="43.5511819" lon="12.1969248"><ele>549.0</ele><time>2026-04-24T12:26:33.936Z</time></trkpt><trkpt lat="43.5511282" lon="12.1971811"><ele>546.0</ele><time>2026-04-24T12:26:34.938Z</time></trkpt><trkpt lat="43.5510755" lon="12.1974282"><ele>543.0</ele><time>2026-04-24T12:26:35.936Z</time></trkpt><trkpt lat="43.551019" lon="12.1976639"><ele>543.0</ele><time>2026-04-24T12:26:36.936Z</time></trkpt><trkpt lat="43.550927" lon="12.1978489"><ele>543.0</ele><time>2026-04-24T12:26:37.937Z</time></trkpt><trkpt lat="43.5508236" lon="12.1980134"><ele>543.0</ele><time>2026-04-24T12:26:38.937Z</time></trkpt><trkpt lat="43.5506614" lon="12.1981225"><ele>539.3333333333334</ele><time>2026-04-24T12:26:39.937Z</time></trkpt><trkpt lat="43.5505105" lon="12.198245"><ele>535.6666666666667</ele><time>2026-04-24T12:26:40.936Z</time></trkpt><trkpt lat="43.5503669" lon="12.1983662"><ele>532.0</ele><time>2026-04-24T12:26:41.936Z</time></trkpt><trkpt lat="43.5502396" lon="12.1984984"><ele>532.0</ele><time>2026-04-24T12:26:42.937Z</time></trkpt><trkpt lat="43.5501292" lon="12.1986751"><ele>532.0</ele><time>2026-04-24T12:26:43.936Z</time></trkpt><trkpt lat="43.550083" lon="12.1989028"><ele>532.0</ele><time>2026-04-24T12:26:44.937Z</time></trkpt><trkpt lat="43.5500552" lon="12.1991266"><ele>533.0</ele><time>2026-04-24T12:26:45.937Z</time></trkpt><trkpt lat="43.5501028" lon="12.1993505"><ele>534.0</ele><time>2026-04-24T12:26:46.936Z</time></trkpt><trkpt lat="43.5501834" lon="12.1995871"><ele>535.0</ele><time>2026-04-24T12:26:47.936Z</time></trkpt><trkpt lat="43.5502704" lon="12.1998201"><ele>541.3333333333334</ele><time>2026-04-24T12:26:48.937Z</time></trkpt><trkpt lat="43.5504047" lon="12.2000475"><ele>547.6666666666666</ele><time>2026-04-24T12:26:49.937Z</time></trkpt><trkpt lat="43.5505348" lon="12.2002672"><ele>554.0</ele><time>2026-04-24T12:26:50.938Z</time></trkpt><trkpt lat="43.5506605" lon="12.200477"><ele>548.0</ele><time>2026-04-24T12:26:51.936Z</time></trkpt><trkpt lat="43.5507808" lon="12.2006716"><ele>542.0</ele><time>2026-04-24T12:26:52.936Z</time></trkpt><trkpt lat="43.5508738" lon="12.2008347"><ele>536.0</ele><time>2026-04-24T12:26:53.937Z</time></trkpt><trkpt lat="43.5509385" lon="12.2009776"><ele>536.0</ele><time>2026-04-24T12:26:54.937Z</time></trkpt><trkpt lat="43.5509725" lon="12.2010973"><ele>536.0</ele><time>2026-04-24T12:26:55.937Z</time></trkpt><trkpt lat="43.5509573" lon="12.2011817"><ele>536.0</ele><time>2026-04-24T12:26:56.937Z</time></trkpt><trkpt lat="43.5508202" lon="12.2011593"><ele>536.0</ele><time>2026-04-24T12:26:58.936Z</time></trkpt><trkpt lat="43.5507341" lon="12.2010497"><ele>536.0</ele><time>2026-04-24T12:26:59.937Z</time></trkpt><trkpt lat="43.5506213" lon="12.2008848"><ele>536.0</ele><time>2026-04-24T12:27:00.937Z</time></trkpt><trkpt lat="43.5504797" lon="12.2006928"><ele>536.0</ele><time>2026-04-24T12:27:01.937Z</time></trkpt><trkpt lat="43.5503178" lon="12.2004807"><ele>536.0</ele><time>2026-04-24T12:27:02.937Z</time></trkpt><trkpt lat="43.5501423" lon="12.2002479"><ele>535.5</ele><time>2026-04-24T12:27:03.936Z</time></trkpt><trkpt lat="43.5499622" lon="12.2000052"><ele>535.0</ele><time>2026-04-24T12:27:04.936Z</time></trkpt><trkpt lat="43.5497875" lon="12.1997518"><ele>535.0</ele><time>2026-04-24T12:27:05.936Z</time></trkpt><trkpt lat="43.5496323" lon="12.1994813"><ele>535.0</ele><time>2026-04-24T12:27:06.936Z</time></trkpt><trkpt lat="43.5495051" lon="12.1992116"><ele>525.0</ele><time>2026-04-24T12:27:07.938Z</time></trkpt><trkpt lat="43.5494097" lon="12.1989579"><ele>515.0</ele><time>2026-04-24T12:27:08.937Z</time></trkpt><trkpt lat="43.5493505" lon="12.198718"><ele>505.0</ele><time>2026-04-24T12:27:09.936Z</time></trkpt><trkpt lat="43.5493351" lon="12.198476"><ele>505.0</ele><time>2026-04-24T12:27:10.937Z</time></trkpt><trkpt lat="43.5493656" lon="12.1982414"><ele>505.0</ele><time>2026-04-24T12:27:11.936Z</time></trkpt><trkpt lat="43.5495171" lon="12.1980038"><ele>505.0</ele><time>2026-04-24T12:27:12.936Z</time></trkpt><trkpt lat="43.5496157" lon="12.1977591"><ele>506.6666666666667</ele><time>2026-04-24T12:27:13.938Z</time></trkpt><trkpt lat="43.5497185" lon="12.1975017"><ele>508.33333333333337</ele><time>2026-04-24T12:27:14.937Z</time></trkpt><trkpt lat="43.5497924" lon="12.1972151"><ele>510.0</ele><time>2026-04-24T12:27:15.937Z</time></trkpt><trkpt lat="43.5498029" lon="12.1968837"><ele>510.0</ele><time>2026-04-24T12:27:16.937Z</time></trkpt><trkpt lat="43.5498157" lon="12.1965538"><ele>510.0</ele><time>2026-04-24T12:27:17.937Z</time></trkpt><trkpt lat="43.549816" lon="12.1962256"><ele>507.33333333333337</ele><time>2026-04-24T12:27:18.936Z</time></trkpt><trkpt lat="43.5498178" lon="12.1959182"><ele>504.6666666666667</ele><time>2026-04-24T12:27:19.936Z</time></trkpt><trkpt lat="43.5498286" lon="12.1956346"><ele>502.0</ele><time>2026-04-24T12:27:20.937Z</time></trkpt><trkpt lat="43.5498755" lon="12.1953639"><ele>498.0</ele><time>2026-04-24T12:27:21.936Z</time></trkpt><trkpt lat="43.5499622" lon="12.195124"><ele>494.0</ele><time>2026-04-24T12:27:22.936Z</time></trkpt><trkpt lat="43.5500865" lon="12.1949014"><ele>490.0</ele><time>2026-04-24T12:27:23.937Z</time></trkpt><trkpt lat="43.5502397" lon="12.1947195"><ele>492.0</ele><time>2026-04-24T12:27:24.936Z</time></trkpt><trkpt lat="43.550399" lon="12.1945639"><ele>494.0</ele><time>2026-04-24T12:27:25.936Z</time></trkpt><trkpt lat="43.5505275" lon="12.1943892"><ele>496.0</ele><time>2026-04-24T12:27:26.936Z</time></trkpt><trkpt lat="43.550624" lon="12.1941965"><ele>493.6666666666667</ele><time>2026-04-24T12:27:27.937Z</time></trkpt><trkpt lat="43.5506968" lon="12.1939954"><ele>491.33333333333337</ele><time>2026-04-24T12:27:28.937Z</time></trkpt><trkpt lat="43.5506657" lon="12.1937794"><ele>489.0</ele><time>2026-04-24T12:27:29.936Z</time></trkpt><trkpt lat="43.5506746" lon="12.1935577"><ele>489.0</ele><time>2026-04-24T12:27:30.936Z</time></trkpt><trkpt lat="43.5507237" lon="12.1933211"><ele>489.0</ele><time>2026-04-24T12:27:31.937Z</time></trkpt><trkpt lat="43.5507919" lon="12.1930712"><ele>489.0</ele><time>2026-04-24T12:27:32.936Z</time></trkpt><trkpt lat="43.5508767" lon="12.1928096"><ele>485.66666666666663</ele><time>2026-04-24T12:27:33.936Z</time></trkpt><trkpt lat="43.5509708" lon="12.1925325"><ele>482.3333333333333</ele><time>2026-04-24T12:27:34.937Z</time></trkpt><trkpt lat="43.5510712" lon="12.1922695"><ele>479.0</ele><time>2026-04-24T12:27:35.936Z</time></trkpt><trkpt lat="43.5511926" lon="12.1920282"><ele>478.3333333333333</ele><time>2026-04-24T12:27:36.936Z</time></trkpt><trkpt lat="43.5513286" lon="12.1918052"><ele>477.66666666666663</ele><time>2026-04-24T12:27:37.937Z</time></trkpt><trkpt lat="43.5514901" lon="12.1916103"><ele>477.0</ele><time>2026-04-24T12:27:38.936Z</time></trkpt><trkpt lat="43.5516796" lon="12.191431"><ele>473.5</ele><time>2026-04-24T12:27:39.937Z</time></trkpt><trkpt lat="43.551884" lon="12.1912633"><ele>470.0</ele><time>2026-04-24T12:27:40.937Z</time></trkpt><trkpt lat="43.5520941" lon="12.1911019"><ele>462.0</ele><time>2026-04-24T12:27:41.938Z</time></trkpt><trkpt lat="43.5532352" lon="12.1902656"><ele>462.0</ele><time>2026-04-24T12:27:47.979Z</time></trkpt><trkpt lat="43.553508" lon="12.1900434"><ele>462.0</ele><time>2026-04-24T12:27:48.937Z</time></trkpt><trkpt lat="43.5536855" lon="12.1898572"><ele>459.33333333333337</ele><time>2026-04-24T12:27:49.936Z</time></trkpt><trkpt lat="43.553829" lon="12.1896482"><ele>456.6666666666667</ele><time>2026-04-24T12:27:50.936Z</time></trkpt><trkpt lat="43.5539457" lon="12.1895212"><ele>454.0</ele><time>2026-04-24T12:27:52.17Z</time></trkpt><trkpt lat="43.554344" lon="12.1892721"><ele>453.6666666666667</ele><time>2026-04-24T12:27:53.936Z</time></trkpt><trkpt lat="43.5545429" lon="12.1892186"><ele>453.33333333333337</ele><time>2026-04-24T12:27:54.937Z</time></trkpt><trkpt lat="43.5547545" lon="12.1891672"><ele>453.0</ele><time>2026-04-24T12:27:55.936Z</time></trkpt><trkpt lat="43.5549742" lon="12.1891141"><ele>453.0</ele><time>2026-04-24T12:27:56.937Z</time></trkpt><trkpt lat="43.5552015" lon="12.1890608"><ele>453.0</ele><time>2026-04-24T12:27:57.936Z</time></trkpt><trkpt lat="43.5554259" lon="12.1890062"><ele>450.33333333333337</ele><time>2026-04-24T12:27:58.936Z</time></trkpt><trkpt lat="43.5556427" lon="12.1889571"><ele>447.6666666666667</ele><time>2026-04-24T12:27:59.936Z</time></trkpt><trkpt lat="43.5558467" lon="12.1889145"><ele>445.0</ele><time>2026-04-24T12:28:00.936Z</time></trkpt><trkpt lat="43.5560319" lon="12.1888696"><ele>445.0</ele><time>2026-04-24T12:28:01.936Z</time></trkpt><trkpt lat="43.5561984" lon="12.1888176"><ele>445.0</ele><time>2026-04-24T12:28:02.936Z</time></trkpt><trkpt lat="43.5563427" lon="12.1887603"><ele>445.0</ele><time>2026-04-24T12:28:03.937Z</time></trkpt><trkpt lat="43.5564566" lon="12.1886831"><ele>445.0</ele><time>2026-04-24T12:28:04.936Z</time></trkpt><trkpt lat="43.5565326" lon="12.1885627"><ele>444.75</ele><time>2026-04-24T12:28:05.936Z</time></trkpt><trkpt lat="43.5565503" lon="12.1884045"><ele>444.5</ele><time>2026-04-24T12:28:06.936Z</time></trkpt><trkpt lat="43.5565035" lon="12.18825"><ele>444.25</ele><time>2026-04-24T12:28:07.936Z</time></trkpt><trkpt lat="43.556406" lon="12.1880936"><ele>444.0</ele><time>2026-04-24T12:28:08.936Z</time></trkpt><trkpt lat="43.5562845" lon="12.187925"><ele>441.0</ele><time>2026-04-24T12:28:09.936Z</time></trkpt><trkpt lat="43.5561597" lon="12.1877562"><ele>438.0</ele><time>2026-04-24T12:28:10.936Z</time></trkpt><trkpt lat="43.5560441" lon="12.1876089"><ele>435.0</ele><time>2026-04-24T12:28:11.936Z</time></trkpt><trkpt lat="43.5559328" lon="12.1875034"><ele>435.0</ele><time>2026-04-24T12:28:12.936Z</time></trkpt><trkpt lat="43.5558016" lon="12.1874675"><ele>435.0</ele><time>2026-04-24T12:28:13.936Z</time></trkpt><trkpt lat="43.5556506" lon="12.1874983"><ele>435.0</ele><time>2026-04-24T12:28:14.937Z</time></trkpt><trkpt lat="43.5554913" lon="12.1875562"><ele>433.33333333333337</ele><time>2026-04-24T12:28:15.936Z</time></trkpt><trkpt lat="43.5553278" lon="12.1876216"><ele>431.6666666666667</ele><time>2026-04-24T12:28:16.936Z</time></trkpt><trkpt lat="43.5551729" lon="12.1876744"><ele>430.0</ele><time>2026-04-24T12:28:17.936Z</time></trkpt><trkpt lat="43.5550345" lon="12.1876884"><ele>430.0</ele><time>2026-04-24T12:28:18.936Z</time></trkpt><trkpt lat="43.5549222" lon="12.1876585"><ele>430.0</ele><time>2026-04-24T12:28:19.936Z</time></trkpt><trkpt lat="43.5548454" lon="12.1875803"><ele>430.0</ele><time>2026-04-24T12:28:20.937Z</time></trkpt><trkpt lat="43.5548261" lon="12.1874638"><ele>430.0</ele><time>2026-04-24T12:28:21.936Z</time></trkpt><trkpt lat="43.5548671" lon="12.1873312"><ele>430.0</ele><time>2026-04-24T12:28:22.936Z</time></trkpt><trkpt lat="43.5549752" lon="12.1872065"><ele>428.33333333333337</ele><time>2026-04-24T12:28:23.936Z</time></trkpt><trkpt lat="43.5551203" lon="12.1870777"><ele>426.66666666666663</ele><time>2026-04-24T12:28:24.936Z</time></trkpt><trkpt lat="43.555277" lon="12.1869191"><ele>425.0</ele><time>2026-04-24T12:28:25.936Z</time></trkpt><trkpt lat="43.555432" lon="12.1867617"><ele>425.0</ele><time>2026-04-24T12:28:26.936Z</time></trkpt><trkpt lat="43.5555862" lon="12.1866146"><ele>425.0</ele><time>2026-04-24T12:28:27.938Z</time></trkpt><trkpt lat="43.5557405" lon="12.1864804"><ele>425.0</ele><time>2026-04-24T12:28:28.936Z</time></trkpt><trkpt lat="43.5558977" lon="12.1863695"><ele>422.0</ele><time>2026-04-24T12:28:29.936Z</time></trkpt><trkpt lat="43.5560546" lon="12.1862901"><ele>419.0</ele><time>2026-04-24T12:28:30.936Z</time></trkpt><trkpt lat="43.556204" lon="12.1862232"><ele>416.0</ele><time>2026-04-24T12:28:31.936Z</time></trkpt><trkpt lat="43.5563275" lon="12.1861479"><ele>415.5</ele><time>2026-04-24T12:28:32.937Z</time></trkpt><trkpt lat="43.5564126" lon="12.1860372"><ele>415.0</ele><time>2026-04-24T12:28:33.937Z</time></trkpt><trkpt lat="43.5564403" lon="12.1858968"><ele>414.5</ele><time>2026-04-24T12:28:34.937Z</time></trkpt><trkpt lat="43.5564046" lon="12.185753"><ele>414.0</ele><time>2026-04-24T12:28:35.936Z</time></trkpt><trkpt lat="43.5563086" lon="12.1856512"><ele>411.0</ele><time>2026-04-24T12:28:36.936Z</time></trkpt><trkpt lat="43.5561674" lon="12.185584"><ele>408.0</ele><time>2026-04-24T12:28:37.937Z</time></trkpt><trkpt lat="43.5559928" lon="12.1855153"><ele>405.0</ele><time>2026-04-24T12:28:38.936Z</time></trkpt><trkpt lat="43.5558066" lon="12.1854371"><ele>405.0</ele><time>2026-04-24T12:28:39.937Z</time></trkpt><trkpt lat="43.5556176" lon="12.1853631"><ele>405.0</ele><time>2026-04-24T12:28:40.936Z</time></trkpt><trkpt lat="43.5554186" lon="12.1852847"><ele>405.0</ele><time>2026-04-24T12:28:41.937Z</time></trkpt><trkpt lat="43.5552182" lon="12.1852062"><ele>405.0</ele><time>2026-04-24T12:28:42.936Z</time></trkpt><trkpt lat="43.5550285" lon="12.1851322"><ele>405.0</ele><time>2026-04-24T12:28:43.937Z</time></trkpt><trkpt lat="43.5548417" lon="12.1850751"><ele>405.0</ele><time>2026-04-24T12:28:44.936Z</time></trkpt><trkpt lat="43.5546432" lon="12.1850562"><ele>402.66666666666663</ele><time>2026-04-24T12:28:45.936Z</time></trkpt><trkpt lat="43.5544357" lon="12.1850823"><ele>400.3333333333333</ele><time>2026-04-24T12:28:46.936Z</time></trkpt><trkpt lat="43.5542325" lon="12.1851318"><ele>398.0</ele><time>2026-04-24T12:28:47.936Z</time></trkpt><trkpt lat="43.5540386" lon="12.1851731"><ele>398.0</ele><time>2026-04-24T12:28:48.936Z</time></trkpt><trkpt lat="43.5538644" lon="12.1852093"><ele>398.0</ele><time>2026-04-24T12:28:49.937Z</time></trkpt><trkpt lat="43.5536785" lon="12.1852444"><ele>398.0</ele><time>2026-04-24T12:28:50.936Z</time></trkpt><trkpt lat="43.5535611" lon="12.1852722"><ele>396.59999999999997</ele><time>2026-04-24T12:28:51.937Z</time></trkpt><trkpt lat="43.5534472" lon="12.1852836"><ele>395.2</ele><time>2026-04-24T12:28:52.936Z</time></trkpt><trkpt lat="43.5533506" lon="12.1852277"><ele>393.8</ele><time>2026-04-24T12:28:53.936Z</time></trkpt><trkpt lat="43.5533008" lon="12.1851257"><ele>392.4</ele><time>2026-04-24T12:28:54.936Z</time></trkpt><trkpt lat="43.5532797" lon="12.1850187"><ele>391.0</ele><time>2026-04-24T12:28:55.936Z</time></trkpt><trkpt lat="43.5533866" lon="12.1849212"><ele>391.0</ele><time>2026-04-24T12:28:56.936Z</time></trkpt><trkpt lat="43.5534946" lon="12.1848609"><ele>391.0</ele><time>2026-04-24T12:28:57.936Z</time></trkpt><trkpt lat="43.5536284" lon="12.1848085"><ele>391.0</ele><time>2026-04-24T12:28:58.937Z</time></trkpt><trkpt lat="43.5538167" lon="12.1847295"><ele>389.33333333333337</ele><time>2026-04-24T12:28:59.936Z</time></trkpt><trkpt lat="43.5539878" lon="12.1846166"><ele>387.66666666666663</ele><time>2026-04-24T12:29:00.936Z</time></trkpt><trkpt lat="43.5541406" lon="12.1844375"><ele>386.0</ele><time>2026-04-24T12:29:01.936Z</time></trkpt><trkpt lat="43.5542686" lon="12.1842443"><ele>386.0</ele><time>2026-04-24T12:29:02.936Z</time></trkpt><trkpt lat="43.5543924" lon="12.1840542"><ele>386.0</ele><time>2026-04-24T12:29:03.936Z</time></trkpt><trkpt lat="43.5545055" lon="12.1838752"><ele>386.0</ele><time>2026-04-24T12:29:04.936Z</time></trkpt><trkpt lat="43.5545993" lon="12.1837162"><ele>385.0</ele><time>2026-04-24T12:29:05.937Z</time></trkpt><trkpt lat="43.5546743" lon="12.1835666"><ele>384.0</ele><time>2026-04-24T12:29:06.937Z</time></trkpt><trkpt lat="43.5547067" lon="12.1834252"><ele>383.0</ele><time>2026-04-24T12:29:07.936Z</time></trkpt><trkpt lat="43.55468" lon="12.1832947"><ele>382.0</ele><time>2026-04-24T12:29:08.936Z</time></trkpt><trkpt lat="43.5546115" lon="12.1832199"><ele>381.0</ele><time>2026-04-24T12:29:09.936Z</time></trkpt><trkpt lat="43.5545363" lon="12.1831905"><ele>380.25</ele><time>2026-04-24T12:29:10.936Z</time></trkpt><trkpt lat="43.5544135" lon="12.1832609"><ele>379.5</ele><time>2026-04-24T12:29:11.937Z</time></trkpt><trkpt lat="43.5542762" lon="12.1833427"><ele>378.75</ele><time>2026-04-24T12:29:12.937Z</time></trkpt><trkpt lat="43.554126" lon="12.1834375"><ele>378.0</ele><time>2026-04-24T12:29:13.936Z</time></trkpt><trkpt lat="43.5539299" lon="12.1835109"><ele>378.0</ele><time>2026-04-24T12:29:14.936Z</time></trkpt><trkpt lat="43.5537353" lon="12.1835742"><ele>378.0</ele><time>2026-04-24T12:29:15.936Z</time></trkpt><trkpt lat="43.5535297" lon="12.1836234"><ele>378.0</ele><time>2026-04-24T12:29:16.936Z</time></trkpt><trkpt lat="43.5532998" lon="12.183669"><ele>373.5</ele><time>2026-04-24T12:29:17.937Z</time></trkpt><trkpt lat="43.5530702" lon="12.1837146"><ele>369.0</ele><time>2026-04-24T12:29:18.936Z</time></trkpt><trkpt lat="43.5528311" lon="12.1837662"><ele>366.5</ele><time>2026-04-24T12:29:19.936Z</time></trkpt><trkpt lat="43.5526019" lon="12.1838174"><ele>364.0</ele><time>2026-04-24T12:29:20.936Z</time></trkpt><trkpt lat="43.5523692" lon="12.1838557"><ele>364.0</ele><time>2026-04-24T12:29:21.936Z</time></trkpt><trkpt lat="43.5521484" lon="12.1838949"><ele>364.0</ele><time>2026-04-24T12:29:22.938Z</time></trkpt><trkpt lat="43.5519466" lon="12.1839138"><ele>364.0</ele><time>2026-04-24T12:29:23.938Z</time></trkpt><trkpt lat="43.5517651" lon="12.1838897"><ele>362.0</ele><time>2026-04-24T12:29:24.936Z</time></trkpt><trkpt lat="43.5515953" lon="12.1837983"><ele>360.0</ele><time>2026-04-24T12:29:25.937Z</time></trkpt><trkpt lat="43.5514331" lon="12.1836753"><ele>358.0</ele><time>2026-04-24T12:29:26.936Z</time></trkpt><trkpt lat="43.5512627" lon="12.1835463"><ele>357.0</ele><time>2026-04-24T12:29:27.937Z</time></trkpt><trkpt lat="43.5510892" lon="12.1834132"><ele>356.0</ele><time>2026-04-24T12:29:28.936Z</time></trkpt><trkpt lat="43.550909" lon="12.1832838"><ele>355.0</ele><time>2026-04-24T12:29:29.935Z</time></trkpt><trkpt lat="43.5507263" lon="12.1831542"><ele>353.0</ele><time>2026-04-24T12:29:30.936Z</time></trkpt><trkpt lat="43.550547" lon="12.1830271"><ele>351.0</ele><time>2026-04-24T12:29:31.937Z</time></trkpt><trkpt lat="43.5503776" lon="12.1829019"><ele>349.0</ele><time>2026-04-24T12:29:32.935Z</time></trkpt><trkpt lat="43.550209" lon="12.1827758"><ele>349.0</ele><time>2026-04-24T12:29:33.936Z</time></trkpt><trkpt lat="43.5500418" lon="12.1826483"><ele>349.0</ele><time>2026-04-24T12:29:34.937Z</time></trkpt><trkpt lat="43.5498787" lon="12.1825219"><ele>349.0</ele><time>2026-04-24T12:29:35.936Z</time></trkpt><trkpt lat="43.5497226" lon="12.1824035"><ele>347.0</ele><time>2026-04-24T12:29:36.936Z</time></trkpt><trkpt lat="43.549571" lon="12.1822864"><ele>345.0</ele><time>2026-04-24T12:29:37.936Z</time></trkpt><trkpt lat="43.5494283" lon="12.1821726"><ele>343.0</ele><time>2026-04-24T12:29:38.935Z</time></trkpt><trkpt lat="43.5492947" lon="12.1820682"><ele>342.5</ele><time>2026-04-24T12:29:39.937Z</time></trkpt><trkpt lat="43.5491771" lon="12.1819863"><ele>342.0</ele><time>2026-04-24T12:29:40.936Z</time></trkpt><trkpt lat="43.5490592" lon="12.1819245"><ele>341.5</ele><time>2026-04-24T12:29:41.935Z</time></trkpt><trkpt lat="43.5489352" lon="12.1819054"><ele>341.0</ele><time>2026-04-24T12:29:42.936Z</time></trkpt><trkpt lat="43.5488036" lon="12.1819385"><ele>338.6666666666667</ele><time>2026-04-24T12:29:43.937Z</time></trkpt><trkpt lat="43.5486643" lon="12.1820184"><ele>336.3333333333333</ele><time>2026-04-24T12:29:44.935Z</time></trkpt><trkpt lat="43.5485126" lon="12.1821045"><ele>334.0</ele><time>2026-04-24T12:29:45.936Z</time></trkpt><trkpt lat="43.5483569" lon="12.1821939"><ele>334.0</ele><time>2026-04-24T12:29:46.935Z</time></trkpt><trkpt lat="43.5482052" lon="12.1822807"><ele>334.0</ele><time>2026-04-24T12:29:47.936Z</time></trkpt><trkpt lat="43.5480483" lon="12.1823329"><ele>334.0</ele><time>2026-04-24T12:29:48.936Z</time></trkpt><trkpt lat="43.5478916" lon="12.1823556"><ele>332.66666666666663</ele><time>2026-04-24T12:29:49.935Z</time></trkpt><trkpt lat="43.5477201" lon="12.1823409"><ele>331.3333333333333</ele><time>2026-04-24T12:29:50.936Z</time></trkpt><trkpt lat="43.5475549" lon="12.1823059"><ele>330.0</ele><time>2026-04-24T12:29:51.937Z</time></trkpt><trkpt lat="43.5473981" lon="12.1822665"><ele>330.0</ele><time>2026-04-24T12:29:52.937Z</time></trkpt><trkpt lat="43.5472494" lon="12.1822327"><ele>330.0</ele><time>2026-04-24T12:29:53.936Z</time></trkpt><trkpt lat="43.5471235" lon="12.1821989"><ele>330.0</ele><time>2026-04-24T12:29:54.936Z</time></trkpt><trkpt lat="43.5470153" lon="12.182124"><ele>330.0</ele><time>2026-04-24T12:29:55.936Z</time></trkpt><trkpt lat="43.546936" lon="12.1820141"><ele>329.5</ele><time>2026-04-24T12:29:56.937Z</time></trkpt><trkpt lat="43.5468969" lon="12.1818701"><ele>329.0</ele><time>2026-04-24T12:29:57.936Z</time></trkpt><trkpt lat="43.546903" lon="12.1817217"><ele>328.5</ele><time>2026-04-24T12:29:58.936Z</time></trkpt><trkpt lat="43.5469345" lon="12.181586"><ele>328.0</ele><time>2026-04-24T12:29:59.936Z</time></trkpt><trkpt lat="43.547019" lon="12.1814349"><ele>328.25</ele><time>2026-04-24T12:30:00.936Z</time></trkpt><trkpt lat="43.5471029" lon="12.1812766"><ele>328.5</ele><time>2026-04-24T12:30:01.937Z</time></trkpt><trkpt lat="43.5471948" lon="12.1811056"><ele>328.75</ele><time>2026-04-24T12:30:02.936Z</time></trkpt><trkpt lat="43.5472808" lon="12.1809385"><ele>329.0</ele><time>2026-04-24T12:30:03.935Z</time></trkpt><trkpt lat="43.5473675" lon="12.1807645"><ele>328.5</ele><time>2026-04-24T12:30:04.936Z</time></trkpt><trkpt lat="43.5474494" lon="12.1805965"><ele>328.0</ele><time>2026-04-24T12:30:05.935Z</time></trkpt><trkpt lat="43.5475327" lon="12.1804363"><ele>327.5</ele><time>2026-04-24T12:30:06.936Z</time></trkpt><trkpt lat="43.547619" lon="12.1802849"><ele>327.0</ele><time>2026-04-24T12:30:07.936Z</time></trkpt><trkpt lat="43.547694" lon="12.1801198"><ele>327.0</ele><time>2026-04-24T12:30:08.936Z</time></trkpt><trkpt lat="43.5477707" lon="12.1799561"><ele>327.0</ele><time>2026-04-24T12:30:09.936Z</time></trkpt><trkpt lat="43.547858" lon="12.1797873"><ele>327.0</ele><time>2026-04-24T12:30:10.935Z</time></trkpt><trkpt lat="43.5479587" lon="12.1796114"><ele>327.6666666666667</ele><time>2026-04-24T12:30:11.936Z</time></trkpt><trkpt lat="43.5480635" lon="12.1794322"><ele>328.33333333333337</ele><time>2026-04-24T12:30:12.936Z</time></trkpt><trkpt lat="43.548163" lon="12.1792355"><ele>329.0</ele><time>2026-04-24T12:30:13.937Z</time></trkpt><trkpt lat="43.5482652" lon="12.1790373"><ele>328.6666666666667</ele><time>2026-04-24T12:30:14.937Z</time></trkpt><trkpt lat="43.5483683" lon="12.1788274"><ele>328.3333333333333</ele><time>2026-04-24T12:30:15.937Z</time></trkpt><trkpt lat="43.5484797" lon="12.178623"><ele>328.0</ele><time>2026-04-24T12:30:16.936Z</time></trkpt><trkpt lat="43.5485861" lon="12.178421"><ele>328.0</ele><time>2026-04-24T12:30:17.936Z</time></trkpt><trkpt lat="43.5486828" lon="12.1782272"><ele>328.0</ele><time>2026-04-24T12:30:18.936Z</time></trkpt><trkpt lat="43.5487711" lon="12.1780465"><ele>328.0</ele><time>2026-04-24T12:30:19.936Z</time></trkpt><trkpt lat="43.5488606" lon="12.1778828"><ele>328.59999999999997</ele><time>2026-04-24T12:30:20.936Z</time></trkpt><trkpt lat="43.5489356" lon="12.1777463"><ele>329.2</ele><time>2026-04-24T12:30:21.936Z</time></trkpt><trkpt lat="43.5490017" lon="12.177631"><ele>329.8</ele><time>2026-04-24T12:30:22.935Z</time></trkpt><trkpt lat="43.5490555" lon="12.1775305"><ele>330.4</ele><time>2026-04-24T12:30:23.936Z</time></trkpt><trkpt lat="43.549091" lon="12.1774307"><ele>331.0</ele><time>2026-04-24T12:30:24.935Z</time></trkpt><trkpt lat="43.5491039" lon="12.1773431"><ele>331.5</ele><time>2026-04-24T12:30:25.935Z</time></trkpt><trkpt lat="43.5490894" lon="12.1772556"><ele>332.0</ele><time>2026-04-24T12:30:26.935Z</time></trkpt><trkpt lat="43.5490444" lon="12.1771593"><ele>332.5</ele><time>2026-04-24T12:30:27.935Z</time></trkpt><trkpt lat="43.5489787" lon="12.1770669"><ele>333.0</ele><time>2026-04-24T12:30:28.936Z</time></trkpt><trkpt lat="43.5488961" lon="12.1769772"><ele>333.5</ele><time>2026-04-24T12:30:29.936Z</time></trkpt><trkpt lat="43.5488205" lon="12.176913"><ele>334.0</ele><time>2026-04-24T12:30:30.936Z</time></trkpt><trkpt lat="43.5487643" lon="12.1768414"><ele>334.0</ele><time>2026-04-24T12:30:31.935Z</time></trkpt><trkpt lat="43.5487176" lon="12.1767105"><ele>334.0</ele><time>2026-04-24T12:30:33.936Z</time></trkpt><trkpt lat="43.5487584" lon="12.1765762"><ele>334.0</ele><time>2026-04-24T12:30:35.936Z</time></trkpt><trkpt lat="43.5488172" lon="12.1764919"><ele>334.0</ele><time>2026-04-24T12:30:36.936Z</time></trkpt><trkpt lat="43.5488781" lon="12.1763649"><ele>334.0</ele><time>2026-04-24T12:30:37.935Z</time></trkpt><trkpt lat="43.5489777" lon="12.1762463"><ele>333.3333333333333</ele><time>2026-04-24T12:30:38.936Z</time></trkpt><trkpt lat="43.5491061" lon="12.1760932"><ele>332.6666666666667</ele><time>2026-04-24T12:30:39.937Z</time></trkpt><trkpt lat="43.5492316" lon="12.1759405"><ele>332.0</ele><time>2026-04-24T12:30:40.935Z</time></trkpt><trkpt lat="43.5493602" lon="12.1757647"><ele>331.6666666666667</ele><time>2026-04-24T12:30:41.936Z</time></trkpt><trkpt lat="43.549494" lon="12.175595"><ele>331.3333333333333</ele><time>2026-04-24T12:30:42.938Z</time></trkpt><trkpt lat="43.5496204" lon="12.1754276"><ele>331.0</ele><time>2026-04-24T12:30:43.936Z</time></trkpt><trkpt lat="43.5497391" lon="12.1752563"><ele>331.0</ele><time>2026-04-24T12:30:44.936Z</time></trkpt><trkpt lat="43.5498615" lon="12.1750904"><ele>331.0</ele><time>2026-04-24T12:30:45.936Z</time></trkpt><trkpt lat="43.5499798" lon="12.174915"><ele>331.0</ele><time>2026-04-24T12:30:46.937Z</time></trkpt><trkpt lat="43.5501126" lon="12.1747204"><ele>330.66666666666663</ele><time>2026-04-24T12:30:47.935Z</time></trkpt><trkpt lat="43.5502445" lon="12.1745356"><ele>330.3333333333333</ele><time>2026-04-24T12:30:48.935Z</time></trkpt><trkpt lat="43.5503861" lon="12.1743421"><ele>330.0</ele><time>2026-04-24T12:30:49.935Z</time></trkpt><trkpt lat="43.5505318" lon="12.1741382"><ele>329.3333333333333</ele><time>2026-04-24T12:30:50.935Z</time></trkpt><trkpt lat="43.5506788" lon="12.1739315"><ele>328.66666666666663</ele><time>2026-04-24T12:30:51.935Z</time></trkpt><trkpt lat="43.5508323" lon="12.1737221"><ele>328.0</ele><time>2026-04-24T12:30:52.936Z</time></trkpt><trkpt lat="43.5509826" lon="12.1735097"><ele>328.0</ele><time>2026-04-24T12:30:53.937Z</time></trkpt><trkpt lat="43.551131" lon="12.1732986"><ele>328.0</ele><time>2026-04-24T12:30:54.936Z</time></trkpt><trkpt lat="43.5512779" lon="12.1730997"><ele>328.0</ele><time>2026-04-24T12:30:55.935Z</time></trkpt><trkpt lat="43.551422" lon="12.1728918"><ele>328.0</ele><time>2026-04-24T12:30:56.936Z</time></trkpt><trkpt lat="43.5515624" lon="12.1726942"><ele>328.0</ele><time>2026-04-24T12:30:57.936Z</time></trkpt><trkpt lat="43.5517019" lon="12.1724976"><ele>328.0</ele><time>2026-04-24T12:30:58.937Z</time></trkpt><trkpt lat="43.551836" lon="12.1723133"><ele>327.66666666666663</ele><time>2026-04-24T12:30:59.936Z</time></trkpt><trkpt lat="43.5519608" lon="12.1721347"><ele>327.3333333333333</ele><time>2026-04-24T12:31:00.936Z</time></trkpt><trkpt lat="43.5520822" lon="12.1719617"><ele>327.0</ele><time>2026-04-24T12:31:01.936Z</time></trkpt><trkpt lat="43.5521988" lon="12.1717985"><ele>327.0</ele><time>2026-04-24T12:31:02.935Z</time></trkpt><trkpt lat="43.5523053" lon="12.1716384"><ele>327.0</ele><time>2026-04-24T12:31:03.936Z</time></trkpt><trkpt lat="43.552415" lon="12.1714866"><ele>327.0</ele><time>2026-04-24T12:31:04.936Z</time></trkpt><trkpt lat="43.552505" lon="12.1713526"><ele>327.0</ele><time>2026-04-24T12:31:05.937Z</time></trkpt><trkpt lat="43.5525983" lon="12.1712245"><ele>327.5</ele><time>2026-04-24T12:31:06.936Z</time></trkpt><trkpt lat="43.5526849" lon="12.1711033"><ele>328.0</ele><time>2026-04-24T12:31:07.936Z</time></trkpt><trkpt lat="43.5527747" lon="12.1709889"><ele>328.5</ele><time>2026-04-24T12:31:08.936Z</time></trkpt><trkpt lat="43.5528599" lon="12.1708679"><ele>329.0</ele><time>2026-04-24T12:31:09.936Z</time></trkpt><trkpt lat="43.5529414" lon="12.1707478"><ele>328.79999999999995</ele><time>2026-04-24T12:31:10.936Z</time></trkpt><trkpt lat="43.5530135" lon="12.1706409"><ele>328.59999999999997</ele><time>2026-04-24T12:31:11.935Z</time></trkpt><trkpt lat="43.5530839" lon="12.1705348"><ele>328.4</ele><time>2026-04-24T12:31:12.935Z</time></trkpt><trkpt lat="43.5531524" lon="12.1704328"><ele>328.2</ele><time>2026-04-24T12:31:13.937Z</time></trkpt><trkpt lat="43.553226" lon="12.1703287"><ele>328.0</ele><time>2026-04-24T12:31:14.936Z</time></trkpt><trkpt lat="43.5533112" lon="12.1702224"><ele>328.0</ele><time>2026-04-24T12:31:15.935Z</time></trkpt><trkpt lat="43.5533996" lon="12.1701165"><ele>328.0</ele><time>2026-04-24T12:31:16.936Z</time></trkpt><trkpt lat="43.5534924" lon="12.1700007"><ele>328.0</ele><time>2026-04-24T12:31:17.937Z</time></trkpt><trkpt lat="43.5536146" lon="12.1698727"><ele>328.0</ele><time>2026-04-24T12:31:18.936Z</time></trkpt><trkpt lat="43.5537461" lon="12.1697327"><ele>327.66666666666663</ele><time>2026-04-24T12:31:19.936Z</time></trkpt><trkpt lat="43.5538858" lon="12.1695932"><ele>327.3333333333333</ele><time>2026-04-24T12:31:20.935Z</time></trkpt><trkpt lat="43.5540482" lon="12.1694427"><ele>327.0</ele><time>2026-04-24T12:31:21.936Z</time></trkpt><trkpt lat="43.5542076" lon="12.1692881"><ele>327.0</ele><time>2026-04-24T12:31:22.935Z</time></trkpt><trkpt lat="43.5543656" lon="12.1691292"><ele>327.0</ele><time>2026-04-24T12:31:23.936Z</time></trkpt><trkpt lat="43.554523" lon="12.1689708"><ele>327.0</ele><time>2026-04-24T12:31:24.935Z</time></trkpt><trkpt lat="43.5546706" lon="12.1688164"><ele>327.75</ele><time>2026-04-24T12:31:25.936Z</time></trkpt><trkpt lat="43.5548098" lon="12.1686787"><ele>328.5</ele><time>2026-04-24T12:31:26.935Z</time></trkpt><trkpt lat="43.5549202" lon="12.1685756"><ele>329.25</ele><time>2026-04-24T12:31:27.936Z</time></trkpt><trkpt lat="43.5550154" lon="12.168499"><ele>330.0</ele><time>2026-04-24T12:31:28.935Z</time></trkpt><trkpt lat="43.5550976" lon="12.1684148"><ele>330.0</ele><time>2026-04-24T12:31:29.936Z</time></trkpt><trkpt lat="43.555185" lon="12.1683146"><ele>330.0</ele><time>2026-04-24T12:31:30.936Z</time></trkpt><trkpt lat="43.5552813" lon="12.1682071"><ele>330.0</ele><time>2026-04-24T12:31:31.936Z</time></trkpt><trkpt lat="43.5553979" lon="12.1680819"><ele>330.0</ele><time>2026-04-24T12:31:32.935Z</time></trkpt><trkpt lat="43.5555195" lon="12.1679536"><ele>330.3333333333333</ele><time>2026-04-24T12:31:33.936Z</time></trkpt><trkpt lat="43.5556517" lon="12.1678091"><ele>330.66666666666663</ele><time>2026-04-24T12:31:34.935Z</time></trkpt><trkpt lat="43.555789" lon="12.1676624"><ele>331.0</ele><time>2026-04-24T12:31:35.935Z</time></trkpt><trkpt lat="43.5559443" lon="12.1675121"><ele>330.66666666666663</ele><time>2026-04-24T12:31:36.935Z</time></trkpt><trkpt lat="43.5560971" lon="12.1673563"><ele>330.3333333333333</ele><time>2026-04-24T12:31:37.935Z</time></trkpt><trkpt lat="43.5562552" lon="12.1671963"><ele>330.0</ele><time>2026-04-24T12:31:38.936Z</time></trkpt><trkpt lat="43.5564205" lon="12.167034"><ele>330.0</ele><time>2026-04-24T12:31:39.936Z</time></trkpt><trkpt lat="43.5565863" lon="12.1668674"><ele>330.0</ele><time>2026-04-24T12:31:40.937Z</time></trkpt><trkpt lat="43.556751" lon="12.1666963"><ele>330.0</ele><time>2026-04-24T12:31:41.935Z</time></trkpt><trkpt lat="43.5569164" lon="12.1665332"><ele>329.6666666666667</ele><time>2026-04-24T12:31:42.936Z</time></trkpt><trkpt lat="43.5570773" lon="12.1663634"><ele>329.33333333333337</ele><time>2026-04-24T12:31:43.935Z</time></trkpt><trkpt lat="43.5572514" lon="12.1661954"><ele>329.0</ele><time>2026-04-24T12:31:44.937Z</time></trkpt><trkpt lat="43.5574204" lon="12.1660228"><ele>329.0</ele><time>2026-04-24T12:31:45.937Z</time></trkpt><trkpt lat="43.5575976" lon="12.1658472"><ele>329.0</ele><time>2026-04-24T12:31:46.937Z</time></trkpt><trkpt lat="43.5577696" lon="12.1656695"><ele>329.0</ele><time>2026-04-24T12:31:47.937Z</time></trkpt><trkpt lat="43.5579422" lon="12.165493"><ele>328.6666666666667</ele><time>2026-04-24T12:31:48.936Z</time></trkpt><trkpt lat="43.5581158" lon="12.1653102"><ele>328.3333333333333</ele><time>2026-04-24T12:31:49.936Z</time></trkpt><trkpt lat="43.5582854" lon="12.1651337"><ele>328.0</ele><time>2026-04-24T12:31:50.935Z</time></trkpt><trkpt lat="43.5584501" lon="12.1649568"><ele>328.0</ele><time>2026-04-24T12:31:51.935Z</time></trkpt><trkpt lat="43.558626" lon="12.1647833"><ele>328.0</ele><time>2026-04-24T12:31:52.937Z</time></trkpt><trkpt lat="43.5587909" lon="12.1646081"><ele>328.0</ele><time>2026-04-24T12:31:53.937Z</time></trkpt><trkpt lat="43.5589582" lon="12.1644278"><ele>328.0</ele><time>2026-04-24T12:31:54.936Z</time></trkpt><trkpt lat="43.5591302" lon="12.1642543"><ele>328.0</ele><time>2026-04-24T12:31:55.937Z</time></trkpt><trkpt lat="43.5593008" lon="12.1640783"><ele>328.0</ele><time>2026-04-24T12:31:56.936Z</time></trkpt><trkpt lat="43.5594731" lon="12.1639136"><ele>328.3333333333333</ele><time>2026-04-24T12:31:57.936Z</time></trkpt><trkpt lat="43.559642" lon="12.1637422"><ele>328.6666666666667</ele><time>2026-04-24T12:31:58.935Z</time></trkpt><trkpt lat="43.5598081" lon="12.1635711"><ele>329.0</ele><time>2026-04-24T12:31:59.936Z</time></trkpt><trkpt lat="43.5599773" lon="12.1634005"><ele>329.0</ele><time>2026-04-24T12:32:00.936Z</time></trkpt><trkpt lat="43.5601425" lon="12.1632302"><ele>329.0</ele><time>2026-04-24T12:32:01.935Z</time></trkpt><trkpt lat="43.5603066" lon="12.1630673"><ele>329.0</ele><time>2026-04-24T12:32:02.935Z</time></trkpt><trkpt lat="43.5604693" lon="12.162902"><ele>329.33333333333337</ele><time>2026-04-24T12:32:03.935Z</time></trkpt><trkpt lat="43.5606182" lon="12.1627536"><ele>329.6666666666667</ele><time>2026-04-24T12:32:04.936Z</time></trkpt><trkpt lat="43.5607615" lon="12.1626024"><ele>330.0</ele><time>2026-04-24T12:32:05.937Z</time></trkpt><trkpt lat="43.5608892" lon="12.1624665"><ele>329.6666666666667</ele><time>2026-04-24T12:32:06.936Z</time></trkpt><trkpt lat="43.5610201" lon="12.1623412"><ele>329.33333333333337</ele><time>2026-04-24T12:32:07.936Z</time></trkpt><trkpt lat="43.561155" lon="12.1622347"><ele>329.0</ele><time>2026-04-24T12:32:08.935Z</time></trkpt><trkpt lat="43.561293" lon="12.1621532"><ele>329.0</ele><time>2026-04-24T12:32:09.936Z</time></trkpt><trkpt lat="43.5614164" lon="12.162045"><ele>329.0</ele><time>2026-04-24T12:32:10.935Z</time></trkpt><trkpt lat="43.5615294" lon="12.1619124"><ele>329.0</ele><time>2026-04-24T12:32:11.936Z</time></trkpt><trkpt lat="43.5616416" lon="12.1617627"><ele>329.0</ele><time>2026-04-24T12:32:12.935Z</time></trkpt><trkpt lat="43.561771" lon="12.1615913"><ele>329.0</ele><time>2026-04-24T12:32:13.936Z</time></trkpt><trkpt lat="43.5619078" lon="12.1614389"><ele>329.0</ele><time>2026-04-24T12:32:14.935Z</time></trkpt><trkpt lat="43.5620475" lon="12.1612919"><ele>329.6666666666667</ele><time>2026-04-24T12:32:15.936Z</time></trkpt><trkpt lat="43.5621853" lon="12.1611517"><ele>330.3333333333333</ele><time>2026-04-24T12:32:16.935Z</time></trkpt><trkpt lat="43.562313" lon="12.1610141"><ele>331.0</ele><time>2026-04-24T12:32:17.935Z</time></trkpt><trkpt lat="43.5624384" lon="12.1608904"><ele>331.0</ele><time>2026-04-24T12:32:18.936Z</time></trkpt><trkpt lat="43.5625595" lon="12.1607682"><ele>331.0</ele><time>2026-04-24T12:32:19.936Z</time></trkpt><trkpt lat="43.5626811" lon="12.1606445"><ele>331.0</ele><time>2026-04-24T12:32:20.936Z</time></trkpt><trkpt lat="43.5627984" lon="12.1605257"><ele>331.0</ele><time>2026-04-24T12:32:21.935Z</time></trkpt><trkpt lat="43.5629141" lon="12.1604107"><ele>331.0</ele><time>2026-04-24T12:32:22.935Z</time></trkpt><trkpt lat="43.5630228" lon="12.1602971"><ele>331.0</ele><time>2026-04-24T12:32:23.935Z</time></trkpt><trkpt lat="43.5631187" lon="12.1601952"><ele>331.0</ele><time>2026-04-24T12:32:24.935Z</time></trkpt><trkpt lat="43.5632026" lon="12.1601074"><ele>331.0</ele><time>2026-04-24T12:32:25.936Z</time></trkpt><trkpt lat="43.5632843" lon="12.1600227"><ele>331.0</ele><time>2026-04-24T12:32:26.935Z</time></trkpt><trkpt lat="43.5633673" lon="12.1599378"><ele>331.0</ele><time>2026-04-24T12:32:27.936Z</time></trkpt><trkpt lat="43.5634516" lon="12.159856"><ele>329.0</ele><time>2026-04-24T12:32:28.935Z</time></trkpt></trkseg></trk></gpx>